<?xml version="1.0" encoding="UTF-8" standalone="no" ?>
<gpx xmlns="http://www.topografix.com/GPX/1/1" xmlns:xsi="http://www.w3.org/2001/XMLSchema-instance" xsi:schemaLocation="http://www.topografix.com/GPX/1/1 http://www.topografix.com/GPX/1/1/gpx.xsd" version="1.1" creator="VisuGPX - https://www.visugpx.com">
  <metadata>
    <name>ancenis</name>
    <desc><![CDATA[rando ancenis]]></desc>
  </metadata>
  <trk>
    <name><![CDATA[2011-10-02 08:54]]></name>
    <desc><![CDATA[]]></desc>
    <trkseg>
      <trkpt lat="47.36226" lon="-1.18522">
        <ele>64.7</ele>
        <time>2011-10-02T06:55:05Z</time>
      </trkpt>
      <trkpt lat="47.36227" lon="-1.18529">
        <ele>63.9</ele>
        <time>2011-10-02T06:55:49Z</time>
      </trkpt>
      <trkpt lat="47.36221" lon="-1.18533">
        <ele>62.8</ele>
        <time>2011-10-02T06:55:51Z</time>
      </trkpt>
      <trkpt lat="47.36212" lon="-1.18527">
        <ele>62.1</ele>
        <time>2011-10-02T06:55:52Z</time>
      </trkpt>
      <trkpt lat="47.36206" lon="-1.18518">
        <ele>62.4</ele>
        <time>2011-10-02T06:55:53Z</time>
      </trkpt>
      <trkpt lat="47.36201" lon="-1.18507">
        <ele>62.4</ele>
        <time>2011-10-02T06:55:54Z</time>
      </trkpt>
      <trkpt lat="47.36196" lon="-1.18499">
        <ele>61.1</ele>
        <time>2011-10-02T06:55:55Z</time>
      </trkpt>
      <trkpt lat="47.36194" lon="-1.18492">
        <ele>60.9</ele>
        <time>2011-10-02T06:55:56Z</time>
      </trkpt>
      <trkpt lat="47.3619" lon="-1.18484">
        <ele>62</ele>
        <time>2011-10-02T06:55:58Z</time>
      </trkpt>
      <trkpt lat="47.36187" lon="-1.18493">
        <ele>61</ele>
        <time>2011-10-02T06:56:05Z</time>
      </trkpt>
      <trkpt lat="47.3618" lon="-1.18502">
        <ele>63.9</ele>
        <time>2011-10-02T06:56:07Z</time>
      </trkpt>
      <trkpt lat="47.36178" lon="-1.1851">
        <ele>63.7</ele>
        <time>2011-10-02T06:56:08Z</time>
      </trkpt>
      <trkpt lat="47.36172" lon="-1.18515">
        <ele>63.1</ele>
        <time>2011-10-02T06:56:09Z</time>
      </trkpt>
      <trkpt lat="47.36164" lon="-1.18524">
        <ele>64.2</ele>
        <time>2011-10-02T06:56:11Z</time>
      </trkpt>
      <trkpt lat="47.3616" lon="-1.18531">
        <ele>64.8</ele>
        <time>2011-10-02T06:56:12Z</time>
      </trkpt>
      <trkpt lat="47.36156" lon="-1.18537">
        <ele>66</ele>
        <time>2011-10-02T06:56:13Z</time>
      </trkpt>
      <trkpt lat="47.36152" lon="-1.18545">
        <ele>65.8</ele>
        <time>2011-10-02T06:56:14Z</time>
      </trkpt>
      <trkpt lat="47.36147" lon="-1.1855">
        <ele>66.7</ele>
        <time>2011-10-02T06:56:15Z</time>
      </trkpt>
      <trkpt lat="47.36144" lon="-1.18556">
        <ele>66.6</ele>
        <time>2011-10-02T06:56:16Z</time>
      </trkpt>
      <trkpt lat="47.36138" lon="-1.18564">
        <ele>65.7</ele>
        <time>2011-10-02T06:56:17Z</time>
      </trkpt>
      <trkpt lat="47.36135" lon="-1.1857">
        <ele>64.8</ele>
        <time>2011-10-02T06:56:18Z</time>
      </trkpt>
      <trkpt lat="47.3613" lon="-1.18578">
        <ele>64.5</ele>
        <time>2011-10-02T06:56:20Z</time>
      </trkpt>
      <trkpt lat="47.36131" lon="-1.18594">
        <ele>64.6</ele>
        <time>2011-10-02T06:56:22Z</time>
      </trkpt>
      <trkpt lat="47.3613" lon="-1.18603">
        <ele>64.4</ele>
        <time>2011-10-02T06:56:23Z</time>
      </trkpt>
      <trkpt lat="47.36129" lon="-1.18612">
        <ele>64.3</ele>
        <time>2011-10-02T06:56:24Z</time>
      </trkpt>
      <trkpt lat="47.36129" lon="-1.1862">
        <ele>64.2</ele>
        <time>2011-10-02T06:56:25Z</time>
      </trkpt>
      <trkpt lat="47.36127" lon="-1.18627">
        <ele>64.2</ele>
        <time>2011-10-02T06:56:26Z</time>
      </trkpt>
      <trkpt lat="47.36126" lon="-1.18634">
        <ele>64.1</ele>
        <time>2011-10-02T06:56:27Z</time>
      </trkpt>
      <trkpt lat="47.36122" lon="-1.18646">
        <ele>65</ele>
        <time>2011-10-02T06:56:29Z</time>
      </trkpt>
      <trkpt lat="47.36117" lon="-1.18653">
        <ele>66.4</ele>
        <time>2011-10-02T06:56:31Z</time>
      </trkpt>
      <trkpt lat="47.36111" lon="-1.1866">
        <ele>66.7</ele>
        <time>2011-10-02T06:56:33Z</time>
      </trkpt>
      <trkpt lat="47.36109" lon="-1.18667">
        <ele>67</ele>
        <time>2011-10-02T06:56:34Z</time>
      </trkpt>
      <trkpt lat="47.36106" lon="-1.18678">
        <ele>68.5</ele>
        <time>2011-10-02T06:56:36Z</time>
      </trkpt>
      <trkpt lat="47.36104" lon="-1.18684">
        <ele>68.6</ele>
        <time>2011-10-02T06:56:37Z</time>
      </trkpt>
      <trkpt lat="47.36101" lon="-1.1869">
        <ele>68.2</ele>
        <time>2011-10-02T06:56:38Z</time>
      </trkpt>
      <trkpt lat="47.36096" lon="-1.18699">
        <ele>68.8</ele>
        <time>2011-10-02T06:56:40Z</time>
      </trkpt>
      <trkpt lat="47.36092" lon="-1.18706">
        <ele>68.8</ele>
        <time>2011-10-02T06:56:41Z</time>
      </trkpt>
      <trkpt lat="47.36089" lon="-1.18714">
        <ele>69.2</ele>
        <time>2011-10-02T06:56:42Z</time>
      </trkpt>
      <trkpt lat="47.36085" lon="-1.18727">
        <ele>68.8</ele>
        <time>2011-10-02T06:56:44Z</time>
      </trkpt>
      <trkpt lat="47.36081" lon="-1.18732">
        <ele>68.6</ele>
        <time>2011-10-02T06:56:45Z</time>
      </trkpt>
      <trkpt lat="47.36074" lon="-1.18746">
        <ele>68.6</ele>
        <time>2011-10-02T06:56:47Z</time>
      </trkpt>
      <trkpt lat="47.3607" lon="-1.18753">
        <ele>68</ele>
        <time>2011-10-02T06:56:48Z</time>
      </trkpt>
      <trkpt lat="47.36066" lon="-1.18759">
        <ele>67.7</ele>
        <time>2011-10-02T06:56:49Z</time>
      </trkpt>
      <trkpt lat="47.36062" lon="-1.18766">
        <ele>67.6</ele>
        <time>2011-10-02T06:56:50Z</time>
      </trkpt>
      <trkpt lat="47.36058" lon="-1.18773">
        <ele>66.8</ele>
        <time>2011-10-02T06:56:51Z</time>
      </trkpt>
      <trkpt lat="47.36052" lon="-1.18785">
        <ele>66.2</ele>
        <time>2011-10-02T06:56:53Z</time>
      </trkpt>
      <trkpt lat="47.36048" lon="-1.1879">
        <ele>66.3</ele>
        <time>2011-10-02T06:56:54Z</time>
      </trkpt>
      <trkpt lat="47.36046" lon="-1.18796">
        <ele>66.7</ele>
        <time>2011-10-02T06:56:55Z</time>
      </trkpt>
      <trkpt lat="47.36039" lon="-1.18807">
        <ele>66.3</ele>
        <time>2011-10-02T06:56:57Z</time>
      </trkpt>
      <trkpt lat="47.36032" lon="-1.18825">
        <ele>64.7</ele>
        <time>2011-10-02T06:57:00Z</time>
      </trkpt>
      <trkpt lat="47.36026" lon="-1.18834">
        <ele>66.1</ele>
        <time>2011-10-02T06:57:02Z</time>
      </trkpt>
      <trkpt lat="47.36023" lon="-1.18839">
        <ele>66.2</ele>
        <time>2011-10-02T06:57:03Z</time>
      </trkpt>
      <trkpt lat="47.36015" lon="-1.18846">
        <ele>65.5</ele>
        <time>2011-10-02T06:57:05Z</time>
      </trkpt>
      <trkpt lat="47.36012" lon="-1.18851">
        <ele>65.1</ele>
        <time>2011-10-02T06:57:06Z</time>
      </trkpt>
      <trkpt lat="47.36008" lon="-1.18857">
        <ele>65</ele>
        <time>2011-10-02T06:57:07Z</time>
      </trkpt>
      <trkpt lat="47.36006" lon="-1.18865">
        <ele>64.7</ele>
        <time>2011-10-02T06:57:08Z</time>
      </trkpt>
      <trkpt lat="47.36002" lon="-1.18871">
        <ele>64.4</ele>
        <time>2011-10-02T06:57:09Z</time>
      </trkpt>
      <trkpt lat="47.35999" lon="-1.18877">
        <ele>63.6</ele>
        <time>2011-10-02T06:57:10Z</time>
      </trkpt>
      <trkpt lat="47.35995" lon="-1.18883">
        <ele>63.7</ele>
        <time>2011-10-02T06:57:11Z</time>
      </trkpt>
      <trkpt lat="47.3599" lon="-1.1889">
        <ele>61.5</ele>
        <time>2011-10-02T06:57:12Z</time>
      </trkpt>
      <trkpt lat="47.35987" lon="-1.18896">
        <ele>61.1</ele>
        <time>2011-10-02T06:57:13Z</time>
      </trkpt>
      <trkpt lat="47.35978" lon="-1.1891">
        <ele>59.5</ele>
        <time>2011-10-02T06:57:15Z</time>
      </trkpt>
      <trkpt lat="47.35975" lon="-1.18917">
        <ele>59.5</ele>
        <time>2011-10-02T06:57:16Z</time>
      </trkpt>
      <trkpt lat="47.35972" lon="-1.18923">
        <ele>60.1</ele>
        <time>2011-10-02T06:57:17Z</time>
      </trkpt>
      <trkpt lat="47.35966" lon="-1.18936">
        <ele>61.3</ele>
        <time>2011-10-02T06:57:19Z</time>
      </trkpt>
      <trkpt lat="47.35961" lon="-1.18944">
        <ele>61.2</ele>
        <time>2011-10-02T06:57:20Z</time>
      </trkpt>
      <trkpt lat="47.35956" lon="-1.18957">
        <ele>61.2</ele>
        <time>2011-10-02T06:57:22Z</time>
      </trkpt>
      <trkpt lat="47.35954" lon="-1.18965">
        <ele>61.9</ele>
        <time>2011-10-02T06:57:23Z</time>
      </trkpt>
      <trkpt lat="47.35949" lon="-1.18982">
        <ele>61.7</ele>
        <time>2011-10-02T06:57:25Z</time>
      </trkpt>
      <trkpt lat="47.35947" lon="-1.18989">
        <ele>62.2</ele>
        <time>2011-10-02T06:57:26Z</time>
      </trkpt>
      <trkpt lat="47.3594" lon="-1.18998">
        <ele>62.6</ele>
        <time>2011-10-02T06:57:27Z</time>
      </trkpt>
      <trkpt lat="47.35936" lon="-1.19008">
        <ele>62.9</ele>
        <time>2011-10-02T06:57:29Z</time>
      </trkpt>
      <trkpt lat="47.35932" lon="-1.19014">
        <ele>62.2</ele>
        <time>2011-10-02T06:57:30Z</time>
      </trkpt>
      <trkpt lat="47.35923" lon="-1.19026">
        <ele>62.1</ele>
        <time>2011-10-02T06:57:31Z</time>
      </trkpt>
      <trkpt lat="47.3592" lon="-1.1903">
        <ele>62.5</ele>
        <time>2011-10-02T06:57:32Z</time>
      </trkpt>
      <trkpt lat="47.35913" lon="-1.19033">
        <ele>61.7</ele>
        <time>2011-10-02T06:57:33Z</time>
      </trkpt>
      <trkpt lat="47.35912" lon="-1.19043">
        <ele>61.3</ele>
        <time>2011-10-02T06:57:35Z</time>
      </trkpt>
      <trkpt lat="47.35906" lon="-1.19052">
        <ele>60.4</ele>
        <time>2011-10-02T06:57:36Z</time>
      </trkpt>
      <trkpt lat="47.35905" lon="-1.1906">
        <ele>60.8</ele>
        <time>2011-10-02T06:57:37Z</time>
      </trkpt>
      <trkpt lat="47.35902" lon="-1.1907">
        <ele>61.4</ele>
        <time>2011-10-02T06:57:38Z</time>
      </trkpt>
      <trkpt lat="47.359" lon="-1.19077">
        <ele>62.2</ele>
        <time>2011-10-02T06:57:39Z</time>
      </trkpt>
      <trkpt lat="47.35897" lon="-1.19085">
        <ele>62.4</ele>
        <time>2011-10-02T06:57:40Z</time>
      </trkpt>
      <trkpt lat="47.35896" lon="-1.19094">
        <ele>62.6</ele>
        <time>2011-10-02T06:57:41Z</time>
      </trkpt>
      <trkpt lat="47.35895" lon="-1.19103">
        <ele>62.4</ele>
        <time>2011-10-02T06:57:42Z</time>
      </trkpt>
      <trkpt lat="47.35894" lon="-1.1911">
        <ele>62.6</ele>
        <time>2011-10-02T06:57:43Z</time>
      </trkpt>
      <trkpt lat="47.3589" lon="-1.19122">
        <ele>62.4</ele>
        <time>2011-10-02T06:57:45Z</time>
      </trkpt>
      <trkpt lat="47.35886" lon="-1.19134">
        <ele>62.6</ele>
        <time>2011-10-02T06:57:47Z</time>
      </trkpt>
      <trkpt lat="47.35885" lon="-1.19142">
        <ele>62.8</ele>
        <time>2011-10-02T06:57:48Z</time>
      </trkpt>
      <trkpt lat="47.35883" lon="-1.19156">
        <ele>63.2</ele>
        <time>2011-10-02T06:57:50Z</time>
      </trkpt>
      <trkpt lat="47.35878" lon="-1.19172">
        <ele>64.4</ele>
        <time>2011-10-02T06:57:51Z</time>
      </trkpt>
      <trkpt lat="47.35876" lon="-1.19181">
        <ele>64.8</ele>
        <time>2011-10-02T06:57:53Z</time>
      </trkpt>
      <trkpt lat="47.35869" lon="-1.19196">
        <ele>64.3</ele>
        <time>2011-10-02T06:57:55Z</time>
      </trkpt>
      <trkpt lat="47.35867" lon="-1.19205">
        <ele>64.7</ele>
        <time>2011-10-02T06:57:56Z</time>
      </trkpt>
      <trkpt lat="47.35862" lon="-1.19218">
        <ele>63.1</ele>
        <time>2011-10-02T06:57:57Z</time>
      </trkpt>
      <trkpt lat="47.35861" lon="-1.19228">
        <ele>63.4</ele>
        <time>2011-10-02T06:57:58Z</time>
      </trkpt>
      <trkpt lat="47.35862" lon="-1.19237">
        <ele>63.5</ele>
        <time>2011-10-02T06:58:00Z</time>
      </trkpt>
      <trkpt lat="47.35859" lon="-1.19256">
        <ele>63.8</ele>
        <time>2011-10-02T06:58:02Z</time>
      </trkpt>
      <trkpt lat="47.35856" lon="-1.19265">
        <ele>64.3</ele>
        <time>2011-10-02T06:58:03Z</time>
      </trkpt>
      <trkpt lat="47.35855" lon="-1.19273">
        <ele>65</ele>
        <time>2011-10-02T06:58:04Z</time>
      </trkpt>
      <trkpt lat="47.35852" lon="-1.19279">
        <ele>65.3</ele>
        <time>2011-10-02T06:58:05Z</time>
      </trkpt>
      <trkpt lat="47.35848" lon="-1.19292">
        <ele>66.4</ele>
        <time>2011-10-02T06:58:07Z</time>
      </trkpt>
      <trkpt lat="47.35845" lon="-1.19298">
        <ele>66.1</ele>
        <time>2011-10-02T06:58:08Z</time>
      </trkpt>
      <trkpt lat="47.35842" lon="-1.19306">
        <ele>65.3</ele>
        <time>2011-10-02T06:58:09Z</time>
      </trkpt>
      <trkpt lat="47.35838" lon="-1.19312">
        <ele>65.7</ele>
        <time>2011-10-02T06:58:10Z</time>
      </trkpt>
      <trkpt lat="47.35834" lon="-1.19319">
        <ele>65.7</ele>
        <time>2011-10-02T06:58:11Z</time>
      </trkpt>
      <trkpt lat="47.35831" lon="-1.19328">
        <ele>66.2</ele>
        <time>2011-10-02T06:58:12Z</time>
      </trkpt>
      <trkpt lat="47.35828" lon="-1.19336">
        <ele>66.6</ele>
        <time>2011-10-02T06:58:13Z</time>
      </trkpt>
      <trkpt lat="47.35823" lon="-1.19346">
        <ele>68.4</ele>
        <time>2011-10-02T06:58:14Z</time>
      </trkpt>
      <trkpt lat="47.35819" lon="-1.19356">
        <ele>68.5</ele>
        <time>2011-10-02T06:58:15Z</time>
      </trkpt>
      <trkpt lat="47.35816" lon="-1.19365">
        <ele>69</ele>
        <time>2011-10-02T06:58:16Z</time>
      </trkpt>
      <trkpt lat="47.35812" lon="-1.19374">
        <ele>68.9</ele>
        <time>2011-10-02T06:58:17Z</time>
      </trkpt>
      <trkpt lat="47.35808" lon="-1.19383">
        <ele>68.9</ele>
        <time>2011-10-02T06:58:18Z</time>
      </trkpt>
      <trkpt lat="47.35798" lon="-1.19396">
        <ele>67.6</ele>
        <time>2011-10-02T06:58:20Z</time>
      </trkpt>
      <trkpt lat="47.35794" lon="-1.19404">
        <ele>67.2</ele>
        <time>2011-10-02T06:58:21Z</time>
      </trkpt>
      <trkpt lat="47.35788" lon="-1.19415">
        <ele>66.7</ele>
        <time>2011-10-02T06:58:22Z</time>
      </trkpt>
      <trkpt lat="47.35785" lon="-1.19423">
        <ele>65.7</ele>
        <time>2011-10-02T06:58:23Z</time>
      </trkpt>
      <trkpt lat="47.35783" lon="-1.19434">
        <ele>65.4</ele>
        <time>2011-10-02T06:58:25Z</time>
      </trkpt>
      <trkpt lat="47.3578" lon="-1.19443">
        <ele>65</ele>
        <time>2011-10-02T06:58:26Z</time>
      </trkpt>
      <trkpt lat="47.35778" lon="-1.19459">
        <ele>65.3</ele>
        <time>2011-10-02T06:58:28Z</time>
      </trkpt>
      <trkpt lat="47.35775" lon="-1.19474">
        <ele>64.5</ele>
        <time>2011-10-02T06:58:29Z</time>
      </trkpt>
      <trkpt lat="47.35776" lon="-1.19481">
        <ele>64.2</ele>
        <time>2011-10-02T06:58:30Z</time>
      </trkpt>
      <trkpt lat="47.35773" lon="-1.19491">
        <ele>62.6</ele>
        <time>2011-10-02T06:58:31Z</time>
      </trkpt>
      <trkpt lat="47.3577" lon="-1.19498">
        <ele>62.6</ele>
        <time>2011-10-02T06:58:32Z</time>
      </trkpt>
      <trkpt lat="47.35767" lon="-1.19507">
        <ele>63.2</ele>
        <time>2011-10-02T06:58:33Z</time>
      </trkpt>
      <trkpt lat="47.35766" lon="-1.19518">
        <ele>63.2</ele>
        <time>2011-10-02T06:58:34Z</time>
      </trkpt>
      <trkpt lat="47.35761" lon="-1.19526">
        <ele>63.4</ele>
        <time>2011-10-02T06:58:35Z</time>
      </trkpt>
      <trkpt lat="47.35759" lon="-1.19531">
        <ele>64</ele>
        <time>2011-10-02T06:58:36Z</time>
      </trkpt>
      <trkpt lat="47.35758" lon="-1.19539">
        <ele>64.3</ele>
        <time>2011-10-02T06:58:37Z</time>
      </trkpt>
      <trkpt lat="47.35755" lon="-1.19547">
        <ele>64.2</ele>
        <time>2011-10-02T06:58:38Z</time>
      </trkpt>
      <trkpt lat="47.35754" lon="-1.19554">
        <ele>63.6</ele>
        <time>2011-10-02T06:58:39Z</time>
      </trkpt>
      <trkpt lat="47.3575" lon="-1.19561">
        <ele>64.5</ele>
        <time>2011-10-02T06:58:40Z</time>
      </trkpt>
      <trkpt lat="47.35746" lon="-1.19571">
        <ele>63.4</ele>
        <time>2011-10-02T06:58:41Z</time>
      </trkpt>
      <trkpt lat="47.35742" lon="-1.19578">
        <ele>64.4</ele>
        <time>2011-10-02T06:58:42Z</time>
      </trkpt>
      <trkpt lat="47.35738" lon="-1.19586">
        <ele>64</ele>
        <time>2011-10-02T06:58:43Z</time>
      </trkpt>
      <trkpt lat="47.35738" lon="-1.19597">
        <ele>64.2</ele>
        <time>2011-10-02T06:58:45Z</time>
      </trkpt>
      <trkpt lat="47.35737" lon="-1.1961">
        <ele>63.6</ele>
        <time>2011-10-02T06:58:46Z</time>
      </trkpt>
      <trkpt lat="47.35734" lon="-1.19622">
        <ele>63</ele>
        <time>2011-10-02T06:58:47Z</time>
      </trkpt>
      <trkpt lat="47.35729" lon="-1.1963">
        <ele>63.2</ele>
        <time>2011-10-02T06:58:48Z</time>
      </trkpt>
      <trkpt lat="47.35727" lon="-1.19636">
        <ele>62.8</ele>
        <time>2011-10-02T06:58:49Z</time>
      </trkpt>
      <trkpt lat="47.35724" lon="-1.19646">
        <ele>61.7</ele>
        <time>2011-10-02T06:58:50Z</time>
      </trkpt>
      <trkpt lat="47.35721" lon="-1.19652">
        <ele>61.4</ele>
        <time>2011-10-02T06:58:51Z</time>
      </trkpt>
      <trkpt lat="47.35719" lon="-1.19661">
        <ele>62.5</ele>
        <time>2011-10-02T06:58:53Z</time>
      </trkpt>
      <trkpt lat="47.35719" lon="-1.19676">
        <ele>63.5</ele>
        <time>2011-10-02T06:58:54Z</time>
      </trkpt>
      <trkpt lat="47.35716" lon="-1.1969">
        <ele>63.3</ele>
        <time>2011-10-02T06:58:56Z</time>
      </trkpt>
      <trkpt lat="47.35712" lon="-1.19698">
        <ele>62.5</ele>
        <time>2011-10-02T06:58:57Z</time>
      </trkpt>
      <trkpt lat="47.35707" lon="-1.19706">
        <ele>62.7</ele>
        <time>2011-10-02T06:58:58Z</time>
      </trkpt>
      <trkpt lat="47.35704" lon="-1.19718">
        <ele>62.1</ele>
        <time>2011-10-02T06:58:59Z</time>
      </trkpt>
      <trkpt lat="47.35701" lon="-1.19723">
        <ele>61.6</ele>
        <time>2011-10-02T06:59:00Z</time>
      </trkpt>
      <trkpt lat="47.35698" lon="-1.19734">
        <ele>61.7</ele>
        <time>2011-10-02T06:59:01Z</time>
      </trkpt>
      <trkpt lat="47.35696" lon="-1.19744">
        <ele>61.2</ele>
        <time>2011-10-02T06:59:02Z</time>
      </trkpt>
      <trkpt lat="47.35694" lon="-1.19754">
        <ele>60.4</ele>
        <time>2011-10-02T06:59:03Z</time>
      </trkpt>
      <trkpt lat="47.35693" lon="-1.19766">
        <ele>60.9</ele>
        <time>2011-10-02T06:59:05Z</time>
      </trkpt>
      <trkpt lat="47.35686" lon="-1.1978">
        <ele>62</ele>
        <time>2011-10-02T06:59:06Z</time>
      </trkpt>
      <trkpt lat="47.35683" lon="-1.19789">
        <ele>62.9</ele>
        <time>2011-10-02T06:59:07Z</time>
      </trkpt>
      <trkpt lat="47.35679" lon="-1.198">
        <ele>63</ele>
        <time>2011-10-02T06:59:08Z</time>
      </trkpt>
      <trkpt lat="47.35674" lon="-1.19807">
        <ele>63</ele>
        <time>2011-10-02T06:59:09Z</time>
      </trkpt>
      <trkpt lat="47.35673" lon="-1.19814">
        <ele>62.8</ele>
        <time>2011-10-02T06:59:10Z</time>
      </trkpt>
      <trkpt lat="47.3567" lon="-1.19822">
        <ele>63.2</ele>
        <time>2011-10-02T06:59:11Z</time>
      </trkpt>
      <trkpt lat="47.35668" lon="-1.19832">
        <ele>63.4</ele>
        <time>2011-10-02T06:59:12Z</time>
      </trkpt>
      <trkpt lat="47.35665" lon="-1.19842">
        <ele>63.6</ele>
        <time>2011-10-02T06:59:14Z</time>
      </trkpt>
      <trkpt lat="47.35661" lon="-1.19851">
        <ele>63.7</ele>
        <time>2011-10-02T06:59:15Z</time>
      </trkpt>
      <trkpt lat="47.35658" lon="-1.19859">
        <ele>64.1</ele>
        <time>2011-10-02T06:59:16Z</time>
      </trkpt>
      <trkpt lat="47.35656" lon="-1.19866">
        <ele>64.9</ele>
        <time>2011-10-02T06:59:17Z</time>
      </trkpt>
      <trkpt lat="47.35654" lon="-1.19874">
        <ele>65.6</ele>
        <time>2011-10-02T06:59:18Z</time>
      </trkpt>
      <trkpt lat="47.35652" lon="-1.19881">
        <ele>66.4</ele>
        <time>2011-10-02T06:59:19Z</time>
      </trkpt>
      <trkpt lat="47.35649" lon="-1.19888">
        <ele>66.4</ele>
        <time>2011-10-02T06:59:20Z</time>
      </trkpt>
      <trkpt lat="47.35644" lon="-1.19899">
        <ele>66.5</ele>
        <time>2011-10-02T06:59:21Z</time>
      </trkpt>
      <trkpt lat="47.35641" lon="-1.19906">
        <ele>66.7</ele>
        <time>2011-10-02T06:59:23Z</time>
      </trkpt>
      <trkpt lat="47.35637" lon="-1.19917">
        <ele>66.4</ele>
        <time>2011-10-02T06:59:25Z</time>
      </trkpt>
      <trkpt lat="47.35634" lon="-1.19923">
        <ele>65.2</ele>
        <time>2011-10-02T06:59:26Z</time>
      </trkpt>
      <trkpt lat="47.35631" lon="-1.19938">
        <ele>65.6</ele>
        <time>2011-10-02T06:59:28Z</time>
      </trkpt>
      <trkpt lat="47.3563" lon="-1.1995">
        <ele>66.4</ele>
        <time>2011-10-02T06:59:29Z</time>
      </trkpt>
      <trkpt lat="47.35628" lon="-1.19963">
        <ele>67.3</ele>
        <time>2011-10-02T06:59:30Z</time>
      </trkpt>
      <trkpt lat="47.35624" lon="-1.19974">
        <ele>67.7</ele>
        <time>2011-10-02T06:59:31Z</time>
      </trkpt>
      <trkpt lat="47.3562" lon="-1.19987">
        <ele>66.9</ele>
        <time>2011-10-02T06:59:32Z</time>
      </trkpt>
      <trkpt lat="47.35619" lon="-1.19996">
        <ele>67.5</ele>
        <time>2011-10-02T06:59:33Z</time>
      </trkpt>
      <trkpt lat="47.35616" lon="-1.20008">
        <ele>67.2</ele>
        <time>2011-10-02T06:59:35Z</time>
      </trkpt>
      <trkpt lat="47.35614" lon="-1.20019">
        <ele>66.7</ele>
        <time>2011-10-02T06:59:37Z</time>
      </trkpt>
      <trkpt lat="47.35611" lon="-1.20033">
        <ele>65.1</ele>
        <time>2011-10-02T06:59:38Z</time>
      </trkpt>
      <trkpt lat="47.3561" lon="-1.20042">
        <ele>63.9</ele>
        <time>2011-10-02T06:59:39Z</time>
      </trkpt>
      <trkpt lat="47.35606" lon="-1.2005">
        <ele>63.9</ele>
        <time>2011-10-02T06:59:40Z</time>
      </trkpt>
      <trkpt lat="47.35606" lon="-1.20058">
        <ele>64</ele>
        <time>2011-10-02T06:59:41Z</time>
      </trkpt>
      <trkpt lat="47.35604" lon="-1.20066">
        <ele>63.8</ele>
        <time>2011-10-02T06:59:42Z</time>
      </trkpt>
      <trkpt lat="47.35603" lon="-1.20077">
        <ele>63.9</ele>
        <time>2011-10-02T06:59:43Z</time>
      </trkpt>
      <trkpt lat="47.35602" lon="-1.20088">
        <ele>63.6</ele>
        <time>2011-10-02T06:59:44Z</time>
      </trkpt>
      <trkpt lat="47.35597" lon="-1.20098">
        <ele>62.2</ele>
        <time>2011-10-02T06:59:45Z</time>
      </trkpt>
      <trkpt lat="47.35597" lon="-1.20107">
        <ele>62.5</ele>
        <time>2011-10-02T06:59:46Z</time>
      </trkpt>
      <trkpt lat="47.35598" lon="-1.20118">
        <ele>62.2</ele>
        <time>2011-10-02T06:59:47Z</time>
      </trkpt>
      <trkpt lat="47.35597" lon="-1.20131">
        <ele>61.6</ele>
        <time>2011-10-02T06:59:49Z</time>
      </trkpt>
      <trkpt lat="47.35595" lon="-1.20143">
        <ele>61.9</ele>
        <time>2011-10-02T06:59:51Z</time>
      </trkpt>
      <trkpt lat="47.35592" lon="-1.20151">
        <ele>62.2</ele>
        <time>2011-10-02T06:59:52Z</time>
      </trkpt>
      <trkpt lat="47.35598" lon="-1.20162">
        <ele>60.8</ele>
        <time>2011-10-02T06:59:53Z</time>
      </trkpt>
      <trkpt lat="47.35601" lon="-1.20172">
        <ele>60.3</ele>
        <time>2011-10-02T06:59:55Z</time>
      </trkpt>
      <trkpt lat="47.35603" lon="-1.20179">
        <ele>60.3</ele>
        <time>2011-10-02T06:59:56Z</time>
      </trkpt>
      <trkpt lat="47.35605" lon="-1.20197">
        <ele>62.2</ele>
        <time>2011-10-02T06:59:57Z</time>
      </trkpt>
      <trkpt lat="47.35606" lon="-1.20212">
        <ele>62.3</ele>
        <time>2011-10-02T06:59:58Z</time>
      </trkpt>
      <trkpt lat="47.35612" lon="-1.20204">
        <ele>62.5</ele>
        <time>2011-10-02T07:00:04Z</time>
      </trkpt>
      <trkpt lat="47.35618" lon="-1.20195">
        <ele>63</ele>
        <time>2011-10-02T07:00:06Z</time>
      </trkpt>
      <trkpt lat="47.35622" lon="-1.2019">
        <ele>63.6</ele>
        <time>2011-10-02T07:00:07Z</time>
      </trkpt>
      <trkpt lat="47.35633" lon="-1.20183">
        <ele>63.7</ele>
        <time>2011-10-02T07:00:10Z</time>
      </trkpt>
      <trkpt lat="47.35639" lon="-1.20179">
        <ele>63.3</ele>
        <time>2011-10-02T07:00:11Z</time>
      </trkpt>
      <trkpt lat="47.35648" lon="-1.20175">
        <ele>63.7</ele>
        <time>2011-10-02T07:00:12Z</time>
      </trkpt>
      <trkpt lat="47.35656" lon="-1.20171">
        <ele>63.2</ele>
        <time>2011-10-02T07:00:13Z</time>
      </trkpt>
      <trkpt lat="47.35667" lon="-1.2016">
        <ele>63.4</ele>
        <time>2011-10-02T07:00:16Z</time>
      </trkpt>
      <trkpt lat="47.35675" lon="-1.20154">
        <ele>64.2</ele>
        <time>2011-10-02T07:00:17Z</time>
      </trkpt>
      <trkpt lat="47.3568" lon="-1.20139">
        <ele>64.2</ele>
        <time>2011-10-02T07:00:18Z</time>
      </trkpt>
      <trkpt lat="47.35687" lon="-1.20136">
        <ele>63.4</ele>
        <time>2011-10-02T07:00:19Z</time>
      </trkpt>
      <trkpt lat="47.35695" lon="-1.2013">
        <ele>62.7</ele>
        <time>2011-10-02T07:00:20Z</time>
      </trkpt>
      <trkpt lat="47.35703" lon="-1.20131">
        <ele>62.4</ele>
        <time>2011-10-02T07:00:21Z</time>
      </trkpt>
      <trkpt lat="47.35709" lon="-1.2013">
        <ele>62.8</ele>
        <time>2011-10-02T07:00:22Z</time>
      </trkpt>
      <trkpt lat="47.35718" lon="-1.20128">
        <ele>62</ele>
        <time>2011-10-02T07:00:23Z</time>
      </trkpt>
      <trkpt lat="47.35726" lon="-1.20124">
        <ele>59.6</ele>
        <time>2011-10-02T07:00:24Z</time>
      </trkpt>
      <trkpt lat="47.35737" lon="-1.20122">
        <ele>59.1</ele>
        <time>2011-10-02T07:00:26Z</time>
      </trkpt>
      <trkpt lat="47.35749" lon="-1.20126">
        <ele>59.8</ele>
        <time>2011-10-02T07:00:27Z</time>
      </trkpt>
      <trkpt lat="47.35756" lon="-1.20126">
        <ele>58.4</ele>
        <time>2011-10-02T07:00:28Z</time>
      </trkpt>
      <trkpt lat="47.35762" lon="-1.20127">
        <ele>58.1</ele>
        <time>2011-10-02T07:00:29Z</time>
      </trkpt>
      <trkpt lat="47.35767" lon="-1.20128">
        <ele>59</ele>
        <time>2011-10-02T07:00:30Z</time>
      </trkpt>
      <trkpt lat="47.35776" lon="-1.20133">
        <ele>59.2</ele>
        <time>2011-10-02T07:00:32Z</time>
      </trkpt>
      <trkpt lat="47.35782" lon="-1.20137">
        <ele>59.6</ele>
        <time>2011-10-02T07:00:33Z</time>
      </trkpt>
      <trkpt lat="47.35787" lon="-1.20138">
        <ele>60.1</ele>
        <time>2011-10-02T07:00:34Z</time>
      </trkpt>
      <trkpt lat="47.35792" lon="-1.2014">
        <ele>60.5</ele>
        <time>2011-10-02T07:00:35Z</time>
      </trkpt>
      <trkpt lat="47.358" lon="-1.20136">
        <ele>60.6</ele>
        <time>2011-10-02T07:00:36Z</time>
      </trkpt>
      <trkpt lat="47.35808" lon="-1.20139">
        <ele>60.6</ele>
        <time>2011-10-02T07:00:38Z</time>
      </trkpt>
      <trkpt lat="47.35818" lon="-1.20146">
        <ele>60.4</ele>
        <time>2011-10-02T07:00:39Z</time>
      </trkpt>
      <trkpt lat="47.35826" lon="-1.20152">
        <ele>59.6</ele>
        <time>2011-10-02T07:00:40Z</time>
      </trkpt>
      <trkpt lat="47.35831" lon="-1.20154">
        <ele>60</ele>
        <time>2011-10-02T07:00:41Z</time>
      </trkpt>
      <trkpt lat="47.35839" lon="-1.20154">
        <ele>60.5</ele>
        <time>2011-10-02T07:00:42Z</time>
      </trkpt>
      <trkpt lat="47.35847" lon="-1.20156">
        <ele>58.8</ele>
        <time>2011-10-02T07:00:44Z</time>
      </trkpt>
      <trkpt lat="47.35853" lon="-1.20156">
        <ele>58.2</ele>
        <time>2011-10-02T07:00:45Z</time>
      </trkpt>
      <trkpt lat="47.35864" lon="-1.20159">
        <ele>57</ele>
        <time>2011-10-02T07:00:46Z</time>
      </trkpt>
      <trkpt lat="47.3587" lon="-1.2016">
        <ele>57</ele>
        <time>2011-10-02T07:00:47Z</time>
      </trkpt>
      <trkpt lat="47.35875" lon="-1.20156">
        <ele>56.9</ele>
        <time>2011-10-02T07:00:48Z</time>
      </trkpt>
      <trkpt lat="47.3588" lon="-1.20151">
        <ele>57.2</ele>
        <time>2011-10-02T07:00:49Z</time>
      </trkpt>
      <trkpt lat="47.35885" lon="-1.2015">
        <ele>56.8</ele>
        <time>2011-10-02T07:00:50Z</time>
      </trkpt>
      <trkpt lat="47.35894" lon="-1.20142">
        <ele>57.2</ele>
        <time>2011-10-02T07:00:52Z</time>
      </trkpt>
      <trkpt lat="47.35898" lon="-1.20133">
        <ele>57.6</ele>
        <time>2011-10-02T07:00:54Z</time>
      </trkpt>
      <trkpt lat="47.35902" lon="-1.20127">
        <ele>57.8</ele>
        <time>2011-10-02T07:00:55Z</time>
      </trkpt>
      <trkpt lat="47.35912" lon="-1.20118">
        <ele>58.4</ele>
        <time>2011-10-02T07:00:56Z</time>
      </trkpt>
      <trkpt lat="47.35918" lon="-1.20113">
        <ele>58.6</ele>
        <time>2011-10-02T07:00:57Z</time>
      </trkpt>
      <trkpt lat="47.35924" lon="-1.20105">
        <ele>59</ele>
        <time>2011-10-02T07:00:59Z</time>
      </trkpt>
      <trkpt lat="47.35939" lon="-1.20093">
        <ele>59.3</ele>
        <time>2011-10-02T07:01:01Z</time>
      </trkpt>
      <trkpt lat="47.35942" lon="-1.20086">
        <ele>58.2</ele>
        <time>2011-10-02T07:01:02Z</time>
      </trkpt>
      <trkpt lat="47.35946" lon="-1.20079">
        <ele>57.8</ele>
        <time>2011-10-02T07:01:04Z</time>
      </trkpt>
      <trkpt lat="47.35949" lon="-1.20073">
        <ele>58.2</ele>
        <time>2011-10-02T07:01:05Z</time>
      </trkpt>
      <trkpt lat="47.35953" lon="-1.20067">
        <ele>57.8</ele>
        <time>2011-10-02T07:01:06Z</time>
      </trkpt>
      <trkpt lat="47.35957" lon="-1.20056">
        <ele>59.2</ele>
        <time>2011-10-02T07:01:07Z</time>
      </trkpt>
      <trkpt lat="47.35959" lon="-1.20049">
        <ele>60.9</ele>
        <time>2011-10-02T07:01:08Z</time>
      </trkpt>
      <trkpt lat="47.35962" lon="-1.20043">
        <ele>61.7</ele>
        <time>2011-10-02T07:01:09Z</time>
      </trkpt>
      <trkpt lat="47.35967" lon="-1.20036">
        <ele>61.8</ele>
        <time>2011-10-02T07:01:10Z</time>
      </trkpt>
      <trkpt lat="47.35972" lon="-1.20028">
        <ele>63</ele>
        <time>2011-10-02T07:01:11Z</time>
      </trkpt>
      <trkpt lat="47.35976" lon="-1.2002">
        <ele>63</ele>
        <time>2011-10-02T07:01:12Z</time>
      </trkpt>
      <trkpt lat="47.3598" lon="-1.20014">
        <ele>63.6</ele>
        <time>2011-10-02T07:01:13Z</time>
      </trkpt>
      <trkpt lat="47.35983" lon="-1.20007">
        <ele>63.9</ele>
        <time>2011-10-02T07:01:15Z</time>
      </trkpt>
      <trkpt lat="47.35989" lon="-1.20001">
        <ele>63.6</ele>
        <time>2011-10-02T07:01:17Z</time>
      </trkpt>
      <trkpt lat="47.35993" lon="-1.19997">
        <ele>64</ele>
        <time>2011-10-02T07:01:18Z</time>
      </trkpt>
      <trkpt lat="47.35998" lon="-1.19994">
        <ele>63.8</ele>
        <time>2011-10-02T07:01:19Z</time>
      </trkpt>
      <trkpt lat="47.36004" lon="-1.19993">
        <ele>63.6</ele>
        <time>2011-10-02T07:01:20Z</time>
      </trkpt>
      <trkpt lat="47.36008" lon="-1.19991">
        <ele>64.3</ele>
        <time>2011-10-02T07:01:21Z</time>
      </trkpt>
      <trkpt lat="47.36014" lon="-1.1999">
        <ele>64.8</ele>
        <time>2011-10-02T07:01:22Z</time>
      </trkpt>
      <trkpt lat="47.36022" lon="-1.19987">
        <ele>65.4</ele>
        <time>2011-10-02T07:01:24Z</time>
      </trkpt>
      <trkpt lat="47.36027" lon="-1.19986">
        <ele>65.4</ele>
        <time>2011-10-02T07:01:25Z</time>
      </trkpt>
      <trkpt lat="47.36037" lon="-1.19985">
        <ele>64.5</ele>
        <time>2011-10-02T07:01:26Z</time>
      </trkpt>
      <trkpt lat="47.36045" lon="-1.19981">
        <ele>64.1</ele>
        <time>2011-10-02T07:01:28Z</time>
      </trkpt>
      <trkpt lat="47.36055" lon="-1.1998">
        <ele>63</ele>
        <time>2011-10-02T07:01:29Z</time>
      </trkpt>
      <trkpt lat="47.36063" lon="-1.19981">
        <ele>63.3</ele>
        <time>2011-10-02T07:01:30Z</time>
      </trkpt>
      <trkpt lat="47.36071" lon="-1.19979">
        <ele>62.1</ele>
        <time>2011-10-02T07:01:31Z</time>
      </trkpt>
      <trkpt lat="47.36078" lon="-1.19975">
        <ele>63.6</ele>
        <time>2011-10-02T07:01:32Z</time>
      </trkpt>
      <trkpt lat="47.36084" lon="-1.19973">
        <ele>64</ele>
        <time>2011-10-02T07:01:33Z</time>
      </trkpt>
      <trkpt lat="47.36092" lon="-1.19971">
        <ele>63.2</ele>
        <time>2011-10-02T07:01:34Z</time>
      </trkpt>
      <trkpt lat="47.36096" lon="-1.1997">
        <ele>63.2</ele>
        <time>2011-10-02T07:01:35Z</time>
      </trkpt>
      <trkpt lat="47.36108" lon="-1.19965">
        <ele>62.3</ele>
        <time>2011-10-02T07:01:38Z</time>
      </trkpt>
      <trkpt lat="47.36113" lon="-1.19961">
        <ele>62.6</ele>
        <time>2011-10-02T07:01:39Z</time>
      </trkpt>
      <trkpt lat="47.36119" lon="-1.1996">
        <ele>63.7</ele>
        <time>2011-10-02T07:01:40Z</time>
      </trkpt>
      <trkpt lat="47.36126" lon="-1.1996">
        <ele>64.2</ele>
        <time>2011-10-02T07:01:41Z</time>
      </trkpt>
      <trkpt lat="47.36133" lon="-1.1996">
        <ele>64.4</ele>
        <time>2011-10-02T07:01:42Z</time>
      </trkpt>
      <trkpt lat="47.36141" lon="-1.19958">
        <ele>64.6</ele>
        <time>2011-10-02T07:01:43Z</time>
      </trkpt>
      <trkpt lat="47.36152" lon="-1.19955">
        <ele>63.8</ele>
        <time>2011-10-02T07:01:44Z</time>
      </trkpt>
      <trkpt lat="47.3616" lon="-1.19959">
        <ele>63.9</ele>
        <time>2011-10-02T07:01:46Z</time>
      </trkpt>
      <trkpt lat="47.36166" lon="-1.19963">
        <ele>63.1</ele>
        <time>2011-10-02T07:01:47Z</time>
      </trkpt>
      <trkpt lat="47.36177" lon="-1.19977">
        <ele>63.1</ele>
        <time>2011-10-02T07:01:49Z</time>
      </trkpt>
      <trkpt lat="47.36182" lon="-1.1998">
        <ele>62.2</ele>
        <time>2011-10-02T07:01:50Z</time>
      </trkpt>
      <trkpt lat="47.36189" lon="-1.19985">
        <ele>61.7</ele>
        <time>2011-10-02T07:01:52Z</time>
      </trkpt>
      <trkpt lat="47.36193" lon="-1.19991">
        <ele>60.3</ele>
        <time>2011-10-02T07:01:53Z</time>
      </trkpt>
      <trkpt lat="47.36195" lon="-1.19998">
        <ele>58.8</ele>
        <time>2011-10-02T07:01:54Z</time>
      </trkpt>
      <trkpt lat="47.36196" lon="-1.20008">
        <ele>56.7</ele>
        <time>2011-10-02T07:01:56Z</time>
      </trkpt>
      <trkpt lat="47.36194" lon="-1.20025">
        <ele>56.3</ele>
        <time>2011-10-02T07:01:59Z</time>
      </trkpt>
      <trkpt lat="47.36192" lon="-1.20037">
        <ele>55.1</ele>
        <time>2011-10-02T07:02:00Z</time>
      </trkpt>
      <trkpt lat="47.36188" lon="-1.20054">
        <ele>54.1</ele>
        <time>2011-10-02T07:02:01Z</time>
      </trkpt>
      <trkpt lat="47.36186" lon="-1.20062">
        <ele>53.5</ele>
        <time>2011-10-02T07:02:02Z</time>
      </trkpt>
      <trkpt lat="47.36186" lon="-1.2007">
        <ele>53.6</ele>
        <time>2011-10-02T07:02:03Z</time>
      </trkpt>
      <trkpt lat="47.36183" lon="-1.20079">
        <ele>54.4</ele>
        <time>2011-10-02T07:02:04Z</time>
      </trkpt>
      <trkpt lat="47.36181" lon="-1.20087">
        <ele>54.7</ele>
        <time>2011-10-02T07:02:05Z</time>
      </trkpt>
      <trkpt lat="47.36181" lon="-1.20097">
        <ele>55</ele>
        <time>2011-10-02T07:02:06Z</time>
      </trkpt>
      <trkpt lat="47.36182" lon="-1.20105">
        <ele>56</ele>
        <time>2011-10-02T07:02:07Z</time>
      </trkpt>
      <trkpt lat="47.36182" lon="-1.20113">
        <ele>56</ele>
        <time>2011-10-02T07:02:09Z</time>
      </trkpt>
      <trkpt lat="47.36184" lon="-1.20124">
        <ele>55.5</ele>
        <time>2011-10-02T07:02:11Z</time>
      </trkpt>
      <trkpt lat="47.36188" lon="-1.2013">
        <ele>56.7</ele>
        <time>2011-10-02T07:02:13Z</time>
      </trkpt>
      <trkpt lat="47.36193" lon="-1.20135">
        <ele>56.9</ele>
        <time>2011-10-02T07:02:16Z</time>
      </trkpt>
      <trkpt lat="47.362" lon="-1.2014">
        <ele>57.2</ele>
        <time>2011-10-02T07:02:19Z</time>
      </trkpt>
      <trkpt lat="47.36207" lon="-1.20147">
        <ele>57.4</ele>
        <time>2011-10-02T07:02:21Z</time>
      </trkpt>
      <trkpt lat="47.36212" lon="-1.20152">
        <ele>56.9</ele>
        <time>2011-10-02T07:02:23Z</time>
      </trkpt>
      <trkpt lat="47.36219" lon="-1.20165">
        <ele>58.9</ele>
        <time>2011-10-02T07:02:25Z</time>
      </trkpt>
      <trkpt lat="47.36224" lon="-1.20172">
        <ele>59.3</ele>
        <time>2011-10-02T07:02:26Z</time>
      </trkpt>
      <trkpt lat="47.36231" lon="-1.20194">
        <ele>58.7</ele>
        <time>2011-10-02T07:02:27Z</time>
      </trkpt>
      <trkpt lat="47.36233" lon="-1.202">
        <ele>58.8</ele>
        <time>2011-10-02T07:02:28Z</time>
      </trkpt>
      <trkpt lat="47.36235" lon="-1.20207">
        <ele>58.9</ele>
        <time>2011-10-02T07:02:29Z</time>
      </trkpt>
      <trkpt lat="47.36234" lon="-1.20218">
        <ele>59.3</ele>
        <time>2011-10-02T07:02:31Z</time>
      </trkpt>
      <trkpt lat="47.36233" lon="-1.20235">
        <ele>61.2</ele>
        <time>2011-10-02T07:02:33Z</time>
      </trkpt>
      <trkpt lat="47.36233" lon="-1.20243">
        <ele>61.2</ele>
        <time>2011-10-02T07:02:34Z</time>
      </trkpt>
      <trkpt lat="47.36232" lon="-1.20251">
        <ele>62.4</ele>
        <time>2011-10-02T07:02:35Z</time>
      </trkpt>
      <trkpt lat="47.36232" lon="-1.20259">
        <ele>63.4</ele>
        <time>2011-10-02T07:02:36Z</time>
      </trkpt>
      <trkpt lat="47.3623" lon="-1.20266">
        <ele>63.8</ele>
        <time>2011-10-02T07:02:37Z</time>
      </trkpt>
      <trkpt lat="47.36229" lon="-1.20273">
        <ele>64.2</ele>
        <time>2011-10-02T07:02:38Z</time>
      </trkpt>
      <trkpt lat="47.36227" lon="-1.20281">
        <ele>64.6</ele>
        <time>2011-10-02T07:02:39Z</time>
      </trkpt>
      <trkpt lat="47.36225" lon="-1.20286">
        <ele>63.2</ele>
        <time>2011-10-02T07:02:40Z</time>
      </trkpt>
      <trkpt lat="47.36222" lon="-1.20293">
        <ele>62.9</ele>
        <time>2011-10-02T07:02:42Z</time>
      </trkpt>
      <trkpt lat="47.3622" lon="-1.20309">
        <ele>63.4</ele>
        <time>2011-10-02T07:02:44Z</time>
      </trkpt>
      <trkpt lat="47.3622" lon="-1.20332">
        <ele>62.9</ele>
        <time>2011-10-02T07:02:47Z</time>
      </trkpt>
      <trkpt lat="47.36219" lon="-1.20339">
        <ele>63.7</ele>
        <time>2011-10-02T07:02:48Z</time>
      </trkpt>
      <trkpt lat="47.3622" lon="-1.20349">
        <ele>63.8</ele>
        <time>2011-10-02T07:02:49Z</time>
      </trkpt>
      <trkpt lat="47.36218" lon="-1.20355">
        <ele>65.4</ele>
        <time>2011-10-02T07:02:51Z</time>
      </trkpt>
      <trkpt lat="47.36214" lon="-1.20365">
        <ele>67</ele>
        <time>2011-10-02T07:02:52Z</time>
      </trkpt>
      <trkpt lat="47.36212" lon="-1.20374">
        <ele>67.2</ele>
        <time>2011-10-02T07:02:55Z</time>
      </trkpt>
      <trkpt lat="47.36211" lon="-1.20383">
        <ele>66.9</ele>
        <time>2011-10-02T07:02:57Z</time>
      </trkpt>
      <trkpt lat="47.3621" lon="-1.2039">
        <ele>67.1</ele>
        <time>2011-10-02T07:02:59Z</time>
      </trkpt>
      <trkpt lat="47.36208" lon="-1.20401">
        <ele>67.1</ele>
        <time>2011-10-02T07:03:01Z</time>
      </trkpt>
      <trkpt lat="47.36207" lon="-1.20409">
        <ele>68.2</ele>
        <time>2011-10-02T07:03:02Z</time>
      </trkpt>
      <trkpt lat="47.36205" lon="-1.20419">
        <ele>65.6</ele>
        <time>2011-10-02T07:03:03Z</time>
      </trkpt>
      <trkpt lat="47.36203" lon="-1.2043">
        <ele>66.7</ele>
        <time>2011-10-02T07:03:06Z</time>
      </trkpt>
      <trkpt lat="47.36202" lon="-1.20442">
        <ele>66.9</ele>
        <time>2011-10-02T07:03:08Z</time>
      </trkpt>
      <trkpt lat="47.36202" lon="-1.2045">
        <ele>67.3</ele>
        <time>2011-10-02T07:03:09Z</time>
      </trkpt>
      <trkpt lat="47.36203" lon="-1.2046">
        <ele>68.4</ele>
        <time>2011-10-02T07:03:11Z</time>
      </trkpt>
      <trkpt lat="47.36204" lon="-1.20468">
        <ele>68.5</ele>
        <time>2011-10-02T07:03:12Z</time>
      </trkpt>
      <trkpt lat="47.36204" lon="-1.20477">
        <ele>70.1</ele>
        <time>2011-10-02T07:03:13Z</time>
      </trkpt>
      <trkpt lat="47.362" lon="-1.20483">
        <ele>69.6</ele>
        <time>2011-10-02T07:03:14Z</time>
      </trkpt>
      <trkpt lat="47.362" lon="-1.2049">
        <ele>68.3</ele>
        <time>2011-10-02T07:03:15Z</time>
      </trkpt>
      <trkpt lat="47.36198" lon="-1.20498">
        <ele>67.1</ele>
        <time>2011-10-02T07:03:16Z</time>
      </trkpt>
      <trkpt lat="47.36194" lon="-1.20507">
        <ele>68</ele>
        <time>2011-10-02T07:03:18Z</time>
      </trkpt>
      <trkpt lat="47.36192" lon="-1.20514">
        <ele>67.4</ele>
        <time>2011-10-02T07:03:19Z</time>
      </trkpt>
      <trkpt lat="47.36185" lon="-1.2052">
        <ele>65.4</ele>
        <time>2011-10-02T07:03:21Z</time>
      </trkpt>
      <trkpt lat="47.3618" lon="-1.20528">
        <ele>66.4</ele>
        <time>2011-10-02T07:03:22Z</time>
      </trkpt>
      <trkpt lat="47.36176" lon="-1.2054">
        <ele>66.2</ele>
        <time>2011-10-02T07:03:24Z</time>
      </trkpt>
      <trkpt lat="47.36172" lon="-1.20546">
        <ele>66.3</ele>
        <time>2011-10-02T07:03:26Z</time>
      </trkpt>
      <trkpt lat="47.3617" lon="-1.20552">
        <ele>66.5</ele>
        <time>2011-10-02T07:03:27Z</time>
      </trkpt>
      <trkpt lat="47.36169" lon="-1.20563">
        <ele>67.3</ele>
        <time>2011-10-02T07:03:29Z</time>
      </trkpt>
      <trkpt lat="47.36167" lon="-1.20575">
        <ele>67.6</ele>
        <time>2011-10-02T07:03:31Z</time>
      </trkpt>
      <trkpt lat="47.36166" lon="-1.20582">
        <ele>67.2</ele>
        <time>2011-10-02T07:03:32Z</time>
      </trkpt>
      <trkpt lat="47.36165" lon="-1.20589">
        <ele>67.1</ele>
        <time>2011-10-02T07:03:33Z</time>
      </trkpt>
      <trkpt lat="47.36163" lon="-1.20601">
        <ele>67.2</ele>
        <time>2011-10-02T07:03:35Z</time>
      </trkpt>
      <trkpt lat="47.36162" lon="-1.20608">
        <ele>67.2</ele>
        <time>2011-10-02T07:03:36Z</time>
      </trkpt>
      <trkpt lat="47.3616" lon="-1.20621">
        <ele>67.5</ele>
        <time>2011-10-02T07:03:38Z</time>
      </trkpt>
      <trkpt lat="47.36158" lon="-1.20633">
        <ele>67.7</ele>
        <time>2011-10-02T07:03:40Z</time>
      </trkpt>
      <trkpt lat="47.36157" lon="-1.2064">
        <ele>68</ele>
        <time>2011-10-02T07:03:41Z</time>
      </trkpt>
      <trkpt lat="47.36155" lon="-1.20652">
        <ele>67.8</ele>
        <time>2011-10-02T07:03:43Z</time>
      </trkpt>
      <trkpt lat="47.36153" lon="-1.20658">
        <ele>67.9</ele>
        <time>2011-10-02T07:03:44Z</time>
      </trkpt>
      <trkpt lat="47.36151" lon="-1.2067">
        <ele>67.9</ele>
        <time>2011-10-02T07:03:46Z</time>
      </trkpt>
      <trkpt lat="47.36149" lon="-1.20682">
        <ele>68.3</ele>
        <time>2011-10-02T07:03:48Z</time>
      </trkpt>
      <trkpt lat="47.36148" lon="-1.20689">
        <ele>68.3</ele>
        <time>2011-10-02T07:03:49Z</time>
      </trkpt>
      <trkpt lat="47.36147" lon="-1.20696">
        <ele>68.4</ele>
        <time>2011-10-02T07:03:50Z</time>
      </trkpt>
      <trkpt lat="47.36146" lon="-1.20703">
        <ele>68.3</ele>
        <time>2011-10-02T07:03:51Z</time>
      </trkpt>
      <trkpt lat="47.36145" lon="-1.20714">
        <ele>68.6</ele>
        <time>2011-10-02T07:03:53Z</time>
      </trkpt>
      <trkpt lat="47.36142" lon="-1.20725">
        <ele>68.4</ele>
        <time>2011-10-02T07:03:55Z</time>
      </trkpt>
      <trkpt lat="47.3614" lon="-1.20735">
        <ele>68.1</ele>
        <time>2011-10-02T07:03:56Z</time>
      </trkpt>
      <trkpt lat="47.36137" lon="-1.20748">
        <ele>67.3</ele>
        <time>2011-10-02T07:03:58Z</time>
      </trkpt>
      <trkpt lat="47.36134" lon="-1.20758">
        <ele>66.1</ele>
        <time>2011-10-02T07:04:00Z</time>
      </trkpt>
      <trkpt lat="47.36133" lon="-1.20769">
        <ele>65.2</ele>
        <time>2011-10-02T07:04:02Z</time>
      </trkpt>
      <trkpt lat="47.36132" lon="-1.20778">
        <ele>63.9</ele>
        <time>2011-10-02T07:04:03Z</time>
      </trkpt>
      <trkpt lat="47.36131" lon="-1.20788">
        <ele>65.3</ele>
        <time>2011-10-02T07:04:05Z</time>
      </trkpt>
      <trkpt lat="47.36131" lon="-1.208">
        <ele>63.7</ele>
        <time>2011-10-02T07:04:08Z</time>
      </trkpt>
      <trkpt lat="47.36134" lon="-1.20807">
        <ele>63.5</ele>
        <time>2011-10-02T07:04:10Z</time>
      </trkpt>
      <trkpt lat="47.3614" lon="-1.20817">
        <ele>65.6</ele>
        <time>2011-10-02T07:04:12Z</time>
      </trkpt>
      <trkpt lat="47.36145" lon="-1.20822">
        <ele>66.4</ele>
        <time>2011-10-02T07:04:15Z</time>
      </trkpt>
      <trkpt lat="47.3615" lon="-1.2082">
        <ele>65.5</ele>
        <time>2011-10-02T07:04:18Z</time>
      </trkpt>
      <trkpt lat="47.36155" lon="-1.20816">
        <ele>66.6</ele>
        <time>2011-10-02T07:04:20Z</time>
      </trkpt>
      <trkpt lat="47.3616" lon="-1.20814">
        <ele>66.8</ele>
        <time>2011-10-02T07:04:23Z</time>
      </trkpt>
      <trkpt lat="47.36165" lon="-1.20815">
        <ele>69</ele>
        <time>2011-10-02T07:04:26Z</time>
      </trkpt>
      <trkpt lat="47.3617" lon="-1.20818">
        <ele>69.4</ele>
        <time>2011-10-02T07:04:29Z</time>
      </trkpt>
      <trkpt lat="47.36175" lon="-1.20819">
        <ele>70.8</ele>
        <time>2011-10-02T07:04:32Z</time>
      </trkpt>
      <trkpt lat="47.3618" lon="-1.20821">
        <ele>70.4</ele>
        <time>2011-10-02T07:04:35Z</time>
      </trkpt>
      <trkpt lat="47.36186" lon="-1.20826">
        <ele>71</ele>
        <time>2011-10-02T07:04:39Z</time>
      </trkpt>
      <trkpt lat="47.36189" lon="-1.20832">
        <ele>71.4</ele>
        <time>2011-10-02T07:04:42Z</time>
      </trkpt>
      <trkpt lat="47.3619" lon="-1.20839">
        <ele>71.7</ele>
        <time>2011-10-02T07:04:43Z</time>
      </trkpt>
      <trkpt lat="47.3619" lon="-1.20853">
        <ele>72.4</ele>
        <time>2011-10-02T07:04:49Z</time>
      </trkpt>
      <trkpt lat="47.36192" lon="-1.2086">
        <ele>71.6</ele>
        <time>2011-10-02T07:04:51Z</time>
      </trkpt>
      <trkpt lat="47.3619" lon="-1.2087">
        <ele>72.3</ele>
        <time>2011-10-02T07:04:55Z</time>
      </trkpt>
      <trkpt lat="47.36192" lon="-1.20877">
        <ele>74</ele>
        <time>2011-10-02T07:04:57Z</time>
      </trkpt>
      <trkpt lat="47.36194" lon="-1.20885">
        <ele>74.7</ele>
        <time>2011-10-02T07:04:59Z</time>
      </trkpt>
      <trkpt lat="47.36194" lon="-1.20893">
        <ele>74.6</ele>
        <time>2011-10-02T07:05:01Z</time>
      </trkpt>
      <trkpt lat="47.36203" lon="-1.20896">
        <ele>74.1</ele>
        <time>2011-10-02T07:05:05Z</time>
      </trkpt>
      <trkpt lat="47.36208" lon="-1.20892">
        <ele>73.6</ele>
        <time>2011-10-02T07:05:07Z</time>
      </trkpt>
      <trkpt lat="47.36216" lon="-1.20891">
        <ele>73.2</ele>
        <time>2011-10-02T07:05:09Z</time>
      </trkpt>
      <trkpt lat="47.36221" lon="-1.20891">
        <ele>74.5</ele>
        <time>2011-10-02T07:05:12Z</time>
      </trkpt>
      <trkpt lat="47.36227" lon="-1.20891">
        <ele>74.2</ele>
        <time>2011-10-02T07:05:14Z</time>
      </trkpt>
      <trkpt lat="47.36232" lon="-1.20891">
        <ele>76</ele>
        <time>2011-10-02T07:05:16Z</time>
      </trkpt>
      <trkpt lat="47.36238" lon="-1.20896">
        <ele>76.8</ele>
        <time>2011-10-02T07:05:18Z</time>
      </trkpt>
      <trkpt lat="47.36244" lon="-1.209">
        <ele>77.8</ele>
        <time>2011-10-02T07:05:20Z</time>
      </trkpt>
      <trkpt lat="47.36249" lon="-1.20901">
        <ele>77.3</ele>
        <time>2011-10-02T07:05:22Z</time>
      </trkpt>
      <trkpt lat="47.36256" lon="-1.209">
        <ele>77.1</ele>
        <time>2011-10-02T07:05:24Z</time>
      </trkpt>
      <trkpt lat="47.36262" lon="-1.20902">
        <ele>77.3</ele>
        <time>2011-10-02T07:05:27Z</time>
      </trkpt>
      <trkpt lat="47.3627" lon="-1.20904">
        <ele>77.4</ele>
        <time>2011-10-02T07:05:29Z</time>
      </trkpt>
      <trkpt lat="47.36275" lon="-1.20904">
        <ele>76.2</ele>
        <time>2011-10-02T07:05:30Z</time>
      </trkpt>
      <trkpt lat="47.36279" lon="-1.20914">
        <ele>76.6</ele>
        <time>2011-10-02T07:05:33Z</time>
      </trkpt>
      <trkpt lat="47.36281" lon="-1.20923">
        <ele>77.5</ele>
        <time>2011-10-02T07:05:36Z</time>
      </trkpt>
      <trkpt lat="47.3628" lon="-1.20932">
        <ele>79</ele>
        <time>2011-10-02T07:05:39Z</time>
      </trkpt>
      <trkpt lat="47.36278" lon="-1.20944">
        <ele>80.2</ele>
        <time>2011-10-02T07:05:41Z</time>
      </trkpt>
      <trkpt lat="47.36277" lon="-1.20954">
        <ele>80.2</ele>
        <time>2011-10-02T07:05:43Z</time>
      </trkpt>
      <trkpt lat="47.36276" lon="-1.20968">
        <ele>80</ele>
        <time>2011-10-02T07:05:46Z</time>
      </trkpt>
      <trkpt lat="47.36278" lon="-1.20976">
        <ele>80.5</ele>
        <time>2011-10-02T07:05:48Z</time>
      </trkpt>
      <trkpt lat="47.36278" lon="-1.20984">
        <ele>80.8</ele>
        <time>2011-10-02T07:05:49Z</time>
      </trkpt>
      <trkpt lat="47.36273" lon="-1.20992">
        <ele>79.6</ele>
        <time>2011-10-02T07:05:51Z</time>
      </trkpt>
      <trkpt lat="47.36278" lon="-1.20997">
        <ele>81.3</ele>
        <time>2011-10-02T07:05:54Z</time>
      </trkpt>
      <trkpt lat="47.36283" lon="-1.20999">
        <ele>81.8</ele>
        <time>2011-10-02T07:05:57Z</time>
      </trkpt>
      <trkpt lat="47.36288" lon="-1.21002">
        <ele>82</ele>
        <time>2011-10-02T07:05:58Z</time>
      </trkpt>
      <trkpt lat="47.36293" lon="-1.21004">
        <ele>82.2</ele>
        <time>2011-10-02T07:05:59Z</time>
      </trkpt>
      <trkpt lat="47.36298" lon="-1.21004">
        <ele>82.2</ele>
        <time>2011-10-02T07:06:00Z</time>
      </trkpt>
      <trkpt lat="47.36305" lon="-1.21001">
        <ele>82.4</ele>
        <time>2011-10-02T07:06:01Z</time>
      </trkpt>
      <trkpt lat="47.36312" lon="-1.20999">
        <ele>80.7</ele>
        <time>2011-10-02T07:06:02Z</time>
      </trkpt>
      <trkpt lat="47.36322" lon="-1.21003">
        <ele>79.3</ele>
        <time>2011-10-02T07:06:05Z</time>
      </trkpt>
      <trkpt lat="47.36328" lon="-1.20999">
        <ele>79.1</ele>
        <time>2011-10-02T07:06:07Z</time>
      </trkpt>
      <trkpt lat="47.36333" lon="-1.20998">
        <ele>80.3</ele>
        <time>2011-10-02T07:06:08Z</time>
      </trkpt>
      <trkpt lat="47.36342" lon="-1.21003">
        <ele>80.7</ele>
        <time>2011-10-02T07:06:10Z</time>
      </trkpt>
      <trkpt lat="47.36348" lon="-1.21003">
        <ele>83</ele>
        <time>2011-10-02T07:06:12Z</time>
      </trkpt>
      <trkpt lat="47.36354" lon="-1.21002">
        <ele>81.3</ele>
        <time>2011-10-02T07:06:14Z</time>
      </trkpt>
      <trkpt lat="47.36358" lon="-1.21006">
        <ele>82.6</ele>
        <time>2011-10-02T07:06:17Z</time>
      </trkpt>
      <trkpt lat="47.36357" lon="-1.21014">
        <ele>84</ele>
        <time>2011-10-02T07:06:19Z</time>
      </trkpt>
      <trkpt lat="47.36359" lon="-1.21021">
        <ele>82.8</ele>
        <time>2011-10-02T07:06:21Z</time>
      </trkpt>
      <trkpt lat="47.3636" lon="-1.21029">
        <ele>84.7</ele>
        <time>2011-10-02T07:06:23Z</time>
      </trkpt>
      <trkpt lat="47.36364" lon="-1.21033">
        <ele>83.2</ele>
        <time>2011-10-02T07:06:26Z</time>
      </trkpt>
      <trkpt lat="47.36366" lon="-1.21038">
        <ele>83</ele>
        <time>2011-10-02T07:06:28Z</time>
      </trkpt>
      <trkpt lat="47.36371" lon="-1.2104">
        <ele>81.8</ele>
        <time>2011-10-02T07:06:29Z</time>
      </trkpt>
      <trkpt lat="47.36378" lon="-1.21042">
        <ele>82.4</ele>
        <time>2011-10-02T07:06:31Z</time>
      </trkpt>
      <trkpt lat="47.36387" lon="-1.21042">
        <ele>84.4</ele>
        <time>2011-10-02T07:06:33Z</time>
      </trkpt>
      <trkpt lat="47.36391" lon="-1.21041">
        <ele>84.2</ele>
        <time>2011-10-02T07:06:35Z</time>
      </trkpt>
      <trkpt lat="47.36397" lon="-1.2104">
        <ele>85.4</ele>
        <time>2011-10-02T07:06:36Z</time>
      </trkpt>
      <trkpt lat="47.36405" lon="-1.21033">
        <ele>85.3</ele>
        <time>2011-10-02T07:06:39Z</time>
      </trkpt>
      <trkpt lat="47.36412" lon="-1.21031">
        <ele>85.3</ele>
        <time>2011-10-02T07:06:41Z</time>
      </trkpt>
      <trkpt lat="47.36416" lon="-1.2103">
        <ele>84.6</ele>
        <time>2011-10-02T07:06:43Z</time>
      </trkpt>
      <trkpt lat="47.36421" lon="-1.21033">
        <ele>85.3</ele>
        <time>2011-10-02T07:06:45Z</time>
      </trkpt>
      <trkpt lat="47.36428" lon="-1.21034">
        <ele>84.7</ele>
        <time>2011-10-02T07:06:48Z</time>
      </trkpt>
      <trkpt lat="47.36433" lon="-1.21039">
        <ele>84.5</ele>
        <time>2011-10-02T07:06:51Z</time>
      </trkpt>
      <trkpt lat="47.3644" lon="-1.21035">
        <ele>85</ele>
        <time>2011-10-02T07:06:54Z</time>
      </trkpt>
      <trkpt lat="47.36448" lon="-1.21034">
        <ele>84.8</ele>
        <time>2011-10-02T07:06:56Z</time>
      </trkpt>
      <trkpt lat="47.3645" lon="-1.21027">
        <ele>89.6</ele>
        <time>2011-10-02T07:06:58Z</time>
      </trkpt>
      <trkpt lat="47.36455" lon="-1.21031">
        <ele>86.7</ele>
        <time>2011-10-02T07:07:00Z</time>
      </trkpt>
      <trkpt lat="47.3646" lon="-1.21037">
        <ele>87.1</ele>
        <time>2011-10-02T07:07:02Z</time>
      </trkpt>
      <trkpt lat="47.36463" lon="-1.21046">
        <ele>88</ele>
        <time>2011-10-02T07:07:04Z</time>
      </trkpt>
      <trkpt lat="47.36464" lon="-1.21058">
        <ele>86</ele>
        <time>2011-10-02T07:07:07Z</time>
      </trkpt>
      <trkpt lat="47.36465" lon="-1.21066">
        <ele>85.2</ele>
        <time>2011-10-02T07:07:09Z</time>
      </trkpt>
      <trkpt lat="47.36462" lon="-1.21076">
        <ele>86.2</ele>
        <time>2011-10-02T07:07:11Z</time>
      </trkpt>
      <trkpt lat="47.3646" lon="-1.21088">
        <ele>84.6</ele>
        <time>2011-10-02T07:07:14Z</time>
      </trkpt>
      <trkpt lat="47.3646" lon="-1.21095">
        <ele>86.7</ele>
        <time>2011-10-02T07:07:16Z</time>
      </trkpt>
      <trkpt lat="47.3646" lon="-1.21103">
        <ele>86.3</ele>
        <time>2011-10-02T07:07:17Z</time>
      </trkpt>
      <trkpt lat="47.3646" lon="-1.2111">
        <ele>86.9</ele>
        <time>2011-10-02T07:07:19Z</time>
      </trkpt>
      <trkpt lat="47.3646" lon="-1.21119">
        <ele>84.9</ele>
        <time>2011-10-02T07:07:21Z</time>
      </trkpt>
      <trkpt lat="47.36461" lon="-1.2113">
        <ele>83.4</ele>
        <time>2011-10-02T07:07:23Z</time>
      </trkpt>
      <trkpt lat="47.36466" lon="-1.21128">
        <ele>85.4</ele>
        <time>2011-10-02T07:07:26Z</time>
      </trkpt>
      <trkpt lat="47.36475" lon="-1.2113">
        <ele>84.9</ele>
        <time>2011-10-02T07:07:28Z</time>
      </trkpt>
      <trkpt lat="47.36481" lon="-1.21131">
        <ele>85.2</ele>
        <time>2011-10-02T07:07:30Z</time>
      </trkpt>
      <trkpt lat="47.36489" lon="-1.21132">
        <ele>86.3</ele>
        <time>2011-10-02T07:07:32Z</time>
      </trkpt>
      <trkpt lat="47.36494" lon="-1.21132">
        <ele>86.9</ele>
        <time>2011-10-02T07:07:33Z</time>
      </trkpt>
      <trkpt lat="47.36499" lon="-1.21131">
        <ele>88.6</ele>
        <time>2011-10-02T07:07:35Z</time>
      </trkpt>
      <trkpt lat="47.36507" lon="-1.21128">
        <ele>88.7</ele>
        <time>2011-10-02T07:07:37Z</time>
      </trkpt>
      <trkpt lat="47.36515" lon="-1.2113">
        <ele>89.4</ele>
        <time>2011-10-02T07:07:39Z</time>
      </trkpt>
      <trkpt lat="47.36519" lon="-1.21141">
        <ele>88.9</ele>
        <time>2011-10-02T07:07:41Z</time>
      </trkpt>
      <trkpt lat="47.36518" lon="-1.21151">
        <ele>87.9</ele>
        <time>2011-10-02T07:07:43Z</time>
      </trkpt>
      <trkpt lat="47.36519" lon="-1.21158">
        <ele>87.3</ele>
        <time>2011-10-02T07:07:44Z</time>
      </trkpt>
      <trkpt lat="47.3652" lon="-1.21167">
        <ele>87.3</ele>
        <time>2011-10-02T07:07:45Z</time>
      </trkpt>
      <trkpt lat="47.36519" lon="-1.21175">
        <ele>87.2</ele>
        <time>2011-10-02T07:07:46Z</time>
      </trkpt>
      <trkpt lat="47.36519" lon="-1.21182">
        <ele>88.1</ele>
        <time>2011-10-02T07:07:47Z</time>
      </trkpt>
      <trkpt lat="47.36518" lon="-1.21189">
        <ele>87.7</ele>
        <time>2011-10-02T07:07:48Z</time>
      </trkpt>
      <trkpt lat="47.36519" lon="-1.21196">
        <ele>88.1</ele>
        <time>2011-10-02T07:07:49Z</time>
      </trkpt>
      <trkpt lat="47.36519" lon="-1.21204">
        <ele>86.6</ele>
        <time>2011-10-02T07:07:50Z</time>
      </trkpt>
      <trkpt lat="47.36518" lon="-1.21213">
        <ele>88.4</ele>
        <time>2011-10-02T07:07:51Z</time>
      </trkpt>
      <trkpt lat="47.36518" lon="-1.21222">
        <ele>88.8</ele>
        <time>2011-10-02T07:07:52Z</time>
      </trkpt>
      <trkpt lat="47.36514" lon="-1.21236">
        <ele>89.2</ele>
        <time>2011-10-02T07:07:54Z</time>
      </trkpt>
      <trkpt lat="47.36514" lon="-1.21247">
        <ele>90.4</ele>
        <time>2011-10-02T07:07:56Z</time>
      </trkpt>
      <trkpt lat="47.36514" lon="-1.21255">
        <ele>89.3</ele>
        <time>2011-10-02T07:07:57Z</time>
      </trkpt>
      <trkpt lat="47.36513" lon="-1.21262">
        <ele>89.3</ele>
        <time>2011-10-02T07:07:58Z</time>
      </trkpt>
      <trkpt lat="47.36511" lon="-1.2127">
        <ele>89.2</ele>
        <time>2011-10-02T07:07:59Z</time>
      </trkpt>
      <trkpt lat="47.36508" lon="-1.21285">
        <ele>89.1</ele>
        <time>2011-10-02T07:08:01Z</time>
      </trkpt>
      <trkpt lat="47.36507" lon="-1.21293">
        <ele>89.8</ele>
        <time>2011-10-02T07:08:02Z</time>
      </trkpt>
      <trkpt lat="47.36504" lon="-1.21304">
        <ele>89.4</ele>
        <time>2011-10-02T07:08:03Z</time>
      </trkpt>
      <trkpt lat="47.36499" lon="-1.21307">
        <ele>88.5</ele>
        <time>2011-10-02T07:08:04Z</time>
      </trkpt>
      <trkpt lat="47.36499" lon="-1.21315">
        <ele>88.1</ele>
        <time>2011-10-02T07:08:05Z</time>
      </trkpt>
      <trkpt lat="47.36501" lon="-1.21324">
        <ele>87.8</ele>
        <time>2011-10-02T07:08:06Z</time>
      </trkpt>
      <trkpt lat="47.36502" lon="-1.21335">
        <ele>88</ele>
        <time>2011-10-02T07:08:07Z</time>
      </trkpt>
      <trkpt lat="47.36501" lon="-1.21341">
        <ele>88.6</ele>
        <time>2011-10-02T07:08:08Z</time>
      </trkpt>
      <trkpt lat="47.36499" lon="-1.2135">
        <ele>88.4</ele>
        <time>2011-10-02T07:08:09Z</time>
      </trkpt>
      <trkpt lat="47.36496" lon="-1.21359">
        <ele>88.3</ele>
        <time>2011-10-02T07:08:10Z</time>
      </trkpt>
      <trkpt lat="47.36494" lon="-1.21366">
        <ele>89.1</ele>
        <time>2011-10-02T07:08:11Z</time>
      </trkpt>
      <trkpt lat="47.36492" lon="-1.21378">
        <ele>89.3</ele>
        <time>2011-10-02T07:08:13Z</time>
      </trkpt>
      <trkpt lat="47.36489" lon="-1.21385">
        <ele>89.2</ele>
        <time>2011-10-02T07:08:14Z</time>
      </trkpt>
      <trkpt lat="47.36488" lon="-1.21396">
        <ele>90</ele>
        <time>2011-10-02T07:08:15Z</time>
      </trkpt>
      <trkpt lat="47.36488" lon="-1.21407">
        <ele>90.5</ele>
        <time>2011-10-02T07:08:16Z</time>
      </trkpt>
      <trkpt lat="47.3649" lon="-1.21418">
        <ele>91.6</ele>
        <time>2011-10-02T07:08:18Z</time>
      </trkpt>
      <trkpt lat="47.36488" lon="-1.21428">
        <ele>91.7</ele>
        <time>2011-10-02T07:08:19Z</time>
      </trkpt>
      <trkpt lat="47.36491" lon="-1.21435">
        <ele>93.2</ele>
        <time>2011-10-02T07:08:20Z</time>
      </trkpt>
      <trkpt lat="47.36488" lon="-1.21441">
        <ele>94.2</ele>
        <time>2011-10-02T07:08:21Z</time>
      </trkpt>
      <trkpt lat="47.3649" lon="-1.21449">
        <ele>93.9</ele>
        <time>2011-10-02T07:08:22Z</time>
      </trkpt>
      <trkpt lat="47.36488" lon="-1.2146">
        <ele>94.7</ele>
        <time>2011-10-02T07:08:23Z</time>
      </trkpt>
      <trkpt lat="47.36485" lon="-1.2147">
        <ele>94.2</ele>
        <time>2011-10-02T07:08:24Z</time>
      </trkpt>
      <trkpt lat="47.36482" lon="-1.21481">
        <ele>93.6</ele>
        <time>2011-10-02T07:08:25Z</time>
      </trkpt>
      <trkpt lat="47.36482" lon="-1.21495">
        <ele>94.7</ele>
        <time>2011-10-02T07:08:26Z</time>
      </trkpt>
      <trkpt lat="47.36482" lon="-1.21506">
        <ele>95.5</ele>
        <time>2011-10-02T07:08:27Z</time>
      </trkpt>
      <trkpt lat="47.36484" lon="-1.21518">
        <ele>94.9</ele>
        <time>2011-10-02T07:08:28Z</time>
      </trkpt>
      <trkpt lat="47.36484" lon="-1.21526">
        <ele>95.1</ele>
        <time>2011-10-02T07:08:29Z</time>
      </trkpt>
      <trkpt lat="47.36479" lon="-1.21532">
        <ele>94</ele>
        <time>2011-10-02T07:08:30Z</time>
      </trkpt>
      <trkpt lat="47.36479" lon="-1.21539">
        <ele>93.4</ele>
        <time>2011-10-02T07:08:31Z</time>
      </trkpt>
      <trkpt lat="47.36476" lon="-1.21548">
        <ele>93.1</ele>
        <time>2011-10-02T07:08:32Z</time>
      </trkpt>
      <trkpt lat="47.36476" lon="-1.21558">
        <ele>92.8</ele>
        <time>2011-10-02T07:08:33Z</time>
      </trkpt>
      <trkpt lat="47.36474" lon="-1.21566">
        <ele>92.9</ele>
        <time>2011-10-02T07:08:34Z</time>
      </trkpt>
      <trkpt lat="47.36474" lon="-1.21585">
        <ele>92.2</ele>
        <time>2011-10-02T07:08:36Z</time>
      </trkpt>
      <trkpt lat="47.36471" lon="-1.21594">
        <ele>90.1</ele>
        <time>2011-10-02T07:08:37Z</time>
      </trkpt>
      <trkpt lat="47.36468" lon="-1.216">
        <ele>90.1</ele>
        <time>2011-10-02T07:08:38Z</time>
      </trkpt>
      <trkpt lat="47.36467" lon="-1.21616">
        <ele>92.9</ele>
        <time>2011-10-02T07:08:40Z</time>
      </trkpt>
      <trkpt lat="47.36468" lon="-1.21629">
        <ele>92.8</ele>
        <time>2011-10-02T07:08:41Z</time>
      </trkpt>
      <trkpt lat="47.36469" lon="-1.2164">
        <ele>92.4</ele>
        <time>2011-10-02T07:08:42Z</time>
      </trkpt>
      <trkpt lat="47.36468" lon="-1.21648">
        <ele>91.6</ele>
        <time>2011-10-02T07:08:43Z</time>
      </trkpt>
      <trkpt lat="47.36468" lon="-1.21657">
        <ele>91.4</ele>
        <time>2011-10-02T07:08:44Z</time>
      </trkpt>
      <trkpt lat="47.36468" lon="-1.21671">
        <ele>90.7</ele>
        <time>2011-10-02T07:08:45Z</time>
      </trkpt>
      <trkpt lat="47.36466" lon="-1.21676">
        <ele>91.8</ele>
        <time>2011-10-02T07:08:46Z</time>
      </trkpt>
      <trkpt lat="47.36465" lon="-1.21684">
        <ele>91.6</ele>
        <time>2011-10-02T07:08:47Z</time>
      </trkpt>
      <trkpt lat="47.36467" lon="-1.21696">
        <ele>90.2</ele>
        <time>2011-10-02T07:08:48Z</time>
      </trkpt>
      <trkpt lat="47.36464" lon="-1.21702">
        <ele>90.3</ele>
        <time>2011-10-02T07:08:49Z</time>
      </trkpt>
      <trkpt lat="47.36461" lon="-1.21709">
        <ele>89.6</ele>
        <time>2011-10-02T07:08:50Z</time>
      </trkpt>
      <trkpt lat="47.36459" lon="-1.21717">
        <ele>90.1</ele>
        <time>2011-10-02T07:08:51Z</time>
      </trkpt>
      <trkpt lat="47.36459" lon="-1.21724">
        <ele>89.6</ele>
        <time>2011-10-02T07:08:52Z</time>
      </trkpt>
      <trkpt lat="47.36456" lon="-1.2173">
        <ele>91.4</ele>
        <time>2011-10-02T07:08:53Z</time>
      </trkpt>
      <trkpt lat="47.36454" lon="-1.21738">
        <ele>91.5</ele>
        <time>2011-10-02T07:08:54Z</time>
      </trkpt>
      <trkpt lat="47.36449" lon="-1.21747">
        <ele>90.3</ele>
        <time>2011-10-02T07:08:56Z</time>
      </trkpt>
      <trkpt lat="47.36444" lon="-1.21759">
        <ele>89.8</ele>
        <time>2011-10-02T07:08:57Z</time>
      </trkpt>
      <trkpt lat="47.36438" lon="-1.21766">
        <ele>90.6</ele>
        <time>2011-10-02T07:08:59Z</time>
      </trkpt>
      <trkpt lat="47.36434" lon="-1.21772">
        <ele>90.7</ele>
        <time>2011-10-02T07:09:00Z</time>
      </trkpt>
      <trkpt lat="47.36432" lon="-1.2178">
        <ele>90.1</ele>
        <time>2011-10-02T07:09:01Z</time>
      </trkpt>
      <trkpt lat="47.36428" lon="-1.21788">
        <ele>89.2</ele>
        <time>2011-10-02T07:09:02Z</time>
      </trkpt>
      <trkpt lat="47.3642" lon="-1.21793">
        <ele>88.6</ele>
        <time>2011-10-02T07:09:03Z</time>
      </trkpt>
      <trkpt lat="47.36417" lon="-1.218">
        <ele>88.1</ele>
        <time>2011-10-02T07:09:04Z</time>
      </trkpt>
      <trkpt lat="47.36415" lon="-1.21806">
        <ele>88.5</ele>
        <time>2011-10-02T07:09:05Z</time>
      </trkpt>
      <trkpt lat="47.3641" lon="-1.21811">
        <ele>89</ele>
        <time>2011-10-02T07:09:06Z</time>
      </trkpt>
      <trkpt lat="47.36405" lon="-1.21817">
        <ele>90.4</ele>
        <time>2011-10-02T07:09:07Z</time>
      </trkpt>
      <trkpt lat="47.36402" lon="-1.21824">
        <ele>89.4</ele>
        <time>2011-10-02T07:09:08Z</time>
      </trkpt>
      <trkpt lat="47.36398" lon="-1.21829">
        <ele>89.2</ele>
        <time>2011-10-02T07:09:09Z</time>
      </trkpt>
      <trkpt lat="47.36395" lon="-1.21834">
        <ele>88.9</ele>
        <time>2011-10-02T07:09:10Z</time>
      </trkpt>
      <trkpt lat="47.3639" lon="-1.21841">
        <ele>89.3</ele>
        <time>2011-10-02T07:09:11Z</time>
      </trkpt>
      <trkpt lat="47.36384" lon="-1.21844">
        <ele>89.6</ele>
        <time>2011-10-02T07:09:13Z</time>
      </trkpt>
      <trkpt lat="47.3638" lon="-1.21848">
        <ele>89.7</ele>
        <time>2011-10-02T07:09:14Z</time>
      </trkpt>
      <trkpt lat="47.36372" lon="-1.21859">
        <ele>91</ele>
        <time>2011-10-02T07:09:16Z</time>
      </trkpt>
      <trkpt lat="47.36365" lon="-1.21864">
        <ele>90.4</ele>
        <time>2011-10-02T07:09:17Z</time>
      </trkpt>
      <trkpt lat="47.36358" lon="-1.21867">
        <ele>89.1</ele>
        <time>2011-10-02T07:09:18Z</time>
      </trkpt>
      <trkpt lat="47.36353" lon="-1.21869">
        <ele>89.6</ele>
        <time>2011-10-02T07:09:19Z</time>
      </trkpt>
      <trkpt lat="47.36343" lon="-1.21869">
        <ele>89.6</ele>
        <time>2011-10-02T07:09:20Z</time>
      </trkpt>
      <trkpt lat="47.36332" lon="-1.21865">
        <ele>87.6</ele>
        <time>2011-10-02T07:09:21Z</time>
      </trkpt>
      <trkpt lat="47.36326" lon="-1.21865">
        <ele>87.3</ele>
        <time>2011-10-02T07:09:22Z</time>
      </trkpt>
      <trkpt lat="47.36317" lon="-1.21864">
        <ele>86.8</ele>
        <time>2011-10-02T07:09:23Z</time>
      </trkpt>
      <trkpt lat="47.36306" lon="-1.21862">
        <ele>86.1</ele>
        <time>2011-10-02T07:09:24Z</time>
      </trkpt>
      <trkpt lat="47.36296" lon="-1.21861">
        <ele>85.9</ele>
        <time>2011-10-02T07:09:25Z</time>
      </trkpt>
      <trkpt lat="47.36291" lon="-1.21864">
        <ele>85.3</ele>
        <time>2011-10-02T07:09:26Z</time>
      </trkpt>
      <trkpt lat="47.36286" lon="-1.21865">
        <ele>85.3</ele>
        <time>2011-10-02T07:09:27Z</time>
      </trkpt>
      <trkpt lat="47.36282" lon="-1.21868">
        <ele>85.2</ele>
        <time>2011-10-02T07:09:28Z</time>
      </trkpt>
      <trkpt lat="47.36274" lon="-1.21875">
        <ele>83.2</ele>
        <time>2011-10-02T07:09:30Z</time>
      </trkpt>
      <trkpt lat="47.36274" lon="-1.21886">
        <ele>84.5</ele>
        <time>2011-10-02T07:09:32Z</time>
      </trkpt>
      <trkpt lat="47.36274" lon="-1.21898">
        <ele>84.8</ele>
        <time>2011-10-02T07:09:34Z</time>
      </trkpt>
      <trkpt lat="47.36276" lon="-1.21906">
        <ele>85.2</ele>
        <time>2011-10-02T07:09:35Z</time>
      </trkpt>
      <trkpt lat="47.36278" lon="-1.21919">
        <ele>85.4</ele>
        <time>2011-10-02T07:09:37Z</time>
      </trkpt>
      <trkpt lat="47.36279" lon="-1.21928">
        <ele>86</ele>
        <time>2011-10-02T07:09:39Z</time>
      </trkpt>
      <trkpt lat="47.3628" lon="-1.21939">
        <ele>86.8</ele>
        <time>2011-10-02T07:09:40Z</time>
      </trkpt>
      <trkpt lat="47.3628" lon="-1.21949">
        <ele>87.1</ele>
        <time>2011-10-02T07:09:42Z</time>
      </trkpt>
      <trkpt lat="47.3628" lon="-1.21956">
        <ele>87</ele>
        <time>2011-10-02T07:09:44Z</time>
      </trkpt>
      <trkpt lat="47.36281" lon="-1.21963">
        <ele>86.1</ele>
        <time>2011-10-02T07:09:45Z</time>
      </trkpt>
      <trkpt lat="47.36282" lon="-1.2197">
        <ele>86.2</ele>
        <time>2011-10-02T07:09:46Z</time>
      </trkpt>
      <trkpt lat="47.36282" lon="-1.21978">
        <ele>86.5</ele>
        <time>2011-10-02T07:09:47Z</time>
      </trkpt>
      <trkpt lat="47.36279" lon="-1.21987">
        <ele>87.5</ele>
        <time>2011-10-02T07:09:49Z</time>
      </trkpt>
      <trkpt lat="47.36277" lon="-1.22">
        <ele>87.7</ele>
        <time>2011-10-02T07:09:51Z</time>
      </trkpt>
      <trkpt lat="47.36271" lon="-1.22006">
        <ele>87.7</ele>
        <time>2011-10-02T07:09:53Z</time>
      </trkpt>
      <trkpt lat="47.3627" lon="-1.22013">
        <ele>89.1</ele>
        <time>2011-10-02T07:09:54Z</time>
      </trkpt>
      <trkpt lat="47.36269" lon="-1.22023">
        <ele>90.6</ele>
        <time>2011-10-02T07:09:56Z</time>
      </trkpt>
      <trkpt lat="47.36265" lon="-1.22027">
        <ele>90.5</ele>
        <time>2011-10-02T07:09:57Z</time>
      </trkpt>
      <trkpt lat="47.36265" lon="-1.22035">
        <ele>90.4</ele>
        <time>2011-10-02T07:09:59Z</time>
      </trkpt>
      <trkpt lat="47.3626" lon="-1.22042">
        <ele>90.9</ele>
        <time>2011-10-02T07:10:02Z</time>
      </trkpt>
      <trkpt lat="47.36255" lon="-1.22047">
        <ele>92.2</ele>
        <time>2011-10-02T07:10:04Z</time>
      </trkpt>
      <trkpt lat="47.36251" lon="-1.22054">
        <ele>91.5</ele>
        <time>2011-10-02T07:10:06Z</time>
      </trkpt>
      <trkpt lat="47.36247" lon="-1.2206">
        <ele>91.8</ele>
        <time>2011-10-02T07:10:08Z</time>
      </trkpt>
      <trkpt lat="47.36242" lon="-1.22066">
        <ele>89.3</ele>
        <time>2011-10-02T07:10:10Z</time>
      </trkpt>
      <trkpt lat="47.36237" lon="-1.22067">
        <ele>89.8</ele>
        <time>2011-10-02T07:10:11Z</time>
      </trkpt>
      <trkpt lat="47.36232" lon="-1.22064">
        <ele>92.1</ele>
        <time>2011-10-02T07:10:13Z</time>
      </trkpt>
      <trkpt lat="47.36226" lon="-1.22062">
        <ele>91.8</ele>
        <time>2011-10-02T07:10:14Z</time>
      </trkpt>
      <trkpt lat="47.36216" lon="-1.22057">
        <ele>92.4</ele>
        <time>2011-10-02T07:10:16Z</time>
      </trkpt>
      <trkpt lat="47.36208" lon="-1.22052">
        <ele>93</ele>
        <time>2011-10-02T07:10:18Z</time>
      </trkpt>
      <trkpt lat="47.36203" lon="-1.22048">
        <ele>92.5</ele>
        <time>2011-10-02T07:10:19Z</time>
      </trkpt>
      <trkpt lat="47.36197" lon="-1.22046">
        <ele>93.6</ele>
        <time>2011-10-02T07:10:21Z</time>
      </trkpt>
      <trkpt lat="47.36192" lon="-1.22042">
        <ele>93.7</ele>
        <time>2011-10-02T07:10:22Z</time>
      </trkpt>
      <trkpt lat="47.36185" lon="-1.22032">
        <ele>93.4</ele>
        <time>2011-10-02T07:10:24Z</time>
      </trkpt>
      <trkpt lat="47.3618" lon="-1.22019">
        <ele>93.2</ele>
        <time>2011-10-02T07:10:26Z</time>
      </trkpt>
      <trkpt lat="47.36175" lon="-1.22014">
        <ele>92.7</ele>
        <time>2011-10-02T07:10:27Z</time>
      </trkpt>
      <trkpt lat="47.36171" lon="-1.22006">
        <ele>93.6</ele>
        <time>2011-10-02T07:10:28Z</time>
      </trkpt>
      <trkpt lat="47.36167" lon="-1.21999">
        <ele>94.8</ele>
        <time>2011-10-02T07:10:29Z</time>
      </trkpt>
      <trkpt lat="47.36163" lon="-1.21989">
        <ele>95.2</ele>
        <time>2011-10-02T07:10:30Z</time>
      </trkpt>
      <trkpt lat="47.3616" lon="-1.21982">
        <ele>95.3</ele>
        <time>2011-10-02T07:10:31Z</time>
      </trkpt>
      <trkpt lat="47.36157" lon="-1.21972">
        <ele>95.5</ele>
        <time>2011-10-02T07:10:32Z</time>
      </trkpt>
      <trkpt lat="47.36154" lon="-1.21963">
        <ele>94.5</ele>
        <time>2011-10-02T07:10:34Z</time>
      </trkpt>
      <trkpt lat="47.36146" lon="-1.2195">
        <ele>94</ele>
        <time>2011-10-02T07:10:36Z</time>
      </trkpt>
      <trkpt lat="47.36138" lon="-1.21938">
        <ele>94</ele>
        <time>2011-10-02T07:10:38Z</time>
      </trkpt>
      <trkpt lat="47.36128" lon="-1.21929">
        <ele>93.8</ele>
        <time>2011-10-02T07:10:40Z</time>
      </trkpt>
      <trkpt lat="47.36116" lon="-1.21937">
        <ele>95.2</ele>
        <time>2011-10-02T07:10:42Z</time>
      </trkpt>
      <trkpt lat="47.3611" lon="-1.21945">
        <ele>94.3</ele>
        <time>2011-10-02T07:10:43Z</time>
      </trkpt>
      <trkpt lat="47.36104" lon="-1.21946">
        <ele>93.3</ele>
        <time>2011-10-02T07:10:44Z</time>
      </trkpt>
      <trkpt lat="47.36097" lon="-1.21942">
        <ele>93.5</ele>
        <time>2011-10-02T07:10:46Z</time>
      </trkpt>
      <trkpt lat="47.36091" lon="-1.21931">
        <ele>93.5</ele>
        <time>2011-10-02T07:10:48Z</time>
      </trkpt>
      <trkpt lat="47.36085" lon="-1.21918">
        <ele>93.1</ele>
        <time>2011-10-02T07:10:50Z</time>
      </trkpt>
      <trkpt lat="47.36079" lon="-1.21902">
        <ele>93.5</ele>
        <time>2011-10-02T07:10:52Z</time>
      </trkpt>
      <trkpt lat="47.36071" lon="-1.2188">
        <ele>89.8</ele>
        <time>2011-10-02T07:10:54Z</time>
      </trkpt>
      <trkpt lat="47.36061" lon="-1.21854">
        <ele>87.8</ele>
        <time>2011-10-02T07:10:56Z</time>
      </trkpt>
      <trkpt lat="47.36051" lon="-1.21827">
        <ele>84.9</ele>
        <time>2011-10-02T07:10:58Z</time>
      </trkpt>
      <trkpt lat="47.3604" lon="-1.21801">
        <ele>83.7</ele>
        <time>2011-10-02T07:11:00Z</time>
      </trkpt>
      <trkpt lat="47.36033" lon="-1.21773">
        <ele>82.3</ele>
        <time>2011-10-02T07:11:02Z</time>
      </trkpt>
      <trkpt lat="47.36027" lon="-1.21744">
        <ele>80.5</ele>
        <time>2011-10-02T07:11:04Z</time>
      </trkpt>
      <trkpt lat="47.36025" lon="-1.21713">
        <ele>79.6</ele>
        <time>2011-10-02T07:11:06Z</time>
      </trkpt>
      <trkpt lat="47.36027" lon="-1.21691">
        <ele>79</ele>
        <time>2011-10-02T07:11:07Z</time>
      </trkpt>
      <trkpt lat="47.36024" lon="-1.21676">
        <ele>78.8</ele>
        <time>2011-10-02T07:11:09Z</time>
      </trkpt>
      <trkpt lat="47.36021" lon="-1.2167">
        <ele>77.4</ele>
        <time>2011-10-02T07:11:11Z</time>
      </trkpt>
      <trkpt lat="47.36016" lon="-1.21664">
        <ele>77.7</ele>
        <time>2011-10-02T07:11:12Z</time>
      </trkpt>
      <trkpt lat="47.36005" lon="-1.21658">
        <ele>78.1</ele>
        <time>2011-10-02T07:11:13Z</time>
      </trkpt>
      <trkpt lat="47.35998" lon="-1.2165">
        <ele>78</ele>
        <time>2011-10-02T07:11:14Z</time>
      </trkpt>
      <trkpt lat="47.35993" lon="-1.21649">
        <ele>78</ele>
        <time>2011-10-02T07:11:15Z</time>
      </trkpt>
      <trkpt lat="47.35984" lon="-1.21637">
        <ele>74.8</ele>
        <time>2011-10-02T07:11:16Z</time>
      </trkpt>
      <trkpt lat="47.35976" lon="-1.2163">
        <ele>73.1</ele>
        <time>2011-10-02T07:11:17Z</time>
      </trkpt>
      <trkpt lat="47.35976" lon="-1.21622">
        <ele>72.1</ele>
        <time>2011-10-02T07:11:18Z</time>
      </trkpt>
      <trkpt lat="47.35976" lon="-1.21613">
        <ele>71.4</ele>
        <time>2011-10-02T07:11:19Z</time>
      </trkpt>
      <trkpt lat="47.3598" lon="-1.21598">
        <ele>71.7</ele>
        <time>2011-10-02T07:11:21Z</time>
      </trkpt>
      <trkpt lat="47.35981" lon="-1.21589">
        <ele>71</ele>
        <time>2011-10-02T07:11:22Z</time>
      </trkpt>
      <trkpt lat="47.35984" lon="-1.21576">
        <ele>70.3</ele>
        <time>2011-10-02T07:11:23Z</time>
      </trkpt>
      <trkpt lat="47.35984" lon="-1.21568">
        <ele>68.6</ele>
        <time>2011-10-02T07:11:24Z</time>
      </trkpt>
      <trkpt lat="47.35986" lon="-1.21557">
        <ele>69</ele>
        <time>2011-10-02T07:11:25Z</time>
      </trkpt>
      <trkpt lat="47.3599" lon="-1.21546">
        <ele>67.6</ele>
        <time>2011-10-02T07:11:27Z</time>
      </trkpt>
      <trkpt lat="47.35989" lon="-1.21538">
        <ele>67.2</ele>
        <time>2011-10-02T07:11:28Z</time>
      </trkpt>
      <trkpt lat="47.35985" lon="-1.21535">
        <ele>63</ele>
        <time>2011-10-02T07:11:31Z</time>
      </trkpt>
      <trkpt lat="47.35973" lon="-1.21537">
        <ele>62.2</ele>
        <time>2011-10-02T07:11:36Z</time>
      </trkpt>
      <trkpt lat="47.35973" lon="-1.21549">
        <ele>61.9</ele>
        <time>2011-10-02T07:11:40Z</time>
      </trkpt>
      <trkpt lat="47.35966" lon="-1.21556">
        <ele>62.6</ele>
        <time>2011-10-02T07:11:43Z</time>
      </trkpt>
      <trkpt lat="47.35963" lon="-1.21564">
        <ele>63.9</ele>
        <time>2011-10-02T07:11:45Z</time>
      </trkpt>
      <trkpt lat="47.3596" lon="-1.21572">
        <ele>61.4</ele>
        <time>2011-10-02T07:11:47Z</time>
      </trkpt>
      <trkpt lat="47.35956" lon="-1.2158">
        <ele>61.8</ele>
        <time>2011-10-02T07:11:49Z</time>
      </trkpt>
      <trkpt lat="47.35951" lon="-1.21584">
        <ele>61.9</ele>
        <time>2011-10-02T07:11:51Z</time>
      </trkpt>
      <trkpt lat="47.35947" lon="-1.21588">
        <ele>62.4</ele>
        <time>2011-10-02T07:11:53Z</time>
      </trkpt>
      <trkpt lat="47.35944" lon="-1.21593">
        <ele>63.1</ele>
        <time>2011-10-02T07:11:55Z</time>
      </trkpt>
      <trkpt lat="47.35942" lon="-1.21601">
        <ele>64.5</ele>
        <time>2011-10-02T07:11:57Z</time>
      </trkpt>
      <trkpt lat="47.35936" lon="-1.2161">
        <ele>64.3</ele>
        <time>2011-10-02T07:12:01Z</time>
      </trkpt>
      <trkpt lat="47.35934" lon="-1.21618">
        <ele>64.8</ele>
        <time>2011-10-02T07:12:03Z</time>
      </trkpt>
      <trkpt lat="47.35928" lon="-1.21622">
        <ele>62.7</ele>
        <time>2011-10-02T07:12:04Z</time>
      </trkpt>
      <trkpt lat="47.35924" lon="-1.21633">
        <ele>61.3</ele>
        <time>2011-10-02T07:12:06Z</time>
      </trkpt>
      <trkpt lat="47.35923" lon="-1.21646">
        <ele>61.9</ele>
        <time>2011-10-02T07:12:09Z</time>
      </trkpt>
      <trkpt lat="47.35923" lon="-1.21655">
        <ele>62.6</ele>
        <time>2011-10-02T07:12:11Z</time>
      </trkpt>
      <trkpt lat="47.35921" lon="-1.21666">
        <ele>62.2</ele>
        <time>2011-10-02T07:12:13Z</time>
      </trkpt>
      <trkpt lat="47.35919" lon="-1.21675">
        <ele>62.1</ele>
        <time>2011-10-02T07:12:15Z</time>
      </trkpt>
      <trkpt lat="47.35921" lon="-1.21682">
        <ele>61.8</ele>
        <time>2011-10-02T07:12:17Z</time>
      </trkpt>
      <trkpt lat="47.35923" lon="-1.2169">
        <ele>62.4</ele>
        <time>2011-10-02T07:12:19Z</time>
      </trkpt>
      <trkpt lat="47.35923" lon="-1.21698">
        <ele>62.6</ele>
        <time>2011-10-02T07:12:21Z</time>
      </trkpt>
      <trkpt lat="47.35925" lon="-1.21705">
        <ele>63.3</ele>
        <time>2011-10-02T07:12:23Z</time>
      </trkpt>
      <trkpt lat="47.35928" lon="-1.21715">
        <ele>64.2</ele>
        <time>2011-10-02T07:12:25Z</time>
      </trkpt>
      <trkpt lat="47.35924" lon="-1.2173">
        <ele>62.6</ele>
        <time>2011-10-02T07:12:29Z</time>
      </trkpt>
      <trkpt lat="47.35923" lon="-1.21739">
        <ele>63</ele>
        <time>2011-10-02T07:12:31Z</time>
      </trkpt>
      <trkpt lat="47.35921" lon="-1.21746">
        <ele>64.4</ele>
        <time>2011-10-02T07:12:33Z</time>
      </trkpt>
      <trkpt lat="47.35921" lon="-1.21754">
        <ele>63.5</ele>
        <time>2011-10-02T07:12:35Z</time>
      </trkpt>
      <trkpt lat="47.35918" lon="-1.21767">
        <ele>63.1</ele>
        <time>2011-10-02T07:12:37Z</time>
      </trkpt>
      <trkpt lat="47.35914" lon="-1.21784">
        <ele>64.1</ele>
        <time>2011-10-02T07:12:40Z</time>
      </trkpt>
      <trkpt lat="47.35911" lon="-1.21794">
        <ele>65.8</ele>
        <time>2011-10-02T07:12:44Z</time>
      </trkpt>
      <trkpt lat="47.3591" lon="-1.21801">
        <ele>65</ele>
        <time>2011-10-02T07:12:45Z</time>
      </trkpt>
      <trkpt lat="47.35907" lon="-1.21812">
        <ele>65.7</ele>
        <time>2011-10-02T07:12:50Z</time>
      </trkpt>
      <trkpt lat="47.35904" lon="-1.21823">
        <ele>66.5</ele>
        <time>2011-10-02T07:12:52Z</time>
      </trkpt>
      <trkpt lat="47.35904" lon="-1.21836">
        <ele>66.6</ele>
        <time>2011-10-02T07:12:54Z</time>
      </trkpt>
      <trkpt lat="47.35903" lon="-1.21848">
        <ele>67.1</ele>
        <time>2011-10-02T07:12:56Z</time>
      </trkpt>
      <trkpt lat="47.359" lon="-1.21857">
        <ele>68</ele>
        <time>2011-10-02T07:12:57Z</time>
      </trkpt>
      <trkpt lat="47.359" lon="-1.21864">
        <ele>67.6</ele>
        <time>2011-10-02T07:13:00Z</time>
      </trkpt>
      <trkpt lat="47.359" lon="-1.21875">
        <ele>66.1</ele>
        <time>2011-10-02T07:13:02Z</time>
      </trkpt>
      <trkpt lat="47.35901" lon="-1.21883">
        <ele>66.8</ele>
        <time>2011-10-02T07:13:04Z</time>
      </trkpt>
      <trkpt lat="47.35902" lon="-1.21892">
        <ele>66</ele>
        <time>2011-10-02T07:13:05Z</time>
      </trkpt>
      <trkpt lat="47.35901" lon="-1.21911">
        <ele>67.3</ele>
        <time>2011-10-02T07:13:08Z</time>
      </trkpt>
      <trkpt lat="47.35897" lon="-1.2192">
        <ele>65.8</ele>
        <time>2011-10-02T07:13:09Z</time>
      </trkpt>
      <trkpt lat="47.35895" lon="-1.2193">
        <ele>65.7</ele>
        <time>2011-10-02T07:13:11Z</time>
      </trkpt>
      <trkpt lat="47.35894" lon="-1.21937">
        <ele>65.3</ele>
        <time>2011-10-02T07:13:13Z</time>
      </trkpt>
      <trkpt lat="47.35892" lon="-1.21943">
        <ele>63.2</ele>
        <time>2011-10-02T07:13:14Z</time>
      </trkpt>
      <trkpt lat="47.35893" lon="-1.21952">
        <ele>62.6</ele>
        <time>2011-10-02T07:13:16Z</time>
      </trkpt>
      <trkpt lat="47.35889" lon="-1.21961">
        <ele>59.9</ele>
        <time>2011-10-02T07:13:19Z</time>
      </trkpt>
      <trkpt lat="47.35886" lon="-1.21974">
        <ele>59.9</ele>
        <time>2011-10-02T07:13:22Z</time>
      </trkpt>
      <trkpt lat="47.35886" lon="-1.21984">
        <ele>62.3</ele>
        <time>2011-10-02T07:13:24Z</time>
      </trkpt>
      <trkpt lat="47.35884" lon="-1.22">
        <ele>63.6</ele>
        <time>2011-10-02T07:13:28Z</time>
      </trkpt>
      <trkpt lat="47.35878" lon="-1.22004">
        <ele>61.6</ele>
        <time>2011-10-02T07:13:30Z</time>
      </trkpt>
      <trkpt lat="47.35875" lon="-1.2201">
        <ele>62.5</ele>
        <time>2011-10-02T07:13:31Z</time>
      </trkpt>
      <trkpt lat="47.35874" lon="-1.22017">
        <ele>63</ele>
        <time>2011-10-02T07:13:33Z</time>
      </trkpt>
      <trkpt lat="47.35871" lon="-1.22028">
        <ele>60.6</ele>
        <time>2011-10-02T07:13:34Z</time>
      </trkpt>
      <trkpt lat="47.35871" lon="-1.22038">
        <ele>64.1</ele>
        <time>2011-10-02T07:13:37Z</time>
      </trkpt>
      <trkpt lat="47.35872" lon="-1.2205">
        <ele>65</ele>
        <time>2011-10-02T07:13:39Z</time>
      </trkpt>
      <trkpt lat="47.35868" lon="-1.22054">
        <ele>63.5</ele>
        <time>2011-10-02T07:13:40Z</time>
      </trkpt>
      <trkpt lat="47.35867" lon="-1.22062">
        <ele>62.7</ele>
        <time>2011-10-02T07:13:42Z</time>
      </trkpt>
      <trkpt lat="47.35866" lon="-1.22069">
        <ele>61.8</ele>
        <time>2011-10-02T07:13:43Z</time>
      </trkpt>
      <trkpt lat="47.35866" lon="-1.22077">
        <ele>62</ele>
        <time>2011-10-02T07:13:44Z</time>
      </trkpt>
      <trkpt lat="47.35865" lon="-1.22083">
        <ele>61.6</ele>
        <time>2011-10-02T07:13:46Z</time>
      </trkpt>
      <trkpt lat="47.3586" lon="-1.221">
        <ele>62.9</ele>
        <time>2011-10-02T07:13:50Z</time>
      </trkpt>
      <trkpt lat="47.35855" lon="-1.22112">
        <ele>64.5</ele>
        <time>2011-10-02T07:13:52Z</time>
      </trkpt>
      <trkpt lat="47.35852" lon="-1.22124">
        <ele>65.3</ele>
        <time>2011-10-02T07:13:54Z</time>
      </trkpt>
      <trkpt lat="47.35849" lon="-1.22136">
        <ele>65.5</ele>
        <time>2011-10-02T07:13:55Z</time>
      </trkpt>
      <trkpt lat="47.35847" lon="-1.22147">
        <ele>66.3</ele>
        <time>2011-10-02T07:13:58Z</time>
      </trkpt>
      <trkpt lat="47.35842" lon="-1.22155">
        <ele>66.2</ele>
        <time>2011-10-02T07:13:59Z</time>
      </trkpt>
      <trkpt lat="47.35839" lon="-1.2216">
        <ele>65.1</ele>
        <time>2011-10-02T07:14:00Z</time>
      </trkpt>
      <trkpt lat="47.35838" lon="-1.22171">
        <ele>63.3</ele>
        <time>2011-10-02T07:14:02Z</time>
      </trkpt>
      <trkpt lat="47.35833" lon="-1.22177">
        <ele>62.3</ele>
        <time>2011-10-02T07:14:04Z</time>
      </trkpt>
      <trkpt lat="47.3583" lon="-1.22183">
        <ele>61.3</ele>
        <time>2011-10-02T07:14:05Z</time>
      </trkpt>
      <trkpt lat="47.35827" lon="-1.2219">
        <ele>60.1</ele>
        <time>2011-10-02T07:14:06Z</time>
      </trkpt>
      <trkpt lat="47.35824" lon="-1.22196">
        <ele>60.4</ele>
        <time>2011-10-02T07:14:07Z</time>
      </trkpt>
      <trkpt lat="47.35823" lon="-1.22203">
        <ele>60.7</ele>
        <time>2011-10-02T07:14:08Z</time>
      </trkpt>
      <trkpt lat="47.35813" lon="-1.22209">
        <ele>59.4</ele>
        <time>2011-10-02T07:14:10Z</time>
      </trkpt>
      <trkpt lat="47.35812" lon="-1.22217">
        <ele>61</ele>
        <time>2011-10-02T07:14:12Z</time>
      </trkpt>
      <trkpt lat="47.35809" lon="-1.22225">
        <ele>59.6</ele>
        <time>2011-10-02T07:14:13Z</time>
      </trkpt>
      <trkpt lat="47.35808" lon="-1.22235">
        <ele>58.4</ele>
        <time>2011-10-02T07:14:15Z</time>
      </trkpt>
      <trkpt lat="47.35806" lon="-1.22242">
        <ele>55.7</ele>
        <time>2011-10-02T07:14:17Z</time>
      </trkpt>
      <trkpt lat="47.35803" lon="-1.22248">
        <ele>56.5</ele>
        <time>2011-10-02T07:14:18Z</time>
      </trkpt>
      <trkpt lat="47.35799" lon="-1.22253">
        <ele>57.5</ele>
        <time>2011-10-02T07:14:19Z</time>
      </trkpt>
      <trkpt lat="47.35795" lon="-1.22264">
        <ele>58.5</ele>
        <time>2011-10-02T07:14:22Z</time>
      </trkpt>
      <trkpt lat="47.35794" lon="-1.22271">
        <ele>60.9</ele>
        <time>2011-10-02T07:14:24Z</time>
      </trkpt>
      <trkpt lat="47.3579" lon="-1.22277">
        <ele>62.4</ele>
        <time>2011-10-02T07:14:26Z</time>
      </trkpt>
      <trkpt lat="47.3579" lon="-1.22285">
        <ele>61.5</ele>
        <time>2011-10-02T07:14:28Z</time>
      </trkpt>
      <trkpt lat="47.35784" lon="-1.22294">
        <ele>61.8</ele>
        <time>2011-10-02T07:14:30Z</time>
      </trkpt>
      <trkpt lat="47.35782" lon="-1.22302">
        <ele>62.4</ele>
        <time>2011-10-02T07:14:32Z</time>
      </trkpt>
      <trkpt lat="47.3578" lon="-1.22309">
        <ele>62.2</ele>
        <time>2011-10-02T07:14:34Z</time>
      </trkpt>
      <trkpt lat="47.35771" lon="-1.22318">
        <ele>60.4</ele>
        <time>2011-10-02T07:14:35Z</time>
      </trkpt>
      <trkpt lat="47.35764" lon="-1.22324">
        <ele>61.1</ele>
        <time>2011-10-02T07:14:37Z</time>
      </trkpt>
      <trkpt lat="47.35761" lon="-1.2233">
        <ele>59.9</ele>
        <time>2011-10-02T07:14:38Z</time>
      </trkpt>
      <trkpt lat="47.35754" lon="-1.22334">
        <ele>59.3</ele>
        <time>2011-10-02T07:14:40Z</time>
      </trkpt>
      <trkpt lat="47.3575" lon="-1.22341">
        <ele>57.6</ele>
        <time>2011-10-02T07:14:42Z</time>
      </trkpt>
      <trkpt lat="47.35745" lon="-1.22345">
        <ele>57.1</ele>
        <time>2011-10-02T07:14:44Z</time>
      </trkpt>
      <trkpt lat="47.35738" lon="-1.22352">
        <ele>58</ele>
        <time>2011-10-02T07:14:46Z</time>
      </trkpt>
      <trkpt lat="47.35732" lon="-1.22354">
        <ele>56.6</ele>
        <time>2011-10-02T07:14:48Z</time>
      </trkpt>
      <trkpt lat="47.35726" lon="-1.22356">
        <ele>58.2</ele>
        <time>2011-10-02T07:14:50Z</time>
      </trkpt>
      <trkpt lat="47.35725" lon="-1.22364">
        <ele>59.4</ele>
        <time>2011-10-02T07:14:54Z</time>
      </trkpt>
      <trkpt lat="47.35724" lon="-1.22371">
        <ele>57.4</ele>
        <time>2011-10-02T07:14:55Z</time>
      </trkpt>
      <trkpt lat="47.35718" lon="-1.22379">
        <ele>58.8</ele>
        <time>2011-10-02T07:14:59Z</time>
      </trkpt>
      <trkpt lat="47.35716" lon="-1.22385">
        <ele>58.5</ele>
        <time>2011-10-02T07:15:03Z</time>
      </trkpt>
      <trkpt lat="47.35722" lon="-1.22386">
        <ele>57.9</ele>
        <time>2011-10-02T07:15:05Z</time>
      </trkpt>
      <trkpt lat="47.35726" lon="-1.22391">
        <ele>57.9</ele>
        <time>2011-10-02T07:15:07Z</time>
      </trkpt>
      <trkpt lat="47.35731" lon="-1.22398">
        <ele>58</ele>
        <time>2011-10-02T07:15:09Z</time>
      </trkpt>
      <trkpt lat="47.35735" lon="-1.22405">
        <ele>57.2</ele>
        <time>2011-10-02T07:15:10Z</time>
      </trkpt>
      <trkpt lat="47.35739" lon="-1.2241">
        <ele>55.9</ele>
        <time>2011-10-02T07:15:11Z</time>
      </trkpt>
      <trkpt lat="47.35746" lon="-1.22417">
        <ele>55.3</ele>
        <time>2011-10-02T07:15:13Z</time>
      </trkpt>
      <trkpt lat="47.35753" lon="-1.22425">
        <ele>55.2</ele>
        <time>2011-10-02T07:15:16Z</time>
      </trkpt>
      <trkpt lat="47.3576" lon="-1.22433">
        <ele>56.2</ele>
        <time>2011-10-02T07:15:18Z</time>
      </trkpt>
      <trkpt lat="47.35764" lon="-1.2244">
        <ele>57.7</ele>
        <time>2011-10-02T07:15:20Z</time>
      </trkpt>
      <trkpt lat="47.35768" lon="-1.22445">
        <ele>58.1</ele>
        <time>2011-10-02T07:15:21Z</time>
      </trkpt>
      <trkpt lat="47.35767" lon="-1.22451">
        <ele>58.6</ele>
        <time>2011-10-02T07:15:23Z</time>
      </trkpt>
      <trkpt lat="47.35764" lon="-1.22457">
        <ele>58.9</ele>
        <time>2011-10-02T07:15:24Z</time>
      </trkpt>
      <trkpt lat="47.35762" lon="-1.22466">
        <ele>58</ele>
        <time>2011-10-02T07:15:26Z</time>
      </trkpt>
      <trkpt lat="47.35757" lon="-1.22475">
        <ele>57.5</ele>
        <time>2011-10-02T07:15:29Z</time>
      </trkpt>
      <trkpt lat="47.35754" lon="-1.22484">
        <ele>60.1</ele>
        <time>2011-10-02T07:15:31Z</time>
      </trkpt>
      <trkpt lat="47.35748" lon="-1.22493">
        <ele>58.6</ele>
        <time>2011-10-02T07:15:33Z</time>
      </trkpt>
      <trkpt lat="47.35744" lon="-1.22502">
        <ele>59.5</ele>
        <time>2011-10-02T07:15:35Z</time>
      </trkpt>
      <trkpt lat="47.3574" lon="-1.22507">
        <ele>59.5</ele>
        <time>2011-10-02T07:15:36Z</time>
      </trkpt>
      <trkpt lat="47.35736" lon="-1.2251">
        <ele>59.6</ele>
        <time>2011-10-02T07:15:37Z</time>
      </trkpt>
      <trkpt lat="47.35728" lon="-1.22518">
        <ele>58.3</ele>
        <time>2011-10-02T07:15:39Z</time>
      </trkpt>
      <trkpt lat="47.35724" lon="-1.22523">
        <ele>59.3</ele>
        <time>2011-10-02T07:15:41Z</time>
      </trkpt>
      <trkpt lat="47.35723" lon="-1.22533">
        <ele>60.5</ele>
        <time>2011-10-02T07:15:43Z</time>
      </trkpt>
      <trkpt lat="47.3572" lon="-1.22541">
        <ele>61.1</ele>
        <time>2011-10-02T07:15:45Z</time>
      </trkpt>
      <trkpt lat="47.35718" lon="-1.22548">
        <ele>61.3</ele>
        <time>2011-10-02T07:15:47Z</time>
      </trkpt>
      <trkpt lat="47.35714" lon="-1.22552">
        <ele>63.3</ele>
        <time>2011-10-02T07:15:49Z</time>
      </trkpt>
      <trkpt lat="47.3571" lon="-1.22558">
        <ele>64.3</ele>
        <time>2011-10-02T07:15:50Z</time>
      </trkpt>
      <trkpt lat="47.35708" lon="-1.22563">
        <ele>64.5</ele>
        <time>2011-10-02T07:15:51Z</time>
      </trkpt>
      <trkpt lat="47.35702" lon="-1.22578">
        <ele>65.4</ele>
        <time>2011-10-02T07:15:54Z</time>
      </trkpt>
      <trkpt lat="47.357" lon="-1.22585">
        <ele>66</ele>
        <time>2011-10-02T07:15:55Z</time>
      </trkpt>
      <trkpt lat="47.35696" lon="-1.22596">
        <ele>63.8</ele>
        <time>2011-10-02T07:15:57Z</time>
      </trkpt>
      <trkpt lat="47.35693" lon="-1.22602">
        <ele>63.3</ele>
        <time>2011-10-02T07:15:59Z</time>
      </trkpt>
      <trkpt lat="47.35689" lon="-1.2261">
        <ele>63.3</ele>
        <time>2011-10-02T07:16:01Z</time>
      </trkpt>
      <trkpt lat="47.35686" lon="-1.22617">
        <ele>64.4</ele>
        <time>2011-10-02T07:16:03Z</time>
      </trkpt>
      <trkpt lat="47.35679" lon="-1.22628">
        <ele>61.4</ele>
        <time>2011-10-02T07:16:05Z</time>
      </trkpt>
      <trkpt lat="47.35673" lon="-1.22622">
        <ele>60.1</ele>
        <time>2011-10-02T07:16:07Z</time>
      </trkpt>
      <trkpt lat="47.35666" lon="-1.22618">
        <ele>60.8</ele>
        <time>2011-10-02T07:16:11Z</time>
      </trkpt>
      <trkpt lat="47.35661" lon="-1.22623">
        <ele>60.7</ele>
        <time>2011-10-02T07:16:13Z</time>
      </trkpt>
      <trkpt lat="47.35656" lon="-1.22624">
        <ele>60.9</ele>
        <time>2011-10-02T07:16:14Z</time>
      </trkpt>
      <trkpt lat="47.35648" lon="-1.22629">
        <ele>60.9</ele>
        <time>2011-10-02T07:16:16Z</time>
      </trkpt>
      <trkpt lat="47.35643" lon="-1.22637">
        <ele>60.2</ele>
        <time>2011-10-02T07:16:18Z</time>
      </trkpt>
      <trkpt lat="47.35635" lon="-1.22644">
        <ele>58.6</ele>
        <time>2011-10-02T07:16:20Z</time>
      </trkpt>
      <trkpt lat="47.35633" lon="-1.22651">
        <ele>59.3</ele>
        <time>2011-10-02T07:16:21Z</time>
      </trkpt>
      <trkpt lat="47.35631" lon="-1.22658">
        <ele>57.8</ele>
        <time>2011-10-02T07:16:22Z</time>
      </trkpt>
      <trkpt lat="47.35629" lon="-1.22664">
        <ele>57.2</ele>
        <time>2011-10-02T07:16:23Z</time>
      </trkpt>
      <trkpt lat="47.35626" lon="-1.2267">
        <ele>56.7</ele>
        <time>2011-10-02T07:16:24Z</time>
      </trkpt>
      <trkpt lat="47.3562" lon="-1.22684">
        <ele>54.7</ele>
        <time>2011-10-02T07:16:26Z</time>
      </trkpt>
      <trkpt lat="47.35618" lon="-1.2269">
        <ele>55.2</ele>
        <time>2011-10-02T07:16:27Z</time>
      </trkpt>
      <trkpt lat="47.35615" lon="-1.22699">
        <ele>56</ele>
        <time>2011-10-02T07:16:28Z</time>
      </trkpt>
      <trkpt lat="47.3561" lon="-1.22705">
        <ele>55.2</ele>
        <time>2011-10-02T07:16:29Z</time>
      </trkpt>
      <trkpt lat="47.35602" lon="-1.22715">
        <ele>56.4</ele>
        <time>2011-10-02T07:16:31Z</time>
      </trkpt>
      <trkpt lat="47.356" lon="-1.22721">
        <ele>56.4</ele>
        <time>2011-10-02T07:16:32Z</time>
      </trkpt>
      <trkpt lat="47.35597" lon="-1.22729">
        <ele>57.1</ele>
        <time>2011-10-02T07:16:33Z</time>
      </trkpt>
      <trkpt lat="47.35594" lon="-1.22736">
        <ele>56.6</ele>
        <time>2011-10-02T07:16:34Z</time>
      </trkpt>
      <trkpt lat="47.35589" lon="-1.22739">
        <ele>56.5</ele>
        <time>2011-10-02T07:16:35Z</time>
      </trkpt>
      <trkpt lat="47.3558" lon="-1.22749">
        <ele>55.7</ele>
        <time>2011-10-02T07:16:37Z</time>
      </trkpt>
      <trkpt lat="47.35577" lon="-1.22754">
        <ele>54</ele>
        <time>2011-10-02T07:16:38Z</time>
      </trkpt>
      <trkpt lat="47.35572" lon="-1.22762">
        <ele>52.8</ele>
        <time>2011-10-02T07:16:40Z</time>
      </trkpt>
      <trkpt lat="47.35569" lon="-1.22773">
        <ele>52</ele>
        <time>2011-10-02T07:16:42Z</time>
      </trkpt>
      <trkpt lat="47.3557" lon="-1.2278">
        <ele>52.2</ele>
        <time>2011-10-02T07:16:43Z</time>
      </trkpt>
      <trkpt lat="47.35568" lon="-1.22787">
        <ele>53.3</ele>
        <time>2011-10-02T07:16:44Z</time>
      </trkpt>
      <trkpt lat="47.35566" lon="-1.22794">
        <ele>55.6</ele>
        <time>2011-10-02T07:16:45Z</time>
      </trkpt>
      <trkpt lat="47.35561" lon="-1.228">
        <ele>57</ele>
        <time>2011-10-02T07:16:46Z</time>
      </trkpt>
      <trkpt lat="47.35556" lon="-1.22812">
        <ele>57.4</ele>
        <time>2011-10-02T07:16:48Z</time>
      </trkpt>
      <trkpt lat="47.35553" lon="-1.2282">
        <ele>58.4</ele>
        <time>2011-10-02T07:16:49Z</time>
      </trkpt>
      <trkpt lat="47.35547" lon="-1.22831">
        <ele>56</ele>
        <time>2011-10-02T07:16:50Z</time>
      </trkpt>
      <trkpt lat="47.35545" lon="-1.22838">
        <ele>56.2</ele>
        <time>2011-10-02T07:16:51Z</time>
      </trkpt>
      <trkpt lat="47.35541" lon="-1.22848">
        <ele>57.7</ele>
        <time>2011-10-02T07:16:52Z</time>
      </trkpt>
      <trkpt lat="47.35537" lon="-1.22855">
        <ele>58.7</ele>
        <time>2011-10-02T07:16:53Z</time>
      </trkpt>
      <trkpt lat="47.35535" lon="-1.22863">
        <ele>58.7</ele>
        <time>2011-10-02T07:16:54Z</time>
      </trkpt>
      <trkpt lat="47.35529" lon="-1.22873">
        <ele>58.2</ele>
        <time>2011-10-02T07:16:55Z</time>
      </trkpt>
      <trkpt lat="47.35526" lon="-1.22883">
        <ele>57.6</ele>
        <time>2011-10-02T07:16:56Z</time>
      </trkpt>
      <trkpt lat="47.3552" lon="-1.2289">
        <ele>57.5</ele>
        <time>2011-10-02T07:16:57Z</time>
      </trkpt>
      <trkpt lat="47.35515" lon="-1.22897">
        <ele>57.7</ele>
        <time>2011-10-02T07:16:58Z</time>
      </trkpt>
      <trkpt lat="47.3551" lon="-1.22907">
        <ele>57.6</ele>
        <time>2011-10-02T07:16:59Z</time>
      </trkpt>
      <trkpt lat="47.35508" lon="-1.22918">
        <ele>57.8</ele>
        <time>2011-10-02T07:17:00Z</time>
      </trkpt>
      <trkpt lat="47.35505" lon="-1.22924">
        <ele>57</ele>
        <time>2011-10-02T07:17:01Z</time>
      </trkpt>
      <trkpt lat="47.35502" lon="-1.22934">
        <ele>57.1</ele>
        <time>2011-10-02T07:17:02Z</time>
      </trkpt>
      <trkpt lat="47.35496" lon="-1.22944">
        <ele>56.9</ele>
        <time>2011-10-02T07:17:03Z</time>
      </trkpt>
      <trkpt lat="47.35491" lon="-1.22954">
        <ele>56.5</ele>
        <time>2011-10-02T07:17:04Z</time>
      </trkpt>
      <trkpt lat="47.35487" lon="-1.22962">
        <ele>55.7</ele>
        <time>2011-10-02T07:17:05Z</time>
      </trkpt>
      <trkpt lat="47.35486" lon="-1.2298">
        <ele>56.8</ele>
        <time>2011-10-02T07:17:07Z</time>
      </trkpt>
      <trkpt lat="47.35479" lon="-1.22988">
        <ele>56.8</ele>
        <time>2011-10-02T07:17:08Z</time>
      </trkpt>
      <trkpt lat="47.35477" lon="-1.22998">
        <ele>56.3</ele>
        <time>2011-10-02T07:17:09Z</time>
      </trkpt>
      <trkpt lat="47.35468" lon="-1.23014">
        <ele>57.1</ele>
        <time>2011-10-02T07:17:10Z</time>
      </trkpt>
      <trkpt lat="47.35464" lon="-1.23021">
        <ele>58.7</ele>
        <time>2011-10-02T07:17:11Z</time>
      </trkpt>
      <trkpt lat="47.3546" lon="-1.23029">
        <ele>58.8</ele>
        <time>2011-10-02T07:17:12Z</time>
      </trkpt>
      <trkpt lat="47.35456" lon="-1.23037">
        <ele>59.7</ele>
        <time>2011-10-02T07:17:13Z</time>
      </trkpt>
      <trkpt lat="47.3545" lon="-1.23045">
        <ele>59.7</ele>
        <time>2011-10-02T07:17:14Z</time>
      </trkpt>
      <trkpt lat="47.35445" lon="-1.23052">
        <ele>60</ele>
        <time>2011-10-02T07:17:15Z</time>
      </trkpt>
      <trkpt lat="47.35436" lon="-1.23061">
        <ele>60</ele>
        <time>2011-10-02T07:17:16Z</time>
      </trkpt>
      <trkpt lat="47.35428" lon="-1.23072">
        <ele>58.8</ele>
        <time>2011-10-02T07:17:18Z</time>
      </trkpt>
      <trkpt lat="47.35423" lon="-1.23083">
        <ele>58</ele>
        <time>2011-10-02T07:17:19Z</time>
      </trkpt>
      <trkpt lat="47.3542" lon="-1.23092">
        <ele>58.8</ele>
        <time>2011-10-02T07:17:20Z</time>
      </trkpt>
      <trkpt lat="47.35415" lon="-1.23101">
        <ele>59</ele>
        <time>2011-10-02T07:17:21Z</time>
      </trkpt>
      <trkpt lat="47.35411" lon="-1.23109">
        <ele>59.3</ele>
        <time>2011-10-02T07:17:22Z</time>
      </trkpt>
      <trkpt lat="47.35407" lon="-1.23118">
        <ele>58.7</ele>
        <time>2011-10-02T07:17:23Z</time>
      </trkpt>
      <trkpt lat="47.35402" lon="-1.23127">
        <ele>58.2</ele>
        <time>2011-10-02T07:17:24Z</time>
      </trkpt>
      <trkpt lat="47.35398" lon="-1.23136">
        <ele>58.5</ele>
        <time>2011-10-02T07:17:25Z</time>
      </trkpt>
      <trkpt lat="47.35393" lon="-1.23145">
        <ele>57.8</ele>
        <time>2011-10-02T07:17:26Z</time>
      </trkpt>
      <trkpt lat="47.35388" lon="-1.23154">
        <ele>57.9</ele>
        <time>2011-10-02T07:17:27Z</time>
      </trkpt>
      <trkpt lat="47.35384" lon="-1.23162">
        <ele>58.1</ele>
        <time>2011-10-02T07:17:28Z</time>
      </trkpt>
      <trkpt lat="47.3538" lon="-1.23171">
        <ele>58.2</ele>
        <time>2011-10-02T07:17:29Z</time>
      </trkpt>
      <trkpt lat="47.35377" lon="-1.2318">
        <ele>58.4</ele>
        <time>2011-10-02T07:17:30Z</time>
      </trkpt>
      <trkpt lat="47.35373" lon="-1.23187">
        <ele>58</ele>
        <time>2011-10-02T07:17:31Z</time>
      </trkpt>
      <trkpt lat="47.35367" lon="-1.23203">
        <ele>58.7</ele>
        <time>2011-10-02T07:17:32Z</time>
      </trkpt>
      <trkpt lat="47.35364" lon="-1.2321">
        <ele>58.3</ele>
        <time>2011-10-02T07:17:33Z</time>
      </trkpt>
      <trkpt lat="47.35362" lon="-1.23222">
        <ele>58.3</ele>
        <time>2011-10-02T07:17:34Z</time>
      </trkpt>
      <trkpt lat="47.35359" lon="-1.23232">
        <ele>58.6</ele>
        <time>2011-10-02T07:17:35Z</time>
      </trkpt>
      <trkpt lat="47.35354" lon="-1.23239">
        <ele>57.4</ele>
        <time>2011-10-02T07:17:36Z</time>
      </trkpt>
      <trkpt lat="47.3535" lon="-1.23248">
        <ele>59.1</ele>
        <time>2011-10-02T07:17:37Z</time>
      </trkpt>
      <trkpt lat="47.35348" lon="-1.23256">
        <ele>59</ele>
        <time>2011-10-02T07:17:38Z</time>
      </trkpt>
      <trkpt lat="47.35344" lon="-1.23265">
        <ele>59.3</ele>
        <time>2011-10-02T07:17:39Z</time>
      </trkpt>
      <trkpt lat="47.35341" lon="-1.23273">
        <ele>60.8</ele>
        <time>2011-10-02T07:17:40Z</time>
      </trkpt>
      <trkpt lat="47.3534" lon="-1.23282">
        <ele>61.1</ele>
        <time>2011-10-02T07:17:41Z</time>
      </trkpt>
      <trkpt lat="47.3534" lon="-1.23292">
        <ele>61.2</ele>
        <time>2011-10-02T07:17:42Z</time>
      </trkpt>
      <trkpt lat="47.35339" lon="-1.23299">
        <ele>61.3</ele>
        <time>2011-10-02T07:17:43Z</time>
      </trkpt>
      <trkpt lat="47.35336" lon="-1.23308">
        <ele>61.5</ele>
        <time>2011-10-02T07:17:44Z</time>
      </trkpt>
      <trkpt lat="47.35333" lon="-1.23318">
        <ele>61.4</ele>
        <time>2011-10-02T07:17:45Z</time>
      </trkpt>
      <trkpt lat="47.35326" lon="-1.23327">
        <ele>60.8</ele>
        <time>2011-10-02T07:17:46Z</time>
      </trkpt>
      <trkpt lat="47.35322" lon="-1.23333">
        <ele>60.5</ele>
        <time>2011-10-02T07:17:47Z</time>
      </trkpt>
      <trkpt lat="47.35318" lon="-1.23343">
        <ele>58.8</ele>
        <time>2011-10-02T07:17:48Z</time>
      </trkpt>
      <trkpt lat="47.35315" lon="-1.23355">
        <ele>57.5</ele>
        <time>2011-10-02T07:17:49Z</time>
      </trkpt>
      <trkpt lat="47.35312" lon="-1.23366">
        <ele>57.4</ele>
        <time>2011-10-02T07:17:50Z</time>
      </trkpt>
      <trkpt lat="47.35308" lon="-1.23375">
        <ele>58.1</ele>
        <time>2011-10-02T07:17:51Z</time>
      </trkpt>
      <trkpt lat="47.35305" lon="-1.23389">
        <ele>58.7</ele>
        <time>2011-10-02T07:17:52Z</time>
      </trkpt>
      <trkpt lat="47.35302" lon="-1.23401">
        <ele>58.2</ele>
        <time>2011-10-02T07:17:53Z</time>
      </trkpt>
      <trkpt lat="47.35301" lon="-1.23418">
        <ele>59.8</ele>
        <time>2011-10-02T07:17:55Z</time>
      </trkpt>
      <trkpt lat="47.35296" lon="-1.23432">
        <ele>59.9</ele>
        <time>2011-10-02T07:17:56Z</time>
      </trkpt>
      <trkpt lat="47.35294" lon="-1.23438">
        <ele>60.2</ele>
        <time>2011-10-02T07:17:57Z</time>
      </trkpt>
      <trkpt lat="47.35291" lon="-1.23449">
        <ele>60.8</ele>
        <time>2011-10-02T07:17:59Z</time>
      </trkpt>
      <trkpt lat="47.35287" lon="-1.23457">
        <ele>60.9</ele>
        <time>2011-10-02T07:18:00Z</time>
      </trkpt>
      <trkpt lat="47.35283" lon="-1.23478">
        <ele>59.8</ele>
        <time>2011-10-02T07:18:01Z</time>
      </trkpt>
      <trkpt lat="47.3528" lon="-1.23485">
        <ele>59.5</ele>
        <time>2011-10-02T07:18:02Z</time>
      </trkpt>
      <trkpt lat="47.35276" lon="-1.23496">
        <ele>60.1</ele>
        <time>2011-10-02T07:18:03Z</time>
      </trkpt>
      <trkpt lat="47.35274" lon="-1.23508">
        <ele>60.6</ele>
        <time>2011-10-02T07:18:04Z</time>
      </trkpt>
      <trkpt lat="47.35271" lon="-1.23517">
        <ele>61.6</ele>
        <time>2011-10-02T07:18:05Z</time>
      </trkpt>
      <trkpt lat="47.35267" lon="-1.23526">
        <ele>61.8</ele>
        <time>2011-10-02T07:18:06Z</time>
      </trkpt>
      <trkpt lat="47.35266" lon="-1.23537">
        <ele>61.4</ele>
        <time>2011-10-02T07:18:07Z</time>
      </trkpt>
      <trkpt lat="47.35257" lon="-1.23552">
        <ele>59.5</ele>
        <time>2011-10-02T07:18:08Z</time>
      </trkpt>
      <trkpt lat="47.35256" lon="-1.23563">
        <ele>59</ele>
        <time>2011-10-02T07:18:09Z</time>
      </trkpt>
      <trkpt lat="47.35254" lon="-1.23574">
        <ele>58.4</ele>
        <time>2011-10-02T07:18:10Z</time>
      </trkpt>
      <trkpt lat="47.35251" lon="-1.23585">
        <ele>56.9</ele>
        <time>2011-10-02T07:18:11Z</time>
      </trkpt>
      <trkpt lat="47.35246" lon="-1.23595">
        <ele>57.2</ele>
        <time>2011-10-02T07:18:12Z</time>
      </trkpt>
      <trkpt lat="47.35244" lon="-1.23605">
        <ele>57.1</ele>
        <time>2011-10-02T07:18:13Z</time>
      </trkpt>
      <trkpt lat="47.3524" lon="-1.23615">
        <ele>57.2</ele>
        <time>2011-10-02T07:18:14Z</time>
      </trkpt>
      <trkpt lat="47.35238" lon="-1.23624">
        <ele>56.1</ele>
        <time>2011-10-02T07:18:15Z</time>
      </trkpt>
      <trkpt lat="47.35235" lon="-1.23636">
        <ele>56</ele>
        <time>2011-10-02T07:18:16Z</time>
      </trkpt>
      <trkpt lat="47.35231" lon="-1.23646">
        <ele>56.5</ele>
        <time>2011-10-02T07:18:17Z</time>
      </trkpt>
      <trkpt lat="47.35227" lon="-1.23653">
        <ele>56.9</ele>
        <time>2011-10-02T07:18:18Z</time>
      </trkpt>
      <trkpt lat="47.35224" lon="-1.23661">
        <ele>57</ele>
        <time>2011-10-02T07:18:19Z</time>
      </trkpt>
      <trkpt lat="47.35224" lon="-1.2367">
        <ele>58.1</ele>
        <time>2011-10-02T07:18:20Z</time>
      </trkpt>
      <trkpt lat="47.3522" lon="-1.2368">
        <ele>58.1</ele>
        <time>2011-10-02T07:18:21Z</time>
      </trkpt>
      <trkpt lat="47.35217" lon="-1.2369">
        <ele>58.5</ele>
        <time>2011-10-02T07:18:22Z</time>
      </trkpt>
      <trkpt lat="47.35211" lon="-1.23699">
        <ele>59.2</ele>
        <time>2011-10-02T07:18:23Z</time>
      </trkpt>
      <trkpt lat="47.3521" lon="-1.2371">
        <ele>58.6</ele>
        <time>2011-10-02T07:18:24Z</time>
      </trkpt>
      <trkpt lat="47.35211" lon="-1.23718">
        <ele>58</ele>
        <time>2011-10-02T07:18:25Z</time>
      </trkpt>
      <trkpt lat="47.35208" lon="-1.2373">
        <ele>59.2</ele>
        <time>2011-10-02T07:18:26Z</time>
      </trkpt>
      <trkpt lat="47.35207" lon="-1.2374">
        <ele>60.9</ele>
        <time>2011-10-02T07:18:27Z</time>
      </trkpt>
      <trkpt lat="47.35206" lon="-1.23748">
        <ele>60.3</ele>
        <time>2011-10-02T07:18:28Z</time>
      </trkpt>
      <trkpt lat="47.35202" lon="-1.23757">
        <ele>60.4</ele>
        <time>2011-10-02T07:18:29Z</time>
      </trkpt>
      <trkpt lat="47.35199" lon="-1.23765">
        <ele>61.2</ele>
        <time>2011-10-02T07:18:30Z</time>
      </trkpt>
      <trkpt lat="47.35199" lon="-1.23775">
        <ele>60.6</ele>
        <time>2011-10-02T07:18:31Z</time>
      </trkpt>
      <trkpt lat="47.35196" lon="-1.23783">
        <ele>61.5</ele>
        <time>2011-10-02T07:18:32Z</time>
      </trkpt>
      <trkpt lat="47.3519" lon="-1.2379">
        <ele>60.9</ele>
        <time>2011-10-02T07:18:33Z</time>
      </trkpt>
      <trkpt lat="47.35184" lon="-1.23797">
        <ele>60.5</ele>
        <time>2011-10-02T07:18:34Z</time>
      </trkpt>
      <trkpt lat="47.35184" lon="-1.23804">
        <ele>59.4</ele>
        <time>2011-10-02T07:18:35Z</time>
      </trkpt>
      <trkpt lat="47.35184" lon="-1.23813">
        <ele>58.8</ele>
        <time>2011-10-02T07:18:39Z</time>
      </trkpt>
      <trkpt lat="47.35187" lon="-1.23818">
        <ele>58.6</ele>
        <time>2011-10-02T07:18:42Z</time>
      </trkpt>
      <trkpt lat="47.35192" lon="-1.23822">
        <ele>59.6</ele>
        <time>2011-10-02T07:18:44Z</time>
      </trkpt>
      <trkpt lat="47.35199" lon="-1.23825">
        <ele>60</ele>
        <time>2011-10-02T07:18:45Z</time>
      </trkpt>
      <trkpt lat="47.35205" lon="-1.2383">
        <ele>59.3</ele>
        <time>2011-10-02T07:18:46Z</time>
      </trkpt>
      <trkpt lat="47.35209" lon="-1.23832">
        <ele>59.1</ele>
        <time>2011-10-02T07:18:47Z</time>
      </trkpt>
      <trkpt lat="47.35215" lon="-1.23837">
        <ele>59.4</ele>
        <time>2011-10-02T07:18:48Z</time>
      </trkpt>
      <trkpt lat="47.35222" lon="-1.2384">
        <ele>59.5</ele>
        <time>2011-10-02T07:18:50Z</time>
      </trkpt>
      <trkpt lat="47.35226" lon="-1.23844">
        <ele>59.8</ele>
        <time>2011-10-02T07:18:51Z</time>
      </trkpt>
      <trkpt lat="47.35236" lon="-1.23846">
        <ele>60.3</ele>
        <time>2011-10-02T07:18:52Z</time>
      </trkpt>
      <trkpt lat="47.3524" lon="-1.23856">
        <ele>60.6</ele>
        <time>2011-10-02T07:18:54Z</time>
      </trkpt>
      <trkpt lat="47.35244" lon="-1.23862">
        <ele>60.5</ele>
        <time>2011-10-02T07:18:56Z</time>
      </trkpt>
      <trkpt lat="47.35253" lon="-1.23869">
        <ele>60.7</ele>
        <time>2011-10-02T07:18:58Z</time>
      </trkpt>
      <trkpt lat="47.35255" lon="-1.23875">
        <ele>60.3</ele>
        <time>2011-10-02T07:18:59Z</time>
      </trkpt>
      <trkpt lat="47.35258" lon="-1.2388">
        <ele>61</ele>
        <time>2011-10-02T07:19:00Z</time>
      </trkpt>
      <trkpt lat="47.3526" lon="-1.23889">
        <ele>61.7</ele>
        <time>2011-10-02T07:19:01Z</time>
      </trkpt>
      <trkpt lat="47.35269" lon="-1.23892">
        <ele>60.5</ele>
        <time>2011-10-02T07:19:03Z</time>
      </trkpt>
      <trkpt lat="47.3527" lon="-1.239">
        <ele>61.5</ele>
        <time>2011-10-02T07:19:04Z</time>
      </trkpt>
      <trkpt lat="47.35272" lon="-1.2391">
        <ele>62.6</ele>
        <time>2011-10-02T07:19:06Z</time>
      </trkpt>
      <trkpt lat="47.35273" lon="-1.23918">
        <ele>63.5</ele>
        <time>2011-10-02T07:19:07Z</time>
      </trkpt>
      <trkpt lat="47.35274" lon="-1.23928">
        <ele>64.5</ele>
        <time>2011-10-02T07:19:09Z</time>
      </trkpt>
      <trkpt lat="47.35276" lon="-1.23942">
        <ele>65.7</ele>
        <time>2011-10-02T07:19:11Z</time>
      </trkpt>
      <trkpt lat="47.35273" lon="-1.23948">
        <ele>65.8</ele>
        <time>2011-10-02T07:19:14Z</time>
      </trkpt>
      <trkpt lat="47.35271" lon="-1.2396">
        <ele>66.8</ele>
        <time>2011-10-02T07:19:17Z</time>
      </trkpt>
      <trkpt lat="47.35264" lon="-1.23973">
        <ele>68.9</ele>
        <time>2011-10-02T07:19:19Z</time>
      </trkpt>
      <trkpt lat="47.35259" lon="-1.23979">
        <ele>69.8</ele>
        <time>2011-10-02T07:19:22Z</time>
      </trkpt>
      <trkpt lat="47.35258" lon="-1.23985">
        <ele>70.6</ele>
        <time>2011-10-02T07:19:23Z</time>
      </trkpt>
      <trkpt lat="47.35254" lon="-1.23995">
        <ele>72.2</ele>
        <time>2011-10-02T07:19:26Z</time>
      </trkpt>
      <trkpt lat="47.3525" lon="-1.24">
        <ele>72.3</ele>
        <time>2011-10-02T07:19:28Z</time>
      </trkpt>
      <trkpt lat="47.35242" lon="-1.24004">
        <ele>72.6</ele>
        <time>2011-10-02T07:19:30Z</time>
      </trkpt>
      <trkpt lat="47.35235" lon="-1.2401">
        <ele>74.3</ele>
        <time>2011-10-02T07:19:33Z</time>
      </trkpt>
      <trkpt lat="47.35229" lon="-1.24014">
        <ele>76.4</ele>
        <time>2011-10-02T07:19:36Z</time>
      </trkpt>
      <trkpt lat="47.35228" lon="-1.24021">
        <ele>80.6</ele>
        <time>2011-10-02T07:19:42Z</time>
      </trkpt>
      <trkpt lat="47.35227" lon="-1.24029">
        <ele>84.3</ele>
        <time>2011-10-02T07:19:46Z</time>
      </trkpt>
      <trkpt lat="47.35223" lon="-1.24037">
        <ele>82.6</ele>
        <time>2011-10-02T07:19:49Z</time>
      </trkpt>
      <trkpt lat="47.35224" lon="-1.24046">
        <ele>86.2</ele>
        <time>2011-10-02T07:19:52Z</time>
      </trkpt>
      <trkpt lat="47.35226" lon="-1.24057">
        <ele>89.4</ele>
        <time>2011-10-02T07:19:55Z</time>
      </trkpt>
      <trkpt lat="47.35224" lon="-1.24063">
        <ele>90.8</ele>
        <time>2011-10-02T07:19:58Z</time>
      </trkpt>
      <trkpt lat="47.35225" lon="-1.24071">
        <ele>92.5</ele>
        <time>2011-10-02T07:20:01Z</time>
      </trkpt>
      <trkpt lat="47.35228" lon="-1.24079">
        <ele>93.9</ele>
        <time>2011-10-02T07:20:04Z</time>
      </trkpt>
      <trkpt lat="47.3523" lon="-1.24086">
        <ele>94.4</ele>
        <time>2011-10-02T07:20:07Z</time>
      </trkpt>
      <trkpt lat="47.35232" lon="-1.24092">
        <ele>94.1</ele>
        <time>2011-10-02T07:20:09Z</time>
      </trkpt>
      <trkpt lat="47.35237" lon="-1.24096">
        <ele>92.8</ele>
        <time>2011-10-02T07:20:10Z</time>
      </trkpt>
      <trkpt lat="47.35233" lon="-1.241">
        <ele>95.4</ele>
        <time>2011-10-02T07:20:54Z</time>
      </trkpt>
      <trkpt lat="47.35233" lon="-1.24108">
        <ele>95.9</ele>
        <time>2011-10-02T07:20:57Z</time>
      </trkpt>
      <trkpt lat="47.35232" lon="-1.2412">
        <ele>97.8</ele>
        <time>2011-10-02T07:21:01Z</time>
      </trkpt>
      <trkpt lat="47.35234" lon="-1.24128">
        <ele>98.5</ele>
        <time>2011-10-02T07:21:03Z</time>
      </trkpt>
      <trkpt lat="47.35237" lon="-1.24134">
        <ele>99.1</ele>
        <time>2011-10-02T07:21:05Z</time>
      </trkpt>
      <trkpt lat="47.35232" lon="-1.24141">
        <ele>95.4</ele>
        <time>2011-10-02T07:21:07Z</time>
      </trkpt>
      <trkpt lat="47.35228" lon="-1.24148">
        <ele>97.4</ele>
        <time>2011-10-02T07:21:09Z</time>
      </trkpt>
      <trkpt lat="47.35226" lon="-1.24155">
        <ele>97</ele>
        <time>2011-10-02T07:21:12Z</time>
      </trkpt>
      <trkpt lat="47.35222" lon="-1.24163">
        <ele>98.4</ele>
        <time>2011-10-02T07:21:15Z</time>
      </trkpt>
      <trkpt lat="47.35216" lon="-1.24171">
        <ele>97.4</ele>
        <time>2011-10-02T07:21:18Z</time>
      </trkpt>
      <trkpt lat="47.35211" lon="-1.24174">
        <ele>95</ele>
        <time>2011-10-02T07:21:20Z</time>
      </trkpt>
      <trkpt lat="47.35211" lon="-1.24185">
        <ele>95.4</ele>
        <time>2011-10-02T07:21:23Z</time>
      </trkpt>
      <trkpt lat="47.35207" lon="-1.2419">
        <ele>95.3</ele>
        <time>2011-10-02T07:21:27Z</time>
      </trkpt>
      <trkpt lat="47.35205" lon="-1.24198">
        <ele>95.8</ele>
        <time>2011-10-02T07:21:30Z</time>
      </trkpt>
      <trkpt lat="47.35204" lon="-1.24208">
        <ele>96.8</ele>
        <time>2011-10-02T07:21:33Z</time>
      </trkpt>
      <trkpt lat="47.35206" lon="-1.24217">
        <ele>98</ele>
        <time>2011-10-02T07:21:37Z</time>
      </trkpt>
      <trkpt lat="47.35204" lon="-1.24224">
        <ele>100</ele>
        <time>2011-10-02T07:21:40Z</time>
      </trkpt>
      <trkpt lat="47.35206" lon="-1.24237">
        <ele>99.5</ele>
        <time>2011-10-02T07:21:43Z</time>
      </trkpt>
      <trkpt lat="47.35208" lon="-1.24244">
        <ele>100.2</ele>
        <time>2011-10-02T07:21:45Z</time>
      </trkpt>
      <trkpt lat="47.35205" lon="-1.24252">
        <ele>99.7</ele>
        <time>2011-10-02T07:21:47Z</time>
      </trkpt>
      <trkpt lat="47.352" lon="-1.24256">
        <ele>97.9</ele>
        <time>2011-10-02T07:21:49Z</time>
      </trkpt>
      <trkpt lat="47.35199" lon="-1.24267">
        <ele>95.4</ele>
        <time>2011-10-02T07:21:53Z</time>
      </trkpt>
      <trkpt lat="47.35196" lon="-1.24272">
        <ele>96</ele>
        <time>2011-10-02T07:21:55Z</time>
      </trkpt>
      <trkpt lat="47.35195" lon="-1.24282">
        <ele>95.6</ele>
        <time>2011-10-02T07:21:57Z</time>
      </trkpt>
      <trkpt lat="47.35196" lon="-1.24291">
        <ele>95.4</ele>
        <time>2011-10-02T07:21:59Z</time>
      </trkpt>
      <trkpt lat="47.35194" lon="-1.24298">
        <ele>94.3</ele>
        <time>2011-10-02T07:22:01Z</time>
      </trkpt>
      <trkpt lat="47.35189" lon="-1.24306">
        <ele>95.6</ele>
        <time>2011-10-02T07:22:06Z</time>
      </trkpt>
      <trkpt lat="47.35189" lon="-1.24314">
        <ele>99.5</ele>
        <time>2011-10-02T07:22:08Z</time>
      </trkpt>
      <trkpt lat="47.35186" lon="-1.2432">
        <ele>99.2</ele>
        <time>2011-10-02T07:22:11Z</time>
      </trkpt>
      <trkpt lat="47.35183" lon="-1.24326">
        <ele>101</ele>
        <time>2011-10-02T07:22:13Z</time>
      </trkpt>
      <trkpt lat="47.35178" lon="-1.24329">
        <ele>102</ele>
        <time>2011-10-02T07:22:15Z</time>
      </trkpt>
      <trkpt lat="47.35175" lon="-1.24337">
        <ele>101.5</ele>
        <time>2011-10-02T07:22:19Z</time>
      </trkpt>
      <trkpt lat="47.35177" lon="-1.24344">
        <ele>100</ele>
        <time>2011-10-02T07:22:21Z</time>
      </trkpt>
      <trkpt lat="47.35172" lon="-1.2435">
        <ele>100.7</ele>
        <time>2011-10-02T07:22:24Z</time>
      </trkpt>
      <trkpt lat="47.35167" lon="-1.24354">
        <ele>101.8</ele>
        <time>2011-10-02T07:22:27Z</time>
      </trkpt>
      <trkpt lat="47.35163" lon="-1.24362">
        <ele>102.4</ele>
        <time>2011-10-02T07:22:32Z</time>
      </trkpt>
      <trkpt lat="47.35162" lon="-1.2437">
        <ele>104.5</ele>
        <time>2011-10-02T07:22:34Z</time>
      </trkpt>
      <trkpt lat="47.3516" lon="-1.24379">
        <ele>105.6</ele>
        <time>2011-10-02T07:22:36Z</time>
      </trkpt>
      <trkpt lat="47.35159" lon="-1.24385">
        <ele>105.5</ele>
        <time>2011-10-02T07:22:38Z</time>
      </trkpt>
      <trkpt lat="47.35157" lon="-1.24394">
        <ele>104.9</ele>
        <time>2011-10-02T07:22:41Z</time>
      </trkpt>
      <trkpt lat="47.35152" lon="-1.24405">
        <ele>103.8</ele>
        <time>2011-10-02T07:22:44Z</time>
      </trkpt>
      <trkpt lat="47.35149" lon="-1.24413">
        <ele>105.3</ele>
        <time>2011-10-02T07:22:46Z</time>
      </trkpt>
      <trkpt lat="47.35145" lon="-1.2442">
        <ele>103.9</ele>
        <time>2011-10-02T07:22:47Z</time>
      </trkpt>
      <trkpt lat="47.35144" lon="-1.24429">
        <ele>104</ele>
        <time>2011-10-02T07:22:49Z</time>
      </trkpt>
      <trkpt lat="47.3514" lon="-1.24434">
        <ele>104.4</ele>
        <time>2011-10-02T07:22:51Z</time>
      </trkpt>
      <trkpt lat="47.35136" lon="-1.24442">
        <ele>104.7</ele>
        <time>2011-10-02T07:22:57Z</time>
      </trkpt>
      <trkpt lat="47.35133" lon="-1.2445">
        <ele>105.8</ele>
        <time>2011-10-02T07:23:01Z</time>
      </trkpt>
      <trkpt lat="47.35137" lon="-1.24456">
        <ele>109.1</ele>
        <time>2011-10-02T07:23:03Z</time>
      </trkpt>
      <trkpt lat="47.35132" lon="-1.24465">
        <ele>107.6</ele>
        <time>2011-10-02T07:23:06Z</time>
      </trkpt>
      <trkpt lat="47.35131" lon="-1.24472">
        <ele>107.9</ele>
        <time>2011-10-02T07:23:07Z</time>
      </trkpt>
      <trkpt lat="47.35129" lon="-1.24478">
        <ele>109.4</ele>
        <time>2011-10-02T07:23:10Z</time>
      </trkpt>
      <trkpt lat="47.35128" lon="-1.24485">
        <ele>109.9</ele>
        <time>2011-10-02T07:23:12Z</time>
      </trkpt>
      <trkpt lat="47.3513" lon="-1.24493">
        <ele>110</ele>
        <time>2011-10-02T07:23:15Z</time>
      </trkpt>
      <trkpt lat="47.35131" lon="-1.24501">
        <ele>111.2</ele>
        <time>2011-10-02T07:23:18Z</time>
      </trkpt>
      <trkpt lat="47.35132" lon="-1.24511">
        <ele>112</ele>
        <time>2011-10-02T07:23:21Z</time>
      </trkpt>
      <trkpt lat="47.35134" lon="-1.2452">
        <ele>112.2</ele>
        <time>2011-10-02T07:23:24Z</time>
      </trkpt>
      <trkpt lat="47.35137" lon="-1.24527">
        <ele>112.9</ele>
        <time>2011-10-02T07:23:27Z</time>
      </trkpt>
      <trkpt lat="47.35141" lon="-1.24534">
        <ele>114.1</ele>
        <time>2011-10-02T07:23:30Z</time>
      </trkpt>
      <trkpt lat="47.35145" lon="-1.24539">
        <ele>115.1</ele>
        <time>2011-10-02T07:23:32Z</time>
      </trkpt>
      <trkpt lat="47.35148" lon="-1.24545">
        <ele>115.8</ele>
        <time>2011-10-02T07:23:34Z</time>
      </trkpt>
      <trkpt lat="47.35151" lon="-1.24551">
        <ele>116.2</ele>
        <time>2011-10-02T07:23:36Z</time>
      </trkpt>
      <trkpt lat="47.35149" lon="-1.24559">
        <ele>118.8</ele>
        <time>2011-10-02T07:23:38Z</time>
      </trkpt>
      <trkpt lat="47.35148" lon="-1.2457">
        <ele>118.1</ele>
        <time>2011-10-02T07:23:40Z</time>
      </trkpt>
      <trkpt lat="47.35146" lon="-1.24577">
        <ele>118.9</ele>
        <time>2011-10-02T07:23:43Z</time>
      </trkpt>
      <trkpt lat="47.3514" lon="-1.24587">
        <ele>119.7</ele>
        <time>2011-10-02T07:23:45Z</time>
      </trkpt>
      <trkpt lat="47.35136" lon="-1.24595">
        <ele>120.8</ele>
        <time>2011-10-02T07:23:48Z</time>
      </trkpt>
      <trkpt lat="47.35131" lon="-1.24601">
        <ele>119.3</ele>
        <time>2011-10-02T07:23:51Z</time>
      </trkpt>
      <trkpt lat="47.35127" lon="-1.24606">
        <ele>119.4</ele>
        <time>2011-10-02T07:23:53Z</time>
      </trkpt>
      <trkpt lat="47.3512" lon="-1.24614">
        <ele>118.3</ele>
        <time>2011-10-02T07:23:56Z</time>
      </trkpt>
      <trkpt lat="47.35117" lon="-1.24622">
        <ele>120.8</ele>
        <time>2011-10-02T07:23:58Z</time>
      </trkpt>
      <trkpt lat="47.35114" lon="-1.24632">
        <ele>119.4</ele>
        <time>2011-10-02T07:24:00Z</time>
      </trkpt>
      <trkpt lat="47.35109" lon="-1.24636">
        <ele>119</ele>
        <time>2011-10-02T07:24:03Z</time>
      </trkpt>
      <trkpt lat="47.35104" lon="-1.24642">
        <ele>118.9</ele>
        <time>2011-10-02T07:24:05Z</time>
      </trkpt>
      <trkpt lat="47.35101" lon="-1.24648">
        <ele>118.9</ele>
        <time>2011-10-02T07:24:07Z</time>
      </trkpt>
      <trkpt lat="47.35097" lon="-1.24654">
        <ele>118.3</ele>
        <time>2011-10-02T07:24:09Z</time>
      </trkpt>
      <trkpt lat="47.35094" lon="-1.2466">
        <ele>118.4</ele>
        <time>2011-10-02T07:24:11Z</time>
      </trkpt>
      <trkpt lat="47.3509" lon="-1.24668">
        <ele>116.7</ele>
        <time>2011-10-02T07:24:13Z</time>
      </trkpt>
      <trkpt lat="47.35088" lon="-1.24676">
        <ele>116.5</ele>
        <time>2011-10-02T07:24:15Z</time>
      </trkpt>
      <trkpt lat="47.35092" lon="-1.24686">
        <ele>116.6</ele>
        <time>2011-10-02T07:24:17Z</time>
      </trkpt>
      <trkpt lat="47.35091" lon="-1.24696">
        <ele>116.2</ele>
        <time>2011-10-02T07:24:20Z</time>
      </trkpt>
      <trkpt lat="47.35093" lon="-1.24704">
        <ele>116.2</ele>
        <time>2011-10-02T07:24:22Z</time>
      </trkpt>
      <trkpt lat="47.35093" lon="-1.24714">
        <ele>117</ele>
        <time>2011-10-02T07:24:24Z</time>
      </trkpt>
      <trkpt lat="47.35093" lon="-1.24724">
        <ele>117.7</ele>
        <time>2011-10-02T07:24:26Z</time>
      </trkpt>
      <trkpt lat="47.35094" lon="-1.24738">
        <ele>118.3</ele>
        <time>2011-10-02T07:24:28Z</time>
      </trkpt>
      <trkpt lat="47.35098" lon="-1.24748">
        <ele>118.9</ele>
        <time>2011-10-02T07:24:30Z</time>
      </trkpt>
      <trkpt lat="47.351" lon="-1.24758">
        <ele>119</ele>
        <time>2011-10-02T07:24:32Z</time>
      </trkpt>
      <trkpt lat="47.35104" lon="-1.24769">
        <ele>119.4</ele>
        <time>2011-10-02T07:24:34Z</time>
      </trkpt>
      <trkpt lat="47.35106" lon="-1.24778">
        <ele>119.6</ele>
        <time>2011-10-02T07:24:35Z</time>
      </trkpt>
      <trkpt lat="47.35107" lon="-1.24784">
        <ele>119.6</ele>
        <time>2011-10-02T07:24:36Z</time>
      </trkpt>
      <trkpt lat="47.35108" lon="-1.24791">
        <ele>119.8</ele>
        <time>2011-10-02T07:24:37Z</time>
      </trkpt>
      <trkpt lat="47.35109" lon="-1.24798">
        <ele>119.9</ele>
        <time>2011-10-02T07:24:38Z</time>
      </trkpt>
      <trkpt lat="47.3511" lon="-1.24805">
        <ele>120.2</ele>
        <time>2011-10-02T07:24:39Z</time>
      </trkpt>
      <trkpt lat="47.35111" lon="-1.24812">
        <ele>120.9</ele>
        <time>2011-10-02T07:24:40Z</time>
      </trkpt>
      <trkpt lat="47.35112" lon="-1.24819">
        <ele>121.2</ele>
        <time>2011-10-02T07:24:41Z</time>
      </trkpt>
      <trkpt lat="47.35114" lon="-1.24831">
        <ele>120.9</ele>
        <time>2011-10-02T07:24:43Z</time>
      </trkpt>
      <trkpt lat="47.35114" lon="-1.24842">
        <ele>120.9</ele>
        <time>2011-10-02T07:24:45Z</time>
      </trkpt>
      <trkpt lat="47.35116" lon="-1.24855">
        <ele>120.9</ele>
        <time>2011-10-02T07:24:47Z</time>
      </trkpt>
      <trkpt lat="47.35116" lon="-1.24867">
        <ele>120.5</ele>
        <time>2011-10-02T07:24:49Z</time>
      </trkpt>
      <trkpt lat="47.35116" lon="-1.24877">
        <ele>120.1</ele>
        <time>2011-10-02T07:24:51Z</time>
      </trkpt>
      <trkpt lat="47.35116" lon="-1.24889">
        <ele>120.6</ele>
        <time>2011-10-02T07:24:53Z</time>
      </trkpt>
      <trkpt lat="47.35117" lon="-1.24902">
        <ele>121</ele>
        <time>2011-10-02T07:24:55Z</time>
      </trkpt>
      <trkpt lat="47.35117" lon="-1.24914">
        <ele>119.7</ele>
        <time>2011-10-02T07:24:57Z</time>
      </trkpt>
      <trkpt lat="47.35119" lon="-1.24921">
        <ele>120.1</ele>
        <time>2011-10-02T07:24:58Z</time>
      </trkpt>
      <trkpt lat="47.35118" lon="-1.2493">
        <ele>121.4</ele>
        <time>2011-10-02T07:25:00Z</time>
      </trkpt>
      <trkpt lat="47.3512" lon="-1.24937">
        <ele>121.4</ele>
        <time>2011-10-02T07:25:01Z</time>
      </trkpt>
      <trkpt lat="47.35123" lon="-1.24948">
        <ele>120.9</ele>
        <time>2011-10-02T07:25:03Z</time>
      </trkpt>
      <trkpt lat="47.35128" lon="-1.24959">
        <ele>121.2</ele>
        <time>2011-10-02T07:25:05Z</time>
      </trkpt>
      <trkpt lat="47.35128" lon="-1.24967">
        <ele>120.8</ele>
        <time>2011-10-02T07:25:06Z</time>
      </trkpt>
      <trkpt lat="47.3513" lon="-1.24974">
        <ele>120.6</ele>
        <time>2011-10-02T07:25:07Z</time>
      </trkpt>
      <trkpt lat="47.3513" lon="-1.24981">
        <ele>120.5</ele>
        <time>2011-10-02T07:25:08Z</time>
      </trkpt>
      <trkpt lat="47.35132" lon="-1.24989">
        <ele>120</ele>
        <time>2011-10-02T07:25:09Z</time>
      </trkpt>
      <trkpt lat="47.35134" lon="-1.24996">
        <ele>119.5</ele>
        <time>2011-10-02T07:25:10Z</time>
      </trkpt>
      <trkpt lat="47.35134" lon="-1.25005">
        <ele>119.6</ele>
        <time>2011-10-02T07:25:12Z</time>
      </trkpt>
      <trkpt lat="47.35137" lon="-1.25011">
        <ele>120.3</ele>
        <time>2011-10-02T07:25:13Z</time>
      </trkpt>
      <trkpt lat="47.35138" lon="-1.25018">
        <ele>120.4</ele>
        <time>2011-10-02T07:25:14Z</time>
      </trkpt>
      <trkpt lat="47.35143" lon="-1.25029">
        <ele>120.9</ele>
        <time>2011-10-02T07:25:16Z</time>
      </trkpt>
      <trkpt lat="47.35143" lon="-1.25044">
        <ele>121.1</ele>
        <time>2011-10-02T07:25:18Z</time>
      </trkpt>
      <trkpt lat="47.35146" lon="-1.25058">
        <ele>121.6</ele>
        <time>2011-10-02T07:25:21Z</time>
      </trkpt>
      <trkpt lat="47.35143" lon="-1.25065">
        <ele>120.4</ele>
        <time>2011-10-02T07:25:22Z</time>
      </trkpt>
      <trkpt lat="47.35144" lon="-1.25071">
        <ele>120.8</ele>
        <time>2011-10-02T07:25:23Z</time>
      </trkpt>
      <trkpt lat="47.35145" lon="-1.25079">
        <ele>120.1</ele>
        <time>2011-10-02T07:25:24Z</time>
      </trkpt>
      <trkpt lat="47.35146" lon="-1.25098">
        <ele>118.7</ele>
        <time>2011-10-02T07:25:27Z</time>
      </trkpt>
      <trkpt lat="47.35146" lon="-1.25104">
        <ele>118.8</ele>
        <time>2011-10-02T07:25:28Z</time>
      </trkpt>
      <trkpt lat="47.35146" lon="-1.25119">
        <ele>117.7</ele>
        <time>2011-10-02T07:25:31Z</time>
      </trkpt>
      <trkpt lat="47.3514" lon="-1.2512">
        <ele>120.3</ele>
        <time>2011-10-02T07:25:33Z</time>
      </trkpt>
      <trkpt lat="47.35134" lon="-1.25123">
        <ele>119.8</ele>
        <time>2011-10-02T07:25:34Z</time>
      </trkpt>
      <trkpt lat="47.35124" lon="-1.25123">
        <ele>117.8</ele>
        <time>2011-10-02T07:25:36Z</time>
      </trkpt>
      <trkpt lat="47.35117" lon="-1.25124">
        <ele>118.3</ele>
        <time>2011-10-02T07:25:38Z</time>
      </trkpt>
      <trkpt lat="47.35111" lon="-1.25129">
        <ele>118.5</ele>
        <time>2011-10-02T07:25:41Z</time>
      </trkpt>
      <trkpt lat="47.35104" lon="-1.25132">
        <ele>118.7</ele>
        <time>2011-10-02T07:25:45Z</time>
      </trkpt>
      <trkpt lat="47.35097" lon="-1.2513">
        <ele>119.6</ele>
        <time>2011-10-02T07:25:47Z</time>
      </trkpt>
      <trkpt lat="47.35088" lon="-1.2513">
        <ele>119.6</ele>
        <time>2011-10-02T07:25:49Z</time>
      </trkpt>
      <trkpt lat="47.35082" lon="-1.2513">
        <ele>119.6</ele>
        <time>2011-10-02T07:25:50Z</time>
      </trkpt>
      <trkpt lat="47.35077" lon="-1.25127">
        <ele>119.7</ele>
        <time>2011-10-02T07:25:51Z</time>
      </trkpt>
      <trkpt lat="47.35069" lon="-1.25126">
        <ele>119.4</ele>
        <time>2011-10-02T07:25:53Z</time>
      </trkpt>
      <trkpt lat="47.35064" lon="-1.25128">
        <ele>119.6</ele>
        <time>2011-10-02T07:25:56Z</time>
      </trkpt>
      <trkpt lat="47.35054" lon="-1.25126">
        <ele>118.6</ele>
        <time>2011-10-02T07:25:59Z</time>
      </trkpt>
      <trkpt lat="47.35046" lon="-1.25124">
        <ele>117.3</ele>
        <time>2011-10-02T07:26:01Z</time>
      </trkpt>
      <trkpt lat="47.35034" lon="-1.25128">
        <ele>117.3</ele>
        <time>2011-10-02T07:26:03Z</time>
      </trkpt>
      <trkpt lat="47.35026" lon="-1.25128">
        <ele>117.2</ele>
        <time>2011-10-02T07:26:04Z</time>
      </trkpt>
      <trkpt lat="47.35019" lon="-1.25129">
        <ele>117</ele>
        <time>2011-10-02T07:26:05Z</time>
      </trkpt>
      <trkpt lat="47.35011" lon="-1.25131">
        <ele>117.5</ele>
        <time>2011-10-02T07:26:06Z</time>
      </trkpt>
      <trkpt lat="47.35005" lon="-1.25134">
        <ele>116.9</ele>
        <time>2011-10-02T07:26:07Z</time>
      </trkpt>
      <trkpt lat="47.34996" lon="-1.25135">
        <ele>115.6</ele>
        <time>2011-10-02T07:26:08Z</time>
      </trkpt>
      <trkpt lat="47.34988" lon="-1.25137">
        <ele>114.6</ele>
        <time>2011-10-02T07:26:09Z</time>
      </trkpt>
      <trkpt lat="47.3498" lon="-1.25138">
        <ele>114.2</ele>
        <time>2011-10-02T07:26:10Z</time>
      </trkpt>
      <trkpt lat="47.34972" lon="-1.2514">
        <ele>114.2</ele>
        <time>2011-10-02T07:26:11Z</time>
      </trkpt>
      <trkpt lat="47.34966" lon="-1.25141">
        <ele>113.3</ele>
        <time>2011-10-02T07:26:12Z</time>
      </trkpt>
      <trkpt lat="47.34959" lon="-1.25142">
        <ele>113.4</ele>
        <time>2011-10-02T07:26:13Z</time>
      </trkpt>
      <trkpt lat="47.34952" lon="-1.25144">
        <ele>112.5</ele>
        <time>2011-10-02T07:26:14Z</time>
      </trkpt>
      <trkpt lat="47.34946" lon="-1.25147">
        <ele>112.5</ele>
        <time>2011-10-02T07:26:15Z</time>
      </trkpt>
      <trkpt lat="47.34939" lon="-1.25149">
        <ele>112.8</ele>
        <time>2011-10-02T07:26:16Z</time>
      </trkpt>
      <trkpt lat="47.34934" lon="-1.25154">
        <ele>113.2</ele>
        <time>2011-10-02T07:26:17Z</time>
      </trkpt>
      <trkpt lat="47.34928" lon="-1.25158">
        <ele>113.7</ele>
        <time>2011-10-02T07:26:18Z</time>
      </trkpt>
      <trkpt lat="47.34924" lon="-1.25155">
        <ele>112.9</ele>
        <time>2011-10-02T07:26:19Z</time>
      </trkpt>
      <trkpt lat="47.34919" lon="-1.25159">
        <ele>113</ele>
        <time>2011-10-02T07:26:20Z</time>
      </trkpt>
      <trkpt lat="47.34911" lon="-1.25165">
        <ele>113.1</ele>
        <time>2011-10-02T07:26:22Z</time>
      </trkpt>
      <trkpt lat="47.34906" lon="-1.25166">
        <ele>112.7</ele>
        <time>2011-10-02T07:26:23Z</time>
      </trkpt>
      <trkpt lat="47.34899" lon="-1.25168">
        <ele>111</ele>
        <time>2011-10-02T07:26:27Z</time>
      </trkpt>
      <trkpt lat="47.34892" lon="-1.25173">
        <ele>110.8</ele>
        <time>2011-10-02T07:26:29Z</time>
      </trkpt>
      <trkpt lat="47.34886" lon="-1.25176">
        <ele>107.7</ele>
        <time>2011-10-02T07:26:31Z</time>
      </trkpt>
      <trkpt lat="47.34882" lon="-1.2518">
        <ele>106.7</ele>
        <time>2011-10-02T07:26:33Z</time>
      </trkpt>
      <trkpt lat="47.34877" lon="-1.25189">
        <ele>107.4</ele>
        <time>2011-10-02T07:26:35Z</time>
      </trkpt>
      <trkpt lat="47.34872" lon="-1.25193">
        <ele>101.8</ele>
        <time>2011-10-02T07:26:48Z</time>
      </trkpt>
      <trkpt lat="47.34865" lon="-1.25197">
        <ele>100.5</ele>
        <time>2011-10-02T07:26:50Z</time>
      </trkpt>
      <trkpt lat="47.34861" lon="-1.25201">
        <ele>100.3</ele>
        <time>2011-10-02T07:26:51Z</time>
      </trkpt>
      <trkpt lat="47.34854" lon="-1.25207">
        <ele>99.4</ele>
        <time>2011-10-02T07:26:53Z</time>
      </trkpt>
      <trkpt lat="47.34848" lon="-1.25212">
        <ele>99.2</ele>
        <time>2011-10-02T07:26:55Z</time>
      </trkpt>
      <trkpt lat="47.34843" lon="-1.25215">
        <ele>99.3</ele>
        <time>2011-10-02T07:26:56Z</time>
      </trkpt>
      <trkpt lat="47.34837" lon="-1.25215">
        <ele>99.4</ele>
        <time>2011-10-02T07:26:59Z</time>
      </trkpt>
      <trkpt lat="47.34832" lon="-1.25217">
        <ele>99.1</ele>
        <time>2011-10-02T07:27:02Z</time>
      </trkpt>
      <trkpt lat="47.34828" lon="-1.2522">
        <ele>96.9</ele>
        <time>2011-10-02T07:27:08Z</time>
      </trkpt>
      <trkpt lat="47.34823" lon="-1.25219">
        <ele>96.4</ele>
        <time>2011-10-02T07:27:10Z</time>
      </trkpt>
      <trkpt lat="47.3482" lon="-1.25224">
        <ele>97.2</ele>
        <time>2011-10-02T07:27:11Z</time>
      </trkpt>
      <trkpt lat="47.34819" lon="-1.25218">
        <ele>92.3</ele>
        <time>2011-10-02T07:27:13Z</time>
      </trkpt>
      <trkpt lat="47.34813" lon="-1.25215">
        <ele>83.9</ele>
        <time>2011-10-02T07:27:15Z</time>
      </trkpt>
      <trkpt lat="47.34808" lon="-1.25219">
        <ele>83</ele>
        <time>2011-10-02T07:27:18Z</time>
      </trkpt>
      <trkpt lat="47.34802" lon="-1.25227">
        <ele>82.7</ele>
        <time>2011-10-02T07:27:21Z</time>
      </trkpt>
      <trkpt lat="47.348" lon="-1.25234">
        <ele>80.3</ele>
        <time>2011-10-02T07:27:25Z</time>
      </trkpt>
      <trkpt lat="47.34796" lon="-1.25238">
        <ele>78.8</ele>
        <time>2011-10-02T07:27:34Z</time>
      </trkpt>
      <trkpt lat="47.34791" lon="-1.25233">
        <ele>75.5</ele>
        <time>2011-10-02T07:27:35Z</time>
      </trkpt>
      <trkpt lat="47.34786" lon="-1.25235">
        <ele>74.6</ele>
        <time>2011-10-02T07:27:39Z</time>
      </trkpt>
      <trkpt lat="47.34789" lon="-1.25241">
        <ele>71.6</ele>
        <time>2011-10-02T07:27:44Z</time>
      </trkpt>
      <trkpt lat="47.3479" lon="-1.2525">
        <ele>72.3</ele>
        <time>2011-10-02T07:27:46Z</time>
      </trkpt>
      <trkpt lat="47.3479" lon="-1.25258">
        <ele>72.8</ele>
        <time>2011-10-02T07:27:48Z</time>
      </trkpt>
      <trkpt lat="47.3479" lon="-1.25267">
        <ele>72.9</ele>
        <time>2011-10-02T07:27:50Z</time>
      </trkpt>
      <trkpt lat="47.3479" lon="-1.25277">
        <ele>71.9</ele>
        <time>2011-10-02T07:27:51Z</time>
      </trkpt>
      <trkpt lat="47.3479" lon="-1.25286">
        <ele>71.5</ele>
        <time>2011-10-02T07:27:52Z</time>
      </trkpt>
      <trkpt lat="47.3479" lon="-1.25294">
        <ele>71.5</ele>
        <time>2011-10-02T07:27:54Z</time>
      </trkpt>
      <trkpt lat="47.34794" lon="-1.25304">
        <ele>69.5</ele>
        <time>2011-10-02T07:27:56Z</time>
      </trkpt>
      <trkpt lat="47.34799" lon="-1.2531">
        <ele>69.7</ele>
        <time>2011-10-02T07:27:57Z</time>
      </trkpt>
      <trkpt lat="47.34798" lon="-1.25321">
        <ele>69.4</ele>
        <time>2011-10-02T07:27:59Z</time>
      </trkpt>
      <trkpt lat="47.34796" lon="-1.25334">
        <ele>68.1</ele>
        <time>2011-10-02T07:28:01Z</time>
      </trkpt>
      <trkpt lat="47.34797" lon="-1.25344">
        <ele>68.3</ele>
        <time>2011-10-02T07:28:03Z</time>
      </trkpt>
      <trkpt lat="47.34795" lon="-1.25352">
        <ele>70</ele>
        <time>2011-10-02T07:28:04Z</time>
      </trkpt>
      <trkpt lat="47.34794" lon="-1.2536">
        <ele>70.5</ele>
        <time>2011-10-02T07:28:06Z</time>
      </trkpt>
      <trkpt lat="47.34796" lon="-1.2537">
        <ele>70.7</ele>
        <time>2011-10-02T07:28:08Z</time>
      </trkpt>
      <trkpt lat="47.34796" lon="-1.2538">
        <ele>69.3</ele>
        <time>2011-10-02T07:28:10Z</time>
      </trkpt>
      <trkpt lat="47.34802" lon="-1.25387">
        <ele>69.1</ele>
        <time>2011-10-02T07:28:11Z</time>
      </trkpt>
      <trkpt lat="47.34801" lon="-1.25399">
        <ele>68.5</ele>
        <time>2011-10-02T07:28:12Z</time>
      </trkpt>
      <trkpt lat="47.34803" lon="-1.25409">
        <ele>68.8</ele>
        <time>2011-10-02T07:28:13Z</time>
      </trkpt>
      <trkpt lat="47.34803" lon="-1.25417">
        <ele>68.3</ele>
        <time>2011-10-02T07:28:14Z</time>
      </trkpt>
      <trkpt lat="47.34804" lon="-1.25427">
        <ele>68.5</ele>
        <time>2011-10-02T07:28:15Z</time>
      </trkpt>
      <trkpt lat="47.34804" lon="-1.25438">
        <ele>68.7</ele>
        <time>2011-10-02T07:28:16Z</time>
      </trkpt>
      <trkpt lat="47.34803" lon="-1.25445">
        <ele>67.7</ele>
        <time>2011-10-02T07:28:17Z</time>
      </trkpt>
      <trkpt lat="47.34804" lon="-1.25464">
        <ele>65.8</ele>
        <time>2011-10-02T07:28:19Z</time>
      </trkpt>
      <trkpt lat="47.34805" lon="-1.25473">
        <ele>65.4</ele>
        <time>2011-10-02T07:28:20Z</time>
      </trkpt>
      <trkpt lat="47.34802" lon="-1.25483">
        <ele>66.1</ele>
        <time>2011-10-02T07:28:21Z</time>
      </trkpt>
      <trkpt lat="47.348" lon="-1.25493">
        <ele>66.3</ele>
        <time>2011-10-02T07:28:22Z</time>
      </trkpt>
      <trkpt lat="47.348" lon="-1.25501">
        <ele>66.3</ele>
        <time>2011-10-02T07:28:23Z</time>
      </trkpt>
      <trkpt lat="47.348" lon="-1.25509">
        <ele>66.5</ele>
        <time>2011-10-02T07:28:24Z</time>
      </trkpt>
      <trkpt lat="47.348" lon="-1.25519">
        <ele>66.7</ele>
        <time>2011-10-02T07:28:25Z</time>
      </trkpt>
      <trkpt lat="47.34805" lon="-1.25526">
        <ele>64.3</ele>
        <time>2011-10-02T07:28:26Z</time>
      </trkpt>
      <trkpt lat="47.34799" lon="-1.25549">
        <ele>62.7</ele>
        <time>2011-10-02T07:28:28Z</time>
      </trkpt>
      <trkpt lat="47.34794" lon="-1.2557">
        <ele>64</ele>
        <time>2011-10-02T07:28:30Z</time>
      </trkpt>
      <trkpt lat="47.34795" lon="-1.25577">
        <ele>64.1</ele>
        <time>2011-10-02T07:28:32Z</time>
      </trkpt>
      <trkpt lat="47.34798" lon="-1.25582">
        <ele>63.3</ele>
        <time>2011-10-02T07:28:33Z</time>
      </trkpt>
      <trkpt lat="47.34796" lon="-1.25595">
        <ele>64.1</ele>
        <time>2011-10-02T07:28:34Z</time>
      </trkpt>
      <trkpt lat="47.34795" lon="-1.25604">
        <ele>64</ele>
        <time>2011-10-02T07:28:35Z</time>
      </trkpt>
      <trkpt lat="47.3479" lon="-1.25614">
        <ele>63.9</ele>
        <time>2011-10-02T07:28:36Z</time>
      </trkpt>
      <trkpt lat="47.34787" lon="-1.25623">
        <ele>65</ele>
        <time>2011-10-02T07:28:37Z</time>
      </trkpt>
      <trkpt lat="47.34789" lon="-1.25631">
        <ele>64.2</ele>
        <time>2011-10-02T07:28:38Z</time>
      </trkpt>
      <trkpt lat="47.34789" lon="-1.25639">
        <ele>64.5</ele>
        <time>2011-10-02T07:28:39Z</time>
      </trkpt>
      <trkpt lat="47.34787" lon="-1.25647">
        <ele>63.6</ele>
        <time>2011-10-02T07:28:40Z</time>
      </trkpt>
      <trkpt lat="47.34787" lon="-1.25657">
        <ele>63.7</ele>
        <time>2011-10-02T07:28:41Z</time>
      </trkpt>
      <trkpt lat="47.34786" lon="-1.25668">
        <ele>62.9</ele>
        <time>2011-10-02T07:28:42Z</time>
      </trkpt>
      <trkpt lat="47.34786" lon="-1.25678">
        <ele>61.6</ele>
        <time>2011-10-02T07:28:43Z</time>
      </trkpt>
      <trkpt lat="47.34782" lon="-1.25689">
        <ele>61.3</ele>
        <time>2011-10-02T07:28:44Z</time>
      </trkpt>
      <trkpt lat="47.34783" lon="-1.25703">
        <ele>62.4</ele>
        <time>2011-10-02T07:28:46Z</time>
      </trkpt>
      <trkpt lat="47.34782" lon="-1.25713">
        <ele>62.8</ele>
        <time>2011-10-02T07:28:48Z</time>
      </trkpt>
      <trkpt lat="47.34782" lon="-1.25722">
        <ele>62.6</ele>
        <time>2011-10-02T07:28:50Z</time>
      </trkpt>
      <trkpt lat="47.34784" lon="-1.25729">
        <ele>63.5</ele>
        <time>2011-10-02T07:28:51Z</time>
      </trkpt>
      <trkpt lat="47.34787" lon="-1.2574">
        <ele>62.9</ele>
        <time>2011-10-02T07:28:53Z</time>
      </trkpt>
      <trkpt lat="47.34789" lon="-1.25752">
        <ele>63.4</ele>
        <time>2011-10-02T07:28:55Z</time>
      </trkpt>
      <trkpt lat="47.34792" lon="-1.2576">
        <ele>64.4</ele>
        <time>2011-10-02T07:28:56Z</time>
      </trkpt>
      <trkpt lat="47.34794" lon="-1.25767">
        <ele>63.6</ele>
        <time>2011-10-02T07:28:57Z</time>
      </trkpt>
      <trkpt lat="47.348" lon="-1.25783">
        <ele>64</ele>
        <time>2011-10-02T07:28:58Z</time>
      </trkpt>
      <trkpt lat="47.348" lon="-1.25794">
        <ele>64</ele>
        <time>2011-10-02T07:28:59Z</time>
      </trkpt>
      <trkpt lat="47.34803" lon="-1.25806">
        <ele>64.1</ele>
        <time>2011-10-02T07:29:01Z</time>
      </trkpt>
      <trkpt lat="47.34804" lon="-1.25824">
        <ele>63.7</ele>
        <time>2011-10-02T07:29:03Z</time>
      </trkpt>
      <trkpt lat="47.34808" lon="-1.25832">
        <ele>63.5</ele>
        <time>2011-10-02T07:29:04Z</time>
      </trkpt>
      <trkpt lat="47.3481" lon="-1.25842">
        <ele>63.3</ele>
        <time>2011-10-02T07:29:06Z</time>
      </trkpt>
      <trkpt lat="47.34812" lon="-1.25851">
        <ele>62.8</ele>
        <time>2011-10-02T07:29:07Z</time>
      </trkpt>
      <trkpt lat="47.34813" lon="-1.25858">
        <ele>63.6</ele>
        <time>2011-10-02T07:29:08Z</time>
      </trkpt>
      <trkpt lat="47.34817" lon="-1.25875">
        <ele>64.5</ele>
        <time>2011-10-02T07:29:10Z</time>
      </trkpt>
      <trkpt lat="47.34823" lon="-1.25895">
        <ele>65.4</ele>
        <time>2011-10-02T07:29:12Z</time>
      </trkpt>
      <trkpt lat="47.34826" lon="-1.25905">
        <ele>64.9</ele>
        <time>2011-10-02T07:29:13Z</time>
      </trkpt>
      <trkpt lat="47.34829" lon="-1.25914">
        <ele>65.8</ele>
        <time>2011-10-02T07:29:14Z</time>
      </trkpt>
      <trkpt lat="47.34829" lon="-1.25924">
        <ele>65.8</ele>
        <time>2011-10-02T07:29:16Z</time>
      </trkpt>
      <trkpt lat="47.34828" lon="-1.25935">
        <ele>66.1</ele>
        <time>2011-10-02T07:29:17Z</time>
      </trkpt>
      <trkpt lat="47.34826" lon="-1.25944">
        <ele>65.2</ele>
        <time>2011-10-02T07:29:18Z</time>
      </trkpt>
      <trkpt lat="47.34828" lon="-1.25951">
        <ele>65.5</ele>
        <time>2011-10-02T07:29:19Z</time>
      </trkpt>
      <trkpt lat="47.34829" lon="-1.25959">
        <ele>65.3</ele>
        <time>2011-10-02T07:29:20Z</time>
      </trkpt>
      <trkpt lat="47.3483" lon="-1.25966">
        <ele>65.3</ele>
        <time>2011-10-02T07:29:21Z</time>
      </trkpt>
      <trkpt lat="47.34831" lon="-1.25974">
        <ele>65.2</ele>
        <time>2011-10-02T07:29:22Z</time>
      </trkpt>
      <trkpt lat="47.34833" lon="-1.25987">
        <ele>65.3</ele>
        <time>2011-10-02T07:29:24Z</time>
      </trkpt>
      <trkpt lat="47.34835" lon="-1.25998">
        <ele>63.8</ele>
        <time>2011-10-02T07:29:26Z</time>
      </trkpt>
      <trkpt lat="47.3484" lon="-1.25997">
        <ele>63.9</ele>
        <time>2011-10-02T07:29:38Z</time>
      </trkpt>
      <trkpt lat="47.34845" lon="-1.25994">
        <ele>65.3</ele>
        <time>2011-10-02T07:29:41Z</time>
      </trkpt>
      <trkpt lat="47.34854" lon="-1.25989">
        <ele>66.1</ele>
        <time>2011-10-02T07:29:44Z</time>
      </trkpt>
      <trkpt lat="47.34859" lon="-1.25988">
        <ele>66.5</ele>
        <time>2011-10-02T07:29:46Z</time>
      </trkpt>
      <trkpt lat="47.34865" lon="-1.25988">
        <ele>67.4</ele>
        <time>2011-10-02T07:29:48Z</time>
      </trkpt>
      <trkpt lat="47.3487" lon="-1.2599">
        <ele>67.7</ele>
        <time>2011-10-02T07:29:50Z</time>
      </trkpt>
      <trkpt lat="47.34877" lon="-1.25993">
        <ele>66.8</ele>
        <time>2011-10-02T07:29:52Z</time>
      </trkpt>
      <trkpt lat="47.34881" lon="-1.25999">
        <ele>67.3</ele>
        <time>2011-10-02T07:29:54Z</time>
      </trkpt>
      <trkpt lat="47.34888" lon="-1.26003">
        <ele>67.8</ele>
        <time>2011-10-02T07:29:56Z</time>
      </trkpt>
      <trkpt lat="47.34893" lon="-1.26007">
        <ele>67.9</ele>
        <time>2011-10-02T07:29:58Z</time>
      </trkpt>
      <trkpt lat="47.34894" lon="-1.26018">
        <ele>68.2</ele>
        <time>2011-10-02T07:30:00Z</time>
      </trkpt>
      <trkpt lat="47.34892" lon="-1.26025">
        <ele>69.5</ele>
        <time>2011-10-02T07:30:02Z</time>
      </trkpt>
      <trkpt lat="47.34894" lon="-1.26033">
        <ele>70.2</ele>
        <time>2011-10-02T07:30:04Z</time>
      </trkpt>
      <trkpt lat="47.34894" lon="-1.2604">
        <ele>71.4</ele>
        <time>2011-10-02T07:30:05Z</time>
      </trkpt>
      <trkpt lat="47.34897" lon="-1.26045">
        <ele>72.7</ele>
        <time>2011-10-02T07:30:07Z</time>
      </trkpt>
      <trkpt lat="47.34902" lon="-1.2605">
        <ele>72.7</ele>
        <time>2011-10-02T07:30:09Z</time>
      </trkpt>
      <trkpt lat="47.34906" lon="-1.26052">
        <ele>74</ele>
        <time>2011-10-02T07:30:11Z</time>
      </trkpt>
      <trkpt lat="47.34913" lon="-1.26051">
        <ele>74.1</ele>
        <time>2011-10-02T07:30:14Z</time>
      </trkpt>
      <trkpt lat="47.34918" lon="-1.26053">
        <ele>73.9</ele>
        <time>2011-10-02T07:30:16Z</time>
      </trkpt>
      <trkpt lat="47.34922" lon="-1.26053">
        <ele>73.4</ele>
        <time>2011-10-02T07:30:18Z</time>
      </trkpt>
      <trkpt lat="47.34934" lon="-1.26054">
        <ele>75.1</ele>
        <time>2011-10-02T07:30:22Z</time>
      </trkpt>
      <trkpt lat="47.34942" lon="-1.26052">
        <ele>75.2</ele>
        <time>2011-10-02T07:30:23Z</time>
      </trkpt>
      <trkpt lat="47.34948" lon="-1.26051">
        <ele>75.4</ele>
        <time>2011-10-02T07:30:24Z</time>
      </trkpt>
      <trkpt lat="47.34956" lon="-1.26051">
        <ele>72.5</ele>
        <time>2011-10-02T07:30:27Z</time>
      </trkpt>
      <trkpt lat="47.34962" lon="-1.26055">
        <ele>70.8</ele>
        <time>2011-10-02T07:30:30Z</time>
      </trkpt>
      <trkpt lat="47.34966" lon="-1.26053">
        <ele>69.4</ele>
        <time>2011-10-02T07:30:36Z</time>
      </trkpt>
      <trkpt lat="47.34971" lon="-1.26051">
        <ele>69.2</ele>
        <time>2011-10-02T07:30:37Z</time>
      </trkpt>
      <trkpt lat="47.34976" lon="-1.26049">
        <ele>72.2</ele>
        <time>2011-10-02T07:30:43Z</time>
      </trkpt>
      <trkpt lat="47.34981" lon="-1.26046">
        <ele>71.8</ele>
        <time>2011-10-02T07:30:45Z</time>
      </trkpt>
      <trkpt lat="47.34983" lon="-1.26038">
        <ele>73</ele>
        <time>2011-10-02T07:30:49Z</time>
      </trkpt>
      <trkpt lat="47.3499" lon="-1.26036">
        <ele>73.8</ele>
        <time>2011-10-02T07:30:52Z</time>
      </trkpt>
      <trkpt lat="47.34994" lon="-1.26034">
        <ele>75.8</ele>
        <time>2011-10-02T07:30:54Z</time>
      </trkpt>
      <trkpt lat="47.35" lon="-1.26029">
        <ele>75.3</ele>
        <time>2011-10-02T07:30:56Z</time>
      </trkpt>
      <trkpt lat="47.35005" lon="-1.26024">
        <ele>78.4</ele>
        <time>2011-10-02T07:31:01Z</time>
      </trkpt>
      <trkpt lat="47.35013" lon="-1.26022">
        <ele>75.9</ele>
        <time>2011-10-02T07:31:03Z</time>
      </trkpt>
      <trkpt lat="47.35018" lon="-1.26019">
        <ele>75.2</ele>
        <time>2011-10-02T07:31:05Z</time>
      </trkpt>
      <trkpt lat="47.35024" lon="-1.26015">
        <ele>76.9</ele>
        <time>2011-10-02T07:31:08Z</time>
      </trkpt>
      <trkpt lat="47.35029" lon="-1.26013">
        <ele>77.8</ele>
        <time>2011-10-02T07:31:09Z</time>
      </trkpt>
      <trkpt lat="47.35033" lon="-1.26005">
        <ele>78.4</ele>
        <time>2011-10-02T07:31:12Z</time>
      </trkpt>
      <trkpt lat="47.35038" lon="-1.26001">
        <ele>80.5</ele>
        <time>2011-10-02T07:31:15Z</time>
      </trkpt>
      <trkpt lat="47.35038" lon="-1.25994">
        <ele>82</ele>
        <time>2011-10-02T07:31:18Z</time>
      </trkpt>
      <trkpt lat="47.35048" lon="-1.25991">
        <ele>83.5</ele>
        <time>2011-10-02T07:31:20Z</time>
      </trkpt>
      <trkpt lat="47.35056" lon="-1.25988">
        <ele>84.3</ele>
        <time>2011-10-02T07:31:22Z</time>
      </trkpt>
      <trkpt lat="47.35064" lon="-1.25985">
        <ele>85</ele>
        <time>2011-10-02T07:31:24Z</time>
      </trkpt>
      <trkpt lat="47.35069" lon="-1.25981">
        <ele>86.9</ele>
        <time>2011-10-02T07:31:26Z</time>
      </trkpt>
      <trkpt lat="47.35076" lon="-1.25976">
        <ele>86.4</ele>
        <time>2011-10-02T07:31:28Z</time>
      </trkpt>
      <trkpt lat="47.35082" lon="-1.25976">
        <ele>86.7</ele>
        <time>2011-10-02T07:31:30Z</time>
      </trkpt>
      <trkpt lat="47.35089" lon="-1.25975">
        <ele>87.8</ele>
        <time>2011-10-02T07:31:32Z</time>
      </trkpt>
      <trkpt lat="47.35095" lon="-1.25972">
        <ele>86.7</ele>
        <time>2011-10-02T07:31:35Z</time>
      </trkpt>
      <trkpt lat="47.35102" lon="-1.25968">
        <ele>86.5</ele>
        <time>2011-10-02T07:31:37Z</time>
      </trkpt>
      <trkpt lat="47.35107" lon="-1.25966">
        <ele>85.6</ele>
        <time>2011-10-02T07:31:39Z</time>
      </trkpt>
      <trkpt lat="47.35113" lon="-1.25964">
        <ele>86</ele>
        <time>2011-10-02T07:31:43Z</time>
      </trkpt>
      <trkpt lat="47.35118" lon="-1.25966">
        <ele>85.9</ele>
        <time>2011-10-02T07:31:45Z</time>
      </trkpt>
      <trkpt lat="47.35124" lon="-1.25961">
        <ele>88.4</ele>
        <time>2011-10-02T07:32:01Z</time>
      </trkpt>
      <trkpt lat="47.35128" lon="-1.25957">
        <ele>89.3</ele>
        <time>2011-10-02T07:32:08Z</time>
      </trkpt>
      <trkpt lat="47.35132" lon="-1.25953">
        <ele>90</ele>
        <time>2011-10-02T07:32:19Z</time>
      </trkpt>
      <trkpt lat="47.35137" lon="-1.25956">
        <ele>92.8</ele>
        <time>2011-10-02T07:32:23Z</time>
      </trkpt>
      <trkpt lat="47.35142" lon="-1.25954">
        <ele>101.9</ele>
        <time>2011-10-02T07:32:35Z</time>
      </trkpt>
      <trkpt lat="47.35147" lon="-1.25954">
        <ele>102</ele>
        <time>2011-10-02T07:32:40Z</time>
      </trkpt>
      <trkpt lat="47.35151" lon="-1.2595">
        <ele>103.2</ele>
        <time>2011-10-02T07:32:51Z</time>
      </trkpt>
      <trkpt lat="47.35156" lon="-1.25945">
        <ele>103</ele>
        <time>2011-10-02T07:32:53Z</time>
      </trkpt>
      <trkpt lat="47.35161" lon="-1.25945">
        <ele>103.3</ele>
        <time>2011-10-02T07:32:55Z</time>
      </trkpt>
      <trkpt lat="47.35167" lon="-1.25942">
        <ele>103.8</ele>
        <time>2011-10-02T07:32:58Z</time>
      </trkpt>
      <trkpt lat="47.35171" lon="-1.25939">
        <ele>105.6</ele>
        <time>2011-10-02T07:33:13Z</time>
      </trkpt>
      <trkpt lat="47.35176" lon="-1.25936">
        <ele>104</ele>
        <time>2011-10-02T07:33:16Z</time>
      </trkpt>
      <trkpt lat="47.3518" lon="-1.25933">
        <ele>103.7</ele>
        <time>2011-10-02T07:33:25Z</time>
      </trkpt>
      <trkpt lat="47.35182" lon="-1.25926">
        <ele>107.1</ele>
        <time>2011-10-02T07:33:31Z</time>
      </trkpt>
      <trkpt lat="47.35188" lon="-1.2592">
        <ele>107.7</ele>
        <time>2011-10-02T07:33:35Z</time>
      </trkpt>
      <trkpt lat="47.35193" lon="-1.25913">
        <ele>106.5</ele>
        <time>2011-10-02T07:33:40Z</time>
      </trkpt>
      <trkpt lat="47.35197" lon="-1.25908">
        <ele>107.4</ele>
        <time>2011-10-02T07:33:45Z</time>
      </trkpt>
      <trkpt lat="47.35203" lon="-1.25901">
        <ele>106.2</ele>
        <time>2011-10-02T07:33:49Z</time>
      </trkpt>
      <trkpt lat="47.35203" lon="-1.25893">
        <ele>105.6</ele>
        <time>2011-10-02T07:33:54Z</time>
      </trkpt>
      <trkpt lat="47.3521" lon="-1.25893">
        <ele>109</ele>
        <time>2011-10-02T07:34:12Z</time>
      </trkpt>
      <trkpt lat="47.35216" lon="-1.25891">
        <ele>112.7</ele>
        <time>2011-10-02T07:34:18Z</time>
      </trkpt>
      <trkpt lat="47.3522" lon="-1.25886">
        <ele>114.8</ele>
        <time>2011-10-02T07:34:25Z</time>
      </trkpt>
      <trkpt lat="47.35224" lon="-1.25883">
        <ele>114.3</ele>
        <time>2011-10-02T07:34:28Z</time>
      </trkpt>
      <trkpt lat="47.35228" lon="-1.25885">
        <ele>115.9</ele>
        <time>2011-10-02T07:34:50Z</time>
      </trkpt>
      <trkpt lat="47.35232" lon="-1.2588">
        <ele>113.7</ele>
        <time>2011-10-02T07:35:01Z</time>
      </trkpt>
      <trkpt lat="47.35238" lon="-1.25877">
        <ele>115.1</ele>
        <time>2011-10-02T07:35:06Z</time>
      </trkpt>
      <trkpt lat="47.35243" lon="-1.25873">
        <ele>116.5</ele>
        <time>2011-10-02T07:35:15Z</time>
      </trkpt>
      <trkpt lat="47.3525" lon="-1.25867">
        <ele>116.5</ele>
        <time>2011-10-02T07:35:17Z</time>
      </trkpt>
      <trkpt lat="47.35252" lon="-1.25859">
        <ele>116.7</ele>
        <time>2011-10-02T07:35:20Z</time>
      </trkpt>
      <trkpt lat="47.35257" lon="-1.25859">
        <ele>118.3</ele>
        <time>2011-10-02T07:35:24Z</time>
      </trkpt>
      <trkpt lat="47.35261" lon="-1.25857">
        <ele>119.2</ele>
        <time>2011-10-02T07:35:30Z</time>
      </trkpt>
      <trkpt lat="47.35267" lon="-1.25855">
        <ele>119.7</ele>
        <time>2011-10-02T07:35:35Z</time>
      </trkpt>
      <trkpt lat="47.35272" lon="-1.25857">
        <ele>120.3</ele>
        <time>2011-10-02T07:36:31Z</time>
      </trkpt>
      <trkpt lat="47.35278" lon="-1.25857">
        <ele>116.2</ele>
        <time>2011-10-02T07:36:33Z</time>
      </trkpt>
      <trkpt lat="47.35281" lon="-1.25862">
        <ele>114.4</ele>
        <time>2011-10-02T07:36:35Z</time>
      </trkpt>
      <trkpt lat="47.35282" lon="-1.2587">
        <ele>113.7</ele>
        <time>2011-10-02T07:36:37Z</time>
      </trkpt>
      <trkpt lat="47.35284" lon="-1.2588">
        <ele>112.2</ele>
        <time>2011-10-02T07:36:39Z</time>
      </trkpt>
      <trkpt lat="47.35286" lon="-1.25895">
        <ele>112.1</ele>
        <time>2011-10-02T07:36:40Z</time>
      </trkpt>
      <trkpt lat="47.35286" lon="-1.25906">
        <ele>111.4</ele>
        <time>2011-10-02T07:36:43Z</time>
      </trkpt>
      <trkpt lat="47.35272" lon="-1.25916">
        <ele>112.8</ele>
        <time>2011-10-02T07:36:45Z</time>
      </trkpt>
      <trkpt lat="47.35271" lon="-1.25924">
        <ele>112.8</ele>
        <time>2011-10-02T07:36:47Z</time>
      </trkpt>
      <trkpt lat="47.35272" lon="-1.25931">
        <ele>112.9</ele>
        <time>2011-10-02T07:36:48Z</time>
      </trkpt>
      <trkpt lat="47.3527" lon="-1.25938">
        <ele>112.4</ele>
        <time>2011-10-02T07:36:49Z</time>
      </trkpt>
      <trkpt lat="47.3527" lon="-1.25949">
        <ele>111</ele>
        <time>2011-10-02T07:36:51Z</time>
      </trkpt>
      <trkpt lat="47.35268" lon="-1.2596">
        <ele>111.1</ele>
        <time>2011-10-02T07:36:53Z</time>
      </trkpt>
      <trkpt lat="47.35268" lon="-1.25973">
        <ele>110.2</ele>
        <time>2011-10-02T07:36:55Z</time>
      </trkpt>
      <trkpt lat="47.35266" lon="-1.25984">
        <ele>109.9</ele>
        <time>2011-10-02T07:36:57Z</time>
      </trkpt>
      <trkpt lat="47.35265" lon="-1.25993">
        <ele>109.6</ele>
        <time>2011-10-02T07:36:59Z</time>
      </trkpt>
      <trkpt lat="47.35264" lon="-1.26002">
        <ele>109.6</ele>
        <time>2011-10-02T07:37:01Z</time>
      </trkpt>
      <trkpt lat="47.35262" lon="-1.26013">
        <ele>109.5</ele>
        <time>2011-10-02T07:37:03Z</time>
      </trkpt>
      <trkpt lat="47.35262" lon="-1.26022">
        <ele>109.7</ele>
        <time>2011-10-02T07:37:05Z</time>
      </trkpt>
      <trkpt lat="47.35262" lon="-1.26038">
        <ele>109.8</ele>
        <time>2011-10-02T07:37:07Z</time>
      </trkpt>
      <trkpt lat="47.35261" lon="-1.26046">
        <ele>109.9</ele>
        <time>2011-10-02T07:37:08Z</time>
      </trkpt>
      <trkpt lat="47.35264" lon="-1.26052">
        <ele>111</ele>
        <time>2011-10-02T07:37:09Z</time>
      </trkpt>
      <trkpt lat="47.35266" lon="-1.26064">
        <ele>111.8</ele>
        <time>2011-10-02T07:37:11Z</time>
      </trkpt>
      <trkpt lat="47.35264" lon="-1.26073">
        <ele>111</ele>
        <time>2011-10-02T07:37:12Z</time>
      </trkpt>
      <trkpt lat="47.35263" lon="-1.26084">
        <ele>111.4</ele>
        <time>2011-10-02T07:37:13Z</time>
      </trkpt>
      <trkpt lat="47.3526" lon="-1.26094">
        <ele>110.3</ele>
        <time>2011-10-02T07:37:14Z</time>
      </trkpt>
      <trkpt lat="47.3526" lon="-1.26102">
        <ele>110.5</ele>
        <time>2011-10-02T07:37:15Z</time>
      </trkpt>
      <trkpt lat="47.3526" lon="-1.2611">
        <ele>110.9</ele>
        <time>2011-10-02T07:37:16Z</time>
      </trkpt>
      <trkpt lat="47.3526" lon="-1.2612">
        <ele>111.1</ele>
        <time>2011-10-02T07:37:17Z</time>
      </trkpt>
      <trkpt lat="47.3526" lon="-1.26129">
        <ele>111</ele>
        <time>2011-10-02T07:37:18Z</time>
      </trkpt>
      <trkpt lat="47.35258" lon="-1.26146">
        <ele>110.8</ele>
        <time>2011-10-02T07:37:20Z</time>
      </trkpt>
      <trkpt lat="47.35257" lon="-1.26156">
        <ele>110.6</ele>
        <time>2011-10-02T07:37:21Z</time>
      </trkpt>
      <trkpt lat="47.35257" lon="-1.26165">
        <ele>110.6</ele>
        <time>2011-10-02T07:37:22Z</time>
      </trkpt>
      <trkpt lat="47.35256" lon="-1.26173">
        <ele>110.5</ele>
        <time>2011-10-02T07:37:23Z</time>
      </trkpt>
      <trkpt lat="47.35256" lon="-1.26181">
        <ele>110.5</ele>
        <time>2011-10-02T07:37:24Z</time>
      </trkpt>
      <trkpt lat="47.35255" lon="-1.2619">
        <ele>110</ele>
        <time>2011-10-02T07:37:25Z</time>
      </trkpt>
      <trkpt lat="47.35254" lon="-1.26198">
        <ele>109.1</ele>
        <time>2011-10-02T07:37:26Z</time>
      </trkpt>
      <trkpt lat="47.35253" lon="-1.26206">
        <ele>108.8</ele>
        <time>2011-10-02T07:37:27Z</time>
      </trkpt>
      <trkpt lat="47.35252" lon="-1.26214">
        <ele>108.7</ele>
        <time>2011-10-02T07:37:28Z</time>
      </trkpt>
      <trkpt lat="47.35247" lon="-1.26236">
        <ele>108.7</ele>
        <time>2011-10-02T07:37:31Z</time>
      </trkpt>
      <trkpt lat="47.35244" lon="-1.26244">
        <ele>109</ele>
        <time>2011-10-02T07:37:32Z</time>
      </trkpt>
      <trkpt lat="47.35242" lon="-1.26251">
        <ele>108.9</ele>
        <time>2011-10-02T07:37:33Z</time>
      </trkpt>
      <trkpt lat="47.3524" lon="-1.26262">
        <ele>109.6</ele>
        <time>2011-10-02T07:37:35Z</time>
      </trkpt>
      <trkpt lat="47.35241" lon="-1.2627">
        <ele>108.5</ele>
        <time>2011-10-02T07:37:36Z</time>
      </trkpt>
      <trkpt lat="47.35242" lon="-1.26279">
        <ele>108</ele>
        <time>2011-10-02T07:37:37Z</time>
      </trkpt>
      <trkpt lat="47.35244" lon="-1.26288">
        <ele>107.9</ele>
        <time>2011-10-02T07:37:38Z</time>
      </trkpt>
      <trkpt lat="47.35245" lon="-1.26297">
        <ele>107.7</ele>
        <time>2011-10-02T07:37:39Z</time>
      </trkpt>
      <trkpt lat="47.35245" lon="-1.26305">
        <ele>107.8</ele>
        <time>2011-10-02T07:37:40Z</time>
      </trkpt>
      <trkpt lat="47.35246" lon="-1.26314">
        <ele>107.6</ele>
        <time>2011-10-02T07:37:41Z</time>
      </trkpt>
      <trkpt lat="47.35245" lon="-1.26323">
        <ele>107</ele>
        <time>2011-10-02T07:37:42Z</time>
      </trkpt>
      <trkpt lat="47.35244" lon="-1.2633">
        <ele>105.3</ele>
        <time>2011-10-02T07:37:43Z</time>
      </trkpt>
      <trkpt lat="47.35246" lon="-1.26351">
        <ele>106</ele>
        <time>2011-10-02T07:37:45Z</time>
      </trkpt>
      <trkpt lat="47.35247" lon="-1.26361">
        <ele>106.2</ele>
        <time>2011-10-02T07:37:46Z</time>
      </trkpt>
      <trkpt lat="47.35249" lon="-1.26384">
        <ele>108</ele>
        <time>2011-10-02T07:37:49Z</time>
      </trkpt>
      <trkpt lat="47.3525" lon="-1.26392">
        <ele>108.1</ele>
        <time>2011-10-02T07:37:50Z</time>
      </trkpt>
      <trkpt lat="47.35252" lon="-1.26405">
        <ele>107</ele>
        <time>2011-10-02T07:37:52Z</time>
      </trkpt>
      <trkpt lat="47.35253" lon="-1.26417">
        <ele>106.7</ele>
        <time>2011-10-02T07:37:54Z</time>
      </trkpt>
      <trkpt lat="47.35252" lon="-1.26424">
        <ele>106.3</ele>
        <time>2011-10-02T07:37:55Z</time>
      </trkpt>
      <trkpt lat="47.35253" lon="-1.26437">
        <ele>106.5</ele>
        <time>2011-10-02T07:37:57Z</time>
      </trkpt>
      <trkpt lat="47.35252" lon="-1.26448">
        <ele>105.8</ele>
        <time>2011-10-02T07:37:58Z</time>
      </trkpt>
      <trkpt lat="47.35253" lon="-1.26457">
        <ele>105.7</ele>
        <time>2011-10-02T07:37:59Z</time>
      </trkpt>
      <trkpt lat="47.35252" lon="-1.26466">
        <ele>105.7</ele>
        <time>2011-10-02T07:38:00Z</time>
      </trkpt>
      <trkpt lat="47.35252" lon="-1.26476">
        <ele>105.8</ele>
        <time>2011-10-02T07:38:01Z</time>
      </trkpt>
      <trkpt lat="47.35253" lon="-1.26485">
        <ele>105.6</ele>
        <time>2011-10-02T07:38:02Z</time>
      </trkpt>
      <trkpt lat="47.35254" lon="-1.26504">
        <ele>105.9</ele>
        <time>2011-10-02T07:38:04Z</time>
      </trkpt>
      <trkpt lat="47.35256" lon="-1.26513">
        <ele>105.9</ele>
        <time>2011-10-02T07:38:05Z</time>
      </trkpt>
      <trkpt lat="47.35258" lon="-1.26524">
        <ele>105.9</ele>
        <time>2011-10-02T07:38:06Z</time>
      </trkpt>
      <trkpt lat="47.35258" lon="-1.26534">
        <ele>105.8</ele>
        <time>2011-10-02T07:38:07Z</time>
      </trkpt>
      <trkpt lat="47.35258" lon="-1.26544">
        <ele>105.4</ele>
        <time>2011-10-02T07:38:08Z</time>
      </trkpt>
      <trkpt lat="47.3526" lon="-1.26556">
        <ele>105.6</ele>
        <time>2011-10-02T07:38:09Z</time>
      </trkpt>
      <trkpt lat="47.3526" lon="-1.26568">
        <ele>105.5</ele>
        <time>2011-10-02T07:38:10Z</time>
      </trkpt>
      <trkpt lat="47.35262" lon="-1.26579">
        <ele>105.5</ele>
        <time>2011-10-02T07:38:11Z</time>
      </trkpt>
      <trkpt lat="47.35265" lon="-1.26591">
        <ele>106.2</ele>
        <time>2011-10-02T07:38:12Z</time>
      </trkpt>
      <trkpt lat="47.35266" lon="-1.26602">
        <ele>106.3</ele>
        <time>2011-10-02T07:38:13Z</time>
      </trkpt>
      <trkpt lat="47.3527" lon="-1.26611">
        <ele>106.7</ele>
        <time>2011-10-02T07:38:14Z</time>
      </trkpt>
      <trkpt lat="47.35269" lon="-1.26621">
        <ele>105.7</ele>
        <time>2011-10-02T07:38:15Z</time>
      </trkpt>
      <trkpt lat="47.35269" lon="-1.26633">
        <ele>105.4</ele>
        <time>2011-10-02T07:38:16Z</time>
      </trkpt>
      <trkpt lat="47.35269" lon="-1.26644">
        <ele>105</ele>
        <time>2011-10-02T07:38:17Z</time>
      </trkpt>
      <trkpt lat="47.35271" lon="-1.26655">
        <ele>103.9</ele>
        <time>2011-10-02T07:38:18Z</time>
      </trkpt>
      <trkpt lat="47.3527" lon="-1.26678">
        <ele>104.5</ele>
        <time>2011-10-02T07:38:19Z</time>
      </trkpt>
      <trkpt lat="47.35272" lon="-1.26696">
        <ele>103.8</ele>
        <time>2011-10-02T07:38:21Z</time>
      </trkpt>
      <trkpt lat="47.35274" lon="-1.26711">
        <ele>103</ele>
        <time>2011-10-02T07:38:22Z</time>
      </trkpt>
      <trkpt lat="47.35273" lon="-1.26726">
        <ele>103</ele>
        <time>2011-10-02T07:38:23Z</time>
      </trkpt>
      <trkpt lat="47.35275" lon="-1.2674">
        <ele>102.2</ele>
        <time>2011-10-02T07:38:24Z</time>
      </trkpt>
      <trkpt lat="47.35276" lon="-1.26753">
        <ele>102.8</ele>
        <time>2011-10-02T07:38:25Z</time>
      </trkpt>
      <trkpt lat="47.35277" lon="-1.26767">
        <ele>102.4</ele>
        <time>2011-10-02T07:38:26Z</time>
      </trkpt>
      <trkpt lat="47.35278" lon="-1.26779">
        <ele>101.6</ele>
        <time>2011-10-02T07:38:27Z</time>
      </trkpt>
      <trkpt lat="47.35279" lon="-1.2679">
        <ele>101.2</ele>
        <time>2011-10-02T07:38:28Z</time>
      </trkpt>
      <trkpt lat="47.3528" lon="-1.26801">
        <ele>100.9</ele>
        <time>2011-10-02T07:38:29Z</time>
      </trkpt>
      <trkpt lat="47.35282" lon="-1.26811">
        <ele>100.6</ele>
        <time>2011-10-02T07:38:30Z</time>
      </trkpt>
      <trkpt lat="47.35282" lon="-1.26822">
        <ele>100.4</ele>
        <time>2011-10-02T07:38:31Z</time>
      </trkpt>
      <trkpt lat="47.35284" lon="-1.26839">
        <ele>99.6</ele>
        <time>2011-10-02T07:38:32Z</time>
      </trkpt>
      <trkpt lat="47.35286" lon="-1.26851">
        <ele>99.2</ele>
        <time>2011-10-02T07:38:34Z</time>
      </trkpt>
      <trkpt lat="47.35285" lon="-1.26863">
        <ele>97.7</ele>
        <time>2011-10-02T07:38:35Z</time>
      </trkpt>
      <trkpt lat="47.35286" lon="-1.26875">
        <ele>97.3</ele>
        <time>2011-10-02T07:38:36Z</time>
      </trkpt>
      <trkpt lat="47.35287" lon="-1.26886">
        <ele>96.7</ele>
        <time>2011-10-02T07:38:37Z</time>
      </trkpt>
      <trkpt lat="47.35287" lon="-1.26896">
        <ele>96.6</ele>
        <time>2011-10-02T07:38:38Z</time>
      </trkpt>
      <trkpt lat="47.35284" lon="-1.26921">
        <ele>93.4</ele>
        <time>2011-10-02T07:38:40Z</time>
      </trkpt>
      <trkpt lat="47.35284" lon="-1.26933">
        <ele>93.2</ele>
        <time>2011-10-02T07:38:41Z</time>
      </trkpt>
      <trkpt lat="47.35284" lon="-1.2695">
        <ele>94.8</ele>
        <time>2011-10-02T07:38:42Z</time>
      </trkpt>
      <trkpt lat="47.35284" lon="-1.26967">
        <ele>94.1</ele>
        <time>2011-10-02T07:38:44Z</time>
      </trkpt>
      <trkpt lat="47.35282" lon="-1.26981">
        <ele>93.9</ele>
        <time>2011-10-02T07:38:45Z</time>
      </trkpt>
      <trkpt lat="47.35281" lon="-1.26993">
        <ele>94.3</ele>
        <time>2011-10-02T07:38:46Z</time>
      </trkpt>
      <trkpt lat="47.3528" lon="-1.27004">
        <ele>94.3</ele>
        <time>2011-10-02T07:38:47Z</time>
      </trkpt>
      <trkpt lat="47.3528" lon="-1.27015">
        <ele>94.4</ele>
        <time>2011-10-02T07:38:48Z</time>
      </trkpt>
      <trkpt lat="47.35278" lon="-1.27024">
        <ele>94.6</ele>
        <time>2011-10-02T07:38:49Z</time>
      </trkpt>
      <trkpt lat="47.35277" lon="-1.27034">
        <ele>94.2</ele>
        <time>2011-10-02T07:38:50Z</time>
      </trkpt>
      <trkpt lat="47.35274" lon="-1.27045">
        <ele>94</ele>
        <time>2011-10-02T07:38:51Z</time>
      </trkpt>
      <trkpt lat="47.35271" lon="-1.27056">
        <ele>94.4</ele>
        <time>2011-10-02T07:38:52Z</time>
      </trkpt>
      <trkpt lat="47.35265" lon="-1.27063">
        <ele>93.7</ele>
        <time>2011-10-02T07:38:53Z</time>
      </trkpt>
      <trkpt lat="47.35261" lon="-1.2707">
        <ele>93.3</ele>
        <time>2011-10-02T07:38:54Z</time>
      </trkpt>
      <trkpt lat="47.35256" lon="-1.27083">
        <ele>93</ele>
        <time>2011-10-02T07:38:55Z</time>
      </trkpt>
      <trkpt lat="47.35252" lon="-1.27089">
        <ele>92.8</ele>
        <time>2011-10-02T07:38:56Z</time>
      </trkpt>
      <trkpt lat="47.35248" lon="-1.27095">
        <ele>92.2</ele>
        <time>2011-10-02T07:38:57Z</time>
      </trkpt>
      <trkpt lat="47.35245" lon="-1.27101">
        <ele>92.7</ele>
        <time>2011-10-02T07:38:58Z</time>
      </trkpt>
      <trkpt lat="47.35244" lon="-1.2711">
        <ele>92.9</ele>
        <time>2011-10-02T07:39:02Z</time>
      </trkpt>
      <trkpt lat="47.35244" lon="-1.27121">
        <ele>93.1</ele>
        <time>2011-10-02T07:39:04Z</time>
      </trkpt>
      <trkpt lat="47.35244" lon="-1.27132">
        <ele>92.5</ele>
        <time>2011-10-02T07:39:05Z</time>
      </trkpt>
      <trkpt lat="47.35241" lon="-1.2714">
        <ele>92.1</ele>
        <time>2011-10-02T07:39:06Z</time>
      </trkpt>
      <trkpt lat="47.35238" lon="-1.27147">
        <ele>91.1</ele>
        <time>2011-10-02T07:39:07Z</time>
      </trkpt>
      <trkpt lat="47.35236" lon="-1.27156">
        <ele>90.9</ele>
        <time>2011-10-02T07:39:08Z</time>
      </trkpt>
      <trkpt lat="47.35232" lon="-1.2716">
        <ele>90.1</ele>
        <time>2011-10-02T07:39:09Z</time>
      </trkpt>
      <trkpt lat="47.35227" lon="-1.27166">
        <ele>89.7</ele>
        <time>2011-10-02T07:39:10Z</time>
      </trkpt>
      <trkpt lat="47.35225" lon="-1.27175">
        <ele>88.9</ele>
        <time>2011-10-02T07:39:12Z</time>
      </trkpt>
      <trkpt lat="47.35218" lon="-1.27183">
        <ele>87.7</ele>
        <time>2011-10-02T07:39:13Z</time>
      </trkpt>
      <trkpt lat="47.35215" lon="-1.27195">
        <ele>87.7</ele>
        <time>2011-10-02T07:39:14Z</time>
      </trkpt>
      <trkpt lat="47.35211" lon="-1.27203">
        <ele>87.8</ele>
        <time>2011-10-02T07:39:15Z</time>
      </trkpt>
      <trkpt lat="47.35207" lon="-1.2722">
        <ele>89.6</ele>
        <time>2011-10-02T07:39:16Z</time>
      </trkpt>
      <trkpt lat="47.35202" lon="-1.2723">
        <ele>89.9</ele>
        <time>2011-10-02T07:39:17Z</time>
      </trkpt>
      <trkpt lat="47.35197" lon="-1.27238">
        <ele>89.3</ele>
        <time>2011-10-02T07:39:18Z</time>
      </trkpt>
      <trkpt lat="47.3519" lon="-1.27246">
        <ele>89.7</ele>
        <time>2011-10-02T07:39:19Z</time>
      </trkpt>
      <trkpt lat="47.35185" lon="-1.27259">
        <ele>90</ele>
        <time>2011-10-02T07:39:20Z</time>
      </trkpt>
      <trkpt lat="47.35182" lon="-1.27267">
        <ele>90.6</ele>
        <time>2011-10-02T07:39:21Z</time>
      </trkpt>
      <trkpt lat="47.35176" lon="-1.27279">
        <ele>90.2</ele>
        <time>2011-10-02T07:39:23Z</time>
      </trkpt>
      <trkpt lat="47.35168" lon="-1.27293">
        <ele>89.8</ele>
        <time>2011-10-02T07:39:24Z</time>
      </trkpt>
      <trkpt lat="47.35163" lon="-1.27302">
        <ele>89.7</ele>
        <time>2011-10-02T07:39:25Z</time>
      </trkpt>
      <trkpt lat="47.3516" lon="-1.2731">
        <ele>90.4</ele>
        <time>2011-10-02T07:39:26Z</time>
      </trkpt>
      <trkpt lat="47.35155" lon="-1.27317">
        <ele>90</ele>
        <time>2011-10-02T07:39:27Z</time>
      </trkpt>
      <trkpt lat="47.35158" lon="-1.27329">
        <ele>90.8</ele>
        <time>2011-10-02T07:39:28Z</time>
      </trkpt>
      <trkpt lat="47.35152" lon="-1.27339">
        <ele>90.7</ele>
        <time>2011-10-02T07:39:30Z</time>
      </trkpt>
      <trkpt lat="47.35146" lon="-1.27347">
        <ele>90.9</ele>
        <time>2011-10-02T07:39:31Z</time>
      </trkpt>
      <trkpt lat="47.35137" lon="-1.27357">
        <ele>90.7</ele>
        <time>2011-10-02T07:39:32Z</time>
      </trkpt>
      <trkpt lat="47.3513" lon="-1.2736">
        <ele>90.2</ele>
        <time>2011-10-02T07:39:33Z</time>
      </trkpt>
      <trkpt lat="47.35124" lon="-1.27367">
        <ele>90</ele>
        <time>2011-10-02T07:39:34Z</time>
      </trkpt>
      <trkpt lat="47.35116" lon="-1.27371">
        <ele>89.8</ele>
        <time>2011-10-02T07:39:36Z</time>
      </trkpt>
      <trkpt lat="47.35109" lon="-1.27373">
        <ele>89.6</ele>
        <time>2011-10-02T07:39:37Z</time>
      </trkpt>
      <trkpt lat="47.35102" lon="-1.27374">
        <ele>89.4</ele>
        <time>2011-10-02T07:39:38Z</time>
      </trkpt>
      <trkpt lat="47.35094" lon="-1.27377">
        <ele>89.4</ele>
        <time>2011-10-02T07:39:39Z</time>
      </trkpt>
      <trkpt lat="47.35086" lon="-1.27377">
        <ele>89.6</ele>
        <time>2011-10-02T07:39:40Z</time>
      </trkpt>
      <trkpt lat="47.35078" lon="-1.27376">
        <ele>89.6</ele>
        <time>2011-10-02T07:39:41Z</time>
      </trkpt>
      <trkpt lat="47.35071" lon="-1.27375">
        <ele>89.6</ele>
        <time>2011-10-02T07:39:42Z</time>
      </trkpt>
      <trkpt lat="47.35053" lon="-1.27376">
        <ele>89.7</ele>
        <time>2011-10-02T07:39:43Z</time>
      </trkpt>
      <trkpt lat="47.35043" lon="-1.2737">
        <ele>90</ele>
        <time>2011-10-02T07:39:44Z</time>
      </trkpt>
      <trkpt lat="47.35034" lon="-1.27372">
        <ele>90.5</ele>
        <time>2011-10-02T07:39:45Z</time>
      </trkpt>
      <trkpt lat="47.35023" lon="-1.27372">
        <ele>89.8</ele>
        <time>2011-10-02T07:39:46Z</time>
      </trkpt>
      <trkpt lat="47.35017" lon="-1.27373">
        <ele>89.7</ele>
        <time>2011-10-02T07:39:47Z</time>
      </trkpt>
      <trkpt lat="47.35008" lon="-1.27371">
        <ele>89.1</ele>
        <time>2011-10-02T07:39:49Z</time>
      </trkpt>
      <trkpt lat="47.35" lon="-1.27366">
        <ele>88.4</ele>
        <time>2011-10-02T07:39:50Z</time>
      </trkpt>
      <trkpt lat="47.34994" lon="-1.27368">
        <ele>88.3</ele>
        <time>2011-10-02T07:39:51Z</time>
      </trkpt>
      <trkpt lat="47.34986" lon="-1.2737">
        <ele>88.2</ele>
        <time>2011-10-02T07:39:52Z</time>
      </trkpt>
      <trkpt lat="47.34976" lon="-1.27363">
        <ele>85</ele>
        <time>2011-10-02T07:39:54Z</time>
      </trkpt>
      <trkpt lat="47.3497" lon="-1.27356">
        <ele>82.7</ele>
        <time>2011-10-02T07:39:55Z</time>
      </trkpt>
      <trkpt lat="47.34965" lon="-1.27354">
        <ele>81.5</ele>
        <time>2011-10-02T07:39:56Z</time>
      </trkpt>
      <trkpt lat="47.34963" lon="-1.27363">
        <ele>79.5</ele>
        <time>2011-10-02T07:39:58Z</time>
      </trkpt>
      <trkpt lat="47.34965" lon="-1.27356">
        <ele>77.6</ele>
        <time>2011-10-02T07:40:02Z</time>
      </trkpt>
      <trkpt lat="47.3496" lon="-1.27354">
        <ele>77.2</ele>
        <time>2011-10-02T07:40:07Z</time>
      </trkpt>
      <trkpt lat="47.34953" lon="-1.27354">
        <ele>77.7</ele>
        <time>2011-10-02T07:40:21Z</time>
      </trkpt>
      <trkpt lat="47.34944" lon="-1.27352">
        <ele>74.8</ele>
        <time>2011-10-02T07:40:22Z</time>
      </trkpt>
      <trkpt lat="47.34939" lon="-1.27349">
        <ele>73.8</ele>
        <time>2011-10-02T07:40:24Z</time>
      </trkpt>
      <trkpt lat="47.34935" lon="-1.27355">
        <ele>74.9</ele>
        <time>2011-10-02T07:49:20Z</time>
      </trkpt>
      <trkpt lat="47.34931" lon="-1.27361">
        <ele>75.2</ele>
        <time>2011-10-02T07:49:21Z</time>
      </trkpt>
      <trkpt lat="47.34927" lon="-1.27368">
        <ele>75.1</ele>
        <time>2011-10-02T07:49:22Z</time>
      </trkpt>
      <trkpt lat="47.34924" lon="-1.27374">
        <ele>73.5</ele>
        <time>2011-10-02T07:49:23Z</time>
      </trkpt>
      <trkpt lat="47.3492" lon="-1.2738">
        <ele>74.9</ele>
        <time>2011-10-02T07:49:24Z</time>
      </trkpt>
      <trkpt lat="47.34916" lon="-1.27385">
        <ele>75</ele>
        <time>2011-10-02T07:49:25Z</time>
      </trkpt>
      <trkpt lat="47.3491" lon="-1.274">
        <ele>74.9</ele>
        <time>2011-10-02T07:49:27Z</time>
      </trkpt>
      <trkpt lat="47.34907" lon="-1.27405">
        <ele>75.1</ele>
        <time>2011-10-02T07:49:28Z</time>
      </trkpt>
      <trkpt lat="47.34904" lon="-1.27414">
        <ele>76.1</ele>
        <time>2011-10-02T07:49:29Z</time>
      </trkpt>
      <trkpt lat="47.34901" lon="-1.2742">
        <ele>75.9</ele>
        <time>2011-10-02T07:49:30Z</time>
      </trkpt>
      <trkpt lat="47.34905" lon="-1.27426">
        <ele>75.2</ele>
        <time>2011-10-02T07:49:31Z</time>
      </trkpt>
      <trkpt lat="47.34909" lon="-1.27432">
        <ele>75.3</ele>
        <time>2011-10-02T07:49:32Z</time>
      </trkpt>
      <trkpt lat="47.34908" lon="-1.27443">
        <ele>75.2</ele>
        <time>2011-10-02T07:49:33Z</time>
      </trkpt>
      <trkpt lat="47.34908" lon="-1.27451">
        <ele>74.9</ele>
        <time>2011-10-02T07:49:34Z</time>
      </trkpt>
      <trkpt lat="47.34903" lon="-1.27456">
        <ele>74.8</ele>
        <time>2011-10-02T07:49:36Z</time>
      </trkpt>
      <trkpt lat="47.34894" lon="-1.27456">
        <ele>74.9</ele>
        <time>2011-10-02T07:49:38Z</time>
      </trkpt>
      <trkpt lat="47.34889" lon="-1.27459">
        <ele>75.1</ele>
        <time>2011-10-02T07:49:39Z</time>
      </trkpt>
      <trkpt lat="47.34882" lon="-1.27463">
        <ele>74.7</ele>
        <time>2011-10-02T07:49:40Z</time>
      </trkpt>
      <trkpt lat="47.34875" lon="-1.27473">
        <ele>74.3</ele>
        <time>2011-10-02T07:49:42Z</time>
      </trkpt>
      <trkpt lat="47.34871" lon="-1.27477">
        <ele>73.9</ele>
        <time>2011-10-02T07:49:43Z</time>
      </trkpt>
      <trkpt lat="47.34866" lon="-1.27482">
        <ele>72.4</ele>
        <time>2011-10-02T07:49:44Z</time>
      </trkpt>
      <trkpt lat="47.34859" lon="-1.27483">
        <ele>73.2</ele>
        <time>2011-10-02T07:49:46Z</time>
      </trkpt>
      <trkpt lat="47.34855" lon="-1.27486">
        <ele>72.9</ele>
        <time>2011-10-02T07:49:47Z</time>
      </trkpt>
      <trkpt lat="47.3485" lon="-1.27493">
        <ele>73.9</ele>
        <time>2011-10-02T07:49:49Z</time>
      </trkpt>
      <trkpt lat="47.34852" lon="-1.27504">
        <ele>72.6</ele>
        <time>2011-10-02T07:49:51Z</time>
      </trkpt>
      <trkpt lat="47.34852" lon="-1.27519">
        <ele>71.6</ele>
        <time>2011-10-02T07:49:52Z</time>
      </trkpt>
      <trkpt lat="47.34845" lon="-1.27527">
        <ele>71.2</ele>
        <time>2011-10-02T07:49:53Z</time>
      </trkpt>
      <trkpt lat="47.34841" lon="-1.27534">
        <ele>70.6</ele>
        <time>2011-10-02T07:49:54Z</time>
      </trkpt>
      <trkpt lat="47.3484" lon="-1.27544">
        <ele>71.3</ele>
        <time>2011-10-02T07:49:56Z</time>
      </trkpt>
      <trkpt lat="47.34838" lon="-1.27556">
        <ele>68.2</ele>
        <time>2011-10-02T07:49:58Z</time>
      </trkpt>
      <trkpt lat="47.34838" lon="-1.27564">
        <ele>67.8</ele>
        <time>2011-10-02T07:49:59Z</time>
      </trkpt>
      <trkpt lat="47.34838" lon="-1.27572">
        <ele>67.8</ele>
        <time>2011-10-02T07:50:00Z</time>
      </trkpt>
      <trkpt lat="47.34834" lon="-1.27577">
        <ele>69.1</ele>
        <time>2011-10-02T07:50:01Z</time>
      </trkpt>
      <trkpt lat="47.34831" lon="-1.27587">
        <ele>68.7</ele>
        <time>2011-10-02T07:50:02Z</time>
      </trkpt>
      <trkpt lat="47.3483" lon="-1.27596">
        <ele>67.8</ele>
        <time>2011-10-02T07:50:04Z</time>
      </trkpt>
      <trkpt lat="47.34829" lon="-1.27605">
        <ele>67.4</ele>
        <time>2011-10-02T07:50:05Z</time>
      </trkpt>
      <trkpt lat="47.34827" lon="-1.27613">
        <ele>67.7</ele>
        <time>2011-10-02T07:50:06Z</time>
      </trkpt>
      <trkpt lat="47.34826" lon="-1.27626">
        <ele>67.2</ele>
        <time>2011-10-02T07:50:07Z</time>
      </trkpt>
      <trkpt lat="47.34827" lon="-1.27633">
        <ele>67.3</ele>
        <time>2011-10-02T07:50:08Z</time>
      </trkpt>
      <trkpt lat="47.34828" lon="-1.27641">
        <ele>66.5</ele>
        <time>2011-10-02T07:50:09Z</time>
      </trkpt>
      <trkpt lat="47.34832" lon="-1.2765">
        <ele>66.2</ele>
        <time>2011-10-02T07:50:10Z</time>
      </trkpt>
      <trkpt lat="47.34829" lon="-1.27657">
        <ele>66.1</ele>
        <time>2011-10-02T07:50:12Z</time>
      </trkpt>
      <trkpt lat="47.34828" lon="-1.27667">
        <ele>66.5</ele>
        <time>2011-10-02T07:50:13Z</time>
      </trkpt>
      <trkpt lat="47.34824" lon="-1.27679">
        <ele>67.2</ele>
        <time>2011-10-02T07:50:14Z</time>
      </trkpt>
      <trkpt lat="47.34822" lon="-1.27689">
        <ele>68.2</ele>
        <time>2011-10-02T07:50:15Z</time>
      </trkpt>
      <trkpt lat="47.34821" lon="-1.27697">
        <ele>67.3</ele>
        <time>2011-10-02T07:50:16Z</time>
      </trkpt>
      <trkpt lat="47.3482" lon="-1.27704">
        <ele>67.5</ele>
        <time>2011-10-02T07:50:17Z</time>
      </trkpt>
      <trkpt lat="47.34819" lon="-1.27711">
        <ele>67.2</ele>
        <time>2011-10-02T07:50:18Z</time>
      </trkpt>
      <trkpt lat="47.34818" lon="-1.27718">
        <ele>67.3</ele>
        <time>2011-10-02T07:50:19Z</time>
      </trkpt>
      <trkpt lat="47.34819" lon="-1.2773">
        <ele>67.9</ele>
        <time>2011-10-02T07:50:21Z</time>
      </trkpt>
      <trkpt lat="47.34816" lon="-1.27739">
        <ele>68.1</ele>
        <time>2011-10-02T07:50:22Z</time>
      </trkpt>
      <trkpt lat="47.34813" lon="-1.27746">
        <ele>66.7</ele>
        <time>2011-10-02T07:50:23Z</time>
      </trkpt>
      <trkpt lat="47.34812" lon="-1.27756">
        <ele>66.8</ele>
        <time>2011-10-02T07:50:24Z</time>
      </trkpt>
      <trkpt lat="47.34811" lon="-1.27773">
        <ele>65.8</ele>
        <time>2011-10-02T07:50:26Z</time>
      </trkpt>
      <trkpt lat="47.34813" lon="-1.27779">
        <ele>66.5</ele>
        <time>2011-10-02T07:50:27Z</time>
      </trkpt>
      <trkpt lat="47.34809" lon="-1.27791">
        <ele>67</ele>
        <time>2011-10-02T07:50:28Z</time>
      </trkpt>
      <trkpt lat="47.3481" lon="-1.27798">
        <ele>66.9</ele>
        <time>2011-10-02T07:50:29Z</time>
      </trkpt>
      <trkpt lat="47.3481" lon="-1.2781">
        <ele>64</ele>
        <time>2011-10-02T07:50:31Z</time>
      </trkpt>
      <trkpt lat="47.34804" lon="-1.27819">
        <ele>63.9</ele>
        <time>2011-10-02T07:50:33Z</time>
      </trkpt>
      <trkpt lat="47.348" lon="-1.27824">
        <ele>64.3</ele>
        <time>2011-10-02T07:50:34Z</time>
      </trkpt>
      <trkpt lat="47.34798" lon="-1.27832">
        <ele>63</ele>
        <time>2011-10-02T07:50:35Z</time>
      </trkpt>
      <trkpt lat="47.34794" lon="-1.2784">
        <ele>62.2</ele>
        <time>2011-10-02T07:50:36Z</time>
      </trkpt>
      <trkpt lat="47.3479" lon="-1.27844">
        <ele>61.9</ele>
        <time>2011-10-02T07:50:37Z</time>
      </trkpt>
      <trkpt lat="47.34787" lon="-1.27851">
        <ele>63.9</ele>
        <time>2011-10-02T07:50:38Z</time>
      </trkpt>
      <trkpt lat="47.34787" lon="-1.27858">
        <ele>64.9</ele>
        <time>2011-10-02T07:50:39Z</time>
      </trkpt>
      <trkpt lat="47.34785" lon="-1.27866">
        <ele>65.4</ele>
        <time>2011-10-02T07:50:40Z</time>
      </trkpt>
      <trkpt lat="47.34781" lon="-1.27874">
        <ele>64.1</ele>
        <time>2011-10-02T07:50:41Z</time>
      </trkpt>
      <trkpt lat="47.34779" lon="-1.2788">
        <ele>64.8</ele>
        <time>2011-10-02T07:50:42Z</time>
      </trkpt>
      <trkpt lat="47.34776" lon="-1.27887">
        <ele>64.9</ele>
        <time>2011-10-02T07:50:43Z</time>
      </trkpt>
      <trkpt lat="47.34772" lon="-1.27893">
        <ele>65.7</ele>
        <time>2011-10-02T07:50:44Z</time>
      </trkpt>
      <trkpt lat="47.34776" lon="-1.27909">
        <ele>64.2</ele>
        <time>2011-10-02T07:50:46Z</time>
      </trkpt>
      <trkpt lat="47.34774" lon="-1.2792">
        <ele>63.5</ele>
        <time>2011-10-02T07:50:47Z</time>
      </trkpt>
      <trkpt lat="47.34773" lon="-1.27934">
        <ele>62.9</ele>
        <time>2011-10-02T07:50:48Z</time>
      </trkpt>
      <trkpt lat="47.34772" lon="-1.27947">
        <ele>63.1</ele>
        <time>2011-10-02T07:50:49Z</time>
      </trkpt>
      <trkpt lat="47.34773" lon="-1.27955">
        <ele>63.4</ele>
        <time>2011-10-02T07:50:50Z</time>
      </trkpt>
      <trkpt lat="47.34769" lon="-1.2797">
        <ele>63</ele>
        <time>2011-10-02T07:50:52Z</time>
      </trkpt>
      <trkpt lat="47.34768" lon="-1.27977">
        <ele>63.2</ele>
        <time>2011-10-02T07:50:53Z</time>
      </trkpt>
      <trkpt lat="47.34764" lon="-1.27985">
        <ele>62.3</ele>
        <time>2011-10-02T07:50:54Z</time>
      </trkpt>
      <trkpt lat="47.3476" lon="-1.27994">
        <ele>61.3</ele>
        <time>2011-10-02T07:50:55Z</time>
      </trkpt>
      <trkpt lat="47.34755" lon="-1.28">
        <ele>61.3</ele>
        <time>2011-10-02T07:50:56Z</time>
      </trkpt>
      <trkpt lat="47.34753" lon="-1.28008">
        <ele>62.1</ele>
        <time>2011-10-02T07:50:57Z</time>
      </trkpt>
      <trkpt lat="47.34754" lon="-1.28016">
        <ele>61.8</ele>
        <time>2011-10-02T07:50:58Z</time>
      </trkpt>
      <trkpt lat="47.34752" lon="-1.28023">
        <ele>61.8</ele>
        <time>2011-10-02T07:50:59Z</time>
      </trkpt>
      <trkpt lat="47.3475" lon="-1.28029">
        <ele>61.4</ele>
        <time>2011-10-02T07:51:00Z</time>
      </trkpt>
      <trkpt lat="47.34748" lon="-1.28038">
        <ele>62.3</ele>
        <time>2011-10-02T07:51:01Z</time>
      </trkpt>
      <trkpt lat="47.34742" lon="-1.28044">
        <ele>62.5</ele>
        <time>2011-10-02T07:51:02Z</time>
      </trkpt>
      <trkpt lat="47.3474" lon="-1.28056">
        <ele>63.3</ele>
        <time>2011-10-02T07:51:04Z</time>
      </trkpt>
      <trkpt lat="47.34739" lon="-1.28063">
        <ele>64.6</ele>
        <time>2011-10-02T07:51:06Z</time>
      </trkpt>
      <trkpt lat="47.34741" lon="-1.28071">
        <ele>63.8</ele>
        <time>2011-10-02T07:51:09Z</time>
      </trkpt>
      <trkpt lat="47.34747" lon="-1.2807">
        <ele>64.2</ele>
        <time>2011-10-02T07:51:11Z</time>
      </trkpt>
      <trkpt lat="47.34749" lon="-1.28076">
        <ele>64.2</ele>
        <time>2011-10-02T07:51:14Z</time>
      </trkpt>
      <trkpt lat="47.34754" lon="-1.28081">
        <ele>64.3</ele>
        <time>2011-10-02T07:51:16Z</time>
      </trkpt>
      <trkpt lat="47.3476" lon="-1.28084">
        <ele>64.9</ele>
        <time>2011-10-02T07:51:19Z</time>
      </trkpt>
      <trkpt lat="47.34764" lon="-1.28087">
        <ele>64.7</ele>
        <time>2011-10-02T07:51:21Z</time>
      </trkpt>
      <trkpt lat="47.3477" lon="-1.2809">
        <ele>65.5</ele>
        <time>2011-10-02T07:51:24Z</time>
      </trkpt>
      <trkpt lat="47.34775" lon="-1.28092">
        <ele>64.7</ele>
        <time>2011-10-02T07:51:26Z</time>
      </trkpt>
      <trkpt lat="47.34781" lon="-1.28092">
        <ele>65.8</ele>
        <time>2011-10-02T07:51:28Z</time>
      </trkpt>
      <trkpt lat="47.34785" lon="-1.28095">
        <ele>65.4</ele>
        <time>2011-10-02T07:51:30Z</time>
      </trkpt>
      <trkpt lat="47.3479" lon="-1.28098">
        <ele>67.7</ele>
        <time>2011-10-02T07:51:33Z</time>
      </trkpt>
      <trkpt lat="47.34794" lon="-1.28105">
        <ele>71.2</ele>
        <time>2011-10-02T07:51:38Z</time>
      </trkpt>
      <trkpt lat="47.348" lon="-1.28107">
        <ele>70.3</ele>
        <time>2011-10-02T07:51:40Z</time>
      </trkpt>
      <trkpt lat="47.34806" lon="-1.28109">
        <ele>71.1</ele>
        <time>2011-10-02T07:51:43Z</time>
      </trkpt>
      <trkpt lat="47.34811" lon="-1.28111">
        <ele>72.2</ele>
        <time>2011-10-02T07:51:45Z</time>
      </trkpt>
      <trkpt lat="47.34817" lon="-1.28111">
        <ele>72.2</ele>
        <time>2011-10-02T07:51:46Z</time>
      </trkpt>
      <trkpt lat="47.34824" lon="-1.28115">
        <ele>76.3</ele>
        <time>2011-10-02T07:51:51Z</time>
      </trkpt>
      <trkpt lat="47.34828" lon="-1.28116">
        <ele>76.8</ele>
        <time>2011-10-02T07:51:52Z</time>
      </trkpt>
      <trkpt lat="47.34832" lon="-1.28123">
        <ele>77.4</ele>
        <time>2011-10-02T07:51:56Z</time>
      </trkpt>
      <trkpt lat="47.3484" lon="-1.28128">
        <ele>80.2</ele>
        <time>2011-10-02T07:51:59Z</time>
      </trkpt>
      <trkpt lat="47.34845" lon="-1.28124">
        <ele>85.4</ele>
        <time>2011-10-02T07:52:07Z</time>
      </trkpt>
      <trkpt lat="47.34846" lon="-1.28114">
        <ele>86.7</ele>
        <time>2011-10-02T07:52:10Z</time>
      </trkpt>
      <trkpt lat="47.34852" lon="-1.28114">
        <ele>86.2</ele>
        <time>2011-10-02T07:52:13Z</time>
      </trkpt>
      <trkpt lat="47.34856" lon="-1.28111">
        <ele>85.2</ele>
        <time>2011-10-02T07:52:14Z</time>
      </trkpt>
      <trkpt lat="47.34862" lon="-1.2811">
        <ele>84.7</ele>
        <time>2011-10-02T07:52:16Z</time>
      </trkpt>
      <trkpt lat="47.34867" lon="-1.28108">
        <ele>84.9</ele>
        <time>2011-10-02T07:52:19Z</time>
      </trkpt>
      <trkpt lat="47.34872" lon="-1.281">
        <ele>84.1</ele>
        <time>2011-10-02T07:52:23Z</time>
      </trkpt>
      <trkpt lat="47.34879" lon="-1.28102">
        <ele>83.4</ele>
        <time>2011-10-02T07:52:26Z</time>
      </trkpt>
      <trkpt lat="47.34884" lon="-1.28104">
        <ele>86</ele>
        <time>2011-10-02T07:52:28Z</time>
      </trkpt>
      <trkpt lat="47.34891" lon="-1.28106">
        <ele>86.7</ele>
        <time>2011-10-02T07:52:30Z</time>
      </trkpt>
      <trkpt lat="47.34896" lon="-1.28102">
        <ele>86.5</ele>
        <time>2011-10-02T07:52:33Z</time>
      </trkpt>
      <trkpt lat="47.34901" lon="-1.28102">
        <ele>85.3</ele>
        <time>2011-10-02T07:52:36Z</time>
      </trkpt>
      <trkpt lat="47.34906" lon="-1.28102">
        <ele>84.9</ele>
        <time>2011-10-02T07:52:38Z</time>
      </trkpt>
      <trkpt lat="47.34911" lon="-1.28104">
        <ele>84.6</ele>
        <time>2011-10-02T07:52:42Z</time>
      </trkpt>
      <trkpt lat="47.34919" lon="-1.28106">
        <ele>83.8</ele>
        <time>2011-10-02T07:52:45Z</time>
      </trkpt>
      <trkpt lat="47.34925" lon="-1.28106">
        <ele>86.9</ele>
        <time>2011-10-02T07:52:51Z</time>
      </trkpt>
      <trkpt lat="47.3493" lon="-1.28107">
        <ele>87.2</ele>
        <time>2011-10-02T07:52:52Z</time>
      </trkpt>
      <trkpt lat="47.34936" lon="-1.28107">
        <ele>90</ele>
        <time>2011-10-02T07:52:54Z</time>
      </trkpt>
      <trkpt lat="47.34942" lon="-1.28112">
        <ele>90.4</ele>
        <time>2011-10-02T07:52:56Z</time>
      </trkpt>
      <trkpt lat="47.34948" lon="-1.28115">
        <ele>90.3</ele>
        <time>2011-10-02T07:52:58Z</time>
      </trkpt>
      <trkpt lat="47.34955" lon="-1.28111">
        <ele>91.3</ele>
        <time>2011-10-02T07:52:59Z</time>
      </trkpt>
      <trkpt lat="47.34964" lon="-1.28116">
        <ele>92.3</ele>
        <time>2011-10-02T07:53:03Z</time>
      </trkpt>
      <trkpt lat="47.3497" lon="-1.28119">
        <ele>89.3</ele>
        <time>2011-10-02T07:53:07Z</time>
      </trkpt>
      <trkpt lat="47.34976" lon="-1.28123">
        <ele>91.8</ele>
        <time>2011-10-02T07:53:12Z</time>
      </trkpt>
      <trkpt lat="47.3498" lon="-1.28127">
        <ele>95.9</ele>
        <time>2011-10-02T07:53:16Z</time>
      </trkpt>
      <trkpt lat="47.34985" lon="-1.28128">
        <ele>97</ele>
        <time>2011-10-02T07:53:19Z</time>
      </trkpt>
      <trkpt lat="47.34989" lon="-1.2813">
        <ele>98</ele>
        <time>2011-10-02T07:53:20Z</time>
      </trkpt>
      <trkpt lat="47.34995" lon="-1.28131">
        <ele>98.5</ele>
        <time>2011-10-02T07:53:23Z</time>
      </trkpt>
      <trkpt lat="47.35003" lon="-1.28134">
        <ele>97.2</ele>
        <time>2011-10-02T07:53:26Z</time>
      </trkpt>
      <trkpt lat="47.35008" lon="-1.28135">
        <ele>97.8</ele>
        <time>2011-10-02T07:53:28Z</time>
      </trkpt>
      <trkpt lat="47.35013" lon="-1.28138">
        <ele>96.6</ele>
        <time>2011-10-02T07:53:30Z</time>
      </trkpt>
      <trkpt lat="47.35018" lon="-1.28141">
        <ele>99.2</ele>
        <time>2011-10-02T07:53:32Z</time>
      </trkpt>
      <trkpt lat="47.35023" lon="-1.28148">
        <ele>102.7</ele>
        <time>2011-10-02T07:53:34Z</time>
      </trkpt>
      <trkpt lat="47.35026" lon="-1.28156">
        <ele>102.8</ele>
        <time>2011-10-02T07:53:37Z</time>
      </trkpt>
      <trkpt lat="47.35023" lon="-1.28164">
        <ele>101.7</ele>
        <time>2011-10-02T07:53:39Z</time>
      </trkpt>
      <trkpt lat="47.35021" lon="-1.28173">
        <ele>103</ele>
        <time>2011-10-02T07:53:43Z</time>
      </trkpt>
      <trkpt lat="47.35019" lon="-1.28182">
        <ele>104.1</ele>
        <time>2011-10-02T07:53:45Z</time>
      </trkpt>
      <trkpt lat="47.35017" lon="-1.28191">
        <ele>104.2</ele>
        <time>2011-10-02T07:53:47Z</time>
      </trkpt>
      <trkpt lat="47.35019" lon="-1.28199">
        <ele>103.6</ele>
        <time>2011-10-02T07:53:49Z</time>
      </trkpt>
      <trkpt lat="47.35023" lon="-1.28203">
        <ele>102.6</ele>
        <time>2011-10-02T07:53:51Z</time>
      </trkpt>
      <trkpt lat="47.35021" lon="-1.28213">
        <ele>104.8</ele>
        <time>2011-10-02T07:53:54Z</time>
      </trkpt>
      <trkpt lat="47.35016" lon="-1.28221">
        <ele>106</ele>
        <time>2011-10-02T07:53:56Z</time>
      </trkpt>
      <trkpt lat="47.35016" lon="-1.28231">
        <ele>106.1</ele>
        <time>2011-10-02T07:53:59Z</time>
      </trkpt>
      <trkpt lat="47.35014" lon="-1.28238">
        <ele>107.8</ele>
        <time>2011-10-02T07:54:02Z</time>
      </trkpt>
      <trkpt lat="47.35016" lon="-1.28244">
        <ele>107</ele>
        <time>2011-10-02T07:54:05Z</time>
      </trkpt>
      <trkpt lat="47.35016" lon="-1.28251">
        <ele>104.8</ele>
        <time>2011-10-02T07:54:07Z</time>
      </trkpt>
      <trkpt lat="47.35011" lon="-1.2826">
        <ele>106.6</ele>
        <time>2011-10-02T07:54:09Z</time>
      </trkpt>
      <trkpt lat="47.35007" lon="-1.28265">
        <ele>107.7</ele>
        <time>2011-10-02T07:54:10Z</time>
      </trkpt>
      <trkpt lat="47.35003" lon="-1.2827">
        <ele>107.8</ele>
        <time>2011-10-02T07:54:11Z</time>
      </trkpt>
      <trkpt lat="47.35002" lon="-1.28277">
        <ele>108.7</ele>
        <time>2011-10-02T07:54:13Z</time>
      </trkpt>
      <trkpt lat="47.35006" lon="-1.28283">
        <ele>107.7</ele>
        <time>2011-10-02T07:54:15Z</time>
      </trkpt>
      <trkpt lat="47.35008" lon="-1.28291">
        <ele>108.6</ele>
        <time>2011-10-02T07:54:18Z</time>
      </trkpt>
      <trkpt lat="47.35006" lon="-1.283">
        <ele>110.6</ele>
        <time>2011-10-02T07:54:21Z</time>
      </trkpt>
      <trkpt lat="47.35007" lon="-1.28308">
        <ele>109.2</ele>
        <time>2011-10-02T07:54:25Z</time>
      </trkpt>
      <trkpt lat="47.3501" lon="-1.28314">
        <ele>109.2</ele>
        <time>2011-10-02T07:54:27Z</time>
      </trkpt>
      <trkpt lat="47.35009" lon="-1.28325">
        <ele>110.2</ele>
        <time>2011-10-02T07:54:31Z</time>
      </trkpt>
      <trkpt lat="47.35012" lon="-1.28332">
        <ele>109.2</ele>
        <time>2011-10-02T07:54:33Z</time>
      </trkpt>
      <trkpt lat="47.35013" lon="-1.2834">
        <ele>110.5</ele>
        <time>2011-10-02T07:54:36Z</time>
      </trkpt>
      <trkpt lat="47.35011" lon="-1.2835">
        <ele>113</ele>
        <time>2011-10-02T07:54:39Z</time>
      </trkpt>
      <trkpt lat="47.35012" lon="-1.28358">
        <ele>112.1</ele>
        <time>2011-10-02T07:54:42Z</time>
      </trkpt>
      <trkpt lat="47.35015" lon="-1.28367">
        <ele>109.2</ele>
        <time>2011-10-02T07:54:46Z</time>
      </trkpt>
      <trkpt lat="47.35014" lon="-1.28375">
        <ele>108.2</ele>
        <time>2011-10-02T07:54:50Z</time>
      </trkpt>
      <trkpt lat="47.35017" lon="-1.28383">
        <ele>108.9</ele>
        <time>2011-10-02T07:54:53Z</time>
      </trkpt>
      <trkpt lat="47.35016" lon="-1.28392">
        <ele>109.8</ele>
        <time>2011-10-02T07:54:56Z</time>
      </trkpt>
      <trkpt lat="47.35016" lon="-1.28401">
        <ele>108.9</ele>
        <time>2011-10-02T07:54:59Z</time>
      </trkpt>
      <trkpt lat="47.35014" lon="-1.28413">
        <ele>109.3</ele>
        <time>2011-10-02T07:55:02Z</time>
      </trkpt>
      <trkpt lat="47.35015" lon="-1.28419">
        <ele>109.5</ele>
        <time>2011-10-02T07:55:04Z</time>
      </trkpt>
      <trkpt lat="47.35014" lon="-1.2843">
        <ele>110.6</ele>
        <time>2011-10-02T07:55:06Z</time>
      </trkpt>
      <trkpt lat="47.35015" lon="-1.28439">
        <ele>110.4</ele>
        <time>2011-10-02T07:55:08Z</time>
      </trkpt>
      <trkpt lat="47.35015" lon="-1.28452">
        <ele>111.5</ele>
        <time>2011-10-02T07:55:10Z</time>
      </trkpt>
      <trkpt lat="47.35014" lon="-1.28463">
        <ele>111.3</ele>
        <time>2011-10-02T07:55:12Z</time>
      </trkpt>
      <trkpt lat="47.35016" lon="-1.28474">
        <ele>110.6</ele>
        <time>2011-10-02T07:55:14Z</time>
      </trkpt>
      <trkpt lat="47.35013" lon="-1.28487">
        <ele>112.5</ele>
        <time>2011-10-02T07:55:16Z</time>
      </trkpt>
      <trkpt lat="47.35013" lon="-1.28494">
        <ele>113.3</ele>
        <time>2011-10-02T07:55:17Z</time>
      </trkpt>
      <trkpt lat="47.35012" lon="-1.28503">
        <ele>112.8</ele>
        <time>2011-10-02T07:55:18Z</time>
      </trkpt>
      <trkpt lat="47.35012" lon="-1.28512">
        <ele>112.4</ele>
        <time>2011-10-02T07:55:19Z</time>
      </trkpt>
      <trkpt lat="47.3501" lon="-1.2852">
        <ele>113.1</ele>
        <time>2011-10-02T07:55:20Z</time>
      </trkpt>
      <trkpt lat="47.35012" lon="-1.28529">
        <ele>113.9</ele>
        <time>2011-10-02T07:55:21Z</time>
      </trkpt>
      <trkpt lat="47.3501" lon="-1.28539">
        <ele>114.1</ele>
        <time>2011-10-02T07:55:22Z</time>
      </trkpt>
      <trkpt lat="47.35013" lon="-1.28546">
        <ele>111.6</ele>
        <time>2011-10-02T07:55:24Z</time>
      </trkpt>
      <trkpt lat="47.35018" lon="-1.28548">
        <ele>110.5</ele>
        <time>2011-10-02T07:55:25Z</time>
      </trkpt>
      <trkpt lat="47.35023" lon="-1.2855">
        <ele>111.5</ele>
        <time>2011-10-02T07:55:26Z</time>
      </trkpt>
      <trkpt lat="47.3503" lon="-1.28553">
        <ele>113</ele>
        <time>2011-10-02T07:55:28Z</time>
      </trkpt>
      <trkpt lat="47.35035" lon="-1.28547">
        <ele>112.9</ele>
        <time>2011-10-02T07:55:29Z</time>
      </trkpt>
      <trkpt lat="47.35042" lon="-1.28543">
        <ele>112.2</ele>
        <time>2011-10-02T07:55:31Z</time>
      </trkpt>
      <trkpt lat="47.35054" lon="-1.28539">
        <ele>110.8</ele>
        <time>2011-10-02T07:55:34Z</time>
      </trkpt>
      <trkpt lat="47.35058" lon="-1.28537">
        <ele>109.4</ele>
        <time>2011-10-02T07:55:35Z</time>
      </trkpt>
      <trkpt lat="47.35064" lon="-1.28537">
        <ele>109.5</ele>
        <time>2011-10-02T07:55:37Z</time>
      </trkpt>
      <trkpt lat="47.35069" lon="-1.28534">
        <ele>110.5</ele>
        <time>2011-10-02T07:55:38Z</time>
      </trkpt>
      <trkpt lat="47.35076" lon="-1.28532">
        <ele>110.3</ele>
        <time>2011-10-02T07:55:40Z</time>
      </trkpt>
      <trkpt lat="47.35081" lon="-1.2853">
        <ele>110.4</ele>
        <time>2011-10-02T07:55:42Z</time>
      </trkpt>
      <trkpt lat="47.3509" lon="-1.2853">
        <ele>111</ele>
        <time>2011-10-02T07:55:44Z</time>
      </trkpt>
      <trkpt lat="47.35098" lon="-1.28526">
        <ele>110.5</ele>
        <time>2011-10-02T07:55:46Z</time>
      </trkpt>
      <trkpt lat="47.35103" lon="-1.28525">
        <ele>108.5</ele>
        <time>2011-10-02T07:55:49Z</time>
      </trkpt>
      <trkpt lat="47.35108" lon="-1.28524">
        <ele>107.2</ele>
        <time>2011-10-02T07:55:50Z</time>
      </trkpt>
      <trkpt lat="47.35115" lon="-1.28522">
        <ele>107</ele>
        <time>2011-10-02T07:55:52Z</time>
      </trkpt>
      <trkpt lat="47.35121" lon="-1.28517">
        <ele>106.4</ele>
        <time>2011-10-02T07:55:53Z</time>
      </trkpt>
      <trkpt lat="47.35127" lon="-1.28517">
        <ele>106.6</ele>
        <time>2011-10-02T07:55:55Z</time>
      </trkpt>
      <trkpt lat="47.35132" lon="-1.28513">
        <ele>105.6</ele>
        <time>2011-10-02T07:55:56Z</time>
      </trkpt>
      <trkpt lat="47.35138" lon="-1.28512">
        <ele>104.6</ele>
        <time>2011-10-02T07:55:58Z</time>
      </trkpt>
      <trkpt lat="47.35147" lon="-1.28517">
        <ele>104.5</ele>
        <time>2011-10-02T07:56:00Z</time>
      </trkpt>
      <trkpt lat="47.35155" lon="-1.28516">
        <ele>104.8</ele>
        <time>2011-10-02T07:56:03Z</time>
      </trkpt>
      <trkpt lat="47.35162" lon="-1.28521">
        <ele>105.3</ele>
        <time>2011-10-02T07:56:05Z</time>
      </trkpt>
      <trkpt lat="47.35165" lon="-1.28526">
        <ele>105.5</ele>
        <time>2011-10-02T07:56:06Z</time>
      </trkpt>
      <trkpt lat="47.35169" lon="-1.28532">
        <ele>105.8</ele>
        <time>2011-10-02T07:56:08Z</time>
      </trkpt>
      <trkpt lat="47.3517" lon="-1.28549">
        <ele>106.7</ele>
        <time>2011-10-02T07:56:10Z</time>
      </trkpt>
      <trkpt lat="47.35167" lon="-1.28557">
        <ele>105.8</ele>
        <time>2011-10-02T07:56:11Z</time>
      </trkpt>
      <trkpt lat="47.35164" lon="-1.28568">
        <ele>106</ele>
        <time>2011-10-02T07:56:12Z</time>
      </trkpt>
      <trkpt lat="47.35165" lon="-1.28577">
        <ele>105</ele>
        <time>2011-10-02T07:56:13Z</time>
      </trkpt>
      <trkpt lat="47.35165" lon="-1.28586">
        <ele>106.3</ele>
        <time>2011-10-02T07:56:14Z</time>
      </trkpt>
      <trkpt lat="47.3517" lon="-1.28591">
        <ele>105.4</ele>
        <time>2011-10-02T07:56:18Z</time>
      </trkpt>
      <trkpt lat="47.35177" lon="-1.28587">
        <ele>105.8</ele>
        <time>2011-10-02T07:56:20Z</time>
      </trkpt>
      <trkpt lat="47.35183" lon="-1.28586">
        <ele>105.6</ele>
        <time>2011-10-02T07:56:22Z</time>
      </trkpt>
      <trkpt lat="47.35192" lon="-1.28581">
        <ele>105.2</ele>
        <time>2011-10-02T07:56:25Z</time>
      </trkpt>
      <trkpt lat="47.35199" lon="-1.28569">
        <ele>107.4</ele>
        <time>2011-10-02T07:56:28Z</time>
      </trkpt>
      <trkpt lat="47.35206" lon="-1.28561">
        <ele>107.5</ele>
        <time>2011-10-02T07:56:29Z</time>
      </trkpt>
      <trkpt lat="47.3521" lon="-1.28556">
        <ele>106.5</ele>
        <time>2011-10-02T07:56:30Z</time>
      </trkpt>
      <trkpt lat="47.35213" lon="-1.2855">
        <ele>105.7</ele>
        <time>2011-10-02T07:56:31Z</time>
      </trkpt>
      <trkpt lat="47.35218" lon="-1.28543">
        <ele>104.7</ele>
        <time>2011-10-02T07:56:33Z</time>
      </trkpt>
      <trkpt lat="47.35223" lon="-1.28538">
        <ele>104.6</ele>
        <time>2011-10-02T07:56:34Z</time>
      </trkpt>
      <trkpt lat="47.35227" lon="-1.28534">
        <ele>104</ele>
        <time>2011-10-02T07:56:35Z</time>
      </trkpt>
      <trkpt lat="47.35233" lon="-1.28528">
        <ele>103.3</ele>
        <time>2011-10-02T07:56:37Z</time>
      </trkpt>
      <trkpt lat="47.35238" lon="-1.28526">
        <ele>102.7</ele>
        <time>2011-10-02T07:56:38Z</time>
      </trkpt>
      <trkpt lat="47.35246" lon="-1.28521">
        <ele>103.4</ele>
        <time>2011-10-02T07:56:39Z</time>
      </trkpt>
      <trkpt lat="47.35252" lon="-1.28517">
        <ele>102.9</ele>
        <time>2011-10-02T07:56:41Z</time>
      </trkpt>
      <trkpt lat="47.35258" lon="-1.28514">
        <ele>102.1</ele>
        <time>2011-10-02T07:56:43Z</time>
      </trkpt>
      <trkpt lat="47.35265" lon="-1.28508">
        <ele>102.3</ele>
        <time>2011-10-02T07:56:45Z</time>
      </trkpt>
      <trkpt lat="47.35277" lon="-1.28502">
        <ele>100.6</ele>
        <time>2011-10-02T07:56:48Z</time>
      </trkpt>
      <trkpt lat="47.35286" lon="-1.285">
        <ele>100.2</ele>
        <time>2011-10-02T07:56:50Z</time>
      </trkpt>
      <trkpt lat="47.3529" lon="-1.28499">
        <ele>100.5</ele>
        <time>2011-10-02T07:56:51Z</time>
      </trkpt>
      <trkpt lat="47.35296" lon="-1.28502">
        <ele>101.9</ele>
        <time>2011-10-02T07:56:52Z</time>
      </trkpt>
      <trkpt lat="47.35298" lon="-1.28513">
        <ele>103.3</ele>
        <time>2011-10-02T07:56:54Z</time>
      </trkpt>
      <trkpt lat="47.35303" lon="-1.28521">
        <ele>104.5</ele>
        <time>2011-10-02T07:56:55Z</time>
      </trkpt>
      <trkpt lat="47.35308" lon="-1.28533">
        <ele>105</ele>
        <time>2011-10-02T07:56:57Z</time>
      </trkpt>
      <trkpt lat="47.3531" lon="-1.28542">
        <ele>104</ele>
        <time>2011-10-02T07:56:58Z</time>
      </trkpt>
      <trkpt lat="47.3531" lon="-1.2855">
        <ele>101.4</ele>
        <time>2011-10-02T07:56:59Z</time>
      </trkpt>
      <trkpt lat="47.35311" lon="-1.28558">
        <ele>101.2</ele>
        <time>2011-10-02T07:57:00Z</time>
      </trkpt>
      <trkpt lat="47.3531" lon="-1.28568">
        <ele>100.8</ele>
        <time>2011-10-02T07:57:01Z</time>
      </trkpt>
      <trkpt lat="47.35313" lon="-1.28578">
        <ele>97.8</ele>
        <time>2011-10-02T07:57:02Z</time>
      </trkpt>
      <trkpt lat="47.35314" lon="-1.28584">
        <ele>96.8</ele>
        <time>2011-10-02T07:57:03Z</time>
      </trkpt>
      <trkpt lat="47.35316" lon="-1.28595">
        <ele>98.2</ele>
        <time>2011-10-02T07:57:04Z</time>
      </trkpt>
      <trkpt lat="47.35315" lon="-1.28604">
        <ele>97.6</ele>
        <time>2011-10-02T07:57:05Z</time>
      </trkpt>
      <trkpt lat="47.35316" lon="-1.28615">
        <ele>96.7</ele>
        <time>2011-10-02T07:57:06Z</time>
      </trkpt>
      <trkpt lat="47.3532" lon="-1.28626">
        <ele>96.7</ele>
        <time>2011-10-02T07:57:07Z</time>
      </trkpt>
      <trkpt lat="47.35326" lon="-1.2864">
        <ele>95.6</ele>
        <time>2011-10-02T07:57:08Z</time>
      </trkpt>
      <trkpt lat="47.35328" lon="-1.28649">
        <ele>93.8</ele>
        <time>2011-10-02T07:57:09Z</time>
      </trkpt>
      <trkpt lat="47.35329" lon="-1.2866">
        <ele>94.3</ele>
        <time>2011-10-02T07:57:10Z</time>
      </trkpt>
      <trkpt lat="47.35331" lon="-1.28672">
        <ele>93.5</ele>
        <time>2011-10-02T07:57:11Z</time>
      </trkpt>
      <trkpt lat="47.35335" lon="-1.28684">
        <ele>93.2</ele>
        <time>2011-10-02T07:57:12Z</time>
      </trkpt>
      <trkpt lat="47.35334" lon="-1.28696">
        <ele>93.8</ele>
        <time>2011-10-02T07:57:13Z</time>
      </trkpt>
      <trkpt lat="47.35334" lon="-1.28707">
        <ele>93.3</ele>
        <time>2011-10-02T07:57:14Z</time>
      </trkpt>
      <trkpt lat="47.35338" lon="-1.28723">
        <ele>93.4</ele>
        <time>2011-10-02T07:57:15Z</time>
      </trkpt>
      <trkpt lat="47.35341" lon="-1.28733">
        <ele>93.5</ele>
        <time>2011-10-02T07:57:16Z</time>
      </trkpt>
      <trkpt lat="47.35343" lon="-1.28746">
        <ele>93.7</ele>
        <time>2011-10-02T07:57:17Z</time>
      </trkpt>
      <trkpt lat="47.35345" lon="-1.28758">
        <ele>92.6</ele>
        <time>2011-10-02T07:57:18Z</time>
      </trkpt>
      <trkpt lat="47.35346" lon="-1.28769">
        <ele>90.6</ele>
        <time>2011-10-02T07:57:19Z</time>
      </trkpt>
      <trkpt lat="47.35346" lon="-1.2878">
        <ele>89.4</ele>
        <time>2011-10-02T07:57:20Z</time>
      </trkpt>
      <trkpt lat="47.35349" lon="-1.28794">
        <ele>89.1</ele>
        <time>2011-10-02T07:57:21Z</time>
      </trkpt>
      <trkpt lat="47.35352" lon="-1.28809">
        <ele>87.3</ele>
        <time>2011-10-02T07:57:22Z</time>
      </trkpt>
      <trkpt lat="47.35354" lon="-1.28824">
        <ele>87.2</ele>
        <time>2011-10-02T07:57:23Z</time>
      </trkpt>
      <trkpt lat="47.35359" lon="-1.28838">
        <ele>86.4</ele>
        <time>2011-10-02T07:57:24Z</time>
      </trkpt>
      <trkpt lat="47.35362" lon="-1.28852">
        <ele>86.2</ele>
        <time>2011-10-02T07:57:25Z</time>
      </trkpt>
      <trkpt lat="47.35368" lon="-1.28862">
        <ele>85.8</ele>
        <time>2011-10-02T07:57:26Z</time>
      </trkpt>
      <trkpt lat="47.35372" lon="-1.28869">
        <ele>86.2</ele>
        <time>2011-10-02T07:57:27Z</time>
      </trkpt>
      <trkpt lat="47.35377" lon="-1.28876">
        <ele>85.8</ele>
        <time>2011-10-02T07:57:28Z</time>
      </trkpt>
      <trkpt lat="47.35378" lon="-1.28883">
        <ele>85.8</ele>
        <time>2011-10-02T07:57:29Z</time>
      </trkpt>
      <trkpt lat="47.3538" lon="-1.28892">
        <ele>86.3</ele>
        <time>2011-10-02T07:57:30Z</time>
      </trkpt>
      <trkpt lat="47.35383" lon="-1.289">
        <ele>86.7</ele>
        <time>2011-10-02T07:57:31Z</time>
      </trkpt>
      <trkpt lat="47.35385" lon="-1.28909">
        <ele>87.5</ele>
        <time>2011-10-02T07:57:32Z</time>
      </trkpt>
      <trkpt lat="47.3539" lon="-1.28919">
        <ele>87.7</ele>
        <time>2011-10-02T07:57:33Z</time>
      </trkpt>
      <trkpt lat="47.35395" lon="-1.28928">
        <ele>89.2</ele>
        <time>2011-10-02T07:57:34Z</time>
      </trkpt>
      <trkpt lat="47.35398" lon="-1.28936">
        <ele>88.6</ele>
        <time>2011-10-02T07:57:35Z</time>
      </trkpt>
      <trkpt lat="47.354" lon="-1.28947">
        <ele>88.3</ele>
        <time>2011-10-02T07:57:36Z</time>
      </trkpt>
      <trkpt lat="47.354" lon="-1.28959">
        <ele>89.4</ele>
        <time>2011-10-02T07:57:37Z</time>
      </trkpt>
      <trkpt lat="47.35405" lon="-1.28968">
        <ele>89.4</ele>
        <time>2011-10-02T07:57:39Z</time>
      </trkpt>
      <trkpt lat="47.35405" lon="-1.2898">
        <ele>88.4</ele>
        <time>2011-10-02T07:57:41Z</time>
      </trkpt>
      <trkpt lat="47.35407" lon="-1.28987">
        <ele>88.6</ele>
        <time>2011-10-02T07:57:42Z</time>
      </trkpt>
      <trkpt lat="47.35415" lon="-1.28996">
        <ele>89.2</ele>
        <time>2011-10-02T07:57:44Z</time>
      </trkpt>
      <trkpt lat="47.35417" lon="-1.29007">
        <ele>87.8</ele>
        <time>2011-10-02T07:57:46Z</time>
      </trkpt>
      <trkpt lat="47.35424" lon="-1.29016">
        <ele>87.6</ele>
        <time>2011-10-02T07:57:48Z</time>
      </trkpt>
      <trkpt lat="47.35424" lon="-1.29023">
        <ele>88.7</ele>
        <time>2011-10-02T07:57:50Z</time>
      </trkpt>
      <trkpt lat="47.35429" lon="-1.29032">
        <ele>87.7</ele>
        <time>2011-10-02T07:57:52Z</time>
      </trkpt>
      <trkpt lat="47.35432" lon="-1.29038">
        <ele>88.5</ele>
        <time>2011-10-02T07:57:53Z</time>
      </trkpt>
      <trkpt lat="47.35434" lon="-1.29044">
        <ele>89.2</ele>
        <time>2011-10-02T07:57:55Z</time>
      </trkpt>
      <trkpt lat="47.35436" lon="-1.29052">
        <ele>89</ele>
        <time>2011-10-02T07:57:57Z</time>
      </trkpt>
      <trkpt lat="47.35441" lon="-1.29063">
        <ele>89.1</ele>
        <time>2011-10-02T07:57:59Z</time>
      </trkpt>
      <trkpt lat="47.35445" lon="-1.29072">
        <ele>88.4</ele>
        <time>2011-10-02T07:58:01Z</time>
      </trkpt>
      <trkpt lat="47.35449" lon="-1.2908">
        <ele>87.1</ele>
        <time>2011-10-02T07:58:03Z</time>
      </trkpt>
      <trkpt lat="47.35454" lon="-1.29092">
        <ele>85.4</ele>
        <time>2011-10-02T07:58:05Z</time>
      </trkpt>
      <trkpt lat="47.35456" lon="-1.291">
        <ele>85.4</ele>
        <time>2011-10-02T07:58:06Z</time>
      </trkpt>
      <trkpt lat="47.35461" lon="-1.2911">
        <ele>85.5</ele>
        <time>2011-10-02T07:58:07Z</time>
      </trkpt>
      <trkpt lat="47.3546" lon="-1.29117">
        <ele>86.1</ele>
        <time>2011-10-02T07:58:08Z</time>
      </trkpt>
      <trkpt lat="47.35461" lon="-1.29125">
        <ele>86.1</ele>
        <time>2011-10-02T07:58:09Z</time>
      </trkpt>
      <trkpt lat="47.35462" lon="-1.29133">
        <ele>85.7</ele>
        <time>2011-10-02T07:58:10Z</time>
      </trkpt>
      <trkpt lat="47.35465" lon="-1.2914">
        <ele>86.3</ele>
        <time>2011-10-02T07:58:11Z</time>
      </trkpt>
      <trkpt lat="47.3547" lon="-1.2915">
        <ele>84.7</ele>
        <time>2011-10-02T07:58:13Z</time>
      </trkpt>
      <trkpt lat="47.35472" lon="-1.29157">
        <ele>84.1</ele>
        <time>2011-10-02T07:58:14Z</time>
      </trkpt>
      <trkpt lat="47.35476" lon="-1.29167">
        <ele>83.8</ele>
        <time>2011-10-02T07:58:16Z</time>
      </trkpt>
      <trkpt lat="47.35476" lon="-1.29178">
        <ele>84.6</ele>
        <time>2011-10-02T07:58:19Z</time>
      </trkpt>
      <trkpt lat="47.35478" lon="-1.29188">
        <ele>85.9</ele>
        <time>2011-10-02T07:58:21Z</time>
      </trkpt>
      <trkpt lat="47.35478" lon="-1.292">
        <ele>85.2</ele>
        <time>2011-10-02T07:58:23Z</time>
      </trkpt>
      <trkpt lat="47.35479" lon="-1.29214">
        <ele>83.2</ele>
        <time>2011-10-02T07:58:24Z</time>
      </trkpt>
      <trkpt lat="47.35481" lon="-1.29224">
        <ele>82.9</ele>
        <time>2011-10-02T07:58:25Z</time>
      </trkpt>
      <trkpt lat="47.35484" lon="-1.29231">
        <ele>82.7</ele>
        <time>2011-10-02T07:58:26Z</time>
      </trkpt>
      <trkpt lat="47.35484" lon="-1.2924">
        <ele>82.4</ele>
        <time>2011-10-02T07:58:27Z</time>
      </trkpt>
      <trkpt lat="47.35488" lon="-1.29252">
        <ele>82.2</ele>
        <time>2011-10-02T07:58:28Z</time>
      </trkpt>
      <trkpt lat="47.35485" lon="-1.29261">
        <ele>82.6</ele>
        <time>2011-10-02T07:58:29Z</time>
      </trkpt>
      <trkpt lat="47.3549" lon="-1.29272">
        <ele>82.2</ele>
        <time>2011-10-02T07:58:30Z</time>
      </trkpt>
      <trkpt lat="47.35492" lon="-1.29282">
        <ele>81.9</ele>
        <time>2011-10-02T07:58:31Z</time>
      </trkpt>
      <trkpt lat="47.35493" lon="-1.29293">
        <ele>81.2</ele>
        <time>2011-10-02T07:58:32Z</time>
      </trkpt>
      <trkpt lat="47.35494" lon="-1.29306">
        <ele>81</ele>
        <time>2011-10-02T07:58:33Z</time>
      </trkpt>
      <trkpt lat="47.35497" lon="-1.29314">
        <ele>81</ele>
        <time>2011-10-02T07:58:34Z</time>
      </trkpt>
      <trkpt lat="47.35501" lon="-1.29325">
        <ele>80.4</ele>
        <time>2011-10-02T07:58:35Z</time>
      </trkpt>
      <trkpt lat="47.35504" lon="-1.29333">
        <ele>80.7</ele>
        <time>2011-10-02T07:58:36Z</time>
      </trkpt>
      <trkpt lat="47.35508" lon="-1.29343">
        <ele>80.6</ele>
        <time>2011-10-02T07:58:37Z</time>
      </trkpt>
      <trkpt lat="47.35511" lon="-1.29352">
        <ele>80.4</ele>
        <time>2011-10-02T07:58:38Z</time>
      </trkpt>
      <trkpt lat="47.35512" lon="-1.29362">
        <ele>79.4</ele>
        <time>2011-10-02T07:58:39Z</time>
      </trkpt>
      <trkpt lat="47.35514" lon="-1.2937">
        <ele>78.8</ele>
        <time>2011-10-02T07:58:40Z</time>
      </trkpt>
      <trkpt lat="47.35511" lon="-1.29378">
        <ele>79</ele>
        <time>2011-10-02T07:58:41Z</time>
      </trkpt>
      <trkpt lat="47.3551" lon="-1.29389">
        <ele>78.4</ele>
        <time>2011-10-02T07:58:42Z</time>
      </trkpt>
      <trkpt lat="47.35505" lon="-1.29397">
        <ele>79.3</ele>
        <time>2011-10-02T07:58:43Z</time>
      </trkpt>
      <trkpt lat="47.35498" lon="-1.29401">
        <ele>80.9</ele>
        <time>2011-10-02T07:58:44Z</time>
      </trkpt>
      <trkpt lat="47.3549" lon="-1.29409">
        <ele>80.7</ele>
        <time>2011-10-02T07:58:45Z</time>
      </trkpt>
      <trkpt lat="47.35483" lon="-1.29415">
        <ele>81.1</ele>
        <time>2011-10-02T07:58:46Z</time>
      </trkpt>
      <trkpt lat="47.35477" lon="-1.29418">
        <ele>80.1</ele>
        <time>2011-10-02T07:58:47Z</time>
      </trkpt>
      <trkpt lat="47.35472" lon="-1.29423">
        <ele>80.4</ele>
        <time>2011-10-02T07:58:48Z</time>
      </trkpt>
      <trkpt lat="47.35465" lon="-1.29431">
        <ele>79.5</ele>
        <time>2011-10-02T07:58:49Z</time>
      </trkpt>
      <trkpt lat="47.35459" lon="-1.29438">
        <ele>78.5</ele>
        <time>2011-10-02T07:58:50Z</time>
      </trkpt>
      <trkpt lat="47.35451" lon="-1.29447">
        <ele>77.2</ele>
        <time>2011-10-02T07:58:52Z</time>
      </trkpt>
      <trkpt lat="47.35445" lon="-1.29452">
        <ele>77.7</ele>
        <time>2011-10-02T07:58:54Z</time>
      </trkpt>
      <trkpt lat="47.35444" lon="-1.29459">
        <ele>77</ele>
        <time>2011-10-02T07:58:57Z</time>
      </trkpt>
      <trkpt lat="47.35445" lon="-1.29467">
        <ele>76.3</ele>
        <time>2011-10-02T07:59:01Z</time>
      </trkpt>
      <trkpt lat="47.35439" lon="-1.29463">
        <ele>76.3</ele>
        <time>2011-10-02T07:59:08Z</time>
      </trkpt>
      <trkpt lat="47.35439" lon="-1.29454">
        <ele>76.5</ele>
        <time>2011-10-02T07:59:10Z</time>
      </trkpt>
      <trkpt lat="47.35441" lon="-1.29447">
        <ele>75.8</ele>
        <time>2011-10-02T07:59:12Z</time>
      </trkpt>
      <trkpt lat="47.35438" lon="-1.29438">
        <ele>76.6</ele>
        <time>2011-10-02T07:59:14Z</time>
      </trkpt>
      <trkpt lat="47.35442" lon="-1.29432">
        <ele>75</ele>
        <time>2011-10-02T07:59:16Z</time>
      </trkpt>
      <trkpt lat="47.35443" lon="-1.29424">
        <ele>74</ele>
        <time>2011-10-02T07:59:18Z</time>
      </trkpt>
      <trkpt lat="47.35444" lon="-1.2941">
        <ele>74.4</ele>
        <time>2011-10-02T07:59:20Z</time>
      </trkpt>
      <trkpt lat="47.35444" lon="-1.29404">
        <ele>74.3</ele>
        <time>2011-10-02T07:59:22Z</time>
      </trkpt>
      <trkpt lat="47.3544" lon="-1.29399">
        <ele>75.8</ele>
        <time>2011-10-02T07:59:24Z</time>
      </trkpt>
      <trkpt lat="47.3544" lon="-1.2939">
        <ele>75.6</ele>
        <time>2011-10-02T07:59:27Z</time>
      </trkpt>
      <trkpt lat="47.35444" lon="-1.29386">
        <ele>75.3</ele>
        <time>2011-10-02T07:59:29Z</time>
      </trkpt>
      <trkpt lat="47.35449" lon="-1.29371">
        <ele>74.4</ele>
        <time>2011-10-02T07:59:31Z</time>
      </trkpt>
      <trkpt lat="47.35449" lon="-1.29362">
        <ele>74.2</ele>
        <time>2011-10-02T07:59:33Z</time>
      </trkpt>
      <trkpt lat="47.35443" lon="-1.29356">
        <ele>73.1</ele>
        <time>2011-10-02T07:59:36Z</time>
      </trkpt>
      <trkpt lat="47.35439" lon="-1.29351">
        <ele>75.3</ele>
        <time>2011-10-02T07:59:37Z</time>
      </trkpt>
      <trkpt lat="47.35437" lon="-1.29344">
        <ele>75.8</ele>
        <time>2011-10-02T07:59:39Z</time>
      </trkpt>
      <trkpt lat="47.3543" lon="-1.29338">
        <ele>78.8</ele>
        <time>2011-10-02T07:59:44Z</time>
      </trkpt>
      <trkpt lat="47.35427" lon="-1.29331">
        <ele>81</ele>
        <time>2011-10-02T07:59:50Z</time>
      </trkpt>
      <trkpt lat="47.35421" lon="-1.29325">
        <ele>78.1</ele>
        <time>2011-10-02T07:59:54Z</time>
      </trkpt>
      <trkpt lat="47.35419" lon="-1.29316">
        <ele>81.4</ele>
        <time>2011-10-02T07:59:57Z</time>
      </trkpt>
      <trkpt lat="47.35414" lon="-1.29311">
        <ele>82.2</ele>
        <time>2011-10-02T07:59:58Z</time>
      </trkpt>
      <trkpt lat="47.3541" lon="-1.29301">
        <ele>81.4</ele>
        <time>2011-10-02T08:00:00Z</time>
      </trkpt>
      <trkpt lat="47.35408" lon="-1.29294">
        <ele>82.2</ele>
        <time>2011-10-02T08:00:02Z</time>
      </trkpt>
      <trkpt lat="47.35399" lon="-1.29286">
        <ele>81.7</ele>
        <time>2011-10-02T08:00:04Z</time>
      </trkpt>
      <trkpt lat="47.35395" lon="-1.2928">
        <ele>82.5</ele>
        <time>2011-10-02T08:00:05Z</time>
      </trkpt>
      <trkpt lat="47.35397" lon="-1.29273">
        <ele>81.8</ele>
        <time>2011-10-02T08:00:07Z</time>
      </trkpt>
      <trkpt lat="47.35397" lon="-1.29262">
        <ele>82.3</ele>
        <time>2011-10-02T08:00:09Z</time>
      </trkpt>
      <trkpt lat="47.35397" lon="-1.2925">
        <ele>81.3</ele>
        <time>2011-10-02T08:00:11Z</time>
      </trkpt>
      <trkpt lat="47.35399" lon="-1.29242">
        <ele>80.3</ele>
        <time>2011-10-02T08:00:12Z</time>
      </trkpt>
      <trkpt lat="47.35402" lon="-1.29235">
        <ele>81.3</ele>
        <time>2011-10-02T08:00:13Z</time>
      </trkpt>
      <trkpt lat="47.354" lon="-1.29226">
        <ele>80</ele>
        <time>2011-10-02T08:00:15Z</time>
      </trkpt>
      <trkpt lat="47.35399" lon="-1.29214">
        <ele>80.8</ele>
        <time>2011-10-02T08:00:17Z</time>
      </trkpt>
      <trkpt lat="47.35396" lon="-1.29208">
        <ele>80.2</ele>
        <time>2011-10-02T08:00:18Z</time>
      </trkpt>
      <trkpt lat="47.35394" lon="-1.29198">
        <ele>77.3</ele>
        <time>2011-10-02T08:00:20Z</time>
      </trkpt>
      <trkpt lat="47.35397" lon="-1.29192">
        <ele>77</ele>
        <time>2011-10-02T08:00:21Z</time>
      </trkpt>
      <trkpt lat="47.35397" lon="-1.29179">
        <ele>76.2</ele>
        <time>2011-10-02T08:00:23Z</time>
      </trkpt>
      <trkpt lat="47.35391" lon="-1.29169">
        <ele>74.8</ele>
        <time>2011-10-02T08:00:25Z</time>
      </trkpt>
      <trkpt lat="47.35384" lon="-1.29165">
        <ele>76.9</ele>
        <time>2011-10-02T08:00:27Z</time>
      </trkpt>
      <trkpt lat="47.35382" lon="-1.29158">
        <ele>76.1</ele>
        <time>2011-10-02T08:00:28Z</time>
      </trkpt>
      <trkpt lat="47.3538" lon="-1.29152">
        <ele>75.4</ele>
        <time>2011-10-02T08:00:29Z</time>
      </trkpt>
      <trkpt lat="47.35376" lon="-1.29145">
        <ele>76.4</ele>
        <time>2011-10-02T08:00:31Z</time>
      </trkpt>
      <trkpt lat="47.35371" lon="-1.29141">
        <ele>76</ele>
        <time>2011-10-02T08:00:32Z</time>
      </trkpt>
      <trkpt lat="47.35367" lon="-1.29134">
        <ele>75.5</ele>
        <time>2011-10-02T08:00:33Z</time>
      </trkpt>
      <trkpt lat="47.35362" lon="-1.29129">
        <ele>75.6</ele>
        <time>2011-10-02T08:00:34Z</time>
      </trkpt>
      <trkpt lat="47.35357" lon="-1.29124">
        <ele>75.2</ele>
        <time>2011-10-02T08:00:35Z</time>
      </trkpt>
      <trkpt lat="47.35351" lon="-1.29118">
        <ele>75</ele>
        <time>2011-10-02T08:00:36Z</time>
      </trkpt>
      <trkpt lat="47.35348" lon="-1.2911">
        <ele>74.6</ele>
        <time>2011-10-02T08:00:37Z</time>
      </trkpt>
      <trkpt lat="47.35346" lon="-1.291">
        <ele>74.5</ele>
        <time>2011-10-02T08:00:38Z</time>
      </trkpt>
      <trkpt lat="47.35345" lon="-1.29088">
        <ele>72.3</ele>
        <time>2011-10-02T08:00:40Z</time>
      </trkpt>
      <trkpt lat="47.3534" lon="-1.29082">
        <ele>72.3</ele>
        <time>2011-10-02T08:00:41Z</time>
      </trkpt>
      <trkpt lat="47.3534" lon="-1.29075">
        <ele>73.1</ele>
        <time>2011-10-02T08:00:42Z</time>
      </trkpt>
      <trkpt lat="47.35342" lon="-1.29062">
        <ele>73.2</ele>
        <time>2011-10-02T08:00:44Z</time>
      </trkpt>
      <trkpt lat="47.35342" lon="-1.29052">
        <ele>73.6</ele>
        <time>2011-10-02T08:00:46Z</time>
      </trkpt>
      <trkpt lat="47.35342" lon="-1.29039">
        <ele>70.5</ele>
        <time>2011-10-02T08:00:49Z</time>
      </trkpt>
      <trkpt lat="47.3534" lon="-1.29026">
        <ele>69.9</ele>
        <time>2011-10-02T08:00:51Z</time>
      </trkpt>
      <trkpt lat="47.35337" lon="-1.29021">
        <ele>69</ele>
        <time>2011-10-02T08:00:52Z</time>
      </trkpt>
      <trkpt lat="47.35332" lon="-1.29012">
        <ele>69</ele>
        <time>2011-10-02T08:00:54Z</time>
      </trkpt>
      <trkpt lat="47.35327" lon="-1.29007">
        <ele>70</ele>
        <time>2011-10-02T08:00:55Z</time>
      </trkpt>
      <trkpt lat="47.35324" lon="-1.29001">
        <ele>70.8</ele>
        <time>2011-10-02T08:00:56Z</time>
      </trkpt>
      <trkpt lat="47.35323" lon="-1.28995">
        <ele>71.3</ele>
        <time>2011-10-02T08:00:57Z</time>
      </trkpt>
      <trkpt lat="47.35316" lon="-1.28987">
        <ele>69.9</ele>
        <time>2011-10-02T08:01:00Z</time>
      </trkpt>
      <trkpt lat="47.3531" lon="-1.2898">
        <ele>68.7</ele>
        <time>2011-10-02T08:01:01Z</time>
      </trkpt>
      <trkpt lat="47.35306" lon="-1.28973">
        <ele>68.3</ele>
        <time>2011-10-02T08:01:02Z</time>
      </trkpt>
      <trkpt lat="47.35302" lon="-1.28968">
        <ele>67.2</ele>
        <time>2011-10-02T08:01:03Z</time>
      </trkpt>
      <trkpt lat="47.35299" lon="-1.28962">
        <ele>67.4</ele>
        <time>2011-10-02T08:01:04Z</time>
      </trkpt>
      <trkpt lat="47.35294" lon="-1.2895">
        <ele>67.5</ele>
        <time>2011-10-02T08:01:06Z</time>
      </trkpt>
      <trkpt lat="47.35289" lon="-1.28944">
        <ele>68</ele>
        <time>2011-10-02T08:01:08Z</time>
      </trkpt>
      <trkpt lat="47.35282" lon="-1.28939">
        <ele>67.1</ele>
        <time>2011-10-02T08:01:09Z</time>
      </trkpt>
      <trkpt lat="47.35275" lon="-1.28935">
        <ele>66</ele>
        <time>2011-10-02T08:01:13Z</time>
      </trkpt>
      <trkpt lat="47.35271" lon="-1.28929">
        <ele>66.6</ele>
        <time>2011-10-02T08:01:15Z</time>
      </trkpt>
      <trkpt lat="47.35261" lon="-1.28926">
        <ele>68.7</ele>
        <time>2011-10-02T08:01:19Z</time>
      </trkpt>
      <trkpt lat="47.35254" lon="-1.28916">
        <ele>65.8</ele>
        <time>2011-10-02T08:01:21Z</time>
      </trkpt>
      <trkpt lat="47.35248" lon="-1.2891">
        <ele>66.5</ele>
        <time>2011-10-02T08:01:23Z</time>
      </trkpt>
      <trkpt lat="47.35247" lon="-1.28898">
        <ele>65.9</ele>
        <time>2011-10-02T08:01:25Z</time>
      </trkpt>
      <trkpt lat="47.35238" lon="-1.28887">
        <ele>63.3</ele>
        <time>2011-10-02T08:01:27Z</time>
      </trkpt>
      <trkpt lat="47.35232" lon="-1.28885">
        <ele>64.9</ele>
        <time>2011-10-02T08:01:28Z</time>
      </trkpt>
      <trkpt lat="47.35227" lon="-1.2888">
        <ele>66.8</ele>
        <time>2011-10-02T08:01:30Z</time>
      </trkpt>
      <trkpt lat="47.35218" lon="-1.28874">
        <ele>68.5</ele>
        <time>2011-10-02T08:01:32Z</time>
      </trkpt>
      <trkpt lat="47.35216" lon="-1.28865">
        <ele>70.4</ele>
        <time>2011-10-02T08:01:34Z</time>
      </trkpt>
      <trkpt lat="47.3521" lon="-1.28863">
        <ele>70.6</ele>
        <time>2011-10-02T08:01:35Z</time>
      </trkpt>
      <trkpt lat="47.35205" lon="-1.28857">
        <ele>69.2</ele>
        <time>2011-10-02T08:01:37Z</time>
      </trkpt>
      <trkpt lat="47.35198" lon="-1.28852">
        <ele>71.1</ele>
        <time>2011-10-02T08:01:39Z</time>
      </trkpt>
      <trkpt lat="47.35196" lon="-1.28846">
        <ele>70.7</ele>
        <time>2011-10-02T08:01:40Z</time>
      </trkpt>
      <trkpt lat="47.35191" lon="-1.28843">
        <ele>68.5</ele>
        <time>2011-10-02T08:01:43Z</time>
      </trkpt>
      <trkpt lat="47.35182" lon="-1.28845">
        <ele>70.9</ele>
        <time>2011-10-02T08:01:46Z</time>
      </trkpt>
      <trkpt lat="47.35176" lon="-1.28843">
        <ele>72</ele>
        <time>2011-10-02T08:01:48Z</time>
      </trkpt>
      <trkpt lat="47.35171" lon="-1.28842">
        <ele>68.6</ele>
        <time>2011-10-02T08:01:51Z</time>
      </trkpt>
      <trkpt lat="47.35166" lon="-1.2884">
        <ele>68.2</ele>
        <time>2011-10-02T08:01:53Z</time>
      </trkpt>
      <trkpt lat="47.35161" lon="-1.2884">
        <ele>68.5</ele>
        <time>2011-10-02T08:01:57Z</time>
      </trkpt>
      <trkpt lat="47.35151" lon="-1.28836">
        <ele>67.3</ele>
        <time>2011-10-02T08:01:58Z</time>
      </trkpt>
      <trkpt lat="47.35146" lon="-1.28836">
        <ele>67.9</ele>
        <time>2011-10-02T08:01:59Z</time>
      </trkpt>
      <trkpt lat="47.35138" lon="-1.28837">
        <ele>67.6</ele>
        <time>2011-10-02T08:02:01Z</time>
      </trkpt>
      <trkpt lat="47.35133" lon="-1.28835">
        <ele>67.4</ele>
        <time>2011-10-02T08:02:03Z</time>
      </trkpt>
      <trkpt lat="47.35127" lon="-1.28834">
        <ele>67.5</ele>
        <time>2011-10-02T08:02:04Z</time>
      </trkpt>
      <trkpt lat="47.35118" lon="-1.28839">
        <ele>69.8</ele>
        <time>2011-10-02T08:02:06Z</time>
      </trkpt>
      <trkpt lat="47.35112" lon="-1.28839">
        <ele>71</ele>
        <time>2011-10-02T08:02:08Z</time>
      </trkpt>
      <trkpt lat="47.35108" lon="-1.28843">
        <ele>73</ele>
        <time>2011-10-02T08:02:09Z</time>
      </trkpt>
      <trkpt lat="47.35101" lon="-1.28845">
        <ele>74.8</ele>
        <time>2011-10-02T08:02:10Z</time>
      </trkpt>
      <trkpt lat="47.35094" lon="-1.28845">
        <ele>76.2</ele>
        <time>2011-10-02T08:02:11Z</time>
      </trkpt>
      <trkpt lat="47.35089" lon="-1.28846">
        <ele>76.2</ele>
        <time>2011-10-02T08:02:12Z</time>
      </trkpt>
      <trkpt lat="47.35084" lon="-1.2885">
        <ele>77.5</ele>
        <time>2011-10-02T08:02:14Z</time>
      </trkpt>
      <trkpt lat="47.35078" lon="-1.2885">
        <ele>77</ele>
        <time>2011-10-02T08:02:15Z</time>
      </trkpt>
      <trkpt lat="47.35068" lon="-1.28855">
        <ele>76.3</ele>
        <time>2011-10-02T08:02:17Z</time>
      </trkpt>
      <trkpt lat="47.35064" lon="-1.2886">
        <ele>75.6</ele>
        <time>2011-10-02T08:02:18Z</time>
      </trkpt>
      <trkpt lat="47.35058" lon="-1.28867">
        <ele>74.7</ele>
        <time>2011-10-02T08:02:20Z</time>
      </trkpt>
      <trkpt lat="47.35052" lon="-1.28867">
        <ele>75.2</ele>
        <time>2011-10-02T08:02:21Z</time>
      </trkpt>
      <trkpt lat="47.35042" lon="-1.28867">
        <ele>73.6</ele>
        <time>2011-10-02T08:02:22Z</time>
      </trkpt>
      <trkpt lat="47.35034" lon="-1.2887">
        <ele>71</ele>
        <time>2011-10-02T08:02:23Z</time>
      </trkpt>
      <trkpt lat="47.35028" lon="-1.28874">
        <ele>70.4</ele>
        <time>2011-10-02T08:02:24Z</time>
      </trkpt>
      <trkpt lat="47.35022" lon="-1.28876">
        <ele>70.7</ele>
        <time>2011-10-02T08:02:25Z</time>
      </trkpt>
      <trkpt lat="47.35015" lon="-1.28878">
        <ele>72</ele>
        <time>2011-10-02T08:02:27Z</time>
      </trkpt>
      <trkpt lat="47.35011" lon="-1.2888">
        <ele>71.8</ele>
        <time>2011-10-02T08:02:28Z</time>
      </trkpt>
      <trkpt lat="47.35001" lon="-1.28886">
        <ele>70.2</ele>
        <time>2011-10-02T08:02:30Z</time>
      </trkpt>
      <trkpt lat="47.34991" lon="-1.28894">
        <ele>69.9</ele>
        <time>2011-10-02T08:02:32Z</time>
      </trkpt>
      <trkpt lat="47.34982" lon="-1.28898">
        <ele>67.9</ele>
        <time>2011-10-02T08:02:34Z</time>
      </trkpt>
      <trkpt lat="47.34973" lon="-1.28901">
        <ele>68.4</ele>
        <time>2011-10-02T08:02:36Z</time>
      </trkpt>
      <trkpt lat="47.34963" lon="-1.28901">
        <ele>66.7</ele>
        <time>2011-10-02T08:02:38Z</time>
      </trkpt>
      <trkpt lat="47.34959" lon="-1.28906">
        <ele>66.6</ele>
        <time>2011-10-02T08:02:39Z</time>
      </trkpt>
      <trkpt lat="47.34954" lon="-1.28907">
        <ele>66.1</ele>
        <time>2011-10-02T08:02:40Z</time>
      </trkpt>
      <trkpt lat="47.34946" lon="-1.28914">
        <ele>67</ele>
        <time>2011-10-02T08:02:42Z</time>
      </trkpt>
      <trkpt lat="47.3494" lon="-1.28916">
        <ele>68.4</ele>
        <time>2011-10-02T08:02:43Z</time>
      </trkpt>
      <trkpt lat="47.34935" lon="-1.28917">
        <ele>66.9</ele>
        <time>2011-10-02T08:02:44Z</time>
      </trkpt>
      <trkpt lat="47.34926" lon="-1.28919">
        <ele>66.8</ele>
        <time>2011-10-02T08:02:45Z</time>
      </trkpt>
      <trkpt lat="47.34919" lon="-1.28925">
        <ele>68.3</ele>
        <time>2011-10-02T08:02:47Z</time>
      </trkpt>
      <trkpt lat="47.34913" lon="-1.28928">
        <ele>69.7</ele>
        <time>2011-10-02T08:02:48Z</time>
      </trkpt>
      <trkpt lat="47.34907" lon="-1.28931">
        <ele>69.7</ele>
        <time>2011-10-02T08:02:49Z</time>
      </trkpt>
      <trkpt lat="47.34901" lon="-1.28935">
        <ele>69.4</ele>
        <time>2011-10-02T08:02:50Z</time>
      </trkpt>
      <trkpt lat="47.34896" lon="-1.28935">
        <ele>69.1</ele>
        <time>2011-10-02T08:02:51Z</time>
      </trkpt>
      <trkpt lat="47.3489" lon="-1.28932">
        <ele>69.9</ele>
        <time>2011-10-02T08:02:53Z</time>
      </trkpt>
      <trkpt lat="47.34885" lon="-1.28929">
        <ele>69</ele>
        <time>2011-10-02T08:02:54Z</time>
      </trkpt>
      <trkpt lat="47.3488" lon="-1.28932">
        <ele>67.7</ele>
        <time>2011-10-02T08:02:55Z</time>
      </trkpt>
      <trkpt lat="47.34874" lon="-1.28932">
        <ele>66.9</ele>
        <time>2011-10-02T08:02:56Z</time>
      </trkpt>
      <trkpt lat="47.3487" lon="-1.28931">
        <ele>67</ele>
        <time>2011-10-02T08:02:57Z</time>
      </trkpt>
      <trkpt lat="47.34862" lon="-1.28931">
        <ele>68.8</ele>
        <time>2011-10-02T08:02:59Z</time>
      </trkpt>
      <trkpt lat="47.34854" lon="-1.2893">
        <ele>67.4</ele>
        <time>2011-10-02T08:03:01Z</time>
      </trkpt>
      <trkpt lat="47.34849" lon="-1.2893">
        <ele>66.3</ele>
        <time>2011-10-02T08:03:02Z</time>
      </trkpt>
      <trkpt lat="47.34844" lon="-1.28932">
        <ele>66.5</ele>
        <time>2011-10-02T08:03:03Z</time>
      </trkpt>
      <trkpt lat="47.34839" lon="-1.28931">
        <ele>66.8</ele>
        <time>2011-10-02T08:03:04Z</time>
      </trkpt>
      <trkpt lat="47.34834" lon="-1.28931">
        <ele>66.2</ele>
        <time>2011-10-02T08:03:05Z</time>
      </trkpt>
      <trkpt lat="47.34828" lon="-1.28931">
        <ele>67</ele>
        <time>2011-10-02T08:03:07Z</time>
      </trkpt>
      <trkpt lat="47.34824" lon="-1.28926">
        <ele>67.3</ele>
        <time>2011-10-02T08:03:09Z</time>
      </trkpt>
      <trkpt lat="47.34818" lon="-1.28927">
        <ele>65.7</ele>
        <time>2011-10-02T08:03:10Z</time>
      </trkpt>
      <trkpt lat="47.34811" lon="-1.28927">
        <ele>66.6</ele>
        <time>2011-10-02T08:03:11Z</time>
      </trkpt>
      <trkpt lat="47.34806" lon="-1.28927">
        <ele>66.5</ele>
        <time>2011-10-02T08:03:14Z</time>
      </trkpt>
      <trkpt lat="47.348" lon="-1.2893">
        <ele>65.9</ele>
        <time>2011-10-02T08:03:16Z</time>
      </trkpt>
      <trkpt lat="47.34795" lon="-1.28928">
        <ele>66.2</ele>
        <time>2011-10-02T08:03:17Z</time>
      </trkpt>
      <trkpt lat="47.34789" lon="-1.28923">
        <ele>67</ele>
        <time>2011-10-02T08:03:19Z</time>
      </trkpt>
      <trkpt lat="47.3478" lon="-1.2892">
        <ele>66.7</ele>
        <time>2011-10-02T08:03:20Z</time>
      </trkpt>
      <trkpt lat="47.3477" lon="-1.28917">
        <ele>66.9</ele>
        <time>2011-10-02T08:03:22Z</time>
      </trkpt>
      <trkpt lat="47.34768" lon="-1.28909">
        <ele>66.2</ele>
        <time>2011-10-02T08:03:24Z</time>
      </trkpt>
      <trkpt lat="47.3476" lon="-1.289">
        <ele>65.8</ele>
        <time>2011-10-02T08:03:26Z</time>
      </trkpt>
      <trkpt lat="47.34754" lon="-1.28894">
        <ele>66.9</ele>
        <time>2011-10-02T08:03:28Z</time>
      </trkpt>
      <trkpt lat="47.34747" lon="-1.28888">
        <ele>65.6</ele>
        <time>2011-10-02T08:03:30Z</time>
      </trkpt>
      <trkpt lat="47.34742" lon="-1.28884">
        <ele>66.3</ele>
        <time>2011-10-02T08:03:31Z</time>
      </trkpt>
      <trkpt lat="47.34735" lon="-1.28875">
        <ele>67.6</ele>
        <time>2011-10-02T08:03:33Z</time>
      </trkpt>
      <trkpt lat="47.34729" lon="-1.28866">
        <ele>67.3</ele>
        <time>2011-10-02T08:03:35Z</time>
      </trkpt>
      <trkpt lat="47.34722" lon="-1.28861">
        <ele>67.8</ele>
        <time>2011-10-02T08:03:36Z</time>
      </trkpt>
      <trkpt lat="47.3472" lon="-1.2885">
        <ele>67.3</ele>
        <time>2011-10-02T08:03:38Z</time>
      </trkpt>
      <trkpt lat="47.34715" lon="-1.28845">
        <ele>68.9</ele>
        <time>2011-10-02T08:03:40Z</time>
      </trkpt>
      <trkpt lat="47.34709" lon="-1.28839">
        <ele>68.3</ele>
        <time>2011-10-02T08:03:41Z</time>
      </trkpt>
      <trkpt lat="47.34704" lon="-1.28833">
        <ele>68.6</ele>
        <time>2011-10-02T08:03:42Z</time>
      </trkpt>
      <trkpt lat="47.34698" lon="-1.28828">
        <ele>69.7</ele>
        <time>2011-10-02T08:03:43Z</time>
      </trkpt>
      <trkpt lat="47.34693" lon="-1.28821">
        <ele>69.5</ele>
        <time>2011-10-02T08:03:44Z</time>
      </trkpt>
      <trkpt lat="47.34688" lon="-1.28816">
        <ele>70.3</ele>
        <time>2011-10-02T08:03:45Z</time>
      </trkpt>
      <trkpt lat="47.34685" lon="-1.2881">
        <ele>71</ele>
        <time>2011-10-02T08:03:46Z</time>
      </trkpt>
      <trkpt lat="47.3468" lon="-1.28806">
        <ele>71.3</ele>
        <time>2011-10-02T08:03:48Z</time>
      </trkpt>
      <trkpt lat="47.34669" lon="-1.2881">
        <ele>71.8</ele>
        <time>2011-10-02T08:03:50Z</time>
      </trkpt>
      <trkpt lat="47.34661" lon="-1.2881">
        <ele>71.8</ele>
        <time>2011-10-02T08:03:52Z</time>
      </trkpt>
      <trkpt lat="47.34656" lon="-1.28811">
        <ele>71.9</ele>
        <time>2011-10-02T08:03:54Z</time>
      </trkpt>
      <trkpt lat="47.3465" lon="-1.28813">
        <ele>72.8</ele>
        <time>2011-10-02T08:03:55Z</time>
      </trkpt>
      <trkpt lat="47.34644" lon="-1.28814">
        <ele>72.3</ele>
        <time>2011-10-02T08:03:56Z</time>
      </trkpt>
      <trkpt lat="47.34637" lon="-1.28816">
        <ele>71.4</ele>
        <time>2011-10-02T08:03:58Z</time>
      </trkpt>
      <trkpt lat="47.34632" lon="-1.28815">
        <ele>67.7</ele>
        <time>2011-10-02T08:04:00Z</time>
      </trkpt>
      <trkpt lat="47.34625" lon="-1.28813">
        <ele>68.2</ele>
        <time>2011-10-02T08:04:01Z</time>
      </trkpt>
      <trkpt lat="47.3462" lon="-1.28813">
        <ele>67.9</ele>
        <time>2011-10-02T08:04:02Z</time>
      </trkpt>
      <trkpt lat="47.34612" lon="-1.28811">
        <ele>69.5</ele>
        <time>2011-10-02T08:04:04Z</time>
      </trkpt>
      <trkpt lat="47.34606" lon="-1.28816">
        <ele>68.5</ele>
        <time>2011-10-02T08:04:07Z</time>
      </trkpt>
      <trkpt lat="47.34597" lon="-1.28817">
        <ele>69.9</ele>
        <time>2011-10-02T08:04:10Z</time>
      </trkpt>
      <trkpt lat="47.3459" lon="-1.28816">
        <ele>69.4</ele>
        <time>2011-10-02T08:04:12Z</time>
      </trkpt>
      <trkpt lat="47.34582" lon="-1.28814">
        <ele>70</ele>
        <time>2011-10-02T08:04:14Z</time>
      </trkpt>
      <trkpt lat="47.34576" lon="-1.28812">
        <ele>69</ele>
        <time>2011-10-02T08:04:15Z</time>
      </trkpt>
      <trkpt lat="47.34569" lon="-1.28808">
        <ele>67.8</ele>
        <time>2011-10-02T08:04:17Z</time>
      </trkpt>
      <trkpt lat="47.34563" lon="-1.28813">
        <ele>68.3</ele>
        <time>2011-10-02T08:04:20Z</time>
      </trkpt>
      <trkpt lat="47.34559" lon="-1.28819">
        <ele>68.5</ele>
        <time>2011-10-02T08:04:22Z</time>
      </trkpt>
      <trkpt lat="47.34559" lon="-1.28828">
        <ele>69.5</ele>
        <time>2011-10-02T08:04:24Z</time>
      </trkpt>
      <trkpt lat="47.34555" lon="-1.28833">
        <ele>69.7</ele>
        <time>2011-10-02T08:04:25Z</time>
      </trkpt>
      <trkpt lat="47.34554" lon="-1.28845">
        <ele>72.5</ele>
        <time>2011-10-02T08:04:28Z</time>
      </trkpt>
      <trkpt lat="47.34555" lon="-1.28854">
        <ele>68.5</ele>
        <time>2011-10-02T08:04:30Z</time>
      </trkpt>
      <trkpt lat="47.34552" lon="-1.28865">
        <ele>68.4</ele>
        <time>2011-10-02T08:04:32Z</time>
      </trkpt>
      <trkpt lat="47.3455" lon="-1.28872">
        <ele>69.4</ele>
        <time>2011-10-02T08:04:34Z</time>
      </trkpt>
      <trkpt lat="47.34545" lon="-1.28876">
        <ele>66.6</ele>
        <time>2011-10-02T08:04:36Z</time>
      </trkpt>
      <trkpt lat="47.34536" lon="-1.28878">
        <ele>66</ele>
        <time>2011-10-02T08:04:39Z</time>
      </trkpt>
      <trkpt lat="47.3453" lon="-1.2888">
        <ele>65.4</ele>
        <time>2011-10-02T08:04:40Z</time>
      </trkpt>
      <trkpt lat="47.34524" lon="-1.28875">
        <ele>65</ele>
        <time>2011-10-02T08:04:41Z</time>
      </trkpt>
      <trkpt lat="47.34518" lon="-1.28882">
        <ele>65.5</ele>
        <time>2011-10-02T08:04:43Z</time>
      </trkpt>
      <trkpt lat="47.34472" lon="-1.28947">
        <ele>64</ele>
        <time>2011-10-02T08:04:58Z</time>
      </trkpt>
      <trkpt lat="47.34463" lon="-1.28958">
        <ele>63.7</ele>
        <time>2011-10-02T08:04:59Z</time>
      </trkpt>
      <trkpt lat="47.34459" lon="-1.28968">
        <ele>63.5</ele>
        <time>2011-10-02T08:05:00Z</time>
      </trkpt>
      <trkpt lat="47.34458" lon="-1.28975">
        <ele>64.1</ele>
        <time>2011-10-02T08:05:01Z</time>
      </trkpt>
      <trkpt lat="47.34455" lon="-1.28982">
        <ele>63.6</ele>
        <time>2011-10-02T08:05:02Z</time>
      </trkpt>
      <trkpt lat="47.34451" lon="-1.28988">
        <ele>63.6</ele>
        <time>2011-10-02T08:05:03Z</time>
      </trkpt>
      <trkpt lat="47.34446" lon="-1.28997">
        <ele>65.4</ele>
        <time>2011-10-02T08:05:05Z</time>
      </trkpt>
      <trkpt lat="47.34442" lon="-1.29009">
        <ele>67.1</ele>
        <time>2011-10-02T08:05:07Z</time>
      </trkpt>
      <trkpt lat="47.34441" lon="-1.29019">
        <ele>67.2</ele>
        <time>2011-10-02T08:05:09Z</time>
      </trkpt>
      <trkpt lat="47.34437" lon="-1.29026">
        <ele>66.6</ele>
        <time>2011-10-02T08:05:10Z</time>
      </trkpt>
      <trkpt lat="47.34435" lon="-1.29039">
        <ele>66.6</ele>
        <time>2011-10-02T08:05:12Z</time>
      </trkpt>
      <trkpt lat="47.34436" lon="-1.29049">
        <ele>66.9</ele>
        <time>2011-10-02T08:05:14Z</time>
      </trkpt>
      <trkpt lat="47.34435" lon="-1.29063">
        <ele>66.2</ele>
        <time>2011-10-02T08:05:16Z</time>
      </trkpt>
      <trkpt lat="47.34437" lon="-1.29073">
        <ele>65.4</ele>
        <time>2011-10-02T08:05:18Z</time>
      </trkpt>
      <trkpt lat="47.34436" lon="-1.2908">
        <ele>65.8</ele>
        <time>2011-10-02T08:05:19Z</time>
      </trkpt>
      <trkpt lat="47.34438" lon="-1.29087">
        <ele>65.4</ele>
        <time>2011-10-02T08:05:21Z</time>
      </trkpt>
      <trkpt lat="47.34442" lon="-1.29096">
        <ele>63.5</ele>
        <time>2011-10-02T08:05:24Z</time>
      </trkpt>
      <trkpt lat="47.34444" lon="-1.29083">
        <ele>67.1</ele>
        <time>2011-10-02T08:05:31Z</time>
      </trkpt>
      <trkpt lat="47.34439" lon="-1.29084">
        <ele>72.5</ele>
        <time>2011-10-02T08:05:38Z</time>
      </trkpt>
      <trkpt lat="47.3444" lon="-1.29076">
        <ele>73.4</ele>
        <time>2011-10-02T08:05:42Z</time>
      </trkpt>
      <trkpt lat="47.34444" lon="-1.29076">
        <ele>70.7</ele>
        <time>2011-10-02T08:05:57Z</time>
      </trkpt>
      <trkpt lat="47.34447" lon="-1.29085">
        <ele>69.4</ele>
        <time>2011-10-02T08:06:04Z</time>
      </trkpt>
      <trkpt lat="47.34449" lon="-1.29093">
        <ele>67.5</ele>
        <time>2011-10-02T08:06:08Z</time>
      </trkpt>
      <trkpt lat="47.34444" lon="-1.29095">
        <ele>67.2</ele>
        <time>2011-10-02T08:09:03Z</time>
      </trkpt>
      <trkpt lat="47.34441" lon="-1.29089">
        <ele>63.7</ele>
        <time>2011-10-02T08:10:21Z</time>
      </trkpt>
      <trkpt lat="47.3444" lon="-1.29081">
        <ele>61.5</ele>
        <time>2011-10-02T08:10:23Z</time>
      </trkpt>
      <trkpt lat="47.34443" lon="-1.29075">
        <ele>57.9</ele>
        <time>2011-10-02T08:10:28Z</time>
      </trkpt>
      <trkpt lat="47.34444" lon="-1.29081">
        <ele>60.5</ele>
        <time>2011-10-02T08:10:35Z</time>
      </trkpt>
      <trkpt lat="47.34449" lon="-1.29086">
        <ele>62.3</ele>
        <time>2011-10-02T08:10:37Z</time>
      </trkpt>
      <trkpt lat="47.34446" lon="-1.29093">
        <ele>64.6</ele>
        <time>2011-10-02T08:10:41Z</time>
      </trkpt>
      <trkpt lat="47.34441" lon="-1.29099">
        <ele>63.2</ele>
        <time>2011-10-02T08:10:44Z</time>
      </trkpt>
      <trkpt lat="47.34436" lon="-1.29098">
        <ele>63.9</ele>
        <time>2011-10-02T08:10:46Z</time>
      </trkpt>
      <trkpt lat="47.34431" lon="-1.29099">
        <ele>65.5</ele>
        <time>2011-10-02T08:10:47Z</time>
      </trkpt>
      <trkpt lat="47.34423" lon="-1.291">
        <ele>67.2</ele>
        <time>2011-10-02T08:10:48Z</time>
      </trkpt>
      <trkpt lat="47.34417" lon="-1.29099">
        <ele>67.5</ele>
        <time>2011-10-02T08:10:50Z</time>
      </trkpt>
      <trkpt lat="47.3441" lon="-1.29103">
        <ele>67.1</ele>
        <time>2011-10-02T08:10:52Z</time>
      </trkpt>
      <trkpt lat="47.34403" lon="-1.29106">
        <ele>67.7</ele>
        <time>2011-10-02T08:10:53Z</time>
      </trkpt>
      <trkpt lat="47.34397" lon="-1.29106">
        <ele>67.9</ele>
        <time>2011-10-02T08:10:54Z</time>
      </trkpt>
      <trkpt lat="47.3439" lon="-1.29105">
        <ele>69.4</ele>
        <time>2011-10-02T08:10:56Z</time>
      </trkpt>
      <trkpt lat="47.34383" lon="-1.29106">
        <ele>69.1</ele>
        <time>2011-10-02T08:10:58Z</time>
      </trkpt>
      <trkpt lat="47.34375" lon="-1.29105">
        <ele>68.7</ele>
        <time>2011-10-02T08:11:00Z</time>
      </trkpt>
      <trkpt lat="47.34367" lon="-1.29111">
        <ele>66.6</ele>
        <time>2011-10-02T08:11:02Z</time>
      </trkpt>
      <trkpt lat="47.34361" lon="-1.29118">
        <ele>65.8</ele>
        <time>2011-10-02T08:11:03Z</time>
      </trkpt>
      <trkpt lat="47.3436" lon="-1.29124">
        <ele>66</ele>
        <time>2011-10-02T08:11:04Z</time>
      </trkpt>
      <trkpt lat="47.34358" lon="-1.29131">
        <ele>66.6</ele>
        <time>2011-10-02T08:11:05Z</time>
      </trkpt>
      <trkpt lat="47.34356" lon="-1.29142">
        <ele>66.4</ele>
        <time>2011-10-02T08:11:07Z</time>
      </trkpt>
      <trkpt lat="47.34353" lon="-1.29157">
        <ele>65.2</ele>
        <time>2011-10-02T08:11:10Z</time>
      </trkpt>
      <trkpt lat="47.34352" lon="-1.29165">
        <ele>63.6</ele>
        <time>2011-10-02T08:11:11Z</time>
      </trkpt>
      <trkpt lat="47.34353" lon="-1.29182">
        <ele>64.1</ele>
        <time>2011-10-02T08:11:12Z</time>
      </trkpt>
      <trkpt lat="47.34352" lon="-1.2919">
        <ele>63.7</ele>
        <time>2011-10-02T08:11:13Z</time>
      </trkpt>
      <trkpt lat="47.34352" lon="-1.292">
        <ele>64.4</ele>
        <time>2011-10-02T08:11:14Z</time>
      </trkpt>
      <trkpt lat="47.34351" lon="-1.2921">
        <ele>65</ele>
        <time>2011-10-02T08:11:15Z</time>
      </trkpt>
      <trkpt lat="47.34348" lon="-1.2922">
        <ele>64.9</ele>
        <time>2011-10-02T08:11:16Z</time>
      </trkpt>
      <trkpt lat="47.34344" lon="-1.29227">
        <ele>65</ele>
        <time>2011-10-02T08:11:17Z</time>
      </trkpt>
      <trkpt lat="47.34339" lon="-1.29233">
        <ele>64.8</ele>
        <time>2011-10-02T08:11:18Z</time>
      </trkpt>
      <trkpt lat="47.34333" lon="-1.29239">
        <ele>65</ele>
        <time>2011-10-02T08:11:19Z</time>
      </trkpt>
      <trkpt lat="47.3432" lon="-1.29238">
        <ele>64.2</ele>
        <time>2011-10-02T08:11:21Z</time>
      </trkpt>
      <trkpt lat="47.34313" lon="-1.29231">
        <ele>62.5</ele>
        <time>2011-10-02T08:11:22Z</time>
      </trkpt>
      <trkpt lat="47.34306" lon="-1.29225">
        <ele>62.5</ele>
        <time>2011-10-02T08:11:23Z</time>
      </trkpt>
      <trkpt lat="47.34298" lon="-1.29221">
        <ele>61.6</ele>
        <time>2011-10-02T08:11:24Z</time>
      </trkpt>
      <trkpt lat="47.34294" lon="-1.29222">
        <ele>60.3</ele>
        <time>2011-10-02T08:11:26Z</time>
      </trkpt>
      <trkpt lat="47.34288" lon="-1.29223">
        <ele>61.2</ele>
        <time>2011-10-02T08:11:27Z</time>
      </trkpt>
      <trkpt lat="47.34289" lon="-1.29231">
        <ele>62.4</ele>
        <time>2011-10-02T08:11:28Z</time>
      </trkpt>
      <trkpt lat="47.34288" lon="-1.29239">
        <ele>63.3</ele>
        <time>2011-10-02T08:11:29Z</time>
      </trkpt>
      <trkpt lat="47.3429" lon="-1.29247">
        <ele>61.9</ele>
        <time>2011-10-02T08:11:30Z</time>
      </trkpt>
      <trkpt lat="47.34291" lon="-1.29256">
        <ele>60.6</ele>
        <time>2011-10-02T08:11:31Z</time>
      </trkpt>
      <trkpt lat="47.34291" lon="-1.29267">
        <ele>60.6</ele>
        <time>2011-10-02T08:11:32Z</time>
      </trkpt>
      <trkpt lat="47.34293" lon="-1.29278">
        <ele>59.6</ele>
        <time>2011-10-02T08:11:33Z</time>
      </trkpt>
      <trkpt lat="47.34294" lon="-1.29287">
        <ele>59.9</ele>
        <time>2011-10-02T08:11:34Z</time>
      </trkpt>
      <trkpt lat="47.34295" lon="-1.29296">
        <ele>60.6</ele>
        <time>2011-10-02T08:11:35Z</time>
      </trkpt>
      <trkpt lat="47.34297" lon="-1.29303">
        <ele>60.1</ele>
        <time>2011-10-02T08:11:36Z</time>
      </trkpt>
      <trkpt lat="47.34298" lon="-1.29312">
        <ele>61.1</ele>
        <time>2011-10-02T08:11:37Z</time>
      </trkpt>
      <trkpt lat="47.34296" lon="-1.29327">
        <ele>60</ele>
        <time>2011-10-02T08:11:39Z</time>
      </trkpt>
      <trkpt lat="47.34294" lon="-1.29335">
        <ele>60.7</ele>
        <time>2011-10-02T08:11:40Z</time>
      </trkpt>
      <trkpt lat="47.34294" lon="-1.29344">
        <ele>60.3</ele>
        <time>2011-10-02T08:11:41Z</time>
      </trkpt>
      <trkpt lat="47.34294" lon="-1.29352">
        <ele>60.9</ele>
        <time>2011-10-02T08:11:42Z</time>
      </trkpt>
      <trkpt lat="47.34295" lon="-1.2936">
        <ele>61.2</ele>
        <time>2011-10-02T08:11:43Z</time>
      </trkpt>
      <trkpt lat="47.34292" lon="-1.29367">
        <ele>60.1</ele>
        <time>2011-10-02T08:11:44Z</time>
      </trkpt>
      <trkpt lat="47.34293" lon="-1.29375">
        <ele>60.2</ele>
        <time>2011-10-02T08:11:45Z</time>
      </trkpt>
      <trkpt lat="47.34292" lon="-1.29383">
        <ele>60.7</ele>
        <time>2011-10-02T08:11:46Z</time>
      </trkpt>
      <trkpt lat="47.3429" lon="-1.29391">
        <ele>61.2</ele>
        <time>2011-10-02T08:11:47Z</time>
      </trkpt>
      <trkpt lat="47.34291" lon="-1.29398">
        <ele>61</ele>
        <time>2011-10-02T08:11:48Z</time>
      </trkpt>
      <trkpt lat="47.34291" lon="-1.29408">
        <ele>61.8</ele>
        <time>2011-10-02T08:11:49Z</time>
      </trkpt>
      <trkpt lat="47.34291" lon="-1.29417">
        <ele>61.7</ele>
        <time>2011-10-02T08:11:50Z</time>
      </trkpt>
      <trkpt lat="47.34288" lon="-1.29426">
        <ele>61.1</ele>
        <time>2011-10-02T08:11:51Z</time>
      </trkpt>
      <trkpt lat="47.34287" lon="-1.29436">
        <ele>60.3</ele>
        <time>2011-10-02T08:11:52Z</time>
      </trkpt>
      <trkpt lat="47.34285" lon="-1.29445">
        <ele>60.7</ele>
        <time>2011-10-02T08:11:53Z</time>
      </trkpt>
      <trkpt lat="47.34284" lon="-1.29454">
        <ele>61</ele>
        <time>2011-10-02T08:11:54Z</time>
      </trkpt>
      <trkpt lat="47.34283" lon="-1.2947">
        <ele>61.5</ele>
        <time>2011-10-02T08:11:56Z</time>
      </trkpt>
      <trkpt lat="47.34282" lon="-1.29477">
        <ele>61.2</ele>
        <time>2011-10-02T08:11:57Z</time>
      </trkpt>
      <trkpt lat="47.34282" lon="-1.29486">
        <ele>60.5</ele>
        <time>2011-10-02T08:11:58Z</time>
      </trkpt>
      <trkpt lat="47.34281" lon="-1.29496">
        <ele>59.7</ele>
        <time>2011-10-02T08:11:59Z</time>
      </trkpt>
      <trkpt lat="47.3428" lon="-1.29506">
        <ele>59.8</ele>
        <time>2011-10-02T08:12:00Z</time>
      </trkpt>
      <trkpt lat="47.34277" lon="-1.29513">
        <ele>61.1</ele>
        <time>2011-10-02T08:12:01Z</time>
      </trkpt>
      <trkpt lat="47.34272" lon="-1.2952">
        <ele>61</ele>
        <time>2011-10-02T08:12:02Z</time>
      </trkpt>
      <trkpt lat="47.34268" lon="-1.29528">
        <ele>62.5</ele>
        <time>2011-10-02T08:12:04Z</time>
      </trkpt>
      <trkpt lat="47.34262" lon="-1.29539">
        <ele>62.6</ele>
        <time>2011-10-02T08:12:06Z</time>
      </trkpt>
      <trkpt lat="47.3426" lon="-1.29545">
        <ele>62.1</ele>
        <time>2011-10-02T08:12:08Z</time>
      </trkpt>
      <trkpt lat="47.34259" lon="-1.29553">
        <ele>61.8</ele>
        <time>2011-10-02T08:12:09Z</time>
      </trkpt>
      <trkpt lat="47.34255" lon="-1.29565">
        <ele>63</ele>
        <time>2011-10-02T08:12:11Z</time>
      </trkpt>
      <trkpt lat="47.34251" lon="-1.29576">
        <ele>64.3</ele>
        <time>2011-10-02T08:12:12Z</time>
      </trkpt>
      <trkpt lat="47.34244" lon="-1.29586">
        <ele>64.6</ele>
        <time>2011-10-02T08:12:15Z</time>
      </trkpt>
      <trkpt lat="47.34241" lon="-1.29594">
        <ele>64.1</ele>
        <time>2011-10-02T08:12:16Z</time>
      </trkpt>
      <trkpt lat="47.3424" lon="-1.29601">
        <ele>63.5</ele>
        <time>2011-10-02T08:12:17Z</time>
      </trkpt>
      <trkpt lat="47.34235" lon="-1.29606">
        <ele>63</ele>
        <time>2011-10-02T08:12:18Z</time>
      </trkpt>
      <trkpt lat="47.34232" lon="-1.29612">
        <ele>62.4</ele>
        <time>2011-10-02T08:12:19Z</time>
      </trkpt>
      <trkpt lat="47.34229" lon="-1.29618">
        <ele>61.5</ele>
        <time>2011-10-02T08:12:20Z</time>
      </trkpt>
      <trkpt lat="47.34225" lon="-1.29625">
        <ele>61.3</ele>
        <time>2011-10-02T08:12:21Z</time>
      </trkpt>
      <trkpt lat="47.34222" lon="-1.29632">
        <ele>61.3</ele>
        <time>2011-10-02T08:12:22Z</time>
      </trkpt>
      <trkpt lat="47.3422" lon="-1.29638">
        <ele>61.2</ele>
        <time>2011-10-02T08:12:23Z</time>
      </trkpt>
      <trkpt lat="47.34218" lon="-1.29645">
        <ele>61.6</ele>
        <time>2011-10-02T08:12:24Z</time>
      </trkpt>
      <trkpt lat="47.34216" lon="-1.29652">
        <ele>61.7</ele>
        <time>2011-10-02T08:12:25Z</time>
      </trkpt>
      <trkpt lat="47.34213" lon="-1.29658">
        <ele>61.8</ele>
        <time>2011-10-02T08:12:26Z</time>
      </trkpt>
      <trkpt lat="47.3421" lon="-1.29664">
        <ele>63.2</ele>
        <time>2011-10-02T08:12:27Z</time>
      </trkpt>
      <trkpt lat="47.34205" lon="-1.29676">
        <ele>62.9</ele>
        <time>2011-10-02T08:12:29Z</time>
      </trkpt>
      <trkpt lat="47.34202" lon="-1.29682">
        <ele>62.7</ele>
        <time>2011-10-02T08:12:30Z</time>
      </trkpt>
      <trkpt lat="47.34199" lon="-1.29688">
        <ele>62.7</ele>
        <time>2011-10-02T08:12:31Z</time>
      </trkpt>
      <trkpt lat="47.34195" lon="-1.29693">
        <ele>62.8</ele>
        <time>2011-10-02T08:12:32Z</time>
      </trkpt>
      <trkpt lat="47.34191" lon="-1.29698">
        <ele>62.6</ele>
        <time>2011-10-02T08:12:33Z</time>
      </trkpt>
      <trkpt lat="47.34187" lon="-1.29702">
        <ele>62.3</ele>
        <time>2011-10-02T08:12:34Z</time>
      </trkpt>
      <trkpt lat="47.34183" lon="-1.29706">
        <ele>62.5</ele>
        <time>2011-10-02T08:12:35Z</time>
      </trkpt>
      <trkpt lat="47.3418" lon="-1.29719">
        <ele>62.7</ele>
        <time>2011-10-02T08:12:37Z</time>
      </trkpt>
      <trkpt lat="47.3418" lon="-1.29726">
        <ele>62.7</ele>
        <time>2011-10-02T08:12:38Z</time>
      </trkpt>
      <trkpt lat="47.34179" lon="-1.29734">
        <ele>62.8</ele>
        <time>2011-10-02T08:12:39Z</time>
      </trkpt>
      <trkpt lat="47.34179" lon="-1.29741">
        <ele>62.5</ele>
        <time>2011-10-02T08:12:40Z</time>
      </trkpt>
      <trkpt lat="47.34179" lon="-1.29748">
        <ele>62.3</ele>
        <time>2011-10-02T08:12:41Z</time>
      </trkpt>
      <trkpt lat="47.34179" lon="-1.29756">
        <ele>62.5</ele>
        <time>2011-10-02T08:12:42Z</time>
      </trkpt>
      <trkpt lat="47.34178" lon="-1.29764">
        <ele>62.8</ele>
        <time>2011-10-02T08:12:43Z</time>
      </trkpt>
      <trkpt lat="47.34179" lon="-1.29771">
        <ele>61.9</ele>
        <time>2011-10-02T08:12:44Z</time>
      </trkpt>
      <trkpt lat="47.34179" lon="-1.29779">
        <ele>61.9</ele>
        <time>2011-10-02T08:12:45Z</time>
      </trkpt>
      <trkpt lat="47.34179" lon="-1.29787">
        <ele>61.8</ele>
        <time>2011-10-02T08:12:46Z</time>
      </trkpt>
      <trkpt lat="47.34179" lon="-1.29795">
        <ele>62</ele>
        <time>2011-10-02T08:12:47Z</time>
      </trkpt>
      <trkpt lat="47.34178" lon="-1.29802">
        <ele>61.7</ele>
        <time>2011-10-02T08:12:48Z</time>
      </trkpt>
      <trkpt lat="47.34177" lon="-1.2981">
        <ele>61.7</ele>
        <time>2011-10-02T08:12:49Z</time>
      </trkpt>
      <trkpt lat="47.34176" lon="-1.29818">
        <ele>61.7</ele>
        <time>2011-10-02T08:12:50Z</time>
      </trkpt>
      <trkpt lat="47.34175" lon="-1.29825">
        <ele>61.7</ele>
        <time>2011-10-02T08:12:51Z</time>
      </trkpt>
      <trkpt lat="47.34175" lon="-1.29833">
        <ele>61.6</ele>
        <time>2011-10-02T08:12:52Z</time>
      </trkpt>
      <trkpt lat="47.34173" lon="-1.29842">
        <ele>60.6</ele>
        <time>2011-10-02T08:12:53Z</time>
      </trkpt>
      <trkpt lat="47.34172" lon="-1.2985">
        <ele>60.4</ele>
        <time>2011-10-02T08:12:54Z</time>
      </trkpt>
      <trkpt lat="47.34172" lon="-1.29857">
        <ele>60.5</ele>
        <time>2011-10-02T08:12:55Z</time>
      </trkpt>
      <trkpt lat="47.34171" lon="-1.29865">
        <ele>60.6</ele>
        <time>2011-10-02T08:12:56Z</time>
      </trkpt>
      <trkpt lat="47.34172" lon="-1.29873">
        <ele>60.6</ele>
        <time>2011-10-02T08:12:57Z</time>
      </trkpt>
      <trkpt lat="47.34172" lon="-1.29882">
        <ele>60.1</ele>
        <time>2011-10-02T08:12:58Z</time>
      </trkpt>
      <trkpt lat="47.34172" lon="-1.2989">
        <ele>59.8</ele>
        <time>2011-10-02T08:12:59Z</time>
      </trkpt>
      <trkpt lat="47.34172" lon="-1.29898">
        <ele>59.2</ele>
        <time>2011-10-02T08:13:00Z</time>
      </trkpt>
      <trkpt lat="47.3417" lon="-1.29906">
        <ele>59.2</ele>
        <time>2011-10-02T08:13:01Z</time>
      </trkpt>
      <trkpt lat="47.34168" lon="-1.29914">
        <ele>59.3</ele>
        <time>2011-10-02T08:13:02Z</time>
      </trkpt>
      <trkpt lat="47.34166" lon="-1.29922">
        <ele>59.4</ele>
        <time>2011-10-02T08:13:03Z</time>
      </trkpt>
      <trkpt lat="47.34165" lon="-1.2993">
        <ele>59.4</ele>
        <time>2011-10-02T08:13:04Z</time>
      </trkpt>
      <trkpt lat="47.34165" lon="-1.29938">
        <ele>59.2</ele>
        <time>2011-10-02T08:13:05Z</time>
      </trkpt>
      <trkpt lat="47.34165" lon="-1.29946">
        <ele>58.9</ele>
        <time>2011-10-02T08:13:06Z</time>
      </trkpt>
      <trkpt lat="47.34165" lon="-1.29954">
        <ele>58.8</ele>
        <time>2011-10-02T08:13:07Z</time>
      </trkpt>
      <trkpt lat="47.34164" lon="-1.29963">
        <ele>59</ele>
        <time>2011-10-02T08:13:08Z</time>
      </trkpt>
      <trkpt lat="47.34163" lon="-1.29971">
        <ele>58.8</ele>
        <time>2011-10-02T08:13:09Z</time>
      </trkpt>
      <trkpt lat="47.34162" lon="-1.29979">
        <ele>59</ele>
        <time>2011-10-02T08:13:10Z</time>
      </trkpt>
      <trkpt lat="47.34161" lon="-1.29988">
        <ele>59</ele>
        <time>2011-10-02T08:13:11Z</time>
      </trkpt>
      <trkpt lat="47.3416" lon="-1.29996">
        <ele>58.8</ele>
        <time>2011-10-02T08:13:12Z</time>
      </trkpt>
      <trkpt lat="47.3416" lon="-1.30004">
        <ele>58.9</ele>
        <time>2011-10-02T08:13:13Z</time>
      </trkpt>
      <trkpt lat="47.34159" lon="-1.30013">
        <ele>58.3</ele>
        <time>2011-10-02T08:13:14Z</time>
      </trkpt>
      <trkpt lat="47.34156" lon="-1.30021">
        <ele>58.4</ele>
        <time>2011-10-02T08:13:15Z</time>
      </trkpt>
      <trkpt lat="47.34155" lon="-1.30029">
        <ele>58.3</ele>
        <time>2011-10-02T08:13:16Z</time>
      </trkpt>
      <trkpt lat="47.34153" lon="-1.30038">
        <ele>58.1</ele>
        <time>2011-10-02T08:13:17Z</time>
      </trkpt>
      <trkpt lat="47.34152" lon="-1.30046">
        <ele>58.6</ele>
        <time>2011-10-02T08:13:18Z</time>
      </trkpt>
      <trkpt lat="47.34151" lon="-1.30054">
        <ele>58.6</ele>
        <time>2011-10-02T08:13:19Z</time>
      </trkpt>
      <trkpt lat="47.3415" lon="-1.30062">
        <ele>58.7</ele>
        <time>2011-10-02T08:13:20Z</time>
      </trkpt>
      <trkpt lat="47.34149" lon="-1.30069">
        <ele>58.6</ele>
        <time>2011-10-02T08:13:21Z</time>
      </trkpt>
      <trkpt lat="47.34148" lon="-1.30076">
        <ele>58.5</ele>
        <time>2011-10-02T08:13:22Z</time>
      </trkpt>
      <trkpt lat="47.34147" lon="-1.30084">
        <ele>58.5</ele>
        <time>2011-10-02T08:13:23Z</time>
      </trkpt>
      <trkpt lat="47.34146" lon="-1.30091">
        <ele>58.5</ele>
        <time>2011-10-02T08:13:24Z</time>
      </trkpt>
      <trkpt lat="47.34145" lon="-1.30098">
        <ele>58.6</ele>
        <time>2011-10-02T08:13:25Z</time>
      </trkpt>
      <trkpt lat="47.34145" lon="-1.30105">
        <ele>58.4</ele>
        <time>2011-10-02T08:13:26Z</time>
      </trkpt>
      <trkpt lat="47.34145" lon="-1.30123">
        <ele>58.9</ele>
        <time>2011-10-02T08:13:28Z</time>
      </trkpt>
      <trkpt lat="47.34145" lon="-1.30132">
        <ele>58.1</ele>
        <time>2011-10-02T08:13:29Z</time>
      </trkpt>
      <trkpt lat="47.34145" lon="-1.3014">
        <ele>57.7</ele>
        <time>2011-10-02T08:13:30Z</time>
      </trkpt>
      <trkpt lat="47.34144" lon="-1.30153">
        <ele>56.4</ele>
        <time>2011-10-02T08:13:32Z</time>
      </trkpt>
      <trkpt lat="47.34142" lon="-1.3016">
        <ele>56.4</ele>
        <time>2011-10-02T08:13:33Z</time>
      </trkpt>
      <trkpt lat="47.3414" lon="-1.30168">
        <ele>56</ele>
        <time>2011-10-02T08:13:34Z</time>
      </trkpt>
      <trkpt lat="47.34138" lon="-1.30175">
        <ele>55.7</ele>
        <time>2011-10-02T08:13:35Z</time>
      </trkpt>
      <trkpt lat="47.34135" lon="-1.30183">
        <ele>55.8</ele>
        <time>2011-10-02T08:13:36Z</time>
      </trkpt>
      <trkpt lat="47.34133" lon="-1.30191">
        <ele>55.9</ele>
        <time>2011-10-02T08:13:37Z</time>
      </trkpt>
      <trkpt lat="47.3413" lon="-1.302">
        <ele>57.2</ele>
        <time>2011-10-02T08:13:38Z</time>
      </trkpt>
      <trkpt lat="47.34128" lon="-1.30208">
        <ele>57.9</ele>
        <time>2011-10-02T08:13:39Z</time>
      </trkpt>
      <trkpt lat="47.34125" lon="-1.30214">
        <ele>58.3</ele>
        <time>2011-10-02T08:13:40Z</time>
      </trkpt>
      <trkpt lat="47.34122" lon="-1.30222">
        <ele>58.4</ele>
        <time>2011-10-02T08:13:41Z</time>
      </trkpt>
      <trkpt lat="47.3412" lon="-1.30229">
        <ele>58.6</ele>
        <time>2011-10-02T08:13:42Z</time>
      </trkpt>
      <trkpt lat="47.34118" lon="-1.30237">
        <ele>58.6</ele>
        <time>2011-10-02T08:13:43Z</time>
      </trkpt>
      <trkpt lat="47.34116" lon="-1.30244">
        <ele>58.8</ele>
        <time>2011-10-02T08:13:44Z</time>
      </trkpt>
      <trkpt lat="47.34115" lon="-1.30252">
        <ele>58.9</ele>
        <time>2011-10-02T08:13:45Z</time>
      </trkpt>
      <trkpt lat="47.34112" lon="-1.30259">
        <ele>58.7</ele>
        <time>2011-10-02T08:13:46Z</time>
      </trkpt>
      <trkpt lat="47.34107" lon="-1.30274">
        <ele>57.8</ele>
        <time>2011-10-02T08:13:48Z</time>
      </trkpt>
      <trkpt lat="47.34105" lon="-1.30281">
        <ele>57.8</ele>
        <time>2011-10-02T08:13:49Z</time>
      </trkpt>
      <trkpt lat="47.34103" lon="-1.30288">
        <ele>58.4</ele>
        <time>2011-10-02T08:13:50Z</time>
      </trkpt>
      <trkpt lat="47.341" lon="-1.30297">
        <ele>58.4</ele>
        <time>2011-10-02T08:13:51Z</time>
      </trkpt>
      <trkpt lat="47.34094" lon="-1.30309">
        <ele>58.1</ele>
        <time>2011-10-02T08:13:53Z</time>
      </trkpt>
      <trkpt lat="47.3409" lon="-1.30319">
        <ele>59.4</ele>
        <time>2011-10-02T08:13:55Z</time>
      </trkpt>
      <trkpt lat="47.34083" lon="-1.30329">
        <ele>59.6</ele>
        <time>2011-10-02T08:13:57Z</time>
      </trkpt>
      <trkpt lat="47.34079" lon="-1.30338">
        <ele>60.1</ele>
        <time>2011-10-02T08:13:59Z</time>
      </trkpt>
      <trkpt lat="47.34075" lon="-1.30346">
        <ele>59.9</ele>
        <time>2011-10-02T08:14:00Z</time>
      </trkpt>
      <trkpt lat="47.34072" lon="-1.30353">
        <ele>59.8</ele>
        <time>2011-10-02T08:14:01Z</time>
      </trkpt>
      <trkpt lat="47.34069" lon="-1.3036">
        <ele>59.6</ele>
        <time>2011-10-02T08:14:02Z</time>
      </trkpt>
      <trkpt lat="47.3406" lon="-1.30373">
        <ele>61.7</ele>
        <time>2011-10-02T08:14:04Z</time>
      </trkpt>
      <trkpt lat="47.34053" lon="-1.30376">
        <ele>61.4</ele>
        <time>2011-10-02T08:14:05Z</time>
      </trkpt>
      <trkpt lat="47.3405" lon="-1.30382">
        <ele>61.8</ele>
        <time>2011-10-02T08:14:06Z</time>
      </trkpt>
      <trkpt lat="47.34045" lon="-1.30384">
        <ele>60.4</ele>
        <time>2011-10-02T08:14:07Z</time>
      </trkpt>
      <trkpt lat="47.34039" lon="-1.30389">
        <ele>60.3</ele>
        <time>2011-10-02T08:14:09Z</time>
      </trkpt>
      <trkpt lat="47.34035" lon="-1.304">
        <ele>60.7</ele>
        <time>2011-10-02T08:14:11Z</time>
      </trkpt>
      <trkpt lat="47.34031" lon="-1.30407">
        <ele>61</ele>
        <time>2011-10-02T08:14:12Z</time>
      </trkpt>
      <trkpt lat="47.34026" lon="-1.30414">
        <ele>60.9</ele>
        <time>2011-10-02T08:14:13Z</time>
      </trkpt>
      <trkpt lat="47.34022" lon="-1.3042">
        <ele>61.4</ele>
        <time>2011-10-02T08:14:14Z</time>
      </trkpt>
      <trkpt lat="47.3402" lon="-1.30428">
        <ele>61.1</ele>
        <time>2011-10-02T08:14:15Z</time>
      </trkpt>
      <trkpt lat="47.34018" lon="-1.30434">
        <ele>61</ele>
        <time>2011-10-02T08:14:16Z</time>
      </trkpt>
      <trkpt lat="47.34016" lon="-1.30441">
        <ele>60.7</ele>
        <time>2011-10-02T08:14:17Z</time>
      </trkpt>
      <trkpt lat="47.34014" lon="-1.30449">
        <ele>60.2</ele>
        <time>2011-10-02T08:14:18Z</time>
      </trkpt>
      <trkpt lat="47.34014" lon="-1.30456">
        <ele>60.2</ele>
        <time>2011-10-02T08:14:19Z</time>
      </trkpt>
      <trkpt lat="47.34014" lon="-1.30463">
        <ele>60.5</ele>
        <time>2011-10-02T08:14:20Z</time>
      </trkpt>
      <trkpt lat="47.34012" lon="-1.3047">
        <ele>60.7</ele>
        <time>2011-10-02T08:14:21Z</time>
      </trkpt>
      <trkpt lat="47.34012" lon="-1.30477">
        <ele>61.3</ele>
        <time>2011-10-02T08:14:22Z</time>
      </trkpt>
      <trkpt lat="47.34012" lon="-1.30484">
        <ele>61.7</ele>
        <time>2011-10-02T08:14:23Z</time>
      </trkpt>
      <trkpt lat="47.34012" lon="-1.30499">
        <ele>60.9</ele>
        <time>2011-10-02T08:14:25Z</time>
      </trkpt>
      <trkpt lat="47.34011" lon="-1.30507">
        <ele>61.2</ele>
        <time>2011-10-02T08:14:26Z</time>
      </trkpt>
      <trkpt lat="47.34011" lon="-1.30514">
        <ele>60.9</ele>
        <time>2011-10-02T08:14:27Z</time>
      </trkpt>
      <trkpt lat="47.34012" lon="-1.30522">
        <ele>60.6</ele>
        <time>2011-10-02T08:14:28Z</time>
      </trkpt>
      <trkpt lat="47.34012" lon="-1.3053">
        <ele>61.1</ele>
        <time>2011-10-02T08:14:29Z</time>
      </trkpt>
      <trkpt lat="47.34012" lon="-1.30538">
        <ele>60.8</ele>
        <time>2011-10-02T08:14:30Z</time>
      </trkpt>
      <trkpt lat="47.34011" lon="-1.30547">
        <ele>61.1</ele>
        <time>2011-10-02T08:14:31Z</time>
      </trkpt>
      <trkpt lat="47.34009" lon="-1.30554">
        <ele>60.9</ele>
        <time>2011-10-02T08:14:32Z</time>
      </trkpt>
      <trkpt lat="47.34008" lon="-1.30561">
        <ele>61.1</ele>
        <time>2011-10-02T08:14:33Z</time>
      </trkpt>
      <trkpt lat="47.34006" lon="-1.30568">
        <ele>61.4</ele>
        <time>2011-10-02T08:14:34Z</time>
      </trkpt>
      <trkpt lat="47.34003" lon="-1.30575">
        <ele>61.6</ele>
        <time>2011-10-02T08:14:35Z</time>
      </trkpt>
      <trkpt lat="47.34001" lon="-1.30582">
        <ele>61.8</ele>
        <time>2011-10-02T08:14:36Z</time>
      </trkpt>
      <trkpt lat="47.34" lon="-1.30589">
        <ele>61.8</ele>
        <time>2011-10-02T08:14:37Z</time>
      </trkpt>
      <trkpt lat="47.33999" lon="-1.30596">
        <ele>61.4</ele>
        <time>2011-10-02T08:14:38Z</time>
      </trkpt>
      <trkpt lat="47.33997" lon="-1.30603">
        <ele>61.8</ele>
        <time>2011-10-02T08:14:39Z</time>
      </trkpt>
      <trkpt lat="47.33995" lon="-1.3061">
        <ele>62.2</ele>
        <time>2011-10-02T08:14:40Z</time>
      </trkpt>
      <trkpt lat="47.33992" lon="-1.30622">
        <ele>62.1</ele>
        <time>2011-10-02T08:14:42Z</time>
      </trkpt>
      <trkpt lat="47.33988" lon="-1.30628">
        <ele>63</ele>
        <time>2011-10-02T08:14:43Z</time>
      </trkpt>
      <trkpt lat="47.33986" lon="-1.30634">
        <ele>63</ele>
        <time>2011-10-02T08:14:44Z</time>
      </trkpt>
      <trkpt lat="47.33983" lon="-1.30641">
        <ele>63</ele>
        <time>2011-10-02T08:14:45Z</time>
      </trkpt>
      <trkpt lat="47.3398" lon="-1.30647">
        <ele>63.8</ele>
        <time>2011-10-02T08:14:46Z</time>
      </trkpt>
      <trkpt lat="47.33977" lon="-1.30652">
        <ele>63.6</ele>
        <time>2011-10-02T08:14:47Z</time>
      </trkpt>
      <trkpt lat="47.33973" lon="-1.30659">
        <ele>64.1</ele>
        <time>2011-10-02T08:14:49Z</time>
      </trkpt>
      <trkpt lat="47.33968" lon="-1.30665">
        <ele>63.7</ele>
        <time>2011-10-02T08:14:50Z</time>
      </trkpt>
      <trkpt lat="47.33963" lon="-1.30674">
        <ele>65.8</ele>
        <time>2011-10-02T08:14:51Z</time>
      </trkpt>
      <trkpt lat="47.33961" lon="-1.3068">
        <ele>65.9</ele>
        <time>2011-10-02T08:14:53Z</time>
      </trkpt>
      <trkpt lat="47.33959" lon="-1.3069">
        <ele>66</ele>
        <time>2011-10-02T08:14:54Z</time>
      </trkpt>
      <trkpt lat="47.33962" lon="-1.30695">
        <ele>66.6</ele>
        <time>2011-10-02T08:14:55Z</time>
      </trkpt>
      <trkpt lat="47.33971" lon="-1.30694">
        <ele>65.6</ele>
        <time>2011-10-02T08:14:57Z</time>
      </trkpt>
      <trkpt lat="47.33976" lon="-1.30699">
        <ele>63.7</ele>
        <time>2011-10-02T08:14:59Z</time>
      </trkpt>
      <trkpt lat="47.33979" lon="-1.30704">
        <ele>64.4</ele>
        <time>2011-10-02T08:15:02Z</time>
      </trkpt>
      <trkpt lat="47.33979" lon="-1.30712">
        <ele>63.5</ele>
        <time>2011-10-02T08:15:07Z</time>
      </trkpt>
      <trkpt lat="47.33982" lon="-1.30717">
        <ele>63.9</ele>
        <time>2011-10-02T08:15:12Z</time>
      </trkpt>
      <trkpt lat="47.33984" lon="-1.30724">
        <ele>65.6</ele>
        <time>2011-10-02T08:15:17Z</time>
      </trkpt>
      <trkpt lat="47.33988" lon="-1.3073">
        <ele>67</ele>
        <time>2011-10-02T08:15:20Z</time>
      </trkpt>
      <trkpt lat="47.33991" lon="-1.30735">
        <ele>69.4</ele>
        <time>2011-10-02T08:15:22Z</time>
      </trkpt>
      <trkpt lat="47.3399" lon="-1.30742">
        <ele>68.3</ele>
        <time>2011-10-02T08:15:29Z</time>
      </trkpt>
      <trkpt lat="47.33992" lon="-1.30748">
        <ele>69.6</ele>
        <time>2011-10-02T08:15:32Z</time>
      </trkpt>
      <trkpt lat="47.33996" lon="-1.30755">
        <ele>69</ele>
        <time>2011-10-02T08:15:34Z</time>
      </trkpt>
      <trkpt lat="47.33992" lon="-1.30761">
        <ele>69.2</ele>
        <time>2011-10-02T08:15:43Z</time>
      </trkpt>
      <trkpt lat="47.33988" lon="-1.30764">
        <ele>74.5</ele>
        <time>2011-10-02T08:15:49Z</time>
      </trkpt>
      <trkpt lat="47.33991" lon="-1.3077">
        <ele>74.7</ele>
        <time>2011-10-02T08:15:52Z</time>
      </trkpt>
      <trkpt lat="47.33986" lon="-1.30774">
        <ele>74.5</ele>
        <time>2011-10-02T08:15:57Z</time>
      </trkpt>
      <trkpt lat="47.33981" lon="-1.30775">
        <ele>76.4</ele>
        <time>2011-10-02T08:15:59Z</time>
      </trkpt>
      <trkpt lat="47.33975" lon="-1.30777">
        <ele>79.2</ele>
        <time>2011-10-02T08:16:18Z</time>
      </trkpt>
      <trkpt lat="47.33975" lon="-1.30785">
        <ele>78.6</ele>
        <time>2011-10-02T08:16:27Z</time>
      </trkpt>
      <trkpt lat="47.33978" lon="-1.30791">
        <ele>80.9</ele>
        <time>2011-10-02T08:16:31Z</time>
      </trkpt>
      <trkpt lat="47.33983" lon="-1.30788">
        <ele>82</ele>
        <time>2011-10-02T08:16:38Z</time>
      </trkpt>
      <trkpt lat="47.33987" lon="-1.30788">
        <ele>89.3</ele>
        <time>2011-10-02T08:16:53Z</time>
      </trkpt>
      <trkpt lat="47.33992" lon="-1.30788">
        <ele>89.2</ele>
        <time>2011-10-02T08:17:01Z</time>
      </trkpt>
      <trkpt lat="47.33997" lon="-1.3079">
        <ele>89.4</ele>
        <time>2011-10-02T08:17:07Z</time>
      </trkpt>
      <trkpt lat="47.34001" lon="-1.30793">
        <ele>88.7</ele>
        <time>2011-10-02T08:17:11Z</time>
      </trkpt>
      <trkpt lat="47.34" lon="-1.308">
        <ele>91.4</ele>
        <time>2011-10-02T08:17:20Z</time>
      </trkpt>
      <trkpt lat="47.34001" lon="-1.30807">
        <ele>94.1</ele>
        <time>2011-10-02T08:17:26Z</time>
      </trkpt>
      <trkpt lat="47.33999" lon="-1.30813">
        <ele>93.9</ele>
        <time>2011-10-02T08:17:33Z</time>
      </trkpt>
      <trkpt lat="47.33997" lon="-1.3082">
        <ele>89.4</ele>
        <time>2011-10-02T08:17:46Z</time>
      </trkpt>
      <trkpt lat="47.33996" lon="-1.30827">
        <ele>88.8</ele>
        <time>2011-10-02T08:17:54Z</time>
      </trkpt>
      <trkpt lat="47.33994" lon="-1.30836">
        <ele>90.5</ele>
        <time>2011-10-02T08:17:59Z</time>
      </trkpt>
      <trkpt lat="47.33988" lon="-1.30837">
        <ele>91</ele>
        <time>2011-10-02T08:18:09Z</time>
      </trkpt>
      <trkpt lat="47.33984" lon="-1.30837">
        <ele>93.3</ele>
        <time>2011-10-02T08:18:14Z</time>
      </trkpt>
      <trkpt lat="47.33984" lon="-1.30837">
        <ele>93.3</ele>
        <time>2011-10-02T08:18:14Z</time>
      </trkpt>
      <trkpt lat="47.33984" lon="-1.30837">
        <ele>93.3</ele>
        <time>2011-10-02T08:18:15Z</time>
      </trkpt>
      <trkpt lat="47.33978" lon="-1.30839">
        <ele>95.2</ele>
        <time>2011-10-02T08:18:27Z</time>
      </trkpt>
      <trkpt lat="47.33973" lon="-1.30842">
        <ele>95.2</ele>
        <time>2011-10-02T08:18:31Z</time>
      </trkpt>
      <trkpt lat="47.33968" lon="-1.30843">
        <ele>95.5</ele>
        <time>2011-10-02T08:18:33Z</time>
      </trkpt>
      <trkpt lat="47.33964" lon="-1.30849">
        <ele>95.7</ele>
        <time>2011-10-02T08:18:38Z</time>
      </trkpt>
      <trkpt lat="47.33959" lon="-1.30851">
        <ele>99.3</ele>
        <time>2011-10-02T08:18:56Z</time>
      </trkpt>
      <trkpt lat="47.33955" lon="-1.30855">
        <ele>96.8</ele>
        <time>2011-10-02T08:19:00Z</time>
      </trkpt>
      <trkpt lat="47.3395" lon="-1.30857">
        <ele>98</ele>
        <time>2011-10-02T08:19:01Z</time>
      </trkpt>
      <trkpt lat="47.33944" lon="-1.30859">
        <ele>98</ele>
        <time>2011-10-02T08:19:03Z</time>
      </trkpt>
      <trkpt lat="47.33937" lon="-1.30862">
        <ele>98.5</ele>
        <time>2011-10-02T08:19:06Z</time>
      </trkpt>
      <trkpt lat="47.33931" lon="-1.30867">
        <ele>100.4</ele>
        <time>2011-10-02T08:19:08Z</time>
      </trkpt>
      <trkpt lat="47.33927" lon="-1.3087">
        <ele>101.2</ele>
        <time>2011-10-02T08:19:10Z</time>
      </trkpt>
      <trkpt lat="47.33922" lon="-1.30873">
        <ele>101.5</ele>
        <time>2011-10-02T08:19:12Z</time>
      </trkpt>
      <trkpt lat="47.33917" lon="-1.30875">
        <ele>101.2</ele>
        <time>2011-10-02T08:19:15Z</time>
      </trkpt>
      <trkpt lat="47.33912" lon="-1.30874">
        <ele>97.3</ele>
        <time>2011-10-02T08:21:27Z</time>
      </trkpt>
      <trkpt lat="47.33917" lon="-1.30869">
        <ele>98.3</ele>
        <time>2011-10-02T08:22:21Z</time>
      </trkpt>
      <trkpt lat="47.33913" lon="-1.30866">
        <ele>97.3</ele>
        <time>2011-10-02T08:22:27Z</time>
      </trkpt>
      <trkpt lat="47.33917" lon="-1.3087">
        <ele>95.5</ele>
        <time>2011-10-02T08:22:44Z</time>
      </trkpt>
      <trkpt lat="47.33918" lon="-1.30876">
        <ele>95.8</ele>
        <time>2011-10-02T08:22:46Z</time>
      </trkpt>
      <trkpt lat="47.33914" lon="-1.3088">
        <ele>101.6</ele>
        <time>2011-10-02T08:22:49Z</time>
      </trkpt>
      <trkpt lat="47.33918" lon="-1.3089">
        <ele>104.3</ele>
        <time>2011-10-02T08:22:51Z</time>
      </trkpt>
      <trkpt lat="47.33912" lon="-1.30887">
        <ele>105.7</ele>
        <time>2011-10-02T08:22:53Z</time>
      </trkpt>
      <trkpt lat="47.33907" lon="-1.30892">
        <ele>104.5</ele>
        <time>2011-10-02T08:23:08Z</time>
      </trkpt>
      <trkpt lat="47.33901" lon="-1.30896">
        <ele>105.8</ele>
        <time>2011-10-02T08:23:12Z</time>
      </trkpt>
      <trkpt lat="47.33897" lon="-1.30898">
        <ele>104.7</ele>
        <time>2011-10-02T08:23:20Z</time>
      </trkpt>
      <trkpt lat="47.33891" lon="-1.30908">
        <ele>105.1</ele>
        <time>2011-10-02T08:23:26Z</time>
      </trkpt>
      <trkpt lat="47.33892" lon="-1.30915">
        <ele>105.9</ele>
        <time>2011-10-02T08:23:28Z</time>
      </trkpt>
      <trkpt lat="47.33894" lon="-1.30921">
        <ele>105.1</ele>
        <time>2011-10-02T08:23:30Z</time>
      </trkpt>
      <trkpt lat="47.3389" lon="-1.30926">
        <ele>105.8</ele>
        <time>2011-10-02T08:23:37Z</time>
      </trkpt>
      <trkpt lat="47.33886" lon="-1.30932">
        <ele>108</ele>
        <time>2011-10-02T08:23:43Z</time>
      </trkpt>
      <trkpt lat="47.33891" lon="-1.30937">
        <ele>109.5</ele>
        <time>2011-10-02T08:23:50Z</time>
      </trkpt>
      <trkpt lat="47.33893" lon="-1.30946">
        <ele>111.6</ele>
        <time>2011-10-02T08:23:55Z</time>
      </trkpt>
      <trkpt lat="47.33897" lon="-1.3095">
        <ele>111</ele>
        <time>2011-10-02T08:23:56Z</time>
      </trkpt>
      <trkpt lat="47.33896" lon="-1.30958">
        <ele>110.5</ele>
        <time>2011-10-02T08:23:58Z</time>
      </trkpt>
      <trkpt lat="47.33899" lon="-1.30965">
        <ele>112.4</ele>
        <time>2011-10-02T08:24:00Z</time>
      </trkpt>
      <trkpt lat="47.33902" lon="-1.30975">
        <ele>110.4</ele>
        <time>2011-10-02T08:24:03Z</time>
      </trkpt>
      <trkpt lat="47.33903" lon="-1.30982">
        <ele>110.2</ele>
        <time>2011-10-02T08:24:04Z</time>
      </trkpt>
      <trkpt lat="47.33907" lon="-1.30988">
        <ele>113.1</ele>
        <time>2011-10-02T08:24:06Z</time>
      </trkpt>
      <trkpt lat="47.33907" lon="-1.30996">
        <ele>110.9</ele>
        <time>2011-10-02T08:24:10Z</time>
      </trkpt>
      <trkpt lat="47.33912" lon="-1.30994">
        <ele>112.1</ele>
        <time>2011-10-02T08:24:12Z</time>
      </trkpt>
      <trkpt lat="47.33918" lon="-1.30994">
        <ele>113.6</ele>
        <time>2011-10-02T08:24:14Z</time>
      </trkpt>
      <trkpt lat="47.33923" lon="-1.30998">
        <ele>114</ele>
        <time>2011-10-02T08:24:16Z</time>
      </trkpt>
      <trkpt lat="47.33928" lon="-1.31001">
        <ele>113.8</ele>
        <time>2011-10-02T08:24:18Z</time>
      </trkpt>
      <trkpt lat="47.33936" lon="-1.31">
        <ele>110.8</ele>
        <time>2011-10-02T08:24:20Z</time>
      </trkpt>
      <trkpt lat="47.33943" lon="-1.30996">
        <ele>107.8</ele>
        <time>2011-10-02T08:24:22Z</time>
      </trkpt>
      <trkpt lat="47.33949" lon="-1.30998">
        <ele>107.7</ele>
        <time>2011-10-02T08:24:25Z</time>
      </trkpt>
      <trkpt lat="47.33953" lon="-1.31003">
        <ele>106.5</ele>
        <time>2011-10-02T08:24:26Z</time>
      </trkpt>
      <trkpt lat="47.33958" lon="-1.31006">
        <ele>106.8</ele>
        <time>2011-10-02T08:24:27Z</time>
      </trkpt>
      <trkpt lat="47.33964" lon="-1.31012">
        <ele>106.7</ele>
        <time>2011-10-02T08:24:29Z</time>
      </trkpt>
      <trkpt lat="47.33971" lon="-1.31015">
        <ele>107.3</ele>
        <time>2011-10-02T08:24:31Z</time>
      </trkpt>
      <trkpt lat="47.33976" lon="-1.31016">
        <ele>107.1</ele>
        <time>2011-10-02T08:24:34Z</time>
      </trkpt>
      <trkpt lat="47.33981" lon="-1.31018">
        <ele>107.2</ele>
        <time>2011-10-02T08:24:36Z</time>
      </trkpt>
      <trkpt lat="47.33975" lon="-1.31016">
        <ele>109.4</ele>
        <time>2011-10-02T08:24:44Z</time>
      </trkpt>
      <trkpt lat="47.33977" lon="-1.31023">
        <ele>108.5</ele>
        <time>2011-10-02T08:25:25Z</time>
      </trkpt>
      <trkpt lat="47.33976" lon="-1.3103">
        <ele>108.5</ele>
        <time>2011-10-02T08:25:26Z</time>
      </trkpt>
      <trkpt lat="47.33978" lon="-1.31036">
        <ele>108.8</ele>
        <time>2011-10-02T08:25:27Z</time>
      </trkpt>
      <trkpt lat="47.33979" lon="-1.31044">
        <ele>108.6</ele>
        <time>2011-10-02T08:25:28Z</time>
      </trkpt>
      <trkpt lat="47.33978" lon="-1.31054">
        <ele>106.6</ele>
        <time>2011-10-02T08:25:30Z</time>
      </trkpt>
      <trkpt lat="47.33975" lon="-1.31063">
        <ele>107.4</ele>
        <time>2011-10-02T08:25:32Z</time>
      </trkpt>
      <trkpt lat="47.33973" lon="-1.3107">
        <ele>107.2</ele>
        <time>2011-10-02T08:25:33Z</time>
      </trkpt>
      <trkpt lat="47.33966" lon="-1.31081">
        <ele>106.9</ele>
        <time>2011-10-02T08:25:34Z</time>
      </trkpt>
      <trkpt lat="47.33966" lon="-1.31088">
        <ele>107</ele>
        <time>2011-10-02T08:25:35Z</time>
      </trkpt>
      <trkpt lat="47.33964" lon="-1.31094">
        <ele>107.1</ele>
        <time>2011-10-02T08:25:36Z</time>
      </trkpt>
      <trkpt lat="47.33964" lon="-1.31104">
        <ele>106.3</ele>
        <time>2011-10-02T08:25:38Z</time>
      </trkpt>
      <trkpt lat="47.33964" lon="-1.31117">
        <ele>105.2</ele>
        <time>2011-10-02T08:25:40Z</time>
      </trkpt>
      <trkpt lat="47.33968" lon="-1.31127">
        <ele>106.2</ele>
        <time>2011-10-02T08:25:43Z</time>
      </trkpt>
      <trkpt lat="47.33968" lon="-1.31144">
        <ele>107.4</ele>
        <time>2011-10-02T08:25:45Z</time>
      </trkpt>
      <trkpt lat="47.33967" lon="-1.31152">
        <ele>107</ele>
        <time>2011-10-02T08:25:47Z</time>
      </trkpt>
      <trkpt lat="47.3397" lon="-1.31161">
        <ele>108.2</ele>
        <time>2011-10-02T08:25:50Z</time>
      </trkpt>
      <trkpt lat="47.3397" lon="-1.31173">
        <ele>107.6</ele>
        <time>2011-10-02T08:25:52Z</time>
      </trkpt>
      <trkpt lat="47.33959" lon="-1.31181">
        <ele>111.2</ele>
        <time>2011-10-02T08:25:55Z</time>
      </trkpt>
      <trkpt lat="47.33946" lon="-1.31193">
        <ele>112</ele>
        <time>2011-10-02T08:25:58Z</time>
      </trkpt>
      <trkpt lat="47.3394" lon="-1.31204">
        <ele>112.5</ele>
        <time>2011-10-02T08:26:00Z</time>
      </trkpt>
      <trkpt lat="47.33937" lon="-1.31209">
        <ele>113.7</ele>
        <time>2011-10-02T08:26:01Z</time>
      </trkpt>
      <trkpt lat="47.3393" lon="-1.31223">
        <ele>114.3</ele>
        <time>2011-10-02T08:26:02Z</time>
      </trkpt>
      <trkpt lat="47.33927" lon="-1.31228">
        <ele>113.6</ele>
        <time>2011-10-02T08:26:03Z</time>
      </trkpt>
      <trkpt lat="47.33921" lon="-1.31233">
        <ele>113.1</ele>
        <time>2011-10-02T08:26:04Z</time>
      </trkpt>
      <trkpt lat="47.33916" lon="-1.31238">
        <ele>113</ele>
        <time>2011-10-02T08:26:06Z</time>
      </trkpt>
      <trkpt lat="47.33913" lon="-1.31245">
        <ele>113.5</ele>
        <time>2011-10-02T08:26:07Z</time>
      </trkpt>
      <trkpt lat="47.33906" lon="-1.3126">
        <ele>114.6</ele>
        <time>2011-10-02T08:26:09Z</time>
      </trkpt>
      <trkpt lat="47.33901" lon="-1.31265">
        <ele>114.3</ele>
        <time>2011-10-02T08:26:10Z</time>
      </trkpt>
      <trkpt lat="47.33892" lon="-1.31272">
        <ele>113.7</ele>
        <time>2011-10-02T08:26:12Z</time>
      </trkpt>
      <trkpt lat="47.33894" lon="-1.31281">
        <ele>113.8</ele>
        <time>2011-10-02T08:26:13Z</time>
      </trkpt>
      <trkpt lat="47.33882" lon="-1.31291">
        <ele>113.6</ele>
        <time>2011-10-02T08:26:15Z</time>
      </trkpt>
      <trkpt lat="47.33879" lon="-1.31297">
        <ele>113.1</ele>
        <time>2011-10-02T08:26:16Z</time>
      </trkpt>
      <trkpt lat="47.33874" lon="-1.31304">
        <ele>113.5</ele>
        <time>2011-10-02T08:26:18Z</time>
      </trkpt>
      <trkpt lat="47.33868" lon="-1.31316">
        <ele>114.4</ele>
        <time>2011-10-02T08:26:20Z</time>
      </trkpt>
      <trkpt lat="47.33866" lon="-1.31326">
        <ele>115.1</ele>
        <time>2011-10-02T08:26:22Z</time>
      </trkpt>
      <trkpt lat="47.33862" lon="-1.3133">
        <ele>117.6</ele>
        <time>2011-10-02T08:26:23Z</time>
      </trkpt>
      <trkpt lat="47.33856" lon="-1.31338">
        <ele>119.1</ele>
        <time>2011-10-02T08:26:24Z</time>
      </trkpt>
      <trkpt lat="47.33851" lon="-1.31344">
        <ele>118.8</ele>
        <time>2011-10-02T08:26:25Z</time>
      </trkpt>
      <trkpt lat="47.33849" lon="-1.31352">
        <ele>118.4</ele>
        <time>2011-10-02T08:26:27Z</time>
      </trkpt>
      <trkpt lat="47.33846" lon="-1.31357">
        <ele>118.7</ele>
        <time>2011-10-02T08:26:28Z</time>
      </trkpt>
      <trkpt lat="47.33836" lon="-1.31376">
        <ele>116.6</ele>
        <time>2011-10-02T08:26:31Z</time>
      </trkpt>
      <trkpt lat="47.33834" lon="-1.31382">
        <ele>115.7</ele>
        <time>2011-10-02T08:26:32Z</time>
      </trkpt>
      <trkpt lat="47.33829" lon="-1.31397">
        <ele>115.8</ele>
        <time>2011-10-02T08:26:34Z</time>
      </trkpt>
      <trkpt lat="47.33826" lon="-1.31405">
        <ele>116.4</ele>
        <time>2011-10-02T08:26:36Z</time>
      </trkpt>
      <trkpt lat="47.33827" lon="-1.31416">
        <ele>116.7</ele>
        <time>2011-10-02T08:26:39Z</time>
      </trkpt>
      <trkpt lat="47.33824" lon="-1.31426">
        <ele>117.5</ele>
        <time>2011-10-02T08:26:41Z</time>
      </trkpt>
      <trkpt lat="47.33818" lon="-1.31434">
        <ele>117</ele>
        <time>2011-10-02T08:26:43Z</time>
      </trkpt>
      <trkpt lat="47.33818" lon="-1.31441">
        <ele>118.1</ele>
        <time>2011-10-02T08:26:44Z</time>
      </trkpt>
      <trkpt lat="47.33813" lon="-1.3145">
        <ele>117.3</ele>
        <time>2011-10-02T08:26:46Z</time>
      </trkpt>
      <trkpt lat="47.3381" lon="-1.31455">
        <ele>118.7</ele>
        <time>2011-10-02T08:26:48Z</time>
      </trkpt>
      <trkpt lat="47.33807" lon="-1.31461">
        <ele>118.6</ele>
        <time>2011-10-02T08:26:50Z</time>
      </trkpt>
      <trkpt lat="47.33805" lon="-1.31468">
        <ele>118.5</ele>
        <time>2011-10-02T08:26:51Z</time>
      </trkpt>
      <trkpt lat="47.33805" lon="-1.31476">
        <ele>118</ele>
        <time>2011-10-02T08:26:52Z</time>
      </trkpt>
      <trkpt lat="47.33803" lon="-1.31486">
        <ele>117</ele>
        <time>2011-10-02T08:26:55Z</time>
      </trkpt>
      <trkpt lat="47.33803" lon="-1.31495">
        <ele>115.6</ele>
        <time>2011-10-02T08:26:56Z</time>
      </trkpt>
      <trkpt lat="47.33798" lon="-1.31504">
        <ele>116.4</ele>
        <time>2011-10-02T08:26:58Z</time>
      </trkpt>
      <trkpt lat="47.33791" lon="-1.3151">
        <ele>117.3</ele>
        <time>2011-10-02T08:27:00Z</time>
      </trkpt>
      <trkpt lat="47.33789" lon="-1.31517">
        <ele>117.3</ele>
        <time>2011-10-02T08:27:01Z</time>
      </trkpt>
      <trkpt lat="47.33787" lon="-1.31524">
        <ele>118.3</ele>
        <time>2011-10-02T08:27:03Z</time>
      </trkpt>
      <trkpt lat="47.33785" lon="-1.31538">
        <ele>118.1</ele>
        <time>2011-10-02T08:27:05Z</time>
      </trkpt>
      <trkpt lat="47.33784" lon="-1.31546">
        <ele>118.9</ele>
        <time>2011-10-02T08:27:07Z</time>
      </trkpt>
      <trkpt lat="47.33784" lon="-1.31555">
        <ele>119.3</ele>
        <time>2011-10-02T08:27:10Z</time>
      </trkpt>
      <trkpt lat="47.33781" lon="-1.31568">
        <ele>120.1</ele>
        <time>2011-10-02T08:27:13Z</time>
      </trkpt>
      <trkpt lat="47.3378" lon="-1.3158">
        <ele>120.5</ele>
        <time>2011-10-02T08:27:15Z</time>
      </trkpt>
      <trkpt lat="47.3378" lon="-1.31593">
        <ele>120.5</ele>
        <time>2011-10-02T08:27:17Z</time>
      </trkpt>
      <trkpt lat="47.3378" lon="-1.31602">
        <ele>120.6</ele>
        <time>2011-10-02T08:27:19Z</time>
      </trkpt>
      <trkpt lat="47.33775" lon="-1.31613">
        <ele>122.7</ele>
        <time>2011-10-02T08:27:21Z</time>
      </trkpt>
      <trkpt lat="47.33776" lon="-1.31622">
        <ele>122.3</ele>
        <time>2011-10-02T08:27:22Z</time>
      </trkpt>
      <trkpt lat="47.33776" lon="-1.31631">
        <ele>123.6</ele>
        <time>2011-10-02T08:27:24Z</time>
      </trkpt>
      <trkpt lat="47.33775" lon="-1.31647">
        <ele>123.5</ele>
        <time>2011-10-02T08:27:27Z</time>
      </trkpt>
      <trkpt lat="47.33774" lon="-1.31658">
        <ele>123</ele>
        <time>2011-10-02T08:27:29Z</time>
      </trkpt>
      <trkpt lat="47.33773" lon="-1.31668">
        <ele>122.9</ele>
        <time>2011-10-02T08:27:31Z</time>
      </trkpt>
      <trkpt lat="47.3377" lon="-1.31678">
        <ele>124.1</ele>
        <time>2011-10-02T08:27:33Z</time>
      </trkpt>
      <trkpt lat="47.33768" lon="-1.31687">
        <ele>124.3</ele>
        <time>2011-10-02T08:27:35Z</time>
      </trkpt>
      <trkpt lat="47.33766" lon="-1.31694">
        <ele>125.2</ele>
        <time>2011-10-02T08:27:37Z</time>
      </trkpt>
      <trkpt lat="47.33765" lon="-1.31704">
        <ele>123.8</ele>
        <time>2011-10-02T08:27:39Z</time>
      </trkpt>
      <trkpt lat="47.33764" lon="-1.31714">
        <ele>124.1</ele>
        <time>2011-10-02T08:27:41Z</time>
      </trkpt>
      <trkpt lat="47.33761" lon="-1.3172">
        <ele>123.5</ele>
        <time>2011-10-02T08:27:42Z</time>
      </trkpt>
      <trkpt lat="47.33758" lon="-1.3173">
        <ele>122.9</ele>
        <time>2011-10-02T08:27:44Z</time>
      </trkpt>
      <trkpt lat="47.33754" lon="-1.31739">
        <ele>123.7</ele>
        <time>2011-10-02T08:27:46Z</time>
      </trkpt>
      <trkpt lat="47.3375" lon="-1.3175">
        <ele>123.7</ele>
        <time>2011-10-02T08:27:48Z</time>
      </trkpt>
      <trkpt lat="47.33746" lon="-1.31762">
        <ele>123.4</ele>
        <time>2011-10-02T08:27:50Z</time>
      </trkpt>
      <trkpt lat="47.33744" lon="-1.31767">
        <ele>123.7</ele>
        <time>2011-10-02T08:27:51Z</time>
      </trkpt>
      <trkpt lat="47.33741" lon="-1.31774">
        <ele>123.5</ele>
        <time>2011-10-02T08:27:52Z</time>
      </trkpt>
      <trkpt lat="47.33738" lon="-1.3178">
        <ele>123.1</ele>
        <time>2011-10-02T08:27:53Z</time>
      </trkpt>
      <trkpt lat="47.33736" lon="-1.31787">
        <ele>122.7</ele>
        <time>2011-10-02T08:27:54Z</time>
      </trkpt>
      <trkpt lat="47.33733" lon="-1.31794">
        <ele>122.6</ele>
        <time>2011-10-02T08:27:55Z</time>
      </trkpt>
      <trkpt lat="47.33731" lon="-1.31801">
        <ele>122.6</ele>
        <time>2011-10-02T08:27:56Z</time>
      </trkpt>
      <trkpt lat="47.33729" lon="-1.31809">
        <ele>122.6</ele>
        <time>2011-10-02T08:27:57Z</time>
      </trkpt>
      <trkpt lat="47.33726" lon="-1.31817">
        <ele>122.6</ele>
        <time>2011-10-02T08:27:58Z</time>
      </trkpt>
      <trkpt lat="47.33723" lon="-1.31825">
        <ele>122.2</ele>
        <time>2011-10-02T08:27:59Z</time>
      </trkpt>
      <trkpt lat="47.3372" lon="-1.31833">
        <ele>122.1</ele>
        <time>2011-10-02T08:28:00Z</time>
      </trkpt>
      <trkpt lat="47.33717" lon="-1.3184">
        <ele>121.8</ele>
        <time>2011-10-02T08:28:01Z</time>
      </trkpt>
      <trkpt lat="47.3371" lon="-1.31856">
        <ele>120.4</ele>
        <time>2011-10-02T08:28:02Z</time>
      </trkpt>
      <trkpt lat="47.33705" lon="-1.31866">
        <ele>120.6</ele>
        <time>2011-10-02T08:28:04Z</time>
      </trkpt>
      <trkpt lat="47.337" lon="-1.31875">
        <ele>120.2</ele>
        <time>2011-10-02T08:28:05Z</time>
      </trkpt>
      <trkpt lat="47.33696" lon="-1.31883">
        <ele>120</ele>
        <time>2011-10-02T08:28:06Z</time>
      </trkpt>
      <trkpt lat="47.33692" lon="-1.31891">
        <ele>120.3</ele>
        <time>2011-10-02T08:28:07Z</time>
      </trkpt>
      <trkpt lat="47.33687" lon="-1.31899">
        <ele>120.2</ele>
        <time>2011-10-02T08:28:08Z</time>
      </trkpt>
      <trkpt lat="47.33682" lon="-1.31908">
        <ele>120.1</ele>
        <time>2011-10-02T08:28:09Z</time>
      </trkpt>
      <trkpt lat="47.33677" lon="-1.31915">
        <ele>120.3</ele>
        <time>2011-10-02T08:28:10Z</time>
      </trkpt>
      <trkpt lat="47.33672" lon="-1.31923">
        <ele>120.2</ele>
        <time>2011-10-02T08:28:11Z</time>
      </trkpt>
      <trkpt lat="47.33668" lon="-1.31932">
        <ele>120.3</ele>
        <time>2011-10-02T08:28:12Z</time>
      </trkpt>
      <trkpt lat="47.33663" lon="-1.31941">
        <ele>119.9</ele>
        <time>2011-10-02T08:28:13Z</time>
      </trkpt>
      <trkpt lat="47.33658" lon="-1.3195">
        <ele>119.7</ele>
        <time>2011-10-02T08:28:14Z</time>
      </trkpt>
      <trkpt lat="47.33653" lon="-1.31959">
        <ele>119.5</ele>
        <time>2011-10-02T08:28:15Z</time>
      </trkpt>
      <trkpt lat="47.33648" lon="-1.31969">
        <ele>119.4</ele>
        <time>2011-10-02T08:28:16Z</time>
      </trkpt>
      <trkpt lat="47.33644" lon="-1.31979">
        <ele>119.2</ele>
        <time>2011-10-02T08:28:17Z</time>
      </trkpt>
      <trkpt lat="47.33638" lon="-1.31988">
        <ele>118.7</ele>
        <time>2011-10-02T08:28:18Z</time>
      </trkpt>
      <trkpt lat="47.33633" lon="-1.31998">
        <ele>118.7</ele>
        <time>2011-10-02T08:28:19Z</time>
      </trkpt>
      <trkpt lat="47.33628" lon="-1.32009">
        <ele>118.5</ele>
        <time>2011-10-02T08:28:20Z</time>
      </trkpt>
      <trkpt lat="47.33623" lon="-1.32022">
        <ele>118.9</ele>
        <time>2011-10-02T08:28:21Z</time>
      </trkpt>
      <trkpt lat="47.33617" lon="-1.32028">
        <ele>119</ele>
        <time>2011-10-02T08:28:22Z</time>
      </trkpt>
      <trkpt lat="47.33609" lon="-1.32033">
        <ele>119.1</ele>
        <time>2011-10-02T08:28:23Z</time>
      </trkpt>
      <trkpt lat="47.33601" lon="-1.32036">
        <ele>119.2</ele>
        <time>2011-10-02T08:28:24Z</time>
      </trkpt>
      <trkpt lat="47.3359" lon="-1.32034">
        <ele>119.2</ele>
        <time>2011-10-02T08:28:25Z</time>
      </trkpt>
      <trkpt lat="47.33581" lon="-1.32034">
        <ele>119.3</ele>
        <time>2011-10-02T08:28:26Z</time>
      </trkpt>
      <trkpt lat="47.3357" lon="-1.32034">
        <ele>118.9</ele>
        <time>2011-10-02T08:28:27Z</time>
      </trkpt>
      <trkpt lat="47.3356" lon="-1.32032">
        <ele>118.4</ele>
        <time>2011-10-02T08:28:28Z</time>
      </trkpt>
      <trkpt lat="47.33552" lon="-1.3203">
        <ele>118</ele>
        <time>2011-10-02T08:28:29Z</time>
      </trkpt>
      <trkpt lat="47.33544" lon="-1.32026">
        <ele>117.6</ele>
        <time>2011-10-02T08:28:30Z</time>
      </trkpt>
      <trkpt lat="47.33538" lon="-1.32019">
        <ele>116.8</ele>
        <time>2011-10-02T08:28:31Z</time>
      </trkpt>
      <trkpt lat="47.3353" lon="-1.32013">
        <ele>116.2</ele>
        <time>2011-10-02T08:28:32Z</time>
      </trkpt>
      <trkpt lat="47.33522" lon="-1.32007">
        <ele>115.7</ele>
        <time>2011-10-02T08:28:33Z</time>
      </trkpt>
      <trkpt lat="47.33515" lon="-1.32001">
        <ele>115.8</ele>
        <time>2011-10-02T08:28:34Z</time>
      </trkpt>
      <trkpt lat="47.33507" lon="-1.31994">
        <ele>115.8</ele>
        <time>2011-10-02T08:28:35Z</time>
      </trkpt>
      <trkpt lat="47.335" lon="-1.31989">
        <ele>115.8</ele>
        <time>2011-10-02T08:28:36Z</time>
      </trkpt>
      <trkpt lat="47.33492" lon="-1.31983">
        <ele>115.7</ele>
        <time>2011-10-02T08:28:37Z</time>
      </trkpt>
      <trkpt lat="47.33484" lon="-1.3198">
        <ele>115.6</ele>
        <time>2011-10-02T08:28:38Z</time>
      </trkpt>
      <trkpt lat="47.33476" lon="-1.31979">
        <ele>115.9</ele>
        <time>2011-10-02T08:28:39Z</time>
      </trkpt>
      <trkpt lat="47.3347" lon="-1.31978">
        <ele>115.6</ele>
        <time>2011-10-02T08:28:40Z</time>
      </trkpt>
      <trkpt lat="47.33464" lon="-1.31992">
        <ele>116.7</ele>
        <time>2011-10-02T08:28:41Z</time>
      </trkpt>
      <trkpt lat="47.33446" lon="-1.32015">
        <ele>113.8</ele>
        <time>2011-10-02T08:28:43Z</time>
      </trkpt>
      <trkpt lat="47.33437" lon="-1.32028">
        <ele>113.3</ele>
        <time>2011-10-02T08:28:45Z</time>
      </trkpt>
      <trkpt lat="47.33433" lon="-1.3204">
        <ele>112.2</ele>
        <time>2011-10-02T08:28:46Z</time>
      </trkpt>
      <trkpt lat="47.33429" lon="-1.32051">
        <ele>111.7</ele>
        <time>2011-10-02T08:28:47Z</time>
      </trkpt>
      <trkpt lat="47.33424" lon="-1.32063">
        <ele>111.4</ele>
        <time>2011-10-02T08:28:48Z</time>
      </trkpt>
      <trkpt lat="47.33421" lon="-1.32074">
        <ele>110.8</ele>
        <time>2011-10-02T08:28:49Z</time>
      </trkpt>
      <trkpt lat="47.33416" lon="-1.32086">
        <ele>110.2</ele>
        <time>2011-10-02T08:28:50Z</time>
      </trkpt>
      <trkpt lat="47.33411" lon="-1.32097">
        <ele>109.9</ele>
        <time>2011-10-02T08:28:51Z</time>
      </trkpt>
      <trkpt lat="47.33406" lon="-1.32109">
        <ele>110.1</ele>
        <time>2011-10-02T08:28:52Z</time>
      </trkpt>
      <trkpt lat="47.334" lon="-1.32118">
        <ele>110</ele>
        <time>2011-10-02T08:28:53Z</time>
      </trkpt>
      <trkpt lat="47.33394" lon="-1.32129">
        <ele>109.5</ele>
        <time>2011-10-02T08:28:54Z</time>
      </trkpt>
      <trkpt lat="47.33387" lon="-1.32138">
        <ele>109.2</ele>
        <time>2011-10-02T08:28:55Z</time>
      </trkpt>
      <trkpt lat="47.3338" lon="-1.32147">
        <ele>109.1</ele>
        <time>2011-10-02T08:28:56Z</time>
      </trkpt>
      <trkpt lat="47.33375" lon="-1.32153">
        <ele>108.9</ele>
        <time>2011-10-02T08:28:57Z</time>
      </trkpt>
      <trkpt lat="47.33357" lon="-1.3216">
        <ele>107.9</ele>
        <time>2011-10-02T08:28:59Z</time>
      </trkpt>
      <trkpt lat="47.33347" lon="-1.32155">
        <ele>108</ele>
        <time>2011-10-02T08:29:00Z</time>
      </trkpt>
      <trkpt lat="47.33337" lon="-1.32148">
        <ele>108.1</ele>
        <time>2011-10-02T08:29:01Z</time>
      </trkpt>
      <trkpt lat="47.33328" lon="-1.32149">
        <ele>107.1</ele>
        <time>2011-10-02T08:29:02Z</time>
      </trkpt>
      <trkpt lat="47.33322" lon="-1.3215">
        <ele>106.8</ele>
        <time>2011-10-02T08:29:03Z</time>
      </trkpt>
      <trkpt lat="47.33308" lon="-1.32154">
        <ele>106.6</ele>
        <time>2011-10-02T08:29:04Z</time>
      </trkpt>
      <trkpt lat="47.33305" lon="-1.32167">
        <ele>103.9</ele>
        <time>2011-10-02T08:29:06Z</time>
      </trkpt>
      <trkpt lat="47.33297" lon="-1.32169">
        <ele>103.6</ele>
        <time>2011-10-02T08:29:08Z</time>
      </trkpt>
      <trkpt lat="47.33299" lon="-1.32177">
        <ele>105.3</ele>
        <time>2011-10-02T08:29:18Z</time>
      </trkpt>
      <trkpt lat="47.33302" lon="-1.32188">
        <ele>102</ele>
        <time>2011-10-02T08:29:22Z</time>
      </trkpt>
      <trkpt lat="47.33304" lon="-1.32193">
        <ele>102.1</ele>
        <time>2011-10-02T08:29:24Z</time>
      </trkpt>
      <trkpt lat="47.333" lon="-1.32187">
        <ele>100.6</ele>
        <time>2011-10-02T08:29:25Z</time>
      </trkpt>
      <trkpt lat="47.33295" lon="-1.32182">
        <ele>98.9</ele>
        <time>2011-10-02T08:29:29Z</time>
      </trkpt>
      <trkpt lat="47.33297" lon="-1.32174">
        <ele>98.4</ele>
        <time>2011-10-02T08:29:33Z</time>
      </trkpt>
      <trkpt lat="47.33299" lon="-1.32168">
        <ele>100.5</ele>
        <time>2011-10-02T08:29:36Z</time>
      </trkpt>
      <trkpt lat="47.33303" lon="-1.32164">
        <ele>103.2</ele>
        <time>2011-10-02T08:29:39Z</time>
      </trkpt>
      <trkpt lat="47.33311" lon="-1.32156">
        <ele>106.9</ele>
        <time>2011-10-02T08:29:42Z</time>
      </trkpt>
      <trkpt lat="47.3332" lon="-1.32148">
        <ele>105.3</ele>
        <time>2011-10-02T08:29:44Z</time>
      </trkpt>
      <trkpt lat="47.33328" lon="-1.32142">
        <ele>104.1</ele>
        <time>2011-10-02T08:29:48Z</time>
      </trkpt>
      <trkpt lat="47.33338" lon="-1.32142">
        <ele>105.6</ele>
        <time>2011-10-02T08:29:52Z</time>
      </trkpt>
      <trkpt lat="47.33342" lon="-1.32146">
        <ele>107.1</ele>
        <time>2011-10-02T08:29:54Z</time>
      </trkpt>
      <trkpt lat="47.33347" lon="-1.32147">
        <ele>106.3</ele>
        <time>2011-10-02T08:29:56Z</time>
      </trkpt>
      <trkpt lat="47.33358" lon="-1.32149">
        <ele>106.5</ele>
        <time>2011-10-02T08:29:58Z</time>
      </trkpt>
      <trkpt lat="47.33364" lon="-1.32146">
        <ele>107.2</ele>
        <time>2011-10-02T08:30:00Z</time>
      </trkpt>
      <trkpt lat="47.33372" lon="-1.32145">
        <ele>106.8</ele>
        <time>2011-10-02T08:30:03Z</time>
      </trkpt>
      <trkpt lat="47.33378" lon="-1.32142">
        <ele>105.8</ele>
        <time>2011-10-02T08:30:05Z</time>
      </trkpt>
      <trkpt lat="47.33384" lon="-1.32136">
        <ele>105.8</ele>
        <time>2011-10-02T08:30:07Z</time>
      </trkpt>
      <trkpt lat="47.33392" lon="-1.32126">
        <ele>104.9</ele>
        <time>2011-10-02T08:30:10Z</time>
      </trkpt>
      <trkpt lat="47.33396" lon="-1.32119">
        <ele>105</ele>
        <time>2011-10-02T08:30:12Z</time>
      </trkpt>
      <trkpt lat="47.334" lon="-1.32111">
        <ele>106.3</ele>
        <time>2011-10-02T08:30:14Z</time>
      </trkpt>
      <trkpt lat="47.33404" lon="-1.32104">
        <ele>107.4</ele>
        <time>2011-10-02T08:30:16Z</time>
      </trkpt>
      <trkpt lat="47.33408" lon="-1.32096">
        <ele>107.7</ele>
        <time>2011-10-02T08:30:18Z</time>
      </trkpt>
      <trkpt lat="47.33412" lon="-1.32088">
        <ele>108</ele>
        <time>2011-10-02T08:30:20Z</time>
      </trkpt>
      <trkpt lat="47.33415" lon="-1.32081">
        <ele>108.4</ele>
        <time>2011-10-02T08:30:22Z</time>
      </trkpt>
      <trkpt lat="47.33419" lon="-1.32072">
        <ele>108.2</ele>
        <time>2011-10-02T08:30:24Z</time>
      </trkpt>
      <trkpt lat="47.33422" lon="-1.32064">
        <ele>108.8</ele>
        <time>2011-10-02T08:30:26Z</time>
      </trkpt>
      <trkpt lat="47.33426" lon="-1.32057">
        <ele>109.2</ele>
        <time>2011-10-02T08:30:28Z</time>
      </trkpt>
      <trkpt lat="47.33429" lon="-1.32049">
        <ele>109.8</ele>
        <time>2011-10-02T08:30:30Z</time>
      </trkpt>
      <trkpt lat="47.33433" lon="-1.32042">
        <ele>110.1</ele>
        <time>2011-10-02T08:30:32Z</time>
      </trkpt>
      <trkpt lat="47.33436" lon="-1.32035">
        <ele>110.9</ele>
        <time>2011-10-02T08:30:34Z</time>
      </trkpt>
      <trkpt lat="47.33439" lon="-1.32028">
        <ele>111.3</ele>
        <time>2011-10-02T08:30:37Z</time>
      </trkpt>
      <trkpt lat="47.33442" lon="-1.3202">
        <ele>111.5</ele>
        <time>2011-10-02T08:30:40Z</time>
      </trkpt>
      <trkpt lat="47.33445" lon="-1.32014">
        <ele>111.6</ele>
        <time>2011-10-02T08:30:42Z</time>
      </trkpt>
      <trkpt lat="47.33449" lon="-1.32008">
        <ele>111.6</ele>
        <time>2011-10-02T08:30:44Z</time>
      </trkpt>
      <trkpt lat="47.33452" lon="-1.32001">
        <ele>111.8</ele>
        <time>2011-10-02T08:30:46Z</time>
      </trkpt>
      <trkpt lat="47.33456" lon="-1.31994">
        <ele>111.9</ele>
        <time>2011-10-02T08:30:48Z</time>
      </trkpt>
      <trkpt lat="47.3346" lon="-1.31988">
        <ele>112.2</ele>
        <time>2011-10-02T08:30:50Z</time>
      </trkpt>
      <trkpt lat="47.33464" lon="-1.31982">
        <ele>112.8</ele>
        <time>2011-10-02T08:30:52Z</time>
      </trkpt>
      <trkpt lat="47.33469" lon="-1.31978">
        <ele>112.8</ele>
        <time>2011-10-02T08:30:54Z</time>
      </trkpt>
      <trkpt lat="47.33475" lon="-1.31976">
        <ele>113.3</ele>
        <time>2011-10-02T08:30:56Z</time>
      </trkpt>
      <trkpt lat="47.33482" lon="-1.31974">
        <ele>113.3</ele>
        <time>2011-10-02T08:30:58Z</time>
      </trkpt>
      <trkpt lat="47.33487" lon="-1.31971">
        <ele>113.3</ele>
        <time>2011-10-02T08:31:00Z</time>
      </trkpt>
      <trkpt lat="47.33496" lon="-1.31971">
        <ele>112.6</ele>
        <time>2011-10-02T08:31:02Z</time>
      </trkpt>
      <trkpt lat="47.33503" lon="-1.3198">
        <ele>115.8</ele>
        <time>2011-10-02T08:31:06Z</time>
      </trkpt>
      <trkpt lat="47.33511" lon="-1.31988">
        <ele>117.2</ele>
        <time>2011-10-02T08:31:08Z</time>
      </trkpt>
      <trkpt lat="47.33515" lon="-1.31994">
        <ele>116.5</ele>
        <time>2011-10-02T08:31:10Z</time>
      </trkpt>
      <trkpt lat="47.33522" lon="-1.31995">
        <ele>115.7</ele>
        <time>2011-10-02T08:31:12Z</time>
      </trkpt>
      <trkpt lat="47.33527" lon="-1.32002">
        <ele>114.3</ele>
        <time>2011-10-02T08:31:14Z</time>
      </trkpt>
      <trkpt lat="47.33538" lon="-1.32012">
        <ele>115.5</ele>
        <time>2011-10-02T08:31:18Z</time>
      </trkpt>
      <trkpt lat="47.33545" lon="-1.32016">
        <ele>114.1</ele>
        <time>2011-10-02T08:31:20Z</time>
      </trkpt>
      <trkpt lat="47.33551" lon="-1.32019">
        <ele>114.6</ele>
        <time>2011-10-02T08:31:22Z</time>
      </trkpt>
      <trkpt lat="47.33559" lon="-1.32021">
        <ele>115.9</ele>
        <time>2011-10-02T08:31:24Z</time>
      </trkpt>
      <trkpt lat="47.33568" lon="-1.3203">
        <ele>115.6</ele>
        <time>2011-10-02T08:31:26Z</time>
      </trkpt>
      <trkpt lat="47.33577" lon="-1.32029">
        <ele>114.4</ele>
        <time>2011-10-02T08:31:28Z</time>
      </trkpt>
      <trkpt lat="47.33586" lon="-1.32026">
        <ele>117.2</ele>
        <time>2011-10-02T08:31:30Z</time>
      </trkpt>
      <trkpt lat="47.33596" lon="-1.32023">
        <ele>116.6</ele>
        <time>2011-10-02T08:31:34Z</time>
      </trkpt>
      <trkpt lat="47.33601" lon="-1.32021">
        <ele>116.3</ele>
        <time>2011-10-02T08:31:36Z</time>
      </trkpt>
      <trkpt lat="47.33606" lon="-1.32017">
        <ele>115.7</ele>
        <time>2011-10-02T08:31:37Z</time>
      </trkpt>
      <trkpt lat="47.33616" lon="-1.32011">
        <ele>113.3</ele>
        <time>2011-10-02T08:31:39Z</time>
      </trkpt>
      <trkpt lat="47.3362" lon="-1.32007">
        <ele>113.2</ele>
        <time>2011-10-02T08:31:41Z</time>
      </trkpt>
      <trkpt lat="47.33624" lon="-1.32003">
        <ele>113.3</ele>
        <time>2011-10-02T08:31:43Z</time>
      </trkpt>
      <trkpt lat="47.33628" lon="-1.31998">
        <ele>114.1</ele>
        <time>2011-10-02T08:31:45Z</time>
      </trkpt>
      <trkpt lat="47.33632" lon="-1.31992">
        <ele>114.5</ele>
        <time>2011-10-02T08:31:47Z</time>
      </trkpt>
      <trkpt lat="47.33637" lon="-1.31984">
        <ele>113.8</ele>
        <time>2011-10-02T08:31:49Z</time>
      </trkpt>
      <trkpt lat="47.33642" lon="-1.31978">
        <ele>112.9</ele>
        <time>2011-10-02T08:31:51Z</time>
      </trkpt>
      <trkpt lat="47.33646" lon="-1.31972">
        <ele>113.8</ele>
        <time>2011-10-02T08:31:53Z</time>
      </trkpt>
      <trkpt lat="47.33648" lon="-1.31966">
        <ele>114.5</ele>
        <time>2011-10-02T08:31:54Z</time>
      </trkpt>
      <trkpt lat="47.33652" lon="-1.31957">
        <ele>115.8</ele>
        <time>2011-10-02T08:31:56Z</time>
      </trkpt>
      <trkpt lat="47.33656" lon="-1.31948">
        <ele>116.4</ele>
        <time>2011-10-02T08:31:58Z</time>
      </trkpt>
      <trkpt lat="47.33659" lon="-1.31941">
        <ele>116.8</ele>
        <time>2011-10-02T08:31:59Z</time>
      </trkpt>
      <trkpt lat="47.33666" lon="-1.31936">
        <ele>119.3</ele>
        <time>2011-10-02T08:32:01Z</time>
      </trkpt>
      <trkpt lat="47.33671" lon="-1.31928">
        <ele>119.8</ele>
        <time>2011-10-02T08:32:03Z</time>
      </trkpt>
      <trkpt lat="47.33673" lon="-1.31918">
        <ele>119.4</ele>
        <time>2011-10-02T08:32:05Z</time>
      </trkpt>
      <trkpt lat="47.33676" lon="-1.31913">
        <ele>119</ele>
        <time>2011-10-02T08:32:07Z</time>
      </trkpt>
      <trkpt lat="47.3368" lon="-1.31905">
        <ele>119.3</ele>
        <time>2011-10-02T08:32:09Z</time>
      </trkpt>
      <trkpt lat="47.33685" lon="-1.31898">
        <ele>119.6</ele>
        <time>2011-10-02T08:32:11Z</time>
      </trkpt>
      <trkpt lat="47.33689" lon="-1.3189">
        <ele>119.9</ele>
        <time>2011-10-02T08:32:13Z</time>
      </trkpt>
      <trkpt lat="47.33693" lon="-1.31883">
        <ele>120.5</ele>
        <time>2011-10-02T08:32:15Z</time>
      </trkpt>
      <trkpt lat="47.33697" lon="-1.31875">
        <ele>120.8</ele>
        <time>2011-10-02T08:32:17Z</time>
      </trkpt>
      <trkpt lat="47.33702" lon="-1.31868">
        <ele>121.3</ele>
        <time>2011-10-02T08:32:19Z</time>
      </trkpt>
      <trkpt lat="47.33706" lon="-1.31859">
        <ele>121.3</ele>
        <time>2011-10-02T08:32:21Z</time>
      </trkpt>
      <trkpt lat="47.3371" lon="-1.31851">
        <ele>121.8</ele>
        <time>2011-10-02T08:32:23Z</time>
      </trkpt>
      <trkpt lat="47.33714" lon="-1.31843">
        <ele>121.9</ele>
        <time>2011-10-02T08:32:25Z</time>
      </trkpt>
      <trkpt lat="47.33717" lon="-1.31834">
        <ele>121.7</ele>
        <time>2011-10-02T08:32:27Z</time>
      </trkpt>
      <trkpt lat="47.3372" lon="-1.31826">
        <ele>121.9</ele>
        <time>2011-10-02T08:32:29Z</time>
      </trkpt>
      <trkpt lat="47.33724" lon="-1.31818">
        <ele>122</ele>
        <time>2011-10-02T08:32:31Z</time>
      </trkpt>
      <trkpt lat="47.33727" lon="-1.3181">
        <ele>122</ele>
        <time>2011-10-02T08:32:33Z</time>
      </trkpt>
      <trkpt lat="47.3373" lon="-1.31802">
        <ele>122.1</ele>
        <time>2011-10-02T08:32:35Z</time>
      </trkpt>
      <trkpt lat="47.33733" lon="-1.31795">
        <ele>122.4</ele>
        <time>2011-10-02T08:32:37Z</time>
      </trkpt>
      <trkpt lat="47.33735" lon="-1.31788">
        <ele>123.4</ele>
        <time>2011-10-02T08:32:38Z</time>
      </trkpt>
      <trkpt lat="47.33738" lon="-1.31782">
        <ele>123.7</ele>
        <time>2011-10-02T08:32:40Z</time>
      </trkpt>
      <trkpt lat="47.33743" lon="-1.31775">
        <ele>123.3</ele>
        <time>2011-10-02T08:32:42Z</time>
      </trkpt>
      <trkpt lat="47.33749" lon="-1.31763">
        <ele>122.6</ele>
        <time>2011-10-02T08:32:46Z</time>
      </trkpt>
      <trkpt lat="47.33748" lon="-1.31751">
        <ele>121.8</ele>
        <time>2011-10-02T08:32:50Z</time>
      </trkpt>
      <trkpt lat="47.33751" lon="-1.31744">
        <ele>121.9</ele>
        <time>2011-10-02T08:32:53Z</time>
      </trkpt>
      <trkpt lat="47.33755" lon="-1.31735">
        <ele>122.4</ele>
        <time>2011-10-02T08:32:55Z</time>
      </trkpt>
      <trkpt lat="47.33757" lon="-1.31723">
        <ele>122.2</ele>
        <time>2011-10-02T08:32:58Z</time>
      </trkpt>
      <trkpt lat="47.33761" lon="-1.31707">
        <ele>121.8</ele>
        <time>2011-10-02T08:33:00Z</time>
      </trkpt>
      <trkpt lat="47.33763" lon="-1.31698">
        <ele>120.1</ele>
        <time>2011-10-02T08:33:03Z</time>
      </trkpt>
      <trkpt lat="47.33765" lon="-1.31689">
        <ele>120.5</ele>
        <time>2011-10-02T08:33:05Z</time>
      </trkpt>
      <trkpt lat="47.33767" lon="-1.3168">
        <ele>120.7</ele>
        <time>2011-10-02T08:33:07Z</time>
      </trkpt>
      <trkpt lat="47.33769" lon="-1.31671">
        <ele>119.6</ele>
        <time>2011-10-02T08:33:09Z</time>
      </trkpt>
      <trkpt lat="47.33771" lon="-1.3166">
        <ele>119.7</ele>
        <time>2011-10-02T08:33:11Z</time>
      </trkpt>
      <trkpt lat="47.33773" lon="-1.31649">
        <ele>120.3</ele>
        <time>2011-10-02T08:33:13Z</time>
      </trkpt>
      <trkpt lat="47.33774" lon="-1.3164">
        <ele>120.5</ele>
        <time>2011-10-02T08:33:15Z</time>
      </trkpt>
      <trkpt lat="47.33775" lon="-1.3163">
        <ele>120.7</ele>
        <time>2011-10-02T08:33:17Z</time>
      </trkpt>
      <trkpt lat="47.33775" lon="-1.31621">
        <ele>120.7</ele>
        <time>2011-10-02T08:33:19Z</time>
      </trkpt>
      <trkpt lat="47.33775" lon="-1.31612">
        <ele>120.4</ele>
        <time>2011-10-02T08:33:21Z</time>
      </trkpt>
      <trkpt lat="47.33775" lon="-1.31605">
        <ele>119.7</ele>
        <time>2011-10-02T08:33:22Z</time>
      </trkpt>
      <trkpt lat="47.33777" lon="-1.31595">
        <ele>119.6</ele>
        <time>2011-10-02T08:33:24Z</time>
      </trkpt>
      <trkpt lat="47.33777" lon="-1.31587">
        <ele>119.7</ele>
        <time>2011-10-02T08:33:25Z</time>
      </trkpt>
      <trkpt lat="47.33777" lon="-1.31577">
        <ele>119.9</ele>
        <time>2011-10-02T08:33:27Z</time>
      </trkpt>
      <trkpt lat="47.33778" lon="-1.31566">
        <ele>119.9</ele>
        <time>2011-10-02T08:33:28Z</time>
      </trkpt>
      <trkpt lat="47.33779" lon="-1.31553">
        <ele>118.8</ele>
        <time>2011-10-02T08:33:30Z</time>
      </trkpt>
      <trkpt lat="47.3378" lon="-1.31546">
        <ele>117.8</ele>
        <time>2011-10-02T08:33:32Z</time>
      </trkpt>
      <trkpt lat="47.33783" lon="-1.31532">
        <ele>116.6</ele>
        <time>2011-10-02T08:33:34Z</time>
      </trkpt>
      <trkpt lat="47.33784" lon="-1.31525">
        <ele>116.1</ele>
        <time>2011-10-02T08:33:36Z</time>
      </trkpt>
      <trkpt lat="47.33785" lon="-1.31515">
        <ele>116.5</ele>
        <time>2011-10-02T08:33:38Z</time>
      </trkpt>
      <trkpt lat="47.3379" lon="-1.31503">
        <ele>117.3</ele>
        <time>2011-10-02T08:33:40Z</time>
      </trkpt>
      <trkpt lat="47.33797" lon="-1.31488">
        <ele>117.8</ele>
        <time>2011-10-02T08:33:42Z</time>
      </trkpt>
      <trkpt lat="47.33798" lon="-1.31473">
        <ele>116.8</ele>
        <time>2011-10-02T08:33:44Z</time>
      </trkpt>
      <trkpt lat="47.33804" lon="-1.31456">
        <ele>119</ele>
        <time>2011-10-02T08:33:46Z</time>
      </trkpt>
      <trkpt lat="47.33811" lon="-1.31443">
        <ele>120.8</ele>
        <time>2011-10-02T08:33:48Z</time>
      </trkpt>
      <trkpt lat="47.33812" lon="-1.31424">
        <ele>120.4</ele>
        <time>2011-10-02T08:33:50Z</time>
      </trkpt>
      <trkpt lat="47.33821" lon="-1.31401">
        <ele>121</ele>
        <time>2011-10-02T08:33:53Z</time>
      </trkpt>
      <trkpt lat="47.33825" lon="-1.31393">
        <ele>119.5</ele>
        <time>2011-10-02T08:33:54Z</time>
      </trkpt>
      <trkpt lat="47.33832" lon="-1.31378">
        <ele>120.2</ele>
        <time>2011-10-02T08:33:55Z</time>
      </trkpt>
      <trkpt lat="47.33836" lon="-1.31361">
        <ele>122</ele>
        <time>2011-10-02T08:33:57Z</time>
      </trkpt>
      <trkpt lat="47.33839" lon="-1.31353">
        <ele>120.6</ele>
        <time>2011-10-02T08:33:59Z</time>
      </trkpt>
      <trkpt lat="47.33843" lon="-1.31349">
        <ele>121.2</ele>
        <time>2011-10-02T08:34:01Z</time>
      </trkpt>
      <trkpt lat="47.33849" lon="-1.31352">
        <ele>121.3</ele>
        <time>2011-10-02T08:34:14Z</time>
      </trkpt>
      <trkpt lat="47.33853" lon="-1.31358">
        <ele>117.8</ele>
        <time>2011-10-02T08:34:17Z</time>
      </trkpt>
      <trkpt lat="47.33863" lon="-1.3137">
        <ele>119.3</ele>
        <time>2011-10-02T08:34:36Z</time>
      </trkpt>
      <trkpt lat="47.3387" lon="-1.31378">
        <ele>120.3</ele>
        <time>2011-10-02T08:34:38Z</time>
      </trkpt>
      <trkpt lat="47.33876" lon="-1.31386">
        <ele>120</ele>
        <time>2011-10-02T08:34:40Z</time>
      </trkpt>
      <trkpt lat="47.33883" lon="-1.31394">
        <ele>121.3</ele>
        <time>2011-10-02T08:34:42Z</time>
      </trkpt>
      <trkpt lat="47.33888" lon="-1.31403">
        <ele>121.8</ele>
        <time>2011-10-02T08:34:44Z</time>
      </trkpt>
      <trkpt lat="47.33893" lon="-1.31411">
        <ele>121.9</ele>
        <time>2011-10-02T08:34:46Z</time>
      </trkpt>
      <trkpt lat="47.33894" lon="-1.31419">
        <ele>122.8</ele>
        <time>2011-10-02T08:34:48Z</time>
      </trkpt>
      <trkpt lat="47.33897" lon="-1.3143">
        <ele>122.4</ele>
        <time>2011-10-02T08:34:50Z</time>
      </trkpt>
      <trkpt lat="47.33904" lon="-1.31442">
        <ele>122.3</ele>
        <time>2011-10-02T08:34:52Z</time>
      </trkpt>
      <trkpt lat="47.33908" lon="-1.31448">
        <ele>122.5</ele>
        <time>2011-10-02T08:34:54Z</time>
      </trkpt>
      <trkpt lat="47.33912" lon="-1.31455">
        <ele>122.7</ele>
        <time>2011-10-02T08:34:56Z</time>
      </trkpt>
      <trkpt lat="47.3392" lon="-1.3146">
        <ele>122.9</ele>
        <time>2011-10-02T08:34:58Z</time>
      </trkpt>
      <trkpt lat="47.33926" lon="-1.31465">
        <ele>121.9</ele>
        <time>2011-10-02T08:35:00Z</time>
      </trkpt>
      <trkpt lat="47.33936" lon="-1.31474">
        <ele>121.2</ele>
        <time>2011-10-02T08:35:04Z</time>
      </trkpt>
      <trkpt lat="47.33948" lon="-1.31481">
        <ele>124.1</ele>
        <time>2011-10-02T08:35:08Z</time>
      </trkpt>
      <trkpt lat="47.33954" lon="-1.31488">
        <ele>123.1</ele>
        <time>2011-10-02T08:35:10Z</time>
      </trkpt>
      <trkpt lat="47.33958" lon="-1.31493">
        <ele>122.2</ele>
        <time>2011-10-02T08:35:12Z</time>
      </trkpt>
      <trkpt lat="47.33963" lon="-1.31501">
        <ele>120.4</ele>
        <time>2011-10-02T08:35:14Z</time>
      </trkpt>
      <trkpt lat="47.33968" lon="-1.31511">
        <ele>121.4</ele>
        <time>2011-10-02T08:35:16Z</time>
      </trkpt>
      <trkpt lat="47.33972" lon="-1.31517">
        <ele>122</ele>
        <time>2011-10-02T08:35:18Z</time>
      </trkpt>
      <trkpt lat="47.33976" lon="-1.31523">
        <ele>121.3</ele>
        <time>2011-10-02T08:35:20Z</time>
      </trkpt>
      <trkpt lat="47.33978" lon="-1.3153">
        <ele>120.9</ele>
        <time>2011-10-02T08:35:22Z</time>
      </trkpt>
      <trkpt lat="47.3398" lon="-1.31538">
        <ele>117.3</ele>
        <time>2011-10-02T08:35:24Z</time>
      </trkpt>
      <trkpt lat="47.33982" lon="-1.31545">
        <ele>117.8</ele>
        <time>2011-10-02T08:35:26Z</time>
      </trkpt>
      <trkpt lat="47.33982" lon="-1.31553">
        <ele>119.1</ele>
        <time>2011-10-02T08:35:28Z</time>
      </trkpt>
      <trkpt lat="47.33986" lon="-1.31561">
        <ele>119.7</ele>
        <time>2011-10-02T08:35:30Z</time>
      </trkpt>
      <trkpt lat="47.33989" lon="-1.31567">
        <ele>120.3</ele>
        <time>2011-10-02T08:35:32Z</time>
      </trkpt>
      <trkpt lat="47.33993" lon="-1.31577">
        <ele>121</ele>
        <time>2011-10-02T08:35:34Z</time>
      </trkpt>
      <trkpt lat="47.33996" lon="-1.31589">
        <ele>120.3</ele>
        <time>2011-10-02T08:35:36Z</time>
      </trkpt>
      <trkpt lat="47.34" lon="-1.31596">
        <ele>118.9</ele>
        <time>2011-10-02T08:35:38Z</time>
      </trkpt>
      <trkpt lat="47.34" lon="-1.31614">
        <ele>119.6</ele>
        <time>2011-10-02T08:35:42Z</time>
      </trkpt>
      <trkpt lat="47.34002" lon="-1.31623">
        <ele>122.3</ele>
        <time>2011-10-02T08:35:44Z</time>
      </trkpt>
      <trkpt lat="47.34002" lon="-1.31632">
        <ele>120.9</ele>
        <time>2011-10-02T08:35:46Z</time>
      </trkpt>
      <trkpt lat="47.34008" lon="-1.31638">
        <ele>119.9</ele>
        <time>2011-10-02T08:35:48Z</time>
      </trkpt>
      <trkpt lat="47.34011" lon="-1.31645">
        <ele>122.7</ele>
        <time>2011-10-02T08:35:50Z</time>
      </trkpt>
      <trkpt lat="47.34017" lon="-1.31653">
        <ele>123.6</ele>
        <time>2011-10-02T08:35:52Z</time>
      </trkpt>
      <trkpt lat="47.3402" lon="-1.31662">
        <ele>124.5</ele>
        <time>2011-10-02T08:35:54Z</time>
      </trkpt>
      <trkpt lat="47.34021" lon="-1.3167">
        <ele>124.3</ele>
        <time>2011-10-02T08:35:56Z</time>
      </trkpt>
      <trkpt lat="47.34023" lon="-1.31678">
        <ele>124.1</ele>
        <time>2011-10-02T08:35:58Z</time>
      </trkpt>
      <trkpt lat="47.34025" lon="-1.31688">
        <ele>123.6</ele>
        <time>2011-10-02T08:36:00Z</time>
      </trkpt>
      <trkpt lat="47.34022" lon="-1.31701">
        <ele>124.5</ele>
        <time>2011-10-02T08:36:02Z</time>
      </trkpt>
      <trkpt lat="47.34024" lon="-1.31708">
        <ele>125.4</ele>
        <time>2011-10-02T08:36:04Z</time>
      </trkpt>
      <trkpt lat="47.34022" lon="-1.3172">
        <ele>123.9</ele>
        <time>2011-10-02T08:36:06Z</time>
      </trkpt>
      <trkpt lat="47.3402" lon="-1.3173">
        <ele>124.2</ele>
        <time>2011-10-02T08:36:08Z</time>
      </trkpt>
      <trkpt lat="47.34012" lon="-1.3174">
        <ele>122.8</ele>
        <time>2011-10-02T08:36:12Z</time>
      </trkpt>
      <trkpt lat="47.34006" lon="-1.3175">
        <ele>123.8</ele>
        <time>2011-10-02T08:36:16Z</time>
      </trkpt>
      <trkpt lat="47.34" lon="-1.3176">
        <ele>122.3</ele>
        <time>2011-10-02T08:36:19Z</time>
      </trkpt>
      <trkpt lat="47.33995" lon="-1.31765">
        <ele>122.1</ele>
        <time>2011-10-02T08:36:20Z</time>
      </trkpt>
      <trkpt lat="47.3399" lon="-1.31767">
        <ele>123.9</ele>
        <time>2011-10-02T08:36:21Z</time>
      </trkpt>
      <trkpt lat="47.33986" lon="-1.31776">
        <ele>122.7</ele>
        <time>2011-10-02T08:36:22Z</time>
      </trkpt>
      <trkpt lat="47.3398" lon="-1.31783">
        <ele>123.3</ele>
        <time>2011-10-02T08:36:24Z</time>
      </trkpt>
      <trkpt lat="47.33972" lon="-1.31792">
        <ele>123.1</ele>
        <time>2011-10-02T08:36:26Z</time>
      </trkpt>
      <trkpt lat="47.33966" lon="-1.318">
        <ele>124.4</ele>
        <time>2011-10-02T08:36:28Z</time>
      </trkpt>
      <trkpt lat="47.33964" lon="-1.31809">
        <ele>124.7</ele>
        <time>2011-10-02T08:36:30Z</time>
      </trkpt>
      <trkpt lat="47.3396" lon="-1.31823">
        <ele>122.9</ele>
        <time>2011-10-02T08:36:34Z</time>
      </trkpt>
      <trkpt lat="47.33952" lon="-1.31833">
        <ele>123.1</ele>
        <time>2011-10-02T08:36:36Z</time>
      </trkpt>
      <trkpt lat="47.33947" lon="-1.31845">
        <ele>123.4</ele>
        <time>2011-10-02T08:36:38Z</time>
      </trkpt>
      <trkpt lat="47.33943" lon="-1.31857">
        <ele>123.6</ele>
        <time>2011-10-02T08:36:40Z</time>
      </trkpt>
      <trkpt lat="47.33939" lon="-1.31872">
        <ele>125.1</ele>
        <time>2011-10-02T08:36:44Z</time>
      </trkpt>
      <trkpt lat="47.33937" lon="-1.31882">
        <ele>124.9</ele>
        <time>2011-10-02T08:36:46Z</time>
      </trkpt>
      <trkpt lat="47.33928" lon="-1.31891">
        <ele>124.6</ele>
        <time>2011-10-02T08:36:48Z</time>
      </trkpt>
      <trkpt lat="47.33923" lon="-1.319">
        <ele>124.9</ele>
        <time>2011-10-02T08:36:50Z</time>
      </trkpt>
      <trkpt lat="47.33922" lon="-1.31907">
        <ele>124.7</ele>
        <time>2011-10-02T08:36:52Z</time>
      </trkpt>
      <trkpt lat="47.33916" lon="-1.31913">
        <ele>124.7</ele>
        <time>2011-10-02T08:36:54Z</time>
      </trkpt>
      <trkpt lat="47.33916" lon="-1.3192">
        <ele>125.1</ele>
        <time>2011-10-02T08:36:56Z</time>
      </trkpt>
      <trkpt lat="47.33913" lon="-1.31929">
        <ele>125.6</ele>
        <time>2011-10-02T08:36:58Z</time>
      </trkpt>
      <trkpt lat="47.33906" lon="-1.31936">
        <ele>125.3</ele>
        <time>2011-10-02T08:37:00Z</time>
      </trkpt>
      <trkpt lat="47.33902" lon="-1.31943">
        <ele>123.4</ele>
        <time>2011-10-02T08:37:02Z</time>
      </trkpt>
      <trkpt lat="47.33898" lon="-1.31957">
        <ele>125.1</ele>
        <time>2011-10-02T08:37:06Z</time>
      </trkpt>
      <trkpt lat="47.33891" lon="-1.31968">
        <ele>123.1</ele>
        <time>2011-10-02T08:37:08Z</time>
      </trkpt>
      <trkpt lat="47.3389" lon="-1.31975">
        <ele>121.4</ele>
        <time>2011-10-02T08:37:10Z</time>
      </trkpt>
      <trkpt lat="47.3389" lon="-1.31985">
        <ele>122.3</ele>
        <time>2011-10-02T08:37:12Z</time>
      </trkpt>
      <trkpt lat="47.33884" lon="-1.31997">
        <ele>122</ele>
        <time>2011-10-02T08:37:14Z</time>
      </trkpt>
      <trkpt lat="47.33885" lon="-1.32006">
        <ele>122.8</ele>
        <time>2011-10-02T08:37:17Z</time>
      </trkpt>
      <trkpt lat="47.33888" lon="-1.32013">
        <ele>123.2</ele>
        <time>2011-10-02T08:37:19Z</time>
      </trkpt>
      <trkpt lat="47.3389" lon="-1.32025">
        <ele>123.6</ele>
        <time>2011-10-02T08:37:22Z</time>
      </trkpt>
      <trkpt lat="47.33893" lon="-1.32036">
        <ele>124.9</ele>
        <time>2011-10-02T08:37:24Z</time>
      </trkpt>
      <trkpt lat="47.339" lon="-1.32048">
        <ele>123.2</ele>
        <time>2011-10-02T08:37:26Z</time>
      </trkpt>
      <trkpt lat="47.33903" lon="-1.32061">
        <ele>122.7</ele>
        <time>2011-10-02T08:37:28Z</time>
      </trkpt>
      <trkpt lat="47.33908" lon="-1.32071">
        <ele>122</ele>
        <time>2011-10-02T08:37:30Z</time>
      </trkpt>
      <trkpt lat="47.33909" lon="-1.32078">
        <ele>120.8</ele>
        <time>2011-10-02T08:37:32Z</time>
      </trkpt>
      <trkpt lat="47.33914" lon="-1.3209">
        <ele>122.9</ele>
        <time>2011-10-02T08:37:34Z</time>
      </trkpt>
      <trkpt lat="47.33917" lon="-1.32097">
        <ele>122</ele>
        <time>2011-10-02T08:37:36Z</time>
      </trkpt>
      <trkpt lat="47.33923" lon="-1.3211">
        <ele>122.7</ele>
        <time>2011-10-02T08:37:38Z</time>
      </trkpt>
      <trkpt lat="47.33924" lon="-1.32116">
        <ele>123.2</ele>
        <time>2011-10-02T08:37:40Z</time>
      </trkpt>
      <trkpt lat="47.33931" lon="-1.32125">
        <ele>123.9</ele>
        <time>2011-10-02T08:37:42Z</time>
      </trkpt>
      <trkpt lat="47.33933" lon="-1.32133">
        <ele>125.6</ele>
        <time>2011-10-02T08:37:45Z</time>
      </trkpt>
      <trkpt lat="47.33942" lon="-1.32144">
        <ele>126</ele>
        <time>2011-10-02T08:37:47Z</time>
      </trkpt>
      <trkpt lat="47.33951" lon="-1.32155">
        <ele>125.1</ele>
        <time>2011-10-02T08:37:49Z</time>
      </trkpt>
      <trkpt lat="47.33955" lon="-1.32164">
        <ele>124.8</ele>
        <time>2011-10-02T08:37:51Z</time>
      </trkpt>
      <trkpt lat="47.33962" lon="-1.32169">
        <ele>125.1</ele>
        <time>2011-10-02T08:37:53Z</time>
      </trkpt>
      <trkpt lat="47.33967" lon="-1.32176">
        <ele>123.2</ele>
        <time>2011-10-02T08:37:55Z</time>
      </trkpt>
      <trkpt lat="47.3397" lon="-1.32187">
        <ele>122.7</ele>
        <time>2011-10-02T08:37:57Z</time>
      </trkpt>
      <trkpt lat="47.33971" lon="-1.32201">
        <ele>121.8</ele>
        <time>2011-10-02T08:37:59Z</time>
      </trkpt>
      <trkpt lat="47.33976" lon="-1.32214">
        <ele>120.8</ele>
        <time>2011-10-02T08:38:02Z</time>
      </trkpt>
      <trkpt lat="47.33978" lon="-1.32221">
        <ele>120.8</ele>
        <time>2011-10-02T08:38:03Z</time>
      </trkpt>
      <trkpt lat="47.33985" lon="-1.32236">
        <ele>119.9</ele>
        <time>2011-10-02T08:38:05Z</time>
      </trkpt>
      <trkpt lat="47.3399" lon="-1.32241">
        <ele>121.2</ele>
        <time>2011-10-02T08:38:07Z</time>
      </trkpt>
      <trkpt lat="47.33995" lon="-1.32255">
        <ele>121.1</ele>
        <time>2011-10-02T08:38:09Z</time>
      </trkpt>
      <trkpt lat="47.34001" lon="-1.32264">
        <ele>121.5</ele>
        <time>2011-10-02T08:38:11Z</time>
      </trkpt>
      <trkpt lat="47.34008" lon="-1.32273">
        <ele>124.1</ele>
        <time>2011-10-02T08:38:13Z</time>
      </trkpt>
      <trkpt lat="47.34016" lon="-1.32284">
        <ele>126.2</ele>
        <time>2011-10-02T08:38:15Z</time>
      </trkpt>
      <trkpt lat="47.34018" lon="-1.32293">
        <ele>127.3</ele>
        <time>2011-10-02T08:38:17Z</time>
      </trkpt>
      <trkpt lat="47.34021" lon="-1.323">
        <ele>126.8</ele>
        <time>2011-10-02T08:38:18Z</time>
      </trkpt>
      <trkpt lat="47.34025" lon="-1.32309">
        <ele>123.8</ele>
        <time>2011-10-02T08:38:19Z</time>
      </trkpt>
      <trkpt lat="47.34027" lon="-1.32318">
        <ele>122.3</ele>
        <time>2011-10-02T08:38:20Z</time>
      </trkpt>
      <trkpt lat="47.34027" lon="-1.3234">
        <ele>121.5</ele>
        <time>2011-10-02T08:38:22Z</time>
      </trkpt>
      <trkpt lat="47.34026" lon="-1.32349">
        <ele>121.3</ele>
        <time>2011-10-02T08:38:24Z</time>
      </trkpt>
      <trkpt lat="47.34025" lon="-1.32356">
        <ele>121</ele>
        <time>2011-10-02T08:38:25Z</time>
      </trkpt>
      <trkpt lat="47.34028" lon="-1.32363">
        <ele>120.1</ele>
        <time>2011-10-02T08:38:26Z</time>
      </trkpt>
      <trkpt lat="47.34029" lon="-1.3237">
        <ele>119.9</ele>
        <time>2011-10-02T08:38:27Z</time>
      </trkpt>
      <trkpt lat="47.34028" lon="-1.32377">
        <ele>120.4</ele>
        <time>2011-10-02T08:38:28Z</time>
      </trkpt>
      <trkpt lat="47.34034" lon="-1.32389">
        <ele>121</ele>
        <time>2011-10-02T08:38:30Z</time>
      </trkpt>
      <trkpt lat="47.34037" lon="-1.32394">
        <ele>121.4</ele>
        <time>2011-10-02T08:38:31Z</time>
      </trkpt>
      <trkpt lat="47.34041" lon="-1.32399">
        <ele>121.4</ele>
        <time>2011-10-02T08:38:32Z</time>
      </trkpt>
      <trkpt lat="47.34046" lon="-1.32404">
        <ele>121.9</ele>
        <time>2011-10-02T08:38:33Z</time>
      </trkpt>
      <trkpt lat="47.34051" lon="-1.32413">
        <ele>122.7</ele>
        <time>2011-10-02T08:38:35Z</time>
      </trkpt>
      <trkpt lat="47.34056" lon="-1.32415">
        <ele>124.1</ele>
        <time>2011-10-02T08:38:36Z</time>
      </trkpt>
      <trkpt lat="47.34062" lon="-1.32418">
        <ele>124.7</ele>
        <time>2011-10-02T08:38:37Z</time>
      </trkpt>
      <trkpt lat="47.34067" lon="-1.32423">
        <ele>124.8</ele>
        <time>2011-10-02T08:38:38Z</time>
      </trkpt>
      <trkpt lat="47.34072" lon="-1.32429">
        <ele>124.7</ele>
        <time>2011-10-02T08:38:39Z</time>
      </trkpt>
      <trkpt lat="47.34075" lon="-1.32436">
        <ele>124.2</ele>
        <time>2011-10-02T08:38:40Z</time>
      </trkpt>
      <trkpt lat="47.3408" lon="-1.32444">
        <ele>124.2</ele>
        <time>2011-10-02T08:38:41Z</time>
      </trkpt>
      <trkpt lat="47.34086" lon="-1.3245">
        <ele>124.3</ele>
        <time>2011-10-02T08:38:42Z</time>
      </trkpt>
      <trkpt lat="47.34092" lon="-1.32457">
        <ele>125.1</ele>
        <time>2011-10-02T08:38:44Z</time>
      </trkpt>
      <trkpt lat="47.34096" lon="-1.32461">
        <ele>124.2</ele>
        <time>2011-10-02T08:38:45Z</time>
      </trkpt>
      <trkpt lat="47.341" lon="-1.32464">
        <ele>124</ele>
        <time>2011-10-02T08:38:46Z</time>
      </trkpt>
      <trkpt lat="47.34103" lon="-1.3247">
        <ele>124.3</ele>
        <time>2011-10-02T08:38:47Z</time>
      </trkpt>
      <trkpt lat="47.34108" lon="-1.32475">
        <ele>123.7</ele>
        <time>2011-10-02T08:38:48Z</time>
      </trkpt>
      <trkpt lat="47.34112" lon="-1.32479">
        <ele>123.9</ele>
        <time>2011-10-02T08:38:49Z</time>
      </trkpt>
      <trkpt lat="47.34117" lon="-1.32486">
        <ele>123.6</ele>
        <time>2011-10-02T08:38:50Z</time>
      </trkpt>
      <trkpt lat="47.34124" lon="-1.32493">
        <ele>123.9</ele>
        <time>2011-10-02T08:38:51Z</time>
      </trkpt>
      <trkpt lat="47.34127" lon="-1.325">
        <ele>124</ele>
        <time>2011-10-02T08:38:52Z</time>
      </trkpt>
      <trkpt lat="47.34133" lon="-1.32506">
        <ele>124</ele>
        <time>2011-10-02T08:38:53Z</time>
      </trkpt>
      <trkpt lat="47.34137" lon="-1.3251">
        <ele>124.3</ele>
        <time>2011-10-02T08:38:54Z</time>
      </trkpt>
      <trkpt lat="47.34142" lon="-1.32516">
        <ele>124.7</ele>
        <time>2011-10-02T08:38:55Z</time>
      </trkpt>
      <trkpt lat="47.34146" lon="-1.32523">
        <ele>123.5</ele>
        <time>2011-10-02T08:38:56Z</time>
      </trkpt>
      <trkpt lat="47.34151" lon="-1.32529">
        <ele>123.2</ele>
        <time>2011-10-02T08:38:57Z</time>
      </trkpt>
      <trkpt lat="47.34154" lon="-1.32536">
        <ele>121.8</ele>
        <time>2011-10-02T08:38:58Z</time>
      </trkpt>
      <trkpt lat="47.34161" lon="-1.32542">
        <ele>122.2</ele>
        <time>2011-10-02T08:38:59Z</time>
      </trkpt>
      <trkpt lat="47.34167" lon="-1.32548">
        <ele>121.4</ele>
        <time>2011-10-02T08:39:00Z</time>
      </trkpt>
      <trkpt lat="47.34172" lon="-1.32553">
        <ele>121.4</ele>
        <time>2011-10-02T08:39:01Z</time>
      </trkpt>
      <trkpt lat="47.34177" lon="-1.32558">
        <ele>120.2</ele>
        <time>2011-10-02T08:39:02Z</time>
      </trkpt>
      <trkpt lat="47.34181" lon="-1.32564">
        <ele>120.2</ele>
        <time>2011-10-02T08:39:03Z</time>
      </trkpt>
      <trkpt lat="47.34185" lon="-1.32572">
        <ele>120.4</ele>
        <time>2011-10-02T08:39:04Z</time>
      </trkpt>
      <trkpt lat="47.34189" lon="-1.32578">
        <ele>120.5</ele>
        <time>2011-10-02T08:39:05Z</time>
      </trkpt>
      <trkpt lat="47.34194" lon="-1.32587">
        <ele>120.4</ele>
        <time>2011-10-02T08:39:06Z</time>
      </trkpt>
      <trkpt lat="47.34196" lon="-1.32594">
        <ele>119.9</ele>
        <time>2011-10-02T08:39:07Z</time>
      </trkpt>
      <trkpt lat="47.34201" lon="-1.32602">
        <ele>118.9</ele>
        <time>2011-10-02T08:39:09Z</time>
      </trkpt>
      <trkpt lat="47.34204" lon="-1.32612">
        <ele>117.1</ele>
        <time>2011-10-02T08:39:11Z</time>
      </trkpt>
      <trkpt lat="47.34206" lon="-1.32622">
        <ele>116.4</ele>
        <time>2011-10-02T08:39:13Z</time>
      </trkpt>
      <trkpt lat="47.34211" lon="-1.32631">
        <ele>112</ele>
        <time>2011-10-02T08:39:14Z</time>
      </trkpt>
      <trkpt lat="47.34208" lon="-1.3264">
        <ele>110.4</ele>
        <time>2011-10-02T08:39:16Z</time>
      </trkpt>
      <trkpt lat="47.34206" lon="-1.32651">
        <ele>109.9</ele>
        <time>2011-10-02T08:39:18Z</time>
      </trkpt>
      <trkpt lat="47.342" lon="-1.32664">
        <ele>108.4</ele>
        <time>2011-10-02T08:39:20Z</time>
      </trkpt>
      <trkpt lat="47.34196" lon="-1.3267">
        <ele>108.1</ele>
        <time>2011-10-02T08:39:21Z</time>
      </trkpt>
      <trkpt lat="47.34191" lon="-1.3268">
        <ele>107.8</ele>
        <time>2011-10-02T08:39:23Z</time>
      </trkpt>
      <trkpt lat="47.34188" lon="-1.32686">
        <ele>107.6</ele>
        <time>2011-10-02T08:39:24Z</time>
      </trkpt>
      <trkpt lat="47.34185" lon="-1.32692">
        <ele>107.8</ele>
        <time>2011-10-02T08:39:26Z</time>
      </trkpt>
      <trkpt lat="47.3418" lon="-1.327">
        <ele>106.2</ele>
        <time>2011-10-02T08:39:28Z</time>
      </trkpt>
      <trkpt lat="47.34176" lon="-1.32707">
        <ele>105.6</ele>
        <time>2011-10-02T08:39:30Z</time>
      </trkpt>
      <trkpt lat="47.34171" lon="-1.32719">
        <ele>104.5</ele>
        <time>2011-10-02T08:39:32Z</time>
      </trkpt>
      <trkpt lat="47.34169" lon="-1.32725">
        <ele>104</ele>
        <time>2011-10-02T08:39:33Z</time>
      </trkpt>
      <trkpt lat="47.34167" lon="-1.32732">
        <ele>104.4</ele>
        <time>2011-10-02T08:39:34Z</time>
      </trkpt>
      <trkpt lat="47.3417" lon="-1.32747">
        <ele>102.8</ele>
        <time>2011-10-02T08:39:35Z</time>
      </trkpt>
      <trkpt lat="47.34164" lon="-1.3275">
        <ele>102.1</ele>
        <time>2011-10-02T08:39:37Z</time>
      </trkpt>
      <trkpt lat="47.34157" lon="-1.32749">
        <ele>101.2</ele>
        <time>2011-10-02T08:39:38Z</time>
      </trkpt>
      <trkpt lat="47.34153" lon="-1.32746">
        <ele>104.2</ele>
        <time>2011-10-02T08:39:39Z</time>
      </trkpt>
      <trkpt lat="47.34143" lon="-1.32748">
        <ele>106.4</ele>
        <time>2011-10-02T08:39:40Z</time>
      </trkpt>
      <trkpt lat="47.34139" lon="-1.32754">
        <ele>107.4</ele>
        <time>2011-10-02T08:39:45Z</time>
      </trkpt>
      <trkpt lat="47.34135" lon="-1.32759">
        <ele>107.6</ele>
        <time>2011-10-02T08:39:47Z</time>
      </trkpt>
      <trkpt lat="47.34132" lon="-1.32766">
        <ele>107.7</ele>
        <time>2011-10-02T08:39:49Z</time>
      </trkpt>
      <trkpt lat="47.34131" lon="-1.32773">
        <ele>108.4</ele>
        <time>2011-10-02T08:39:51Z</time>
      </trkpt>
      <trkpt lat="47.34128" lon="-1.32784">
        <ele>106.9</ele>
        <time>2011-10-02T08:39:53Z</time>
      </trkpt>
      <trkpt lat="47.34128" lon="-1.32795">
        <ele>107.5</ele>
        <time>2011-10-02T08:39:55Z</time>
      </trkpt>
      <trkpt lat="47.34125" lon="-1.328">
        <ele>106.9</ele>
        <time>2011-10-02T08:39:56Z</time>
      </trkpt>
      <trkpt lat="47.3412" lon="-1.32806">
        <ele>107.5</ele>
        <time>2011-10-02T08:39:58Z</time>
      </trkpt>
      <trkpt lat="47.34116" lon="-1.3281">
        <ele>107.7</ele>
        <time>2011-10-02T08:39:59Z</time>
      </trkpt>
      <trkpt lat="47.34112" lon="-1.32814">
        <ele>107.6</ele>
        <time>2011-10-02T08:40:00Z</time>
      </trkpt>
      <trkpt lat="47.34104" lon="-1.3282">
        <ele>107.1</ele>
        <time>2011-10-02T08:40:02Z</time>
      </trkpt>
      <trkpt lat="47.341" lon="-1.32827">
        <ele>106.7</ele>
        <time>2011-10-02T08:40:04Z</time>
      </trkpt>
      <trkpt lat="47.34095" lon="-1.3284">
        <ele>105.4</ele>
        <time>2011-10-02T08:40:06Z</time>
      </trkpt>
      <trkpt lat="47.34092" lon="-1.32846">
        <ele>104.1</ele>
        <time>2011-10-02T08:40:07Z</time>
      </trkpt>
      <trkpt lat="47.34088" lon="-1.32854">
        <ele>101.9</ele>
        <time>2011-10-02T08:40:08Z</time>
      </trkpt>
      <trkpt lat="47.34081" lon="-1.3286">
        <ele>101.3</ele>
        <time>2011-10-02T08:40:09Z</time>
      </trkpt>
      <trkpt lat="47.34073" lon="-1.32866">
        <ele>101.3</ele>
        <time>2011-10-02T08:40:10Z</time>
      </trkpt>
      <trkpt lat="47.34067" lon="-1.32874">
        <ele>99.6</ele>
        <time>2011-10-02T08:40:11Z</time>
      </trkpt>
      <trkpt lat="47.34063" lon="-1.3288">
        <ele>98.7</ele>
        <time>2011-10-02T08:40:12Z</time>
      </trkpt>
      <trkpt lat="47.34059" lon="-1.32884">
        <ele>97.9</ele>
        <time>2011-10-02T08:40:13Z</time>
      </trkpt>
      <trkpt lat="47.34056" lon="-1.3289">
        <ele>97.3</ele>
        <time>2011-10-02T08:40:14Z</time>
      </trkpt>
      <trkpt lat="47.34052" lon="-1.32896">
        <ele>96.9</ele>
        <time>2011-10-02T08:40:15Z</time>
      </trkpt>
      <trkpt lat="47.34046" lon="-1.32902">
        <ele>96.2</ele>
        <time>2011-10-02T08:40:16Z</time>
      </trkpt>
      <trkpt lat="47.34038" lon="-1.32908">
        <ele>95.9</ele>
        <time>2011-10-02T08:40:17Z</time>
      </trkpt>
      <trkpt lat="47.34031" lon="-1.32913">
        <ele>95.3</ele>
        <time>2011-10-02T08:40:18Z</time>
      </trkpt>
      <trkpt lat="47.34024" lon="-1.32918">
        <ele>95.1</ele>
        <time>2011-10-02T08:40:19Z</time>
      </trkpt>
      <trkpt lat="47.34019" lon="-1.32921">
        <ele>93.8</ele>
        <time>2011-10-02T08:40:20Z</time>
      </trkpt>
      <trkpt lat="47.34015" lon="-1.32925">
        <ele>93.2</ele>
        <time>2011-10-02T08:40:21Z</time>
      </trkpt>
      <trkpt lat="47.34009" lon="-1.32932">
        <ele>91.4</ele>
        <time>2011-10-02T08:40:23Z</time>
      </trkpt>
      <trkpt lat="47.34006" lon="-1.32942">
        <ele>92.4</ele>
        <time>2011-10-02T08:40:25Z</time>
      </trkpt>
      <trkpt lat="47.34002" lon="-1.32951">
        <ele>94.1</ele>
        <time>2011-10-02T08:40:27Z</time>
      </trkpt>
      <trkpt lat="47.33998" lon="-1.32957">
        <ele>92</ele>
        <time>2011-10-02T08:40:49Z</time>
      </trkpt>
      <trkpt lat="47.33996" lon="-1.32966">
        <ele>91</ele>
        <time>2011-10-02T08:40:52Z</time>
      </trkpt>
      <trkpt lat="47.33989" lon="-1.32971">
        <ele>88</ele>
        <time>2011-10-02T08:40:54Z</time>
      </trkpt>
      <trkpt lat="47.33985" lon="-1.32979">
        <ele>87.3</ele>
        <time>2011-10-02T08:40:56Z</time>
      </trkpt>
      <trkpt lat="47.33982" lon="-1.32985">
        <ele>86</ele>
        <time>2011-10-02T08:41:18Z</time>
      </trkpt>
      <trkpt lat="47.33976" lon="-1.32989">
        <ele>86.7</ele>
        <time>2011-10-02T08:41:20Z</time>
      </trkpt>
      <trkpt lat="47.33973" lon="-1.32996">
        <ele>86.8</ele>
        <time>2011-10-02T08:41:23Z</time>
      </trkpt>
      <trkpt lat="47.3397" lon="-1.33004">
        <ele>84.3</ele>
        <time>2011-10-02T08:41:40Z</time>
      </trkpt>
      <trkpt lat="47.33967" lon="-1.33012">
        <ele>81.6</ele>
        <time>2011-10-02T08:41:43Z</time>
      </trkpt>
      <trkpt lat="47.33966" lon="-1.3302">
        <ele>80.8</ele>
        <time>2011-10-02T08:41:46Z</time>
      </trkpt>
      <trkpt lat="47.33964" lon="-1.33026">
        <ele>81.9</ele>
        <time>2011-10-02T08:41:48Z</time>
      </trkpt>
      <trkpt lat="47.33965" lon="-1.33034">
        <ele>82.7</ele>
        <time>2011-10-02T08:41:51Z</time>
      </trkpt>
      <trkpt lat="47.33967" lon="-1.33044">
        <ele>82.5</ele>
        <time>2011-10-02T08:41:54Z</time>
      </trkpt>
      <trkpt lat="47.3397" lon="-1.33051">
        <ele>83.1</ele>
        <time>2011-10-02T08:41:56Z</time>
      </trkpt>
      <trkpt lat="47.33974" lon="-1.33061">
        <ele>82</ele>
        <time>2011-10-02T08:41:59Z</time>
      </trkpt>
      <trkpt lat="47.33979" lon="-1.33067">
        <ele>85.4</ele>
        <time>2011-10-02T08:42:01Z</time>
      </trkpt>
      <trkpt lat="47.33983" lon="-1.33074">
        <ele>86.5</ele>
        <time>2011-10-02T08:42:03Z</time>
      </trkpt>
      <trkpt lat="47.33989" lon="-1.33083">
        <ele>86.1</ele>
        <time>2011-10-02T08:42:05Z</time>
      </trkpt>
      <trkpt lat="47.33994" lon="-1.33092">
        <ele>87.1</ele>
        <time>2011-10-02T08:42:07Z</time>
      </trkpt>
      <trkpt lat="47.33997" lon="-1.33101">
        <ele>88.6</ele>
        <time>2011-10-02T08:42:09Z</time>
      </trkpt>
      <trkpt lat="47.34001" lon="-1.33108">
        <ele>90.4</ele>
        <time>2011-10-02T08:42:11Z</time>
      </trkpt>
      <trkpt lat="47.34005" lon="-1.33116">
        <ele>90.6</ele>
        <time>2011-10-02T08:42:13Z</time>
      </trkpt>
      <trkpt lat="47.34011" lon="-1.33123">
        <ele>90.8</ele>
        <time>2011-10-02T08:42:15Z</time>
      </trkpt>
      <trkpt lat="47.34015" lon="-1.33133">
        <ele>90.9</ele>
        <time>2011-10-02T08:42:17Z</time>
      </trkpt>
      <trkpt lat="47.3402" lon="-1.3314">
        <ele>91.3</ele>
        <time>2011-10-02T08:42:19Z</time>
      </trkpt>
      <trkpt lat="47.34026" lon="-1.33147">
        <ele>91.4</ele>
        <time>2011-10-02T08:42:21Z</time>
      </trkpt>
      <trkpt lat="47.34032" lon="-1.33154">
        <ele>91.9</ele>
        <time>2011-10-02T08:42:23Z</time>
      </trkpt>
      <trkpt lat="47.34036" lon="-1.33161">
        <ele>91.5</ele>
        <time>2011-10-02T08:42:25Z</time>
      </trkpt>
      <trkpt lat="47.34041" lon="-1.33164">
        <ele>95.6</ele>
        <time>2011-10-02T08:42:27Z</time>
      </trkpt>
      <trkpt lat="47.34046" lon="-1.33172">
        <ele>95</ele>
        <time>2011-10-02T08:42:29Z</time>
      </trkpt>
      <trkpt lat="47.3405" lon="-1.33179">
        <ele>96.6</ele>
        <time>2011-10-02T08:42:31Z</time>
      </trkpt>
      <trkpt lat="47.34054" lon="-1.33182">
        <ele>95.5</ele>
        <time>2011-10-02T08:42:33Z</time>
      </trkpt>
      <trkpt lat="47.34058" lon="-1.33189">
        <ele>96.4</ele>
        <time>2011-10-02T08:42:36Z</time>
      </trkpt>
      <trkpt lat="47.34061" lon="-1.33193">
        <ele>96</ele>
        <time>2011-10-02T08:42:38Z</time>
      </trkpt>
      <trkpt lat="47.34065" lon="-1.33198">
        <ele>100.4</ele>
        <time>2011-10-02T08:42:41Z</time>
      </trkpt>
      <trkpt lat="47.34069" lon="-1.33204">
        <ele>100.7</ele>
        <time>2011-10-02T08:42:44Z</time>
      </trkpt>
      <trkpt lat="47.34074" lon="-1.3321">
        <ele>101.7</ele>
        <time>2011-10-02T08:42:47Z</time>
      </trkpt>
      <trkpt lat="47.34078" lon="-1.33215">
        <ele>102.1</ele>
        <time>2011-10-02T08:42:49Z</time>
      </trkpt>
      <trkpt lat="47.34083" lon="-1.33222">
        <ele>101.6</ele>
        <time>2011-10-02T08:42:52Z</time>
      </trkpt>
      <trkpt lat="47.34085" lon="-1.33228">
        <ele>101.9</ele>
        <time>2011-10-02T08:42:54Z</time>
      </trkpt>
      <trkpt lat="47.34089" lon="-1.33233">
        <ele>97.4</ele>
        <time>2011-10-02T08:42:55Z</time>
      </trkpt>
      <trkpt lat="47.34092" lon="-1.3324">
        <ele>97.1</ele>
        <time>2011-10-02T08:42:57Z</time>
      </trkpt>
      <trkpt lat="47.34095" lon="-1.33246">
        <ele>98.3</ele>
        <time>2011-10-02T08:43:00Z</time>
      </trkpt>
      <trkpt lat="47.34098" lon="-1.33252">
        <ele>100.3</ele>
        <time>2011-10-02T08:43:03Z</time>
      </trkpt>
      <trkpt lat="47.34102" lon="-1.3326">
        <ele>100.9</ele>
        <time>2011-10-02T08:43:06Z</time>
      </trkpt>
      <trkpt lat="47.34104" lon="-1.33266">
        <ele>101.3</ele>
        <time>2011-10-02T08:43:08Z</time>
      </trkpt>
      <trkpt lat="47.34107" lon="-1.33273">
        <ele>101.6</ele>
        <time>2011-10-02T08:43:10Z</time>
      </trkpt>
      <trkpt lat="47.3411" lon="-1.3328">
        <ele>99.7</ele>
        <time>2011-10-02T08:43:12Z</time>
      </trkpt>
      <trkpt lat="47.34114" lon="-1.33288">
        <ele>102.3</ele>
        <time>2011-10-02T08:43:15Z</time>
      </trkpt>
      <trkpt lat="47.34118" lon="-1.33295">
        <ele>103.7</ele>
        <time>2011-10-02T08:43:18Z</time>
      </trkpt>
      <trkpt lat="47.34122" lon="-1.33301">
        <ele>103.5</ele>
        <time>2011-10-02T08:43:20Z</time>
      </trkpt>
      <trkpt lat="47.34127" lon="-1.33306">
        <ele>104.8</ele>
        <time>2011-10-02T08:43:23Z</time>
      </trkpt>
      <trkpt lat="47.34131" lon="-1.33313">
        <ele>105.1</ele>
        <time>2011-10-02T08:43:25Z</time>
      </trkpt>
      <trkpt lat="47.34136" lon="-1.3332">
        <ele>110.3</ele>
        <time>2011-10-02T08:43:30Z</time>
      </trkpt>
      <trkpt lat="47.3414" lon="-1.33324">
        <ele>110.1</ele>
        <time>2011-10-02T08:43:32Z</time>
      </trkpt>
      <trkpt lat="47.34145" lon="-1.33331">
        <ele>112.2</ele>
        <time>2011-10-02T08:43:35Z</time>
      </trkpt>
      <trkpt lat="47.34151" lon="-1.33336">
        <ele>112.8</ele>
        <time>2011-10-02T08:43:38Z</time>
      </trkpt>
      <trkpt lat="47.34155" lon="-1.33343">
        <ele>110.1</ele>
        <time>2011-10-02T08:43:40Z</time>
      </trkpt>
      <trkpt lat="47.34159" lon="-1.33348">
        <ele>111.1</ele>
        <time>2011-10-02T08:43:42Z</time>
      </trkpt>
      <trkpt lat="47.34164" lon="-1.33354">
        <ele>110</ele>
        <time>2011-10-02T08:43:45Z</time>
      </trkpt>
      <trkpt lat="47.34172" lon="-1.33359">
        <ele>109.9</ele>
        <time>2011-10-02T08:43:48Z</time>
      </trkpt>
      <trkpt lat="47.34176" lon="-1.33361">
        <ele>109.4</ele>
        <time>2011-10-02T08:43:49Z</time>
      </trkpt>
      <trkpt lat="47.34182" lon="-1.33369">
        <ele>108.6</ele>
        <time>2011-10-02T08:43:52Z</time>
      </trkpt>
      <trkpt lat="47.34186" lon="-1.33373">
        <ele>109.3</ele>
        <time>2011-10-02T08:43:55Z</time>
      </trkpt>
      <trkpt lat="47.34188" lon="-1.3338">
        <ele>109.8</ele>
        <time>2011-10-02T08:43:57Z</time>
      </trkpt>
      <trkpt lat="47.34192" lon="-1.3339">
        <ele>108.7</ele>
        <time>2011-10-02T08:43:59Z</time>
      </trkpt>
      <trkpt lat="47.34194" lon="-1.33397">
        <ele>104.4</ele>
        <time>2011-10-02T08:44:00Z</time>
      </trkpt>
      <trkpt lat="47.34194" lon="-1.33407">
        <ele>101.5</ele>
        <time>2011-10-02T08:44:02Z</time>
      </trkpt>
      <trkpt lat="47.34189" lon="-1.33411">
        <ele>99.4</ele>
        <time>2011-10-02T08:44:05Z</time>
      </trkpt>
      <trkpt lat="47.34182" lon="-1.33412">
        <ele>94.6</ele>
        <time>2011-10-02T08:44:08Z</time>
      </trkpt>
      <trkpt lat="47.34177" lon="-1.33416">
        <ele>94.4</ele>
        <time>2011-10-02T08:44:10Z</time>
      </trkpt>
      <trkpt lat="47.34172" lon="-1.3342">
        <ele>94.7</ele>
        <time>2011-10-02T08:44:12Z</time>
      </trkpt>
      <trkpt lat="47.34168" lon="-1.33425">
        <ele>94.8</ele>
        <time>2011-10-02T08:44:14Z</time>
      </trkpt>
      <trkpt lat="47.34153" lon="-1.3343">
        <ele>100.4</ele>
        <time>2011-10-02T08:44:17Z</time>
      </trkpt>
      <trkpt lat="47.34147" lon="-1.33434">
        <ele>101.5</ele>
        <time>2011-10-02T08:44:19Z</time>
      </trkpt>
      <trkpt lat="47.34141" lon="-1.33439">
        <ele>102.1</ele>
        <time>2011-10-02T08:44:21Z</time>
      </trkpt>
      <trkpt lat="47.34145" lon="-1.33446">
        <ele>103.4</ele>
        <time>2011-10-02T08:44:23Z</time>
      </trkpt>
      <trkpt lat="47.34151" lon="-1.33452">
        <ele>103.1</ele>
        <time>2011-10-02T08:44:25Z</time>
      </trkpt>
      <trkpt lat="47.34153" lon="-1.3346">
        <ele>103.5</ele>
        <time>2011-10-02T08:44:28Z</time>
      </trkpt>
      <trkpt lat="47.34153" lon="-1.33468">
        <ele>103.9</ele>
        <time>2011-10-02T08:44:31Z</time>
      </trkpt>
      <trkpt lat="47.3415" lon="-1.33476">
        <ele>104.1</ele>
        <time>2011-10-02T08:44:35Z</time>
      </trkpt>
      <trkpt lat="47.34145" lon="-1.33479">
        <ele>104.9</ele>
        <time>2011-10-02T08:44:37Z</time>
      </trkpt>
      <trkpt lat="47.34141" lon="-1.33483">
        <ele>104.4</ele>
        <time>2011-10-02T08:44:39Z</time>
      </trkpt>
      <trkpt lat="47.34138" lon="-1.3349">
        <ele>105</ele>
        <time>2011-10-02T08:44:48Z</time>
      </trkpt>
      <trkpt lat="47.34139" lon="-1.33498">
        <ele>103</ele>
        <time>2011-10-02T08:45:12Z</time>
      </trkpt>
      <trkpt lat="47.34134" lon="-1.33505">
        <ele>103.4</ele>
        <time>2011-10-02T08:45:16Z</time>
      </trkpt>
      <trkpt lat="47.34128" lon="-1.33504">
        <ele>104.9</ele>
        <time>2011-10-02T08:45:18Z</time>
      </trkpt>
      <trkpt lat="47.34123" lon="-1.33506">
        <ele>105.3</ele>
        <time>2011-10-02T08:45:20Z</time>
      </trkpt>
      <trkpt lat="47.34128" lon="-1.33509">
        <ele>104.2</ele>
        <time>2011-10-02T08:45:22Z</time>
      </trkpt>
      <trkpt lat="47.34125" lon="-1.33516">
        <ele>103.2</ele>
        <time>2011-10-02T08:45:25Z</time>
      </trkpt>
      <trkpt lat="47.34121" lon="-1.33519">
        <ele>106.6</ele>
        <time>2011-10-02T08:45:28Z</time>
      </trkpt>
      <trkpt lat="47.34116" lon="-1.33522">
        <ele>107.2</ele>
        <time>2011-10-02T08:45:32Z</time>
      </trkpt>
      <trkpt lat="47.34113" lon="-1.33529">
        <ele>113</ele>
        <time>2011-10-02T08:45:39Z</time>
      </trkpt>
      <trkpt lat="47.34113" lon="-1.33537">
        <ele>111.1</ele>
        <time>2011-10-02T08:45:42Z</time>
      </trkpt>
      <trkpt lat="47.34111" lon="-1.33542">
        <ele>112.9</ele>
        <time>2011-10-02T08:45:46Z</time>
      </trkpt>
      <trkpt lat="47.34107" lon="-1.33547">
        <ele>112.3</ele>
        <time>2011-10-02T08:45:51Z</time>
      </trkpt>
      <trkpt lat="47.3411" lon="-1.33556">
        <ele>111.1</ele>
        <time>2011-10-02T08:45:56Z</time>
      </trkpt>
      <trkpt lat="47.34104" lon="-1.33554">
        <ele>112.9</ele>
        <time>2011-10-02T08:45:57Z</time>
      </trkpt>
      <trkpt lat="47.34104" lon="-1.33561">
        <ele>111.2</ele>
        <time>2011-10-02T08:46:01Z</time>
      </trkpt>
      <trkpt lat="47.34101" lon="-1.33569">
        <ele>109.1</ele>
        <time>2011-10-02T08:46:05Z</time>
      </trkpt>
      <trkpt lat="47.34099" lon="-1.33577">
        <ele>108.8</ele>
        <time>2011-10-02T08:46:07Z</time>
      </trkpt>
      <trkpt lat="47.34096" lon="-1.33582">
        <ele>110.5</ele>
        <time>2011-10-02T08:46:12Z</time>
      </trkpt>
      <trkpt lat="47.34092" lon="-1.33589">
        <ele>111.7</ele>
        <time>2011-10-02T08:46:15Z</time>
      </trkpt>
      <trkpt lat="47.34088" lon="-1.33592">
        <ele>113.6</ele>
        <time>2011-10-02T08:46:19Z</time>
      </trkpt>
      <trkpt lat="47.34087" lon="-1.33599">
        <ele>113.7</ele>
        <time>2011-10-02T08:46:22Z</time>
      </trkpt>
      <trkpt lat="47.34082" lon="-1.33602">
        <ele>116.2</ele>
        <time>2011-10-02T08:46:28Z</time>
      </trkpt>
      <trkpt lat="47.3408" lon="-1.33609">
        <ele>115.6</ele>
        <time>2011-10-02T08:46:31Z</time>
      </trkpt>
      <trkpt lat="47.34076" lon="-1.33615">
        <ele>115.9</ele>
        <time>2011-10-02T08:46:35Z</time>
      </trkpt>
      <trkpt lat="47.34073" lon="-1.33622">
        <ele>117.1</ele>
        <time>2011-10-02T08:46:40Z</time>
      </trkpt>
      <trkpt lat="47.34071" lon="-1.33628">
        <ele>117.7</ele>
        <time>2011-10-02T08:46:49Z</time>
      </trkpt>
      <trkpt lat="47.34068" lon="-1.33638">
        <ele>118.4</ele>
        <time>2011-10-02T08:46:52Z</time>
      </trkpt>
      <trkpt lat="47.34065" lon="-1.33644">
        <ele>118.4</ele>
        <time>2011-10-02T08:46:54Z</time>
      </trkpt>
      <trkpt lat="47.34063" lon="-1.33651">
        <ele>118.2</ele>
        <time>2011-10-02T08:46:56Z</time>
      </trkpt>
      <trkpt lat="47.3406" lon="-1.33656">
        <ele>117.8</ele>
        <time>2011-10-02T08:46:58Z</time>
      </trkpt>
      <trkpt lat="47.34058" lon="-1.33663">
        <ele>117.8</ele>
        <time>2011-10-02T08:47:00Z</time>
      </trkpt>
      <trkpt lat="47.34053" lon="-1.33672">
        <ele>118.2</ele>
        <time>2011-10-02T08:47:03Z</time>
      </trkpt>
      <trkpt lat="47.34048" lon="-1.3368">
        <ele>119.3</ele>
        <time>2011-10-02T08:47:06Z</time>
      </trkpt>
      <trkpt lat="47.34043" lon="-1.33688">
        <ele>118.7</ele>
        <time>2011-10-02T08:47:09Z</time>
      </trkpt>
      <trkpt lat="47.3404" lon="-1.33694">
        <ele>119.8</ele>
        <time>2011-10-02T08:47:11Z</time>
      </trkpt>
      <trkpt lat="47.34034" lon="-1.33702">
        <ele>120.8</ele>
        <time>2011-10-02T08:47:14Z</time>
      </trkpt>
      <trkpt lat="47.34031" lon="-1.3371">
        <ele>119.4</ele>
        <time>2011-10-02T08:47:16Z</time>
      </trkpt>
      <trkpt lat="47.34028" lon="-1.33717">
        <ele>119.3</ele>
        <time>2011-10-02T08:47:19Z</time>
      </trkpt>
      <trkpt lat="47.34025" lon="-1.33724">
        <ele>118.9</ele>
        <time>2011-10-02T08:47:21Z</time>
      </trkpt>
      <trkpt lat="47.34022" lon="-1.3373">
        <ele>119</ele>
        <time>2011-10-02T08:47:23Z</time>
      </trkpt>
      <trkpt lat="47.34019" lon="-1.33737">
        <ele>119.4</ele>
        <time>2011-10-02T08:47:25Z</time>
      </trkpt>
      <trkpt lat="47.34016" lon="-1.33744">
        <ele>119.4</ele>
        <time>2011-10-02T08:47:27Z</time>
      </trkpt>
      <trkpt lat="47.34012" lon="-1.33752">
        <ele>119.2</ele>
        <time>2011-10-02T08:47:29Z</time>
      </trkpt>
      <trkpt lat="47.34008" lon="-1.33758">
        <ele>119</ele>
        <time>2011-10-02T08:47:31Z</time>
      </trkpt>
      <trkpt lat="47.34004" lon="-1.33762">
        <ele>119.8</ele>
        <time>2011-10-02T08:47:33Z</time>
      </trkpt>
      <trkpt lat="47.33999" lon="-1.33764">
        <ele>120</ele>
        <time>2011-10-02T08:47:34Z</time>
      </trkpt>
      <trkpt lat="47.33994" lon="-1.33764">
        <ele>119.4</ele>
        <time>2011-10-02T08:47:36Z</time>
      </trkpt>
      <trkpt lat="47.33989" lon="-1.33756">
        <ele>119.7</ele>
        <time>2011-10-02T08:47:38Z</time>
      </trkpt>
      <trkpt lat="47.33984" lon="-1.33752">
        <ele>119</ele>
        <time>2011-10-02T08:47:40Z</time>
      </trkpt>
      <trkpt lat="47.33978" lon="-1.33748">
        <ele>119.2</ele>
        <time>2011-10-02T08:47:42Z</time>
      </trkpt>
      <trkpt lat="47.33973" lon="-1.3374">
        <ele>120.4</ele>
        <time>2011-10-02T08:47:44Z</time>
      </trkpt>
      <trkpt lat="47.33966" lon="-1.33733">
        <ele>120.3</ele>
        <time>2011-10-02T08:47:46Z</time>
      </trkpt>
      <trkpt lat="47.33961" lon="-1.33731">
        <ele>119.9</ele>
        <time>2011-10-02T08:47:48Z</time>
      </trkpt>
      <trkpt lat="47.33956" lon="-1.33727">
        <ele>119.5</ele>
        <time>2011-10-02T08:47:50Z</time>
      </trkpt>
      <trkpt lat="47.33952" lon="-1.33722">
        <ele>119.2</ele>
        <time>2011-10-02T08:47:52Z</time>
      </trkpt>
      <trkpt lat="47.33947" lon="-1.33721">
        <ele>121.7</ele>
        <time>2011-10-02T08:47:54Z</time>
      </trkpt>
      <trkpt lat="47.33944" lon="-1.33714">
        <ele>120.9</ele>
        <time>2011-10-02T08:47:59Z</time>
      </trkpt>
      <trkpt lat="47.33937" lon="-1.33717">
        <ele>122.4</ele>
        <time>2011-10-02T08:49:38Z</time>
      </trkpt>
      <trkpt lat="47.33933" lon="-1.33712">
        <ele>121.6</ele>
        <time>2011-10-02T08:49:40Z</time>
      </trkpt>
      <trkpt lat="47.33926" lon="-1.33711">
        <ele>122.1</ele>
        <time>2011-10-02T08:49:43Z</time>
      </trkpt>
      <trkpt lat="47.33921" lon="-1.33708">
        <ele>121.2</ele>
        <time>2011-10-02T08:49:44Z</time>
      </trkpt>
      <trkpt lat="47.33915" lon="-1.33702">
        <ele>121.6</ele>
        <time>2011-10-02T08:49:46Z</time>
      </trkpt>
      <trkpt lat="47.33908" lon="-1.33694">
        <ele>122.6</ele>
        <time>2011-10-02T08:49:49Z</time>
      </trkpt>
      <trkpt lat="47.33901" lon="-1.33682">
        <ele>122.4</ele>
        <time>2011-10-02T08:49:51Z</time>
      </trkpt>
      <trkpt lat="47.33895" lon="-1.33678">
        <ele>122.1</ele>
        <time>2011-10-02T08:49:53Z</time>
      </trkpt>
      <trkpt lat="47.33888" lon="-1.33671">
        <ele>121.7</ele>
        <time>2011-10-02T08:49:54Z</time>
      </trkpt>
      <trkpt lat="47.33884" lon="-1.33668">
        <ele>121.9</ele>
        <time>2011-10-02T08:49:55Z</time>
      </trkpt>
      <trkpt lat="47.33879" lon="-1.3366">
        <ele>123.9</ele>
        <time>2011-10-02T08:49:57Z</time>
      </trkpt>
      <trkpt lat="47.33872" lon="-1.3365">
        <ele>123.9</ele>
        <time>2011-10-02T08:49:59Z</time>
      </trkpt>
      <trkpt lat="47.33864" lon="-1.33646">
        <ele>122.5</ele>
        <time>2011-10-02T08:50:02Z</time>
      </trkpt>
      <trkpt lat="47.33858" lon="-1.33644">
        <ele>122.1</ele>
        <time>2011-10-02T08:50:03Z</time>
      </trkpt>
      <trkpt lat="47.33852" lon="-1.33637">
        <ele>120.2</ele>
        <time>2011-10-02T08:50:04Z</time>
      </trkpt>
      <trkpt lat="47.33848" lon="-1.33633">
        <ele>120.7</ele>
        <time>2011-10-02T08:50:05Z</time>
      </trkpt>
      <trkpt lat="47.33845" lon="-1.33628">
        <ele>121.8</ele>
        <time>2011-10-02T08:50:06Z</time>
      </trkpt>
      <trkpt lat="47.3384" lon="-1.33623">
        <ele>122.6</ele>
        <time>2011-10-02T08:50:08Z</time>
      </trkpt>
      <trkpt lat="47.33836" lon="-1.33618">
        <ele>121.8</ele>
        <time>2011-10-02T08:50:09Z</time>
      </trkpt>
      <trkpt lat="47.3383" lon="-1.33611">
        <ele>121</ele>
        <time>2011-10-02T08:50:10Z</time>
      </trkpt>
      <trkpt lat="47.33825" lon="-1.33606">
        <ele>121.1</ele>
        <time>2011-10-02T08:50:11Z</time>
      </trkpt>
      <trkpt lat="47.33821" lon="-1.33598">
        <ele>121.9</ele>
        <time>2011-10-02T08:50:12Z</time>
      </trkpt>
      <trkpt lat="47.33818" lon="-1.33589">
        <ele>122.2</ele>
        <time>2011-10-02T08:50:13Z</time>
      </trkpt>
      <trkpt lat="47.33815" lon="-1.33585">
        <ele>121</ele>
        <time>2011-10-02T08:50:14Z</time>
      </trkpt>
      <trkpt lat="47.3381" lon="-1.3358">
        <ele>121</ele>
        <time>2011-10-02T08:50:15Z</time>
      </trkpt>
      <trkpt lat="47.33806" lon="-1.33575">
        <ele>120.1</ele>
        <time>2011-10-02T08:50:16Z</time>
      </trkpt>
      <trkpt lat="47.33802" lon="-1.33572">
        <ele>120.7</ele>
        <time>2011-10-02T08:50:17Z</time>
      </trkpt>
      <trkpt lat="47.33796" lon="-1.33566">
        <ele>120.1</ele>
        <time>2011-10-02T08:50:19Z</time>
      </trkpt>
      <trkpt lat="47.33792" lon="-1.33562">
        <ele>120.4</ele>
        <time>2011-10-02T08:50:20Z</time>
      </trkpt>
      <trkpt lat="47.33786" lon="-1.33558">
        <ele>121.1</ele>
        <time>2011-10-02T08:50:21Z</time>
      </trkpt>
      <trkpt lat="47.3378" lon="-1.33553">
        <ele>121.4</ele>
        <time>2011-10-02T08:50:22Z</time>
      </trkpt>
      <trkpt lat="47.33774" lon="-1.33546">
        <ele>120.7</ele>
        <time>2011-10-02T08:50:23Z</time>
      </trkpt>
      <trkpt lat="47.33764" lon="-1.33538">
        <ele>120.5</ele>
        <time>2011-10-02T08:50:26Z</time>
      </trkpt>
      <trkpt lat="47.33762" lon="-1.33531">
        <ele>120.6</ele>
        <time>2011-10-02T08:50:28Z</time>
      </trkpt>
      <trkpt lat="47.33761" lon="-1.33524">
        <ele>120.5</ele>
        <time>2011-10-02T08:50:29Z</time>
      </trkpt>
      <trkpt lat="47.33756" lon="-1.33528">
        <ele>121.7</ele>
        <time>2011-10-02T08:50:41Z</time>
      </trkpt>
      <trkpt lat="47.33762" lon="-1.33521">
        <ele>124.3</ele>
        <time>2011-10-02T08:51:47Z</time>
      </trkpt>
      <trkpt lat="47.33765" lon="-1.33512">
        <ele>122.6</ele>
        <time>2011-10-02T08:51:48Z</time>
      </trkpt>
      <trkpt lat="47.33769" lon="-1.33504">
        <ele>123.5</ele>
        <time>2011-10-02T08:51:50Z</time>
      </trkpt>
      <trkpt lat="47.33774" lon="-1.33493">
        <ele>119.8</ele>
        <time>2011-10-02T08:51:53Z</time>
      </trkpt>
      <trkpt lat="47.33778" lon="-1.33486">
        <ele>119.9</ele>
        <time>2011-10-02T08:51:54Z</time>
      </trkpt>
      <trkpt lat="47.33781" lon="-1.33477">
        <ele>120.4</ele>
        <time>2011-10-02T08:51:55Z</time>
      </trkpt>
      <trkpt lat="47.33786" lon="-1.33467">
        <ele>121.2</ele>
        <time>2011-10-02T08:51:56Z</time>
      </trkpt>
      <trkpt lat="47.3379" lon="-1.33458">
        <ele>120.9</ele>
        <time>2011-10-02T08:51:57Z</time>
      </trkpt>
      <trkpt lat="47.33793" lon="-1.33449">
        <ele>120</ele>
        <time>2011-10-02T08:51:58Z</time>
      </trkpt>
      <trkpt lat="47.338" lon="-1.33439">
        <ele>119.8</ele>
        <time>2011-10-02T08:52:00Z</time>
      </trkpt>
      <trkpt lat="47.33805" lon="-1.3343">
        <ele>118.9</ele>
        <time>2011-10-02T08:52:01Z</time>
      </trkpt>
      <trkpt lat="47.33808" lon="-1.33421">
        <ele>119.5</ele>
        <time>2011-10-02T08:52:02Z</time>
      </trkpt>
      <trkpt lat="47.33816" lon="-1.33403">
        <ele>119.2</ele>
        <time>2011-10-02T08:52:03Z</time>
      </trkpt>
      <trkpt lat="47.3382" lon="-1.33394">
        <ele>119.3</ele>
        <time>2011-10-02T08:52:04Z</time>
      </trkpt>
      <trkpt lat="47.33824" lon="-1.3338">
        <ele>119.3</ele>
        <time>2011-10-02T08:52:06Z</time>
      </trkpt>
      <trkpt lat="47.33828" lon="-1.33369">
        <ele>119.6</ele>
        <time>2011-10-02T08:52:07Z</time>
      </trkpt>
      <trkpt lat="47.33832" lon="-1.33356">
        <ele>119.8</ele>
        <time>2011-10-02T08:52:08Z</time>
      </trkpt>
      <trkpt lat="47.33835" lon="-1.33344">
        <ele>119.6</ele>
        <time>2011-10-02T08:52:09Z</time>
      </trkpt>
      <trkpt lat="47.33839" lon="-1.3333">
        <ele>120.1</ele>
        <time>2011-10-02T08:52:10Z</time>
      </trkpt>
      <trkpt lat="47.33842" lon="-1.33314">
        <ele>119.2</ele>
        <time>2011-10-02T08:52:11Z</time>
      </trkpt>
      <trkpt lat="47.33846" lon="-1.33302">
        <ele>119.4</ele>
        <time>2011-10-02T08:52:12Z</time>
      </trkpt>
      <trkpt lat="47.33848" lon="-1.33291">
        <ele>119.1</ele>
        <time>2011-10-02T08:52:13Z</time>
      </trkpt>
      <trkpt lat="47.33851" lon="-1.33282">
        <ele>119</ele>
        <time>2011-10-02T08:52:14Z</time>
      </trkpt>
      <trkpt lat="47.33853" lon="-1.33274">
        <ele>119.3</ele>
        <time>2011-10-02T08:52:15Z</time>
      </trkpt>
      <trkpt lat="47.33856" lon="-1.33265">
        <ele>119.2</ele>
        <time>2011-10-02T08:52:16Z</time>
      </trkpt>
      <trkpt lat="47.3386" lon="-1.33253">
        <ele>118.8</ele>
        <time>2011-10-02T08:52:17Z</time>
      </trkpt>
      <trkpt lat="47.33864" lon="-1.33242">
        <ele>117.8</ele>
        <time>2011-10-02T08:52:18Z</time>
      </trkpt>
      <trkpt lat="47.33867" lon="-1.33234">
        <ele>117.9</ele>
        <time>2011-10-02T08:52:19Z</time>
      </trkpt>
      <trkpt lat="47.33868" lon="-1.33226">
        <ele>117.9</ele>
        <time>2011-10-02T08:52:20Z</time>
      </trkpt>
      <trkpt lat="47.3387" lon="-1.33218">
        <ele>117.7</ele>
        <time>2011-10-02T08:52:21Z</time>
      </trkpt>
      <trkpt lat="47.33872" lon="-1.33212">
        <ele>116.8</ele>
        <time>2011-10-02T08:52:22Z</time>
      </trkpt>
      <trkpt lat="47.33874" lon="-1.33205">
        <ele>116.7</ele>
        <time>2011-10-02T08:52:23Z</time>
      </trkpt>
      <trkpt lat="47.33875" lon="-1.33196">
        <ele>116.2</ele>
        <time>2011-10-02T08:52:24Z</time>
      </trkpt>
      <trkpt lat="47.33877" lon="-1.33184">
        <ele>116</ele>
        <time>2011-10-02T08:52:25Z</time>
      </trkpt>
      <trkpt lat="47.33879" lon="-1.33172">
        <ele>115.5</ele>
        <time>2011-10-02T08:52:26Z</time>
      </trkpt>
      <trkpt lat="47.3388" lon="-1.33163">
        <ele>115.4</ele>
        <time>2011-10-02T08:52:27Z</time>
      </trkpt>
      <trkpt lat="47.33883" lon="-1.33154">
        <ele>115.7</ele>
        <time>2011-10-02T08:52:28Z</time>
      </trkpt>
      <trkpt lat="47.33885" lon="-1.33144">
        <ele>116.2</ele>
        <time>2011-10-02T08:52:29Z</time>
      </trkpt>
      <trkpt lat="47.33888" lon="-1.33136">
        <ele>116.2</ele>
        <time>2011-10-02T08:52:30Z</time>
      </trkpt>
      <trkpt lat="47.3389" lon="-1.33128">
        <ele>116</ele>
        <time>2011-10-02T08:52:31Z</time>
      </trkpt>
      <trkpt lat="47.3389" lon="-1.33118">
        <ele>115.2</ele>
        <time>2011-10-02T08:52:32Z</time>
      </trkpt>
      <trkpt lat="47.33891" lon="-1.33109">
        <ele>114.8</ele>
        <time>2011-10-02T08:52:33Z</time>
      </trkpt>
      <trkpt lat="47.33892" lon="-1.33101">
        <ele>114.2</ele>
        <time>2011-10-02T08:52:34Z</time>
      </trkpt>
      <trkpt lat="47.33893" lon="-1.33091">
        <ele>113.5</ele>
        <time>2011-10-02T08:52:35Z</time>
      </trkpt>
      <trkpt lat="47.33896" lon="-1.33085">
        <ele>113.4</ele>
        <time>2011-10-02T08:52:36Z</time>
      </trkpt>
      <trkpt lat="47.33897" lon="-1.33078">
        <ele>111.2</ele>
        <time>2011-10-02T08:52:37Z</time>
      </trkpt>
      <trkpt lat="47.33898" lon="-1.33071">
        <ele>110.4</ele>
        <time>2011-10-02T08:52:38Z</time>
      </trkpt>
      <trkpt lat="47.33904" lon="-1.33061">
        <ele>110.6</ele>
        <time>2011-10-02T08:52:40Z</time>
      </trkpt>
      <trkpt lat="47.33907" lon="-1.33055">
        <ele>110.9</ele>
        <time>2011-10-02T08:52:41Z</time>
      </trkpt>
      <trkpt lat="47.33911" lon="-1.33048">
        <ele>111.6</ele>
        <time>2011-10-02T08:52:42Z</time>
      </trkpt>
      <trkpt lat="47.33914" lon="-1.33042">
        <ele>111.4</ele>
        <time>2011-10-02T08:52:43Z</time>
      </trkpt>
      <trkpt lat="47.33918" lon="-1.33037">
        <ele>111.5</ele>
        <time>2011-10-02T08:52:44Z</time>
      </trkpt>
      <trkpt lat="47.33922" lon="-1.33031">
        <ele>111.4</ele>
        <time>2011-10-02T08:52:46Z</time>
      </trkpt>
      <trkpt lat="47.33926" lon="-1.33025">
        <ele>111.1</ele>
        <time>2011-10-02T08:52:47Z</time>
      </trkpt>
      <trkpt lat="47.33929" lon="-1.33019">
        <ele>111.1</ele>
        <time>2011-10-02T08:52:48Z</time>
      </trkpt>
      <trkpt lat="47.33935" lon="-1.33011">
        <ele>111.1</ele>
        <time>2011-10-02T08:52:50Z</time>
      </trkpt>
      <trkpt lat="47.33939" lon="-1.33007">
        <ele>110.5</ele>
        <time>2011-10-02T08:52:53Z</time>
      </trkpt>
      <trkpt lat="47.33933" lon="-1.33003">
        <ele>109.7</ele>
        <time>2011-10-02T08:53:03Z</time>
      </trkpt>
      <trkpt lat="47.33927" lon="-1.33">
        <ele>108.4</ele>
        <time>2011-10-02T08:53:05Z</time>
      </trkpt>
      <trkpt lat="47.33922" lon="-1.32999">
        <ele>107.8</ele>
        <time>2011-10-02T08:53:06Z</time>
      </trkpt>
      <trkpt lat="47.33917" lon="-1.32998">
        <ele>101.9</ele>
        <time>2011-10-02T08:53:14Z</time>
      </trkpt>
      <trkpt lat="47.33913" lon="-1.32997">
        <ele>101.3</ele>
        <time>2011-10-02T08:53:16Z</time>
      </trkpt>
      <trkpt lat="47.33908" lon="-1.32999">
        <ele>101.3</ele>
        <time>2011-10-02T08:53:17Z</time>
      </trkpt>
      <trkpt lat="47.33903" lon="-1.33001">
        <ele>101</ele>
        <time>2011-10-02T08:53:18Z</time>
      </trkpt>
      <trkpt lat="47.33895" lon="-1.33">
        <ele>100.2</ele>
        <time>2011-10-02T08:53:19Z</time>
      </trkpt>
      <trkpt lat="47.33887" lon="-1.32997">
        <ele>99.9</ele>
        <time>2011-10-02T08:53:20Z</time>
      </trkpt>
      <trkpt lat="47.3388" lon="-1.32995">
        <ele>99.3</ele>
        <time>2011-10-02T08:53:21Z</time>
      </trkpt>
      <trkpt lat="47.33875" lon="-1.3299">
        <ele>99</ele>
        <time>2011-10-02T08:53:22Z</time>
      </trkpt>
      <trkpt lat="47.3387" lon="-1.32988">
        <ele>98.5</ele>
        <time>2011-10-02T08:53:23Z</time>
      </trkpt>
      <trkpt lat="47.33868" lon="-1.3298">
        <ele>97.9</ele>
        <time>2011-10-02T08:53:24Z</time>
      </trkpt>
      <trkpt lat="47.33861" lon="-1.32974">
        <ele>97.2</ele>
        <time>2011-10-02T08:53:26Z</time>
      </trkpt>
      <trkpt lat="47.33854" lon="-1.3297">
        <ele>96.4</ele>
        <time>2011-10-02T08:53:27Z</time>
      </trkpt>
      <trkpt lat="47.3385" lon="-1.32967">
        <ele>95.7</ele>
        <time>2011-10-02T08:53:28Z</time>
      </trkpt>
      <trkpt lat="47.33846" lon="-1.32963">
        <ele>95.5</ele>
        <time>2011-10-02T08:53:29Z</time>
      </trkpt>
      <trkpt lat="47.33838" lon="-1.32957">
        <ele>93.2</ele>
        <time>2011-10-02T08:53:31Z</time>
      </trkpt>
      <trkpt lat="47.33834" lon="-1.3296">
        <ele>92.6</ele>
        <time>2011-10-02T08:53:33Z</time>
      </trkpt>
      <trkpt lat="47.33828" lon="-1.32958">
        <ele>90.1</ele>
        <time>2011-10-02T08:53:34Z</time>
      </trkpt>
      <trkpt lat="47.33822" lon="-1.32959">
        <ele>89.4</ele>
        <time>2011-10-02T08:53:36Z</time>
      </trkpt>
      <trkpt lat="47.33814" lon="-1.32957">
        <ele>87.6</ele>
        <time>2011-10-02T08:53:38Z</time>
      </trkpt>
      <trkpt lat="47.33808" lon="-1.32954">
        <ele>87.4</ele>
        <time>2011-10-02T08:53:39Z</time>
      </trkpt>
      <trkpt lat="47.33802" lon="-1.32952">
        <ele>87.5</ele>
        <time>2011-10-02T08:53:40Z</time>
      </trkpt>
      <trkpt lat="47.33797" lon="-1.3295">
        <ele>87.4</ele>
        <time>2011-10-02T08:53:41Z</time>
      </trkpt>
      <trkpt lat="47.33791" lon="-1.32948">
        <ele>87.7</ele>
        <time>2011-10-02T08:53:42Z</time>
      </trkpt>
      <trkpt lat="47.33785" lon="-1.32946">
        <ele>86.3</ele>
        <time>2011-10-02T08:53:43Z</time>
      </trkpt>
      <trkpt lat="47.33781" lon="-1.32941">
        <ele>85.8</ele>
        <time>2011-10-02T08:53:44Z</time>
      </trkpt>
      <trkpt lat="47.33776" lon="-1.32941">
        <ele>85.4</ele>
        <time>2011-10-02T08:53:45Z</time>
      </trkpt>
      <trkpt lat="47.33771" lon="-1.32938">
        <ele>84.9</ele>
        <time>2011-10-02T08:53:46Z</time>
      </trkpt>
      <trkpt lat="47.33763" lon="-1.32935">
        <ele>84</ele>
        <time>2011-10-02T08:53:47Z</time>
      </trkpt>
      <trkpt lat="47.33755" lon="-1.32933">
        <ele>83.2</ele>
        <time>2011-10-02T08:53:48Z</time>
      </trkpt>
      <trkpt lat="47.33749" lon="-1.32929">
        <ele>82.4</ele>
        <time>2011-10-02T08:53:49Z</time>
      </trkpt>
      <trkpt lat="47.33745" lon="-1.32923">
        <ele>81.4</ele>
        <time>2011-10-02T08:53:50Z</time>
      </trkpt>
      <trkpt lat="47.33742" lon="-1.32913">
        <ele>79.6</ele>
        <time>2011-10-02T08:53:51Z</time>
      </trkpt>
      <trkpt lat="47.33738" lon="-1.32905">
        <ele>78.9</ele>
        <time>2011-10-02T08:53:52Z</time>
      </trkpt>
      <trkpt lat="47.33734" lon="-1.32902">
        <ele>78.5</ele>
        <time>2011-10-02T08:53:53Z</time>
      </trkpt>
      <trkpt lat="47.33727" lon="-1.32896">
        <ele>78.8</ele>
        <time>2011-10-02T08:53:55Z</time>
      </trkpt>
      <trkpt lat="47.3372" lon="-1.32888">
        <ele>78.3</ele>
        <time>2011-10-02T08:53:57Z</time>
      </trkpt>
      <trkpt lat="47.33718" lon="-1.32881">
        <ele>77.7</ele>
        <time>2011-10-02T08:53:58Z</time>
      </trkpt>
      <trkpt lat="47.33712" lon="-1.32877">
        <ele>77.5</ele>
        <time>2011-10-02T08:53:59Z</time>
      </trkpt>
      <trkpt lat="47.33705" lon="-1.3287">
        <ele>77.2</ele>
        <time>2011-10-02T08:54:00Z</time>
      </trkpt>
      <trkpt lat="47.33697" lon="-1.32866">
        <ele>76.3</ele>
        <time>2011-10-02T08:54:01Z</time>
      </trkpt>
      <trkpt lat="47.33692" lon="-1.32858">
        <ele>77.1</ele>
        <time>2011-10-02T08:54:02Z</time>
      </trkpt>
      <trkpt lat="47.33686" lon="-1.32852">
        <ele>76.7</ele>
        <time>2011-10-02T08:54:03Z</time>
      </trkpt>
      <trkpt lat="47.33682" lon="-1.32844">
        <ele>76.6</ele>
        <time>2011-10-02T08:54:04Z</time>
      </trkpt>
      <trkpt lat="47.33674" lon="-1.32834">
        <ele>75.6</ele>
        <time>2011-10-02T08:54:05Z</time>
      </trkpt>
      <trkpt lat="47.3367" lon="-1.32828">
        <ele>77.5</ele>
        <time>2011-10-02T08:54:06Z</time>
      </trkpt>
      <trkpt lat="47.33666" lon="-1.32814">
        <ele>80.3</ele>
        <time>2011-10-02T08:54:07Z</time>
      </trkpt>
      <trkpt lat="47.33661" lon="-1.32803">
        <ele>81.3</ele>
        <time>2011-10-02T08:54:10Z</time>
      </trkpt>
      <trkpt lat="47.33656" lon="-1.32797">
        <ele>82.1</ele>
        <time>2011-10-02T08:54:12Z</time>
      </trkpt>
      <trkpt lat="47.33651" lon="-1.32792">
        <ele>84.5</ele>
        <time>2011-10-02T08:54:14Z</time>
      </trkpt>
      <trkpt lat="47.33646" lon="-1.32789">
        <ele>83.7</ele>
        <time>2011-10-02T08:54:15Z</time>
      </trkpt>
      <trkpt lat="47.33641" lon="-1.32786">
        <ele>84.3</ele>
        <time>2011-10-02T08:54:16Z</time>
      </trkpt>
      <trkpt lat="47.33636" lon="-1.32781">
        <ele>83.4</ele>
        <time>2011-10-02T08:54:18Z</time>
      </trkpt>
      <trkpt lat="47.3363" lon="-1.3278">
        <ele>83</ele>
        <time>2011-10-02T08:54:19Z</time>
      </trkpt>
      <trkpt lat="47.33626" lon="-1.32778">
        <ele>82.3</ele>
        <time>2011-10-02T08:54:20Z</time>
      </trkpt>
      <trkpt lat="47.33619" lon="-1.32774">
        <ele>81.5</ele>
        <time>2011-10-02T08:54:21Z</time>
      </trkpt>
      <trkpt lat="47.33615" lon="-1.32771">
        <ele>81.2</ele>
        <time>2011-10-02T08:54:22Z</time>
      </trkpt>
      <trkpt lat="47.33608" lon="-1.32763">
        <ele>80.9</ele>
        <time>2011-10-02T08:54:24Z</time>
      </trkpt>
      <trkpt lat="47.33602" lon="-1.32762">
        <ele>80.8</ele>
        <time>2011-10-02T08:54:25Z</time>
      </trkpt>
      <trkpt lat="47.33597" lon="-1.32759">
        <ele>80.8</ele>
        <time>2011-10-02T08:54:26Z</time>
      </trkpt>
      <trkpt lat="47.33591" lon="-1.32755">
        <ele>80.5</ele>
        <time>2011-10-02T08:54:27Z</time>
      </trkpt>
      <trkpt lat="47.33586" lon="-1.3275">
        <ele>81.3</ele>
        <time>2011-10-02T08:54:28Z</time>
      </trkpt>
      <trkpt lat="47.33581" lon="-1.32746">
        <ele>80.8</ele>
        <time>2011-10-02T08:54:29Z</time>
      </trkpt>
      <trkpt lat="47.33574" lon="-1.32743">
        <ele>81.9</ele>
        <time>2011-10-02T08:54:30Z</time>
      </trkpt>
      <trkpt lat="47.33569" lon="-1.3274">
        <ele>81.6</ele>
        <time>2011-10-02T08:54:31Z</time>
      </trkpt>
      <trkpt lat="47.33565" lon="-1.32736">
        <ele>81</ele>
        <time>2011-10-02T08:54:32Z</time>
      </trkpt>
      <trkpt lat="47.33562" lon="-1.3273">
        <ele>80.8</ele>
        <time>2011-10-02T08:54:33Z</time>
      </trkpt>
      <trkpt lat="47.33558" lon="-1.32727">
        <ele>80.7</ele>
        <time>2011-10-02T08:54:34Z</time>
      </trkpt>
      <trkpt lat="47.3355" lon="-1.32718">
        <ele>79.2</ele>
        <time>2011-10-02T08:54:36Z</time>
      </trkpt>
      <trkpt lat="47.33546" lon="-1.32714">
        <ele>78.8</ele>
        <time>2011-10-02T08:54:37Z</time>
      </trkpt>
      <trkpt lat="47.33539" lon="-1.32707">
        <ele>78.7</ele>
        <time>2011-10-02T08:54:39Z</time>
      </trkpt>
      <trkpt lat="47.33533" lon="-1.32699">
        <ele>78.8</ele>
        <time>2011-10-02T08:54:41Z</time>
      </trkpt>
      <trkpt lat="47.3353" lon="-1.32693">
        <ele>78.8</ele>
        <time>2011-10-02T08:54:42Z</time>
      </trkpt>
      <trkpt lat="47.33526" lon="-1.32687">
        <ele>79.2</ele>
        <time>2011-10-02T08:54:43Z</time>
      </trkpt>
      <trkpt lat="47.33518" lon="-1.32676">
        <ele>78.7</ele>
        <time>2011-10-02T08:54:45Z</time>
      </trkpt>
      <trkpt lat="47.33514" lon="-1.3267">
        <ele>78.2</ele>
        <time>2011-10-02T08:54:46Z</time>
      </trkpt>
      <trkpt lat="47.33509" lon="-1.32664">
        <ele>77.7</ele>
        <time>2011-10-02T08:54:47Z</time>
      </trkpt>
      <trkpt lat="47.33505" lon="-1.32659">
        <ele>77.4</ele>
        <time>2011-10-02T08:54:48Z</time>
      </trkpt>
      <trkpt lat="47.33502" lon="-1.32654">
        <ele>76.3</ele>
        <time>2011-10-02T08:54:49Z</time>
      </trkpt>
      <trkpt lat="47.33499" lon="-1.32648">
        <ele>76.5</ele>
        <time>2011-10-02T08:54:50Z</time>
      </trkpt>
      <trkpt lat="47.33495" lon="-1.32643">
        <ele>76.1</ele>
        <time>2011-10-02T08:54:51Z</time>
      </trkpt>
      <trkpt lat="47.33489" lon="-1.32636">
        <ele>75.5</ele>
        <time>2011-10-02T08:54:52Z</time>
      </trkpt>
      <trkpt lat="47.33484" lon="-1.3263">
        <ele>75</ele>
        <time>2011-10-02T08:54:53Z</time>
      </trkpt>
      <trkpt lat="47.33481" lon="-1.32624">
        <ele>74.7</ele>
        <time>2011-10-02T08:54:54Z</time>
      </trkpt>
      <trkpt lat="47.33477" lon="-1.32617">
        <ele>74.7</ele>
        <time>2011-10-02T08:54:55Z</time>
      </trkpt>
      <trkpt lat="47.33473" lon="-1.32611">
        <ele>74.9</ele>
        <time>2011-10-02T08:54:56Z</time>
      </trkpt>
      <trkpt lat="47.33469" lon="-1.32606">
        <ele>75.3</ele>
        <time>2011-10-02T08:54:57Z</time>
      </trkpt>
      <trkpt lat="47.33462" lon="-1.32597">
        <ele>75.5</ele>
        <time>2011-10-02T08:54:59Z</time>
      </trkpt>
      <trkpt lat="47.33457" lon="-1.32592">
        <ele>74.8</ele>
        <time>2011-10-02T08:55:01Z</time>
      </trkpt>
      <trkpt lat="47.33448" lon="-1.3259">
        <ele>74.4</ele>
        <time>2011-10-02T08:55:03Z</time>
      </trkpt>
      <trkpt lat="47.33439" lon="-1.3259">
        <ele>73.9</ele>
        <time>2011-10-02T08:55:05Z</time>
      </trkpt>
      <trkpt lat="47.33434" lon="-1.32589">
        <ele>71.3</ele>
        <time>2011-10-02T08:55:07Z</time>
      </trkpt>
      <trkpt lat="47.33431" lon="-1.32583">
        <ele>70.3</ele>
        <time>2011-10-02T08:55:11Z</time>
      </trkpt>
      <trkpt lat="47.33425" lon="-1.32585">
        <ele>68.1</ele>
        <time>2011-10-02T08:55:28Z</time>
      </trkpt>
      <trkpt lat="47.33419" lon="-1.32589">
        <ele>67.8</ele>
        <time>2011-10-02T08:55:31Z</time>
      </trkpt>
      <trkpt lat="47.33414" lon="-1.32593">
        <ele>69.4</ele>
        <time>2011-10-02T08:55:33Z</time>
      </trkpt>
      <trkpt lat="47.33408" lon="-1.32591">
        <ele>70.3</ele>
        <time>2011-10-02T08:55:36Z</time>
      </trkpt>
      <trkpt lat="47.33401" lon="-1.32587">
        <ele>71.2</ele>
        <time>2011-10-02T08:55:38Z</time>
      </trkpt>
      <trkpt lat="47.33393" lon="-1.32585">
        <ele>70.3</ele>
        <time>2011-10-02T08:55:39Z</time>
      </trkpt>
      <trkpt lat="47.33388" lon="-1.32583">
        <ele>70.2</ele>
        <time>2011-10-02T08:55:40Z</time>
      </trkpt>
      <trkpt lat="47.33382" lon="-1.32581">
        <ele>70.1</ele>
        <time>2011-10-02T08:55:41Z</time>
      </trkpt>
      <trkpt lat="47.33377" lon="-1.3258">
        <ele>69.9</ele>
        <time>2011-10-02T08:55:42Z</time>
      </trkpt>
      <trkpt lat="47.33372" lon="-1.32578">
        <ele>69.5</ele>
        <time>2011-10-02T08:55:43Z</time>
      </trkpt>
      <trkpt lat="47.33367" lon="-1.32576">
        <ele>69.5</ele>
        <time>2011-10-02T08:55:44Z</time>
      </trkpt>
      <trkpt lat="47.33358" lon="-1.32572">
        <ele>69.1</ele>
        <time>2011-10-02T08:55:46Z</time>
      </trkpt>
      <trkpt lat="47.33354" lon="-1.32568">
        <ele>69.6</ele>
        <time>2011-10-02T08:55:47Z</time>
      </trkpt>
      <trkpt lat="47.33348" lon="-1.32562">
        <ele>68.9</ele>
        <time>2011-10-02T08:55:49Z</time>
      </trkpt>
      <trkpt lat="47.33344" lon="-1.32559">
        <ele>69.5</ele>
        <time>2011-10-02T08:55:51Z</time>
      </trkpt>
      <trkpt lat="47.33338" lon="-1.32555">
        <ele>71.1</ele>
        <time>2011-10-02T08:55:52Z</time>
      </trkpt>
      <trkpt lat="47.33334" lon="-1.32551">
        <ele>71.2</ele>
        <time>2011-10-02T08:55:53Z</time>
      </trkpt>
      <trkpt lat="47.33329" lon="-1.32547">
        <ele>73.5</ele>
        <time>2011-10-02T08:55:56Z</time>
      </trkpt>
      <trkpt lat="47.33323" lon="-1.32546">
        <ele>73.5</ele>
        <time>2011-10-02T08:55:58Z</time>
      </trkpt>
      <trkpt lat="47.33315" lon="-1.32543">
        <ele>72.8</ele>
        <time>2011-10-02T08:56:00Z</time>
      </trkpt>
      <trkpt lat="47.33308" lon="-1.32537">
        <ele>71.4</ele>
        <time>2011-10-02T08:56:02Z</time>
      </trkpt>
      <trkpt lat="47.33304" lon="-1.32534">
        <ele>71.2</ele>
        <time>2011-10-02T08:56:03Z</time>
      </trkpt>
      <trkpt lat="47.33299" lon="-1.32527">
        <ele>70.7</ele>
        <time>2011-10-02T08:56:04Z</time>
      </trkpt>
      <trkpt lat="47.33294" lon="-1.32523">
        <ele>70.5</ele>
        <time>2011-10-02T08:56:05Z</time>
      </trkpt>
      <trkpt lat="47.33287" lon="-1.32515">
        <ele>70.1</ele>
        <time>2011-10-02T08:56:06Z</time>
      </trkpt>
      <trkpt lat="47.3328" lon="-1.32508">
        <ele>69.8</ele>
        <time>2011-10-02T08:56:07Z</time>
      </trkpt>
      <trkpt lat="47.33276" lon="-1.32504">
        <ele>69.1</ele>
        <time>2011-10-02T08:56:08Z</time>
      </trkpt>
      <trkpt lat="47.33272" lon="-1.32495">
        <ele>68.9</ele>
        <time>2011-10-02T08:56:09Z</time>
      </trkpt>
      <trkpt lat="47.33267" lon="-1.32487">
        <ele>68.8</ele>
        <time>2011-10-02T08:56:10Z</time>
      </trkpt>
      <trkpt lat="47.33264" lon="-1.32475">
        <ele>68</ele>
        <time>2011-10-02T08:56:12Z</time>
      </trkpt>
      <trkpt lat="47.33258" lon="-1.3247">
        <ele>67.4</ele>
        <time>2011-10-02T08:56:13Z</time>
      </trkpt>
      <trkpt lat="47.33251" lon="-1.32461">
        <ele>66</ele>
        <time>2011-10-02T08:56:14Z</time>
      </trkpt>
      <trkpt lat="47.33243" lon="-1.32456">
        <ele>65.5</ele>
        <time>2011-10-02T08:56:15Z</time>
      </trkpt>
      <trkpt lat="47.33236" lon="-1.32449">
        <ele>64.6</ele>
        <time>2011-10-02T08:56:16Z</time>
      </trkpt>
      <trkpt lat="47.33232" lon="-1.3244">
        <ele>64.1</ele>
        <time>2011-10-02T08:56:17Z</time>
      </trkpt>
      <trkpt lat="47.33228" lon="-1.32433">
        <ele>63.5</ele>
        <time>2011-10-02T08:56:18Z</time>
      </trkpt>
      <trkpt lat="47.33223" lon="-1.32426">
        <ele>63.2</ele>
        <time>2011-10-02T08:56:19Z</time>
      </trkpt>
      <trkpt lat="47.33218" lon="-1.32417">
        <ele>64.1</ele>
        <time>2011-10-02T08:56:20Z</time>
      </trkpt>
      <trkpt lat="47.33212" lon="-1.32408">
        <ele>64.5</ele>
        <time>2011-10-02T08:56:22Z</time>
      </trkpt>
      <trkpt lat="47.3321" lon="-1.324">
        <ele>65.5</ele>
        <time>2011-10-02T08:56:23Z</time>
      </trkpt>
      <trkpt lat="47.33202" lon="-1.32388">
        <ele>65.2</ele>
        <time>2011-10-02T08:56:25Z</time>
      </trkpt>
      <trkpt lat="47.33198" lon="-1.3238">
        <ele>64.9</ele>
        <time>2011-10-02T08:56:26Z</time>
      </trkpt>
      <trkpt lat="47.33192" lon="-1.32374">
        <ele>63.8</ele>
        <time>2011-10-02T08:56:27Z</time>
      </trkpt>
      <trkpt lat="47.33188" lon="-1.32367">
        <ele>62.8</ele>
        <time>2011-10-02T08:56:28Z</time>
      </trkpt>
      <trkpt lat="47.33183" lon="-1.32363">
        <ele>62.5</ele>
        <time>2011-10-02T08:56:29Z</time>
      </trkpt>
      <trkpt lat="47.33179" lon="-1.32357">
        <ele>62.5</ele>
        <time>2011-10-02T08:56:30Z</time>
      </trkpt>
      <trkpt lat="47.33173" lon="-1.32351">
        <ele>62</ele>
        <time>2011-10-02T08:56:31Z</time>
      </trkpt>
      <trkpt lat="47.33166" lon="-1.32347">
        <ele>62.1</ele>
        <time>2011-10-02T08:56:32Z</time>
      </trkpt>
      <trkpt lat="47.33162" lon="-1.32344">
        <ele>62.4</ele>
        <time>2011-10-02T08:56:33Z</time>
      </trkpt>
      <trkpt lat="47.33157" lon="-1.32339">
        <ele>62.2</ele>
        <time>2011-10-02T08:56:34Z</time>
      </trkpt>
      <trkpt lat="47.33153" lon="-1.32335">
        <ele>61.9</ele>
        <time>2011-10-02T08:56:35Z</time>
      </trkpt>
      <trkpt lat="47.33142" lon="-1.3233">
        <ele>63.6</ele>
        <time>2011-10-02T08:56:37Z</time>
      </trkpt>
      <trkpt lat="47.33136" lon="-1.32328">
        <ele>63.7</ele>
        <time>2011-10-02T08:56:38Z</time>
      </trkpt>
      <trkpt lat="47.33131" lon="-1.32326">
        <ele>64.2</ele>
        <time>2011-10-02T08:56:39Z</time>
      </trkpt>
      <trkpt lat="47.33125" lon="-1.3232">
        <ele>64.9</ele>
        <time>2011-10-02T08:56:40Z</time>
      </trkpt>
      <trkpt lat="47.33115" lon="-1.32312">
        <ele>59.2</ele>
        <time>2011-10-02T08:56:41Z</time>
      </trkpt>
      <trkpt lat="47.33109" lon="-1.32308">
        <ele>60.2</ele>
        <time>2011-10-02T08:56:42Z</time>
      </trkpt>
      <trkpt lat="47.33105" lon="-1.32303">
        <ele>56.5</ele>
        <time>2011-10-02T08:56:43Z</time>
      </trkpt>
      <trkpt lat="47.331" lon="-1.32301">
        <ele>58.1</ele>
        <time>2011-10-02T08:56:44Z</time>
      </trkpt>
      <trkpt lat="47.33093" lon="-1.32293">
        <ele>58.2</ele>
        <time>2011-10-02T08:56:46Z</time>
      </trkpt>
      <trkpt lat="47.33085" lon="-1.32288">
        <ele>58.5</ele>
        <time>2011-10-02T08:56:48Z</time>
      </trkpt>
      <trkpt lat="47.3308" lon="-1.32284">
        <ele>57.7</ele>
        <time>2011-10-02T08:56:50Z</time>
      </trkpt>
      <trkpt lat="47.33075" lon="-1.3228">
        <ele>57.9</ele>
        <time>2011-10-02T08:56:51Z</time>
      </trkpt>
      <trkpt lat="47.3307" lon="-1.32277">
        <ele>58.7</ele>
        <time>2011-10-02T08:56:52Z</time>
      </trkpt>
      <trkpt lat="47.33059" lon="-1.32268">
        <ele>59.4</ele>
        <time>2011-10-02T08:56:53Z</time>
      </trkpt>
      <trkpt lat="47.33055" lon="-1.32264">
        <ele>60.5</ele>
        <time>2011-10-02T08:56:54Z</time>
      </trkpt>
      <trkpt lat="47.33048" lon="-1.32254">
        <ele>60.3</ele>
        <time>2011-10-02T08:56:57Z</time>
      </trkpt>
      <trkpt lat="47.33047" lon="-1.32246">
        <ele>61</ele>
        <time>2011-10-02T08:56:58Z</time>
      </trkpt>
      <trkpt lat="47.33048" lon="-1.32237">
        <ele>61.7</ele>
        <time>2011-10-02T08:56:59Z</time>
      </trkpt>
      <trkpt lat="47.3305" lon="-1.3223">
        <ele>62.5</ele>
        <time>2011-10-02T08:57:00Z</time>
      </trkpt>
      <trkpt lat="47.33051" lon="-1.3222">
        <ele>61.6</ele>
        <time>2011-10-02T08:57:01Z</time>
      </trkpt>
      <trkpt lat="47.33057" lon="-1.32208">
        <ele>61.2</ele>
        <time>2011-10-02T08:57:02Z</time>
      </trkpt>
      <trkpt lat="47.33063" lon="-1.322">
        <ele>60.8</ele>
        <time>2011-10-02T08:57:03Z</time>
      </trkpt>
      <trkpt lat="47.33065" lon="-1.32193">
        <ele>60.4</ele>
        <time>2011-10-02T08:57:04Z</time>
      </trkpt>
      <trkpt lat="47.33069" lon="-1.32188">
        <ele>59.6</ele>
        <time>2011-10-02T08:57:05Z</time>
      </trkpt>
      <trkpt lat="47.33072" lon="-1.32178">
        <ele>59.2</ele>
        <time>2011-10-02T08:57:06Z</time>
      </trkpt>
      <trkpt lat="47.33076" lon="-1.32171">
        <ele>59.6</ele>
        <time>2011-10-02T08:57:07Z</time>
      </trkpt>
      <trkpt lat="47.33082" lon="-1.32162">
        <ele>60.1</ele>
        <time>2011-10-02T08:57:09Z</time>
      </trkpt>
      <trkpt lat="47.33092" lon="-1.3217">
        <ele>55.8</ele>
        <time>2011-10-02T08:57:10Z</time>
      </trkpt>
      <trkpt lat="47.33098" lon="-1.32165">
        <ele>56.7</ele>
        <time>2011-10-02T08:57:11Z</time>
      </trkpt>
      <trkpt lat="47.33104" lon="-1.32162">
        <ele>58.4</ele>
        <time>2011-10-02T08:57:13Z</time>
      </trkpt>
      <trkpt lat="47.33113" lon="-1.32159">
        <ele>60.5</ele>
        <time>2011-10-02T08:57:15Z</time>
      </trkpt>
      <trkpt lat="47.33118" lon="-1.32159">
        <ele>60.9</ele>
        <time>2011-10-02T08:57:16Z</time>
      </trkpt>
      <trkpt lat="47.33124" lon="-1.32156">
        <ele>61</ele>
        <time>2011-10-02T08:57:18Z</time>
      </trkpt>
      <trkpt lat="47.33129" lon="-1.32156">
        <ele>61.2</ele>
        <time>2011-10-02T08:57:19Z</time>
      </trkpt>
      <trkpt lat="47.33132" lon="-1.32161">
        <ele>62.1</ele>
        <time>2011-10-02T08:57:22Z</time>
      </trkpt>
      <trkpt lat="47.33137" lon="-1.32164">
        <ele>63.5</ele>
        <time>2011-10-02T08:57:25Z</time>
      </trkpt>
      <trkpt lat="47.33143" lon="-1.32166">
        <ele>65.3</ele>
        <time>2011-10-02T08:57:29Z</time>
      </trkpt>
      <trkpt lat="47.33148" lon="-1.32166">
        <ele>73.6</ele>
        <time>2011-10-02T08:58:11Z</time>
      </trkpt>
      <trkpt lat="47.33154" lon="-1.32165">
        <ele>76.9</ele>
        <time>2011-10-02T08:58:23Z</time>
      </trkpt>
      <trkpt lat="47.33159" lon="-1.32162">
        <ele>76.4</ele>
        <time>2011-10-02T08:58:26Z</time>
      </trkpt>
      <trkpt lat="47.33164" lon="-1.32164">
        <ele>75.4</ele>
        <time>2011-10-02T08:58:29Z</time>
      </trkpt>
      <trkpt lat="47.33169" lon="-1.32162">
        <ele>79.2</ele>
        <time>2011-10-02T08:58:34Z</time>
      </trkpt>
      <trkpt lat="47.33169" lon="-1.32169">
        <ele>82</ele>
        <time>2011-10-02T08:58:40Z</time>
      </trkpt>
      <trkpt lat="47.33173" lon="-1.32174">
        <ele>83.7</ele>
        <time>2011-10-02T08:58:47Z</time>
      </trkpt>
      <trkpt lat="47.33175" lon="-1.32181">
        <ele>83.6</ele>
        <time>2011-10-02T08:58:51Z</time>
      </trkpt>
      <trkpt lat="47.3318" lon="-1.32183">
        <ele>83.7</ele>
        <time>2011-10-02T08:58:57Z</time>
      </trkpt>
      <trkpt lat="47.33184" lon="-1.32184">
        <ele>86.3</ele>
        <time>2011-10-02T08:59:03Z</time>
      </trkpt>
      <trkpt lat="47.33184" lon="-1.32184">
        <ele>86.3</ele>
        <time>2011-10-02T08:59:03Z</time>
      </trkpt>
      <trkpt lat="47.33184" lon="-1.32184">
        <ele>86.3</ele>
        <time>2011-10-02T08:59:04Z</time>
      </trkpt>
      <trkpt lat="47.33184" lon="-1.32192">
        <ele>86.1</ele>
        <time>2011-10-02T08:59:07Z</time>
      </trkpt>
      <trkpt lat="47.33189" lon="-1.32195">
        <ele>86.9</ele>
        <time>2011-10-02T08:59:11Z</time>
      </trkpt>
      <trkpt lat="47.33193" lon="-1.32198">
        <ele>87.7</ele>
        <time>2011-10-02T08:59:14Z</time>
      </trkpt>
      <trkpt lat="47.33196" lon="-1.32202">
        <ele>88.5</ele>
        <time>2011-10-02T08:59:19Z</time>
      </trkpt>
      <trkpt lat="47.332" lon="-1.32208">
        <ele>90</ele>
        <time>2011-10-02T08:59:24Z</time>
      </trkpt>
      <trkpt lat="47.33205" lon="-1.32211">
        <ele>88.8</ele>
        <time>2011-10-02T08:59:26Z</time>
      </trkpt>
      <trkpt lat="47.33209" lon="-1.32212">
        <ele>87.5</ele>
        <time>2011-10-02T08:59:39Z</time>
      </trkpt>
      <trkpt lat="47.33214" lon="-1.32213">
        <ele>88.2</ele>
        <time>2011-10-02T08:59:42Z</time>
      </trkpt>
      <trkpt lat="47.33219" lon="-1.3221">
        <ele>90.2</ele>
        <time>2011-10-02T08:59:46Z</time>
      </trkpt>
      <trkpt lat="47.33223" lon="-1.32209">
        <ele>90.7</ele>
        <time>2011-10-02T08:59:51Z</time>
      </trkpt>
      <trkpt lat="47.33228" lon="-1.32211">
        <ele>89.5</ele>
        <time>2011-10-02T08:59:55Z</time>
      </trkpt>
      <trkpt lat="47.33234" lon="-1.3221">
        <ele>90.2</ele>
        <time>2011-10-02T09:00:00Z</time>
      </trkpt>
      <trkpt lat="47.33239" lon="-1.32211">
        <ele>89.1</ele>
        <time>2011-10-02T09:00:04Z</time>
      </trkpt>
      <trkpt lat="47.33243" lon="-1.32206">
        <ele>89.5</ele>
        <time>2011-10-02T09:00:12Z</time>
      </trkpt>
      <trkpt lat="47.33248" lon="-1.32206">
        <ele>90.1</ele>
        <time>2011-10-02T09:00:20Z</time>
      </trkpt>
      <trkpt lat="47.33251" lon="-1.32201">
        <ele>91.6</ele>
        <time>2011-10-02T09:00:25Z</time>
      </trkpt>
      <trkpt lat="47.33256" lon="-1.32198">
        <ele>93.4</ele>
        <time>2011-10-02T09:00:32Z</time>
      </trkpt>
      <trkpt lat="47.33262" lon="-1.32196">
        <ele>93.9</ele>
        <time>2011-10-02T09:00:34Z</time>
      </trkpt>
      <trkpt lat="47.33267" lon="-1.32192">
        <ele>94.6</ele>
        <time>2011-10-02T09:00:36Z</time>
      </trkpt>
      <trkpt lat="47.33272" lon="-1.32189">
        <ele>95.9</ele>
        <time>2011-10-02T09:00:38Z</time>
      </trkpt>
      <trkpt lat="47.33276" lon="-1.32184">
        <ele>96.3</ele>
        <time>2011-10-02T09:00:39Z</time>
      </trkpt>
      <trkpt lat="47.3328" lon="-1.32182">
        <ele>96</ele>
        <time>2011-10-02T09:00:42Z</time>
      </trkpt>
      <trkpt lat="47.33289" lon="-1.32174">
        <ele>97</ele>
        <time>2011-10-02T09:00:45Z</time>
      </trkpt>
      <trkpt lat="47.33292" lon="-1.3217">
        <ele>97.6</ele>
        <time>2011-10-02T09:00:48Z</time>
      </trkpt>
      <trkpt lat="47.33297" lon="-1.32166">
        <ele>96.9</ele>
        <time>2011-10-02T09:00:51Z</time>
      </trkpt>
      <trkpt lat="47.33302" lon="-1.32166">
        <ele>97</ele>
        <time>2011-10-02T09:00:53Z</time>
      </trkpt>
      <trkpt lat="47.33306" lon="-1.32162">
        <ele>97.1</ele>
        <time>2011-10-02T09:00:55Z</time>
      </trkpt>
      <trkpt lat="47.3331" lon="-1.32157">
        <ele>97.6</ele>
        <time>2011-10-02T09:00:57Z</time>
      </trkpt>
      <trkpt lat="47.33314" lon="-1.32152">
        <ele>97.9</ele>
        <time>2011-10-02T09:00:59Z</time>
      </trkpt>
      <trkpt lat="47.3332" lon="-1.32147">
        <ele>99.2</ele>
        <time>2011-10-02T09:01:01Z</time>
      </trkpt>
      <trkpt lat="47.33328" lon="-1.32144">
        <ele>99.1</ele>
        <time>2011-10-02T09:01:05Z</time>
      </trkpt>
      <trkpt lat="47.33336" lon="-1.32145">
        <ele>99.7</ele>
        <time>2011-10-02T09:01:07Z</time>
      </trkpt>
      <trkpt lat="47.3334" lon="-1.32147">
        <ele>101.1</ele>
        <time>2011-10-02T09:01:11Z</time>
      </trkpt>
      <trkpt lat="47.33347" lon="-1.32146">
        <ele>101.8</ele>
        <time>2011-10-02T09:01:13Z</time>
      </trkpt>
      <trkpt lat="47.33352" lon="-1.32147">
        <ele>103.5</ele>
        <time>2011-10-02T09:01:15Z</time>
      </trkpt>
      <trkpt lat="47.33357" lon="-1.32148">
        <ele>103.1</ele>
        <time>2011-10-02T09:01:17Z</time>
      </trkpt>
      <trkpt lat="47.33363" lon="-1.32151">
        <ele>101.8</ele>
        <time>2011-10-02T09:01:20Z</time>
      </trkpt>
      <trkpt lat="47.33371" lon="-1.32152">
        <ele>104</ele>
        <time>2011-10-02T09:01:22Z</time>
      </trkpt>
      <trkpt lat="47.33376" lon="-1.32146">
        <ele>101.7</ele>
        <time>2011-10-02T09:01:27Z</time>
      </trkpt>
      <trkpt lat="47.33382" lon="-1.32143">
        <ele>102.1</ele>
        <time>2011-10-02T09:01:28Z</time>
      </trkpt>
      <trkpt lat="47.33387" lon="-1.32141">
        <ele>102.3</ele>
        <time>2011-10-02T09:01:30Z</time>
      </trkpt>
      <trkpt lat="47.3339" lon="-1.32134">
        <ele>101.6</ele>
        <time>2011-10-02T09:01:33Z</time>
      </trkpt>
      <trkpt lat="47.33389" lon="-1.32127">
        <ele>104.3</ele>
        <time>2011-10-02T09:01:35Z</time>
      </trkpt>
      <trkpt lat="47.33393" lon="-1.32123">
        <ele>105.1</ele>
        <time>2011-10-02T09:01:36Z</time>
      </trkpt>
      <trkpt lat="47.33399" lon="-1.32111">
        <ele>105.5</ele>
        <time>2011-10-02T09:01:40Z</time>
      </trkpt>
      <trkpt lat="47.33402" lon="-1.32105">
        <ele>105.8</ele>
        <time>2011-10-02T09:01:43Z</time>
      </trkpt>
      <trkpt lat="47.33405" lon="-1.32099">
        <ele>105.5</ele>
        <time>2011-10-02T09:01:46Z</time>
      </trkpt>
      <trkpt lat="47.3341" lon="-1.32091">
        <ele>105.9</ele>
        <time>2011-10-02T09:01:48Z</time>
      </trkpt>
      <trkpt lat="47.33413" lon="-1.32084">
        <ele>107.6</ele>
        <time>2011-10-02T09:01:50Z</time>
      </trkpt>
      <trkpt lat="47.33416" lon="-1.32077">
        <ele>108.2</ele>
        <time>2011-10-02T09:01:53Z</time>
      </trkpt>
      <trkpt lat="47.33419" lon="-1.32072">
        <ele>108.7</ele>
        <time>2011-10-02T09:01:55Z</time>
      </trkpt>
      <trkpt lat="47.33423" lon="-1.32068">
        <ele>108.3</ele>
        <time>2011-10-02T09:01:57Z</time>
      </trkpt>
      <trkpt lat="47.33427" lon="-1.32057">
        <ele>109.3</ele>
        <time>2011-10-02T09:01:59Z</time>
      </trkpt>
      <trkpt lat="47.33429" lon="-1.32049">
        <ele>108.8</ele>
        <time>2011-10-02T09:02:01Z</time>
      </trkpt>
      <trkpt lat="47.33434" lon="-1.32041">
        <ele>109.2</ele>
        <time>2011-10-02T09:02:03Z</time>
      </trkpt>
      <trkpt lat="47.33433" lon="-1.32034">
        <ele>110.2</ele>
        <time>2011-10-02T09:02:05Z</time>
      </trkpt>
      <trkpt lat="47.33437" lon="-1.32028">
        <ele>110.9</ele>
        <time>2011-10-02T09:02:07Z</time>
      </trkpt>
      <trkpt lat="47.33442" lon="-1.32017">
        <ele>111.8</ele>
        <time>2011-10-02T09:02:09Z</time>
      </trkpt>
      <trkpt lat="47.33445" lon="-1.32011">
        <ele>112.3</ele>
        <time>2011-10-02T09:02:12Z</time>
      </trkpt>
      <trkpt lat="47.33447" lon="-1.32004">
        <ele>111.6</ele>
        <time>2011-10-02T09:02:14Z</time>
      </trkpt>
      <trkpt lat="47.33452" lon="-1.31998">
        <ele>110.9</ele>
        <time>2011-10-02T09:02:17Z</time>
      </trkpt>
      <trkpt lat="47.33459" lon="-1.31991">
        <ele>112.1</ele>
        <time>2011-10-02T09:02:19Z</time>
      </trkpt>
      <trkpt lat="47.33462" lon="-1.31986">
        <ele>111.9</ele>
        <time>2011-10-02T09:02:20Z</time>
      </trkpt>
      <trkpt lat="47.33469" lon="-1.31979">
        <ele>110.5</ele>
        <time>2011-10-02T09:02:23Z</time>
      </trkpt>
      <trkpt lat="47.33475" lon="-1.31974">
        <ele>111.7</ele>
        <time>2011-10-02T09:02:26Z</time>
      </trkpt>
      <trkpt lat="47.33482" lon="-1.31973">
        <ele>113.1</ele>
        <time>2011-10-02T09:02:30Z</time>
      </trkpt>
      <trkpt lat="47.33488" lon="-1.31977">
        <ele>113.3</ele>
        <time>2011-10-02T09:02:33Z</time>
      </trkpt>
      <trkpt lat="47.33497" lon="-1.31986">
        <ele>113.4</ele>
        <time>2011-10-02T09:02:36Z</time>
      </trkpt>
      <trkpt lat="47.33502" lon="-1.31986">
        <ele>111</ele>
        <time>2011-10-02T09:02:37Z</time>
      </trkpt>
      <trkpt lat="47.33507" lon="-1.31992">
        <ele>110.8</ele>
        <time>2011-10-02T09:02:39Z</time>
      </trkpt>
      <trkpt lat="47.33513" lon="-1.31997">
        <ele>111.7</ele>
        <time>2011-10-02T09:02:42Z</time>
      </trkpt>
      <trkpt lat="47.33519" lon="-1.32001">
        <ele>112.8</ele>
        <time>2011-10-02T09:02:45Z</time>
      </trkpt>
      <trkpt lat="47.33524" lon="-1.32005">
        <ele>112.7</ele>
        <time>2011-10-02T09:02:47Z</time>
      </trkpt>
      <trkpt lat="47.33531" lon="-1.32011">
        <ele>112.2</ele>
        <time>2011-10-02T09:02:49Z</time>
      </trkpt>
      <trkpt lat="47.33538" lon="-1.32017">
        <ele>112</ele>
        <time>2011-10-02T09:02:51Z</time>
      </trkpt>
      <trkpt lat="47.33543" lon="-1.32023">
        <ele>112.3</ele>
        <time>2011-10-02T09:02:53Z</time>
      </trkpt>
      <trkpt lat="47.3355" lon="-1.32024">
        <ele>113.3</ele>
        <time>2011-10-02T09:02:55Z</time>
      </trkpt>
      <trkpt lat="47.33558" lon="-1.32024">
        <ele>114.7</ele>
        <time>2011-10-02T09:02:57Z</time>
      </trkpt>
      <trkpt lat="47.33563" lon="-1.32023">
        <ele>116.1</ele>
        <time>2011-10-02T09:02:58Z</time>
      </trkpt>
      <trkpt lat="47.33572" lon="-1.32022">
        <ele>114.8</ele>
        <time>2011-10-02T09:03:01Z</time>
      </trkpt>
      <trkpt lat="47.33576" lon="-1.32022">
        <ele>114.6</ele>
        <time>2011-10-02T09:03:02Z</time>
      </trkpt>
      <trkpt lat="47.33587" lon="-1.3202">
        <ele>116.3</ele>
        <time>2011-10-02T09:03:04Z</time>
      </trkpt>
      <trkpt lat="47.33592" lon="-1.32021">
        <ele>117.7</ele>
        <time>2011-10-02T09:03:06Z</time>
      </trkpt>
      <trkpt lat="47.33598" lon="-1.32021">
        <ele>119.3</ele>
        <time>2011-10-02T09:03:07Z</time>
      </trkpt>
      <trkpt lat="47.33604" lon="-1.32022">
        <ele>120.1</ele>
        <time>2011-10-02T09:03:09Z</time>
      </trkpt>
      <trkpt lat="47.3361" lon="-1.32021">
        <ele>120.9</ele>
        <time>2011-10-02T09:03:12Z</time>
      </trkpt>
      <trkpt lat="47.33616" lon="-1.32017">
        <ele>121.3</ele>
        <time>2011-10-02T09:03:14Z</time>
      </trkpt>
      <trkpt lat="47.33621" lon="-1.32013">
        <ele>122</ele>
        <time>2011-10-02T09:03:16Z</time>
      </trkpt>
      <trkpt lat="47.33626" lon="-1.32009">
        <ele>122.7</ele>
        <time>2011-10-02T09:03:18Z</time>
      </trkpt>
      <trkpt lat="47.3363" lon="-1.32">
        <ele>125.6</ele>
        <time>2011-10-02T09:03:20Z</time>
      </trkpt>
      <trkpt lat="47.33636" lon="-1.31994">
        <ele>127.4</ele>
        <time>2011-10-02T09:03:22Z</time>
      </trkpt>
      <trkpt lat="47.3364" lon="-1.31987">
        <ele>128.1</ele>
        <time>2011-10-02T09:03:24Z</time>
      </trkpt>
      <trkpt lat="47.33642" lon="-1.31979">
        <ele>128.6</ele>
        <time>2011-10-02T09:03:26Z</time>
      </trkpt>
      <trkpt lat="47.33645" lon="-1.31975">
        <ele>130.4</ele>
        <time>2011-10-02T09:03:27Z</time>
      </trkpt>
      <trkpt lat="47.33649" lon="-1.31967">
        <ele>130</ele>
        <time>2011-10-02T09:03:29Z</time>
      </trkpt>
      <trkpt lat="47.33654" lon="-1.31955">
        <ele>130.2</ele>
        <time>2011-10-02T09:03:31Z</time>
      </trkpt>
      <trkpt lat="47.33657" lon="-1.3195">
        <ele>130.8</ele>
        <time>2011-10-02T09:03:32Z</time>
      </trkpt>
      <trkpt lat="47.33661" lon="-1.31942">
        <ele>130.9</ele>
        <time>2011-10-02T09:03:35Z</time>
      </trkpt>
      <trkpt lat="47.33665" lon="-1.31934">
        <ele>131.2</ele>
        <time>2011-10-02T09:03:37Z</time>
      </trkpt>
      <trkpt lat="47.3367" lon="-1.31923">
        <ele>132.1</ele>
        <time>2011-10-02T09:03:39Z</time>
      </trkpt>
      <trkpt lat="47.33673" lon="-1.31918">
        <ele>131.2</ele>
        <time>2011-10-02T09:03:41Z</time>
      </trkpt>
      <trkpt lat="47.33677" lon="-1.31914">
        <ele>130.8</ele>
        <time>2011-10-02T09:03:42Z</time>
      </trkpt>
      <trkpt lat="47.33679" lon="-1.31908">
        <ele>128.3</ele>
        <time>2011-10-02T09:03:44Z</time>
      </trkpt>
      <trkpt lat="47.33687" lon="-1.319">
        <ele>126.1</ele>
        <time>2011-10-02T09:03:46Z</time>
      </trkpt>
      <trkpt lat="47.3369" lon="-1.31891">
        <ele>127.9</ele>
        <time>2011-10-02T09:03:49Z</time>
      </trkpt>
      <trkpt lat="47.33692" lon="-1.31883">
        <ele>126.6</ele>
        <time>2011-10-02T09:03:51Z</time>
      </trkpt>
      <trkpt lat="47.33694" lon="-1.31876">
        <ele>127.6</ele>
        <time>2011-10-02T09:03:53Z</time>
      </trkpt>
      <trkpt lat="47.33696" lon="-1.3187">
        <ele>128.3</ele>
        <time>2011-10-02T09:03:54Z</time>
      </trkpt>
      <trkpt lat="47.33698" lon="-1.31862">
        <ele>128.9</ele>
        <time>2011-10-02T09:03:56Z</time>
      </trkpt>
      <trkpt lat="47.33703" lon="-1.31854">
        <ele>129.5</ele>
        <time>2011-10-02T09:03:58Z</time>
      </trkpt>
      <trkpt lat="47.33709" lon="-1.3185">
        <ele>128</ele>
        <time>2011-10-02T09:04:00Z</time>
      </trkpt>
      <trkpt lat="47.33719" lon="-1.31838">
        <ele>127.9</ele>
        <time>2011-10-02T09:04:03Z</time>
      </trkpt>
      <trkpt lat="47.33724" lon="-1.31829">
        <ele>129.6</ele>
        <time>2011-10-02T09:04:06Z</time>
      </trkpt>
      <trkpt lat="47.33725" lon="-1.31822">
        <ele>129.3</ele>
        <time>2011-10-02T09:04:07Z</time>
      </trkpt>
      <trkpt lat="47.33728" lon="-1.31813">
        <ele>125.4</ele>
        <time>2011-10-02T09:04:10Z</time>
      </trkpt>
      <trkpt lat="47.3373" lon="-1.31801">
        <ele>126.6</ele>
        <time>2011-10-02T09:04:12Z</time>
      </trkpt>
      <trkpt lat="47.33733" lon="-1.3179">
        <ele>128.8</ele>
        <time>2011-10-02T09:04:14Z</time>
      </trkpt>
      <trkpt lat="47.33738" lon="-1.3178">
        <ele>128.8</ele>
        <time>2011-10-02T09:04:17Z</time>
      </trkpt>
      <trkpt lat="47.3374" lon="-1.31773">
        <ele>126.8</ele>
        <time>2011-10-02T09:04:19Z</time>
      </trkpt>
      <trkpt lat="47.33744" lon="-1.31764">
        <ele>126.8</ele>
        <time>2011-10-02T09:04:22Z</time>
      </trkpt>
      <trkpt lat="47.33748" lon="-1.31754">
        <ele>125.8</ele>
        <time>2011-10-02T09:04:25Z</time>
      </trkpt>
      <trkpt lat="47.33753" lon="-1.31744">
        <ele>126.7</ele>
        <time>2011-10-02T09:04:27Z</time>
      </trkpt>
      <trkpt lat="47.33754" lon="-1.31732">
        <ele>127.9</ele>
        <time>2011-10-02T09:04:31Z</time>
      </trkpt>
      <trkpt lat="47.33757" lon="-1.31723">
        <ele>128.6</ele>
        <time>2011-10-02T09:04:33Z</time>
      </trkpt>
      <trkpt lat="47.3376" lon="-1.31714">
        <ele>128.5</ele>
        <time>2011-10-02T09:04:35Z</time>
      </trkpt>
      <trkpt lat="47.33764" lon="-1.31708">
        <ele>128.5</ele>
        <time>2011-10-02T09:04:36Z</time>
      </trkpt>
      <trkpt lat="47.33766" lon="-1.31703">
        <ele>128.3</ele>
        <time>2011-10-02T09:04:37Z</time>
      </trkpt>
      <trkpt lat="47.33768" lon="-1.31696">
        <ele>127.4</ele>
        <time>2011-10-02T09:04:39Z</time>
      </trkpt>
      <trkpt lat="47.3377" lon="-1.31688">
        <ele>127.6</ele>
        <time>2011-10-02T09:04:40Z</time>
      </trkpt>
      <trkpt lat="47.33772" lon="-1.31678">
        <ele>128.3</ele>
        <time>2011-10-02T09:04:42Z</time>
      </trkpt>
      <trkpt lat="47.33771" lon="-1.31668">
        <ele>127.5</ele>
        <time>2011-10-02T09:04:44Z</time>
      </trkpt>
      <trkpt lat="47.33773" lon="-1.31655">
        <ele>127.1</ele>
        <time>2011-10-02T09:04:46Z</time>
      </trkpt>
      <trkpt lat="47.33773" lon="-1.31648">
        <ele>126.4</ele>
        <time>2011-10-02T09:04:48Z</time>
      </trkpt>
      <trkpt lat="47.33774" lon="-1.3164">
        <ele>125.5</ele>
        <time>2011-10-02T09:04:50Z</time>
      </trkpt>
      <trkpt lat="47.33774" lon="-1.31627">
        <ele>124.4</ele>
        <time>2011-10-02T09:04:53Z</time>
      </trkpt>
      <trkpt lat="47.33775" lon="-1.31617">
        <ele>124.9</ele>
        <time>2011-10-02T09:04:55Z</time>
      </trkpt>
      <trkpt lat="47.33775" lon="-1.31608">
        <ele>125.1</ele>
        <time>2011-10-02T09:04:57Z</time>
      </trkpt>
      <trkpt lat="47.33777" lon="-1.3159">
        <ele>125.3</ele>
        <time>2011-10-02T09:04:59Z</time>
      </trkpt>
      <trkpt lat="47.33778" lon="-1.31581">
        <ele>124.4</ele>
        <time>2011-10-02T09:05:01Z</time>
      </trkpt>
      <trkpt lat="47.33778" lon="-1.31572">
        <ele>124.9</ele>
        <time>2011-10-02T09:05:03Z</time>
      </trkpt>
      <trkpt lat="47.33781" lon="-1.31565">
        <ele>126.4</ele>
        <time>2011-10-02T09:05:04Z</time>
      </trkpt>
      <trkpt lat="47.3378" lon="-1.31558">
        <ele>128.1</ele>
        <time>2011-10-02T09:05:05Z</time>
      </trkpt>
      <trkpt lat="47.33784" lon="-1.31545">
        <ele>127.1</ele>
        <time>2011-10-02T09:05:08Z</time>
      </trkpt>
      <trkpt lat="47.33787" lon="-1.31537">
        <ele>127.2</ele>
        <time>2011-10-02T09:05:10Z</time>
      </trkpt>
      <trkpt lat="47.33789" lon="-1.31531">
        <ele>126.3</ele>
        <time>2011-10-02T09:05:11Z</time>
      </trkpt>
      <trkpt lat="47.33792" lon="-1.31522">
        <ele>126.2</ele>
        <time>2011-10-02T09:05:12Z</time>
      </trkpt>
      <trkpt lat="47.33793" lon="-1.31514">
        <ele>125.5</ele>
        <time>2011-10-02T09:05:13Z</time>
      </trkpt>
      <trkpt lat="47.33796" lon="-1.315">
        <ele>126.1</ele>
        <time>2011-10-02T09:05:15Z</time>
      </trkpt>
      <trkpt lat="47.338" lon="-1.31484">
        <ele>127.3</ele>
        <time>2011-10-02T09:05:17Z</time>
      </trkpt>
      <trkpt lat="47.33802" lon="-1.31474">
        <ele>126.6</ele>
        <time>2011-10-02T09:05:18Z</time>
      </trkpt>
      <trkpt lat="47.33806" lon="-1.31458">
        <ele>125.9</ele>
        <time>2011-10-02T09:05:19Z</time>
      </trkpt>
      <trkpt lat="47.33808" lon="-1.31449">
        <ele>124.7</ele>
        <time>2011-10-02T09:05:20Z</time>
      </trkpt>
      <trkpt lat="47.33813" lon="-1.3144">
        <ele>125</ele>
        <time>2011-10-02T09:05:22Z</time>
      </trkpt>
      <trkpt lat="47.33814" lon="-1.31431">
        <ele>124.1</ele>
        <time>2011-10-02T09:05:23Z</time>
      </trkpt>
      <trkpt lat="47.33818" lon="-1.31424">
        <ele>124.1</ele>
        <time>2011-10-02T09:05:24Z</time>
      </trkpt>
      <trkpt lat="47.33821" lon="-1.31416">
        <ele>124.2</ele>
        <time>2011-10-02T09:05:25Z</time>
      </trkpt>
      <trkpt lat="47.33824" lon="-1.31408">
        <ele>123.9</ele>
        <time>2011-10-02T09:05:26Z</time>
      </trkpt>
      <trkpt lat="47.33826" lon="-1.314">
        <ele>123.3</ele>
        <time>2011-10-02T09:05:27Z</time>
      </trkpt>
      <trkpt lat="47.33837" lon="-1.31382">
        <ele>123.2</ele>
        <time>2011-10-02T09:05:29Z</time>
      </trkpt>
      <trkpt lat="47.33839" lon="-1.31374">
        <ele>122.4</ele>
        <time>2011-10-02T09:05:30Z</time>
      </trkpt>
      <trkpt lat="47.33844" lon="-1.31362">
        <ele>121.7</ele>
        <time>2011-10-02T09:05:31Z</time>
      </trkpt>
      <trkpt lat="47.3385" lon="-1.31354">
        <ele>122.4</ele>
        <time>2011-10-02T09:05:32Z</time>
      </trkpt>
      <trkpt lat="47.33854" lon="-1.31344">
        <ele>122.1</ele>
        <time>2011-10-02T09:05:33Z</time>
      </trkpt>
      <trkpt lat="47.33858" lon="-1.31336">
        <ele>121.6</ele>
        <time>2011-10-02T09:05:34Z</time>
      </trkpt>
      <trkpt lat="47.33863" lon="-1.31326">
        <ele>121.2</ele>
        <time>2011-10-02T09:05:35Z</time>
      </trkpt>
      <trkpt lat="47.33866" lon="-1.3132">
        <ele>121.5</ele>
        <time>2011-10-02T09:05:36Z</time>
      </trkpt>
      <trkpt lat="47.3387" lon="-1.31312">
        <ele>121.5</ele>
        <time>2011-10-02T09:05:37Z</time>
      </trkpt>
      <trkpt lat="47.33873" lon="-1.31305">
        <ele>121.5</ele>
        <time>2011-10-02T09:05:38Z</time>
      </trkpt>
      <trkpt lat="47.33882" lon="-1.31295">
        <ele>119.2</ele>
        <time>2011-10-02T09:05:39Z</time>
      </trkpt>
      <trkpt lat="47.33884" lon="-1.31289">
        <ele>119.1</ele>
        <time>2011-10-02T09:05:40Z</time>
      </trkpt>
      <trkpt lat="47.33889" lon="-1.3128">
        <ele>118.1</ele>
        <time>2011-10-02T09:05:41Z</time>
      </trkpt>
      <trkpt lat="47.33893" lon="-1.31272">
        <ele>118.1</ele>
        <time>2011-10-02T09:05:43Z</time>
      </trkpt>
      <trkpt lat="47.33898" lon="-1.31266">
        <ele>118.3</ele>
        <time>2011-10-02T09:05:44Z</time>
      </trkpt>
      <trkpt lat="47.339" lon="-1.31259">
        <ele>119</ele>
        <time>2011-10-02T09:05:45Z</time>
      </trkpt>
      <trkpt lat="47.33905" lon="-1.31252">
        <ele>118.7</ele>
        <time>2011-10-02T09:05:46Z</time>
      </trkpt>
      <trkpt lat="47.3391" lon="-1.31247">
        <ele>118.9</ele>
        <time>2011-10-02T09:05:47Z</time>
      </trkpt>
      <trkpt lat="47.33915" lon="-1.31239">
        <ele>118.8</ele>
        <time>2011-10-02T09:05:48Z</time>
      </trkpt>
      <trkpt lat="47.3392" lon="-1.31234">
        <ele>119</ele>
        <time>2011-10-02T09:05:49Z</time>
      </trkpt>
      <trkpt lat="47.33924" lon="-1.31229">
        <ele>119</ele>
        <time>2011-10-02T09:05:50Z</time>
      </trkpt>
      <trkpt lat="47.33928" lon="-1.31224">
        <ele>118.7</ele>
        <time>2011-10-02T09:05:51Z</time>
      </trkpt>
      <trkpt lat="47.33932" lon="-1.31217">
        <ele>118</ele>
        <time>2011-10-02T09:05:52Z</time>
      </trkpt>
      <trkpt lat="47.33935" lon="-1.31209">
        <ele>118</ele>
        <time>2011-10-02T09:05:53Z</time>
      </trkpt>
      <trkpt lat="47.3394" lon="-1.31195">
        <ele>118.1</ele>
        <time>2011-10-02T09:05:55Z</time>
      </trkpt>
      <trkpt lat="47.33943" lon="-1.31186">
        <ele>118.1</ele>
        <time>2011-10-02T09:05:57Z</time>
      </trkpt>
      <trkpt lat="47.33946" lon="-1.31171">
        <ele>117.9</ele>
        <time>2011-10-02T09:05:59Z</time>
      </trkpt>
      <trkpt lat="47.33951" lon="-1.31163">
        <ele>116.9</ele>
        <time>2011-10-02T09:06:02Z</time>
      </trkpt>
      <trkpt lat="47.33956" lon="-1.31161">
        <ele>116.7</ele>
        <time>2011-10-02T09:06:04Z</time>
      </trkpt>
      <trkpt lat="47.33961" lon="-1.31159">
        <ele>116.2</ele>
        <time>2011-10-02T09:06:48Z</time>
      </trkpt>
      <trkpt lat="47.33966" lon="-1.31158">
        <ele>116.3</ele>
        <time>2011-10-02T09:06:51Z</time>
      </trkpt>
      <trkpt lat="47.33967" lon="-1.31147">
        <ele>116.1</ele>
        <time>2011-10-02T09:06:54Z</time>
      </trkpt>
      <trkpt lat="47.33971" lon="-1.31144">
        <ele>116.9</ele>
        <time>2011-10-02T09:06:55Z</time>
      </trkpt>
      <trkpt lat="47.33979" lon="-1.31139">
        <ele>117.7</ele>
        <time>2011-10-02T09:06:57Z</time>
      </trkpt>
      <trkpt lat="47.33985" lon="-1.31132">
        <ele>120.3</ele>
        <time>2011-10-02T09:06:59Z</time>
      </trkpt>
      <trkpt lat="47.33992" lon="-1.3113">
        <ele>119.1</ele>
        <time>2011-10-02T09:07:01Z</time>
      </trkpt>
      <trkpt lat="47.34001" lon="-1.31123">
        <ele>118</ele>
        <time>2011-10-02T09:07:03Z</time>
      </trkpt>
      <trkpt lat="47.34009" lon="-1.3112">
        <ele>117</ele>
        <time>2011-10-02T09:07:04Z</time>
      </trkpt>
      <trkpt lat="47.34013" lon="-1.31116">
        <ele>117.8</ele>
        <time>2011-10-02T09:07:05Z</time>
      </trkpt>
      <trkpt lat="47.34018" lon="-1.31115">
        <ele>116.8</ele>
        <time>2011-10-02T09:07:06Z</time>
      </trkpt>
      <trkpt lat="47.3403" lon="-1.31114">
        <ele>115.3</ele>
        <time>2011-10-02T09:07:07Z</time>
      </trkpt>
      <trkpt lat="47.34036" lon="-1.31111">
        <ele>117.5</ele>
        <time>2011-10-02T09:07:08Z</time>
      </trkpt>
      <trkpt lat="47.34045" lon="-1.31107">
        <ele>114.8</ele>
        <time>2011-10-02T09:07:10Z</time>
      </trkpt>
      <trkpt lat="47.34055" lon="-1.31099">
        <ele>115</ele>
        <time>2011-10-02T09:07:12Z</time>
      </trkpt>
      <trkpt lat="47.34059" lon="-1.31094">
        <ele>115.6</ele>
        <time>2011-10-02T09:07:13Z</time>
      </trkpt>
      <trkpt lat="47.34064" lon="-1.31092">
        <ele>115.8</ele>
        <time>2011-10-02T09:07:15Z</time>
      </trkpt>
      <trkpt lat="47.34069" lon="-1.31092">
        <ele>115.8</ele>
        <time>2011-10-02T09:07:16Z</time>
      </trkpt>
      <trkpt lat="47.34074" lon="-1.31091">
        <ele>115.1</ele>
        <time>2011-10-02T09:07:17Z</time>
      </trkpt>
      <trkpt lat="47.34079" lon="-1.31091">
        <ele>114.8</ele>
        <time>2011-10-02T09:07:18Z</time>
      </trkpt>
      <trkpt lat="47.34086" lon="-1.31091">
        <ele>115.1</ele>
        <time>2011-10-02T09:07:20Z</time>
      </trkpt>
      <trkpt lat="47.34094" lon="-1.31087">
        <ele>116.5</ele>
        <time>2011-10-02T09:07:22Z</time>
      </trkpt>
      <trkpt lat="47.34101" lon="-1.31084">
        <ele>115.7</ele>
        <time>2011-10-02T09:07:24Z</time>
      </trkpt>
      <trkpt lat="47.3411" lon="-1.31082">
        <ele>115.2</ele>
        <time>2011-10-02T09:07:26Z</time>
      </trkpt>
      <trkpt lat="47.34116" lon="-1.31078">
        <ele>115</ele>
        <time>2011-10-02T09:07:28Z</time>
      </trkpt>
      <trkpt lat="47.34121" lon="-1.3107">
        <ele>115.9</ele>
        <time>2011-10-02T09:07:30Z</time>
      </trkpt>
      <trkpt lat="47.34125" lon="-1.31065">
        <ele>116.2</ele>
        <time>2011-10-02T09:07:31Z</time>
      </trkpt>
      <trkpt lat="47.34127" lon="-1.31059">
        <ele>115.6</ele>
        <time>2011-10-02T09:07:32Z</time>
      </trkpt>
      <trkpt lat="47.3413" lon="-1.31053">
        <ele>115.3</ele>
        <time>2011-10-02T09:07:33Z</time>
      </trkpt>
      <trkpt lat="47.34134" lon="-1.3104">
        <ele>113.8</ele>
        <time>2011-10-02T09:07:34Z</time>
      </trkpt>
      <trkpt lat="47.34139" lon="-1.31038">
        <ele>114.3</ele>
        <time>2011-10-02T09:07:35Z</time>
      </trkpt>
      <trkpt lat="47.34148" lon="-1.31033">
        <ele>113.7</ele>
        <time>2011-10-02T09:07:37Z</time>
      </trkpt>
      <trkpt lat="47.34154" lon="-1.3103">
        <ele>113.7</ele>
        <time>2011-10-02T09:07:38Z</time>
      </trkpt>
      <trkpt lat="47.3416" lon="-1.31025">
        <ele>114</ele>
        <time>2011-10-02T09:07:39Z</time>
      </trkpt>
      <trkpt lat="47.34165" lon="-1.31022">
        <ele>114.1</ele>
        <time>2011-10-02T09:07:40Z</time>
      </trkpt>
      <trkpt lat="47.34169" lon="-1.31015">
        <ele>114.8</ele>
        <time>2011-10-02T09:07:42Z</time>
      </trkpt>
      <trkpt lat="47.34173" lon="-1.3101">
        <ele>115</ele>
        <time>2011-10-02T09:07:44Z</time>
      </trkpt>
      <trkpt lat="47.34178" lon="-1.31006">
        <ele>116.3</ele>
        <time>2011-10-02T09:07:45Z</time>
      </trkpt>
      <trkpt lat="47.34182" lon="-1.31001">
        <ele>116.2</ele>
        <time>2011-10-02T09:07:46Z</time>
      </trkpt>
      <trkpt lat="47.34186" lon="-1.30997">
        <ele>116.1</ele>
        <time>2011-10-02T09:07:47Z</time>
      </trkpt>
      <trkpt lat="47.34192" lon="-1.30991">
        <ele>116</ele>
        <time>2011-10-02T09:07:49Z</time>
      </trkpt>
      <trkpt lat="47.34198" lon="-1.30989">
        <ele>115.2</ele>
        <time>2011-10-02T09:07:50Z</time>
      </trkpt>
      <trkpt lat="47.34206" lon="-1.30981">
        <ele>116.8</ele>
        <time>2011-10-02T09:07:51Z</time>
      </trkpt>
      <trkpt lat="47.34215" lon="-1.30974">
        <ele>117.5</ele>
        <time>2011-10-02T09:07:53Z</time>
      </trkpt>
      <trkpt lat="47.3422" lon="-1.30969">
        <ele>117.8</ele>
        <time>2011-10-02T09:07:54Z</time>
      </trkpt>
      <trkpt lat="47.34225" lon="-1.30969">
        <ele>118.2</ele>
        <time>2011-10-02T09:07:55Z</time>
      </trkpt>
      <trkpt lat="47.34231" lon="-1.30964">
        <ele>117.8</ele>
        <time>2011-10-02T09:07:57Z</time>
      </trkpt>
      <trkpt lat="47.34237" lon="-1.3096">
        <ele>117.3</ele>
        <time>2011-10-02T09:07:58Z</time>
      </trkpt>
      <trkpt lat="47.34243" lon="-1.30954">
        <ele>117.1</ele>
        <time>2011-10-02T09:07:59Z</time>
      </trkpt>
      <trkpt lat="47.34246" lon="-1.3095">
        <ele>116.8</ele>
        <time>2011-10-02T09:08:00Z</time>
      </trkpt>
      <trkpt lat="47.3425" lon="-1.30945">
        <ele>117.9</ele>
        <time>2011-10-02T09:08:01Z</time>
      </trkpt>
      <trkpt lat="47.34254" lon="-1.30935">
        <ele>115.7</ele>
        <time>2011-10-02T09:08:03Z</time>
      </trkpt>
      <trkpt lat="47.34257" lon="-1.30927">
        <ele>115.1</ele>
        <time>2011-10-02T09:08:04Z</time>
      </trkpt>
      <trkpt lat="47.34262" lon="-1.30918">
        <ele>115.5</ele>
        <time>2011-10-02T09:08:06Z</time>
      </trkpt>
      <trkpt lat="47.34265" lon="-1.30913">
        <ele>116.1</ele>
        <time>2011-10-02T09:08:07Z</time>
      </trkpt>
      <trkpt lat="47.34272" lon="-1.30904">
        <ele>116.1</ele>
        <time>2011-10-02T09:08:08Z</time>
      </trkpt>
      <trkpt lat="47.34276" lon="-1.30895">
        <ele>116</ele>
        <time>2011-10-02T09:08:09Z</time>
      </trkpt>
      <trkpt lat="47.3428" lon="-1.30889">
        <ele>116.7</ele>
        <time>2011-10-02T09:08:10Z</time>
      </trkpt>
      <trkpt lat="47.34283" lon="-1.3088">
        <ele>116.4</ele>
        <time>2011-10-02T09:08:12Z</time>
      </trkpt>
      <trkpt lat="47.34289" lon="-1.30875">
        <ele>116.7</ele>
        <time>2011-10-02T09:08:13Z</time>
      </trkpt>
      <trkpt lat="47.34295" lon="-1.30868">
        <ele>116.2</ele>
        <time>2011-10-02T09:08:14Z</time>
      </trkpt>
      <trkpt lat="47.34301" lon="-1.30861">
        <ele>116.1</ele>
        <time>2011-10-02T09:08:16Z</time>
      </trkpt>
      <trkpt lat="47.34304" lon="-1.30857">
        <ele>116.1</ele>
        <time>2011-10-02T09:08:17Z</time>
      </trkpt>
      <trkpt lat="47.34309" lon="-1.30853">
        <ele>116.2</ele>
        <time>2011-10-02T09:08:18Z</time>
      </trkpt>
      <trkpt lat="47.34314" lon="-1.30848">
        <ele>115.3</ele>
        <time>2011-10-02T09:08:19Z</time>
      </trkpt>
      <trkpt lat="47.3432" lon="-1.30838">
        <ele>115.6</ele>
        <time>2011-10-02T09:08:20Z</time>
      </trkpt>
      <trkpt lat="47.34325" lon="-1.30834">
        <ele>114.6</ele>
        <time>2011-10-02T09:08:21Z</time>
      </trkpt>
      <trkpt lat="47.3433" lon="-1.30828">
        <ele>114.1</ele>
        <time>2011-10-02T09:08:22Z</time>
      </trkpt>
      <trkpt lat="47.34336" lon="-1.30819">
        <ele>113.5</ele>
        <time>2011-10-02T09:08:24Z</time>
      </trkpt>
      <trkpt lat="47.34341" lon="-1.30812">
        <ele>113.2</ele>
        <time>2011-10-02T09:08:25Z</time>
      </trkpt>
      <trkpt lat="47.34346" lon="-1.30804">
        <ele>112.6</ele>
        <time>2011-10-02T09:08:26Z</time>
      </trkpt>
      <trkpt lat="47.3435" lon="-1.30795">
        <ele>112.4</ele>
        <time>2011-10-02T09:08:27Z</time>
      </trkpt>
      <trkpt lat="47.34353" lon="-1.30788">
        <ele>112.1</ele>
        <time>2011-10-02T09:08:28Z</time>
      </trkpt>
      <trkpt lat="47.34354" lon="-1.3078">
        <ele>111.3</ele>
        <time>2011-10-02T09:08:29Z</time>
      </trkpt>
      <trkpt lat="47.34356" lon="-1.30772">
        <ele>110.7</ele>
        <time>2011-10-02T09:08:30Z</time>
      </trkpt>
      <trkpt lat="47.34359" lon="-1.30764">
        <ele>109.7</ele>
        <time>2011-10-02T09:08:31Z</time>
      </trkpt>
      <trkpt lat="47.34361" lon="-1.30754">
        <ele>106.6</ele>
        <time>2011-10-02T09:08:32Z</time>
      </trkpt>
      <trkpt lat="47.34363" lon="-1.30746">
        <ele>106.6</ele>
        <time>2011-10-02T09:08:33Z</time>
      </trkpt>
      <trkpt lat="47.34366" lon="-1.30737">
        <ele>106.8</ele>
        <time>2011-10-02T09:08:34Z</time>
      </trkpt>
      <trkpt lat="47.34368" lon="-1.30727">
        <ele>106.3</ele>
        <time>2011-10-02T09:08:35Z</time>
      </trkpt>
      <trkpt lat="47.34371" lon="-1.30718">
        <ele>106.6</ele>
        <time>2011-10-02T09:08:36Z</time>
      </trkpt>
      <trkpt lat="47.34372" lon="-1.30709">
        <ele>106.2</ele>
        <time>2011-10-02T09:08:37Z</time>
      </trkpt>
      <trkpt lat="47.34376" lon="-1.30698">
        <ele>106</ele>
        <time>2011-10-02T09:08:38Z</time>
      </trkpt>
      <trkpt lat="47.34377" lon="-1.3069">
        <ele>105.9</ele>
        <time>2011-10-02T09:08:40Z</time>
      </trkpt>
      <trkpt lat="47.34377" lon="-1.30681">
        <ele>105.1</ele>
        <time>2011-10-02T09:08:43Z</time>
      </trkpt>
      <trkpt lat="47.34378" lon="-1.30673">
        <ele>104.1</ele>
        <time>2011-10-02T09:08:48Z</time>
      </trkpt>
      <trkpt lat="47.34385" lon="-1.30672">
        <ele>104.7</ele>
        <time>2011-10-02T09:08:51Z</time>
      </trkpt>
      <trkpt lat="47.3439" lon="-1.3067">
        <ele>105.4</ele>
        <time>2011-10-02T09:08:54Z</time>
      </trkpt>
      <trkpt lat="47.34394" lon="-1.30674">
        <ele>108.3</ele>
        <time>2011-10-02T09:08:58Z</time>
      </trkpt>
      <trkpt lat="47.34399" lon="-1.30677">
        <ele>107.6</ele>
        <time>2011-10-02T09:09:02Z</time>
      </trkpt>
      <trkpt lat="47.34408" lon="-1.30681">
        <ele>106.6</ele>
        <time>2011-10-02T09:09:04Z</time>
      </trkpt>
      <trkpt lat="47.34416" lon="-1.30684">
        <ele>106.4</ele>
        <time>2011-10-02T09:09:07Z</time>
      </trkpt>
      <trkpt lat="47.34421" lon="-1.30685">
        <ele>106.6</ele>
        <time>2011-10-02T09:09:08Z</time>
      </trkpt>
      <trkpt lat="47.34432" lon="-1.30674">
        <ele>107.9</ele>
        <time>2011-10-02T09:09:11Z</time>
      </trkpt>
      <trkpt lat="47.34438" lon="-1.30666">
        <ele>107.5</ele>
        <time>2011-10-02T09:09:13Z</time>
      </trkpt>
      <trkpt lat="47.34442" lon="-1.3066">
        <ele>108.5</ele>
        <time>2011-10-02T09:09:14Z</time>
      </trkpt>
      <trkpt lat="47.34446" lon="-1.30655">
        <ele>108.3</ele>
        <time>2011-10-02T09:09:15Z</time>
      </trkpt>
      <trkpt lat="47.34449" lon="-1.30647">
        <ele>107.8</ele>
        <time>2011-10-02T09:09:16Z</time>
      </trkpt>
      <trkpt lat="47.34452" lon="-1.30639">
        <ele>106.9</ele>
        <time>2011-10-02T09:09:17Z</time>
      </trkpt>
      <trkpt lat="47.34455" lon="-1.30632">
        <ele>106.3</ele>
        <time>2011-10-02T09:09:18Z</time>
      </trkpt>
      <trkpt lat="47.34457" lon="-1.30624">
        <ele>106</ele>
        <time>2011-10-02T09:09:19Z</time>
      </trkpt>
      <trkpt lat="47.34458" lon="-1.30615">
        <ele>105.3</ele>
        <time>2011-10-02T09:09:20Z</time>
      </trkpt>
      <trkpt lat="47.3446" lon="-1.30605">
        <ele>105.8</ele>
        <time>2011-10-02T09:09:21Z</time>
      </trkpt>
      <trkpt lat="47.34461" lon="-1.30597">
        <ele>105.4</ele>
        <time>2011-10-02T09:09:22Z</time>
      </trkpt>
      <trkpt lat="47.34462" lon="-1.30587">
        <ele>104.3</ele>
        <time>2011-10-02T09:09:23Z</time>
      </trkpt>
      <trkpt lat="47.34462" lon="-1.30578">
        <ele>104.5</ele>
        <time>2011-10-02T09:09:24Z</time>
      </trkpt>
      <trkpt lat="47.34463" lon="-1.30567">
        <ele>104.4</ele>
        <time>2011-10-02T09:09:25Z</time>
      </trkpt>
      <trkpt lat="47.34464" lon="-1.3055">
        <ele>99.2</ele>
        <time>2011-10-02T09:09:26Z</time>
      </trkpt>
      <trkpt lat="47.34466" lon="-1.30536">
        <ele>98.5</ele>
        <time>2011-10-02T09:09:28Z</time>
      </trkpt>
      <trkpt lat="47.34467" lon="-1.30524">
        <ele>98.1</ele>
        <time>2011-10-02T09:09:29Z</time>
      </trkpt>
      <trkpt lat="47.34466" lon="-1.30513">
        <ele>98</ele>
        <time>2011-10-02T09:09:30Z</time>
      </trkpt>
      <trkpt lat="47.34467" lon="-1.30502">
        <ele>98.3</ele>
        <time>2011-10-02T09:09:31Z</time>
      </trkpt>
      <trkpt lat="47.34467" lon="-1.30491">
        <ele>98.2</ele>
        <time>2011-10-02T09:09:32Z</time>
      </trkpt>
      <trkpt lat="47.34467" lon="-1.30479">
        <ele>98.3</ele>
        <time>2011-10-02T09:09:33Z</time>
      </trkpt>
      <trkpt lat="47.34467" lon="-1.30468">
        <ele>98.5</ele>
        <time>2011-10-02T09:09:34Z</time>
      </trkpt>
      <trkpt lat="47.34465" lon="-1.30456">
        <ele>98.6</ele>
        <time>2011-10-02T09:09:35Z</time>
      </trkpt>
      <trkpt lat="47.34463" lon="-1.30445">
        <ele>98.3</ele>
        <time>2011-10-02T09:09:36Z</time>
      </trkpt>
      <trkpt lat="47.34463" lon="-1.30436">
        <ele>98.3</ele>
        <time>2011-10-02T09:09:37Z</time>
      </trkpt>
      <trkpt lat="47.34461" lon="-1.30427">
        <ele>98.1</ele>
        <time>2011-10-02T09:09:38Z</time>
      </trkpt>
      <trkpt lat="47.34459" lon="-1.30414">
        <ele>97.7</ele>
        <time>2011-10-02T09:09:39Z</time>
      </trkpt>
      <trkpt lat="47.34455" lon="-1.30402">
        <ele>96.9</ele>
        <time>2011-10-02T09:09:40Z</time>
      </trkpt>
      <trkpt lat="47.34449" lon="-1.30386">
        <ele>95.1</ele>
        <time>2011-10-02T09:09:41Z</time>
      </trkpt>
      <trkpt lat="47.34444" lon="-1.30375">
        <ele>95.1</ele>
        <time>2011-10-02T09:09:42Z</time>
      </trkpt>
      <trkpt lat="47.34436" lon="-1.30366">
        <ele>95.7</ele>
        <time>2011-10-02T09:09:43Z</time>
      </trkpt>
      <trkpt lat="47.3443" lon="-1.30355">
        <ele>94.9</ele>
        <time>2011-10-02T09:09:44Z</time>
      </trkpt>
      <trkpt lat="47.34423" lon="-1.30345">
        <ele>96.5</ele>
        <time>2011-10-02T09:09:45Z</time>
      </trkpt>
      <trkpt lat="47.34415" lon="-1.30338">
        <ele>96.8</ele>
        <time>2011-10-02T09:09:46Z</time>
      </trkpt>
      <trkpt lat="47.34404" lon="-1.30325">
        <ele>96.5</ele>
        <time>2011-10-02T09:09:48Z</time>
      </trkpt>
      <trkpt lat="47.34395" lon="-1.30315">
        <ele>95.3</ele>
        <time>2011-10-02T09:09:49Z</time>
      </trkpt>
      <trkpt lat="47.34387" lon="-1.30305">
        <ele>95.2</ele>
        <time>2011-10-02T09:09:50Z</time>
      </trkpt>
      <trkpt lat="47.34378" lon="-1.30295">
        <ele>95</ele>
        <time>2011-10-02T09:09:51Z</time>
      </trkpt>
      <trkpt lat="47.34369" lon="-1.30286">
        <ele>93.5</ele>
        <time>2011-10-02T09:09:52Z</time>
      </trkpt>
      <trkpt lat="47.34361" lon="-1.30274">
        <ele>92.2</ele>
        <time>2011-10-02T09:09:53Z</time>
      </trkpt>
      <trkpt lat="47.34352" lon="-1.30264">
        <ele>90.2</ele>
        <time>2011-10-02T09:09:54Z</time>
      </trkpt>
      <trkpt lat="47.34344" lon="-1.30254">
        <ele>88.3</ele>
        <time>2011-10-02T09:09:55Z</time>
      </trkpt>
      <trkpt lat="47.34337" lon="-1.30242">
        <ele>86</ele>
        <time>2011-10-02T09:09:56Z</time>
      </trkpt>
      <trkpt lat="47.34332" lon="-1.3023">
        <ele>84.7</ele>
        <time>2011-10-02T09:09:57Z</time>
      </trkpt>
      <trkpt lat="47.34327" lon="-1.30218">
        <ele>83.8</ele>
        <time>2011-10-02T09:09:58Z</time>
      </trkpt>
      <trkpt lat="47.34321" lon="-1.30205">
        <ele>83.3</ele>
        <time>2011-10-02T09:09:59Z</time>
      </trkpt>
      <trkpt lat="47.34325" lon="-1.30191">
        <ele>82.8</ele>
        <time>2011-10-02T09:10:00Z</time>
      </trkpt>
      <trkpt lat="47.34327" lon="-1.30175">
        <ele>81.8</ele>
        <time>2011-10-02T09:10:01Z</time>
      </trkpt>
      <trkpt lat="47.34331" lon="-1.30152">
        <ele>80.8</ele>
        <time>2011-10-02T09:10:02Z</time>
      </trkpt>
      <trkpt lat="47.34327" lon="-1.30144">
        <ele>79.5</ele>
        <time>2011-10-02T09:10:03Z</time>
      </trkpt>
      <trkpt lat="47.34324" lon="-1.30134">
        <ele>78.6</ele>
        <time>2011-10-02T09:10:04Z</time>
      </trkpt>
      <trkpt lat="47.3432" lon="-1.30128">
        <ele>77.8</ele>
        <time>2011-10-02T09:10:05Z</time>
      </trkpt>
      <trkpt lat="47.34315" lon="-1.30125">
        <ele>76.9</ele>
        <time>2011-10-02T09:10:06Z</time>
      </trkpt>
      <trkpt lat="47.3431" lon="-1.3012">
        <ele>74.1</ele>
        <time>2011-10-02T09:10:07Z</time>
      </trkpt>
      <trkpt lat="47.34303" lon="-1.30114">
        <ele>75.3</ele>
        <time>2011-10-02T09:10:09Z</time>
      </trkpt>
      <trkpt lat="47.34308" lon="-1.30111">
        <ele>76.6</ele>
        <time>2011-10-02T09:10:14Z</time>
      </trkpt>
      <trkpt lat="47.34313" lon="-1.30113">
        <ele>73.4</ele>
        <time>2011-10-02T09:10:18Z</time>
      </trkpt>
      <trkpt lat="47.34316" lon="-1.30108">
        <ele>72.7</ele>
        <time>2011-10-02T09:10:31Z</time>
      </trkpt>
      <trkpt lat="47.34309" lon="-1.30101">
        <ele>72.2</ele>
        <time>2011-10-02T09:13:12Z</time>
      </trkpt>
      <trkpt lat="47.34304" lon="-1.30088">
        <ele>70.4</ele>
        <time>2011-10-02T09:13:13Z</time>
      </trkpt>
      <trkpt lat="47.34301" lon="-1.3008">
        <ele>70.3</ele>
        <time>2011-10-02T09:13:14Z</time>
      </trkpt>
      <trkpt lat="47.34298" lon="-1.30067">
        <ele>70.8</ele>
        <time>2011-10-02T09:13:15Z</time>
      </trkpt>
      <trkpt lat="47.34292" lon="-1.30055">
        <ele>72.2</ele>
        <time>2011-10-02T09:13:16Z</time>
      </trkpt>
      <trkpt lat="47.34288" lon="-1.30044">
        <ele>73.8</ele>
        <time>2011-10-02T09:13:17Z</time>
      </trkpt>
      <trkpt lat="47.34284" lon="-1.30029">
        <ele>72.2</ele>
        <time>2011-10-02T09:13:18Z</time>
      </trkpt>
      <trkpt lat="47.34276" lon="-1.30019">
        <ele>69.4</ele>
        <time>2011-10-02T09:13:19Z</time>
      </trkpt>
      <trkpt lat="47.34274" lon="-1.30006">
        <ele>66.3</ele>
        <time>2011-10-02T09:13:21Z</time>
      </trkpt>
      <trkpt lat="47.34274" lon="-1.29993">
        <ele>63.8</ele>
        <time>2011-10-02T09:13:23Z</time>
      </trkpt>
      <trkpt lat="47.34276" lon="-1.29981">
        <ele>62.4</ele>
        <time>2011-10-02T09:13:25Z</time>
      </trkpt>
      <trkpt lat="47.34277" lon="-1.29975">
        <ele>62.5</ele>
        <time>2011-10-02T09:13:26Z</time>
      </trkpt>
      <trkpt lat="47.34284" lon="-1.29965">
        <ele>64.2</ele>
        <time>2011-10-02T09:13:28Z</time>
      </trkpt>
      <trkpt lat="47.34283" lon="-1.29958">
        <ele>63.6</ele>
        <time>2011-10-02T09:13:30Z</time>
      </trkpt>
      <trkpt lat="47.34278" lon="-1.29953">
        <ele>66.7</ele>
        <time>2011-10-02T09:13:35Z</time>
      </trkpt>
      <trkpt lat="47.34274" lon="-1.29951">
        <ele>67.5</ele>
        <time>2011-10-02T09:13:37Z</time>
      </trkpt>
      <trkpt lat="47.34274" lon="-1.29942">
        <ele>67.3</ele>
        <time>2011-10-02T09:13:40Z</time>
      </trkpt>
      <trkpt lat="47.34279" lon="-1.29933">
        <ele>70.1</ele>
        <time>2011-10-02T09:13:43Z</time>
      </trkpt>
      <trkpt lat="47.3428" lon="-1.2992">
        <ele>71.3</ele>
        <time>2011-10-02T09:13:45Z</time>
      </trkpt>
      <trkpt lat="47.34283" lon="-1.29908">
        <ele>71.2</ele>
        <time>2011-10-02T09:13:47Z</time>
      </trkpt>
      <trkpt lat="47.34285" lon="-1.29901">
        <ele>73.7</ele>
        <time>2011-10-02T09:13:48Z</time>
      </trkpt>
      <trkpt lat="47.34285" lon="-1.29894">
        <ele>75.1</ele>
        <time>2011-10-02T09:13:49Z</time>
      </trkpt>
      <trkpt lat="47.34287" lon="-1.29887">
        <ele>75.1</ele>
        <time>2011-10-02T09:13:50Z</time>
      </trkpt>
      <trkpt lat="47.34291" lon="-1.29875">
        <ele>72.3</ele>
        <time>2011-10-02T09:13:52Z</time>
      </trkpt>
      <trkpt lat="47.34294" lon="-1.29866">
        <ele>69.6</ele>
        <time>2011-10-02T09:13:53Z</time>
      </trkpt>
      <trkpt lat="47.34299" lon="-1.29859">
        <ele>67.8</ele>
        <time>2011-10-02T09:13:54Z</time>
      </trkpt>
      <trkpt lat="47.34302" lon="-1.29854">
        <ele>67.2</ele>
        <time>2011-10-02T09:13:55Z</time>
      </trkpt>
      <trkpt lat="47.34307" lon="-1.29841">
        <ele>66.8</ele>
        <time>2011-10-02T09:13:57Z</time>
      </trkpt>
      <trkpt lat="47.3431" lon="-1.29832">
        <ele>68.2</ele>
        <time>2011-10-02T09:13:58Z</time>
      </trkpt>
      <trkpt lat="47.34312" lon="-1.29825">
        <ele>68.5</ele>
        <time>2011-10-02T09:13:59Z</time>
      </trkpt>
      <trkpt lat="47.34319" lon="-1.2981">
        <ele>68.6</ele>
        <time>2011-10-02T09:14:01Z</time>
      </trkpt>
      <trkpt lat="47.34323" lon="-1.29803">
        <ele>68.4</ele>
        <time>2011-10-02T09:14:02Z</time>
      </trkpt>
      <trkpt lat="47.34326" lon="-1.29796">
        <ele>67</ele>
        <time>2011-10-02T09:14:03Z</time>
      </trkpt>
      <trkpt lat="47.34333" lon="-1.29787">
        <ele>66.8</ele>
        <time>2011-10-02T09:14:04Z</time>
      </trkpt>
      <trkpt lat="47.34338" lon="-1.29779">
        <ele>66.3</ele>
        <time>2011-10-02T09:14:06Z</time>
      </trkpt>
      <trkpt lat="47.34338" lon="-1.29771">
        <ele>66.8</ele>
        <time>2011-10-02T09:14:08Z</time>
      </trkpt>
      <trkpt lat="47.3434" lon="-1.29761">
        <ele>67.2</ele>
        <time>2011-10-02T09:14:09Z</time>
      </trkpt>
      <trkpt lat="47.34348" lon="-1.29748">
        <ele>68.3</ele>
        <time>2011-10-02T09:14:12Z</time>
      </trkpt>
      <trkpt lat="47.34354" lon="-1.2974">
        <ele>68.8</ele>
        <time>2011-10-02T09:14:13Z</time>
      </trkpt>
      <trkpt lat="47.34359" lon="-1.29734">
        <ele>70.5</ele>
        <time>2011-10-02T09:14:14Z</time>
      </trkpt>
      <trkpt lat="47.3436" lon="-1.29724">
        <ele>67.9</ele>
        <time>2011-10-02T09:14:15Z</time>
      </trkpt>
      <trkpt lat="47.34364" lon="-1.29718">
        <ele>67.8</ele>
        <time>2011-10-02T09:14:16Z</time>
      </trkpt>
      <trkpt lat="47.34367" lon="-1.29705">
        <ele>67.7</ele>
        <time>2011-10-02T09:14:18Z</time>
      </trkpt>
      <trkpt lat="47.34373" lon="-1.29694">
        <ele>68.2</ele>
        <time>2011-10-02T09:14:20Z</time>
      </trkpt>
      <trkpt lat="47.34375" lon="-1.29687">
        <ele>67.6</ele>
        <time>2011-10-02T09:14:21Z</time>
      </trkpt>
      <trkpt lat="47.34382" lon="-1.29677">
        <ele>66.8</ele>
        <time>2011-10-02T09:14:23Z</time>
      </trkpt>
      <trkpt lat="47.34386" lon="-1.2967">
        <ele>66.3</ele>
        <time>2011-10-02T09:14:24Z</time>
      </trkpt>
      <trkpt lat="47.34389" lon="-1.29664">
        <ele>65</ele>
        <time>2011-10-02T09:14:25Z</time>
      </trkpt>
      <trkpt lat="47.34393" lon="-1.29655">
        <ele>64.2</ele>
        <time>2011-10-02T09:14:26Z</time>
      </trkpt>
      <trkpt lat="47.34398" lon="-1.29647">
        <ele>63.7</ele>
        <time>2011-10-02T09:14:27Z</time>
      </trkpt>
      <trkpt lat="47.34403" lon="-1.29637">
        <ele>62.4</ele>
        <time>2011-10-02T09:14:28Z</time>
      </trkpt>
      <trkpt lat="47.34409" lon="-1.29631">
        <ele>61.5</ele>
        <time>2011-10-02T09:14:29Z</time>
      </trkpt>
      <trkpt lat="47.34415" lon="-1.29624">
        <ele>62.3</ele>
        <time>2011-10-02T09:14:30Z</time>
      </trkpt>
      <trkpt lat="47.34412" lon="-1.29616">
        <ele>62</ele>
        <time>2011-10-02T09:14:31Z</time>
      </trkpt>
      <trkpt lat="47.34413" lon="-1.29607">
        <ele>62.2</ele>
        <time>2011-10-02T09:14:32Z</time>
      </trkpt>
      <trkpt lat="47.34415" lon="-1.296">
        <ele>62.6</ele>
        <time>2011-10-02T09:14:33Z</time>
      </trkpt>
      <trkpt lat="47.34414" lon="-1.2959">
        <ele>62.3</ele>
        <time>2011-10-02T09:14:34Z</time>
      </trkpt>
      <trkpt lat="47.34416" lon="-1.29579">
        <ele>62.3</ele>
        <time>2011-10-02T09:14:36Z</time>
      </trkpt>
      <trkpt lat="47.34417" lon="-1.2957">
        <ele>61.1</ele>
        <time>2011-10-02T09:14:37Z</time>
      </trkpt>
      <trkpt lat="47.34418" lon="-1.29558">
        <ele>60.7</ele>
        <time>2011-10-02T09:14:39Z</time>
      </trkpt>
      <trkpt lat="47.34416" lon="-1.29546">
        <ele>60.9</ele>
        <time>2011-10-02T09:14:41Z</time>
      </trkpt>
      <trkpt lat="47.34416" lon="-1.29539">
        <ele>60.7</ele>
        <time>2011-10-02T09:14:42Z</time>
      </trkpt>
      <trkpt lat="47.34417" lon="-1.29528">
        <ele>60.3</ele>
        <time>2011-10-02T09:14:44Z</time>
      </trkpt>
      <trkpt lat="47.34418" lon="-1.29518">
        <ele>61.1</ele>
        <time>2011-10-02T09:14:45Z</time>
      </trkpt>
      <trkpt lat="47.34419" lon="-1.2951">
        <ele>60.6</ele>
        <time>2011-10-02T09:14:46Z</time>
      </trkpt>
      <trkpt lat="47.34422" lon="-1.29493">
        <ele>60.6</ele>
        <time>2011-10-02T09:14:48Z</time>
      </trkpt>
      <trkpt lat="47.34424" lon="-1.29482">
        <ele>59.7</ele>
        <time>2011-10-02T09:14:49Z</time>
      </trkpt>
      <trkpt lat="47.34429" lon="-1.29471">
        <ele>60.4</ele>
        <time>2011-10-02T09:14:50Z</time>
      </trkpt>
      <trkpt lat="47.34431" lon="-1.29462">
        <ele>60.3</ele>
        <time>2011-10-02T09:14:51Z</time>
      </trkpt>
      <trkpt lat="47.34434" lon="-1.29451">
        <ele>61</ele>
        <time>2011-10-02T09:14:53Z</time>
      </trkpt>
      <trkpt lat="47.34435" lon="-1.29442">
        <ele>60.7</ele>
        <time>2011-10-02T09:14:54Z</time>
      </trkpt>
      <trkpt lat="47.34432" lon="-1.29429">
        <ele>58.8</ele>
        <time>2011-10-02T09:14:56Z</time>
      </trkpt>
      <trkpt lat="47.34433" lon="-1.29419">
        <ele>59.1</ele>
        <time>2011-10-02T09:14:57Z</time>
      </trkpt>
      <trkpt lat="47.34435" lon="-1.29404">
        <ele>59.2</ele>
        <time>2011-10-02T09:14:59Z</time>
      </trkpt>
      <trkpt lat="47.34433" lon="-1.29395">
        <ele>59.2</ele>
        <time>2011-10-02T09:15:00Z</time>
      </trkpt>
      <trkpt lat="47.34436" lon="-1.29386">
        <ele>59.1</ele>
        <time>2011-10-02T09:15:01Z</time>
      </trkpt>
      <trkpt lat="47.34437" lon="-1.29372">
        <ele>58.4</ele>
        <time>2011-10-02T09:15:03Z</time>
      </trkpt>
      <trkpt lat="47.34438" lon="-1.29365">
        <ele>58.1</ele>
        <time>2011-10-02T09:15:04Z</time>
      </trkpt>
      <trkpt lat="47.34438" lon="-1.29357">
        <ele>59.1</ele>
        <time>2011-10-02T09:15:05Z</time>
      </trkpt>
      <trkpt lat="47.34438" lon="-1.29349">
        <ele>57.8</ele>
        <time>2011-10-02T09:15:06Z</time>
      </trkpt>
      <trkpt lat="47.34438" lon="-1.2934">
        <ele>58.8</ele>
        <time>2011-10-02T09:15:07Z</time>
      </trkpt>
      <trkpt lat="47.3444" lon="-1.29331">
        <ele>58.9</ele>
        <time>2011-10-02T09:15:08Z</time>
      </trkpt>
      <trkpt lat="47.34442" lon="-1.29322">
        <ele>60</ele>
        <time>2011-10-02T09:15:09Z</time>
      </trkpt>
      <trkpt lat="47.34439" lon="-1.29309">
        <ele>61</ele>
        <time>2011-10-02T09:15:11Z</time>
      </trkpt>
      <trkpt lat="47.34439" lon="-1.29301">
        <ele>60.9</ele>
        <time>2011-10-02T09:15:12Z</time>
      </trkpt>
      <trkpt lat="47.34438" lon="-1.29291">
        <ele>61.5</ele>
        <time>2011-10-02T09:15:13Z</time>
      </trkpt>
      <trkpt lat="47.34438" lon="-1.29284">
        <ele>61.7</ele>
        <time>2011-10-02T09:15:14Z</time>
      </trkpt>
      <trkpt lat="47.34438" lon="-1.29276">
        <ele>60.9</ele>
        <time>2011-10-02T09:15:15Z</time>
      </trkpt>
      <trkpt lat="47.34438" lon="-1.29265">
        <ele>60.9</ele>
        <time>2011-10-02T09:15:17Z</time>
      </trkpt>
      <trkpt lat="47.3444" lon="-1.29258">
        <ele>60.3</ele>
        <time>2011-10-02T09:15:18Z</time>
      </trkpt>
      <trkpt lat="47.34436" lon="-1.29243">
        <ele>60.7</ele>
        <time>2011-10-02T09:15:20Z</time>
      </trkpt>
      <trkpt lat="47.34436" lon="-1.29229">
        <ele>60.7</ele>
        <time>2011-10-02T09:15:22Z</time>
      </trkpt>
      <trkpt lat="47.34435" lon="-1.2922">
        <ele>60.6</ele>
        <time>2011-10-02T09:15:23Z</time>
      </trkpt>
      <trkpt lat="47.34435" lon="-1.29213">
        <ele>60.8</ele>
        <time>2011-10-02T09:15:24Z</time>
      </trkpt>
      <trkpt lat="47.34436" lon="-1.29204">
        <ele>60.5</ele>
        <time>2011-10-02T09:15:25Z</time>
      </trkpt>
      <trkpt lat="47.34437" lon="-1.29192">
        <ele>60.8</ele>
        <time>2011-10-02T09:15:26Z</time>
      </trkpt>
      <trkpt lat="47.34438" lon="-1.29182">
        <ele>60.9</ele>
        <time>2011-10-02T09:15:27Z</time>
      </trkpt>
      <trkpt lat="47.34438" lon="-1.29175">
        <ele>60.2</ele>
        <time>2011-10-02T09:15:28Z</time>
      </trkpt>
      <trkpt lat="47.34436" lon="-1.29164">
        <ele>61.1</ele>
        <time>2011-10-02T09:15:30Z</time>
      </trkpt>
      <trkpt lat="47.34436" lon="-1.29156">
        <ele>62.1</ele>
        <time>2011-10-02T09:15:32Z</time>
      </trkpt>
      <trkpt lat="47.34435" lon="-1.29146">
        <ele>60</ele>
        <time>2011-10-02T09:15:34Z</time>
      </trkpt>
      <trkpt lat="47.34433" lon="-1.29138">
        <ele>62</ele>
        <time>2011-10-02T09:15:36Z</time>
      </trkpt>
      <trkpt lat="47.34434" lon="-1.2913">
        <ele>61.6</ele>
        <time>2011-10-02T09:15:37Z</time>
      </trkpt>
      <trkpt lat="47.34433" lon="-1.29121">
        <ele>62.3</ele>
        <time>2011-10-02T09:15:40Z</time>
      </trkpt>
      <trkpt lat="47.34435" lon="-1.29114">
        <ele>63</ele>
        <time>2011-10-02T09:15:42Z</time>
      </trkpt>
      <trkpt lat="47.34443" lon="-1.29103">
        <ele>62.2</ele>
        <time>2011-10-02T09:15:46Z</time>
      </trkpt>
      <trkpt lat="47.34448" lon="-1.291">
        <ele>67.9</ele>
        <time>2011-10-02T09:15:49Z</time>
      </trkpt>
      <trkpt lat="47.34453" lon="-1.29098">
        <ele>68.7</ele>
        <time>2011-10-02T09:15:51Z</time>
      </trkpt>
      <trkpt lat="47.34456" lon="-1.29103">
        <ele>69.2</ele>
        <time>2011-10-02T09:15:58Z</time>
      </trkpt>
      <trkpt lat="47.34449" lon="-1.29102">
        <ele>68.1</ele>
        <time>2011-10-02T09:16:02Z</time>
      </trkpt>
      <trkpt lat="47.34445" lon="-1.29103">
        <ele>66.1</ele>
        <time>2011-10-02T09:16:05Z</time>
      </trkpt>
      <trkpt lat="47.34449" lon="-1.29099">
        <ele>61.5</ele>
        <time>2011-10-02T09:18:55Z</time>
      </trkpt>
      <trkpt lat="47.34442" lon="-1.29093">
        <ele>57.8</ele>
        <time>2011-10-02T09:21:06Z</time>
      </trkpt>
      <trkpt lat="47.34438" lon="-1.29088">
        <ele>59.2</ele>
        <time>2011-10-02T09:21:08Z</time>
      </trkpt>
      <trkpt lat="47.34437" lon="-1.29081">
        <ele>57.8</ele>
        <time>2011-10-02T09:21:09Z</time>
      </trkpt>
      <trkpt lat="47.34436" lon="-1.29068">
        <ele>53.2</ele>
        <time>2011-10-02T09:21:11Z</time>
      </trkpt>
      <trkpt lat="47.34435" lon="-1.29057">
        <ele>53.8</ele>
        <time>2011-10-02T09:21:13Z</time>
      </trkpt>
      <trkpt lat="47.34436" lon="-1.29046">
        <ele>54.4</ele>
        <time>2011-10-02T09:21:16Z</time>
      </trkpt>
      <trkpt lat="47.34438" lon="-1.29033">
        <ele>55.4</ele>
        <time>2011-10-02T09:21:17Z</time>
      </trkpt>
      <trkpt lat="47.3444" lon="-1.29021">
        <ele>55.7</ele>
        <time>2011-10-02T09:21:19Z</time>
      </trkpt>
      <trkpt lat="47.34438" lon="-1.29013">
        <ele>57.7</ele>
        <time>2011-10-02T09:21:20Z</time>
      </trkpt>
      <trkpt lat="47.3444" lon="-1.29002">
        <ele>58.6</ele>
        <time>2011-10-02T09:21:21Z</time>
      </trkpt>
      <trkpt lat="47.34441" lon="-1.28993">
        <ele>60.4</ele>
        <time>2011-10-02T09:21:22Z</time>
      </trkpt>
      <trkpt lat="47.34438" lon="-1.28982">
        <ele>58.9</ele>
        <time>2011-10-02T09:21:23Z</time>
      </trkpt>
      <trkpt lat="47.34439" lon="-1.28973">
        <ele>59.7</ele>
        <time>2011-10-02T09:21:24Z</time>
      </trkpt>
      <trkpt lat="47.34438" lon="-1.28966">
        <ele>59.8</ele>
        <time>2011-10-02T09:21:25Z</time>
      </trkpt>
      <trkpt lat="47.34442" lon="-1.28955">
        <ele>60</ele>
        <time>2011-10-02T09:21:26Z</time>
      </trkpt>
      <trkpt lat="47.34445" lon="-1.28947">
        <ele>60</ele>
        <time>2011-10-02T09:21:27Z</time>
      </trkpt>
      <trkpt lat="47.34449" lon="-1.28938">
        <ele>59.7</ele>
        <time>2011-10-02T09:21:28Z</time>
      </trkpt>
      <trkpt lat="47.34452" lon="-1.28929">
        <ele>59.6</ele>
        <time>2011-10-02T09:21:29Z</time>
      </trkpt>
      <trkpt lat="47.34454" lon="-1.2892">
        <ele>59.7</ele>
        <time>2011-10-02T09:21:30Z</time>
      </trkpt>
      <trkpt lat="47.34458" lon="-1.28911">
        <ele>60.3</ele>
        <time>2011-10-02T09:21:31Z</time>
      </trkpt>
      <trkpt lat="47.34461" lon="-1.28902">
        <ele>61.4</ele>
        <time>2011-10-02T09:21:32Z</time>
      </trkpt>
      <trkpt lat="47.34463" lon="-1.28893">
        <ele>60.9</ele>
        <time>2011-10-02T09:21:34Z</time>
      </trkpt>
      <trkpt lat="47.34466" lon="-1.28883">
        <ele>60.4</ele>
        <time>2011-10-02T09:21:35Z</time>
      </trkpt>
      <trkpt lat="47.34473" lon="-1.28877">
        <ele>58.4</ele>
        <time>2011-10-02T09:21:36Z</time>
      </trkpt>
      <trkpt lat="47.34475" lon="-1.28869">
        <ele>58</ele>
        <time>2011-10-02T09:21:37Z</time>
      </trkpt>
      <trkpt lat="47.34478" lon="-1.28861">
        <ele>58.2</ele>
        <time>2011-10-02T09:21:38Z</time>
      </trkpt>
      <trkpt lat="47.34484" lon="-1.28849">
        <ele>60.3</ele>
        <time>2011-10-02T09:21:40Z</time>
      </trkpt>
      <trkpt lat="47.34488" lon="-1.2884">
        <ele>60.8</ele>
        <time>2011-10-02T09:21:42Z</time>
      </trkpt>
      <trkpt lat="47.34486" lon="-1.28834">
        <ele>61.6</ele>
        <time>2011-10-02T09:21:44Z</time>
      </trkpt>
      <trkpt lat="47.3449" lon="-1.28829">
        <ele>62.8</ele>
        <time>2011-10-02T09:21:46Z</time>
      </trkpt>
      <trkpt lat="47.34488" lon="-1.2882">
        <ele>66.4</ele>
        <time>2011-10-02T09:21:48Z</time>
      </trkpt>
      <trkpt lat="47.34486" lon="-1.28812">
        <ele>69.5</ele>
        <time>2011-10-02T09:21:52Z</time>
      </trkpt>
      <trkpt lat="47.34488" lon="-1.28805">
        <ele>71</ele>
        <time>2011-10-02T09:21:59Z</time>
      </trkpt>
      <trkpt lat="47.3448" lon="-1.28808">
        <ele>69.2</ele>
        <time>2011-10-02T09:22:02Z</time>
      </trkpt>
      <trkpt lat="47.34476" lon="-1.28802">
        <ele>71.4</ele>
        <time>2011-10-02T09:22:03Z</time>
      </trkpt>
      <trkpt lat="47.34471" lon="-1.28801">
        <ele>72.4</ele>
        <time>2011-10-02T09:22:04Z</time>
      </trkpt>
      <trkpt lat="47.34466" lon="-1.28801">
        <ele>71.4</ele>
        <time>2011-10-02T09:22:05Z</time>
      </trkpt>
      <trkpt lat="47.34458" lon="-1.28801">
        <ele>72.2</ele>
        <time>2011-10-02T09:22:06Z</time>
      </trkpt>
      <trkpt lat="47.34453" lon="-1.288">
        <ele>71.9</ele>
        <time>2011-10-02T09:22:07Z</time>
      </trkpt>
      <trkpt lat="47.34448" lon="-1.28798">
        <ele>70.1</ele>
        <time>2011-10-02T09:22:08Z</time>
      </trkpt>
      <trkpt lat="47.34441" lon="-1.28798">
        <ele>69.3</ele>
        <time>2011-10-02T09:22:09Z</time>
      </trkpt>
      <trkpt lat="47.34435" lon="-1.28796">
        <ele>69.1</ele>
        <time>2011-10-02T09:22:10Z</time>
      </trkpt>
      <trkpt lat="47.34426" lon="-1.28792">
        <ele>69.3</ele>
        <time>2011-10-02T09:22:11Z</time>
      </trkpt>
      <trkpt lat="47.34417" lon="-1.28794">
        <ele>67.4</ele>
        <time>2011-10-02T09:22:13Z</time>
      </trkpt>
      <trkpt lat="47.34411" lon="-1.28788">
        <ele>66.5</ele>
        <time>2011-10-02T09:22:14Z</time>
      </trkpt>
      <trkpt lat="47.34405" lon="-1.28784">
        <ele>67.7</ele>
        <time>2011-10-02T09:22:15Z</time>
      </trkpt>
      <trkpt lat="47.34399" lon="-1.28784">
        <ele>66.8</ele>
        <time>2011-10-02T09:22:16Z</time>
      </trkpt>
      <trkpt lat="47.34391" lon="-1.2878">
        <ele>66.9</ele>
        <time>2011-10-02T09:22:18Z</time>
      </trkpt>
      <trkpt lat="47.34387" lon="-1.28774">
        <ele>66.2</ele>
        <time>2011-10-02T09:22:20Z</time>
      </trkpt>
      <trkpt lat="47.34385" lon="-1.28763">
        <ele>62.7</ele>
        <time>2011-10-02T09:22:22Z</time>
      </trkpt>
      <trkpt lat="47.34391" lon="-1.28758">
        <ele>61.5</ele>
        <time>2011-10-02T09:22:24Z</time>
      </trkpt>
      <trkpt lat="47.34398" lon="-1.28757">
        <ele>61</ele>
        <time>2011-10-02T09:22:26Z</time>
      </trkpt>
      <trkpt lat="47.34406" lon="-1.28758">
        <ele>61</ele>
        <time>2011-10-02T09:22:28Z</time>
      </trkpt>
      <trkpt lat="47.34413" lon="-1.2876">
        <ele>61.1</ele>
        <time>2011-10-02T09:22:30Z</time>
      </trkpt>
      <trkpt lat="47.3442" lon="-1.28762">
        <ele>62.8</ele>
        <time>2011-10-02T09:22:31Z</time>
      </trkpt>
      <trkpt lat="47.34428" lon="-1.28762">
        <ele>62.5</ele>
        <time>2011-10-02T09:22:33Z</time>
      </trkpt>
      <trkpt lat="47.34432" lon="-1.28762">
        <ele>62.3</ele>
        <time>2011-10-02T09:22:34Z</time>
      </trkpt>
      <trkpt lat="47.3444" lon="-1.28764">
        <ele>62.6</ele>
        <time>2011-10-02T09:22:36Z</time>
      </trkpt>
      <trkpt lat="47.34446" lon="-1.28765">
        <ele>62.5</ele>
        <time>2011-10-02T09:22:37Z</time>
      </trkpt>
      <trkpt lat="47.34452" lon="-1.28765">
        <ele>62.5</ele>
        <time>2011-10-02T09:22:39Z</time>
      </trkpt>
      <trkpt lat="47.3446" lon="-1.28756">
        <ele>62.3</ele>
        <time>2011-10-02T09:22:41Z</time>
      </trkpt>
      <trkpt lat="47.34466" lon="-1.28753">
        <ele>61.3</ele>
        <time>2011-10-02T09:22:43Z</time>
      </trkpt>
      <trkpt lat="47.34467" lon="-1.28737">
        <ele>61.7</ele>
        <time>2011-10-02T09:22:45Z</time>
      </trkpt>
      <trkpt lat="47.34466" lon="-1.28725">
        <ele>61.6</ele>
        <time>2011-10-02T09:22:46Z</time>
      </trkpt>
      <trkpt lat="47.34465" lon="-1.28705">
        <ele>59.1</ele>
        <time>2011-10-02T09:22:47Z</time>
      </trkpt>
      <trkpt lat="47.34468" lon="-1.28692">
        <ele>58.9</ele>
        <time>2011-10-02T09:22:49Z</time>
      </trkpt>
      <trkpt lat="47.34473" lon="-1.28682">
        <ele>58.1</ele>
        <time>2011-10-02T09:22:50Z</time>
      </trkpt>
      <trkpt lat="47.34475" lon="-1.2867">
        <ele>57.7</ele>
        <time>2011-10-02T09:22:51Z</time>
      </trkpt>
      <trkpt lat="47.34482" lon="-1.28655">
        <ele>58.8</ele>
        <time>2011-10-02T09:22:52Z</time>
      </trkpt>
      <trkpt lat="47.34486" lon="-1.28647">
        <ele>58.4</ele>
        <time>2011-10-02T09:22:53Z</time>
      </trkpt>
      <trkpt lat="47.34486" lon="-1.28638">
        <ele>58.2</ele>
        <time>2011-10-02T09:22:54Z</time>
      </trkpt>
      <trkpt lat="47.34494" lon="-1.28627">
        <ele>60.2</ele>
        <time>2011-10-02T09:22:56Z</time>
      </trkpt>
      <trkpt lat="47.345" lon="-1.2862">
        <ele>61.1</ele>
        <time>2011-10-02T09:22:58Z</time>
      </trkpt>
      <trkpt lat="47.34503" lon="-1.2861">
        <ele>63.6</ele>
        <time>2011-10-02T09:23:00Z</time>
      </trkpt>
      <trkpt lat="47.34508" lon="-1.28603">
        <ele>63.9</ele>
        <time>2011-10-02T09:23:02Z</time>
      </trkpt>
      <trkpt lat="47.34509" lon="-1.28595">
        <ele>62.6</ele>
        <time>2011-10-02T09:23:03Z</time>
      </trkpt>
      <trkpt lat="47.3451" lon="-1.28588">
        <ele>62.9</ele>
        <time>2011-10-02T09:23:04Z</time>
      </trkpt>
      <trkpt lat="47.34517" lon="-1.2858">
        <ele>63.1</ele>
        <time>2011-10-02T09:23:07Z</time>
      </trkpt>
      <trkpt lat="47.34522" lon="-1.28568">
        <ele>61.7</ele>
        <time>2011-10-02T09:23:08Z</time>
      </trkpt>
      <trkpt lat="47.34527" lon="-1.28566">
        <ele>63.4</ele>
        <time>2011-10-02T09:23:09Z</time>
      </trkpt>
      <trkpt lat="47.34531" lon="-1.28561">
        <ele>64</ele>
        <time>2011-10-02T09:23:10Z</time>
      </trkpt>
      <trkpt lat="47.34538" lon="-1.28558">
        <ele>65.1</ele>
        <time>2011-10-02T09:23:11Z</time>
      </trkpt>
      <trkpt lat="47.34544" lon="-1.28556">
        <ele>66.2</ele>
        <time>2011-10-02T09:23:13Z</time>
      </trkpt>
      <trkpt lat="47.34549" lon="-1.28546">
        <ele>67.3</ele>
        <time>2011-10-02T09:23:15Z</time>
      </trkpt>
      <trkpt lat="47.34555" lon="-1.28528">
        <ele>66.4</ele>
        <time>2011-10-02T09:23:16Z</time>
      </trkpt>
      <trkpt lat="47.3456" lon="-1.2852">
        <ele>66.4</ele>
        <time>2011-10-02T09:23:19Z</time>
      </trkpt>
      <trkpt lat="47.34561" lon="-1.28528">
        <ele>63.8</ele>
        <time>2011-10-02T09:23:20Z</time>
      </trkpt>
      <trkpt lat="47.34567" lon="-1.28531">
        <ele>65</ele>
        <time>2011-10-02T09:23:22Z</time>
      </trkpt>
      <trkpt lat="47.34574" lon="-1.28533">
        <ele>66.2</ele>
        <time>2011-10-02T09:23:24Z</time>
      </trkpt>
      <trkpt lat="47.34579" lon="-1.28535">
        <ele>66.7</ele>
        <time>2011-10-02T09:23:28Z</time>
      </trkpt>
      <trkpt lat="47.34581" lon="-1.28529">
        <ele>66.8</ele>
        <time>2011-10-02T09:23:31Z</time>
      </trkpt>
      <trkpt lat="47.34577" lon="-1.28533">
        <ele>64.9</ele>
        <time>2011-10-02T09:23:34Z</time>
      </trkpt>
      <trkpt lat="47.34573" lon="-1.28526">
        <ele>65.9</ele>
        <time>2011-10-02T09:23:37Z</time>
      </trkpt>
      <trkpt lat="47.3457" lon="-1.28518">
        <ele>65.5</ele>
        <time>2011-10-02T09:23:39Z</time>
      </trkpt>
      <trkpt lat="47.34564" lon="-1.2851">
        <ele>64.9</ele>
        <time>2011-10-02T09:23:41Z</time>
      </trkpt>
      <trkpt lat="47.34559" lon="-1.28505">
        <ele>65</ele>
        <time>2011-10-02T09:23:43Z</time>
      </trkpt>
      <trkpt lat="47.34554" lon="-1.285">
        <ele>66.6</ele>
        <time>2011-10-02T09:23:45Z</time>
      </trkpt>
      <trkpt lat="47.3455" lon="-1.28492">
        <ele>68.6</ele>
        <time>2011-10-02T09:23:49Z</time>
      </trkpt>
      <trkpt lat="47.3455" lon="-1.28482">
        <ele>69.3</ele>
        <time>2011-10-02T09:23:54Z</time>
      </trkpt>
      <trkpt lat="47.34547" lon="-1.28473">
        <ele>71.2</ele>
        <time>2011-10-02T09:23:56Z</time>
      </trkpt>
      <trkpt lat="47.34551" lon="-1.28465">
        <ele>72.6</ele>
        <time>2011-10-02T09:23:58Z</time>
      </trkpt>
      <trkpt lat="47.34557" lon="-1.28462">
        <ele>69.4</ele>
        <time>2011-10-02T09:24:01Z</time>
      </trkpt>
      <trkpt lat="47.34563" lon="-1.28458">
        <ele>71.6</ele>
        <time>2011-10-02T09:24:03Z</time>
      </trkpt>
      <trkpt lat="47.34568" lon="-1.28459">
        <ele>71.6</ele>
        <time>2011-10-02T09:24:04Z</time>
      </trkpt>
      <trkpt lat="47.34573" lon="-1.28457">
        <ele>70.8</ele>
        <time>2011-10-02T09:24:06Z</time>
      </trkpt>
      <trkpt lat="47.34579" lon="-1.28452">
        <ele>70.8</ele>
        <time>2011-10-02T09:24:08Z</time>
      </trkpt>
      <trkpt lat="47.34584" lon="-1.28451">
        <ele>70.8</ele>
        <time>2011-10-02T09:24:09Z</time>
      </trkpt>
      <trkpt lat="47.34588" lon="-1.28445">
        <ele>71.2</ele>
        <time>2011-10-02T09:24:10Z</time>
      </trkpt>
      <trkpt lat="47.34594" lon="-1.28437">
        <ele>69.4</ele>
        <time>2011-10-02T09:24:12Z</time>
      </trkpt>
      <trkpt lat="47.34601" lon="-1.28433">
        <ele>68.1</ele>
        <time>2011-10-02T09:24:13Z</time>
      </trkpt>
      <trkpt lat="47.34606" lon="-1.28429">
        <ele>67</ele>
        <time>2011-10-02T09:24:14Z</time>
      </trkpt>
      <trkpt lat="47.34614" lon="-1.28426">
        <ele>66.1</ele>
        <time>2011-10-02T09:24:16Z</time>
      </trkpt>
      <trkpt lat="47.34619" lon="-1.2842">
        <ele>66.9</ele>
        <time>2011-10-02T09:24:20Z</time>
      </trkpt>
      <trkpt lat="47.3462" lon="-1.28411">
        <ele>67.6</ele>
        <time>2011-10-02T09:24:22Z</time>
      </trkpt>
      <trkpt lat="47.34621" lon="-1.28404">
        <ele>68.3</ele>
        <time>2011-10-02T09:24:23Z</time>
      </trkpt>
      <trkpt lat="47.3462" lon="-1.28391">
        <ele>68.9</ele>
        <time>2011-10-02T09:24:26Z</time>
      </trkpt>
      <trkpt lat="47.34621" lon="-1.28382">
        <ele>68.2</ele>
        <time>2011-10-02T09:24:27Z</time>
      </trkpt>
      <trkpt lat="47.34622" lon="-1.28369">
        <ele>65.9</ele>
        <time>2011-10-02T09:24:29Z</time>
      </trkpt>
      <trkpt lat="47.34626" lon="-1.28366">
        <ele>68.5</ele>
        <time>2011-10-02T09:24:36Z</time>
      </trkpt>
      <trkpt lat="47.34631" lon="-1.28367">
        <ele>68.5</ele>
        <time>2011-10-02T09:24:39Z</time>
      </trkpt>
      <trkpt lat="47.34632" lon="-1.28375">
        <ele>66.6</ele>
        <time>2011-10-02T09:24:43Z</time>
      </trkpt>
      <trkpt lat="47.34628" lon="-1.28384">
        <ele>67.1</ele>
        <time>2011-10-02T09:24:45Z</time>
      </trkpt>
      <trkpt lat="47.34623" lon="-1.28392">
        <ele>64.9</ele>
        <time>2011-10-02T09:24:47Z</time>
      </trkpt>
      <trkpt lat="47.34618" lon="-1.28387">
        <ele>63.1</ele>
        <time>2011-10-02T09:24:52Z</time>
      </trkpt>
      <trkpt lat="47.34614" lon="-1.28382">
        <ele>63.4</ele>
        <time>2011-10-02T09:24:53Z</time>
      </trkpt>
      <trkpt lat="47.34612" lon="-1.2837">
        <ele>61.1</ele>
        <time>2011-10-02T09:24:55Z</time>
      </trkpt>
      <trkpt lat="47.34615" lon="-1.28359">
        <ele>64.8</ele>
        <time>2011-10-02T09:24:57Z</time>
      </trkpt>
      <trkpt lat="47.34614" lon="-1.2835">
        <ele>66.8</ele>
        <time>2011-10-02T09:24:59Z</time>
      </trkpt>
      <trkpt lat="47.34612" lon="-1.28336">
        <ele>66.3</ele>
        <time>2011-10-02T09:25:02Z</time>
      </trkpt>
      <trkpt lat="47.34612" lon="-1.28328">
        <ele>66.5</ele>
        <time>2011-10-02T09:25:03Z</time>
      </trkpt>
      <trkpt lat="47.34611" lon="-1.28316">
        <ele>66.4</ele>
        <time>2011-10-02T09:25:04Z</time>
      </trkpt>
      <trkpt lat="47.34609" lon="-1.28309">
        <ele>67.4</ele>
        <time>2011-10-02T09:25:05Z</time>
      </trkpt>
      <trkpt lat="47.34604" lon="-1.28299">
        <ele>68.7</ele>
        <time>2011-10-02T09:25:06Z</time>
      </trkpt>
      <trkpt lat="47.34601" lon="-1.28293">
        <ele>69.1</ele>
        <time>2011-10-02T09:25:07Z</time>
      </trkpt>
      <trkpt lat="47.34599" lon="-1.28284">
        <ele>69.9</ele>
        <time>2011-10-02T09:25:08Z</time>
      </trkpt>
      <trkpt lat="47.34597" lon="-1.28277">
        <ele>68.9</ele>
        <time>2011-10-02T09:25:09Z</time>
      </trkpt>
      <trkpt lat="47.34595" lon="-1.28269">
        <ele>69.5</ele>
        <time>2011-10-02T09:25:10Z</time>
      </trkpt>
      <trkpt lat="47.34589" lon="-1.28262">
        <ele>67.3</ele>
        <time>2011-10-02T09:25:11Z</time>
      </trkpt>
      <trkpt lat="47.34588" lon="-1.28252">
        <ele>67.5</ele>
        <time>2011-10-02T09:25:13Z</time>
      </trkpt>
      <trkpt lat="47.34584" lon="-1.2824">
        <ele>66.4</ele>
        <time>2011-10-02T09:25:17Z</time>
      </trkpt>
      <trkpt lat="47.34578" lon="-1.2824">
        <ele>65.3</ele>
        <time>2011-10-02T09:25:19Z</time>
      </trkpt>
      <trkpt lat="47.34572" lon="-1.28242">
        <ele>65.9</ele>
        <time>2011-10-02T09:25:21Z</time>
      </trkpt>
      <trkpt lat="47.34566" lon="-1.2825">
        <ele>64.2</ele>
        <time>2011-10-02T09:25:23Z</time>
      </trkpt>
      <trkpt lat="47.34556" lon="-1.28256">
        <ele>62.7</ele>
        <time>2011-10-02T09:25:25Z</time>
      </trkpt>
      <trkpt lat="47.3455" lon="-1.28256">
        <ele>63.3</ele>
        <time>2011-10-02T09:25:26Z</time>
      </trkpt>
      <trkpt lat="47.34542" lon="-1.28262">
        <ele>62.6</ele>
        <time>2011-10-02T09:25:28Z</time>
      </trkpt>
      <trkpt lat="47.34536" lon="-1.28257">
        <ele>62.1</ele>
        <time>2011-10-02T09:25:30Z</time>
      </trkpt>
      <trkpt lat="47.34532" lon="-1.28261">
        <ele>61.3</ele>
        <time>2011-10-02T09:25:31Z</time>
      </trkpt>
      <trkpt lat="47.34522" lon="-1.28262">
        <ele>60</ele>
        <time>2011-10-02T09:25:33Z</time>
      </trkpt>
      <trkpt lat="47.34517" lon="-1.2826">
        <ele>59.9</ele>
        <time>2011-10-02T09:25:37Z</time>
      </trkpt>
      <trkpt lat="47.34522" lon="-1.2826">
        <ele>65.7</ele>
        <time>2011-10-02T09:25:42Z</time>
      </trkpt>
      <trkpt lat="47.34529" lon="-1.28265">
        <ele>64.7</ele>
        <time>2011-10-02T09:26:04Z</time>
      </trkpt>
      <trkpt lat="47.34533" lon="-1.28265">
        <ele>63.8</ele>
        <time>2011-10-02T09:26:06Z</time>
      </trkpt>
      <trkpt lat="47.34534" lon="-1.28257">
        <ele>63.3</ele>
        <time>2011-10-02T09:26:09Z</time>
      </trkpt>
      <trkpt lat="47.3453" lon="-1.2825">
        <ele>61.9</ele>
        <time>2011-10-02T09:26:19Z</time>
      </trkpt>
      <trkpt lat="47.34525" lon="-1.28258">
        <ele>61.8</ele>
        <time>2011-10-02T09:26:21Z</time>
      </trkpt>
      <trkpt lat="47.3452" lon="-1.28253">
        <ele>63.4</ele>
        <time>2011-10-02T09:26:23Z</time>
      </trkpt>
      <trkpt lat="47.34517" lon="-1.28245">
        <ele>69.6</ele>
        <time>2011-10-02T09:26:32Z</time>
      </trkpt>
      <trkpt lat="47.34513" lon="-1.28235">
        <ele>71.3</ele>
        <time>2011-10-02T09:26:34Z</time>
      </trkpt>
      <trkpt lat="47.34512" lon="-1.28228">
        <ele>70.9</ele>
        <time>2011-10-02T09:26:35Z</time>
      </trkpt>
      <trkpt lat="47.34514" lon="-1.28211">
        <ele>67.8</ele>
        <time>2011-10-02T09:26:37Z</time>
      </trkpt>
      <trkpt lat="47.34511" lon="-1.28204">
        <ele>68.6</ele>
        <time>2011-10-02T09:26:38Z</time>
      </trkpt>
      <trkpt lat="47.3451" lon="-1.28197">
        <ele>68.3</ele>
        <time>2011-10-02T09:26:39Z</time>
      </trkpt>
      <trkpt lat="47.3451" lon="-1.28189">
        <ele>69.5</ele>
        <time>2011-10-02T09:26:40Z</time>
      </trkpt>
      <trkpt lat="47.34511" lon="-1.28182">
        <ele>70.8</ele>
        <time>2011-10-02T09:26:41Z</time>
      </trkpt>
      <trkpt lat="47.34512" lon="-1.2817">
        <ele>68.2</ele>
        <time>2011-10-02T09:26:42Z</time>
      </trkpt>
      <trkpt lat="47.34512" lon="-1.28163">
        <ele>70.1</ele>
        <time>2011-10-02T09:26:43Z</time>
      </trkpt>
      <trkpt lat="47.34512" lon="-1.28155">
        <ele>70.9</ele>
        <time>2011-10-02T09:26:45Z</time>
      </trkpt>
      <trkpt lat="47.34512" lon="-1.28148">
        <ele>71.7</ele>
        <time>2011-10-02T09:26:46Z</time>
      </trkpt>
      <trkpt lat="47.34514" lon="-1.28132">
        <ele>72.5</ele>
        <time>2011-10-02T09:26:47Z</time>
      </trkpt>
      <trkpt lat="47.34514" lon="-1.28124">
        <ele>72</ele>
        <time>2011-10-02T09:26:48Z</time>
      </trkpt>
      <trkpt lat="47.34511" lon="-1.28118">
        <ele>72.3</ele>
        <time>2011-10-02T09:26:49Z</time>
      </trkpt>
      <trkpt lat="47.34512" lon="-1.2811">
        <ele>72.1</ele>
        <time>2011-10-02T09:26:50Z</time>
      </trkpt>
      <trkpt lat="47.34509" lon="-1.28102">
        <ele>73.2</ele>
        <time>2011-10-02T09:26:51Z</time>
      </trkpt>
      <trkpt lat="47.34509" lon="-1.28092">
        <ele>71.2</ele>
        <time>2011-10-02T09:26:52Z</time>
      </trkpt>
      <trkpt lat="47.34505" lon="-1.28085">
        <ele>70.9</ele>
        <time>2011-10-02T09:26:53Z</time>
      </trkpt>
      <trkpt lat="47.34504" lon="-1.28078">
        <ele>71.5</ele>
        <time>2011-10-02T09:26:54Z</time>
      </trkpt>
      <trkpt lat="47.345" lon="-1.2807">
        <ele>72.1</ele>
        <time>2011-10-02T09:26:55Z</time>
      </trkpt>
      <trkpt lat="47.34496" lon="-1.28061">
        <ele>72.2</ele>
        <time>2011-10-02T09:26:56Z</time>
      </trkpt>
      <trkpt lat="47.34494" lon="-1.28052">
        <ele>72.4</ele>
        <time>2011-10-02T09:26:57Z</time>
      </trkpt>
      <trkpt lat="47.3449" lon="-1.28045">
        <ele>73</ele>
        <time>2011-10-02T09:26:58Z</time>
      </trkpt>
      <trkpt lat="47.34485" lon="-1.28039">
        <ele>73</ele>
        <time>2011-10-02T09:26:59Z</time>
      </trkpt>
      <trkpt lat="47.34483" lon="-1.28034">
        <ele>72.5</ele>
        <time>2011-10-02T09:27:00Z</time>
      </trkpt>
      <trkpt lat="47.34477" lon="-1.28027">
        <ele>72.7</ele>
        <time>2011-10-02T09:27:02Z</time>
      </trkpt>
      <trkpt lat="47.34472" lon="-1.28015">
        <ele>70.9</ele>
        <time>2011-10-02T09:27:04Z</time>
      </trkpt>
      <trkpt lat="47.34465" lon="-1.28006">
        <ele>69.6</ele>
        <time>2011-10-02T09:27:06Z</time>
      </trkpt>
      <trkpt lat="47.34461" lon="-1.28001">
        <ele>68.9</ele>
        <time>2011-10-02T09:27:08Z</time>
      </trkpt>
      <trkpt lat="47.34454" lon="-1.27994">
        <ele>69.8</ele>
        <time>2011-10-02T09:27:10Z</time>
      </trkpt>
      <trkpt lat="47.3445" lon="-1.27987">
        <ele>71.4</ele>
        <time>2011-10-02T09:27:11Z</time>
      </trkpt>
      <trkpt lat="47.34442" lon="-1.27981">
        <ele>72</ele>
        <time>2011-10-02T09:27:13Z</time>
      </trkpt>
      <trkpt lat="47.34439" lon="-1.27976">
        <ele>72.4</ele>
        <time>2011-10-02T09:27:14Z</time>
      </trkpt>
      <trkpt lat="47.34434" lon="-1.27973">
        <ele>72.5</ele>
        <time>2011-10-02T09:27:15Z</time>
      </trkpt>
      <trkpt lat="47.34426" lon="-1.27971">
        <ele>71.4</ele>
        <time>2011-10-02T09:27:17Z</time>
      </trkpt>
      <trkpt lat="47.3442" lon="-1.2797">
        <ele>72</ele>
        <time>2011-10-02T09:27:18Z</time>
      </trkpt>
      <trkpt lat="47.34414" lon="-1.27967">
        <ele>70.6</ele>
        <time>2011-10-02T09:27:19Z</time>
      </trkpt>
      <trkpt lat="47.34406" lon="-1.27962">
        <ele>71.4</ele>
        <time>2011-10-02T09:27:20Z</time>
      </trkpt>
      <trkpt lat="47.34396" lon="-1.27956">
        <ele>69.7</ele>
        <time>2011-10-02T09:27:22Z</time>
      </trkpt>
      <trkpt lat="47.34389" lon="-1.27953">
        <ele>69.4</ele>
        <time>2011-10-02T09:27:23Z</time>
      </trkpt>
      <trkpt lat="47.34384" lon="-1.27949">
        <ele>69.5</ele>
        <time>2011-10-02T09:27:24Z</time>
      </trkpt>
      <trkpt lat="47.3438" lon="-1.27946">
        <ele>69.3</ele>
        <time>2011-10-02T09:27:25Z</time>
      </trkpt>
      <trkpt lat="47.34372" lon="-1.27945">
        <ele>68.8</ele>
        <time>2011-10-02T09:27:26Z</time>
      </trkpt>
      <trkpt lat="47.34367" lon="-1.27939">
        <ele>68.9</ele>
        <time>2011-10-02T09:27:27Z</time>
      </trkpt>
      <trkpt lat="47.3436" lon="-1.27936">
        <ele>68.7</ele>
        <time>2011-10-02T09:27:28Z</time>
      </trkpt>
      <trkpt lat="47.34356" lon="-1.27933">
        <ele>68.4</ele>
        <time>2011-10-02T09:27:29Z</time>
      </trkpt>
      <trkpt lat="47.34349" lon="-1.27933">
        <ele>67.9</ele>
        <time>2011-10-02T09:27:30Z</time>
      </trkpt>
      <trkpt lat="47.34341" lon="-1.2793">
        <ele>67.8</ele>
        <time>2011-10-02T09:27:31Z</time>
      </trkpt>
      <trkpt lat="47.34334" lon="-1.27929">
        <ele>68.3</ele>
        <time>2011-10-02T09:27:32Z</time>
      </trkpt>
      <trkpt lat="47.34329" lon="-1.27929">
        <ele>68.8</ele>
        <time>2011-10-02T09:27:33Z</time>
      </trkpt>
      <trkpt lat="47.34322" lon="-1.27926">
        <ele>68.7</ele>
        <time>2011-10-02T09:27:34Z</time>
      </trkpt>
      <trkpt lat="47.34315" lon="-1.27923">
        <ele>68.1</ele>
        <time>2011-10-02T09:27:35Z</time>
      </trkpt>
      <trkpt lat="47.34308" lon="-1.27923">
        <ele>67.5</ele>
        <time>2011-10-02T09:27:36Z</time>
      </trkpt>
      <trkpt lat="47.34301" lon="-1.27922">
        <ele>66.7</ele>
        <time>2011-10-02T09:27:37Z</time>
      </trkpt>
      <trkpt lat="47.34294" lon="-1.27915">
        <ele>67.5</ele>
        <time>2011-10-02T09:27:38Z</time>
      </trkpt>
      <trkpt lat="47.34288" lon="-1.27915">
        <ele>67.5</ele>
        <time>2011-10-02T09:27:39Z</time>
      </trkpt>
      <trkpt lat="47.34282" lon="-1.27915">
        <ele>66.3</ele>
        <time>2011-10-02T09:27:40Z</time>
      </trkpt>
      <trkpt lat="47.34275" lon="-1.27915">
        <ele>66.3</ele>
        <time>2011-10-02T09:27:41Z</time>
      </trkpt>
      <trkpt lat="47.34267" lon="-1.27911">
        <ele>67.5</ele>
        <time>2011-10-02T09:27:42Z</time>
      </trkpt>
      <trkpt lat="47.34259" lon="-1.27907">
        <ele>66.8</ele>
        <time>2011-10-02T09:27:43Z</time>
      </trkpt>
      <trkpt lat="47.34255" lon="-1.27902">
        <ele>65.4</ele>
        <time>2011-10-02T09:27:44Z</time>
      </trkpt>
      <trkpt lat="47.34248" lon="-1.279">
        <ele>65.4</ele>
        <time>2011-10-02T09:27:45Z</time>
      </trkpt>
      <trkpt lat="47.34241" lon="-1.27896">
        <ele>64.8</ele>
        <time>2011-10-02T09:27:46Z</time>
      </trkpt>
      <trkpt lat="47.34232" lon="-1.27891">
        <ele>65.7</ele>
        <time>2011-10-02T09:27:47Z</time>
      </trkpt>
      <trkpt lat="47.34224" lon="-1.27888">
        <ele>64.6</ele>
        <time>2011-10-02T09:27:48Z</time>
      </trkpt>
      <trkpt lat="47.34218" lon="-1.27889">
        <ele>64.8</ele>
        <time>2011-10-02T09:27:49Z</time>
      </trkpt>
      <trkpt lat="47.34212" lon="-1.27888">
        <ele>64.7</ele>
        <time>2011-10-02T09:27:50Z</time>
      </trkpt>
      <trkpt lat="47.34205" lon="-1.27884">
        <ele>64</ele>
        <time>2011-10-02T09:27:51Z</time>
      </trkpt>
      <trkpt lat="47.34199" lon="-1.27883">
        <ele>62.3</ele>
        <time>2011-10-02T09:27:52Z</time>
      </trkpt>
      <trkpt lat="47.34193" lon="-1.27882">
        <ele>62.4</ele>
        <time>2011-10-02T09:27:53Z</time>
      </trkpt>
      <trkpt lat="47.34186" lon="-1.27882">
        <ele>63.4</ele>
        <time>2011-10-02T09:27:54Z</time>
      </trkpt>
      <trkpt lat="47.34181" lon="-1.27877">
        <ele>63.9</ele>
        <time>2011-10-02T09:27:55Z</time>
      </trkpt>
      <trkpt lat="47.34174" lon="-1.27875">
        <ele>65.4</ele>
        <time>2011-10-02T09:27:56Z</time>
      </trkpt>
      <trkpt lat="47.34168" lon="-1.27873">
        <ele>64.9</ele>
        <time>2011-10-02T09:27:57Z</time>
      </trkpt>
      <trkpt lat="47.34162" lon="-1.27867">
        <ele>64.5</ele>
        <time>2011-10-02T09:27:58Z</time>
      </trkpt>
      <trkpt lat="47.34152" lon="-1.27862">
        <ele>63.2</ele>
        <time>2011-10-02T09:27:59Z</time>
      </trkpt>
      <trkpt lat="47.34145" lon="-1.27859">
        <ele>62.8</ele>
        <time>2011-10-02T09:28:00Z</time>
      </trkpt>
      <trkpt lat="47.34137" lon="-1.27861">
        <ele>63</ele>
        <time>2011-10-02T09:28:01Z</time>
      </trkpt>
      <trkpt lat="47.34128" lon="-1.27863">
        <ele>62.4</ele>
        <time>2011-10-02T09:28:03Z</time>
      </trkpt>
      <trkpt lat="47.34122" lon="-1.27859">
        <ele>63.6</ele>
        <time>2011-10-02T09:28:04Z</time>
      </trkpt>
      <trkpt lat="47.34117" lon="-1.27856">
        <ele>64.6</ele>
        <time>2011-10-02T09:28:05Z</time>
      </trkpt>
      <trkpt lat="47.34111" lon="-1.27855">
        <ele>66.6</ele>
        <time>2011-10-02T09:28:06Z</time>
      </trkpt>
      <trkpt lat="47.34105" lon="-1.27852">
        <ele>66.3</ele>
        <time>2011-10-02T09:28:07Z</time>
      </trkpt>
      <trkpt lat="47.34095" lon="-1.2785">
        <ele>66.9</ele>
        <time>2011-10-02T09:28:09Z</time>
      </trkpt>
      <trkpt lat="47.34085" lon="-1.27844">
        <ele>66.2</ele>
        <time>2011-10-02T09:28:10Z</time>
      </trkpt>
      <trkpt lat="47.34076" lon="-1.2784">
        <ele>65.3</ele>
        <time>2011-10-02T09:28:11Z</time>
      </trkpt>
      <trkpt lat="47.34069" lon="-1.27838">
        <ele>64.4</ele>
        <time>2011-10-02T09:28:12Z</time>
      </trkpt>
      <trkpt lat="47.34064" lon="-1.27836">
        <ele>64.2</ele>
        <time>2011-10-02T09:28:13Z</time>
      </trkpt>
      <trkpt lat="47.34059" lon="-1.27834">
        <ele>64.5</ele>
        <time>2011-10-02T09:28:14Z</time>
      </trkpt>
      <trkpt lat="47.34054" lon="-1.27831">
        <ele>64.7</ele>
        <time>2011-10-02T09:28:15Z</time>
      </trkpt>
      <trkpt lat="47.34048" lon="-1.27829">
        <ele>63.1</ele>
        <time>2011-10-02T09:28:16Z</time>
      </trkpt>
      <trkpt lat="47.34042" lon="-1.2783">
        <ele>63.2</ele>
        <time>2011-10-02T09:28:17Z</time>
      </trkpt>
      <trkpt lat="47.34034" lon="-1.27829">
        <ele>62.3</ele>
        <time>2011-10-02T09:28:18Z</time>
      </trkpt>
      <trkpt lat="47.34028" lon="-1.2783">
        <ele>62.2</ele>
        <time>2011-10-02T09:28:19Z</time>
      </trkpt>
      <trkpt lat="47.34023" lon="-1.27828">
        <ele>62</ele>
        <time>2011-10-02T09:28:20Z</time>
      </trkpt>
      <trkpt lat="47.34018" lon="-1.27827">
        <ele>62.4</ele>
        <time>2011-10-02T09:28:21Z</time>
      </trkpt>
      <trkpt lat="47.3401" lon="-1.27826">
        <ele>62.6</ele>
        <time>2011-10-02T09:28:22Z</time>
      </trkpt>
      <trkpt lat="47.34002" lon="-1.27823">
        <ele>62.5</ele>
        <time>2011-10-02T09:28:23Z</time>
      </trkpt>
      <trkpt lat="47.33994" lon="-1.2782">
        <ele>62.6</ele>
        <time>2011-10-02T09:28:24Z</time>
      </trkpt>
      <trkpt lat="47.33986" lon="-1.27817">
        <ele>61.4</ele>
        <time>2011-10-02T09:28:26Z</time>
      </trkpt>
      <trkpt lat="47.33978" lon="-1.27814">
        <ele>61.4</ele>
        <time>2011-10-02T09:28:27Z</time>
      </trkpt>
      <trkpt lat="47.33969" lon="-1.27811">
        <ele>61.9</ele>
        <time>2011-10-02T09:28:28Z</time>
      </trkpt>
      <trkpt lat="47.33962" lon="-1.27809">
        <ele>61.9</ele>
        <time>2011-10-02T09:28:29Z</time>
      </trkpt>
      <trkpt lat="47.33952" lon="-1.2781">
        <ele>61.5</ele>
        <time>2011-10-02T09:28:31Z</time>
      </trkpt>
      <trkpt lat="47.33945" lon="-1.27808">
        <ele>61.3</ele>
        <time>2011-10-02T09:28:32Z</time>
      </trkpt>
      <trkpt lat="47.33939" lon="-1.27803">
        <ele>60.1</ele>
        <time>2011-10-02T09:28:33Z</time>
      </trkpt>
      <trkpt lat="47.33933" lon="-1.27803">
        <ele>59.7</ele>
        <time>2011-10-02T09:28:34Z</time>
      </trkpt>
      <trkpt lat="47.33925" lon="-1.278">
        <ele>59.7</ele>
        <time>2011-10-02T09:28:35Z</time>
      </trkpt>
      <trkpt lat="47.33918" lon="-1.27798">
        <ele>60.3</ele>
        <time>2011-10-02T09:28:36Z</time>
      </trkpt>
      <trkpt lat="47.3391" lon="-1.27792">
        <ele>61.7</ele>
        <time>2011-10-02T09:28:37Z</time>
      </trkpt>
      <trkpt lat="47.33902" lon="-1.27792">
        <ele>61.4</ele>
        <time>2011-10-02T09:28:39Z</time>
      </trkpt>
      <trkpt lat="47.33895" lon="-1.27792">
        <ele>62.1</ele>
        <time>2011-10-02T09:28:40Z</time>
      </trkpt>
      <trkpt lat="47.3389" lon="-1.2779">
        <ele>61.5</ele>
        <time>2011-10-02T09:28:41Z</time>
      </trkpt>
      <trkpt lat="47.33885" lon="-1.27788">
        <ele>61</ele>
        <time>2011-10-02T09:28:42Z</time>
      </trkpt>
      <trkpt lat="47.3388" lon="-1.27788">
        <ele>61</ele>
        <time>2011-10-02T09:28:43Z</time>
      </trkpt>
      <trkpt lat="47.33874" lon="-1.27783">
        <ele>60.2</ele>
        <time>2011-10-02T09:28:44Z</time>
      </trkpt>
      <trkpt lat="47.33866" lon="-1.27781">
        <ele>60.1</ele>
        <time>2011-10-02T09:28:45Z</time>
      </trkpt>
      <trkpt lat="47.33858" lon="-1.27782">
        <ele>61.3</ele>
        <time>2011-10-02T09:28:46Z</time>
      </trkpt>
      <trkpt lat="47.33848" lon="-1.2778">
        <ele>59.8</ele>
        <time>2011-10-02T09:28:48Z</time>
      </trkpt>
      <trkpt lat="47.33842" lon="-1.27777">
        <ele>60</ele>
        <time>2011-10-02T09:28:49Z</time>
      </trkpt>
      <trkpt lat="47.33834" lon="-1.27776">
        <ele>60.6</ele>
        <time>2011-10-02T09:28:50Z</time>
      </trkpt>
      <trkpt lat="47.33828" lon="-1.27773">
        <ele>60.9</ele>
        <time>2011-10-02T09:28:51Z</time>
      </trkpt>
      <trkpt lat="47.33822" lon="-1.27772">
        <ele>61.3</ele>
        <time>2011-10-02T09:28:52Z</time>
      </trkpt>
      <trkpt lat="47.33816" lon="-1.27771">
        <ele>61.6</ele>
        <time>2011-10-02T09:28:53Z</time>
      </trkpt>
      <trkpt lat="47.3381" lon="-1.27769">
        <ele>62.1</ele>
        <time>2011-10-02T09:28:54Z</time>
      </trkpt>
      <trkpt lat="47.33804" lon="-1.27769">
        <ele>62</ele>
        <time>2011-10-02T09:28:55Z</time>
      </trkpt>
      <trkpt lat="47.33798" lon="-1.27768">
        <ele>62.7</ele>
        <time>2011-10-02T09:28:56Z</time>
      </trkpt>
      <trkpt lat="47.33792" lon="-1.27767">
        <ele>63.1</ele>
        <time>2011-10-02T09:28:57Z</time>
      </trkpt>
      <trkpt lat="47.33785" lon="-1.27766">
        <ele>62.7</ele>
        <time>2011-10-02T09:28:58Z</time>
      </trkpt>
      <trkpt lat="47.33779" lon="-1.2776">
        <ele>63.2</ele>
        <time>2011-10-02T09:28:59Z</time>
      </trkpt>
      <trkpt lat="47.33772" lon="-1.27756">
        <ele>63.5</ele>
        <time>2011-10-02T09:29:00Z</time>
      </trkpt>
      <trkpt lat="47.33763" lon="-1.27747">
        <ele>62.8</ele>
        <time>2011-10-02T09:29:01Z</time>
      </trkpt>
      <trkpt lat="47.33756" lon="-1.27744">
        <ele>63</ele>
        <time>2011-10-02T09:29:02Z</time>
      </trkpt>
      <trkpt lat="47.33752" lon="-1.27745">
        <ele>63.1</ele>
        <time>2011-10-02T09:29:03Z</time>
      </trkpt>
      <trkpt lat="47.33747" lon="-1.27743">
        <ele>63.4</ele>
        <time>2011-10-02T09:29:04Z</time>
      </trkpt>
      <trkpt lat="47.33748" lon="-1.27752">
        <ele>64.8</ele>
        <time>2011-10-02T09:29:08Z</time>
      </trkpt>
      <trkpt lat="47.33759" lon="-1.27755">
        <ele>65.8</ele>
        <time>2011-10-02T09:29:10Z</time>
      </trkpt>
      <trkpt lat="47.33764" lon="-1.27753">
        <ele>66.1</ele>
        <time>2011-10-02T09:29:11Z</time>
      </trkpt>
      <trkpt lat="47.3377" lon="-1.27754">
        <ele>66.2</ele>
        <time>2011-10-02T09:29:12Z</time>
      </trkpt>
      <trkpt lat="47.3378" lon="-1.27757">
        <ele>65.9</ele>
        <time>2011-10-02T09:29:14Z</time>
      </trkpt>
      <trkpt lat="47.33787" lon="-1.27761">
        <ele>65.3</ele>
        <time>2011-10-02T09:29:15Z</time>
      </trkpt>
      <trkpt lat="47.33794" lon="-1.27762">
        <ele>65.2</ele>
        <time>2011-10-02T09:29:16Z</time>
      </trkpt>
      <trkpt lat="47.33801" lon="-1.27763">
        <ele>65.8</ele>
        <time>2011-10-02T09:29:17Z</time>
      </trkpt>
      <trkpt lat="47.33809" lon="-1.27766">
        <ele>65.8</ele>
        <time>2011-10-02T09:29:18Z</time>
      </trkpt>
      <trkpt lat="47.33818" lon="-1.27768">
        <ele>66.1</ele>
        <time>2011-10-02T09:29:19Z</time>
      </trkpt>
      <trkpt lat="47.33827" lon="-1.27769">
        <ele>66.1</ele>
        <time>2011-10-02T09:29:20Z</time>
      </trkpt>
      <trkpt lat="47.33834" lon="-1.2777">
        <ele>66.3</ele>
        <time>2011-10-02T09:29:21Z</time>
      </trkpt>
      <trkpt lat="47.33843" lon="-1.2777">
        <ele>66.4</ele>
        <time>2011-10-02T09:29:22Z</time>
      </trkpt>
      <trkpt lat="47.33851" lon="-1.27773">
        <ele>65.9</ele>
        <time>2011-10-02T09:29:23Z</time>
      </trkpt>
      <trkpt lat="47.33857" lon="-1.27775">
        <ele>65.8</ele>
        <time>2011-10-02T09:29:24Z</time>
      </trkpt>
      <trkpt lat="47.33866" lon="-1.27778">
        <ele>66.2</ele>
        <time>2011-10-02T09:29:25Z</time>
      </trkpt>
      <trkpt lat="47.33873" lon="-1.2778">
        <ele>66.5</ele>
        <time>2011-10-02T09:29:26Z</time>
      </trkpt>
      <trkpt lat="47.3388" lon="-1.27788">
        <ele>66.4</ele>
        <time>2011-10-02T09:29:28Z</time>
      </trkpt>
      <trkpt lat="47.33885" lon="-1.27785">
        <ele>66.2</ele>
        <time>2011-10-02T09:29:30Z</time>
      </trkpt>
      <trkpt lat="47.3389" lon="-1.27777">
        <ele>66.5</ele>
        <time>2011-10-02T09:29:32Z</time>
      </trkpt>
      <trkpt lat="47.3389" lon="-1.27769">
        <ele>66.6</ele>
        <time>2011-10-02T09:29:33Z</time>
      </trkpt>
      <trkpt lat="47.33892" lon="-1.27763">
        <ele>66.7</ele>
        <time>2011-10-02T09:29:34Z</time>
      </trkpt>
      <trkpt lat="47.33895" lon="-1.27755">
        <ele>67</ele>
        <time>2011-10-02T09:29:35Z</time>
      </trkpt>
      <trkpt lat="47.33896" lon="-1.27745">
        <ele>67.6</ele>
        <time>2011-10-02T09:29:36Z</time>
      </trkpt>
      <trkpt lat="47.33897" lon="-1.27736">
        <ele>68.3</ele>
        <time>2011-10-02T09:29:37Z</time>
      </trkpt>
      <trkpt lat="47.339" lon="-1.27728">
        <ele>68.9</ele>
        <time>2011-10-02T09:29:38Z</time>
      </trkpt>
      <trkpt lat="47.33905" lon="-1.2771">
        <ele>70.5</ele>
        <time>2011-10-02T09:29:39Z</time>
      </trkpt>
      <trkpt lat="47.33904" lon="-1.27702">
        <ele>69.2</ele>
        <time>2011-10-02T09:29:40Z</time>
      </trkpt>
      <trkpt lat="47.33907" lon="-1.27692">
        <ele>69.3</ele>
        <time>2011-10-02T09:29:41Z</time>
      </trkpt>
      <trkpt lat="47.33908" lon="-1.27683">
        <ele>69.4</ele>
        <time>2011-10-02T09:29:42Z</time>
      </trkpt>
      <trkpt lat="47.3391" lon="-1.27673">
        <ele>69.4</ele>
        <time>2011-10-02T09:29:44Z</time>
      </trkpt>
      <trkpt lat="47.33909" lon="-1.27662">
        <ele>69.1</ele>
        <time>2011-10-02T09:29:45Z</time>
      </trkpt>
      <trkpt lat="47.33911" lon="-1.27653">
        <ele>69.7</ele>
        <time>2011-10-02T09:29:46Z</time>
      </trkpt>
      <trkpt lat="47.33913" lon="-1.27644">
        <ele>69.6</ele>
        <time>2011-10-02T09:29:47Z</time>
      </trkpt>
      <trkpt lat="47.33915" lon="-1.27635">
        <ele>69.6</ele>
        <time>2011-10-02T09:29:48Z</time>
      </trkpt>
      <trkpt lat="47.33917" lon="-1.27627">
        <ele>69.6</ele>
        <time>2011-10-02T09:29:49Z</time>
      </trkpt>
      <trkpt lat="47.33919" lon="-1.27616">
        <ele>69.4</ele>
        <time>2011-10-02T09:29:50Z</time>
      </trkpt>
      <trkpt lat="47.33921" lon="-1.27607">
        <ele>69.8</ele>
        <time>2011-10-02T09:29:51Z</time>
      </trkpt>
      <trkpt lat="47.33921" lon="-1.27597">
        <ele>70.3</ele>
        <time>2011-10-02T09:29:52Z</time>
      </trkpt>
      <trkpt lat="47.3392" lon="-1.2757">
        <ele>70.8</ele>
        <time>2011-10-02T09:29:54Z</time>
      </trkpt>
      <trkpt lat="47.33922" lon="-1.27558">
        <ele>66.4</ele>
        <time>2011-10-02T09:29:55Z</time>
      </trkpt>
      <trkpt lat="47.33921" lon="-1.27548">
        <ele>66.8</ele>
        <time>2011-10-02T09:29:56Z</time>
      </trkpt>
      <trkpt lat="47.33916" lon="-1.27541">
        <ele>66.2</ele>
        <time>2011-10-02T09:29:58Z</time>
      </trkpt>
      <trkpt lat="47.33911" lon="-1.2753">
        <ele>64.3</ele>
        <time>2011-10-02T09:30:00Z</time>
      </trkpt>
      <trkpt lat="47.33906" lon="-1.27515">
        <ele>64.4</ele>
        <time>2011-10-02T09:30:01Z</time>
      </trkpt>
      <trkpt lat="47.33905" lon="-1.27505">
        <ele>65.1</ele>
        <time>2011-10-02T09:30:04Z</time>
      </trkpt>
      <trkpt lat="47.33904" lon="-1.27495">
        <ele>65.4</ele>
        <time>2011-10-02T09:30:05Z</time>
      </trkpt>
      <trkpt lat="47.33904" lon="-1.27486">
        <ele>66.9</ele>
        <time>2011-10-02T09:30:07Z</time>
      </trkpt>
      <trkpt lat="47.33905" lon="-1.27477">
        <ele>66.7</ele>
        <time>2011-10-02T09:30:08Z</time>
      </trkpt>
      <trkpt lat="47.33908" lon="-1.27468">
        <ele>67.6</ele>
        <time>2011-10-02T09:30:09Z</time>
      </trkpt>
      <trkpt lat="47.33908" lon="-1.27459">
        <ele>67.5</ele>
        <time>2011-10-02T09:30:10Z</time>
      </trkpt>
      <trkpt lat="47.33908" lon="-1.27449">
        <ele>67.7</ele>
        <time>2011-10-02T09:30:11Z</time>
      </trkpt>
      <trkpt lat="47.33908" lon="-1.27438">
        <ele>67.5</ele>
        <time>2011-10-02T09:30:12Z</time>
      </trkpt>
      <trkpt lat="47.33913" lon="-1.27429">
        <ele>66.7</ele>
        <time>2011-10-02T09:30:13Z</time>
      </trkpt>
      <trkpt lat="47.33917" lon="-1.27408">
        <ele>64.7</ele>
        <time>2011-10-02T09:30:15Z</time>
      </trkpt>
      <trkpt lat="47.33919" lon="-1.27395">
        <ele>64</ele>
        <time>2011-10-02T09:30:16Z</time>
      </trkpt>
      <trkpt lat="47.3393" lon="-1.27381">
        <ele>63.3</ele>
        <time>2011-10-02T09:30:17Z</time>
      </trkpt>
      <trkpt lat="47.33938" lon="-1.27371">
        <ele>63</ele>
        <time>2011-10-02T09:30:19Z</time>
      </trkpt>
      <trkpt lat="47.33948" lon="-1.27354">
        <ele>62.5</ele>
        <time>2011-10-02T09:30:20Z</time>
      </trkpt>
      <trkpt lat="47.33946" lon="-1.2734">
        <ele>62.9</ele>
        <time>2011-10-02T09:30:21Z</time>
      </trkpt>
      <trkpt lat="47.33953" lon="-1.27342">
        <ele>62.6</ele>
        <time>2011-10-02T09:30:22Z</time>
      </trkpt>
      <trkpt lat="47.33949" lon="-1.27334">
        <ele>63.7</ele>
        <time>2011-10-02T09:30:27Z</time>
      </trkpt>
      <trkpt lat="47.33947" lon="-1.27326">
        <ele>62.7</ele>
        <time>2011-10-02T09:30:32Z</time>
      </trkpt>
      <trkpt lat="47.33942" lon="-1.27324">
        <ele>62.3</ele>
        <time>2011-10-02T09:30:34Z</time>
      </trkpt>
      <trkpt lat="47.33938" lon="-1.27317">
        <ele>64.9</ele>
        <time>2011-10-02T09:30:41Z</time>
      </trkpt>
      <trkpt lat="47.33939" lon="-1.27309">
        <ele>66.7</ele>
        <time>2011-10-02T09:30:45Z</time>
      </trkpt>
      <trkpt lat="47.33938" lon="-1.27301">
        <ele>65.8</ele>
        <time>2011-10-02T09:30:51Z</time>
      </trkpt>
      <trkpt lat="47.33937" lon="-1.27292">
        <ele>65</ele>
        <time>2011-10-02T09:30:56Z</time>
      </trkpt>
      <trkpt lat="47.33938" lon="-1.27285">
        <ele>70.2</ele>
        <time>2011-10-02T09:31:09Z</time>
      </trkpt>
      <trkpt lat="47.33935" lon="-1.27279">
        <ele>69.8</ele>
        <time>2011-10-02T09:31:13Z</time>
      </trkpt>
      <trkpt lat="47.33932" lon="-1.27272">
        <ele>68.9</ele>
        <time>2011-10-02T09:31:18Z</time>
      </trkpt>
      <trkpt lat="47.33932" lon="-1.27265">
        <ele>75.6</ele>
        <time>2011-10-02T09:31:25Z</time>
      </trkpt>
      <trkpt lat="47.3393" lon="-1.27258">
        <ele>74.8</ele>
        <time>2011-10-02T09:31:32Z</time>
      </trkpt>
      <trkpt lat="47.33934" lon="-1.27254">
        <ele>74.4</ele>
        <time>2011-10-02T09:31:35Z</time>
      </trkpt>
      <trkpt lat="47.33937" lon="-1.27249">
        <ele>73</ele>
        <time>2011-10-02T09:31:40Z</time>
      </trkpt>
      <trkpt lat="47.33939" lon="-1.27242">
        <ele>74.2</ele>
        <time>2011-10-02T09:31:43Z</time>
      </trkpt>
      <trkpt lat="47.33939" lon="-1.27242">
        <ele>74.2</ele>
        <time>2011-10-02T09:31:43Z</time>
      </trkpt>
      <trkpt lat="47.33939" lon="-1.27242">
        <ele>74.2</ele>
        <time>2011-10-02T09:31:44Z</time>
      </trkpt>
      <trkpt lat="47.33944" lon="-1.27239">
        <ele>73.7</ele>
        <time>2011-10-02T09:31:59Z</time>
      </trkpt>
      <trkpt lat="47.33949" lon="-1.27237">
        <ele>74.6</ele>
        <time>2011-10-02T09:32:02Z</time>
      </trkpt>
      <trkpt lat="47.33954" lon="-1.27236">
        <ele>73.2</ele>
        <time>2011-10-02T09:32:04Z</time>
      </trkpt>
      <trkpt lat="47.33955" lon="-1.27226">
        <ele>76.1</ele>
        <time>2011-10-02T09:32:09Z</time>
      </trkpt>
      <trkpt lat="47.3395" lon="-1.27219">
        <ele>71.6</ele>
        <time>2011-10-02T09:32:12Z</time>
      </trkpt>
      <trkpt lat="47.3395" lon="-1.27211">
        <ele>68.6</ele>
        <time>2011-10-02T09:32:21Z</time>
      </trkpt>
      <trkpt lat="47.33948" lon="-1.27204">
        <ele>69.3</ele>
        <time>2011-10-02T09:32:31Z</time>
      </trkpt>
      <trkpt lat="47.33949" lon="-1.27196">
        <ele>69.5</ele>
        <time>2011-10-02T09:32:33Z</time>
      </trkpt>
      <trkpt lat="47.33946" lon="-1.27189">
        <ele>69.1</ele>
        <time>2011-10-02T09:32:35Z</time>
      </trkpt>
      <trkpt lat="47.33942" lon="-1.27179">
        <ele>68.3</ele>
        <time>2011-10-02T09:32:37Z</time>
      </trkpt>
      <trkpt lat="47.3394" lon="-1.2717">
        <ele>68.8</ele>
        <time>2011-10-02T09:32:39Z</time>
      </trkpt>
      <trkpt lat="47.33938" lon="-1.27158">
        <ele>68.7</ele>
        <time>2011-10-02T09:32:41Z</time>
      </trkpt>
      <trkpt lat="47.33939" lon="-1.2715">
        <ele>68.9</ele>
        <time>2011-10-02T09:32:42Z</time>
      </trkpt>
      <trkpt lat="47.33938" lon="-1.27143">
        <ele>69.2</ele>
        <time>2011-10-02T09:32:43Z</time>
      </trkpt>
      <trkpt lat="47.33939" lon="-1.27135">
        <ele>70.3</ele>
        <time>2011-10-02T09:32:44Z</time>
      </trkpt>
      <trkpt lat="47.33939" lon="-1.27128">
        <ele>71</ele>
        <time>2011-10-02T09:32:45Z</time>
      </trkpt>
      <trkpt lat="47.33937" lon="-1.2712">
        <ele>71.8</ele>
        <time>2011-10-02T09:32:46Z</time>
      </trkpt>
      <trkpt lat="47.33934" lon="-1.27112">
        <ele>72.6</ele>
        <time>2011-10-02T09:32:47Z</time>
      </trkpt>
      <trkpt lat="47.33932" lon="-1.271">
        <ele>75.6</ele>
        <time>2011-10-02T09:32:49Z</time>
      </trkpt>
      <trkpt lat="47.33932" lon="-1.27091">
        <ele>76.7</ele>
        <time>2011-10-02T09:32:50Z</time>
      </trkpt>
      <trkpt lat="47.33932" lon="-1.27081">
        <ele>77.4</ele>
        <time>2011-10-02T09:32:51Z</time>
      </trkpt>
      <trkpt lat="47.33933" lon="-1.27072">
        <ele>79.2</ele>
        <time>2011-10-02T09:32:52Z</time>
      </trkpt>
      <trkpt lat="47.33933" lon="-1.27064">
        <ele>79.6</ele>
        <time>2011-10-02T09:32:53Z</time>
      </trkpt>
      <trkpt lat="47.33937" lon="-1.27056">
        <ele>78.7</ele>
        <time>2011-10-02T09:32:54Z</time>
      </trkpt>
      <trkpt lat="47.33937" lon="-1.27042">
        <ele>80.8</ele>
        <time>2011-10-02T09:32:56Z</time>
      </trkpt>
      <trkpt lat="47.33937" lon="-1.27033">
        <ele>81.1</ele>
        <time>2011-10-02T09:32:57Z</time>
      </trkpt>
      <trkpt lat="47.33937" lon="-1.27022">
        <ele>80.2</ele>
        <time>2011-10-02T09:32:58Z</time>
      </trkpt>
      <trkpt lat="47.33937" lon="-1.27016">
        <ele>80.5</ele>
        <time>2011-10-02T09:32:59Z</time>
      </trkpt>
      <trkpt lat="47.33937" lon="-1.27007">
        <ele>80</ele>
        <time>2011-10-02T09:33:00Z</time>
      </trkpt>
      <trkpt lat="47.33938" lon="-1.26992">
        <ele>79.6</ele>
        <time>2011-10-02T09:33:02Z</time>
      </trkpt>
      <trkpt lat="47.33939" lon="-1.26983">
        <ele>78.2</ele>
        <time>2011-10-02T09:33:03Z</time>
      </trkpt>
      <trkpt lat="47.33941" lon="-1.26972">
        <ele>77.6</ele>
        <time>2011-10-02T09:33:04Z</time>
      </trkpt>
      <trkpt lat="47.33943" lon="-1.26963">
        <ele>77.9</ele>
        <time>2011-10-02T09:33:05Z</time>
      </trkpt>
      <trkpt lat="47.33944" lon="-1.26955">
        <ele>78.3</ele>
        <time>2011-10-02T09:33:06Z</time>
      </trkpt>
      <trkpt lat="47.33945" lon="-1.26948">
        <ele>79.6</ele>
        <time>2011-10-02T09:33:07Z</time>
      </trkpt>
      <trkpt lat="47.33946" lon="-1.26939">
        <ele>81.2</ele>
        <time>2011-10-02T09:33:08Z</time>
      </trkpt>
      <trkpt lat="47.33946" lon="-1.2693">
        <ele>82</ele>
        <time>2011-10-02T09:33:09Z</time>
      </trkpt>
      <trkpt lat="47.33947" lon="-1.26922">
        <ele>82.8</ele>
        <time>2011-10-02T09:33:10Z</time>
      </trkpt>
      <trkpt lat="47.33946" lon="-1.26914">
        <ele>83.9</ele>
        <time>2011-10-02T09:33:11Z</time>
      </trkpt>
      <trkpt lat="47.33946" lon="-1.26907">
        <ele>84.3</ele>
        <time>2011-10-02T09:33:12Z</time>
      </trkpt>
      <trkpt lat="47.33948" lon="-1.269">
        <ele>86.4</ele>
        <time>2011-10-02T09:33:13Z</time>
      </trkpt>
      <trkpt lat="47.33948" lon="-1.26892">
        <ele>87.6</ele>
        <time>2011-10-02T09:33:14Z</time>
      </trkpt>
      <trkpt lat="47.33947" lon="-1.26878">
        <ele>89.1</ele>
        <time>2011-10-02T09:33:16Z</time>
      </trkpt>
      <trkpt lat="47.33948" lon="-1.2687">
        <ele>90.8</ele>
        <time>2011-10-02T09:33:17Z</time>
      </trkpt>
      <trkpt lat="47.33948" lon="-1.26862">
        <ele>91.3</ele>
        <time>2011-10-02T09:33:18Z</time>
      </trkpt>
      <trkpt lat="47.3395" lon="-1.26852">
        <ele>91.3</ele>
        <time>2011-10-02T09:33:19Z</time>
      </trkpt>
      <trkpt lat="47.33951" lon="-1.26839">
        <ele>89.8</ele>
        <time>2011-10-02T09:33:20Z</time>
      </trkpt>
      <trkpt lat="47.33949" lon="-1.26831">
        <ele>89.1</ele>
        <time>2011-10-02T09:33:21Z</time>
      </trkpt>
      <trkpt lat="47.33946" lon="-1.26821">
        <ele>88</ele>
        <time>2011-10-02T09:33:22Z</time>
      </trkpt>
      <trkpt lat="47.33946" lon="-1.26814">
        <ele>88.7</ele>
        <time>2011-10-02T09:33:23Z</time>
      </trkpt>
      <trkpt lat="47.33946" lon="-1.26806">
        <ele>89</ele>
        <time>2011-10-02T09:33:24Z</time>
      </trkpt>
      <trkpt lat="47.33949" lon="-1.26796">
        <ele>89</ele>
        <time>2011-10-02T09:33:25Z</time>
      </trkpt>
      <trkpt lat="47.33949" lon="-1.26784">
        <ele>89.3</ele>
        <time>2011-10-02T09:33:26Z</time>
      </trkpt>
      <trkpt lat="47.33948" lon="-1.26776">
        <ele>89.5</ele>
        <time>2011-10-02T09:33:27Z</time>
      </trkpt>
      <trkpt lat="47.33948" lon="-1.26766">
        <ele>89.4</ele>
        <time>2011-10-02T09:33:28Z</time>
      </trkpt>
      <trkpt lat="47.33948" lon="-1.26757">
        <ele>89.4</ele>
        <time>2011-10-02T09:33:29Z</time>
      </trkpt>
      <trkpt lat="47.33949" lon="-1.26746">
        <ele>88.5</ele>
        <time>2011-10-02T09:33:30Z</time>
      </trkpt>
      <trkpt lat="47.33951" lon="-1.26736">
        <ele>88.4</ele>
        <time>2011-10-02T09:33:31Z</time>
      </trkpt>
      <trkpt lat="47.33953" lon="-1.26725">
        <ele>87.4</ele>
        <time>2011-10-02T09:33:32Z</time>
      </trkpt>
      <trkpt lat="47.33956" lon="-1.26716">
        <ele>87.1</ele>
        <time>2011-10-02T09:33:33Z</time>
      </trkpt>
      <trkpt lat="47.33958" lon="-1.26706">
        <ele>87.4</ele>
        <time>2011-10-02T09:33:34Z</time>
      </trkpt>
      <trkpt lat="47.3396" lon="-1.26694">
        <ele>87.5</ele>
        <time>2011-10-02T09:33:35Z</time>
      </trkpt>
      <trkpt lat="47.3396" lon="-1.26682">
        <ele>87.4</ele>
        <time>2011-10-02T09:33:36Z</time>
      </trkpt>
      <trkpt lat="47.33962" lon="-1.26673">
        <ele>88</ele>
        <time>2011-10-02T09:33:37Z</time>
      </trkpt>
      <trkpt lat="47.33962" lon="-1.26664">
        <ele>89.6</ele>
        <time>2011-10-02T09:33:38Z</time>
      </trkpt>
      <trkpt lat="47.33962" lon="-1.26654">
        <ele>89.6</ele>
        <time>2011-10-02T09:33:39Z</time>
      </trkpt>
      <trkpt lat="47.33963" lon="-1.26646">
        <ele>89.6</ele>
        <time>2011-10-02T09:33:40Z</time>
      </trkpt>
      <trkpt lat="47.33964" lon="-1.26638">
        <ele>89.8</ele>
        <time>2011-10-02T09:33:41Z</time>
      </trkpt>
      <trkpt lat="47.33964" lon="-1.26629">
        <ele>89.5</ele>
        <time>2011-10-02T09:33:42Z</time>
      </trkpt>
      <trkpt lat="47.33963" lon="-1.26619">
        <ele>88.8</ele>
        <time>2011-10-02T09:33:43Z</time>
      </trkpt>
      <trkpt lat="47.33963" lon="-1.26609">
        <ele>87.7</ele>
        <time>2011-10-02T09:33:44Z</time>
      </trkpt>
      <trkpt lat="47.33962" lon="-1.266">
        <ele>85.8</ele>
        <time>2011-10-02T09:33:45Z</time>
      </trkpt>
      <trkpt lat="47.33961" lon="-1.26591">
        <ele>85.3</ele>
        <time>2011-10-02T09:33:46Z</time>
      </trkpt>
      <trkpt lat="47.3396" lon="-1.26583">
        <ele>85.1</ele>
        <time>2011-10-02T09:33:47Z</time>
      </trkpt>
      <trkpt lat="47.3396" lon="-1.26574">
        <ele>84.5</ele>
        <time>2011-10-02T09:33:48Z</time>
      </trkpt>
      <trkpt lat="47.3396" lon="-1.26565">
        <ele>84.5</ele>
        <time>2011-10-02T09:33:49Z</time>
      </trkpt>
      <trkpt lat="47.33958" lon="-1.26558">
        <ele>84.1</ele>
        <time>2011-10-02T09:33:50Z</time>
      </trkpt>
      <trkpt lat="47.33957" lon="-1.26551">
        <ele>84.2</ele>
        <time>2011-10-02T09:33:51Z</time>
      </trkpt>
      <trkpt lat="47.33956" lon="-1.26542">
        <ele>84.5</ele>
        <time>2011-10-02T09:33:52Z</time>
      </trkpt>
      <trkpt lat="47.33953" lon="-1.26532">
        <ele>85.6</ele>
        <time>2011-10-02T09:33:54Z</time>
      </trkpt>
      <trkpt lat="47.33953" lon="-1.26524">
        <ele>85.6</ele>
        <time>2011-10-02T09:33:55Z</time>
      </trkpt>
      <trkpt lat="47.33954" lon="-1.26517">
        <ele>85</ele>
        <time>2011-10-02T09:33:56Z</time>
      </trkpt>
      <trkpt lat="47.33953" lon="-1.26509">
        <ele>85.2</ele>
        <time>2011-10-02T09:33:57Z</time>
      </trkpt>
      <trkpt lat="47.33953" lon="-1.265">
        <ele>85.1</ele>
        <time>2011-10-02T09:33:58Z</time>
      </trkpt>
      <trkpt lat="47.33954" lon="-1.26492">
        <ele>85.4</ele>
        <time>2011-10-02T09:33:59Z</time>
      </trkpt>
      <trkpt lat="47.33954" lon="-1.26483">
        <ele>85.5</ele>
        <time>2011-10-02T09:34:00Z</time>
      </trkpt>
      <trkpt lat="47.3395" lon="-1.26472">
        <ele>85.2</ele>
        <time>2011-10-02T09:34:01Z</time>
      </trkpt>
      <trkpt lat="47.33953" lon="-1.2646">
        <ele>86.3</ele>
        <time>2011-10-02T09:34:02Z</time>
      </trkpt>
      <trkpt lat="47.33953" lon="-1.26445">
        <ele>85.9</ele>
        <time>2011-10-02T09:34:03Z</time>
      </trkpt>
      <trkpt lat="47.33954" lon="-1.26432">
        <ele>85.6</ele>
        <time>2011-10-02T09:34:04Z</time>
      </trkpt>
      <trkpt lat="47.33958" lon="-1.26418">
        <ele>85.6</ele>
        <time>2011-10-02T09:34:05Z</time>
      </trkpt>
      <trkpt lat="47.3396" lon="-1.26405">
        <ele>85.5</ele>
        <time>2011-10-02T09:34:06Z</time>
      </trkpt>
      <trkpt lat="47.33961" lon="-1.26395">
        <ele>86.5</ele>
        <time>2011-10-02T09:34:07Z</time>
      </trkpt>
      <trkpt lat="47.33963" lon="-1.26386">
        <ele>87.1</ele>
        <time>2011-10-02T09:34:08Z</time>
      </trkpt>
      <trkpt lat="47.33963" lon="-1.26378">
        <ele>87.5</ele>
        <time>2011-10-02T09:34:09Z</time>
      </trkpt>
      <trkpt lat="47.33962" lon="-1.2637">
        <ele>87.6</ele>
        <time>2011-10-02T09:34:11Z</time>
      </trkpt>
      <trkpt lat="47.33958" lon="-1.2636">
        <ele>88</ele>
        <time>2011-10-02T09:34:13Z</time>
      </trkpt>
      <trkpt lat="47.33958" lon="-1.26345">
        <ele>88.8</ele>
        <time>2011-10-02T09:34:15Z</time>
      </trkpt>
      <trkpt lat="47.33957" lon="-1.26335">
        <ele>89.4</ele>
        <time>2011-10-02T09:34:16Z</time>
      </trkpt>
      <trkpt lat="47.33957" lon="-1.26328">
        <ele>90.8</ele>
        <time>2011-10-02T09:34:17Z</time>
      </trkpt>
      <trkpt lat="47.33956" lon="-1.26322">
        <ele>91.5</ele>
        <time>2011-10-02T09:34:18Z</time>
      </trkpt>
      <trkpt lat="47.33955" lon="-1.26313">
        <ele>92</ele>
        <time>2011-10-02T09:34:19Z</time>
      </trkpt>
      <trkpt lat="47.33952" lon="-1.26302">
        <ele>91.6</ele>
        <time>2011-10-02T09:34:20Z</time>
      </trkpt>
      <trkpt lat="47.33954" lon="-1.26293">
        <ele>92.2</ele>
        <time>2011-10-02T09:34:21Z</time>
      </trkpt>
      <trkpt lat="47.33955" lon="-1.26285">
        <ele>93.8</ele>
        <time>2011-10-02T09:34:22Z</time>
      </trkpt>
      <trkpt lat="47.33955" lon="-1.26275">
        <ele>94.6</ele>
        <time>2011-10-02T09:34:23Z</time>
      </trkpt>
      <trkpt lat="47.33954" lon="-1.26264">
        <ele>95.5</ele>
        <time>2011-10-02T09:34:24Z</time>
      </trkpt>
      <trkpt lat="47.33953" lon="-1.26256">
        <ele>96.2</ele>
        <time>2011-10-02T09:34:25Z</time>
      </trkpt>
      <trkpt lat="47.33953" lon="-1.26246">
        <ele>97.1</ele>
        <time>2011-10-02T09:34:26Z</time>
      </trkpt>
      <trkpt lat="47.33953" lon="-1.26238">
        <ele>98</ele>
        <time>2011-10-02T09:34:27Z</time>
      </trkpt>
      <trkpt lat="47.33956" lon="-1.26228">
        <ele>96.6</ele>
        <time>2011-10-02T09:34:29Z</time>
      </trkpt>
      <trkpt lat="47.33956" lon="-1.2622">
        <ele>96.3</ele>
        <time>2011-10-02T09:34:30Z</time>
      </trkpt>
      <trkpt lat="47.3396" lon="-1.26212">
        <ele>96.3</ele>
        <time>2011-10-02T09:34:31Z</time>
      </trkpt>
      <trkpt lat="47.3396" lon="-1.26204">
        <ele>95.8</ele>
        <time>2011-10-02T09:34:32Z</time>
      </trkpt>
      <trkpt lat="47.33963" lon="-1.26196">
        <ele>92.7</ele>
        <time>2011-10-02T09:34:33Z</time>
      </trkpt>
      <trkpt lat="47.33964" lon="-1.26188">
        <ele>92.7</ele>
        <time>2011-10-02T09:34:34Z</time>
      </trkpt>
      <trkpt lat="47.33965" lon="-1.2618">
        <ele>92</ele>
        <time>2011-10-02T09:34:35Z</time>
      </trkpt>
      <trkpt lat="47.33965" lon="-1.26168">
        <ele>91</ele>
        <time>2011-10-02T09:34:36Z</time>
      </trkpt>
      <trkpt lat="47.33966" lon="-1.26157">
        <ele>90.1</ele>
        <time>2011-10-02T09:34:37Z</time>
      </trkpt>
      <trkpt lat="47.33966" lon="-1.26149">
        <ele>89.5</ele>
        <time>2011-10-02T09:34:38Z</time>
      </trkpt>
      <trkpt lat="47.33966" lon="-1.26142">
        <ele>89.1</ele>
        <time>2011-10-02T09:34:39Z</time>
      </trkpt>
      <trkpt lat="47.33966" lon="-1.26134">
        <ele>89.8</ele>
        <time>2011-10-02T09:34:40Z</time>
      </trkpt>
      <trkpt lat="47.33967" lon="-1.26121">
        <ele>89.8</ele>
        <time>2011-10-02T09:34:42Z</time>
      </trkpt>
      <trkpt lat="47.3397" lon="-1.2611">
        <ele>91</ele>
        <time>2011-10-02T09:34:44Z</time>
      </trkpt>
      <trkpt lat="47.3397" lon="-1.26097">
        <ele>90.1</ele>
        <time>2011-10-02T09:34:46Z</time>
      </trkpt>
      <trkpt lat="47.33972" lon="-1.2609">
        <ele>89.8</ele>
        <time>2011-10-02T09:34:47Z</time>
      </trkpt>
      <trkpt lat="47.33974" lon="-1.26083">
        <ele>88.5</ele>
        <time>2011-10-02T09:34:48Z</time>
      </trkpt>
      <trkpt lat="47.33974" lon="-1.26076">
        <ele>89.2</ele>
        <time>2011-10-02T09:34:49Z</time>
      </trkpt>
      <trkpt lat="47.33975" lon="-1.26067">
        <ele>89.3</ele>
        <time>2011-10-02T09:34:50Z</time>
      </trkpt>
      <trkpt lat="47.33976" lon="-1.26059">
        <ele>89.1</ele>
        <time>2011-10-02T09:34:51Z</time>
      </trkpt>
      <trkpt lat="47.33975" lon="-1.26048">
        <ele>88.3</ele>
        <time>2011-10-02T09:34:52Z</time>
      </trkpt>
      <trkpt lat="47.33975" lon="-1.26032">
        <ele>89.1</ele>
        <time>2011-10-02T09:34:54Z</time>
      </trkpt>
      <trkpt lat="47.33977" lon="-1.26023">
        <ele>89</ele>
        <time>2011-10-02T09:34:55Z</time>
      </trkpt>
      <trkpt lat="47.33977" lon="-1.26015">
        <ele>88.8</ele>
        <time>2011-10-02T09:34:56Z</time>
      </trkpt>
      <trkpt lat="47.33978" lon="-1.26003">
        <ele>88</ele>
        <time>2011-10-02T09:34:57Z</time>
      </trkpt>
      <trkpt lat="47.3398" lon="-1.25992">
        <ele>88.8</ele>
        <time>2011-10-02T09:34:58Z</time>
      </trkpt>
      <trkpt lat="47.33979" lon="-1.25982">
        <ele>89.2</ele>
        <time>2011-10-02T09:34:59Z</time>
      </trkpt>
      <trkpt lat="47.33982" lon="-1.25972">
        <ele>88.3</ele>
        <time>2011-10-02T09:35:00Z</time>
      </trkpt>
      <trkpt lat="47.33983" lon="-1.25964">
        <ele>87.1</ele>
        <time>2011-10-02T09:35:01Z</time>
      </trkpt>
      <trkpt lat="47.33985" lon="-1.25953">
        <ele>86.6</ele>
        <time>2011-10-02T09:35:02Z</time>
      </trkpt>
      <trkpt lat="47.33987" lon="-1.25946">
        <ele>85.6</ele>
        <time>2011-10-02T09:35:03Z</time>
      </trkpt>
      <trkpt lat="47.3399" lon="-1.25938">
        <ele>85.3</ele>
        <time>2011-10-02T09:35:04Z</time>
      </trkpt>
      <trkpt lat="47.33992" lon="-1.25931">
        <ele>84.5</ele>
        <time>2011-10-02T09:35:05Z</time>
      </trkpt>
      <trkpt lat="47.33994" lon="-1.25923">
        <ele>84.6</ele>
        <time>2011-10-02T09:35:06Z</time>
      </trkpt>
      <trkpt lat="47.33997" lon="-1.25912">
        <ele>84.4</ele>
        <time>2011-10-02T09:35:07Z</time>
      </trkpt>
      <trkpt lat="47.33999" lon="-1.25906">
        <ele>84.4</ele>
        <time>2011-10-02T09:35:08Z</time>
      </trkpt>
      <trkpt lat="47.34" lon="-1.25894">
        <ele>83.7</ele>
        <time>2011-10-02T09:35:09Z</time>
      </trkpt>
      <trkpt lat="47.34001" lon="-1.25883">
        <ele>83</ele>
        <time>2011-10-02T09:35:10Z</time>
      </trkpt>
      <trkpt lat="47.34" lon="-1.25874">
        <ele>82.7</ele>
        <time>2011-10-02T09:35:11Z</time>
      </trkpt>
      <trkpt lat="47.33998" lon="-1.2586">
        <ele>81.2</ele>
        <time>2011-10-02T09:35:12Z</time>
      </trkpt>
      <trkpt lat="47.33997" lon="-1.25847">
        <ele>79.9</ele>
        <time>2011-10-02T09:35:13Z</time>
      </trkpt>
      <trkpt lat="47.33997" lon="-1.25837">
        <ele>80.1</ele>
        <time>2011-10-02T09:35:14Z</time>
      </trkpt>
      <trkpt lat="47.33997" lon="-1.2583">
        <ele>79.7</ele>
        <time>2011-10-02T09:35:15Z</time>
      </trkpt>
      <trkpt lat="47.33998" lon="-1.25822">
        <ele>79.1</ele>
        <time>2011-10-02T09:35:16Z</time>
      </trkpt>
      <trkpt lat="47.33998" lon="-1.25807">
        <ele>77.9</ele>
        <time>2011-10-02T09:35:18Z</time>
      </trkpt>
      <trkpt lat="47.33997" lon="-1.258">
        <ele>78.1</ele>
        <time>2011-10-02T09:35:19Z</time>
      </trkpt>
      <trkpt lat="47.33998" lon="-1.25792">
        <ele>76.3</ele>
        <time>2011-10-02T09:35:20Z</time>
      </trkpt>
      <trkpt lat="47.33999" lon="-1.25777">
        <ele>74.3</ele>
        <time>2011-10-02T09:35:21Z</time>
      </trkpt>
      <trkpt lat="47.34" lon="-1.25768">
        <ele>74.6</ele>
        <time>2011-10-02T09:35:22Z</time>
      </trkpt>
      <trkpt lat="47.34" lon="-1.25759">
        <ele>74.7</ele>
        <time>2011-10-02T09:35:23Z</time>
      </trkpt>
      <trkpt lat="47.33999" lon="-1.25749">
        <ele>74.3</ele>
        <time>2011-10-02T09:35:24Z</time>
      </trkpt>
      <trkpt lat="47.34001" lon="-1.2574">
        <ele>71.8</ele>
        <time>2011-10-02T09:35:25Z</time>
      </trkpt>
      <trkpt lat="47.34002" lon="-1.25733">
        <ele>71.6</ele>
        <time>2011-10-02T09:35:26Z</time>
      </trkpt>
      <trkpt lat="47.34002" lon="-1.25726">
        <ele>72.1</ele>
        <time>2011-10-02T09:35:27Z</time>
      </trkpt>
      <trkpt lat="47.34001" lon="-1.25715">
        <ele>71.5</ele>
        <time>2011-10-02T09:35:29Z</time>
      </trkpt>
      <trkpt lat="47.34" lon="-1.25708">
        <ele>72.6</ele>
        <time>2011-10-02T09:35:30Z</time>
      </trkpt>
      <trkpt lat="47.33999" lon="-1.25701">
        <ele>71.6</ele>
        <time>2011-10-02T09:35:31Z</time>
      </trkpt>
      <trkpt lat="47.33999" lon="-1.25689">
        <ele>69.9</ele>
        <time>2011-10-02T09:35:33Z</time>
      </trkpt>
      <trkpt lat="47.33998" lon="-1.25682">
        <ele>70.3</ele>
        <time>2011-10-02T09:35:34Z</time>
      </trkpt>
      <trkpt lat="47.33998" lon="-1.25674">
        <ele>70</ele>
        <time>2011-10-02T09:35:35Z</time>
      </trkpt>
      <trkpt lat="47.33998" lon="-1.25665">
        <ele>69.1</ele>
        <time>2011-10-02T09:35:36Z</time>
      </trkpt>
      <trkpt lat="47.33999" lon="-1.25656">
        <ele>68.4</ele>
        <time>2011-10-02T09:35:37Z</time>
      </trkpt>
      <trkpt lat="47.33998" lon="-1.25647">
        <ele>68.1</ele>
        <time>2011-10-02T09:35:38Z</time>
      </trkpt>
      <trkpt lat="47.33999" lon="-1.25636">
        <ele>69.1</ele>
        <time>2011-10-02T09:35:39Z</time>
      </trkpt>
      <trkpt lat="47.33998" lon="-1.25625">
        <ele>69.4</ele>
        <time>2011-10-02T09:35:40Z</time>
      </trkpt>
      <trkpt lat="47.33997" lon="-1.25614">
        <ele>69.3</ele>
        <time>2011-10-02T09:35:41Z</time>
      </trkpt>
      <trkpt lat="47.33995" lon="-1.25604">
        <ele>69</ele>
        <time>2011-10-02T09:35:42Z</time>
      </trkpt>
      <trkpt lat="47.33995" lon="-1.25595">
        <ele>69.5</ele>
        <time>2011-10-02T09:35:43Z</time>
      </trkpt>
      <trkpt lat="47.33995" lon="-1.25587">
        <ele>69.2</ele>
        <time>2011-10-02T09:35:44Z</time>
      </trkpt>
      <trkpt lat="47.33994" lon="-1.25577">
        <ele>68.7</ele>
        <time>2011-10-02T09:35:45Z</time>
      </trkpt>
      <trkpt lat="47.33995" lon="-1.25568">
        <ele>68.6</ele>
        <time>2011-10-02T09:35:46Z</time>
      </trkpt>
      <trkpt lat="47.33995" lon="-1.25559">
        <ele>67.7</ele>
        <time>2011-10-02T09:35:47Z</time>
      </trkpt>
      <trkpt lat="47.33995" lon="-1.2555">
        <ele>68.2</ele>
        <time>2011-10-02T09:35:48Z</time>
      </trkpt>
      <trkpt lat="47.33996" lon="-1.25532">
        <ele>70.3</ele>
        <time>2011-10-02T09:35:49Z</time>
      </trkpt>
      <trkpt lat="47.33996" lon="-1.25524">
        <ele>70</ele>
        <time>2011-10-02T09:35:50Z</time>
      </trkpt>
      <trkpt lat="47.33996" lon="-1.25513">
        <ele>70.4</ele>
        <time>2011-10-02T09:35:51Z</time>
      </trkpt>
      <trkpt lat="47.34" lon="-1.25506">
        <ele>70.3</ele>
        <time>2011-10-02T09:35:52Z</time>
      </trkpt>
      <trkpt lat="47.33998" lon="-1.25499">
        <ele>70.1</ele>
        <time>2011-10-02T09:35:53Z</time>
      </trkpt>
      <trkpt lat="47.33987" lon="-1.25492">
        <ele>68.9</ele>
        <time>2011-10-02T09:35:56Z</time>
      </trkpt>
      <trkpt lat="47.33977" lon="-1.25486">
        <ele>67.2</ele>
        <time>2011-10-02T09:35:59Z</time>
      </trkpt>
      <trkpt lat="47.33972" lon="-1.25482">
        <ele>66.3</ele>
        <time>2011-10-02T09:36:01Z</time>
      </trkpt>
      <trkpt lat="47.33967" lon="-1.2547">
        <ele>65.5</ele>
        <time>2011-10-02T09:36:03Z</time>
      </trkpt>
      <trkpt lat="47.33961" lon="-1.25463">
        <ele>64.9</ele>
        <time>2011-10-02T09:36:06Z</time>
      </trkpt>
      <trkpt lat="47.33962" lon="-1.25454">
        <ele>65.4</ele>
        <time>2011-10-02T09:36:09Z</time>
      </trkpt>
      <trkpt lat="47.33962" lon="-1.25446">
        <ele>66.3</ele>
        <time>2011-10-02T09:36:13Z</time>
      </trkpt>
      <trkpt lat="47.33968" lon="-1.2544">
        <ele>67.7</ele>
        <time>2011-10-02T09:36:16Z</time>
      </trkpt>
      <trkpt lat="47.33969" lon="-1.25432">
        <ele>66.8</ele>
        <time>2011-10-02T09:36:18Z</time>
      </trkpt>
      <trkpt lat="47.33975" lon="-1.25428">
        <ele>67.1</ele>
        <time>2011-10-02T09:36:20Z</time>
      </trkpt>
      <trkpt lat="47.33978" lon="-1.25422">
        <ele>68.5</ele>
        <time>2011-10-02T09:36:23Z</time>
      </trkpt>
      <trkpt lat="47.33982" lon="-1.25418">
        <ele>68.1</ele>
        <time>2011-10-02T09:36:26Z</time>
      </trkpt>
      <trkpt lat="47.33983" lon="-1.2541">
        <ele>68.5</ele>
        <time>2011-10-02T09:36:29Z</time>
      </trkpt>
      <trkpt lat="47.33982" lon="-1.25403">
        <ele>68.9</ele>
        <time>2011-10-02T09:36:33Z</time>
      </trkpt>
      <trkpt lat="47.33979" lon="-1.25398">
        <ele>70.7</ele>
        <time>2011-10-02T09:36:41Z</time>
      </trkpt>
      <trkpt lat="47.33973" lon="-1.25398">
        <ele>69.1</ele>
        <time>2011-10-02T09:36:43Z</time>
      </trkpt>
      <trkpt lat="47.3397" lon="-1.25391">
        <ele>69.4</ele>
        <time>2011-10-02T09:36:48Z</time>
      </trkpt>
      <trkpt lat="47.33967" lon="-1.25386">
        <ele>69.9</ele>
        <time>2011-10-02T09:36:52Z</time>
      </trkpt>
      <trkpt lat="47.33968" lon="-1.25379">
        <ele>69.2</ele>
        <time>2011-10-02T09:36:55Z</time>
      </trkpt>
      <trkpt lat="47.33965" lon="-1.25372">
        <ele>69.9</ele>
        <time>2011-10-02T09:36:59Z</time>
      </trkpt>
      <trkpt lat="47.33965" lon="-1.25372">
        <ele>69.9</ele>
        <time>2011-10-02T09:36:59Z</time>
      </trkpt>
      <trkpt lat="47.33965" lon="-1.25372">
        <ele>69.9</ele>
        <time>2011-10-02T09:37:00Z</time>
      </trkpt>
      <trkpt lat="47.33962" lon="-1.25366">
        <ele>68.4</ele>
        <time>2011-10-02T09:37:06Z</time>
      </trkpt>
      <trkpt lat="47.33957" lon="-1.25365">
        <ele>68.5</ele>
        <time>2011-10-02T09:37:09Z</time>
      </trkpt>
      <trkpt lat="47.33952" lon="-1.25365">
        <ele>68.8</ele>
        <time>2011-10-02T09:37:12Z</time>
      </trkpt>
      <trkpt lat="47.33946" lon="-1.25366">
        <ele>68.7</ele>
        <time>2011-10-02T09:37:15Z</time>
      </trkpt>
      <trkpt lat="47.3394" lon="-1.25365">
        <ele>68.7</ele>
        <time>2011-10-02T09:37:18Z</time>
      </trkpt>
      <trkpt lat="47.33935" lon="-1.25364">
        <ele>68.7</ele>
        <time>2011-10-02T09:37:22Z</time>
      </trkpt>
      <trkpt lat="47.33931" lon="-1.25366">
        <ele>70.4</ele>
        <time>2011-10-02T09:37:26Z</time>
      </trkpt>
      <trkpt lat="47.33922" lon="-1.25365">
        <ele>71.6</ele>
        <time>2011-10-02T09:37:31Z</time>
      </trkpt>
      <trkpt lat="47.33916" lon="-1.25366">
        <ele>70.5</ele>
        <time>2011-10-02T09:37:34Z</time>
      </trkpt>
      <trkpt lat="47.33911" lon="-1.25363">
        <ele>70.4</ele>
        <time>2011-10-02T09:37:35Z</time>
      </trkpt>
      <trkpt lat="47.33905" lon="-1.25361">
        <ele>72.1</ele>
        <time>2011-10-02T09:37:36Z</time>
      </trkpt>
      <trkpt lat="47.33901" lon="-1.25356">
        <ele>72.9</ele>
        <time>2011-10-02T09:37:38Z</time>
      </trkpt>
      <trkpt lat="47.33898" lon="-1.25348">
        <ele>74.7</ele>
        <time>2011-10-02T09:37:42Z</time>
      </trkpt>
      <trkpt lat="47.33896" lon="-1.25338">
        <ele>75.8</ele>
        <time>2011-10-02T09:37:45Z</time>
      </trkpt>
      <trkpt lat="47.33896" lon="-1.2533">
        <ele>77.7</ele>
        <time>2011-10-02T09:37:47Z</time>
      </trkpt>
      <trkpt lat="47.33896" lon="-1.2532">
        <ele>80.5</ele>
        <time>2011-10-02T09:37:50Z</time>
      </trkpt>
      <trkpt lat="47.33893" lon="-1.25304">
        <ele>82.4</ele>
        <time>2011-10-02T09:37:54Z</time>
      </trkpt>
      <trkpt lat="47.33889" lon="-1.25293">
        <ele>82</ele>
        <time>2011-10-02T09:37:55Z</time>
      </trkpt>
      <trkpt lat="47.33885" lon="-1.25283">
        <ele>84.9</ele>
        <time>2011-10-02T09:37:57Z</time>
      </trkpt>
      <trkpt lat="47.33886" lon="-1.25274">
        <ele>84.6</ele>
        <time>2011-10-02T09:38:00Z</time>
      </trkpt>
      <trkpt lat="47.33886" lon="-1.25267">
        <ele>84.2</ele>
        <time>2011-10-02T09:38:01Z</time>
      </trkpt>
      <trkpt lat="47.33889" lon="-1.25258">
        <ele>84.6</ele>
        <time>2011-10-02T09:38:02Z</time>
      </trkpt>
      <trkpt lat="47.33887" lon="-1.25245">
        <ele>84.8</ele>
        <time>2011-10-02T09:38:04Z</time>
      </trkpt>
      <trkpt lat="47.33889" lon="-1.25239">
        <ele>84.9</ele>
        <time>2011-10-02T09:38:05Z</time>
      </trkpt>
      <trkpt lat="47.33889" lon="-1.25228">
        <ele>85.3</ele>
        <time>2011-10-02T09:38:07Z</time>
      </trkpt>
      <trkpt lat="47.3389" lon="-1.2522">
        <ele>84.4</ele>
        <time>2011-10-02T09:38:08Z</time>
      </trkpt>
      <trkpt lat="47.3389" lon="-1.2521">
        <ele>84.2</ele>
        <time>2011-10-02T09:38:09Z</time>
      </trkpt>
      <trkpt lat="47.3389" lon="-1.252">
        <ele>83.5</ele>
        <time>2011-10-02T09:38:10Z</time>
      </trkpt>
      <trkpt lat="47.33888" lon="-1.2519">
        <ele>83</ele>
        <time>2011-10-02T09:38:11Z</time>
      </trkpt>
      <trkpt lat="47.3389" lon="-1.25182">
        <ele>82.1</ele>
        <time>2011-10-02T09:38:12Z</time>
      </trkpt>
      <trkpt lat="47.33892" lon="-1.25174">
        <ele>81.5</ele>
        <time>2011-10-02T09:38:14Z</time>
      </trkpt>
      <trkpt lat="47.33893" lon="-1.25165">
        <ele>80.7</ele>
        <time>2011-10-02T09:38:16Z</time>
      </trkpt>
      <trkpt lat="47.33886" lon="-1.25164">
        <ele>78.3</ele>
        <time>2011-10-02T09:38:22Z</time>
      </trkpt>
      <trkpt lat="47.33881" lon="-1.25166">
        <ele>79.4</ele>
        <time>2011-10-02T09:38:24Z</time>
      </trkpt>
      <trkpt lat="47.33876" lon="-1.25165">
        <ele>78.8</ele>
        <time>2011-10-02T09:38:26Z</time>
      </trkpt>
      <trkpt lat="47.3387" lon="-1.25166">
        <ele>79.8</ele>
        <time>2011-10-02T09:38:29Z</time>
      </trkpt>
      <trkpt lat="47.33865" lon="-1.25164">
        <ele>80.2</ele>
        <time>2011-10-02T09:38:31Z</time>
      </trkpt>
      <trkpt lat="47.3386" lon="-1.25165">
        <ele>81</ele>
        <time>2011-10-02T09:38:34Z</time>
      </trkpt>
      <trkpt lat="47.33854" lon="-1.25167">
        <ele>81.7</ele>
        <time>2011-10-02T09:38:37Z</time>
      </trkpt>
      <trkpt lat="47.33849" lon="-1.25165">
        <ele>83.5</ele>
        <time>2011-10-02T09:38:42Z</time>
      </trkpt>
      <trkpt lat="47.33844" lon="-1.25166">
        <ele>84.7</ele>
        <time>2011-10-02T09:39:10Z</time>
      </trkpt>
      <trkpt lat="47.33838" lon="-1.25167">
        <ele>85.2</ele>
        <time>2011-10-02T09:39:11Z</time>
      </trkpt>
      <trkpt lat="47.33831" lon="-1.25171">
        <ele>85.3</ele>
        <time>2011-10-02T09:39:13Z</time>
      </trkpt>
      <trkpt lat="47.33825" lon="-1.25171">
        <ele>85.1</ele>
        <time>2011-10-02T09:39:14Z</time>
      </trkpt>
      <trkpt lat="47.3382" lon="-1.25172">
        <ele>85.7</ele>
        <time>2011-10-02T09:39:17Z</time>
      </trkpt>
      <trkpt lat="47.33815" lon="-1.25172">
        <ele>86.8</ele>
        <time>2011-10-02T09:39:20Z</time>
      </trkpt>
      <trkpt lat="47.33811" lon="-1.25176">
        <ele>87.9</ele>
        <time>2011-10-02T09:39:30Z</time>
      </trkpt>
      <trkpt lat="47.33802" lon="-1.25175">
        <ele>89.7</ele>
        <time>2011-10-02T09:39:37Z</time>
      </trkpt>
      <trkpt lat="47.33797" lon="-1.25177">
        <ele>90.9</ele>
        <time>2011-10-02T09:39:40Z</time>
      </trkpt>
      <trkpt lat="47.33793" lon="-1.25181">
        <ele>92.4</ele>
        <time>2011-10-02T09:39:45Z</time>
      </trkpt>
      <trkpt lat="47.33794" lon="-1.25187">
        <ele>94</ele>
        <time>2011-10-02T09:39:53Z</time>
      </trkpt>
      <trkpt lat="47.3379" lon="-1.25194">
        <ele>94.4</ele>
        <time>2011-10-02T09:39:59Z</time>
      </trkpt>
      <trkpt lat="47.33789" lon="-1.25202">
        <ele>95</ele>
        <time>2011-10-02T09:40:02Z</time>
      </trkpt>
      <trkpt lat="47.33788" lon="-1.25209">
        <ele>96.9</ele>
        <time>2011-10-02T09:40:07Z</time>
      </trkpt>
      <trkpt lat="47.33787" lon="-1.25219">
        <ele>94.9</ele>
        <time>2011-10-02T09:40:12Z</time>
      </trkpt>
      <trkpt lat="47.33786" lon="-1.25226">
        <ele>97.5</ele>
        <time>2011-10-02T09:40:17Z</time>
      </trkpt>
      <trkpt lat="47.33784" lon="-1.25232">
        <ele>101.6</ele>
        <time>2011-10-02T09:40:22Z</time>
      </trkpt>
      <trkpt lat="47.33782" lon="-1.25239">
        <ele>104.8</ele>
        <time>2011-10-02T09:40:31Z</time>
      </trkpt>
      <trkpt lat="47.3378" lon="-1.25246">
        <ele>105.9</ele>
        <time>2011-10-02T09:40:35Z</time>
      </trkpt>
      <trkpt lat="47.33779" lon="-1.25253">
        <ele>106.3</ele>
        <time>2011-10-02T09:40:40Z</time>
      </trkpt>
      <trkpt lat="47.33779" lon="-1.2526">
        <ele>106.3</ele>
        <time>2011-10-02T09:40:45Z</time>
      </trkpt>
      <trkpt lat="47.33776" lon="-1.25266">
        <ele>106.2</ele>
        <time>2011-10-02T09:40:49Z</time>
      </trkpt>
      <trkpt lat="47.33773" lon="-1.25272">
        <ele>107</ele>
        <time>2011-10-02T09:40:53Z</time>
      </trkpt>
      <trkpt lat="47.33768" lon="-1.25274">
        <ele>108.8</ele>
        <time>2011-10-02T09:41:09Z</time>
      </trkpt>
      <trkpt lat="47.33763" lon="-1.25274">
        <ele>108.5</ele>
        <time>2011-10-02T09:41:14Z</time>
      </trkpt>
      <trkpt lat="47.33756" lon="-1.25273">
        <ele>109.4</ele>
        <time>2011-10-02T09:41:16Z</time>
      </trkpt>
      <trkpt lat="47.3375" lon="-1.25274">
        <ele>109.9</ele>
        <time>2011-10-02T09:41:18Z</time>
      </trkpt>
      <trkpt lat="47.33744" lon="-1.25273">
        <ele>109.9</ele>
        <time>2011-10-02T09:41:19Z</time>
      </trkpt>
      <trkpt lat="47.3374" lon="-1.25276">
        <ele>111.8</ele>
        <time>2011-10-02T09:41:22Z</time>
      </trkpt>
      <trkpt lat="47.33736" lon="-1.25272">
        <ele>112.5</ele>
        <time>2011-10-02T09:41:24Z</time>
      </trkpt>
      <trkpt lat="47.33728" lon="-1.25268">
        <ele>112.4</ele>
        <time>2011-10-02T09:41:26Z</time>
      </trkpt>
      <trkpt lat="47.33724" lon="-1.25268">
        <ele>112.4</ele>
        <time>2011-10-02T09:41:27Z</time>
      </trkpt>
      <trkpt lat="47.33719" lon="-1.25266">
        <ele>112.6</ele>
        <time>2011-10-02T09:41:29Z</time>
      </trkpt>
      <trkpt lat="47.33713" lon="-1.25266">
        <ele>116.2</ele>
        <time>2011-10-02T09:41:31Z</time>
      </trkpt>
      <trkpt lat="47.33709" lon="-1.25263">
        <ele>116</ele>
        <time>2011-10-02T09:41:32Z</time>
      </trkpt>
      <trkpt lat="47.33703" lon="-1.25264">
        <ele>117.1</ele>
        <time>2011-10-02T09:41:35Z</time>
      </trkpt>
      <trkpt lat="47.33697" lon="-1.25268">
        <ele>117.5</ele>
        <time>2011-10-02T09:41:38Z</time>
      </trkpt>
      <trkpt lat="47.33697" lon="-1.25279">
        <ele>118.5</ele>
        <time>2011-10-02T09:41:40Z</time>
      </trkpt>
      <trkpt lat="47.33694" lon="-1.25284">
        <ele>117.9</ele>
        <time>2011-10-02T09:41:41Z</time>
      </trkpt>
      <trkpt lat="47.33691" lon="-1.25291">
        <ele>119.6</ele>
        <time>2011-10-02T09:41:44Z</time>
      </trkpt>
      <trkpt lat="47.33688" lon="-1.25301">
        <ele>118.1</ele>
        <time>2011-10-02T09:41:47Z</time>
      </trkpt>
      <trkpt lat="47.3369" lon="-1.25309">
        <ele>118.5</ele>
        <time>2011-10-02T09:41:50Z</time>
      </trkpt>
      <trkpt lat="47.33691" lon="-1.25317">
        <ele>118.4</ele>
        <time>2011-10-02T09:41:52Z</time>
      </trkpt>
      <trkpt lat="47.33693" lon="-1.2533">
        <ele>118.8</ele>
        <time>2011-10-02T09:41:55Z</time>
      </trkpt>
      <trkpt lat="47.33693" lon="-1.25337">
        <ele>117.7</ele>
        <time>2011-10-02T09:41:57Z</time>
      </trkpt>
      <trkpt lat="47.33693" lon="-1.25351">
        <ele>116.9</ele>
        <time>2011-10-02T09:41:59Z</time>
      </trkpt>
      <trkpt lat="47.33688" lon="-1.25357">
        <ele>118.2</ele>
        <time>2011-10-02T09:42:01Z</time>
      </trkpt>
      <trkpt lat="47.33683" lon="-1.25363">
        <ele>117.6</ele>
        <time>2011-10-02T09:42:04Z</time>
      </trkpt>
      <trkpt lat="47.33676" lon="-1.25369">
        <ele>117.9</ele>
        <time>2011-10-02T09:42:06Z</time>
      </trkpt>
      <trkpt lat="47.33666" lon="-1.25371">
        <ele>116.6</ele>
        <time>2011-10-02T09:42:08Z</time>
      </trkpt>
      <trkpt lat="47.33657" lon="-1.25374">
        <ele>117.2</ele>
        <time>2011-10-02T09:42:10Z</time>
      </trkpt>
      <trkpt lat="47.33651" lon="-1.25376">
        <ele>118.4</ele>
        <time>2011-10-02T09:42:13Z</time>
      </trkpt>
      <trkpt lat="47.33645" lon="-1.25375">
        <ele>117.6</ele>
        <time>2011-10-02T09:42:14Z</time>
      </trkpt>
      <trkpt lat="47.33635" lon="-1.25375">
        <ele>117.1</ele>
        <time>2011-10-02T09:42:15Z</time>
      </trkpt>
      <trkpt lat="47.3363" lon="-1.25375">
        <ele>116</ele>
        <time>2011-10-02T09:42:17Z</time>
      </trkpt>
      <trkpt lat="47.33625" lon="-1.25373">
        <ele>115.5</ele>
        <time>2011-10-02T09:42:20Z</time>
      </trkpt>
      <trkpt lat="47.33618" lon="-1.25376">
        <ele>116.6</ele>
        <time>2011-10-02T09:42:21Z</time>
      </trkpt>
      <trkpt lat="47.33609" lon="-1.25375">
        <ele>117.5</ele>
        <time>2011-10-02T09:42:23Z</time>
      </trkpt>
      <trkpt lat="47.33599" lon="-1.25374">
        <ele>117.5</ele>
        <time>2011-10-02T09:42:25Z</time>
      </trkpt>
      <trkpt lat="47.33595" lon="-1.25379">
        <ele>117.8</ele>
        <time>2011-10-02T09:42:27Z</time>
      </trkpt>
      <trkpt lat="47.33587" lon="-1.25382">
        <ele>116.6</ele>
        <time>2011-10-02T09:42:29Z</time>
      </trkpt>
      <trkpt lat="47.33576" lon="-1.25381">
        <ele>114.3</ele>
        <time>2011-10-02T09:42:32Z</time>
      </trkpt>
      <trkpt lat="47.3357" lon="-1.25384">
        <ele>113.2</ele>
        <time>2011-10-02T09:42:33Z</time>
      </trkpt>
      <trkpt lat="47.33564" lon="-1.25381">
        <ele>113.7</ele>
        <time>2011-10-02T09:42:36Z</time>
      </trkpt>
      <trkpt lat="47.33557" lon="-1.25387">
        <ele>113</ele>
        <time>2011-10-02T09:42:40Z</time>
      </trkpt>
      <trkpt lat="47.33551" lon="-1.25389">
        <ele>113</ele>
        <time>2011-10-02T09:42:45Z</time>
      </trkpt>
      <trkpt lat="47.33543" lon="-1.25385">
        <ele>112</ele>
        <time>2011-10-02T09:42:47Z</time>
      </trkpt>
      <trkpt lat="47.3354" lon="-1.25378">
        <ele>111.1</ele>
        <time>2011-10-02T09:42:48Z</time>
      </trkpt>
      <trkpt lat="47.33538" lon="-1.25369">
        <ele>109.7</ele>
        <time>2011-10-02T09:42:50Z</time>
      </trkpt>
      <trkpt lat="47.33534" lon="-1.25365">
        <ele>111.2</ele>
        <time>2011-10-02T09:42:53Z</time>
      </trkpt>
      <trkpt lat="47.33534" lon="-1.25356">
        <ele>111.7</ele>
        <time>2011-10-02T09:42:54Z</time>
      </trkpt>
      <trkpt lat="47.33532" lon="-1.25345">
        <ele>112.5</ele>
        <time>2011-10-02T09:42:56Z</time>
      </trkpt>
      <trkpt lat="47.33528" lon="-1.25336">
        <ele>112.3</ele>
        <time>2011-10-02T09:42:58Z</time>
      </trkpt>
      <trkpt lat="47.33524" lon="-1.25327">
        <ele>113.7</ele>
        <time>2011-10-02T09:42:59Z</time>
      </trkpt>
      <trkpt lat="47.33521" lon="-1.25316">
        <ele>115</ele>
        <time>2011-10-02T09:43:01Z</time>
      </trkpt>
      <trkpt lat="47.33517" lon="-1.25306">
        <ele>115.4</ele>
        <time>2011-10-02T09:43:03Z</time>
      </trkpt>
      <trkpt lat="47.3351" lon="-1.25294">
        <ele>115.5</ele>
        <time>2011-10-02T09:43:05Z</time>
      </trkpt>
      <trkpt lat="47.33504" lon="-1.25283">
        <ele>116.7</ele>
        <time>2011-10-02T09:43:07Z</time>
      </trkpt>
      <trkpt lat="47.33499" lon="-1.25275">
        <ele>117.2</ele>
        <time>2011-10-02T09:43:08Z</time>
      </trkpt>
      <trkpt lat="47.33494" lon="-1.25268">
        <ele>116.8</ele>
        <time>2011-10-02T09:43:09Z</time>
      </trkpt>
      <trkpt lat="47.3349" lon="-1.25259">
        <ele>116.5</ele>
        <time>2011-10-02T09:43:10Z</time>
      </trkpt>
      <trkpt lat="47.33486" lon="-1.25257">
        <ele>116.2</ele>
        <time>2011-10-02T09:43:11Z</time>
      </trkpt>
      <trkpt lat="47.33482" lon="-1.25253">
        <ele>116.8</ele>
        <time>2011-10-02T09:43:12Z</time>
      </trkpt>
      <trkpt lat="47.33477" lon="-1.25245">
        <ele>116.3</ele>
        <time>2011-10-02T09:43:13Z</time>
      </trkpt>
      <trkpt lat="47.33473" lon="-1.25238">
        <ele>118.1</ele>
        <time>2011-10-02T09:43:14Z</time>
      </trkpt>
      <trkpt lat="47.33469" lon="-1.25231">
        <ele>117.4</ele>
        <time>2011-10-02T09:43:15Z</time>
      </trkpt>
      <trkpt lat="47.33463" lon="-1.25226">
        <ele>117.6</ele>
        <time>2011-10-02T09:43:16Z</time>
      </trkpt>
      <trkpt lat="47.33457" lon="-1.25215">
        <ele>117.4</ele>
        <time>2011-10-02T09:43:18Z</time>
      </trkpt>
      <trkpt lat="47.33452" lon="-1.25209">
        <ele>117.3</ele>
        <time>2011-10-02T09:43:19Z</time>
      </trkpt>
      <trkpt lat="47.3345" lon="-1.252">
        <ele>116.5</ele>
        <time>2011-10-02T09:43:20Z</time>
      </trkpt>
      <trkpt lat="47.33442" lon="-1.25189">
        <ele>116.3</ele>
        <time>2011-10-02T09:43:22Z</time>
      </trkpt>
      <trkpt lat="47.33434" lon="-1.25184">
        <ele>115.8</ele>
        <time>2011-10-02T09:43:23Z</time>
      </trkpt>
      <trkpt lat="47.3343" lon="-1.25176">
        <ele>116.5</ele>
        <time>2011-10-02T09:43:24Z</time>
      </trkpt>
      <trkpt lat="47.33416" lon="-1.2516">
        <ele>113.7</ele>
        <time>2011-10-02T09:43:25Z</time>
      </trkpt>
      <trkpt lat="47.3341" lon="-1.2515">
        <ele>112.8</ele>
        <time>2011-10-02T09:43:26Z</time>
      </trkpt>
      <trkpt lat="47.33404" lon="-1.25141">
        <ele>112.7</ele>
        <time>2011-10-02T09:43:27Z</time>
      </trkpt>
      <trkpt lat="47.33397" lon="-1.25131">
        <ele>111.7</ele>
        <time>2011-10-02T09:43:29Z</time>
      </trkpt>
      <trkpt lat="47.33395" lon="-1.25115">
        <ele>110.4</ele>
        <time>2011-10-02T09:43:30Z</time>
      </trkpt>
      <trkpt lat="47.33387" lon="-1.25102">
        <ele>109.7</ele>
        <time>2011-10-02T09:43:32Z</time>
      </trkpt>
      <trkpt lat="47.33382" lon="-1.25096">
        <ele>110.2</ele>
        <time>2011-10-02T09:43:33Z</time>
      </trkpt>
      <trkpt lat="47.33379" lon="-1.25091">
        <ele>111.1</ele>
        <time>2011-10-02T09:43:34Z</time>
      </trkpt>
      <trkpt lat="47.33375" lon="-1.25085">
        <ele>111</ele>
        <time>2011-10-02T09:43:35Z</time>
      </trkpt>
      <trkpt lat="47.3337" lon="-1.25078">
        <ele>111.1</ele>
        <time>2011-10-02T09:43:36Z</time>
      </trkpt>
      <trkpt lat="47.33368" lon="-1.25072">
        <ele>111</ele>
        <time>2011-10-02T09:43:37Z</time>
      </trkpt>
      <trkpt lat="47.33365" lon="-1.25066">
        <ele>111.5</ele>
        <time>2011-10-02T09:43:38Z</time>
      </trkpt>
      <trkpt lat="47.33361" lon="-1.25054">
        <ele>112.1</ele>
        <time>2011-10-02T09:43:40Z</time>
      </trkpt>
      <trkpt lat="47.33358" lon="-1.25048">
        <ele>112.3</ele>
        <time>2011-10-02T09:43:41Z</time>
      </trkpt>
      <trkpt lat="47.33357" lon="-1.25041">
        <ele>112.3</ele>
        <time>2011-10-02T09:43:42Z</time>
      </trkpt>
      <trkpt lat="47.33355" lon="-1.25034">
        <ele>112.1</ele>
        <time>2011-10-02T09:43:43Z</time>
      </trkpt>
      <trkpt lat="47.33354" lon="-1.25026">
        <ele>112.7</ele>
        <time>2011-10-02T09:43:44Z</time>
      </trkpt>
      <trkpt lat="47.33353" lon="-1.25017">
        <ele>113</ele>
        <time>2011-10-02T09:43:45Z</time>
      </trkpt>
      <trkpt lat="47.33351" lon="-1.25008">
        <ele>112.9</ele>
        <time>2011-10-02T09:43:46Z</time>
      </trkpt>
      <trkpt lat="47.33351" lon="-1.24997">
        <ele>114</ele>
        <time>2011-10-02T09:43:47Z</time>
      </trkpt>
      <trkpt lat="47.3335" lon="-1.24989">
        <ele>114.1</ele>
        <time>2011-10-02T09:43:48Z</time>
      </trkpt>
      <trkpt lat="47.3335" lon="-1.24981">
        <ele>114.9</ele>
        <time>2011-10-02T09:43:49Z</time>
      </trkpt>
      <trkpt lat="47.33347" lon="-1.24972">
        <ele>115.7</ele>
        <time>2011-10-02T09:43:50Z</time>
      </trkpt>
      <trkpt lat="47.33348" lon="-1.24963">
        <ele>117</ele>
        <time>2011-10-02T09:43:51Z</time>
      </trkpt>
      <trkpt lat="47.33346" lon="-1.24954">
        <ele>117.8</ele>
        <time>2011-10-02T09:43:52Z</time>
      </trkpt>
      <trkpt lat="47.33345" lon="-1.24945">
        <ele>118.7</ele>
        <time>2011-10-02T09:43:53Z</time>
      </trkpt>
      <trkpt lat="47.33347" lon="-1.24935">
        <ele>118.6</ele>
        <time>2011-10-02T09:43:54Z</time>
      </trkpt>
      <trkpt lat="47.33351" lon="-1.24928">
        <ele>118.6</ele>
        <time>2011-10-02T09:43:55Z</time>
      </trkpt>
      <trkpt lat="47.33356" lon="-1.24919">
        <ele>119.2</ele>
        <time>2011-10-02T09:43:56Z</time>
      </trkpt>
      <trkpt lat="47.33359" lon="-1.24913">
        <ele>119.1</ele>
        <time>2011-10-02T09:43:58Z</time>
      </trkpt>
      <trkpt lat="47.33371" lon="-1.24907">
        <ele>119.5</ele>
        <time>2011-10-02T09:44:00Z</time>
      </trkpt>
      <trkpt lat="47.33381" lon="-1.24903">
        <ele>119.3</ele>
        <time>2011-10-02T09:44:01Z</time>
      </trkpt>
      <trkpt lat="47.33386" lon="-1.24899">
        <ele>118.6</ele>
        <time>2011-10-02T09:44:02Z</time>
      </trkpt>
      <trkpt lat="47.33404" lon="-1.24894">
        <ele>117.4</ele>
        <time>2011-10-02T09:44:04Z</time>
      </trkpt>
      <trkpt lat="47.33412" lon="-1.24892">
        <ele>116.7</ele>
        <time>2011-10-02T09:44:05Z</time>
      </trkpt>
      <trkpt lat="47.33424" lon="-1.24892">
        <ele>115.3</ele>
        <time>2011-10-02T09:44:06Z</time>
      </trkpt>
      <trkpt lat="47.3344" lon="-1.24893">
        <ele>115.9</ele>
        <time>2011-10-02T09:44:07Z</time>
      </trkpt>
      <trkpt lat="47.33453" lon="-1.24893">
        <ele>114.9</ele>
        <time>2011-10-02T09:44:09Z</time>
      </trkpt>
      <trkpt lat="47.33463" lon="-1.24894">
        <ele>114.5</ele>
        <time>2011-10-02T09:44:10Z</time>
      </trkpt>
      <trkpt lat="47.3347" lon="-1.24897">
        <ele>113.4</ele>
        <time>2011-10-02T09:44:11Z</time>
      </trkpt>
      <trkpt lat="47.33479" lon="-1.24899">
        <ele>113.1</ele>
        <time>2011-10-02T09:44:12Z</time>
      </trkpt>
      <trkpt lat="47.33488" lon="-1.24902">
        <ele>112.6</ele>
        <time>2011-10-02T09:44:13Z</time>
      </trkpt>
      <trkpt lat="47.33502" lon="-1.24907">
        <ele>111.5</ele>
        <time>2011-10-02T09:44:15Z</time>
      </trkpt>
      <trkpt lat="47.33507" lon="-1.24911">
        <ele>111.3</ele>
        <time>2011-10-02T09:44:16Z</time>
      </trkpt>
      <trkpt lat="47.33512" lon="-1.24913">
        <ele>111.7</ele>
        <time>2011-10-02T09:44:17Z</time>
      </trkpt>
      <trkpt lat="47.3352" lon="-1.24916">
        <ele>111.9</ele>
        <time>2011-10-02T09:44:19Z</time>
      </trkpt>
      <trkpt lat="47.33527" lon="-1.24917">
        <ele>112.4</ele>
        <time>2011-10-02T09:44:21Z</time>
      </trkpt>
      <trkpt lat="47.33537" lon="-1.2492">
        <ele>112.8</ele>
        <time>2011-10-02T09:44:28Z</time>
      </trkpt>
      <trkpt lat="47.33547" lon="-1.24921">
        <ele>111.8</ele>
        <time>2011-10-02T09:44:29Z</time>
      </trkpt>
      <trkpt lat="47.33553" lon="-1.24921">
        <ele>111.9</ele>
        <time>2011-10-02T09:44:30Z</time>
      </trkpt>
      <trkpt lat="47.33559" lon="-1.2492">
        <ele>111.9</ele>
        <time>2011-10-02T09:44:31Z</time>
      </trkpt>
      <trkpt lat="47.33566" lon="-1.24918">
        <ele>111.4</ele>
        <time>2011-10-02T09:44:32Z</time>
      </trkpt>
      <trkpt lat="47.33573" lon="-1.24916">
        <ele>111.3</ele>
        <time>2011-10-02T09:44:33Z</time>
      </trkpt>
      <trkpt lat="47.3358" lon="-1.24914">
        <ele>110.9</ele>
        <time>2011-10-02T09:44:34Z</time>
      </trkpt>
      <trkpt lat="47.33586" lon="-1.24912">
        <ele>110.5</ele>
        <time>2011-10-02T09:44:35Z</time>
      </trkpt>
      <trkpt lat="47.33593" lon="-1.24911">
        <ele>110.2</ele>
        <time>2011-10-02T09:44:36Z</time>
      </trkpt>
      <trkpt lat="47.33602" lon="-1.24912">
        <ele>110</ele>
        <time>2011-10-02T09:44:37Z</time>
      </trkpt>
      <trkpt lat="47.3361" lon="-1.24914">
        <ele>109.9</ele>
        <time>2011-10-02T09:44:38Z</time>
      </trkpt>
      <trkpt lat="47.33619" lon="-1.24916">
        <ele>109.7</ele>
        <time>2011-10-02T09:44:39Z</time>
      </trkpt>
      <trkpt lat="47.33627" lon="-1.24917">
        <ele>109.3</ele>
        <time>2011-10-02T09:44:40Z</time>
      </trkpt>
      <trkpt lat="47.33636" lon="-1.2492">
        <ele>109.2</ele>
        <time>2011-10-02T09:44:41Z</time>
      </trkpt>
      <trkpt lat="47.33643" lon="-1.24921">
        <ele>108.7</ele>
        <time>2011-10-02T09:44:42Z</time>
      </trkpt>
      <trkpt lat="47.3365" lon="-1.24921">
        <ele>108.4</ele>
        <time>2011-10-02T09:44:43Z</time>
      </trkpt>
      <trkpt lat="47.33657" lon="-1.24921">
        <ele>108.2</ele>
        <time>2011-10-02T09:44:44Z</time>
      </trkpt>
      <trkpt lat="47.33664" lon="-1.24921">
        <ele>108</ele>
        <time>2011-10-02T09:44:45Z</time>
      </trkpt>
      <trkpt lat="47.3367" lon="-1.24918">
        <ele>108</ele>
        <time>2011-10-02T09:44:46Z</time>
      </trkpt>
      <trkpt lat="47.33678" lon="-1.24916">
        <ele>107.7</ele>
        <time>2011-10-02T09:44:47Z</time>
      </trkpt>
      <trkpt lat="47.33686" lon="-1.24916">
        <ele>107.1</ele>
        <time>2011-10-02T09:44:48Z</time>
      </trkpt>
      <trkpt lat="47.33694" lon="-1.24915">
        <ele>107</ele>
        <time>2011-10-02T09:44:49Z</time>
      </trkpt>
      <trkpt lat="47.33702" lon="-1.24913">
        <ele>107.3</ele>
        <time>2011-10-02T09:44:50Z</time>
      </trkpt>
      <trkpt lat="47.33711" lon="-1.24913">
        <ele>106.9</ele>
        <time>2011-10-02T09:44:51Z</time>
      </trkpt>
      <trkpt lat="47.33719" lon="-1.24909">
        <ele>107.1</ele>
        <time>2011-10-02T09:44:52Z</time>
      </trkpt>
      <trkpt lat="47.33728" lon="-1.24907">
        <ele>106.3</ele>
        <time>2011-10-02T09:44:53Z</time>
      </trkpt>
      <trkpt lat="47.33735" lon="-1.24906">
        <ele>105.9</ele>
        <time>2011-10-02T09:44:54Z</time>
      </trkpt>
      <trkpt lat="47.33742" lon="-1.24904">
        <ele>105.2</ele>
        <time>2011-10-02T09:44:55Z</time>
      </trkpt>
      <trkpt lat="47.33752" lon="-1.24901">
        <ele>104.1</ele>
        <time>2011-10-02T09:44:57Z</time>
      </trkpt>
      <trkpt lat="47.3376" lon="-1.249">
        <ele>103.3</ele>
        <time>2011-10-02T09:44:58Z</time>
      </trkpt>
      <trkpt lat="47.33767" lon="-1.24897">
        <ele>101.6</ele>
        <time>2011-10-02T09:45:00Z</time>
      </trkpt>
      <trkpt lat="47.33775" lon="-1.24889">
        <ele>97</ele>
        <time>2011-10-02T09:45:04Z</time>
      </trkpt>
      <trkpt lat="47.33782" lon="-1.24888">
        <ele>94.4</ele>
        <time>2011-10-02T09:45:05Z</time>
      </trkpt>
      <trkpt lat="47.33788" lon="-1.24893">
        <ele>93.9</ele>
        <time>2011-10-02T09:45:06Z</time>
      </trkpt>
      <trkpt lat="47.33795" lon="-1.24901">
        <ele>92.2</ele>
        <time>2011-10-02T09:45:07Z</time>
      </trkpt>
      <trkpt lat="47.338" lon="-1.2491">
        <ele>91</ele>
        <time>2011-10-02T09:45:08Z</time>
      </trkpt>
      <trkpt lat="47.33811" lon="-1.24927">
        <ele>90.9</ele>
        <time>2011-10-02T09:45:10Z</time>
      </trkpt>
      <trkpt lat="47.33815" lon="-1.2493">
        <ele>90</ele>
        <time>2011-10-02T09:45:11Z</time>
      </trkpt>
      <trkpt lat="47.33825" lon="-1.24932">
        <ele>87.6</ele>
        <time>2011-10-02T09:45:13Z</time>
      </trkpt>
      <trkpt lat="47.33832" lon="-1.24934">
        <ele>86.6</ele>
        <time>2011-10-02T09:45:14Z</time>
      </trkpt>
      <trkpt lat="47.33842" lon="-1.24935">
        <ele>84.4</ele>
        <time>2011-10-02T09:45:16Z</time>
      </trkpt>
      <trkpt lat="47.33848" lon="-1.24937">
        <ele>83.9</ele>
        <time>2011-10-02T09:45:17Z</time>
      </trkpt>
      <trkpt lat="47.33856" lon="-1.24937">
        <ele>84.3</ele>
        <time>2011-10-02T09:45:18Z</time>
      </trkpt>
      <trkpt lat="47.33863" lon="-1.24939">
        <ele>83.5</ele>
        <time>2011-10-02T09:45:19Z</time>
      </trkpt>
      <trkpt lat="47.33873" lon="-1.2494">
        <ele>83.7</ele>
        <time>2011-10-02T09:45:20Z</time>
      </trkpt>
      <trkpt lat="47.33879" lon="-1.24941">
        <ele>82.4</ele>
        <time>2011-10-02T09:45:21Z</time>
      </trkpt>
      <trkpt lat="47.33888" lon="-1.24944">
        <ele>81.5</ele>
        <time>2011-10-02T09:45:22Z</time>
      </trkpt>
      <trkpt lat="47.33895" lon="-1.24942">
        <ele>80.6</ele>
        <time>2011-10-02T09:45:23Z</time>
      </trkpt>
      <trkpt lat="47.339" lon="-1.24938">
        <ele>79.8</ele>
        <time>2011-10-02T09:45:24Z</time>
      </trkpt>
      <trkpt lat="47.33906" lon="-1.24936">
        <ele>79.1</ele>
        <time>2011-10-02T09:45:25Z</time>
      </trkpt>
      <trkpt lat="47.33912" lon="-1.24936">
        <ele>78.1</ele>
        <time>2011-10-02T09:45:26Z</time>
      </trkpt>
      <trkpt lat="47.33916" lon="-1.24932">
        <ele>78</ele>
        <time>2011-10-02T09:45:27Z</time>
      </trkpt>
      <trkpt lat="47.33919" lon="-1.24923">
        <ele>75.3</ele>
        <time>2011-10-02T09:45:29Z</time>
      </trkpt>
      <trkpt lat="47.33924" lon="-1.2492">
        <ele>73.9</ele>
        <time>2011-10-02T09:45:32Z</time>
      </trkpt>
      <trkpt lat="47.3393" lon="-1.24917">
        <ele>73</ele>
        <time>2011-10-02T09:45:34Z</time>
      </trkpt>
      <trkpt lat="47.33934" lon="-1.24915">
        <ele>72.7</ele>
        <time>2011-10-02T09:45:35Z</time>
      </trkpt>
      <trkpt lat="47.3394" lon="-1.24914">
        <ele>71.4</ele>
        <time>2011-10-02T09:45:36Z</time>
      </trkpt>
      <trkpt lat="47.33948" lon="-1.24914">
        <ele>70.9</ele>
        <time>2011-10-02T09:45:38Z</time>
      </trkpt>
      <trkpt lat="47.33955" lon="-1.2491">
        <ele>70.9</ele>
        <time>2011-10-02T09:45:40Z</time>
      </trkpt>
      <trkpt lat="47.33961" lon="-1.24908">
        <ele>69.9</ele>
        <time>2011-10-02T09:45:42Z</time>
      </trkpt>
      <trkpt lat="47.33966" lon="-1.24906">
        <ele>68.9</ele>
        <time>2011-10-02T09:45:44Z</time>
      </trkpt>
      <trkpt lat="47.3397" lon="-1.24902">
        <ele>68.3</ele>
        <time>2011-10-02T09:45:46Z</time>
      </trkpt>
      <trkpt lat="47.33975" lon="-1.249">
        <ele>67.5</ele>
        <time>2011-10-02T09:45:47Z</time>
      </trkpt>
      <trkpt lat="47.33979" lon="-1.24896">
        <ele>66.7</ele>
        <time>2011-10-02T09:45:49Z</time>
      </trkpt>
      <trkpt lat="47.33987" lon="-1.2489">
        <ele>67.2</ele>
        <time>2011-10-02T09:45:51Z</time>
      </trkpt>
      <trkpt lat="47.33992" lon="-1.24884">
        <ele>66.6</ele>
        <time>2011-10-02T09:45:53Z</time>
      </trkpt>
      <trkpt lat="47.33998" lon="-1.24884">
        <ele>66</ele>
        <time>2011-10-02T09:45:54Z</time>
      </trkpt>
      <trkpt lat="47.34008" lon="-1.24876">
        <ele>66.3</ele>
        <time>2011-10-02T09:45:57Z</time>
      </trkpt>
      <trkpt lat="47.34014" lon="-1.24875">
        <ele>65.7</ele>
        <time>2011-10-02T09:45:59Z</time>
      </trkpt>
      <trkpt lat="47.34018" lon="-1.24875">
        <ele>65.2</ele>
        <time>2011-10-02T09:46:02Z</time>
      </trkpt>
      <trkpt lat="47.34026" lon="-1.24868">
        <ele>66.5</ele>
        <time>2011-10-02T09:46:04Z</time>
      </trkpt>
      <trkpt lat="47.34032" lon="-1.24866">
        <ele>66.2</ele>
        <time>2011-10-02T09:46:08Z</time>
      </trkpt>
      <trkpt lat="47.34038" lon="-1.24866">
        <ele>66.4</ele>
        <time>2011-10-02T09:46:11Z</time>
      </trkpt>
      <trkpt lat="47.34042" lon="-1.24862">
        <ele>63.8</ele>
        <time>2011-10-02T09:46:12Z</time>
      </trkpt>
      <trkpt lat="47.34047" lon="-1.24866">
        <ele>64</ele>
        <time>2011-10-02T09:46:16Z</time>
      </trkpt>
      <trkpt lat="47.34052" lon="-1.24871">
        <ele>64.8</ele>
        <time>2011-10-02T09:46:19Z</time>
      </trkpt>
      <trkpt lat="47.34057" lon="-1.24865">
        <ele>64</ele>
        <time>2011-10-02T09:46:23Z</time>
      </trkpt>
      <trkpt lat="47.34061" lon="-1.24858">
        <ele>64.1</ele>
        <time>2011-10-02T09:46:26Z</time>
      </trkpt>
      <trkpt lat="47.34068" lon="-1.24854">
        <ele>63.8</ele>
        <time>2011-10-02T09:46:28Z</time>
      </trkpt>
      <trkpt lat="47.34074" lon="-1.24846">
        <ele>63.3</ele>
        <time>2011-10-02T09:46:30Z</time>
      </trkpt>
      <trkpt lat="47.34084" lon="-1.2484">
        <ele>61</ele>
        <time>2011-10-02T09:46:32Z</time>
      </trkpt>
      <trkpt lat="47.34091" lon="-1.24832">
        <ele>60.5</ele>
        <time>2011-10-02T09:46:34Z</time>
      </trkpt>
      <trkpt lat="47.34097" lon="-1.2483">
        <ele>60.6</ele>
        <time>2011-10-02T09:46:35Z</time>
      </trkpt>
      <trkpt lat="47.34103" lon="-1.24825">
        <ele>58.9</ele>
        <time>2011-10-02T09:46:36Z</time>
      </trkpt>
      <trkpt lat="47.3411" lon="-1.24822">
        <ele>58.4</ele>
        <time>2011-10-02T09:46:38Z</time>
      </trkpt>
      <trkpt lat="47.3412" lon="-1.2482">
        <ele>58.1</ele>
        <time>2011-10-02T09:46:40Z</time>
      </trkpt>
      <trkpt lat="47.34126" lon="-1.24819">
        <ele>58.3</ele>
        <time>2011-10-02T09:46:41Z</time>
      </trkpt>
      <trkpt lat="47.34134" lon="-1.24815">
        <ele>56.8</ele>
        <time>2011-10-02T09:46:43Z</time>
      </trkpt>
      <trkpt lat="47.34141" lon="-1.24812">
        <ele>56.1</ele>
        <time>2011-10-02T09:46:44Z</time>
      </trkpt>
      <trkpt lat="47.3415" lon="-1.24807">
        <ele>55.8</ele>
        <time>2011-10-02T09:46:45Z</time>
      </trkpt>
      <trkpt lat="47.34156" lon="-1.2481">
        <ele>55.4</ele>
        <time>2011-10-02T09:46:47Z</time>
      </trkpt>
      <trkpt lat="47.34161" lon="-1.24813">
        <ele>55.2</ele>
        <time>2011-10-02T09:46:48Z</time>
      </trkpt>
      <trkpt lat="47.34162" lon="-1.24821">
        <ele>54.4</ele>
        <time>2011-10-02T09:46:50Z</time>
      </trkpt>
      <trkpt lat="47.34167" lon="-1.24831">
        <ele>54.1</ele>
        <time>2011-10-02T09:46:52Z</time>
      </trkpt>
      <trkpt lat="47.3417" lon="-1.24837">
        <ele>54.8</ele>
        <time>2011-10-02T09:46:54Z</time>
      </trkpt>
      <trkpt lat="47.34175" lon="-1.24843">
        <ele>54.9</ele>
        <time>2011-10-02T09:46:57Z</time>
      </trkpt>
      <trkpt lat="47.3418" lon="-1.24846">
        <ele>54.9</ele>
        <time>2011-10-02T09:46:59Z</time>
      </trkpt>
      <trkpt lat="47.34184" lon="-1.2485">
        <ele>55.6</ele>
        <time>2011-10-02T09:47:01Z</time>
      </trkpt>
      <trkpt lat="47.3419" lon="-1.24852">
        <ele>52.4</ele>
        <time>2011-10-02T09:47:09Z</time>
      </trkpt>
      <trkpt lat="47.34195" lon="-1.24853">
        <ele>52.6</ele>
        <time>2011-10-02T09:47:11Z</time>
      </trkpt>
      <trkpt lat="47.34199" lon="-1.24846">
        <ele>53.9</ele>
        <time>2011-10-02T09:47:14Z</time>
      </trkpt>
      <trkpt lat="47.34201" lon="-1.2484">
        <ele>54.8</ele>
        <time>2011-10-02T09:47:16Z</time>
      </trkpt>
      <trkpt lat="47.34204" lon="-1.24834">
        <ele>55.9</ele>
        <time>2011-10-02T09:47:18Z</time>
      </trkpt>
      <trkpt lat="47.34206" lon="-1.24827">
        <ele>57.6</ele>
        <time>2011-10-02T09:47:20Z</time>
      </trkpt>
      <trkpt lat="47.34209" lon="-1.24822">
        <ele>58.5</ele>
        <time>2011-10-02T09:47:22Z</time>
      </trkpt>
      <trkpt lat="47.34211" lon="-1.24814">
        <ele>60</ele>
        <time>2011-10-02T09:47:24Z</time>
      </trkpt>
      <trkpt lat="47.34214" lon="-1.24807">
        <ele>60.8</ele>
        <time>2011-10-02T09:47:26Z</time>
      </trkpt>
      <trkpt lat="47.34216" lon="-1.24799">
        <ele>60.9</ele>
        <time>2011-10-02T09:47:28Z</time>
      </trkpt>
      <trkpt lat="47.34219" lon="-1.24792">
        <ele>61.9</ele>
        <time>2011-10-02T09:47:30Z</time>
      </trkpt>
      <trkpt lat="47.34222" lon="-1.24782">
        <ele>62.5</ele>
        <time>2011-10-02T09:47:32Z</time>
      </trkpt>
      <trkpt lat="47.34226" lon="-1.24772">
        <ele>62.8</ele>
        <time>2011-10-02T09:47:34Z</time>
      </trkpt>
      <trkpt lat="47.34229" lon="-1.24763">
        <ele>64.4</ele>
        <time>2011-10-02T09:47:36Z</time>
      </trkpt>
      <trkpt lat="47.34233" lon="-1.24754">
        <ele>65</ele>
        <time>2011-10-02T09:47:38Z</time>
      </trkpt>
      <trkpt lat="47.34234" lon="-1.24742">
        <ele>66.4</ele>
        <time>2011-10-02T09:47:40Z</time>
      </trkpt>
      <trkpt lat="47.34236" lon="-1.24736">
        <ele>67</ele>
        <time>2011-10-02T09:47:41Z</time>
      </trkpt>
      <trkpt lat="47.34238" lon="-1.2473">
        <ele>66.6</ele>
        <time>2011-10-02T09:47:42Z</time>
      </trkpt>
      <trkpt lat="47.34242" lon="-1.24721">
        <ele>64.9</ele>
        <time>2011-10-02T09:47:44Z</time>
      </trkpt>
      <trkpt lat="47.34243" lon="-1.24713">
        <ele>65.3</ele>
        <time>2011-10-02T09:47:46Z</time>
      </trkpt>
      <trkpt lat="47.34246" lon="-1.24705">
        <ele>64.4</ele>
        <time>2011-10-02T09:47:48Z</time>
      </trkpt>
      <trkpt lat="47.3425" lon="-1.24698">
        <ele>64.4</ele>
        <time>2011-10-02T09:47:50Z</time>
      </trkpt>
      <trkpt lat="47.34252" lon="-1.24689">
        <ele>65.1</ele>
        <time>2011-10-02T09:47:52Z</time>
      </trkpt>
      <trkpt lat="47.34255" lon="-1.24682">
        <ele>66.6</ele>
        <time>2011-10-02T09:47:54Z</time>
      </trkpt>
      <trkpt lat="47.34258" lon="-1.24673">
        <ele>68.2</ele>
        <time>2011-10-02T09:47:56Z</time>
      </trkpt>
      <trkpt lat="47.3426" lon="-1.24662">
        <ele>69.4</ele>
        <time>2011-10-02T09:47:58Z</time>
      </trkpt>
      <trkpt lat="47.34264" lon="-1.2465">
        <ele>69.4</ele>
        <time>2011-10-02T09:48:00Z</time>
      </trkpt>
      <trkpt lat="47.34266" lon="-1.24642">
        <ele>67.7</ele>
        <time>2011-10-02T09:48:03Z</time>
      </trkpt>
      <trkpt lat="47.34264" lon="-1.24636">
        <ele>67.4</ele>
        <time>2011-10-02T09:48:05Z</time>
      </trkpt>
      <trkpt lat="47.34268" lon="-1.24628">
        <ele>68.6</ele>
        <time>2011-10-02T09:48:26Z</time>
      </trkpt>
      <trkpt lat="47.34271" lon="-1.24619">
        <ele>69.7</ele>
        <time>2011-10-02T09:48:34Z</time>
      </trkpt>
      <trkpt lat="47.34271" lon="-1.24607">
        <ele>68.3</ele>
        <time>2011-10-02T09:48:36Z</time>
      </trkpt>
      <trkpt lat="47.34273" lon="-1.246">
        <ele>68.2</ele>
        <time>2011-10-02T09:48:37Z</time>
      </trkpt>
      <trkpt lat="47.34276" lon="-1.24588">
        <ele>69.4</ele>
        <time>2011-10-02T09:48:39Z</time>
      </trkpt>
      <trkpt lat="47.34275" lon="-1.24579">
        <ele>69.9</ele>
        <time>2011-10-02T09:48:40Z</time>
      </trkpt>
      <trkpt lat="47.34278" lon="-1.24572">
        <ele>69.8</ele>
        <time>2011-10-02T09:48:41Z</time>
      </trkpt>
      <trkpt lat="47.3428" lon="-1.24562">
        <ele>69.2</ele>
        <time>2011-10-02T09:48:42Z</time>
      </trkpt>
      <trkpt lat="47.34282" lon="-1.24553">
        <ele>68.1</ele>
        <time>2011-10-02T09:48:43Z</time>
      </trkpt>
      <trkpt lat="47.34283" lon="-1.24546">
        <ele>67.9</ele>
        <time>2011-10-02T09:48:44Z</time>
      </trkpt>
      <trkpt lat="47.34283" lon="-1.24538">
        <ele>67.5</ele>
        <time>2011-10-02T09:48:45Z</time>
      </trkpt>
      <trkpt lat="47.34285" lon="-1.24532">
        <ele>67.1</ele>
        <time>2011-10-02T09:48:46Z</time>
      </trkpt>
      <trkpt lat="47.34288" lon="-1.24521">
        <ele>66.1</ele>
        <time>2011-10-02T09:48:47Z</time>
      </trkpt>
      <trkpt lat="47.3429" lon="-1.24512">
        <ele>66.3</ele>
        <time>2011-10-02T09:48:48Z</time>
      </trkpt>
      <trkpt lat="47.34293" lon="-1.24505">
        <ele>66.7</ele>
        <time>2011-10-02T09:48:49Z</time>
      </trkpt>
      <trkpt lat="47.34294" lon="-1.24498">
        <ele>66.7</ele>
        <time>2011-10-02T09:48:50Z</time>
      </trkpt>
      <trkpt lat="47.34296" lon="-1.24491">
        <ele>66.1</ele>
        <time>2011-10-02T09:48:51Z</time>
      </trkpt>
      <trkpt lat="47.34298" lon="-1.24482">
        <ele>66.7</ele>
        <time>2011-10-02T09:48:52Z</time>
      </trkpt>
      <trkpt lat="47.343" lon="-1.24475">
        <ele>66.8</ele>
        <time>2011-10-02T09:48:53Z</time>
      </trkpt>
      <trkpt lat="47.34302" lon="-1.24469">
        <ele>66.7</ele>
        <time>2011-10-02T09:48:54Z</time>
      </trkpt>
      <trkpt lat="47.34304" lon="-1.24462">
        <ele>67.6</ele>
        <time>2011-10-02T09:48:55Z</time>
      </trkpt>
      <trkpt lat="47.34306" lon="-1.24455">
        <ele>67.8</ele>
        <time>2011-10-02T09:48:56Z</time>
      </trkpt>
      <trkpt lat="47.34305" lon="-1.24447">
        <ele>67.5</ele>
        <time>2011-10-02T09:48:57Z</time>
      </trkpt>
      <trkpt lat="47.34309" lon="-1.24442">
        <ele>67.2</ele>
        <time>2011-10-02T09:48:58Z</time>
      </trkpt>
      <trkpt lat="47.3431" lon="-1.24433">
        <ele>66.6</ele>
        <time>2011-10-02T09:48:59Z</time>
      </trkpt>
      <trkpt lat="47.34312" lon="-1.24424">
        <ele>65.8</ele>
        <time>2011-10-02T09:49:00Z</time>
      </trkpt>
      <trkpt lat="47.34315" lon="-1.24415">
        <ele>65.4</ele>
        <time>2011-10-02T09:49:01Z</time>
      </trkpt>
      <trkpt lat="47.34318" lon="-1.24408">
        <ele>65.6</ele>
        <time>2011-10-02T09:49:02Z</time>
      </trkpt>
      <trkpt lat="47.34322" lon="-1.24401">
        <ele>65.8</ele>
        <time>2011-10-02T09:49:03Z</time>
      </trkpt>
      <trkpt lat="47.34326" lon="-1.24396">
        <ele>66.4</ele>
        <time>2011-10-02T09:49:04Z</time>
      </trkpt>
      <trkpt lat="47.34328" lon="-1.24388">
        <ele>66.5</ele>
        <time>2011-10-02T09:49:05Z</time>
      </trkpt>
      <trkpt lat="47.3433" lon="-1.2438">
        <ele>66.6</ele>
        <time>2011-10-02T09:49:06Z</time>
      </trkpt>
      <trkpt lat="47.34332" lon="-1.24371">
        <ele>66.2</ele>
        <time>2011-10-02T09:49:07Z</time>
      </trkpt>
      <trkpt lat="47.34333" lon="-1.24361">
        <ele>66.8</ele>
        <time>2011-10-02T09:49:08Z</time>
      </trkpt>
      <trkpt lat="47.34336" lon="-1.24353">
        <ele>66.6</ele>
        <time>2011-10-02T09:49:09Z</time>
      </trkpt>
      <trkpt lat="47.34338" lon="-1.24345">
        <ele>66.1</ele>
        <time>2011-10-02T09:49:10Z</time>
      </trkpt>
      <trkpt lat="47.3434" lon="-1.24336">
        <ele>65.7</ele>
        <time>2011-10-02T09:49:11Z</time>
      </trkpt>
      <trkpt lat="47.34343" lon="-1.24329">
        <ele>65</ele>
        <time>2011-10-02T09:49:12Z</time>
      </trkpt>
      <trkpt lat="47.34345" lon="-1.24323">
        <ele>65.1</ele>
        <time>2011-10-02T09:49:13Z</time>
      </trkpt>
      <trkpt lat="47.34347" lon="-1.24316">
        <ele>65</ele>
        <time>2011-10-02T09:49:14Z</time>
      </trkpt>
      <trkpt lat="47.34348" lon="-1.2431">
        <ele>64.9</ele>
        <time>2011-10-02T09:49:15Z</time>
      </trkpt>
      <trkpt lat="47.34352" lon="-1.24302">
        <ele>64.9</ele>
        <time>2011-10-02T09:49:16Z</time>
      </trkpt>
      <trkpt lat="47.34353" lon="-1.24295">
        <ele>65</ele>
        <time>2011-10-02T09:49:17Z</time>
      </trkpt>
      <trkpt lat="47.34355" lon="-1.24288">
        <ele>65.2</ele>
        <time>2011-10-02T09:49:18Z</time>
      </trkpt>
      <trkpt lat="47.34356" lon="-1.24277">
        <ele>65</ele>
        <time>2011-10-02T09:49:19Z</time>
      </trkpt>
      <trkpt lat="47.34357" lon="-1.2427">
        <ele>65.4</ele>
        <time>2011-10-02T09:49:20Z</time>
      </trkpt>
      <trkpt lat="47.34358" lon="-1.2426">
        <ele>65.8</ele>
        <time>2011-10-02T09:49:21Z</time>
      </trkpt>
      <trkpt lat="47.34362" lon="-1.24255">
        <ele>65</ele>
        <time>2011-10-02T09:49:22Z</time>
      </trkpt>
      <trkpt lat="47.34364" lon="-1.24245">
        <ele>65.2</ele>
        <time>2011-10-02T09:49:23Z</time>
      </trkpt>
      <trkpt lat="47.34368" lon="-1.24236">
        <ele>65.3</ele>
        <time>2011-10-02T09:49:24Z</time>
      </trkpt>
      <trkpt lat="47.3437" lon="-1.24228">
        <ele>65</ele>
        <time>2011-10-02T09:49:25Z</time>
      </trkpt>
      <trkpt lat="47.34374" lon="-1.2422">
        <ele>65.1</ele>
        <time>2011-10-02T09:49:26Z</time>
      </trkpt>
      <trkpt lat="47.34376" lon="-1.24213">
        <ele>65.2</ele>
        <time>2011-10-02T09:49:27Z</time>
      </trkpt>
      <trkpt lat="47.34381" lon="-1.24209">
        <ele>66</ele>
        <time>2011-10-02T09:49:28Z</time>
      </trkpt>
      <trkpt lat="47.34384" lon="-1.24201">
        <ele>65.5</ele>
        <time>2011-10-02T09:49:29Z</time>
      </trkpt>
      <trkpt lat="47.34385" lon="-1.24189">
        <ele>65.6</ele>
        <time>2011-10-02T09:49:31Z</time>
      </trkpt>
      <trkpt lat="47.34388" lon="-1.24182">
        <ele>65.5</ele>
        <time>2011-10-02T09:49:32Z</time>
      </trkpt>
      <trkpt lat="47.3439" lon="-1.24176">
        <ele>65.3</ele>
        <time>2011-10-02T09:49:33Z</time>
      </trkpt>
      <trkpt lat="47.34393" lon="-1.24167">
        <ele>64.9</ele>
        <time>2011-10-02T09:49:35Z</time>
      </trkpt>
      <trkpt lat="47.34397" lon="-1.24157">
        <ele>66.3</ele>
        <time>2011-10-02T09:49:37Z</time>
      </trkpt>
      <trkpt lat="47.34398" lon="-1.2415">
        <ele>66.8</ele>
        <time>2011-10-02T09:49:38Z</time>
      </trkpt>
      <trkpt lat="47.34401" lon="-1.2414">
        <ele>67</ele>
        <time>2011-10-02T09:49:40Z</time>
      </trkpt>
      <trkpt lat="47.34402" lon="-1.24133">
        <ele>67.4</ele>
        <time>2011-10-02T09:49:41Z</time>
      </trkpt>
      <trkpt lat="47.34404" lon="-1.24122">
        <ele>68.4</ele>
        <time>2011-10-02T09:49:43Z</time>
      </trkpt>
      <trkpt lat="47.34406" lon="-1.24111">
        <ele>69.1</ele>
        <time>2011-10-02T09:49:45Z</time>
      </trkpt>
      <trkpt lat="47.34409" lon="-1.24102">
        <ele>69.5</ele>
        <time>2011-10-02T09:49:47Z</time>
      </trkpt>
      <trkpt lat="47.3441" lon="-1.24095">
        <ele>69.3</ele>
        <time>2011-10-02T09:49:48Z</time>
      </trkpt>
      <trkpt lat="47.3441" lon="-1.24088">
        <ele>69.1</ele>
        <time>2011-10-02T09:49:49Z</time>
      </trkpt>
      <trkpt lat="47.34414" lon="-1.24078">
        <ele>69.5</ele>
        <time>2011-10-02T09:49:51Z</time>
      </trkpt>
      <trkpt lat="47.34417" lon="-1.24071">
        <ele>70.1</ele>
        <time>2011-10-02T09:49:52Z</time>
      </trkpt>
      <trkpt lat="47.3442" lon="-1.2406">
        <ele>70.4</ele>
        <time>2011-10-02T09:49:54Z</time>
      </trkpt>
      <trkpt lat="47.34425" lon="-1.2405">
        <ele>71.1</ele>
        <time>2011-10-02T09:49:56Z</time>
      </trkpt>
      <trkpt lat="47.34424" lon="-1.2404">
        <ele>71.1</ele>
        <time>2011-10-02T09:49:57Z</time>
      </trkpt>
      <trkpt lat="47.34424" lon="-1.24032">
        <ele>71.5</ele>
        <time>2011-10-02T09:49:58Z</time>
      </trkpt>
      <trkpt lat="47.34427" lon="-1.24024">
        <ele>70.7</ele>
        <time>2011-10-02T09:49:59Z</time>
      </trkpt>
      <trkpt lat="47.34426" lon="-1.24013">
        <ele>71</ele>
        <time>2011-10-02T09:50:00Z</time>
      </trkpt>
      <trkpt lat="47.34428" lon="-1.24005">
        <ele>71.7</ele>
        <time>2011-10-02T09:50:01Z</time>
      </trkpt>
      <trkpt lat="47.3443" lon="-1.23998">
        <ele>71.1</ele>
        <time>2011-10-02T09:50:02Z</time>
      </trkpt>
      <trkpt lat="47.34431" lon="-1.23991">
        <ele>70.8</ele>
        <time>2011-10-02T09:50:03Z</time>
      </trkpt>
      <trkpt lat="47.34432" lon="-1.23985">
        <ele>70.5</ele>
        <time>2011-10-02T09:50:04Z</time>
      </trkpt>
      <trkpt lat="47.34434" lon="-1.23977">
        <ele>70.1</ele>
        <time>2011-10-02T09:50:05Z</time>
      </trkpt>
      <trkpt lat="47.34435" lon="-1.23971">
        <ele>70.3</ele>
        <time>2011-10-02T09:50:06Z</time>
      </trkpt>
      <trkpt lat="47.34437" lon="-1.23964">
        <ele>70.2</ele>
        <time>2011-10-02T09:50:07Z</time>
      </trkpt>
      <trkpt lat="47.34439" lon="-1.23957">
        <ele>70.2</ele>
        <time>2011-10-02T09:50:08Z</time>
      </trkpt>
      <trkpt lat="47.3444" lon="-1.2395">
        <ele>69.8</ele>
        <time>2011-10-02T09:50:09Z</time>
      </trkpt>
      <trkpt lat="47.34443" lon="-1.23945">
        <ele>70</ele>
        <time>2011-10-02T09:50:10Z</time>
      </trkpt>
      <trkpt lat="47.34447" lon="-1.23932">
        <ele>69.4</ele>
        <time>2011-10-02T09:50:12Z</time>
      </trkpt>
      <trkpt lat="47.3445" lon="-1.2392">
        <ele>69.4</ele>
        <time>2011-10-02T09:50:14Z</time>
      </trkpt>
      <trkpt lat="47.34453" lon="-1.23912">
        <ele>70</ele>
        <time>2011-10-02T09:50:15Z</time>
      </trkpt>
      <trkpt lat="47.34455" lon="-1.23906">
        <ele>69.8</ele>
        <time>2011-10-02T09:50:16Z</time>
      </trkpt>
      <trkpt lat="47.34458" lon="-1.23899">
        <ele>70.1</ele>
        <time>2011-10-02T09:50:18Z</time>
      </trkpt>
      <trkpt lat="47.34461" lon="-1.23889">
        <ele>69.9</ele>
        <time>2011-10-02T09:50:20Z</time>
      </trkpt>
      <trkpt lat="47.34464" lon="-1.23884">
        <ele>69.8</ele>
        <time>2011-10-02T09:50:21Z</time>
      </trkpt>
      <trkpt lat="47.34462" lon="-1.23874">
        <ele>68.9</ele>
        <time>2011-10-02T09:50:23Z</time>
      </trkpt>
      <trkpt lat="47.34461" lon="-1.23861">
        <ele>69.7</ele>
        <time>2011-10-02T09:50:25Z</time>
      </trkpt>
      <trkpt lat="47.34463" lon="-1.23849">
        <ele>70.5</ele>
        <time>2011-10-02T09:50:27Z</time>
      </trkpt>
      <trkpt lat="47.34466" lon="-1.23839">
        <ele>70.7</ele>
        <time>2011-10-02T09:50:29Z</time>
      </trkpt>
      <trkpt lat="47.3447" lon="-1.23831">
        <ele>71.3</ele>
        <time>2011-10-02T09:50:31Z</time>
      </trkpt>
      <trkpt lat="47.34473" lon="-1.23824">
        <ele>71</ele>
        <time>2011-10-02T09:50:33Z</time>
      </trkpt>
      <trkpt lat="47.34475" lon="-1.23816">
        <ele>70.7</ele>
        <time>2011-10-02T09:50:35Z</time>
      </trkpt>
      <trkpt lat="47.34478" lon="-1.23808">
        <ele>69.9</ele>
        <time>2011-10-02T09:50:38Z</time>
      </trkpt>
      <trkpt lat="47.34482" lon="-1.23802">
        <ele>66.6</ele>
        <time>2011-10-02T09:50:54Z</time>
      </trkpt>
      <trkpt lat="47.34484" lon="-1.23791">
        <ele>68.3</ele>
        <time>2011-10-02T09:50:56Z</time>
      </trkpt>
      <trkpt lat="47.34486" lon="-1.2378">
        <ele>68.2</ele>
        <time>2011-10-02T09:50:58Z</time>
      </trkpt>
      <trkpt lat="47.3449" lon="-1.23771">
        <ele>69.6</ele>
        <time>2011-10-02T09:51:00Z</time>
      </trkpt>
      <trkpt lat="47.34491" lon="-1.23761">
        <ele>70.6</ele>
        <time>2011-10-02T09:51:02Z</time>
      </trkpt>
      <trkpt lat="47.34495" lon="-1.2375">
        <ele>70.4</ele>
        <time>2011-10-02T09:51:04Z</time>
      </trkpt>
      <trkpt lat="47.34496" lon="-1.23742">
        <ele>69.2</ele>
        <time>2011-10-02T09:51:05Z</time>
      </trkpt>
      <trkpt lat="47.34494" lon="-1.2373">
        <ele>68.1</ele>
        <time>2011-10-02T09:51:07Z</time>
      </trkpt>
      <trkpt lat="47.34494" lon="-1.23719">
        <ele>66.6</ele>
        <time>2011-10-02T09:51:09Z</time>
      </trkpt>
      <trkpt lat="47.34493" lon="-1.23708">
        <ele>66.7</ele>
        <time>2011-10-02T09:51:11Z</time>
      </trkpt>
      <trkpt lat="47.34496" lon="-1.23697">
        <ele>67.6</ele>
        <time>2011-10-02T09:51:13Z</time>
      </trkpt>
      <trkpt lat="47.34499" lon="-1.2369">
        <ele>67.4</ele>
        <time>2011-10-02T09:51:14Z</time>
      </trkpt>
      <trkpt lat="47.34502" lon="-1.23679">
        <ele>67.3</ele>
        <time>2011-10-02T09:51:16Z</time>
      </trkpt>
      <trkpt lat="47.34504" lon="-1.23671">
        <ele>67.9</ele>
        <time>2011-10-02T09:51:17Z</time>
      </trkpt>
      <trkpt lat="47.34506" lon="-1.23664">
        <ele>67.9</ele>
        <time>2011-10-02T09:51:18Z</time>
      </trkpt>
      <trkpt lat="47.34509" lon="-1.23656">
        <ele>68</ele>
        <time>2011-10-02T09:51:19Z</time>
      </trkpt>
      <trkpt lat="47.3451" lon="-1.23649">
        <ele>67.7</ele>
        <time>2011-10-02T09:51:20Z</time>
      </trkpt>
      <trkpt lat="47.34512" lon="-1.23642">
        <ele>67.6</ele>
        <time>2011-10-02T09:51:21Z</time>
      </trkpt>
      <trkpt lat="47.34514" lon="-1.23636">
        <ele>67.6</ele>
        <time>2011-10-02T09:51:22Z</time>
      </trkpt>
      <trkpt lat="47.34516" lon="-1.23629">
        <ele>67.2</ele>
        <time>2011-10-02T09:51:23Z</time>
      </trkpt>
      <trkpt lat="47.34518" lon="-1.23617">
        <ele>67</ele>
        <time>2011-10-02T09:51:25Z</time>
      </trkpt>
      <trkpt lat="47.34521" lon="-1.23605">
        <ele>67.1</ele>
        <time>2011-10-02T09:51:27Z</time>
      </trkpt>
      <trkpt lat="47.34525" lon="-1.23592">
        <ele>67.1</ele>
        <time>2011-10-02T09:51:29Z</time>
      </trkpt>
      <trkpt lat="47.34528" lon="-1.23578">
        <ele>66.7</ele>
        <time>2011-10-02T09:51:31Z</time>
      </trkpt>
      <trkpt lat="47.3453" lon="-1.23571">
        <ele>66.6</ele>
        <time>2011-10-02T09:51:32Z</time>
      </trkpt>
      <trkpt lat="47.34531" lon="-1.23564">
        <ele>66</ele>
        <time>2011-10-02T09:51:33Z</time>
      </trkpt>
      <trkpt lat="47.34532" lon="-1.23555">
        <ele>65.9</ele>
        <time>2011-10-02T09:51:34Z</time>
      </trkpt>
      <trkpt lat="47.34535" lon="-1.23542">
        <ele>64.6</ele>
        <time>2011-10-02T09:51:36Z</time>
      </trkpt>
      <trkpt lat="47.34538" lon="-1.23532">
        <ele>64.7</ele>
        <time>2011-10-02T09:51:38Z</time>
      </trkpt>
      <trkpt lat="47.34542" lon="-1.23521">
        <ele>65</ele>
        <time>2011-10-02T09:51:40Z</time>
      </trkpt>
      <trkpt lat="47.34544" lon="-1.23514">
        <ele>65.1</ele>
        <time>2011-10-02T09:51:41Z</time>
      </trkpt>
      <trkpt lat="47.34544" lon="-1.23507">
        <ele>65.4</ele>
        <time>2011-10-02T09:51:42Z</time>
      </trkpt>
      <trkpt lat="47.34544" lon="-1.23499">
        <ele>64.7</ele>
        <time>2011-10-02T09:51:43Z</time>
      </trkpt>
      <trkpt lat="47.34544" lon="-1.23491">
        <ele>65.1</ele>
        <time>2011-10-02T09:51:44Z</time>
      </trkpt>
      <trkpt lat="47.34546" lon="-1.23479">
        <ele>65.5</ele>
        <time>2011-10-02T09:51:46Z</time>
      </trkpt>
      <trkpt lat="47.34546" lon="-1.23472">
        <ele>65.4</ele>
        <time>2011-10-02T09:51:47Z</time>
      </trkpt>
      <trkpt lat="47.34549" lon="-1.23461">
        <ele>65.5</ele>
        <time>2011-10-02T09:51:49Z</time>
      </trkpt>
      <trkpt lat="47.34551" lon="-1.23448">
        <ele>65.3</ele>
        <time>2011-10-02T09:51:51Z</time>
      </trkpt>
      <trkpt lat="47.34554" lon="-1.23438">
        <ele>65.2</ele>
        <time>2011-10-02T09:51:53Z</time>
      </trkpt>
      <trkpt lat="47.34554" lon="-1.23431">
        <ele>65.6</ele>
        <time>2011-10-02T09:51:54Z</time>
      </trkpt>
      <trkpt lat="47.34553" lon="-1.23419">
        <ele>64.2</ele>
        <time>2011-10-02T09:51:56Z</time>
      </trkpt>
      <trkpt lat="47.34554" lon="-1.23407">
        <ele>63.9</ele>
        <time>2011-10-02T09:51:58Z</time>
      </trkpt>
      <trkpt lat="47.34554" lon="-1.23396">
        <ele>63.9</ele>
        <time>2011-10-02T09:52:00Z</time>
      </trkpt>
      <trkpt lat="47.34553" lon="-1.23384">
        <ele>63.7</ele>
        <time>2011-10-02T09:52:02Z</time>
      </trkpt>
      <trkpt lat="47.34552" lon="-1.23376">
        <ele>64.7</ele>
        <time>2011-10-02T09:52:04Z</time>
      </trkpt>
      <trkpt lat="47.34552" lon="-1.23369">
        <ele>64.4</ele>
        <time>2011-10-02T09:52:05Z</time>
      </trkpt>
      <trkpt lat="47.34553" lon="-1.2336">
        <ele>64.1</ele>
        <time>2011-10-02T09:52:07Z</time>
      </trkpt>
      <trkpt lat="47.34552" lon="-1.23351">
        <ele>63.8</ele>
        <time>2011-10-02T09:52:09Z</time>
      </trkpt>
      <trkpt lat="47.34552" lon="-1.23342">
        <ele>64.2</ele>
        <time>2011-10-02T09:52:11Z</time>
      </trkpt>
      <trkpt lat="47.34551" lon="-1.23335">
        <ele>65.2</ele>
        <time>2011-10-02T09:52:13Z</time>
      </trkpt>
      <trkpt lat="47.34551" lon="-1.23326">
        <ele>65</ele>
        <time>2011-10-02T09:52:16Z</time>
      </trkpt>
      <trkpt lat="47.34552" lon="-1.23317">
        <ele>64.1</ele>
        <time>2011-10-02T09:52:18Z</time>
      </trkpt>
      <trkpt lat="47.34555" lon="-1.23311">
        <ele>63.8</ele>
        <time>2011-10-02T09:52:20Z</time>
      </trkpt>
      <trkpt lat="47.34551" lon="-1.233">
        <ele>64</ele>
        <time>2011-10-02T09:52:22Z</time>
      </trkpt>
      <trkpt lat="47.34546" lon="-1.23292">
        <ele>64.1</ele>
        <time>2011-10-02T09:52:24Z</time>
      </trkpt>
      <trkpt lat="47.34541" lon="-1.2329">
        <ele>64.7</ele>
        <time>2011-10-02T09:52:27Z</time>
      </trkpt>
      <trkpt lat="47.34536" lon="-1.23289">
        <ele>65.3</ele>
        <time>2011-10-02T09:52:30Z</time>
      </trkpt>
      <trkpt lat="47.34537" lon="-1.23278">
        <ele>64.8</ele>
        <time>2011-10-02T09:52:33Z</time>
      </trkpt>
      <trkpt lat="47.3454" lon="-1.23268">
        <ele>62.9</ele>
        <time>2011-10-02T09:52:35Z</time>
      </trkpt>
      <trkpt lat="47.34543" lon="-1.23262">
        <ele>62.5</ele>
        <time>2011-10-02T09:52:37Z</time>
      </trkpt>
      <trkpt lat="47.34549" lon="-1.23255">
        <ele>62.5</ele>
        <time>2011-10-02T09:52:39Z</time>
      </trkpt>
      <trkpt lat="47.34549" lon="-1.23249">
        <ele>63</ele>
        <time>2011-10-02T09:52:40Z</time>
      </trkpt>
      <trkpt lat="47.34551" lon="-1.23243">
        <ele>62.1</ele>
        <time>2011-10-02T09:52:41Z</time>
      </trkpt>
      <trkpt lat="47.34554" lon="-1.23232">
        <ele>62.7</ele>
        <time>2011-10-02T09:52:43Z</time>
      </trkpt>
      <trkpt lat="47.34559" lon="-1.23223">
        <ele>63.5</ele>
        <time>2011-10-02T09:52:45Z</time>
      </trkpt>
      <trkpt lat="47.34561" lon="-1.23212">
        <ele>63.2</ele>
        <time>2011-10-02T09:52:47Z</time>
      </trkpt>
      <trkpt lat="47.34564" lon="-1.23199">
        <ele>63.6</ele>
        <time>2011-10-02T09:52:49Z</time>
      </trkpt>
      <trkpt lat="47.34565" lon="-1.23191">
        <ele>64.1</ele>
        <time>2011-10-02T09:52:50Z</time>
      </trkpt>
      <trkpt lat="47.34567" lon="-1.23178">
        <ele>65</ele>
        <time>2011-10-02T09:52:52Z</time>
      </trkpt>
      <trkpt lat="47.3457" lon="-1.23169">
        <ele>65.1</ele>
        <time>2011-10-02T09:52:53Z</time>
      </trkpt>
      <trkpt lat="47.34572" lon="-1.23158">
        <ele>66.1</ele>
        <time>2011-10-02T09:52:55Z</time>
      </trkpt>
      <trkpt lat="47.34575" lon="-1.23153">
        <ele>66.7</ele>
        <time>2011-10-02T09:52:56Z</time>
      </trkpt>
      <trkpt lat="47.34575" lon="-1.23144">
        <ele>66.5</ele>
        <time>2011-10-02T09:52:57Z</time>
      </trkpt>
      <trkpt lat="47.34579" lon="-1.23135">
        <ele>66</ele>
        <time>2011-10-02T09:52:58Z</time>
      </trkpt>
      <trkpt lat="47.3458" lon="-1.23125">
        <ele>66.8</ele>
        <time>2011-10-02T09:52:59Z</time>
      </trkpt>
      <trkpt lat="47.34584" lon="-1.23116">
        <ele>67.2</ele>
        <time>2011-10-02T09:53:00Z</time>
      </trkpt>
      <trkpt lat="47.34586" lon="-1.23109">
        <ele>67</ele>
        <time>2011-10-02T09:53:01Z</time>
      </trkpt>
      <trkpt lat="47.3459" lon="-1.23102">
        <ele>66.7</ele>
        <time>2011-10-02T09:53:02Z</time>
      </trkpt>
      <trkpt lat="47.34593" lon="-1.23095">
        <ele>68</ele>
        <time>2011-10-02T09:53:03Z</time>
      </trkpt>
      <trkpt lat="47.34598" lon="-1.2309">
        <ele>67.9</ele>
        <time>2011-10-02T09:53:04Z</time>
      </trkpt>
      <trkpt lat="47.34602" lon="-1.23082">
        <ele>68.1</ele>
        <time>2011-10-02T09:53:05Z</time>
      </trkpt>
      <trkpt lat="47.34603" lon="-1.2307">
        <ele>67.8</ele>
        <time>2011-10-02T09:53:06Z</time>
      </trkpt>
      <trkpt lat="47.34604" lon="-1.23061">
        <ele>66.8</ele>
        <time>2011-10-02T09:53:07Z</time>
      </trkpt>
      <trkpt lat="47.34603" lon="-1.23044">
        <ele>67.4</ele>
        <time>2011-10-02T09:53:09Z</time>
      </trkpt>
      <trkpt lat="47.34602" lon="-1.23033">
        <ele>67.3</ele>
        <time>2011-10-02T09:53:11Z</time>
      </trkpt>
      <trkpt lat="47.34599" lon="-1.23022">
        <ele>68.6</ele>
        <time>2011-10-02T09:53:13Z</time>
      </trkpt>
      <trkpt lat="47.34598" lon="-1.2301">
        <ele>70.3</ele>
        <time>2011-10-02T09:53:15Z</time>
      </trkpt>
      <trkpt lat="47.34593" lon="-1.22999">
        <ele>71.7</ele>
        <time>2011-10-02T09:53:17Z</time>
      </trkpt>
      <trkpt lat="47.3459" lon="-1.22992">
        <ele>71.6</ele>
        <time>2011-10-02T09:53:18Z</time>
      </trkpt>
      <trkpt lat="47.34586" lon="-1.22987">
        <ele>71</ele>
        <time>2011-10-02T09:53:19Z</time>
      </trkpt>
      <trkpt lat="47.34582" lon="-1.22982">
        <ele>69.9</ele>
        <time>2011-10-02T09:53:20Z</time>
      </trkpt>
      <trkpt lat="47.3458" lon="-1.22974">
        <ele>69</ele>
        <time>2011-10-02T09:53:21Z</time>
      </trkpt>
      <trkpt lat="47.34574" lon="-1.22968">
        <ele>69</ele>
        <time>2011-10-02T09:53:22Z</time>
      </trkpt>
      <trkpt lat="47.3457" lon="-1.22963">
        <ele>69.3</ele>
        <time>2011-10-02T09:53:23Z</time>
      </trkpt>
      <trkpt lat="47.34562" lon="-1.22954">
        <ele>70.4</ele>
        <time>2011-10-02T09:53:25Z</time>
      </trkpt>
      <trkpt lat="47.34553" lon="-1.22943">
        <ele>69</ele>
        <time>2011-10-02T09:53:27Z</time>
      </trkpt>
      <trkpt lat="47.34548" lon="-1.22938">
        <ele>68.2</ele>
        <time>2011-10-02T09:53:28Z</time>
      </trkpt>
      <trkpt lat="47.3454" lon="-1.2293">
        <ele>68.7</ele>
        <time>2011-10-02T09:53:30Z</time>
      </trkpt>
      <trkpt lat="47.34532" lon="-1.22923">
        <ele>69.7</ele>
        <time>2011-10-02T09:53:32Z</time>
      </trkpt>
      <trkpt lat="47.34527" lon="-1.22916">
        <ele>69.6</ele>
        <time>2011-10-02T09:53:33Z</time>
      </trkpt>
      <trkpt lat="47.34523" lon="-1.22911">
        <ele>69.8</ele>
        <time>2011-10-02T09:53:34Z</time>
      </trkpt>
      <trkpt lat="47.34518" lon="-1.22903">
        <ele>69.4</ele>
        <time>2011-10-02T09:53:35Z</time>
      </trkpt>
      <trkpt lat="47.34513" lon="-1.22892">
        <ele>67.2</ele>
        <time>2011-10-02T09:53:37Z</time>
      </trkpt>
      <trkpt lat="47.34509" lon="-1.22889">
        <ele>66.8</ele>
        <time>2011-10-02T09:53:38Z</time>
      </trkpt>
      <trkpt lat="47.34505" lon="-1.22884">
        <ele>67.1</ele>
        <time>2011-10-02T09:53:39Z</time>
      </trkpt>
      <trkpt lat="47.34498" lon="-1.22875">
        <ele>66.5</ele>
        <time>2011-10-02T09:53:41Z</time>
      </trkpt>
      <trkpt lat="47.34494" lon="-1.22867">
        <ele>64.5</ele>
        <time>2011-10-02T09:53:42Z</time>
      </trkpt>
      <trkpt lat="47.34489" lon="-1.22858">
        <ele>63.5</ele>
        <time>2011-10-02T09:53:44Z</time>
      </trkpt>
      <trkpt lat="47.34482" lon="-1.22851">
        <ele>62.8</ele>
        <time>2011-10-02T09:53:46Z</time>
      </trkpt>
      <trkpt lat="47.34477" lon="-1.22843">
        <ele>63.1</ele>
        <time>2011-10-02T09:53:48Z</time>
      </trkpt>
      <trkpt lat="47.34468" lon="-1.22835">
        <ele>62.8</ele>
        <time>2011-10-02T09:53:50Z</time>
      </trkpt>
      <trkpt lat="47.34465" lon="-1.2283">
        <ele>63</ele>
        <time>2011-10-02T09:53:51Z</time>
      </trkpt>
      <trkpt lat="47.34457" lon="-1.22825">
        <ele>63.4</ele>
        <time>2011-10-02T09:53:53Z</time>
      </trkpt>
      <trkpt lat="47.34453" lon="-1.22821">
        <ele>63.4</ele>
        <time>2011-10-02T09:53:54Z</time>
      </trkpt>
      <trkpt lat="47.34448" lon="-1.22815">
        <ele>63</ele>
        <time>2011-10-02T09:53:55Z</time>
      </trkpt>
      <trkpt lat="47.34442" lon="-1.22809">
        <ele>63.1</ele>
        <time>2011-10-02T09:53:56Z</time>
      </trkpt>
      <trkpt lat="47.34435" lon="-1.22804">
        <ele>62.8</ele>
        <time>2011-10-02T09:53:58Z</time>
      </trkpt>
      <trkpt lat="47.34431" lon="-1.228">
        <ele>62.8</ele>
        <time>2011-10-02T09:53:59Z</time>
      </trkpt>
      <trkpt lat="47.34427" lon="-1.22795">
        <ele>62.8</ele>
        <time>2011-10-02T09:54:00Z</time>
      </trkpt>
      <trkpt lat="47.3442" lon="-1.2279">
        <ele>62.5</ele>
        <time>2011-10-02T09:54:01Z</time>
      </trkpt>
      <trkpt lat="47.34413" lon="-1.22782">
        <ele>63.3</ele>
        <time>2011-10-02T09:54:03Z</time>
      </trkpt>
      <trkpt lat="47.34408" lon="-1.2278">
        <ele>64</ele>
        <time>2011-10-02T09:54:04Z</time>
      </trkpt>
      <trkpt lat="47.34404" lon="-1.22778">
        <ele>63.9</ele>
        <time>2011-10-02T09:54:05Z</time>
      </trkpt>
      <trkpt lat="47.344" lon="-1.22773">
        <ele>64.1</ele>
        <time>2011-10-02T09:54:06Z</time>
      </trkpt>
      <trkpt lat="47.34396" lon="-1.22768">
        <ele>63.6</ele>
        <time>2011-10-02T09:54:07Z</time>
      </trkpt>
      <trkpt lat="47.34389" lon="-1.22761">
        <ele>64.2</ele>
        <time>2011-10-02T09:54:09Z</time>
      </trkpt>
      <trkpt lat="47.34385" lon="-1.22759">
        <ele>63.9</ele>
        <time>2011-10-02T09:54:10Z</time>
      </trkpt>
      <trkpt lat="47.34381" lon="-1.22754">
        <ele>63.7</ele>
        <time>2011-10-02T09:54:11Z</time>
      </trkpt>
      <trkpt lat="47.34375" lon="-1.22747">
        <ele>64.2</ele>
        <time>2011-10-02T09:54:13Z</time>
      </trkpt>
      <trkpt lat="47.34367" lon="-1.22738">
        <ele>65.1</ele>
        <time>2011-10-02T09:54:15Z</time>
      </trkpt>
      <trkpt lat="47.3436" lon="-1.22729">
        <ele>65.8</ele>
        <time>2011-10-02T09:54:17Z</time>
      </trkpt>
      <trkpt lat="47.34353" lon="-1.22721">
        <ele>65.1</ele>
        <time>2011-10-02T09:54:19Z</time>
      </trkpt>
      <trkpt lat="47.34349" lon="-1.22718">
        <ele>65</ele>
        <time>2011-10-02T09:54:20Z</time>
      </trkpt>
      <trkpt lat="47.34344" lon="-1.2271">
        <ele>64.1</ele>
        <time>2011-10-02T09:54:22Z</time>
      </trkpt>
      <trkpt lat="47.34336" lon="-1.22704">
        <ele>65.5</ele>
        <time>2011-10-02T09:54:24Z</time>
      </trkpt>
      <trkpt lat="47.3433" lon="-1.22697">
        <ele>65.4</ele>
        <time>2011-10-02T09:54:26Z</time>
      </trkpt>
      <trkpt lat="47.34327" lon="-1.2269">
        <ele>64.8</ele>
        <time>2011-10-02T09:54:27Z</time>
      </trkpt>
      <trkpt lat="47.34319" lon="-1.22684">
        <ele>64.9</ele>
        <time>2011-10-02T09:54:28Z</time>
      </trkpt>
      <trkpt lat="47.34313" lon="-1.22678">
        <ele>64.7</ele>
        <time>2011-10-02T09:54:29Z</time>
      </trkpt>
      <trkpt lat="47.34308" lon="-1.22673">
        <ele>64.9</ele>
        <time>2011-10-02T09:54:30Z</time>
      </trkpt>
      <trkpt lat="47.343" lon="-1.22666">
        <ele>65.5</ele>
        <time>2011-10-02T09:54:32Z</time>
      </trkpt>
      <trkpt lat="47.34296" lon="-1.22663">
        <ele>65.9</ele>
        <time>2011-10-02T09:54:33Z</time>
      </trkpt>
      <trkpt lat="47.3429" lon="-1.22659">
        <ele>66.5</ele>
        <time>2011-10-02T09:54:34Z</time>
      </trkpt>
      <trkpt lat="47.34283" lon="-1.22658">
        <ele>66.4</ele>
        <time>2011-10-02T09:54:36Z</time>
      </trkpt>
      <trkpt lat="47.34275" lon="-1.22656">
        <ele>65.7</ele>
        <time>2011-10-02T09:54:38Z</time>
      </trkpt>
      <trkpt lat="47.3427" lon="-1.22655">
        <ele>66.2</ele>
        <time>2011-10-02T09:54:39Z</time>
      </trkpt>
      <trkpt lat="47.34262" lon="-1.22655">
        <ele>66.4</ele>
        <time>2011-10-02T09:54:41Z</time>
      </trkpt>
      <trkpt lat="47.34256" lon="-1.22655">
        <ele>65.9</ele>
        <time>2011-10-02T09:54:43Z</time>
      </trkpt>
      <trkpt lat="47.34252" lon="-1.22662">
        <ele>66.3</ele>
        <time>2011-10-02T09:54:45Z</time>
      </trkpt>
      <trkpt lat="47.34246" lon="-1.22664">
        <ele>64.7</ele>
        <time>2011-10-02T09:54:47Z</time>
      </trkpt>
      <trkpt lat="47.34239" lon="-1.2267">
        <ele>65.5</ele>
        <time>2011-10-02T09:54:49Z</time>
      </trkpt>
      <trkpt lat="47.34232" lon="-1.22673">
        <ele>65</ele>
        <time>2011-10-02T09:54:51Z</time>
      </trkpt>
      <trkpt lat="47.34224" lon="-1.22674">
        <ele>64.6</ele>
        <time>2011-10-02T09:54:53Z</time>
      </trkpt>
      <trkpt lat="47.34218" lon="-1.22665">
        <ele>65.7</ele>
        <time>2011-10-02T09:54:55Z</time>
      </trkpt>
      <trkpt lat="47.34215" lon="-1.2266">
        <ele>65.7</ele>
        <time>2011-10-02T09:54:56Z</time>
      </trkpt>
      <trkpt lat="47.34212" lon="-1.22651">
        <ele>66.3</ele>
        <time>2011-10-02T09:54:57Z</time>
      </trkpt>
      <trkpt lat="47.3421" lon="-1.22643">
        <ele>66.7</ele>
        <time>2011-10-02T09:54:58Z</time>
      </trkpt>
      <trkpt lat="47.3421" lon="-1.22634">
        <ele>66.5</ele>
        <time>2011-10-02T09:54:59Z</time>
      </trkpt>
      <trkpt lat="47.34213" lon="-1.22624">
        <ele>67.6</ele>
        <time>2011-10-02T09:55:00Z</time>
      </trkpt>
      <trkpt lat="47.34212" lon="-1.22612">
        <ele>67.7</ele>
        <time>2011-10-02T09:55:01Z</time>
      </trkpt>
      <trkpt lat="47.34213" lon="-1.22603">
        <ele>67.5</ele>
        <time>2011-10-02T09:55:02Z</time>
      </trkpt>
      <trkpt lat="47.34214" lon="-1.22592">
        <ele>66.7</ele>
        <time>2011-10-02T09:55:03Z</time>
      </trkpt>
      <trkpt lat="47.34214" lon="-1.22584">
        <ele>67.3</ele>
        <time>2011-10-02T09:55:04Z</time>
      </trkpt>
      <trkpt lat="47.34213" lon="-1.22575">
        <ele>66.9</ele>
        <time>2011-10-02T09:55:05Z</time>
      </trkpt>
      <trkpt lat="47.34212" lon="-1.22567">
        <ele>67.5</ele>
        <time>2011-10-02T09:55:06Z</time>
      </trkpt>
      <trkpt lat="47.34214" lon="-1.22559">
        <ele>67.8</ele>
        <time>2011-10-02T09:55:07Z</time>
      </trkpt>
      <trkpt lat="47.34216" lon="-1.22539">
        <ele>66.5</ele>
        <time>2011-10-02T09:55:09Z</time>
      </trkpt>
      <trkpt lat="47.34217" lon="-1.22529">
        <ele>66.2</ele>
        <time>2011-10-02T09:55:10Z</time>
      </trkpt>
      <trkpt lat="47.34218" lon="-1.22521">
        <ele>66.4</ele>
        <time>2011-10-02T09:55:11Z</time>
      </trkpt>
      <trkpt lat="47.34218" lon="-1.22511">
        <ele>66.3</ele>
        <time>2011-10-02T09:55:12Z</time>
      </trkpt>
      <trkpt lat="47.34218" lon="-1.22502">
        <ele>65.8</ele>
        <time>2011-10-02T09:55:13Z</time>
      </trkpt>
      <trkpt lat="47.34218" lon="-1.22492">
        <ele>65.6</ele>
        <time>2011-10-02T09:55:14Z</time>
      </trkpt>
      <trkpt lat="47.34217" lon="-1.22483">
        <ele>66.2</ele>
        <time>2011-10-02T09:55:15Z</time>
      </trkpt>
      <trkpt lat="47.34217" lon="-1.22474">
        <ele>66.3</ele>
        <time>2011-10-02T09:55:16Z</time>
      </trkpt>
      <trkpt lat="47.34218" lon="-1.22465">
        <ele>66</ele>
        <time>2011-10-02T09:55:17Z</time>
      </trkpt>
      <trkpt lat="47.34217" lon="-1.22457">
        <ele>66.2</ele>
        <time>2011-10-02T09:55:18Z</time>
      </trkpt>
      <trkpt lat="47.34219" lon="-1.2245">
        <ele>65.9</ele>
        <time>2011-10-02T09:55:19Z</time>
      </trkpt>
      <trkpt lat="47.34221" lon="-1.22443">
        <ele>66.3</ele>
        <time>2011-10-02T09:55:20Z</time>
      </trkpt>
      <trkpt lat="47.34221" lon="-1.22431">
        <ele>66.5</ele>
        <time>2011-10-02T09:55:21Z</time>
      </trkpt>
      <trkpt lat="47.34222" lon="-1.22424">
        <ele>66.1</ele>
        <time>2011-10-02T09:55:22Z</time>
      </trkpt>
      <trkpt lat="47.34222" lon="-1.22417">
        <ele>65.5</ele>
        <time>2011-10-02T09:55:23Z</time>
      </trkpt>
      <trkpt lat="47.34224" lon="-1.22408">
        <ele>65.9</ele>
        <time>2011-10-02T09:55:24Z</time>
      </trkpt>
      <trkpt lat="47.34224" lon="-1.224">
        <ele>66</ele>
        <time>2011-10-02T09:55:25Z</time>
      </trkpt>
      <trkpt lat="47.34223" lon="-1.22388">
        <ele>65.1</ele>
        <time>2011-10-02T09:55:26Z</time>
      </trkpt>
      <trkpt lat="47.34222" lon="-1.22372">
        <ele>64.8</ele>
        <time>2011-10-02T09:55:27Z</time>
      </trkpt>
      <trkpt lat="47.34224" lon="-1.2236">
        <ele>64.5</ele>
        <time>2011-10-02T09:55:29Z</time>
      </trkpt>
      <trkpt lat="47.34224" lon="-1.22352">
        <ele>63.9</ele>
        <time>2011-10-02T09:55:30Z</time>
      </trkpt>
      <trkpt lat="47.34225" lon="-1.22344">
        <ele>63.9</ele>
        <time>2011-10-02T09:55:31Z</time>
      </trkpt>
      <trkpt lat="47.34226" lon="-1.22335">
        <ele>63.7</ele>
        <time>2011-10-02T09:55:32Z</time>
      </trkpt>
      <trkpt lat="47.34227" lon="-1.22326">
        <ele>64</ele>
        <time>2011-10-02T09:55:33Z</time>
      </trkpt>
      <trkpt lat="47.34229" lon="-1.22318">
        <ele>64.8</ele>
        <time>2011-10-02T09:55:34Z</time>
      </trkpt>
      <trkpt lat="47.34229" lon="-1.22308">
        <ele>64.9</ele>
        <time>2011-10-02T09:55:35Z</time>
      </trkpt>
      <trkpt lat="47.34232" lon="-1.223">
        <ele>65.9</ele>
        <time>2011-10-02T09:55:36Z</time>
      </trkpt>
      <trkpt lat="47.34232" lon="-1.22291">
        <ele>66.4</ele>
        <time>2011-10-02T09:55:37Z</time>
      </trkpt>
      <trkpt lat="47.34234" lon="-1.22283">
        <ele>66.1</ele>
        <time>2011-10-02T09:55:38Z</time>
      </trkpt>
      <trkpt lat="47.34236" lon="-1.22275">
        <ele>66.3</ele>
        <time>2011-10-02T09:55:39Z</time>
      </trkpt>
      <trkpt lat="47.34236" lon="-1.22268">
        <ele>66.8</ele>
        <time>2011-10-02T09:55:40Z</time>
      </trkpt>
      <trkpt lat="47.34238" lon="-1.22261">
        <ele>66.4</ele>
        <time>2011-10-02T09:55:41Z</time>
      </trkpt>
      <trkpt lat="47.34239" lon="-1.22253">
        <ele>66.7</ele>
        <time>2011-10-02T09:55:42Z</time>
      </trkpt>
      <trkpt lat="47.34242" lon="-1.22245">
        <ele>66.5</ele>
        <time>2011-10-02T09:55:43Z</time>
      </trkpt>
      <trkpt lat="47.34244" lon="-1.2223">
        <ele>67</ele>
        <time>2011-10-02T09:55:45Z</time>
      </trkpt>
      <trkpt lat="47.34246" lon="-1.22223">
        <ele>66.7</ele>
        <time>2011-10-02T09:55:46Z</time>
      </trkpt>
      <trkpt lat="47.34247" lon="-1.22213">
        <ele>66.5</ele>
        <time>2011-10-02T09:55:47Z</time>
      </trkpt>
      <trkpt lat="47.34248" lon="-1.22205">
        <ele>66.8</ele>
        <time>2011-10-02T09:55:48Z</time>
      </trkpt>
      <trkpt lat="47.34248" lon="-1.22195">
        <ele>66.7</ele>
        <time>2011-10-02T09:55:49Z</time>
      </trkpt>
      <trkpt lat="47.34249" lon="-1.22188">
        <ele>67.1</ele>
        <time>2011-10-02T09:55:50Z</time>
      </trkpt>
      <trkpt lat="47.34251" lon="-1.22174">
        <ele>66.6</ele>
        <time>2011-10-02T09:55:52Z</time>
      </trkpt>
      <trkpt lat="47.34252" lon="-1.2216">
        <ele>67.4</ele>
        <time>2011-10-02T09:55:54Z</time>
      </trkpt>
      <trkpt lat="47.34252" lon="-1.22148">
        <ele>68</ele>
        <time>2011-10-02T09:55:55Z</time>
      </trkpt>
      <trkpt lat="47.34254" lon="-1.22139">
        <ele>68.5</ele>
        <time>2011-10-02T09:55:56Z</time>
      </trkpt>
      <trkpt lat="47.34254" lon="-1.2213">
        <ele>68.4</ele>
        <time>2011-10-02T09:55:57Z</time>
      </trkpt>
      <trkpt lat="47.34255" lon="-1.22122">
        <ele>68.8</ele>
        <time>2011-10-02T09:55:58Z</time>
      </trkpt>
      <trkpt lat="47.34256" lon="-1.22113">
        <ele>68.3</ele>
        <time>2011-10-02T09:55:59Z</time>
      </trkpt>
      <trkpt lat="47.34258" lon="-1.22101">
        <ele>69.1</ele>
        <time>2011-10-02T09:56:00Z</time>
      </trkpt>
      <trkpt lat="47.3426" lon="-1.22091">
        <ele>69.1</ele>
        <time>2011-10-02T09:56:01Z</time>
      </trkpt>
      <trkpt lat="47.34264" lon="-1.22077">
        <ele>68.7</ele>
        <time>2011-10-02T09:56:02Z</time>
      </trkpt>
      <trkpt lat="47.34268" lon="-1.22064">
        <ele>68.4</ele>
        <time>2011-10-02T09:56:03Z</time>
      </trkpt>
      <trkpt lat="47.34272" lon="-1.22054">
        <ele>68.1</ele>
        <time>2011-10-02T09:56:04Z</time>
      </trkpt>
      <trkpt lat="47.34277" lon="-1.22045">
        <ele>68.6</ele>
        <time>2011-10-02T09:56:05Z</time>
      </trkpt>
      <trkpt lat="47.34282" lon="-1.22037">
        <ele>69.3</ele>
        <time>2011-10-02T09:56:06Z</time>
      </trkpt>
      <trkpt lat="47.34287" lon="-1.22029">
        <ele>68.9</ele>
        <time>2011-10-02T09:56:07Z</time>
      </trkpt>
      <trkpt lat="47.34287" lon="-1.22011">
        <ele>68.9</ele>
        <time>2011-10-02T09:56:09Z</time>
      </trkpt>
      <trkpt lat="47.3429" lon="-1.21999">
        <ele>69.5</ele>
        <time>2011-10-02T09:56:11Z</time>
      </trkpt>
      <trkpt lat="47.34291" lon="-1.2199">
        <ele>69.7</ele>
        <time>2011-10-02T09:56:12Z</time>
      </trkpt>
      <trkpt lat="47.3429" lon="-1.21982">
        <ele>69.7</ele>
        <time>2011-10-02T09:56:13Z</time>
      </trkpt>
      <trkpt lat="47.34288" lon="-1.21968">
        <ele>70.9</ele>
        <time>2011-10-02T09:56:15Z</time>
      </trkpt>
      <trkpt lat="47.34288" lon="-1.21961">
        <ele>71.4</ele>
        <time>2011-10-02T09:56:16Z</time>
      </trkpt>
      <trkpt lat="47.34287" lon="-1.21952">
        <ele>71.5</ele>
        <time>2011-10-02T09:56:17Z</time>
      </trkpt>
      <trkpt lat="47.34288" lon="-1.21944">
        <ele>72.2</ele>
        <time>2011-10-02T09:56:18Z</time>
      </trkpt>
      <trkpt lat="47.34287" lon="-1.21936">
        <ele>72.2</ele>
        <time>2011-10-02T09:56:19Z</time>
      </trkpt>
      <trkpt lat="47.34287" lon="-1.21924">
        <ele>71</ele>
        <time>2011-10-02T09:56:20Z</time>
      </trkpt>
      <trkpt lat="47.34287" lon="-1.21916">
        <ele>71.2</ele>
        <time>2011-10-02T09:56:21Z</time>
      </trkpt>
      <trkpt lat="47.34286" lon="-1.21901">
        <ele>72</ele>
        <time>2011-10-02T09:56:23Z</time>
      </trkpt>
      <trkpt lat="47.34288" lon="-1.21891">
        <ele>72.3</ele>
        <time>2011-10-02T09:56:24Z</time>
      </trkpt>
      <trkpt lat="47.34287" lon="-1.21883">
        <ele>72.9</ele>
        <time>2011-10-02T09:56:25Z</time>
      </trkpt>
      <trkpt lat="47.34289" lon="-1.21874">
        <ele>72.4</ele>
        <time>2011-10-02T09:56:26Z</time>
      </trkpt>
      <trkpt lat="47.3429" lon="-1.21864">
        <ele>72.8</ele>
        <time>2011-10-02T09:56:27Z</time>
      </trkpt>
      <trkpt lat="47.3429" lon="-1.21857">
        <ele>72.5</ele>
        <time>2011-10-02T09:56:28Z</time>
      </trkpt>
      <trkpt lat="47.34289" lon="-1.2185">
        <ele>72.5</ele>
        <time>2011-10-02T09:56:29Z</time>
      </trkpt>
      <trkpt lat="47.34287" lon="-1.21843">
        <ele>71.7</ele>
        <time>2011-10-02T09:56:30Z</time>
      </trkpt>
      <trkpt lat="47.34283" lon="-1.2184">
        <ele>71.4</ele>
        <time>2011-10-02T09:56:31Z</time>
      </trkpt>
      <trkpt lat="47.34274" lon="-1.21838">
        <ele>71.1</ele>
        <time>2011-10-02T09:56:33Z</time>
      </trkpt>
      <trkpt lat="47.34268" lon="-1.21837">
        <ele>71.1</ele>
        <time>2011-10-02T09:56:34Z</time>
      </trkpt>
      <trkpt lat="47.34264" lon="-1.21836">
        <ele>70.3</ele>
        <time>2011-10-02T09:56:35Z</time>
      </trkpt>
      <trkpt lat="47.34259" lon="-1.21835">
        <ele>69.5</ele>
        <time>2011-10-02T09:56:36Z</time>
      </trkpt>
      <trkpt lat="47.34254" lon="-1.21833">
        <ele>68.7</ele>
        <time>2011-10-02T09:56:37Z</time>
      </trkpt>
      <trkpt lat="47.34247" lon="-1.21829">
        <ele>67.5</ele>
        <time>2011-10-02T09:56:39Z</time>
      </trkpt>
      <trkpt lat="47.34238" lon="-1.21829">
        <ele>67.7</ele>
        <time>2011-10-02T09:56:41Z</time>
      </trkpt>
      <trkpt lat="47.34232" lon="-1.21827">
        <ele>67.7</ele>
        <time>2011-10-02T09:56:42Z</time>
      </trkpt>
      <trkpt lat="47.34227" lon="-1.21828">
        <ele>67.1</ele>
        <time>2011-10-02T09:56:43Z</time>
      </trkpt>
      <trkpt lat="47.34216" lon="-1.21827">
        <ele>66.6</ele>
        <time>2011-10-02T09:56:45Z</time>
      </trkpt>
      <trkpt lat="47.3421" lon="-1.21824">
        <ele>66.9</ele>
        <time>2011-10-02T09:56:47Z</time>
      </trkpt>
      <trkpt lat="47.34205" lon="-1.21825">
        <ele>68</ele>
        <time>2011-10-02T09:56:49Z</time>
      </trkpt>
      <trkpt lat="47.34198" lon="-1.21825">
        <ele>67</ele>
        <time>2011-10-02T09:56:51Z</time>
      </trkpt>
      <trkpt lat="47.34193" lon="-1.21831">
        <ele>67</ele>
        <time>2011-10-02T09:56:54Z</time>
      </trkpt>
      <trkpt lat="47.34188" lon="-1.21835">
        <ele>67.5</ele>
        <time>2011-10-02T09:56:56Z</time>
      </trkpt>
      <trkpt lat="47.34185" lon="-1.2184">
        <ele>67.8</ele>
        <time>2011-10-02T09:56:58Z</time>
      </trkpt>
      <trkpt lat="47.3418" lon="-1.21832">
        <ele>69</ele>
        <time>2011-10-02T09:57:01Z</time>
      </trkpt>
      <trkpt lat="47.34176" lon="-1.21828">
        <ele>66.2</ele>
        <time>2011-10-02T09:57:02Z</time>
      </trkpt>
      <trkpt lat="47.34174" lon="-1.21821">
        <ele>66.1</ele>
        <time>2011-10-02T09:57:05Z</time>
      </trkpt>
      <trkpt lat="47.34173" lon="-1.21812">
        <ele>66</ele>
        <time>2011-10-02T09:57:07Z</time>
      </trkpt>
      <trkpt lat="47.34173" lon="-1.21802">
        <ele>65.8</ele>
        <time>2011-10-02T09:57:09Z</time>
      </trkpt>
      <trkpt lat="47.34172" lon="-1.21796">
        <ele>66.1</ele>
        <time>2011-10-02T09:57:10Z</time>
      </trkpt>
      <trkpt lat="47.34169" lon="-1.2178">
        <ele>64.1</ele>
        <time>2011-10-02T09:57:12Z</time>
      </trkpt>
      <trkpt lat="47.34166" lon="-1.21765">
        <ele>63.3</ele>
        <time>2011-10-02T09:57:14Z</time>
      </trkpt>
      <trkpt lat="47.34164" lon="-1.21759">
        <ele>63.2</ele>
        <time>2011-10-02T09:57:15Z</time>
      </trkpt>
      <trkpt lat="47.34161" lon="-1.21748">
        <ele>64</ele>
        <time>2011-10-02T09:57:17Z</time>
      </trkpt>
      <trkpt lat="47.34158" lon="-1.21737">
        <ele>65.1</ele>
        <time>2011-10-02T09:57:19Z</time>
      </trkpt>
      <trkpt lat="47.34156" lon="-1.21727">
        <ele>64.4</ele>
        <time>2011-10-02T09:57:21Z</time>
      </trkpt>
      <trkpt lat="47.34152" lon="-1.21718">
        <ele>64.9</ele>
        <time>2011-10-02T09:57:23Z</time>
      </trkpt>
      <trkpt lat="47.34151" lon="-1.21706">
        <ele>65.3</ele>
        <time>2011-10-02T09:57:25Z</time>
      </trkpt>
      <trkpt lat="47.34149" lon="-1.21699">
        <ele>65.5</ele>
        <time>2011-10-02T09:57:26Z</time>
      </trkpt>
      <trkpt lat="47.34147" lon="-1.21692">
        <ele>65.3</ele>
        <time>2011-10-02T09:57:27Z</time>
      </trkpt>
      <trkpt lat="47.34147" lon="-1.21676">
        <ele>64.7</ele>
        <time>2011-10-02T09:57:29Z</time>
      </trkpt>
      <trkpt lat="47.34147" lon="-1.21668">
        <ele>64.7</ele>
        <time>2011-10-02T09:57:30Z</time>
      </trkpt>
      <trkpt lat="47.34147" lon="-1.21661">
        <ele>65.1</ele>
        <time>2011-10-02T09:57:31Z</time>
      </trkpt>
      <trkpt lat="47.34148" lon="-1.2165">
        <ele>65.8</ele>
        <time>2011-10-02T09:57:33Z</time>
      </trkpt>
      <trkpt lat="47.34149" lon="-1.21643">
        <ele>65.2</ele>
        <time>2011-10-02T09:57:34Z</time>
      </trkpt>
      <trkpt lat="47.34149" lon="-1.21635">
        <ele>65.2</ele>
        <time>2011-10-02T09:57:35Z</time>
      </trkpt>
      <trkpt lat="47.34151" lon="-1.2162">
        <ele>65.5</ele>
        <time>2011-10-02T09:57:37Z</time>
      </trkpt>
      <trkpt lat="47.34153" lon="-1.2161">
        <ele>65.3</ele>
        <time>2011-10-02T09:57:39Z</time>
      </trkpt>
      <trkpt lat="47.34152" lon="-1.21596">
        <ele>65.1</ele>
        <time>2011-10-02T09:57:41Z</time>
      </trkpt>
      <trkpt lat="47.34151" lon="-1.21589">
        <ele>65.4</ele>
        <time>2011-10-02T09:57:42Z</time>
      </trkpt>
      <trkpt lat="47.34149" lon="-1.2158">
        <ele>66</ele>
        <time>2011-10-02T09:57:43Z</time>
      </trkpt>
      <trkpt lat="47.34147" lon="-1.21571">
        <ele>66.5</ele>
        <time>2011-10-02T09:57:44Z</time>
      </trkpt>
      <trkpt lat="47.34145" lon="-1.21562">
        <ele>67.1</ele>
        <time>2011-10-02T09:57:45Z</time>
      </trkpt>
      <trkpt lat="47.34145" lon="-1.21554">
        <ele>67.4</ele>
        <time>2011-10-02T09:57:46Z</time>
      </trkpt>
      <trkpt lat="47.34144" lon="-1.21547">
        <ele>67.7</ele>
        <time>2011-10-02T09:57:47Z</time>
      </trkpt>
      <trkpt lat="47.34141" lon="-1.21541">
        <ele>67.7</ele>
        <time>2011-10-02T09:57:48Z</time>
      </trkpt>
      <trkpt lat="47.34141" lon="-1.21534">
        <ele>68.1</ele>
        <time>2011-10-02T09:57:49Z</time>
      </trkpt>
      <trkpt lat="47.34144" lon="-1.21528">
        <ele>68.3</ele>
        <time>2011-10-02T09:57:50Z</time>
      </trkpt>
      <trkpt lat="47.34146" lon="-1.2152">
        <ele>67.7</ele>
        <time>2011-10-02T09:57:51Z</time>
      </trkpt>
      <trkpt lat="47.34147" lon="-1.21511">
        <ele>67.3</ele>
        <time>2011-10-02T09:57:52Z</time>
      </trkpt>
      <trkpt lat="47.34151" lon="-1.21504">
        <ele>66.9</ele>
        <time>2011-10-02T09:57:53Z</time>
      </trkpt>
      <trkpt lat="47.34152" lon="-1.21495">
        <ele>66.7</ele>
        <time>2011-10-02T09:57:54Z</time>
      </trkpt>
      <trkpt lat="47.34153" lon="-1.21485">
        <ele>67.4</ele>
        <time>2011-10-02T09:57:55Z</time>
      </trkpt>
      <trkpt lat="47.34151" lon="-1.21475">
        <ele>67.6</ele>
        <time>2011-10-02T09:57:56Z</time>
      </trkpt>
      <trkpt lat="47.34151" lon="-1.21466">
        <ele>67.6</ele>
        <time>2011-10-02T09:57:57Z</time>
      </trkpt>
      <trkpt lat="47.34153" lon="-1.21457">
        <ele>67.7</ele>
        <time>2011-10-02T09:57:58Z</time>
      </trkpt>
      <trkpt lat="47.34152" lon="-1.21449">
        <ele>68.2</ele>
        <time>2011-10-02T09:57:59Z</time>
      </trkpt>
      <trkpt lat="47.34155" lon="-1.2144">
        <ele>68.2</ele>
        <time>2011-10-02T09:58:00Z</time>
      </trkpt>
      <trkpt lat="47.34154" lon="-1.21428">
        <ele>68.5</ele>
        <time>2011-10-02T09:58:01Z</time>
      </trkpt>
      <trkpt lat="47.34154" lon="-1.21415">
        <ele>68.8</ele>
        <time>2011-10-02T09:58:03Z</time>
      </trkpt>
      <trkpt lat="47.34154" lon="-1.21404">
        <ele>68.2</ele>
        <time>2011-10-02T09:58:04Z</time>
      </trkpt>
      <trkpt lat="47.34156" lon="-1.21395">
        <ele>68.4</ele>
        <time>2011-10-02T09:58:05Z</time>
      </trkpt>
      <trkpt lat="47.34158" lon="-1.21385">
        <ele>69.8</ele>
        <time>2011-10-02T09:58:06Z</time>
      </trkpt>
      <trkpt lat="47.34157" lon="-1.21375">
        <ele>70.1</ele>
        <time>2011-10-02T09:58:07Z</time>
      </trkpt>
      <trkpt lat="47.34159" lon="-1.21368">
        <ele>70.9</ele>
        <time>2011-10-02T09:58:08Z</time>
      </trkpt>
      <trkpt lat="47.34159" lon="-1.21361">
        <ele>70.1</ele>
        <time>2011-10-02T09:58:09Z</time>
      </trkpt>
      <trkpt lat="47.34159" lon="-1.21353">
        <ele>70.9</ele>
        <time>2011-10-02T09:58:10Z</time>
      </trkpt>
      <trkpt lat="47.34159" lon="-1.21345">
        <ele>70.9</ele>
        <time>2011-10-02T09:58:11Z</time>
      </trkpt>
      <trkpt lat="47.34159" lon="-1.21338">
        <ele>71.4</ele>
        <time>2011-10-02T09:58:12Z</time>
      </trkpt>
      <trkpt lat="47.34158" lon="-1.21326">
        <ele>73.7</ele>
        <time>2011-10-02T09:58:14Z</time>
      </trkpt>
      <trkpt lat="47.34159" lon="-1.21312">
        <ele>74</ele>
        <time>2011-10-02T09:58:16Z</time>
      </trkpt>
      <trkpt lat="47.34161" lon="-1.21306">
        <ele>74.9</ele>
        <time>2011-10-02T09:58:17Z</time>
      </trkpt>
      <trkpt lat="47.34162" lon="-1.21299">
        <ele>76.2</ele>
        <time>2011-10-02T09:58:18Z</time>
      </trkpt>
      <trkpt lat="47.34159" lon="-1.21292">
        <ele>76.1</ele>
        <time>2011-10-02T09:58:19Z</time>
      </trkpt>
      <trkpt lat="47.34161" lon="-1.21283">
        <ele>73.8</ele>
        <time>2011-10-02T09:58:21Z</time>
      </trkpt>
      <trkpt lat="47.34153" lon="-1.21278">
        <ele>74.8</ele>
        <time>2011-10-02T09:58:24Z</time>
      </trkpt>
      <trkpt lat="47.34148" lon="-1.21275">
        <ele>75</ele>
        <time>2011-10-02T09:58:25Z</time>
      </trkpt>
      <trkpt lat="47.34137" lon="-1.21269">
        <ele>76.9</ele>
        <time>2011-10-02T09:58:28Z</time>
      </trkpt>
      <trkpt lat="47.34132" lon="-1.21262">
        <ele>75.2</ele>
        <time>2011-10-02T09:58:31Z</time>
      </trkpt>
      <trkpt lat="47.3413" lon="-1.21254">
        <ele>76.5</ele>
        <time>2011-10-02T09:58:33Z</time>
      </trkpt>
      <trkpt lat="47.3413" lon="-1.21246">
        <ele>77.1</ele>
        <time>2011-10-02T09:58:34Z</time>
      </trkpt>
      <trkpt lat="47.34128" lon="-1.21239">
        <ele>75.2</ele>
        <time>2011-10-02T09:58:36Z</time>
      </trkpt>
      <trkpt lat="47.34123" lon="-1.21224">
        <ele>73.3</ele>
        <time>2011-10-02T09:58:40Z</time>
      </trkpt>
      <trkpt lat="47.34123" lon="-1.21218">
        <ele>73.6</ele>
        <time>2011-10-02T09:58:43Z</time>
      </trkpt>
      <trkpt lat="47.34123" lon="-1.2121">
        <ele>74.3</ele>
        <time>2011-10-02T09:58:45Z</time>
      </trkpt>
      <trkpt lat="47.34123" lon="-1.21195">
        <ele>73.5</ele>
        <time>2011-10-02T09:58:48Z</time>
      </trkpt>
      <trkpt lat="47.34121" lon="-1.21187">
        <ele>74.6</ele>
        <time>2011-10-02T09:58:50Z</time>
      </trkpt>
      <trkpt lat="47.34121" lon="-1.21176">
        <ele>75.3</ele>
        <time>2011-10-02T09:58:53Z</time>
      </trkpt>
      <trkpt lat="47.3412" lon="-1.21168">
        <ele>75.6</ele>
        <time>2011-10-02T09:58:55Z</time>
      </trkpt>
      <trkpt lat="47.34118" lon="-1.21161">
        <ele>76.1</ele>
        <time>2011-10-02T09:58:57Z</time>
      </trkpt>
      <trkpt lat="47.34114" lon="-1.21155">
        <ele>75.7</ele>
        <time>2011-10-02T09:58:59Z</time>
      </trkpt>
      <trkpt lat="47.34112" lon="-1.21148">
        <ele>76.1</ele>
        <time>2011-10-02T09:59:02Z</time>
      </trkpt>
      <trkpt lat="47.3411" lon="-1.21141">
        <ele>76.2</ele>
        <time>2011-10-02T09:59:04Z</time>
      </trkpt>
      <trkpt lat="47.34108" lon="-1.21134">
        <ele>76.7</ele>
        <time>2011-10-02T09:59:06Z</time>
      </trkpt>
      <trkpt lat="47.34108" lon="-1.21124">
        <ele>77.1</ele>
        <time>2011-10-02T09:59:08Z</time>
      </trkpt>
      <trkpt lat="47.34111" lon="-1.21119">
        <ele>78.1</ele>
        <time>2011-10-02T09:59:09Z</time>
      </trkpt>
      <trkpt lat="47.34115" lon="-1.21113">
        <ele>79.3</ele>
        <time>2011-10-02T09:59:10Z</time>
      </trkpt>
      <trkpt lat="47.34119" lon="-1.21106">
        <ele>80.5</ele>
        <time>2011-10-02T09:59:11Z</time>
      </trkpt>
      <trkpt lat="47.34123" lon="-1.21104">
        <ele>81.3</ele>
        <time>2011-10-02T09:59:12Z</time>
      </trkpt>
      <trkpt lat="47.34125" lon="-1.21094">
        <ele>81.9</ele>
        <time>2011-10-02T09:59:15Z</time>
      </trkpt>
      <trkpt lat="47.34125" lon="-1.21083">
        <ele>82.3</ele>
        <time>2011-10-02T09:59:17Z</time>
      </trkpt>
      <trkpt lat="47.34131" lon="-1.21077">
        <ele>82.9</ele>
        <time>2011-10-02T09:59:19Z</time>
      </trkpt>
      <trkpt lat="47.34135" lon="-1.2107">
        <ele>83.7</ele>
        <time>2011-10-02T09:59:21Z</time>
      </trkpt>
      <trkpt lat="47.3414" lon="-1.21067">
        <ele>86.2</ele>
        <time>2011-10-02T09:59:22Z</time>
      </trkpt>
      <trkpt lat="47.3414" lon="-1.2106">
        <ele>87</ele>
        <time>2011-10-02T09:59:32Z</time>
      </trkpt>
      <trkpt lat="47.34141" lon="-1.21052">
        <ele>89.4</ele>
        <time>2011-10-02T09:59:35Z</time>
      </trkpt>
      <trkpt lat="47.34139" lon="-1.21044">
        <ele>90.5</ele>
        <time>2011-10-02T09:59:39Z</time>
      </trkpt>
      <trkpt lat="47.34139" lon="-1.21036">
        <ele>91.7</ele>
        <time>2011-10-02T09:59:43Z</time>
      </trkpt>
      <trkpt lat="47.34136" lon="-1.21029">
        <ele>94.1</ele>
        <time>2011-10-02T09:59:48Z</time>
      </trkpt>
      <trkpt lat="47.34134" lon="-1.21022">
        <ele>93.8</ele>
        <time>2011-10-02T09:59:51Z</time>
      </trkpt>
      <trkpt lat="47.34135" lon="-1.21014">
        <ele>93.3</ele>
        <time>2011-10-02T09:59:55Z</time>
      </trkpt>
      <trkpt lat="47.34138" lon="-1.21005">
        <ele>91.6</ele>
        <time>2011-10-02T09:59:58Z</time>
      </trkpt>
      <trkpt lat="47.34139" lon="-1.20996">
        <ele>91.7</ele>
        <time>2011-10-02T10:00:04Z</time>
      </trkpt>
      <trkpt lat="47.34137" lon="-1.20988">
        <ele>92.9</ele>
        <time>2011-10-02T10:00:08Z</time>
      </trkpt>
      <trkpt lat="47.34134" lon="-1.2098">
        <ele>94.9</ele>
        <time>2011-10-02T10:00:15Z</time>
      </trkpt>
      <trkpt lat="47.34133" lon="-1.20973">
        <ele>94.8</ele>
        <time>2011-10-02T10:00:20Z</time>
      </trkpt>
      <trkpt lat="47.34133" lon="-1.20965">
        <ele>94.3</ele>
        <time>2011-10-02T10:00:25Z</time>
      </trkpt>
      <trkpt lat="47.34131" lon="-1.20957">
        <ele>93.8</ele>
        <time>2011-10-02T10:00:28Z</time>
      </trkpt>
      <trkpt lat="47.34128" lon="-1.2095">
        <ele>93.7</ele>
        <time>2011-10-02T10:00:32Z</time>
      </trkpt>
      <trkpt lat="47.34129" lon="-1.20943">
        <ele>92.9</ele>
        <time>2011-10-02T10:00:36Z</time>
      </trkpt>
      <trkpt lat="47.34127" lon="-1.20936">
        <ele>92.2</ele>
        <time>2011-10-02T10:00:40Z</time>
      </trkpt>
      <trkpt lat="47.34124" lon="-1.20931">
        <ele>92.9</ele>
        <time>2011-10-02T10:00:45Z</time>
      </trkpt>
      <trkpt lat="47.34123" lon="-1.20923">
        <ele>93.4</ele>
        <time>2011-10-02T10:00:49Z</time>
      </trkpt>
      <trkpt lat="47.34122" lon="-1.20913">
        <ele>93.4</ele>
        <time>2011-10-02T10:00:53Z</time>
      </trkpt>
      <trkpt lat="47.34119" lon="-1.20906">
        <ele>94.3</ele>
        <time>2011-10-02T10:00:56Z</time>
      </trkpt>
      <trkpt lat="47.34119" lon="-1.20899">
        <ele>94</ele>
        <time>2011-10-02T10:00:58Z</time>
      </trkpt>
      <trkpt lat="47.34118" lon="-1.20892">
        <ele>93.8</ele>
        <time>2011-10-02T10:01:01Z</time>
      </trkpt>
      <trkpt lat="47.34116" lon="-1.20885">
        <ele>93.1</ele>
        <time>2011-10-02T10:01:04Z</time>
      </trkpt>
      <trkpt lat="47.34116" lon="-1.20878">
        <ele>92.3</ele>
        <time>2011-10-02T10:01:07Z</time>
      </trkpt>
      <trkpt lat="47.34111" lon="-1.20868">
        <ele>95.1</ele>
        <time>2011-10-02T10:01:11Z</time>
      </trkpt>
      <trkpt lat="47.3411" lon="-1.20862">
        <ele>96.4</ele>
        <time>2011-10-02T10:01:13Z</time>
      </trkpt>
      <trkpt lat="47.34108" lon="-1.20855">
        <ele>96</ele>
        <time>2011-10-02T10:01:15Z</time>
      </trkpt>
      <trkpt lat="47.34107" lon="-1.20846">
        <ele>96.6</ele>
        <time>2011-10-02T10:01:18Z</time>
      </trkpt>
      <trkpt lat="47.34108" lon="-1.20837">
        <ele>96.5</ele>
        <time>2011-10-02T10:01:20Z</time>
      </trkpt>
      <trkpt lat="47.34106" lon="-1.20828">
        <ele>96.4</ele>
        <time>2011-10-02T10:01:22Z</time>
      </trkpt>
      <trkpt lat="47.34109" lon="-1.20821">
        <ele>97.4</ele>
        <time>2011-10-02T10:01:24Z</time>
      </trkpt>
      <trkpt lat="47.34108" lon="-1.20814">
        <ele>97.3</ele>
        <time>2011-10-02T10:01:25Z</time>
      </trkpt>
      <trkpt lat="47.34108" lon="-1.20805">
        <ele>97.4</ele>
        <time>2011-10-02T10:01:27Z</time>
      </trkpt>
      <trkpt lat="47.34108" lon="-1.20797">
        <ele>98.2</ele>
        <time>2011-10-02T10:01:29Z</time>
      </trkpt>
      <trkpt lat="47.34106" lon="-1.20788">
        <ele>100.2</ele>
        <time>2011-10-02T10:01:31Z</time>
      </trkpt>
      <trkpt lat="47.34103" lon="-1.20781">
        <ele>100.6</ele>
        <time>2011-10-02T10:01:33Z</time>
      </trkpt>
      <trkpt lat="47.341" lon="-1.20774">
        <ele>100.6</ele>
        <time>2011-10-02T10:01:35Z</time>
      </trkpt>
      <trkpt lat="47.34097" lon="-1.20767">
        <ele>100.9</ele>
        <time>2011-10-02T10:01:37Z</time>
      </trkpt>
      <trkpt lat="47.34094" lon="-1.20758">
        <ele>100.5</ele>
        <time>2011-10-02T10:01:39Z</time>
      </trkpt>
      <trkpt lat="47.3409" lon="-1.20748">
        <ele>100.9</ele>
        <time>2011-10-02T10:01:42Z</time>
      </trkpt>
      <trkpt lat="47.34087" lon="-1.20742">
        <ele>100.4</ele>
        <time>2011-10-02T10:01:44Z</time>
      </trkpt>
      <trkpt lat="47.34085" lon="-1.20735">
        <ele>100.3</ele>
        <time>2011-10-02T10:01:46Z</time>
      </trkpt>
      <trkpt lat="47.34084" lon="-1.20727">
        <ele>100.3</ele>
        <time>2011-10-02T10:01:49Z</time>
      </trkpt>
      <trkpt lat="47.34084" lon="-1.20719">
        <ele>100.4</ele>
        <time>2011-10-02T10:01:52Z</time>
      </trkpt>
      <trkpt lat="47.34084" lon="-1.20709">
        <ele>100.6</ele>
        <time>2011-10-02T10:01:54Z</time>
      </trkpt>
      <trkpt lat="47.34082" lon="-1.20702">
        <ele>99.8</ele>
        <time>2011-10-02T10:01:56Z</time>
      </trkpt>
      <trkpt lat="47.34079" lon="-1.20696">
        <ele>100.7</ele>
        <time>2011-10-02T10:01:58Z</time>
      </trkpt>
      <trkpt lat="47.34082" lon="-1.20688">
        <ele>100.8</ele>
        <time>2011-10-02T10:02:00Z</time>
      </trkpt>
      <trkpt lat="47.34083" lon="-1.20679">
        <ele>101.3</ele>
        <time>2011-10-02T10:02:02Z</time>
      </trkpt>
      <trkpt lat="47.34086" lon="-1.2067">
        <ele>101.4</ele>
        <time>2011-10-02T10:02:05Z</time>
      </trkpt>
      <trkpt lat="47.34092" lon="-1.20665">
        <ele>99.5</ele>
        <time>2011-10-02T10:02:07Z</time>
      </trkpt>
      <trkpt lat="47.34098" lon="-1.20663">
        <ele>99.7</ele>
        <time>2011-10-02T10:02:08Z</time>
      </trkpt>
      <trkpt lat="47.34104" lon="-1.20659">
        <ele>97.5</ele>
        <time>2011-10-02T10:02:10Z</time>
      </trkpt>
      <trkpt lat="47.34113" lon="-1.20663">
        <ele>97.3</ele>
        <time>2011-10-02T10:02:11Z</time>
      </trkpt>
      <trkpt lat="47.34122" lon="-1.20664">
        <ele>97.4</ele>
        <time>2011-10-02T10:02:13Z</time>
      </trkpt>
      <trkpt lat="47.34129" lon="-1.20668">
        <ele>97</ele>
        <time>2011-10-02T10:02:15Z</time>
      </trkpt>
      <trkpt lat="47.34134" lon="-1.20667">
        <ele>96.3</ele>
        <time>2011-10-02T10:02:17Z</time>
      </trkpt>
      <trkpt lat="47.34139" lon="-1.20661">
        <ele>96</ele>
        <time>2011-10-02T10:02:19Z</time>
      </trkpt>
      <trkpt lat="47.3414" lon="-1.20653">
        <ele>95.7</ele>
        <time>2011-10-02T10:02:23Z</time>
      </trkpt>
      <trkpt lat="47.34135" lon="-1.20647">
        <ele>95.4</ele>
        <time>2011-10-02T10:02:28Z</time>
      </trkpt>
      <trkpt lat="47.34131" lon="-1.20642">
        <ele>94.6</ele>
        <time>2011-10-02T10:02:30Z</time>
      </trkpt>
      <trkpt lat="47.34125" lon="-1.20638">
        <ele>93.8</ele>
        <time>2011-10-02T10:02:32Z</time>
      </trkpt>
      <trkpt lat="47.34119" lon="-1.20634">
        <ele>95.9</ele>
        <time>2011-10-02T10:02:35Z</time>
      </trkpt>
      <trkpt lat="47.34114" lon="-1.2063">
        <ele>96.4</ele>
        <time>2011-10-02T10:02:38Z</time>
      </trkpt>
      <trkpt lat="47.3412" lon="-1.20625">
        <ele>99.2</ele>
        <time>2011-10-02T10:02:53Z</time>
      </trkpt>
      <trkpt lat="47.34125" lon="-1.2062">
        <ele>99.4</ele>
        <time>2011-10-02T10:02:54Z</time>
      </trkpt>
      <trkpt lat="47.34123" lon="-1.20606">
        <ele>101.9</ele>
        <time>2011-10-02T10:02:56Z</time>
      </trkpt>
      <trkpt lat="47.34123" lon="-1.20597">
        <ele>103</ele>
        <time>2011-10-02T10:02:57Z</time>
      </trkpt>
      <trkpt lat="47.34122" lon="-1.20588">
        <ele>103.9</ele>
        <time>2011-10-02T10:02:58Z</time>
      </trkpt>
      <trkpt lat="47.34123" lon="-1.20578">
        <ele>104.4</ele>
        <time>2011-10-02T10:02:59Z</time>
      </trkpt>
      <trkpt lat="47.34123" lon="-1.20567">
        <ele>105.2</ele>
        <time>2011-10-02T10:03:00Z</time>
      </trkpt>
      <trkpt lat="47.34125" lon="-1.20558">
        <ele>105.1</ele>
        <time>2011-10-02T10:03:01Z</time>
      </trkpt>
      <trkpt lat="47.34126" lon="-1.2055">
        <ele>104.9</ele>
        <time>2011-10-02T10:03:02Z</time>
      </trkpt>
      <trkpt lat="47.34127" lon="-1.20542">
        <ele>105.3</ele>
        <time>2011-10-02T10:03:03Z</time>
      </trkpt>
      <trkpt lat="47.34126" lon="-1.20534">
        <ele>105.4</ele>
        <time>2011-10-02T10:03:04Z</time>
      </trkpt>
      <trkpt lat="47.34125" lon="-1.20525">
        <ele>105</ele>
        <time>2011-10-02T10:03:05Z</time>
      </trkpt>
      <trkpt lat="47.34126" lon="-1.20517">
        <ele>103.8</ele>
        <time>2011-10-02T10:03:06Z</time>
      </trkpt>
      <trkpt lat="47.34128" lon="-1.20503">
        <ele>101.6</ele>
        <time>2011-10-02T10:03:08Z</time>
      </trkpt>
      <trkpt lat="47.34131" lon="-1.20491">
        <ele>99.8</ele>
        <time>2011-10-02T10:03:10Z</time>
      </trkpt>
      <trkpt lat="47.34136" lon="-1.20487">
        <ele>97.8</ele>
        <time>2011-10-02T10:03:11Z</time>
      </trkpt>
      <trkpt lat="47.34139" lon="-1.20481">
        <ele>95.8</ele>
        <time>2011-10-02T10:03:12Z</time>
      </trkpt>
      <trkpt lat="47.34143" lon="-1.20473">
        <ele>94.9</ele>
        <time>2011-10-02T10:03:14Z</time>
      </trkpt>
      <trkpt lat="47.34147" lon="-1.20466">
        <ele>94</ele>
        <time>2011-10-02T10:03:16Z</time>
      </trkpt>
      <trkpt lat="47.34149" lon="-1.2046">
        <ele>92.1</ele>
        <time>2011-10-02T10:03:18Z</time>
      </trkpt>
      <trkpt lat="47.34154" lon="-1.20454">
        <ele>90.6</ele>
        <time>2011-10-02T10:03:20Z</time>
      </trkpt>
      <trkpt lat="47.34158" lon="-1.20448">
        <ele>91</ele>
        <time>2011-10-02T10:03:22Z</time>
      </trkpt>
      <trkpt lat="47.34162" lon="-1.20444">
        <ele>91.1</ele>
        <time>2011-10-02T10:03:24Z</time>
      </trkpt>
      <trkpt lat="47.34166" lon="-1.20438">
        <ele>91.2</ele>
        <time>2011-10-02T10:03:26Z</time>
      </trkpt>
      <trkpt lat="47.34172" lon="-1.20431">
        <ele>91.3</ele>
        <time>2011-10-02T10:03:29Z</time>
      </trkpt>
      <trkpt lat="47.34179" lon="-1.20424">
        <ele>90.7</ele>
        <time>2011-10-02T10:03:31Z</time>
      </trkpt>
      <trkpt lat="47.34187" lon="-1.2042">
        <ele>90</ele>
        <time>2011-10-02T10:03:33Z</time>
      </trkpt>
      <trkpt lat="47.34193" lon="-1.20411">
        <ele>90.5</ele>
        <time>2011-10-02T10:03:35Z</time>
      </trkpt>
      <trkpt lat="47.34196" lon="-1.20398">
        <ele>92.2</ele>
        <time>2011-10-02T10:03:37Z</time>
      </trkpt>
      <trkpt lat="47.342" lon="-1.20387">
        <ele>92.7</ele>
        <time>2011-10-02T10:03:39Z</time>
      </trkpt>
      <trkpt lat="47.34204" lon="-1.20376">
        <ele>92.6</ele>
        <time>2011-10-02T10:03:41Z</time>
      </trkpt>
      <trkpt lat="47.34205" lon="-1.20369">
        <ele>92.9</ele>
        <time>2011-10-02T10:03:42Z</time>
      </trkpt>
      <trkpt lat="47.34204" lon="-1.20361">
        <ele>93.2</ele>
        <time>2011-10-02T10:03:43Z</time>
      </trkpt>
      <trkpt lat="47.34205" lon="-1.20354">
        <ele>93.4</ele>
        <time>2011-10-02T10:03:44Z</time>
      </trkpt>
      <trkpt lat="47.34205" lon="-1.20347">
        <ele>93.3</ele>
        <time>2011-10-02T10:03:45Z</time>
      </trkpt>
      <trkpt lat="47.34206" lon="-1.2034">
        <ele>93.7</ele>
        <time>2011-10-02T10:03:46Z</time>
      </trkpt>
      <trkpt lat="47.34206" lon="-1.20333">
        <ele>94.1</ele>
        <time>2011-10-02T10:03:47Z</time>
      </trkpt>
      <trkpt lat="47.34206" lon="-1.20325">
        <ele>94.4</ele>
        <time>2011-10-02T10:03:48Z</time>
      </trkpt>
      <trkpt lat="47.34208" lon="-1.20313">
        <ele>94.6</ele>
        <time>2011-10-02T10:03:50Z</time>
      </trkpt>
      <trkpt lat="47.34206" lon="-1.20304">
        <ele>94.5</ele>
        <time>2011-10-02T10:03:51Z</time>
      </trkpt>
      <trkpt lat="47.34208" lon="-1.20295">
        <ele>94.9</ele>
        <time>2011-10-02T10:03:53Z</time>
      </trkpt>
      <trkpt lat="47.34201" lon="-1.20295">
        <ele>94.2</ele>
        <time>2011-10-02T10:03:57Z</time>
      </trkpt>
      <trkpt lat="47.34196" lon="-1.20292">
        <ele>95.9</ele>
        <time>2011-10-02T10:03:58Z</time>
      </trkpt>
      <trkpt lat="47.3419" lon="-1.2029">
        <ele>96.1</ele>
        <time>2011-10-02T10:04:00Z</time>
      </trkpt>
      <trkpt lat="47.34185" lon="-1.20282">
        <ele>95.6</ele>
        <time>2011-10-02T10:04:02Z</time>
      </trkpt>
      <trkpt lat="47.34184" lon="-1.20274">
        <ele>95.3</ele>
        <time>2011-10-02T10:04:04Z</time>
      </trkpt>
      <trkpt lat="47.34185" lon="-1.20265">
        <ele>95.6</ele>
        <time>2011-10-02T10:04:06Z</time>
      </trkpt>
      <trkpt lat="47.34185" lon="-1.20255">
        <ele>95.8</ele>
        <time>2011-10-02T10:04:08Z</time>
      </trkpt>
      <trkpt lat="47.34185" lon="-1.20247">
        <ele>97</ele>
        <time>2011-10-02T10:04:10Z</time>
      </trkpt>
      <trkpt lat="47.34185" lon="-1.20239">
        <ele>97.4</ele>
        <time>2011-10-02T10:04:12Z</time>
      </trkpt>
      <trkpt lat="47.34183" lon="-1.20228">
        <ele>97.4</ele>
        <time>2011-10-02T10:04:14Z</time>
      </trkpt>
      <trkpt lat="47.34184" lon="-1.20215">
        <ele>96.3</ele>
        <time>2011-10-02T10:04:16Z</time>
      </trkpt>
      <trkpt lat="47.34184" lon="-1.20208">
        <ele>96.1</ele>
        <time>2011-10-02T10:04:17Z</time>
      </trkpt>
      <trkpt lat="47.34184" lon="-1.20199">
        <ele>95.8</ele>
        <time>2011-10-02T10:04:18Z</time>
      </trkpt>
      <trkpt lat="47.34186" lon="-1.20193">
        <ele>95.7</ele>
        <time>2011-10-02T10:04:19Z</time>
      </trkpt>
      <trkpt lat="47.34187" lon="-1.2018">
        <ele>94.8</ele>
        <time>2011-10-02T10:04:21Z</time>
      </trkpt>
      <trkpt lat="47.34187" lon="-1.20172">
        <ele>94.1</ele>
        <time>2011-10-02T10:04:22Z</time>
      </trkpt>
      <trkpt lat="47.34186" lon="-1.20164">
        <ele>93.9</ele>
        <time>2011-10-02T10:04:23Z</time>
      </trkpt>
      <trkpt lat="47.34185" lon="-1.20155">
        <ele>93.9</ele>
        <time>2011-10-02T10:04:24Z</time>
      </trkpt>
      <trkpt lat="47.34185" lon="-1.20148">
        <ele>94.2</ele>
        <time>2011-10-02T10:04:25Z</time>
      </trkpt>
      <trkpt lat="47.34185" lon="-1.20141">
        <ele>93.8</ele>
        <time>2011-10-02T10:04:26Z</time>
      </trkpt>
      <trkpt lat="47.34185" lon="-1.20131">
        <ele>93.6</ele>
        <time>2011-10-02T10:04:27Z</time>
      </trkpt>
      <trkpt lat="47.34184" lon="-1.20123">
        <ele>93.8</ele>
        <time>2011-10-02T10:04:28Z</time>
      </trkpt>
      <trkpt lat="47.34182" lon="-1.20114">
        <ele>93.7</ele>
        <time>2011-10-02T10:04:29Z</time>
      </trkpt>
      <trkpt lat="47.34181" lon="-1.20104">
        <ele>93.2</ele>
        <time>2011-10-02T10:04:30Z</time>
      </trkpt>
      <trkpt lat="47.34179" lon="-1.20093">
        <ele>92.8</ele>
        <time>2011-10-02T10:04:31Z</time>
      </trkpt>
      <trkpt lat="47.34177" lon="-1.20081">
        <ele>93.2</ele>
        <time>2011-10-02T10:04:32Z</time>
      </trkpt>
      <trkpt lat="47.34176" lon="-1.20068">
        <ele>93.4</ele>
        <time>2011-10-02T10:04:33Z</time>
      </trkpt>
      <trkpt lat="47.34176" lon="-1.2006">
        <ele>93.4</ele>
        <time>2011-10-02T10:04:34Z</time>
      </trkpt>
      <trkpt lat="47.34174" lon="-1.20053">
        <ele>94.1</ele>
        <time>2011-10-02T10:04:35Z</time>
      </trkpt>
      <trkpt lat="47.34172" lon="-1.20045">
        <ele>94.9</ele>
        <time>2011-10-02T10:04:36Z</time>
      </trkpt>
      <trkpt lat="47.34168" lon="-1.20038">
        <ele>96.4</ele>
        <time>2011-10-02T10:04:38Z</time>
      </trkpt>
      <trkpt lat="47.34172" lon="-1.2003">
        <ele>96.9</ele>
        <time>2011-10-02T10:04:56Z</time>
      </trkpt>
      <trkpt lat="47.34179" lon="-1.20025">
        <ele>98</ele>
        <time>2011-10-02T10:04:58Z</time>
      </trkpt>
      <trkpt lat="47.3418" lon="-1.20015">
        <ele>98.3</ele>
        <time>2011-10-02T10:04:59Z</time>
      </trkpt>
      <trkpt lat="47.34183" lon="-1.20005">
        <ele>98.6</ele>
        <time>2011-10-02T10:05:00Z</time>
      </trkpt>
      <trkpt lat="47.34189" lon="-1.19997">
        <ele>97.5</ele>
        <time>2011-10-02T10:05:01Z</time>
      </trkpt>
      <trkpt lat="47.34193" lon="-1.19992">
        <ele>96.5</ele>
        <time>2011-10-02T10:05:02Z</time>
      </trkpt>
      <trkpt lat="47.34201" lon="-1.19987">
        <ele>94.5</ele>
        <time>2011-10-02T10:05:03Z</time>
      </trkpt>
      <trkpt lat="47.34207" lon="-1.19984">
        <ele>93.3</ele>
        <time>2011-10-02T10:05:04Z</time>
      </trkpt>
      <trkpt lat="47.34214" lon="-1.19983">
        <ele>92.9</ele>
        <time>2011-10-02T10:05:05Z</time>
      </trkpt>
      <trkpt lat="47.34219" lon="-1.19981">
        <ele>93</ele>
        <time>2011-10-02T10:05:06Z</time>
      </trkpt>
      <trkpt lat="47.34227" lon="-1.19975">
        <ele>91.3</ele>
        <time>2011-10-02T10:05:08Z</time>
      </trkpt>
      <trkpt lat="47.34221" lon="-1.19979">
        <ele>89.8</ele>
        <time>2011-10-02T10:05:27Z</time>
      </trkpt>
      <trkpt lat="47.34216" lon="-1.19983">
        <ele>90.1</ele>
        <time>2011-10-02T10:05:29Z</time>
      </trkpt>
      <trkpt lat="47.34212" lon="-1.19987">
        <ele>90.5</ele>
        <time>2011-10-02T10:05:31Z</time>
      </trkpt>
      <trkpt lat="47.34206" lon="-1.19989">
        <ele>91.2</ele>
        <time>2011-10-02T10:05:33Z</time>
      </trkpt>
      <trkpt lat="47.342" lon="-1.1999">
        <ele>91.6</ele>
        <time>2011-10-02T10:05:35Z</time>
      </trkpt>
      <trkpt lat="47.34196" lon="-1.19995">
        <ele>92.2</ele>
        <time>2011-10-02T10:05:38Z</time>
      </trkpt>
      <trkpt lat="47.34192" lon="-1.20002">
        <ele>91.5</ele>
        <time>2011-10-02T10:05:43Z</time>
      </trkpt>
      <trkpt lat="47.34191" lon="-1.19994">
        <ele>92</ele>
        <time>2011-10-02T10:05:54Z</time>
      </trkpt>
      <trkpt lat="47.34196" lon="-1.19987">
        <ele>92</ele>
        <time>2011-10-02T10:05:56Z</time>
      </trkpt>
      <trkpt lat="47.342" lon="-1.19986">
        <ele>91.8</ele>
        <time>2011-10-02T10:05:57Z</time>
      </trkpt>
      <trkpt lat="47.34205" lon="-1.19983">
        <ele>90.7</ele>
        <time>2011-10-02T10:05:59Z</time>
      </trkpt>
      <trkpt lat="47.34211" lon="-1.1998">
        <ele>91.5</ele>
        <time>2011-10-02T10:06:00Z</time>
      </trkpt>
      <trkpt lat="47.34216" lon="-1.19978">
        <ele>91.6</ele>
        <time>2011-10-02T10:06:01Z</time>
      </trkpt>
      <trkpt lat="47.34221" lon="-1.19976">
        <ele>90.8</ele>
        <time>2011-10-02T10:06:02Z</time>
      </trkpt>
      <trkpt lat="47.34226" lon="-1.19966">
        <ele>91.6</ele>
        <time>2011-10-02T10:06:04Z</time>
      </trkpt>
      <trkpt lat="47.34228" lon="-1.1996">
        <ele>91.6</ele>
        <time>2011-10-02T10:06:05Z</time>
      </trkpt>
      <trkpt lat="47.34231" lon="-1.19954">
        <ele>91.8</ele>
        <time>2011-10-02T10:06:06Z</time>
      </trkpt>
      <trkpt lat="47.34234" lon="-1.1995">
        <ele>91.6</ele>
        <time>2011-10-02T10:06:07Z</time>
      </trkpt>
      <trkpt lat="47.34238" lon="-1.19939">
        <ele>91.7</ele>
        <time>2011-10-02T10:06:09Z</time>
      </trkpt>
      <trkpt lat="47.34239" lon="-1.19932">
        <ele>92.4</ele>
        <time>2011-10-02T10:06:10Z</time>
      </trkpt>
      <trkpt lat="47.34241" lon="-1.19923">
        <ele>92.7</ele>
        <time>2011-10-02T10:06:12Z</time>
      </trkpt>
      <trkpt lat="47.34242" lon="-1.19912">
        <ele>94.9</ele>
        <time>2011-10-02T10:06:14Z</time>
      </trkpt>
      <trkpt lat="47.34245" lon="-1.19901">
        <ele>95.1</ele>
        <time>2011-10-02T10:06:16Z</time>
      </trkpt>
      <trkpt lat="47.34248" lon="-1.19895">
        <ele>95.5</ele>
        <time>2011-10-02T10:06:17Z</time>
      </trkpt>
      <trkpt lat="47.34247" lon="-1.19886">
        <ele>95.2</ele>
        <time>2011-10-02T10:06:19Z</time>
      </trkpt>
      <trkpt lat="47.34248" lon="-1.19876">
        <ele>95.4</ele>
        <time>2011-10-02T10:06:21Z</time>
      </trkpt>
      <trkpt lat="47.34247" lon="-1.19865">
        <ele>94.8</ele>
        <time>2011-10-02T10:06:24Z</time>
      </trkpt>
      <trkpt lat="47.34247" lon="-1.19854">
        <ele>94.9</ele>
        <time>2011-10-02T10:06:26Z</time>
      </trkpt>
      <trkpt lat="47.34245" lon="-1.19846">
        <ele>94.8</ele>
        <time>2011-10-02T10:06:28Z</time>
      </trkpt>
      <trkpt lat="47.34244" lon="-1.19836">
        <ele>95.1</ele>
        <time>2011-10-02T10:06:31Z</time>
      </trkpt>
      <trkpt lat="47.34246" lon="-1.19825">
        <ele>95.9</ele>
        <time>2011-10-02T10:06:34Z</time>
      </trkpt>
      <trkpt lat="47.34247" lon="-1.19818">
        <ele>97</ele>
        <time>2011-10-02T10:06:36Z</time>
      </trkpt>
      <trkpt lat="47.34249" lon="-1.1981">
        <ele>97.6</ele>
        <time>2011-10-02T10:06:39Z</time>
      </trkpt>
      <trkpt lat="47.34252" lon="-1.198">
        <ele>98.5</ele>
        <time>2011-10-02T10:06:42Z</time>
      </trkpt>
      <trkpt lat="47.34251" lon="-1.19792">
        <ele>99.3</ele>
        <time>2011-10-02T10:06:45Z</time>
      </trkpt>
      <trkpt lat="47.34252" lon="-1.19782">
        <ele>99.2</ele>
        <time>2011-10-02T10:06:48Z</time>
      </trkpt>
      <trkpt lat="47.34255" lon="-1.19773">
        <ele>99.3</ele>
        <time>2011-10-02T10:06:52Z</time>
      </trkpt>
      <trkpt lat="47.34257" lon="-1.19765">
        <ele>99</ele>
        <time>2011-10-02T10:06:56Z</time>
      </trkpt>
      <trkpt lat="47.34257" lon="-1.19758">
        <ele>97</ele>
        <time>2011-10-02T10:07:01Z</time>
      </trkpt>
      <trkpt lat="47.3426" lon="-1.19751">
        <ele>96.7</ele>
        <time>2011-10-02T10:07:04Z</time>
      </trkpt>
      <trkpt lat="47.34262" lon="-1.19744">
        <ele>96.5</ele>
        <time>2011-10-02T10:07:05Z</time>
      </trkpt>
      <trkpt lat="47.34265" lon="-1.19737">
        <ele>97.1</ele>
        <time>2011-10-02T10:07:06Z</time>
      </trkpt>
      <trkpt lat="47.3427" lon="-1.19731">
        <ele>97.9</ele>
        <time>2011-10-02T10:07:07Z</time>
      </trkpt>
      <trkpt lat="47.34272" lon="-1.19724">
        <ele>97.9</ele>
        <time>2011-10-02T10:07:08Z</time>
      </trkpt>
      <trkpt lat="47.34276" lon="-1.19717">
        <ele>97.8</ele>
        <time>2011-10-02T10:07:09Z</time>
      </trkpt>
      <trkpt lat="47.3428" lon="-1.19711">
        <ele>97.9</ele>
        <time>2011-10-02T10:07:10Z</time>
      </trkpt>
      <trkpt lat="47.34282" lon="-1.19702">
        <ele>97.6</ele>
        <time>2011-10-02T10:07:11Z</time>
      </trkpt>
      <trkpt lat="47.34284" lon="-1.19693">
        <ele>97.3</ele>
        <time>2011-10-02T10:07:12Z</time>
      </trkpt>
      <trkpt lat="47.34286" lon="-1.19685">
        <ele>97.3</ele>
        <time>2011-10-02T10:07:13Z</time>
      </trkpt>
      <trkpt lat="47.34291" lon="-1.19677">
        <ele>97.4</ele>
        <time>2011-10-02T10:07:14Z</time>
      </trkpt>
      <trkpt lat="47.34292" lon="-1.1967">
        <ele>97.2</ele>
        <time>2011-10-02T10:07:15Z</time>
      </trkpt>
      <trkpt lat="47.34293" lon="-1.19662">
        <ele>97.3</ele>
        <time>2011-10-02T10:07:16Z</time>
      </trkpt>
      <trkpt lat="47.34296" lon="-1.19656">
        <ele>97.1</ele>
        <time>2011-10-02T10:07:17Z</time>
      </trkpt>
      <trkpt lat="47.34299" lon="-1.19647">
        <ele>97.3</ele>
        <time>2011-10-02T10:07:18Z</time>
      </trkpt>
      <trkpt lat="47.343" lon="-1.19637">
        <ele>96.9</ele>
        <time>2011-10-02T10:07:19Z</time>
      </trkpt>
      <trkpt lat="47.34304" lon="-1.19628">
        <ele>97.3</ele>
        <time>2011-10-02T10:07:20Z</time>
      </trkpt>
      <trkpt lat="47.34306" lon="-1.1962">
        <ele>97.6</ele>
        <time>2011-10-02T10:07:21Z</time>
      </trkpt>
      <trkpt lat="47.34313" lon="-1.19616">
        <ele>96.9</ele>
        <time>2011-10-02T10:07:22Z</time>
      </trkpt>
      <trkpt lat="47.34313" lon="-1.19607">
        <ele>97.2</ele>
        <time>2011-10-02T10:07:23Z</time>
      </trkpt>
      <trkpt lat="47.34314" lon="-1.19598">
        <ele>97.1</ele>
        <time>2011-10-02T10:07:24Z</time>
      </trkpt>
      <trkpt lat="47.34314" lon="-1.19588">
        <ele>97.1</ele>
        <time>2011-10-02T10:07:25Z</time>
      </trkpt>
      <trkpt lat="47.34316" lon="-1.19579">
        <ele>96.8</ele>
        <time>2011-10-02T10:07:26Z</time>
      </trkpt>
      <trkpt lat="47.34316" lon="-1.19569">
        <ele>96.7</ele>
        <time>2011-10-02T10:07:27Z</time>
      </trkpt>
      <trkpt lat="47.34318" lon="-1.19562">
        <ele>96.6</ele>
        <time>2011-10-02T10:07:28Z</time>
      </trkpt>
      <trkpt lat="47.34323" lon="-1.19552">
        <ele>96.3</ele>
        <time>2011-10-02T10:07:29Z</time>
      </trkpt>
      <trkpt lat="47.34322" lon="-1.19541">
        <ele>95.8</ele>
        <time>2011-10-02T10:07:30Z</time>
      </trkpt>
      <trkpt lat="47.34324" lon="-1.19532">
        <ele>94.4</ele>
        <time>2011-10-02T10:07:31Z</time>
      </trkpt>
      <trkpt lat="47.34324" lon="-1.19525">
        <ele>94.3</ele>
        <time>2011-10-02T10:07:32Z</time>
      </trkpt>
      <trkpt lat="47.34327" lon="-1.19512">
        <ele>93.4</ele>
        <time>2011-10-02T10:07:34Z</time>
      </trkpt>
      <trkpt lat="47.34329" lon="-1.19506">
        <ele>92.9</ele>
        <time>2011-10-02T10:07:35Z</time>
      </trkpt>
      <trkpt lat="47.34329" lon="-1.19494">
        <ele>92.8</ele>
        <time>2011-10-02T10:07:36Z</time>
      </trkpt>
      <trkpt lat="47.34329" lon="-1.19485">
        <ele>92.7</ele>
        <time>2011-10-02T10:07:37Z</time>
      </trkpt>
      <trkpt lat="47.34331" lon="-1.19476">
        <ele>92.3</ele>
        <time>2011-10-02T10:07:38Z</time>
      </trkpt>
      <trkpt lat="47.34332" lon="-1.19464">
        <ele>92.2</ele>
        <time>2011-10-02T10:07:39Z</time>
      </trkpt>
      <trkpt lat="47.34333" lon="-1.19452">
        <ele>91.8</ele>
        <time>2011-10-02T10:07:40Z</time>
      </trkpt>
      <trkpt lat="47.34335" lon="-1.19442">
        <ele>91.6</ele>
        <time>2011-10-02T10:07:41Z</time>
      </trkpt>
      <trkpt lat="47.34336" lon="-1.1943">
        <ele>91.7</ele>
        <time>2011-10-02T10:07:42Z</time>
      </trkpt>
      <trkpt lat="47.34337" lon="-1.19418">
        <ele>91.7</ele>
        <time>2011-10-02T10:07:43Z</time>
      </trkpt>
      <trkpt lat="47.34338" lon="-1.19408">
        <ele>91.8</ele>
        <time>2011-10-02T10:07:44Z</time>
      </trkpt>
      <trkpt lat="47.34338" lon="-1.19397">
        <ele>91.9</ele>
        <time>2011-10-02T10:07:45Z</time>
      </trkpt>
      <trkpt lat="47.3434" lon="-1.1939">
        <ele>92.3</ele>
        <time>2011-10-02T10:07:46Z</time>
      </trkpt>
      <trkpt lat="47.3434" lon="-1.19379">
        <ele>92.1</ele>
        <time>2011-10-02T10:07:47Z</time>
      </trkpt>
      <trkpt lat="47.34347" lon="-1.19368">
        <ele>90.9</ele>
        <time>2011-10-02T10:07:49Z</time>
      </trkpt>
      <trkpt lat="47.34351" lon="-1.19364">
        <ele>91</ele>
        <time>2011-10-02T10:07:50Z</time>
      </trkpt>
      <trkpt lat="47.34354" lon="-1.19358">
        <ele>90.2</ele>
        <time>2011-10-02T10:07:51Z</time>
      </trkpt>
      <trkpt lat="47.34358" lon="-1.19356">
        <ele>90.4</ele>
        <time>2011-10-02T10:07:52Z</time>
      </trkpt>
      <trkpt lat="47.34362" lon="-1.19344">
        <ele>90.6</ele>
        <time>2011-10-02T10:07:53Z</time>
      </trkpt>
      <trkpt lat="47.34364" lon="-1.19335">
        <ele>90.7</ele>
        <time>2011-10-02T10:07:54Z</time>
      </trkpt>
      <trkpt lat="47.34365" lon="-1.19326">
        <ele>91</ele>
        <time>2011-10-02T10:07:55Z</time>
      </trkpt>
      <trkpt lat="47.34364" lon="-1.19317">
        <ele>91.7</ele>
        <time>2011-10-02T10:07:56Z</time>
      </trkpt>
      <trkpt lat="47.34367" lon="-1.19306">
        <ele>91.3</ele>
        <time>2011-10-02T10:07:57Z</time>
      </trkpt>
      <trkpt lat="47.3437" lon="-1.19295">
        <ele>91.2</ele>
        <time>2011-10-02T10:07:58Z</time>
      </trkpt>
      <trkpt lat="47.34366" lon="-1.19283">
        <ele>91.1</ele>
        <time>2011-10-02T10:08:00Z</time>
      </trkpt>
      <trkpt lat="47.34367" lon="-1.19272">
        <ele>90.7</ele>
        <time>2011-10-02T10:08:02Z</time>
      </trkpt>
      <trkpt lat="47.34366" lon="-1.19265">
        <ele>90</ele>
        <time>2011-10-02T10:08:03Z</time>
      </trkpt>
      <trkpt lat="47.34366" lon="-1.19255">
        <ele>89.4</ele>
        <time>2011-10-02T10:08:04Z</time>
      </trkpt>
      <trkpt lat="47.34369" lon="-1.19248">
        <ele>88.6</ele>
        <time>2011-10-02T10:08:05Z</time>
      </trkpt>
      <trkpt lat="47.34373" lon="-1.19241">
        <ele>88.2</ele>
        <time>2011-10-02T10:08:06Z</time>
      </trkpt>
      <trkpt lat="47.34383" lon="-1.19234">
        <ele>85.7</ele>
        <time>2011-10-02T10:08:08Z</time>
      </trkpt>
      <trkpt lat="47.34389" lon="-1.19232">
        <ele>85.7</ele>
        <time>2011-10-02T10:08:09Z</time>
      </trkpt>
      <trkpt lat="47.34398" lon="-1.19233">
        <ele>85.4</ele>
        <time>2011-10-02T10:08:10Z</time>
      </trkpt>
      <trkpt lat="47.34405" lon="-1.19234">
        <ele>85.4</ele>
        <time>2011-10-02T10:08:11Z</time>
      </trkpt>
      <trkpt lat="47.34413" lon="-1.19234">
        <ele>85.2</ele>
        <time>2011-10-02T10:08:12Z</time>
      </trkpt>
      <trkpt lat="47.3442" lon="-1.19235">
        <ele>84.5</ele>
        <time>2011-10-02T10:08:13Z</time>
      </trkpt>
      <trkpt lat="47.34426" lon="-1.19236">
        <ele>84.6</ele>
        <time>2011-10-02T10:08:14Z</time>
      </trkpt>
      <trkpt lat="47.34432" lon="-1.19237">
        <ele>84.2</ele>
        <time>2011-10-02T10:08:15Z</time>
      </trkpt>
      <trkpt lat="47.34437" lon="-1.1924">
        <ele>83.6</ele>
        <time>2011-10-02T10:08:16Z</time>
      </trkpt>
      <trkpt lat="47.34447" lon="-1.19236">
        <ele>84.3</ele>
        <time>2011-10-02T10:08:18Z</time>
      </trkpt>
      <trkpt lat="47.34448" lon="-1.19229">
        <ele>84.5</ele>
        <time>2011-10-02T10:08:19Z</time>
      </trkpt>
      <trkpt lat="47.34449" lon="-1.19221">
        <ele>84.7</ele>
        <time>2011-10-02T10:08:21Z</time>
      </trkpt>
      <trkpt lat="47.34447" lon="-1.19213">
        <ele>85</ele>
        <time>2011-10-02T10:08:22Z</time>
      </trkpt>
      <trkpt lat="47.34449" lon="-1.19201">
        <ele>84.8</ele>
        <time>2011-10-02T10:08:24Z</time>
      </trkpt>
      <trkpt lat="47.34449" lon="-1.19189">
        <ele>84.3</ele>
        <time>2011-10-02T10:08:26Z</time>
      </trkpt>
      <trkpt lat="47.3445" lon="-1.19177">
        <ele>84.1</ele>
        <time>2011-10-02T10:08:28Z</time>
      </trkpt>
      <trkpt lat="47.34452" lon="-1.19165">
        <ele>84.4</ele>
        <time>2011-10-02T10:08:30Z</time>
      </trkpt>
      <trkpt lat="47.34452" lon="-1.19158">
        <ele>84.2</ele>
        <time>2011-10-02T10:08:31Z</time>
      </trkpt>
      <trkpt lat="47.34452" lon="-1.19148">
        <ele>84.2</ele>
        <time>2011-10-02T10:08:32Z</time>
      </trkpt>
      <trkpt lat="47.34452" lon="-1.19139">
        <ele>83.7</ele>
        <time>2011-10-02T10:08:33Z</time>
      </trkpt>
      <trkpt lat="47.34453" lon="-1.19131">
        <ele>83.2</ele>
        <time>2011-10-02T10:08:34Z</time>
      </trkpt>
      <trkpt lat="47.34454" lon="-1.19123">
        <ele>82.9</ele>
        <time>2011-10-02T10:08:35Z</time>
      </trkpt>
      <trkpt lat="47.34457" lon="-1.19116">
        <ele>82.9</ele>
        <time>2011-10-02T10:08:36Z</time>
      </trkpt>
      <trkpt lat="47.34458" lon="-1.19108">
        <ele>82.2</ele>
        <time>2011-10-02T10:08:37Z</time>
      </trkpt>
      <trkpt lat="47.34458" lon="-1.191">
        <ele>82.2</ele>
        <time>2011-10-02T10:08:38Z</time>
      </trkpt>
      <trkpt lat="47.34459" lon="-1.19094">
        <ele>82.6</ele>
        <time>2011-10-02T10:08:39Z</time>
      </trkpt>
      <trkpt lat="47.3446" lon="-1.19086">
        <ele>82.1</ele>
        <time>2011-10-02T10:08:40Z</time>
      </trkpt>
      <trkpt lat="47.3446" lon="-1.19078">
        <ele>82.2</ele>
        <time>2011-10-02T10:08:41Z</time>
      </trkpt>
      <trkpt lat="47.3446" lon="-1.19071">
        <ele>82.2</ele>
        <time>2011-10-02T10:08:42Z</time>
      </trkpt>
      <trkpt lat="47.34462" lon="-1.19063">
        <ele>81.7</ele>
        <time>2011-10-02T10:08:43Z</time>
      </trkpt>
      <trkpt lat="47.34462" lon="-1.1905">
        <ele>81.4</ele>
        <time>2011-10-02T10:08:45Z</time>
      </trkpt>
      <trkpt lat="47.34462" lon="-1.19043">
        <ele>80.8</ele>
        <time>2011-10-02T10:08:46Z</time>
      </trkpt>
      <trkpt lat="47.34462" lon="-1.19034">
        <ele>80.9</ele>
        <time>2011-10-02T10:08:47Z</time>
      </trkpt>
      <trkpt lat="47.34463" lon="-1.19025">
        <ele>81.1</ele>
        <time>2011-10-02T10:08:48Z</time>
      </trkpt>
      <trkpt lat="47.34463" lon="-1.19018">
        <ele>81</ele>
        <time>2011-10-02T10:08:49Z</time>
      </trkpt>
      <trkpt lat="47.34465" lon="-1.19012">
        <ele>80.9</ele>
        <time>2011-10-02T10:08:50Z</time>
      </trkpt>
      <trkpt lat="47.34468" lon="-1.19001">
        <ele>80.5</ele>
        <time>2011-10-02T10:08:52Z</time>
      </trkpt>
      <trkpt lat="47.3447" lon="-1.1899">
        <ele>79.6</ele>
        <time>2011-10-02T10:08:53Z</time>
      </trkpt>
      <trkpt lat="47.34472" lon="-1.18983">
        <ele>79.5</ele>
        <time>2011-10-02T10:08:54Z</time>
      </trkpt>
      <trkpt lat="47.3447" lon="-1.18971">
        <ele>79.9</ele>
        <time>2011-10-02T10:08:55Z</time>
      </trkpt>
      <trkpt lat="47.34472" lon="-1.1896">
        <ele>79.7</ele>
        <time>2011-10-02T10:08:56Z</time>
      </trkpt>
      <trkpt lat="47.34474" lon="-1.18951">
        <ele>79.2</ele>
        <time>2011-10-02T10:08:57Z</time>
      </trkpt>
      <trkpt lat="47.34475" lon="-1.18943">
        <ele>78.8</ele>
        <time>2011-10-02T10:08:58Z</time>
      </trkpt>
      <trkpt lat="47.34475" lon="-1.18934">
        <ele>79.1</ele>
        <time>2011-10-02T10:08:59Z</time>
      </trkpt>
      <trkpt lat="47.34477" lon="-1.18927">
        <ele>78.6</ele>
        <time>2011-10-02T10:09:00Z</time>
      </trkpt>
      <trkpt lat="47.34476" lon="-1.1892">
        <ele>78.8</ele>
        <time>2011-10-02T10:09:01Z</time>
      </trkpt>
      <trkpt lat="47.34476" lon="-1.18911">
        <ele>78.5</ele>
        <time>2011-10-02T10:09:02Z</time>
      </trkpt>
      <trkpt lat="47.34479" lon="-1.18902">
        <ele>78.1</ele>
        <time>2011-10-02T10:09:04Z</time>
      </trkpt>
      <trkpt lat="47.34483" lon="-1.18897">
        <ele>77.8</ele>
        <time>2011-10-02T10:09:05Z</time>
      </trkpt>
      <trkpt lat="47.34487" lon="-1.18891">
        <ele>77.8</ele>
        <time>2011-10-02T10:09:06Z</time>
      </trkpt>
      <trkpt lat="47.34488" lon="-1.18885">
        <ele>77.5</ele>
        <time>2011-10-02T10:09:07Z</time>
      </trkpt>
      <trkpt lat="47.34488" lon="-1.18868">
        <ele>76.5</ele>
        <time>2011-10-02T10:09:09Z</time>
      </trkpt>
      <trkpt lat="47.34489" lon="-1.18861">
        <ele>75.8</ele>
        <time>2011-10-02T10:09:10Z</time>
      </trkpt>
      <trkpt lat="47.3449" lon="-1.18853">
        <ele>74.7</ele>
        <time>2011-10-02T10:09:12Z</time>
      </trkpt>
      <trkpt lat="47.34491" lon="-1.18845">
        <ele>73.6</ele>
        <time>2011-10-02T10:09:14Z</time>
      </trkpt>
      <trkpt lat="47.34491" lon="-1.18838">
        <ele>73.8</ele>
        <time>2011-10-02T10:09:16Z</time>
      </trkpt>
      <trkpt lat="47.34495" lon="-1.18832">
        <ele>73.3</ele>
        <time>2011-10-02T10:09:18Z</time>
      </trkpt>
      <trkpt lat="47.34497" lon="-1.18824">
        <ele>72.7</ele>
        <time>2011-10-02T10:09:21Z</time>
      </trkpt>
      <trkpt lat="47.345" lon="-1.18817">
        <ele>72.6</ele>
        <time>2011-10-02T10:09:22Z</time>
      </trkpt>
      <trkpt lat="47.34506" lon="-1.18813">
        <ele>72.2</ele>
        <time>2011-10-02T10:09:23Z</time>
      </trkpt>
      <trkpt lat="47.3451" lon="-1.18809">
        <ele>72.1</ele>
        <time>2011-10-02T10:09:24Z</time>
      </trkpt>
      <trkpt lat="47.34514" lon="-1.18802">
        <ele>73</ele>
        <time>2011-10-02T10:09:25Z</time>
      </trkpt>
      <trkpt lat="47.34517" lon="-1.18798">
        <ele>72.7</ele>
        <time>2011-10-02T10:09:26Z</time>
      </trkpt>
      <trkpt lat="47.34521" lon="-1.18792">
        <ele>72.7</ele>
        <time>2011-10-02T10:09:27Z</time>
      </trkpt>
      <trkpt lat="47.34524" lon="-1.18798">
        <ele>72.5</ele>
        <time>2011-10-02T10:09:28Z</time>
      </trkpt>
      <trkpt lat="47.34527" lon="-1.18804">
        <ele>72</ele>
        <time>2011-10-02T10:09:29Z</time>
      </trkpt>
      <trkpt lat="47.34529" lon="-1.1881">
        <ele>71.5</ele>
        <time>2011-10-02T10:09:30Z</time>
      </trkpt>
      <trkpt lat="47.34531" lon="-1.18818">
        <ele>70.8</ele>
        <time>2011-10-02T10:09:31Z</time>
      </trkpt>
      <trkpt lat="47.34534" lon="-1.18826">
        <ele>70.6</ele>
        <time>2011-10-02T10:09:32Z</time>
      </trkpt>
      <trkpt lat="47.34536" lon="-1.18836">
        <ele>70.1</ele>
        <time>2011-10-02T10:09:33Z</time>
      </trkpt>
      <trkpt lat="47.34538" lon="-1.18845">
        <ele>69.8</ele>
        <time>2011-10-02T10:09:34Z</time>
      </trkpt>
      <trkpt lat="47.3454" lon="-1.18852">
        <ele>70.3</ele>
        <time>2011-10-02T10:09:35Z</time>
      </trkpt>
      <trkpt lat="47.34542" lon="-1.18861">
        <ele>70</ele>
        <time>2011-10-02T10:09:36Z</time>
      </trkpt>
      <trkpt lat="47.34544" lon="-1.1887">
        <ele>70</ele>
        <time>2011-10-02T10:09:37Z</time>
      </trkpt>
      <trkpt lat="47.34547" lon="-1.18879">
        <ele>69.3</ele>
        <time>2011-10-02T10:09:38Z</time>
      </trkpt>
      <trkpt lat="47.34548" lon="-1.18886">
        <ele>69</ele>
        <time>2011-10-02T10:09:39Z</time>
      </trkpt>
      <trkpt lat="47.3455" lon="-1.18893">
        <ele>68.9</ele>
        <time>2011-10-02T10:09:40Z</time>
      </trkpt>
      <trkpt lat="47.34554" lon="-1.189">
        <ele>69.1</ele>
        <time>2011-10-02T10:09:41Z</time>
      </trkpt>
      <trkpt lat="47.34559" lon="-1.18906">
        <ele>68.5</ele>
        <time>2011-10-02T10:09:42Z</time>
      </trkpt>
      <trkpt lat="47.34563" lon="-1.18909">
        <ele>68.5</ele>
        <time>2011-10-02T10:09:43Z</time>
      </trkpt>
      <trkpt lat="47.34571" lon="-1.18914">
        <ele>68.2</ele>
        <time>2011-10-02T10:09:45Z</time>
      </trkpt>
      <trkpt lat="47.34574" lon="-1.18919">
        <ele>68</ele>
        <time>2011-10-02T10:09:46Z</time>
      </trkpt>
      <trkpt lat="47.3458" lon="-1.18919">
        <ele>67.5</ele>
        <time>2011-10-02T10:09:47Z</time>
      </trkpt>
      <trkpt lat="47.34587" lon="-1.1892">
        <ele>66.9</ele>
        <time>2011-10-02T10:09:48Z</time>
      </trkpt>
      <trkpt lat="47.34592" lon="-1.18919">
        <ele>66.3</ele>
        <time>2011-10-02T10:09:49Z</time>
      </trkpt>
      <trkpt lat="47.34597" lon="-1.1892">
        <ele>65.3</ele>
        <time>2011-10-02T10:09:50Z</time>
      </trkpt>
      <trkpt lat="47.34603" lon="-1.1892">
        <ele>64.8</ele>
        <time>2011-10-02T10:09:51Z</time>
      </trkpt>
      <trkpt lat="47.3461" lon="-1.18917">
        <ele>64.5</ele>
        <time>2011-10-02T10:09:52Z</time>
      </trkpt>
      <trkpt lat="47.34619" lon="-1.18917">
        <ele>62.1</ele>
        <time>2011-10-02T10:09:53Z</time>
      </trkpt>
      <trkpt lat="47.34624" lon="-1.18916">
        <ele>61.9</ele>
        <time>2011-10-02T10:09:54Z</time>
      </trkpt>
      <trkpt lat="47.34633" lon="-1.18917">
        <ele>61.8</ele>
        <time>2011-10-02T10:09:55Z</time>
      </trkpt>
      <trkpt lat="47.34638" lon="-1.18917">
        <ele>61.8</ele>
        <time>2011-10-02T10:09:56Z</time>
      </trkpt>
      <trkpt lat="47.34645" lon="-1.18915">
        <ele>62.6</ele>
        <time>2011-10-02T10:09:57Z</time>
      </trkpt>
      <trkpt lat="47.34651" lon="-1.18922">
        <ele>62.7</ele>
        <time>2011-10-02T10:09:59Z</time>
      </trkpt>
      <trkpt lat="47.34651" lon="-1.1893">
        <ele>62.5</ele>
        <time>2011-10-02T10:10:00Z</time>
      </trkpt>
      <trkpt lat="47.34652" lon="-1.18937">
        <ele>62.5</ele>
        <time>2011-10-02T10:10:01Z</time>
      </trkpt>
      <trkpt lat="47.34654" lon="-1.18944">
        <ele>62.5</ele>
        <time>2011-10-02T10:10:02Z</time>
      </trkpt>
      <trkpt lat="47.34657" lon="-1.18956">
        <ele>62.1</ele>
        <time>2011-10-02T10:10:03Z</time>
      </trkpt>
      <trkpt lat="47.34658" lon="-1.18966">
        <ele>60.8</ele>
        <time>2011-10-02T10:10:05Z</time>
      </trkpt>
      <trkpt lat="47.34654" lon="-1.18973">
        <ele>59.8</ele>
        <time>2011-10-02T10:10:07Z</time>
      </trkpt>
      <trkpt lat="47.34659" lon="-1.18976">
        <ele>57.3</ele>
        <time>2011-10-02T10:10:14Z</time>
      </trkpt>
      <trkpt lat="47.34665" lon="-1.18974">
        <ele>56.7</ele>
        <time>2011-10-02T10:10:16Z</time>
      </trkpt>
      <trkpt lat="47.34671" lon="-1.18972">
        <ele>56.7</ele>
        <time>2011-10-02T10:10:18Z</time>
      </trkpt>
      <trkpt lat="47.34677" lon="-1.1897">
        <ele>56.1</ele>
        <time>2011-10-02T10:10:20Z</time>
      </trkpt>
      <trkpt lat="47.34686" lon="-1.18971">
        <ele>55.1</ele>
        <time>2011-10-02T10:10:22Z</time>
      </trkpt>
      <trkpt lat="47.34691" lon="-1.18973">
        <ele>55.3</ele>
        <time>2011-10-02T10:10:23Z</time>
      </trkpt>
      <trkpt lat="47.34695" lon="-1.18976">
        <ele>55.4</ele>
        <time>2011-10-02T10:10:24Z</time>
      </trkpt>
      <trkpt lat="47.347" lon="-1.18981">
        <ele>55.7</ele>
        <time>2011-10-02T10:10:26Z</time>
      </trkpt>
      <trkpt lat="47.34707" lon="-1.18984">
        <ele>56.4</ele>
        <time>2011-10-02T10:10:29Z</time>
      </trkpt>
      <trkpt lat="47.34715" lon="-1.18982">
        <ele>57.5</ele>
        <time>2011-10-02T10:10:31Z</time>
      </trkpt>
      <trkpt lat="47.3472" lon="-1.18977">
        <ele>57.6</ele>
        <time>2011-10-02T10:10:33Z</time>
      </trkpt>
      <trkpt lat="47.34724" lon="-1.18973">
        <ele>58.1</ele>
        <time>2011-10-02T10:10:34Z</time>
      </trkpt>
      <trkpt lat="47.3473" lon="-1.18966">
        <ele>59.1</ele>
        <time>2011-10-02T10:10:36Z</time>
      </trkpt>
      <trkpt lat="47.34734" lon="-1.18961">
        <ele>59.6</ele>
        <time>2011-10-02T10:10:38Z</time>
      </trkpt>
      <trkpt lat="47.3474" lon="-1.18956">
        <ele>61</ele>
        <time>2011-10-02T10:10:40Z</time>
      </trkpt>
      <trkpt lat="47.3475" lon="-1.18952">
        <ele>61.9</ele>
        <time>2011-10-02T10:10:42Z</time>
      </trkpt>
      <trkpt lat="47.34759" lon="-1.18948">
        <ele>60.2</ele>
        <time>2011-10-02T10:10:44Z</time>
      </trkpt>
      <trkpt lat="47.34764" lon="-1.18949">
        <ele>59.4</ele>
        <time>2011-10-02T10:10:45Z</time>
      </trkpt>
      <trkpt lat="47.3477" lon="-1.18949">
        <ele>59.5</ele>
        <time>2011-10-02T10:10:47Z</time>
      </trkpt>
      <trkpt lat="47.34776" lon="-1.18949">
        <ele>59.4</ele>
        <time>2011-10-02T10:10:49Z</time>
      </trkpt>
      <trkpt lat="47.34782" lon="-1.18952">
        <ele>58.5</ele>
        <time>2011-10-02T10:10:50Z</time>
      </trkpt>
      <trkpt lat="47.34788" lon="-1.18952">
        <ele>57.7</ele>
        <time>2011-10-02T10:10:51Z</time>
      </trkpt>
      <trkpt lat="47.34796" lon="-1.18953">
        <ele>58.6</ele>
        <time>2011-10-02T10:10:53Z</time>
      </trkpt>
      <trkpt lat="47.34807" lon="-1.18962">
        <ele>57.4</ele>
        <time>2011-10-02T10:10:55Z</time>
      </trkpt>
      <trkpt lat="47.34812" lon="-1.18968">
        <ele>57.6</ele>
        <time>2011-10-02T10:10:56Z</time>
      </trkpt>
      <trkpt lat="47.34815" lon="-1.18973">
        <ele>58.1</ele>
        <time>2011-10-02T10:10:57Z</time>
      </trkpt>
      <trkpt lat="47.3482" lon="-1.18976">
        <ele>58.3</ele>
        <time>2011-10-02T10:10:58Z</time>
      </trkpt>
      <trkpt lat="47.34823" lon="-1.18982">
        <ele>57.2</ele>
        <time>2011-10-02T10:10:59Z</time>
      </trkpt>
      <trkpt lat="47.34823" lon="-1.18989">
        <ele>57.1</ele>
        <time>2011-10-02T10:11:00Z</time>
      </trkpt>
      <trkpt lat="47.34826" lon="-1.18996">
        <ele>57</ele>
        <time>2011-10-02T10:11:01Z</time>
      </trkpt>
      <trkpt lat="47.34827" lon="-1.19002">
        <ele>56.2</ele>
        <time>2011-10-02T10:11:02Z</time>
      </trkpt>
      <trkpt lat="47.3483" lon="-1.19009">
        <ele>56.6</ele>
        <time>2011-10-02T10:11:03Z</time>
      </trkpt>
      <trkpt lat="47.34831" lon="-1.19021">
        <ele>56.9</ele>
        <time>2011-10-02T10:11:05Z</time>
      </trkpt>
      <trkpt lat="47.34832" lon="-1.19028">
        <ele>57</ele>
        <time>2011-10-02T10:11:06Z</time>
      </trkpt>
      <trkpt lat="47.34833" lon="-1.19039">
        <ele>57.5</ele>
        <time>2011-10-02T10:11:08Z</time>
      </trkpt>
      <trkpt lat="47.34835" lon="-1.19046">
        <ele>57.8</ele>
        <time>2011-10-02T10:11:09Z</time>
      </trkpt>
      <trkpt lat="47.34838" lon="-1.19057">
        <ele>58.5</ele>
        <time>2011-10-02T10:11:11Z</time>
      </trkpt>
      <trkpt lat="47.34841" lon="-1.19068">
        <ele>59.8</ele>
        <time>2011-10-02T10:11:13Z</time>
      </trkpt>
      <trkpt lat="47.34844" lon="-1.19074">
        <ele>60.7</ele>
        <time>2011-10-02T10:11:14Z</time>
      </trkpt>
      <trkpt lat="47.34847" lon="-1.19085">
        <ele>60.8</ele>
        <time>2011-10-02T10:11:16Z</time>
      </trkpt>
      <trkpt lat="47.34846" lon="-1.19092">
        <ele>61.6</ele>
        <time>2011-10-02T10:11:17Z</time>
      </trkpt>
      <trkpt lat="47.34849" lon="-1.19105">
        <ele>62.6</ele>
        <time>2011-10-02T10:11:19Z</time>
      </trkpt>
      <trkpt lat="47.34849" lon="-1.19113">
        <ele>63.1</ele>
        <time>2011-10-02T10:11:20Z</time>
      </trkpt>
      <trkpt lat="47.34846" lon="-1.19122">
        <ele>62.8</ele>
        <time>2011-10-02T10:11:21Z</time>
      </trkpt>
      <trkpt lat="47.34849" lon="-1.1913">
        <ele>63.6</ele>
        <time>2011-10-02T10:11:22Z</time>
      </trkpt>
      <trkpt lat="47.34847" lon="-1.19142">
        <ele>63</ele>
        <time>2011-10-02T10:11:24Z</time>
      </trkpt>
      <trkpt lat="47.34846" lon="-1.19149">
        <ele>62.6</ele>
        <time>2011-10-02T10:11:25Z</time>
      </trkpt>
      <trkpt lat="47.34845" lon="-1.19157">
        <ele>62.1</ele>
        <time>2011-10-02T10:11:26Z</time>
      </trkpt>
      <trkpt lat="47.34842" lon="-1.19164">
        <ele>60.9</ele>
        <time>2011-10-02T10:11:27Z</time>
      </trkpt>
      <trkpt lat="47.3484" lon="-1.19174">
        <ele>60.6</ele>
        <time>2011-10-02T10:11:28Z</time>
      </trkpt>
      <trkpt lat="47.34838" lon="-1.19184">
        <ele>60</ele>
        <time>2011-10-02T10:11:29Z</time>
      </trkpt>
      <trkpt lat="47.34837" lon="-1.19193">
        <ele>58.8</ele>
        <time>2011-10-02T10:11:30Z</time>
      </trkpt>
      <trkpt lat="47.34836" lon="-1.192">
        <ele>58.6</ele>
        <time>2011-10-02T10:11:31Z</time>
      </trkpt>
      <trkpt lat="47.34834" lon="-1.19206">
        <ele>58.1</ele>
        <time>2011-10-02T10:11:32Z</time>
      </trkpt>
      <trkpt lat="47.34836" lon="-1.19216">
        <ele>57.5</ele>
        <time>2011-10-02T10:11:33Z</time>
      </trkpt>
      <trkpt lat="47.34835" lon="-1.19226">
        <ele>58</ele>
        <time>2011-10-02T10:11:34Z</time>
      </trkpt>
      <trkpt lat="47.34835" lon="-1.19236">
        <ele>57.1</ele>
        <time>2011-10-02T10:11:35Z</time>
      </trkpt>
      <trkpt lat="47.34834" lon="-1.19244">
        <ele>57</ele>
        <time>2011-10-02T10:11:36Z</time>
      </trkpt>
      <trkpt lat="47.34833" lon="-1.19252">
        <ele>56.6</ele>
        <time>2011-10-02T10:11:37Z</time>
      </trkpt>
      <trkpt lat="47.34832" lon="-1.19259">
        <ele>55.7</ele>
        <time>2011-10-02T10:11:38Z</time>
      </trkpt>
      <trkpt lat="47.34831" lon="-1.19267">
        <ele>55.4</ele>
        <time>2011-10-02T10:11:39Z</time>
      </trkpt>
      <trkpt lat="47.3483" lon="-1.19275">
        <ele>54.7</ele>
        <time>2011-10-02T10:11:40Z</time>
      </trkpt>
      <trkpt lat="47.34829" lon="-1.19283">
        <ele>54.2</ele>
        <time>2011-10-02T10:11:41Z</time>
      </trkpt>
      <trkpt lat="47.34827" lon="-1.1929">
        <ele>54.2</ele>
        <time>2011-10-02T10:11:42Z</time>
      </trkpt>
      <trkpt lat="47.34828" lon="-1.19298">
        <ele>54.9</ele>
        <time>2011-10-02T10:11:43Z</time>
      </trkpt>
      <trkpt lat="47.34826" lon="-1.19306">
        <ele>56.5</ele>
        <time>2011-10-02T10:11:44Z</time>
      </trkpt>
      <trkpt lat="47.34825" lon="-1.19315">
        <ele>57</ele>
        <time>2011-10-02T10:11:45Z</time>
      </trkpt>
      <trkpt lat="47.34825" lon="-1.19323">
        <ele>56.9</ele>
        <time>2011-10-02T10:11:46Z</time>
      </trkpt>
      <trkpt lat="47.34825" lon="-1.19332">
        <ele>57.5</ele>
        <time>2011-10-02T10:11:47Z</time>
      </trkpt>
      <trkpt lat="47.34824" lon="-1.1934">
        <ele>57.1</ele>
        <time>2011-10-02T10:11:48Z</time>
      </trkpt>
      <trkpt lat="47.34823" lon="-1.19347">
        <ele>57.2</ele>
        <time>2011-10-02T10:11:49Z</time>
      </trkpt>
      <trkpt lat="47.34823" lon="-1.19355">
        <ele>56.6</ele>
        <time>2011-10-02T10:11:50Z</time>
      </trkpt>
      <trkpt lat="47.34823" lon="-1.19363">
        <ele>56</ele>
        <time>2011-10-02T10:11:51Z</time>
      </trkpt>
      <trkpt lat="47.3482" lon="-1.19372">
        <ele>55.6</ele>
        <time>2011-10-02T10:11:52Z</time>
      </trkpt>
      <trkpt lat="47.3482" lon="-1.1938">
        <ele>55.9</ele>
        <time>2011-10-02T10:11:53Z</time>
      </trkpt>
      <trkpt lat="47.3482" lon="-1.19389">
        <ele>56.2</ele>
        <time>2011-10-02T10:11:55Z</time>
      </trkpt>
      <trkpt lat="47.34822" lon="-1.19401">
        <ele>57.5</ele>
        <time>2011-10-02T10:11:58Z</time>
      </trkpt>
      <trkpt lat="47.3483" lon="-1.19403">
        <ele>56.9</ele>
        <time>2011-10-02T10:12:00Z</time>
      </trkpt>
      <trkpt lat="47.34837" lon="-1.19405">
        <ele>57.3</ele>
        <time>2011-10-02T10:12:02Z</time>
      </trkpt>
      <trkpt lat="47.34842" lon="-1.19409">
        <ele>56.7</ele>
        <time>2011-10-02T10:12:03Z</time>
      </trkpt>
      <trkpt lat="47.34846" lon="-1.19412">
        <ele>56.7</ele>
        <time>2011-10-02T10:12:04Z</time>
      </trkpt>
      <trkpt lat="47.34851" lon="-1.19415">
        <ele>56.3</ele>
        <time>2011-10-02T10:12:05Z</time>
      </trkpt>
      <trkpt lat="47.34855" lon="-1.1942">
        <ele>56.3</ele>
        <time>2011-10-02T10:12:06Z</time>
      </trkpt>
      <trkpt lat="47.34859" lon="-1.19426">
        <ele>56.1</ele>
        <time>2011-10-02T10:12:07Z</time>
      </trkpt>
      <trkpt lat="47.34863" lon="-1.19431">
        <ele>56.3</ele>
        <time>2011-10-02T10:12:08Z</time>
      </trkpt>
      <trkpt lat="47.34869" lon="-1.19442">
        <ele>57.6</ele>
        <time>2011-10-02T10:12:10Z</time>
      </trkpt>
      <trkpt lat="47.34874" lon="-1.19448">
        <ele>57.9</ele>
        <time>2011-10-02T10:12:11Z</time>
      </trkpt>
      <trkpt lat="47.34877" lon="-1.19454">
        <ele>58.1</ele>
        <time>2011-10-02T10:12:12Z</time>
      </trkpt>
      <trkpt lat="47.34881" lon="-1.19461">
        <ele>58.5</ele>
        <time>2011-10-02T10:12:13Z</time>
      </trkpt>
      <trkpt lat="47.34883" lon="-1.19468">
        <ele>58.7</ele>
        <time>2011-10-02T10:12:14Z</time>
      </trkpt>
      <trkpt lat="47.34886" lon="-1.19474">
        <ele>59.2</ele>
        <time>2011-10-02T10:12:15Z</time>
      </trkpt>
      <trkpt lat="47.3489" lon="-1.19478">
        <ele>59.8</ele>
        <time>2011-10-02T10:12:16Z</time>
      </trkpt>
      <trkpt lat="47.34894" lon="-1.19484">
        <ele>59.9</ele>
        <time>2011-10-02T10:12:17Z</time>
      </trkpt>
      <trkpt lat="47.34898" lon="-1.1949">
        <ele>59.9</ele>
        <time>2011-10-02T10:12:18Z</time>
      </trkpt>
      <trkpt lat="47.34902" lon="-1.19496">
        <ele>59.8</ele>
        <time>2011-10-02T10:12:19Z</time>
      </trkpt>
      <trkpt lat="47.34906" lon="-1.19501">
        <ele>59.9</ele>
        <time>2011-10-02T10:12:20Z</time>
      </trkpt>
      <trkpt lat="47.3491" lon="-1.19508">
        <ele>60.7</ele>
        <time>2011-10-02T10:12:21Z</time>
      </trkpt>
      <trkpt lat="47.34913" lon="-1.19514">
        <ele>61</ele>
        <time>2011-10-02T10:12:22Z</time>
      </trkpt>
      <trkpt lat="47.34919" lon="-1.19521">
        <ele>61.5</ele>
        <time>2011-10-02T10:12:23Z</time>
      </trkpt>
      <trkpt lat="47.34925" lon="-1.19528">
        <ele>61.6</ele>
        <time>2011-10-02T10:12:25Z</time>
      </trkpt>
      <trkpt lat="47.34928" lon="-1.19535">
        <ele>61.9</ele>
        <time>2011-10-02T10:12:26Z</time>
      </trkpt>
      <trkpt lat="47.34937" lon="-1.19546">
        <ele>62.9</ele>
        <time>2011-10-02T10:12:28Z</time>
      </trkpt>
      <trkpt lat="47.34942" lon="-1.19556">
        <ele>61.7</ele>
        <time>2011-10-02T10:12:30Z</time>
      </trkpt>
      <trkpt lat="47.34949" lon="-1.19563">
        <ele>61.9</ele>
        <time>2011-10-02T10:12:31Z</time>
      </trkpt>
      <trkpt lat="47.34948" lon="-1.1957">
        <ele>60.9</ele>
        <time>2011-10-02T10:12:32Z</time>
      </trkpt>
      <trkpt lat="47.34952" lon="-1.19578">
        <ele>61.4</ele>
        <time>2011-10-02T10:12:33Z</time>
      </trkpt>
      <trkpt lat="47.34955" lon="-1.19584">
        <ele>61.8</ele>
        <time>2011-10-02T10:12:34Z</time>
      </trkpt>
      <trkpt lat="47.3496" lon="-1.19594">
        <ele>63.3</ele>
        <time>2011-10-02T10:12:36Z</time>
      </trkpt>
      <trkpt lat="47.34962" lon="-1.19602">
        <ele>64</ele>
        <time>2011-10-02T10:12:37Z</time>
      </trkpt>
      <trkpt lat="47.34966" lon="-1.19606">
        <ele>64.4</ele>
        <time>2011-10-02T10:12:38Z</time>
      </trkpt>
      <trkpt lat="47.3497" lon="-1.19613">
        <ele>64.4</ele>
        <time>2011-10-02T10:12:39Z</time>
      </trkpt>
      <trkpt lat="47.34973" lon="-1.1962">
        <ele>64.5</ele>
        <time>2011-10-02T10:12:40Z</time>
      </trkpt>
      <trkpt lat="47.34975" lon="-1.19626">
        <ele>64.4</ele>
        <time>2011-10-02T10:12:41Z</time>
      </trkpt>
      <trkpt lat="47.34974" lon="-1.19634">
        <ele>64</ele>
        <time>2011-10-02T10:12:42Z</time>
      </trkpt>
      <trkpt lat="47.34976" lon="-1.19641">
        <ele>64.1</ele>
        <time>2011-10-02T10:12:43Z</time>
      </trkpt>
      <trkpt lat="47.34978" lon="-1.19648">
        <ele>63.9</ele>
        <time>2011-10-02T10:12:44Z</time>
      </trkpt>
      <trkpt lat="47.34979" lon="-1.19656">
        <ele>63.8</ele>
        <time>2011-10-02T10:12:45Z</time>
      </trkpt>
      <trkpt lat="47.34981" lon="-1.19665">
        <ele>63.3</ele>
        <time>2011-10-02T10:12:46Z</time>
      </trkpt>
      <trkpt lat="47.34982" lon="-1.19674">
        <ele>62.7</ele>
        <time>2011-10-02T10:12:47Z</time>
      </trkpt>
      <trkpt lat="47.34987" lon="-1.19684">
        <ele>62.4</ele>
        <time>2011-10-02T10:12:49Z</time>
      </trkpt>
      <trkpt lat="47.34991" lon="-1.19696">
        <ele>61.9</ele>
        <time>2011-10-02T10:12:51Z</time>
      </trkpt>
      <trkpt lat="47.34996" lon="-1.19705">
        <ele>61.3</ele>
        <time>2011-10-02T10:12:53Z</time>
      </trkpt>
      <trkpt lat="47.35001" lon="-1.19707">
        <ele>60.2</ele>
        <time>2011-10-02T10:12:55Z</time>
      </trkpt>
      <trkpt lat="47.35008" lon="-1.19706">
        <ele>60.6</ele>
        <time>2011-10-02T10:12:57Z</time>
      </trkpt>
      <trkpt lat="47.35014" lon="-1.19698">
        <ele>61.3</ele>
        <time>2011-10-02T10:13:00Z</time>
      </trkpt>
      <trkpt lat="47.35016" lon="-1.19692">
        <ele>60.7</ele>
        <time>2011-10-02T10:13:02Z</time>
      </trkpt>
      <trkpt lat="47.35015" lon="-1.19684">
        <ele>61</ele>
        <time>2011-10-02T10:13:04Z</time>
      </trkpt>
      <trkpt lat="47.35011" lon="-1.19674">
        <ele>59.9</ele>
        <time>2011-10-02T10:13:06Z</time>
      </trkpt>
      <trkpt lat="47.35007" lon="-1.19666">
        <ele>59.1</ele>
        <time>2011-10-02T10:13:07Z</time>
      </trkpt>
      <trkpt lat="47.35004" lon="-1.19655">
        <ele>58.3</ele>
        <time>2011-10-02T10:13:09Z</time>
      </trkpt>
      <trkpt lat="47.35006" lon="-1.19645">
        <ele>57.9</ele>
        <time>2011-10-02T10:13:12Z</time>
      </trkpt>
      <trkpt lat="47.3501" lon="-1.19636">
        <ele>59.1</ele>
        <time>2011-10-02T10:13:14Z</time>
      </trkpt>
      <trkpt lat="47.35013" lon="-1.19629">
        <ele>59.9</ele>
        <time>2011-10-02T10:13:15Z</time>
      </trkpt>
      <trkpt lat="47.35014" lon="-1.19622">
        <ele>60.3</ele>
        <time>2011-10-02T10:13:16Z</time>
      </trkpt>
      <trkpt lat="47.35016" lon="-1.19616">
        <ele>60.2</ele>
        <time>2011-10-02T10:13:17Z</time>
      </trkpt>
      <trkpt lat="47.35019" lon="-1.19608">
        <ele>61.2</ele>
        <time>2011-10-02T10:13:18Z</time>
      </trkpt>
      <trkpt lat="47.35021" lon="-1.19602">
        <ele>61.6</ele>
        <time>2011-10-02T10:13:19Z</time>
      </trkpt>
      <trkpt lat="47.35025" lon="-1.19595">
        <ele>62.4</ele>
        <time>2011-10-02T10:13:20Z</time>
      </trkpt>
      <trkpt lat="47.35027" lon="-1.19589">
        <ele>62.5</ele>
        <time>2011-10-02T10:13:21Z</time>
      </trkpt>
      <trkpt lat="47.3503" lon="-1.1958">
        <ele>62.9</ele>
        <time>2011-10-02T10:13:22Z</time>
      </trkpt>
      <trkpt lat="47.35031" lon="-1.19573">
        <ele>63.5</ele>
        <time>2011-10-02T10:13:23Z</time>
      </trkpt>
      <trkpt lat="47.35033" lon="-1.19559">
        <ele>63.8</ele>
        <time>2011-10-02T10:13:25Z</time>
      </trkpt>
      <trkpt lat="47.35035" lon="-1.19552">
        <ele>64</ele>
        <time>2011-10-02T10:13:26Z</time>
      </trkpt>
      <trkpt lat="47.35038" lon="-1.19539">
        <ele>64.6</ele>
        <time>2011-10-02T10:13:28Z</time>
      </trkpt>
      <trkpt lat="47.35038" lon="-1.1953">
        <ele>64.4</ele>
        <time>2011-10-02T10:13:29Z</time>
      </trkpt>
      <trkpt lat="47.3504" lon="-1.19516">
        <ele>64</ele>
        <time>2011-10-02T10:13:31Z</time>
      </trkpt>
      <trkpt lat="47.3504" lon="-1.1951">
        <ele>63.6</ele>
        <time>2011-10-02T10:13:32Z</time>
      </trkpt>
      <trkpt lat="47.35041" lon="-1.19502">
        <ele>63.8</ele>
        <time>2011-10-02T10:13:33Z</time>
      </trkpt>
      <trkpt lat="47.35044" lon="-1.19494">
        <ele>63.1</ele>
        <time>2011-10-02T10:13:34Z</time>
      </trkpt>
      <trkpt lat="47.35046" lon="-1.19487">
        <ele>63.4</ele>
        <time>2011-10-02T10:13:35Z</time>
      </trkpt>
      <trkpt lat="47.35048" lon="-1.1948">
        <ele>62.2</ele>
        <time>2011-10-02T10:13:36Z</time>
      </trkpt>
      <trkpt lat="47.35049" lon="-1.19472">
        <ele>62.4</ele>
        <time>2011-10-02T10:13:37Z</time>
      </trkpt>
      <trkpt lat="47.3505" lon="-1.19464">
        <ele>62.3</ele>
        <time>2011-10-02T10:13:38Z</time>
      </trkpt>
      <trkpt lat="47.35052" lon="-1.19456">
        <ele>62.6</ele>
        <time>2011-10-02T10:13:39Z</time>
      </trkpt>
      <trkpt lat="47.35056" lon="-1.1945">
        <ele>62.5</ele>
        <time>2011-10-02T10:13:40Z</time>
      </trkpt>
      <trkpt lat="47.35058" lon="-1.19437">
        <ele>62.4</ele>
        <time>2011-10-02T10:13:42Z</time>
      </trkpt>
      <trkpt lat="47.35058" lon="-1.19429">
        <ele>62.6</ele>
        <time>2011-10-02T10:13:43Z</time>
      </trkpt>
      <trkpt lat="47.35061" lon="-1.19421">
        <ele>63.8</ele>
        <time>2011-10-02T10:13:44Z</time>
      </trkpt>
      <trkpt lat="47.35064" lon="-1.19414">
        <ele>64.8</ele>
        <time>2011-10-02T10:13:45Z</time>
      </trkpt>
      <trkpt lat="47.35065" lon="-1.19408">
        <ele>65.4</ele>
        <time>2011-10-02T10:13:46Z</time>
      </trkpt>
      <trkpt lat="47.35066" lon="-1.194">
        <ele>64.8</ele>
        <time>2011-10-02T10:13:47Z</time>
      </trkpt>
      <trkpt lat="47.35068" lon="-1.19392">
        <ele>65.2</ele>
        <time>2011-10-02T10:13:48Z</time>
      </trkpt>
      <trkpt lat="47.35071" lon="-1.19384">
        <ele>65.5</ele>
        <time>2011-10-02T10:13:49Z</time>
      </trkpt>
      <trkpt lat="47.35071" lon="-1.19376">
        <ele>65.4</ele>
        <time>2011-10-02T10:13:50Z</time>
      </trkpt>
      <trkpt lat="47.35073" lon="-1.19367">
        <ele>64.5</ele>
        <time>2011-10-02T10:13:51Z</time>
      </trkpt>
      <trkpt lat="47.35072" lon="-1.1936">
        <ele>64.5</ele>
        <time>2011-10-02T10:13:52Z</time>
      </trkpt>
      <trkpt lat="47.35076" lon="-1.19354">
        <ele>64.3</ele>
        <time>2011-10-02T10:13:53Z</time>
      </trkpt>
      <trkpt lat="47.35074" lon="-1.19341">
        <ele>64.4</ele>
        <time>2011-10-02T10:13:55Z</time>
      </trkpt>
      <trkpt lat="47.35075" lon="-1.19333">
        <ele>64.8</ele>
        <time>2011-10-02T10:13:56Z</time>
      </trkpt>
      <trkpt lat="47.35078" lon="-1.19326">
        <ele>64.9</ele>
        <time>2011-10-02T10:13:57Z</time>
      </trkpt>
      <trkpt lat="47.35079" lon="-1.19309">
        <ele>64.4</ele>
        <time>2011-10-02T10:13:59Z</time>
      </trkpt>
      <trkpt lat="47.35082" lon="-1.19296">
        <ele>64.2</ele>
        <time>2011-10-02T10:14:01Z</time>
      </trkpt>
      <trkpt lat="47.35088" lon="-1.19289">
        <ele>64.5</ele>
        <time>2011-10-02T10:14:02Z</time>
      </trkpt>
      <trkpt lat="47.3509" lon="-1.1928">
        <ele>64.3</ele>
        <time>2011-10-02T10:14:03Z</time>
      </trkpt>
      <trkpt lat="47.35094" lon="-1.19268">
        <ele>64.2</ele>
        <time>2011-10-02T10:14:05Z</time>
      </trkpt>
      <trkpt lat="47.35095" lon="-1.19261">
        <ele>64.2</ele>
        <time>2011-10-02T10:14:06Z</time>
      </trkpt>
      <trkpt lat="47.35098" lon="-1.19255">
        <ele>63.9</ele>
        <time>2011-10-02T10:14:07Z</time>
      </trkpt>
      <trkpt lat="47.35101" lon="-1.19249">
        <ele>63.4</ele>
        <time>2011-10-02T10:14:08Z</time>
      </trkpt>
      <trkpt lat="47.35104" lon="-1.1924">
        <ele>63.2</ele>
        <time>2011-10-02T10:14:09Z</time>
      </trkpt>
      <trkpt lat="47.35107" lon="-1.19233">
        <ele>63</ele>
        <time>2011-10-02T10:14:10Z</time>
      </trkpt>
      <trkpt lat="47.35108" lon="-1.19224">
        <ele>63.2</ele>
        <time>2011-10-02T10:14:11Z</time>
      </trkpt>
      <trkpt lat="47.35112" lon="-1.19216">
        <ele>64.2</ele>
        <time>2011-10-02T10:14:12Z</time>
      </trkpt>
      <trkpt lat="47.35114" lon="-1.19207">
        <ele>65.1</ele>
        <time>2011-10-02T10:14:13Z</time>
      </trkpt>
      <trkpt lat="47.35117" lon="-1.19192">
        <ele>65.2</ele>
        <time>2011-10-02T10:14:15Z</time>
      </trkpt>
      <trkpt lat="47.3512" lon="-1.19185">
        <ele>65</ele>
        <time>2011-10-02T10:14:16Z</time>
      </trkpt>
      <trkpt lat="47.3512" lon="-1.19176">
        <ele>65.4</ele>
        <time>2011-10-02T10:14:17Z</time>
      </trkpt>
      <trkpt lat="47.35122" lon="-1.19166">
        <ele>65.8</ele>
        <time>2011-10-02T10:14:18Z</time>
      </trkpt>
      <trkpt lat="47.35124" lon="-1.19158">
        <ele>66.1</ele>
        <time>2011-10-02T10:14:19Z</time>
      </trkpt>
      <trkpt lat="47.35126" lon="-1.19149">
        <ele>66.8</ele>
        <time>2011-10-02T10:14:20Z</time>
      </trkpt>
      <trkpt lat="47.35126" lon="-1.19138">
        <ele>66.9</ele>
        <time>2011-10-02T10:14:21Z</time>
      </trkpt>
      <trkpt lat="47.35126" lon="-1.19126">
        <ele>68</ele>
        <time>2011-10-02T10:14:22Z</time>
      </trkpt>
      <trkpt lat="47.35131" lon="-1.19122">
        <ele>68.3</ele>
        <time>2011-10-02T10:14:23Z</time>
      </trkpt>
      <trkpt lat="47.35134" lon="-1.19115">
        <ele>68.7</ele>
        <time>2011-10-02T10:14:24Z</time>
      </trkpt>
      <trkpt lat="47.35138" lon="-1.19108">
        <ele>69.7</ele>
        <time>2011-10-02T10:14:25Z</time>
      </trkpt>
      <trkpt lat="47.35141" lon="-1.19101">
        <ele>69.6</ele>
        <time>2011-10-02T10:14:26Z</time>
      </trkpt>
      <trkpt lat="47.35142" lon="-1.19093">
        <ele>69.2</ele>
        <time>2011-10-02T10:14:27Z</time>
      </trkpt>
      <trkpt lat="47.35143" lon="-1.19083">
        <ele>70</ele>
        <time>2011-10-02T10:14:28Z</time>
      </trkpt>
      <trkpt lat="47.35143" lon="-1.19068">
        <ele>70.5</ele>
        <time>2011-10-02T10:14:29Z</time>
      </trkpt>
      <trkpt lat="47.35147" lon="-1.19056">
        <ele>70.6</ele>
        <time>2011-10-02T10:14:31Z</time>
      </trkpt>
      <trkpt lat="47.35146" lon="-1.19046">
        <ele>71.3</ele>
        <time>2011-10-02T10:14:32Z</time>
      </trkpt>
      <trkpt lat="47.3515" lon="-1.1904">
        <ele>71.6</ele>
        <time>2011-10-02T10:14:33Z</time>
      </trkpt>
      <trkpt lat="47.35148" lon="-1.19027">
        <ele>71.2</ele>
        <time>2011-10-02T10:14:35Z</time>
      </trkpt>
      <trkpt lat="47.3515" lon="-1.19019">
        <ele>71.8</ele>
        <time>2011-10-02T10:14:37Z</time>
      </trkpt>
      <trkpt lat="47.35151" lon="-1.19009">
        <ele>73.2</ele>
        <time>2011-10-02T10:14:39Z</time>
      </trkpt>
      <trkpt lat="47.35149" lon="-1.18996">
        <ele>73.5</ele>
        <time>2011-10-02T10:14:41Z</time>
      </trkpt>
      <trkpt lat="47.35148" lon="-1.18989">
        <ele>73.4</ele>
        <time>2011-10-02T10:14:42Z</time>
      </trkpt>
      <trkpt lat="47.35148" lon="-1.18982">
        <ele>73.3</ele>
        <time>2011-10-02T10:14:43Z</time>
      </trkpt>
      <trkpt lat="47.35148" lon="-1.18975">
        <ele>73.7</ele>
        <time>2011-10-02T10:14:44Z</time>
      </trkpt>
      <trkpt lat="47.35148" lon="-1.18967">
        <ele>74.1</ele>
        <time>2011-10-02T10:14:45Z</time>
      </trkpt>
      <trkpt lat="47.35146" lon="-1.18958">
        <ele>73.9</ele>
        <time>2011-10-02T10:14:46Z</time>
      </trkpt>
      <trkpt lat="47.35146" lon="-1.18951">
        <ele>74.4</ele>
        <time>2011-10-02T10:14:47Z</time>
      </trkpt>
      <trkpt lat="47.35144" lon="-1.18944">
        <ele>74.1</ele>
        <time>2011-10-02T10:14:48Z</time>
      </trkpt>
      <trkpt lat="47.35141" lon="-1.18934">
        <ele>74.2</ele>
        <time>2011-10-02T10:14:49Z</time>
      </trkpt>
      <trkpt lat="47.3514" lon="-1.18923">
        <ele>74.7</ele>
        <time>2011-10-02T10:14:50Z</time>
      </trkpt>
      <trkpt lat="47.35138" lon="-1.18907">
        <ele>74.1</ele>
        <time>2011-10-02T10:14:52Z</time>
      </trkpt>
      <trkpt lat="47.35135" lon="-1.18899">
        <ele>73.4</ele>
        <time>2011-10-02T10:14:53Z</time>
      </trkpt>
      <trkpt lat="47.35137" lon="-1.18889">
        <ele>73.5</ele>
        <time>2011-10-02T10:14:54Z</time>
      </trkpt>
      <trkpt lat="47.35139" lon="-1.18878">
        <ele>74.3</ele>
        <time>2011-10-02T10:14:55Z</time>
      </trkpt>
      <trkpt lat="47.3514" lon="-1.18871">
        <ele>74.7</ele>
        <time>2011-10-02T10:14:56Z</time>
      </trkpt>
      <trkpt lat="47.35141" lon="-1.1886">
        <ele>74.6</ele>
        <time>2011-10-02T10:14:57Z</time>
      </trkpt>
      <trkpt lat="47.35143" lon="-1.18849">
        <ele>75</ele>
        <time>2011-10-02T10:14:58Z</time>
      </trkpt>
      <trkpt lat="47.35143" lon="-1.18837">
        <ele>74.8</ele>
        <time>2011-10-02T10:14:59Z</time>
      </trkpt>
      <trkpt lat="47.3515" lon="-1.1883">
        <ele>74.4</ele>
        <time>2011-10-02T10:15:00Z</time>
      </trkpt>
      <trkpt lat="47.35152" lon="-1.18822">
        <ele>73.7</ele>
        <time>2011-10-02T10:15:01Z</time>
      </trkpt>
      <trkpt lat="47.35152" lon="-1.18813">
        <ele>73.6</ele>
        <time>2011-10-02T10:15:02Z</time>
      </trkpt>
      <trkpt lat="47.35157" lon="-1.18807">
        <ele>73.3</ele>
        <time>2011-10-02T10:15:03Z</time>
      </trkpt>
      <trkpt lat="47.35158" lon="-1.18798">
        <ele>72.6</ele>
        <time>2011-10-02T10:15:04Z</time>
      </trkpt>
      <trkpt lat="47.35158" lon="-1.18791">
        <ele>72.4</ele>
        <time>2011-10-02T10:15:05Z</time>
      </trkpt>
      <trkpt lat="47.35162" lon="-1.18784">
        <ele>72.1</ele>
        <time>2011-10-02T10:15:06Z</time>
      </trkpt>
      <trkpt lat="47.3517" lon="-1.18777">
        <ele>70.4</ele>
        <time>2011-10-02T10:15:07Z</time>
      </trkpt>
      <trkpt lat="47.3517" lon="-1.18766">
        <ele>69.5</ele>
        <time>2011-10-02T10:15:08Z</time>
      </trkpt>
      <trkpt lat="47.35174" lon="-1.18757">
        <ele>68.8</ele>
        <time>2011-10-02T10:15:09Z</time>
      </trkpt>
      <trkpt lat="47.35177" lon="-1.18749">
        <ele>68.6</ele>
        <time>2011-10-02T10:15:10Z</time>
      </trkpt>
      <trkpt lat="47.3518" lon="-1.18736">
        <ele>68.8</ele>
        <time>2011-10-02T10:15:11Z</time>
      </trkpt>
      <trkpt lat="47.35181" lon="-1.18726">
        <ele>68.7</ele>
        <time>2011-10-02T10:15:12Z</time>
      </trkpt>
      <trkpt lat="47.3518" lon="-1.18718">
        <ele>68.6</ele>
        <time>2011-10-02T10:15:13Z</time>
      </trkpt>
      <trkpt lat="47.35183" lon="-1.18707">
        <ele>68.4</ele>
        <time>2011-10-02T10:15:14Z</time>
      </trkpt>
      <trkpt lat="47.35185" lon="-1.187">
        <ele>68.2</ele>
        <time>2011-10-02T10:15:15Z</time>
      </trkpt>
      <trkpt lat="47.35187" lon="-1.18694">
        <ele>67.8</ele>
        <time>2011-10-02T10:15:16Z</time>
      </trkpt>
      <trkpt lat="47.35188" lon="-1.18686">
        <ele>68.2</ele>
        <time>2011-10-02T10:15:17Z</time>
      </trkpt>
      <trkpt lat="47.35191" lon="-1.18679">
        <ele>68.5</ele>
        <time>2011-10-02T10:15:18Z</time>
      </trkpt>
      <trkpt lat="47.35194" lon="-1.1867">
        <ele>68.8</ele>
        <time>2011-10-02T10:15:19Z</time>
      </trkpt>
      <trkpt lat="47.35195" lon="-1.18661">
        <ele>68.7</ele>
        <time>2011-10-02T10:15:20Z</time>
      </trkpt>
      <trkpt lat="47.35199" lon="-1.18653">
        <ele>68.4</ele>
        <time>2011-10-02T10:15:21Z</time>
      </trkpt>
      <trkpt lat="47.35198" lon="-1.18641">
        <ele>68.3</ele>
        <time>2011-10-02T10:15:22Z</time>
      </trkpt>
      <trkpt lat="47.352" lon="-1.18627">
        <ele>68.5</ele>
        <time>2011-10-02T10:15:24Z</time>
      </trkpt>
      <trkpt lat="47.35199" lon="-1.18619">
        <ele>68.9</ele>
        <time>2011-10-02T10:15:25Z</time>
      </trkpt>
      <trkpt lat="47.35201" lon="-1.18609">
        <ele>68.8</ele>
        <time>2011-10-02T10:15:26Z</time>
      </trkpt>
      <trkpt lat="47.35206" lon="-1.18601">
        <ele>69.2</ele>
        <time>2011-10-02T10:15:27Z</time>
      </trkpt>
      <trkpt lat="47.35209" lon="-1.18594">
        <ele>69.3</ele>
        <time>2011-10-02T10:15:28Z</time>
      </trkpt>
      <trkpt lat="47.35211" lon="-1.18587">
        <ele>68.9</ele>
        <time>2011-10-02T10:15:29Z</time>
      </trkpt>
      <trkpt lat="47.35216" lon="-1.18582">
        <ele>69.1</ele>
        <time>2011-10-02T10:15:30Z</time>
      </trkpt>
      <trkpt lat="47.35221" lon="-1.18574">
        <ele>69.1</ele>
        <time>2011-10-02T10:15:31Z</time>
      </trkpt>
      <trkpt lat="47.35224" lon="-1.18568">
        <ele>69.3</ele>
        <time>2011-10-02T10:15:32Z</time>
      </trkpt>
      <trkpt lat="47.35231" lon="-1.1856">
        <ele>69.9</ele>
        <time>2011-10-02T10:15:33Z</time>
      </trkpt>
      <trkpt lat="47.35236" lon="-1.18553">
        <ele>70.3</ele>
        <time>2011-10-02T10:15:34Z</time>
      </trkpt>
      <trkpt lat="47.3524" lon="-1.18546">
        <ele>70.2</ele>
        <time>2011-10-02T10:15:35Z</time>
      </trkpt>
      <trkpt lat="47.35245" lon="-1.1854">
        <ele>70.5</ele>
        <time>2011-10-02T10:15:36Z</time>
      </trkpt>
      <trkpt lat="47.35247" lon="-1.18533">
        <ele>70.3</ele>
        <time>2011-10-02T10:15:37Z</time>
      </trkpt>
      <trkpt lat="47.3525" lon="-1.18526">
        <ele>70.7</ele>
        <time>2011-10-02T10:15:38Z</time>
      </trkpt>
      <trkpt lat="47.35253" lon="-1.1852">
        <ele>69.9</ele>
        <time>2011-10-02T10:15:39Z</time>
      </trkpt>
      <trkpt lat="47.35258" lon="-1.18508">
        <ele>69</ele>
        <time>2011-10-02T10:15:41Z</time>
      </trkpt>
      <trkpt lat="47.35263" lon="-1.18498">
        <ele>69.5</ele>
        <time>2011-10-02T10:15:43Z</time>
      </trkpt>
      <trkpt lat="47.35266" lon="-1.18493">
        <ele>69.5</ele>
        <time>2011-10-02T10:15:44Z</time>
      </trkpt>
      <trkpt lat="47.3527" lon="-1.18485">
        <ele>68</ele>
        <time>2011-10-02T10:15:45Z</time>
      </trkpt>
      <trkpt lat="47.35275" lon="-1.18478">
        <ele>66.6</ele>
        <time>2011-10-02T10:15:46Z</time>
      </trkpt>
      <trkpt lat="47.35279" lon="-1.18464">
        <ele>66.4</ele>
        <time>2011-10-02T10:15:48Z</time>
      </trkpt>
      <trkpt lat="47.35284" lon="-1.1846">
        <ele>67</ele>
        <time>2011-10-02T10:15:49Z</time>
      </trkpt>
      <trkpt lat="47.35288" lon="-1.18456">
        <ele>66.9</ele>
        <time>2011-10-02T10:15:50Z</time>
      </trkpt>
      <trkpt lat="47.35292" lon="-1.1845">
        <ele>67.8</ele>
        <time>2011-10-02T10:15:51Z</time>
      </trkpt>
      <trkpt lat="47.35298" lon="-1.18446">
        <ele>67.2</ele>
        <time>2011-10-02T10:15:52Z</time>
      </trkpt>
      <trkpt lat="47.35302" lon="-1.18442">
        <ele>67.3</ele>
        <time>2011-10-02T10:15:53Z</time>
      </trkpt>
      <trkpt lat="47.35306" lon="-1.18436">
        <ele>66.9</ele>
        <time>2011-10-02T10:15:54Z</time>
      </trkpt>
      <trkpt lat="47.3531" lon="-1.18431">
        <ele>66.9</ele>
        <time>2011-10-02T10:15:55Z</time>
      </trkpt>
      <trkpt lat="47.35314" lon="-1.18427">
        <ele>66.7</ele>
        <time>2011-10-02T10:15:56Z</time>
      </trkpt>
      <trkpt lat="47.35318" lon="-1.18422">
        <ele>66.6</ele>
        <time>2011-10-02T10:15:57Z</time>
      </trkpt>
      <trkpt lat="47.35324" lon="-1.18417">
        <ele>66.3</ele>
        <time>2011-10-02T10:15:58Z</time>
      </trkpt>
      <trkpt lat="47.35328" lon="-1.18411">
        <ele>67</ele>
        <time>2011-10-02T10:15:59Z</time>
      </trkpt>
      <trkpt lat="47.35333" lon="-1.18404">
        <ele>66.8</ele>
        <time>2011-10-02T10:16:00Z</time>
      </trkpt>
      <trkpt lat="47.35336" lon="-1.18399">
        <ele>66.7</ele>
        <time>2011-10-02T10:16:01Z</time>
      </trkpt>
      <trkpt lat="47.3534" lon="-1.18392">
        <ele>66.1</ele>
        <time>2011-10-02T10:16:02Z</time>
      </trkpt>
      <trkpt lat="47.35343" lon="-1.18388">
        <ele>66.3</ele>
        <time>2011-10-02T10:16:03Z</time>
      </trkpt>
      <trkpt lat="47.35347" lon="-1.18378">
        <ele>65.4</ele>
        <time>2011-10-02T10:16:05Z</time>
      </trkpt>
      <trkpt lat="47.3535" lon="-1.18368">
        <ele>64.9</ele>
        <time>2011-10-02T10:16:07Z</time>
      </trkpt>
      <trkpt lat="47.35347" lon="-1.18362">
        <ele>64.7</ele>
        <time>2011-10-02T10:16:08Z</time>
      </trkpt>
      <trkpt lat="47.3535" lon="-1.18357">
        <ele>65.4</ele>
        <time>2011-10-02T10:16:09Z</time>
      </trkpt>
      <trkpt lat="47.3535" lon="-1.1835">
        <ele>65.1</ele>
        <time>2011-10-02T10:16:10Z</time>
      </trkpt>
      <trkpt lat="47.35353" lon="-1.18342">
        <ele>64.9</ele>
        <time>2011-10-02T10:16:11Z</time>
      </trkpt>
      <trkpt lat="47.35356" lon="-1.18335">
        <ele>64.9</ele>
        <time>2011-10-02T10:16:12Z</time>
      </trkpt>
      <trkpt lat="47.35357" lon="-1.18328">
        <ele>65.3</ele>
        <time>2011-10-02T10:16:13Z</time>
      </trkpt>
      <trkpt lat="47.35362" lon="-1.18322">
        <ele>65.9</ele>
        <time>2011-10-02T10:16:14Z</time>
      </trkpt>
      <trkpt lat="47.35366" lon="-1.18316">
        <ele>66</ele>
        <time>2011-10-02T10:16:15Z</time>
      </trkpt>
      <trkpt lat="47.3537" lon="-1.18308">
        <ele>66.3</ele>
        <time>2011-10-02T10:16:16Z</time>
      </trkpt>
      <trkpt lat="47.35372" lon="-1.18301">
        <ele>66</ele>
        <time>2011-10-02T10:16:17Z</time>
      </trkpt>
      <trkpt lat="47.35376" lon="-1.18295">
        <ele>65.6</ele>
        <time>2011-10-02T10:16:18Z</time>
      </trkpt>
      <trkpt lat="47.35383" lon="-1.18282">
        <ele>64.8</ele>
        <time>2011-10-02T10:16:20Z</time>
      </trkpt>
      <trkpt lat="47.35388" lon="-1.18274">
        <ele>65</ele>
        <time>2011-10-02T10:16:21Z</time>
      </trkpt>
      <trkpt lat="47.35386" lon="-1.18267">
        <ele>65.3</ele>
        <time>2011-10-02T10:16:22Z</time>
      </trkpt>
      <trkpt lat="47.35388" lon="-1.1826">
        <ele>65.4</ele>
        <time>2011-10-02T10:16:23Z</time>
      </trkpt>
      <trkpt lat="47.3539" lon="-1.18252">
        <ele>65.2</ele>
        <time>2011-10-02T10:16:24Z</time>
      </trkpt>
      <trkpt lat="47.35394" lon="-1.18246">
        <ele>65.3</ele>
        <time>2011-10-02T10:16:25Z</time>
      </trkpt>
      <trkpt lat="47.35395" lon="-1.18236">
        <ele>65.8</ele>
        <time>2011-10-02T10:16:26Z</time>
      </trkpt>
      <trkpt lat="47.35405" lon="-1.18233">
        <ele>64.2</ele>
        <time>2011-10-02T10:16:27Z</time>
      </trkpt>
      <trkpt lat="47.35411" lon="-1.18231">
        <ele>64</ele>
        <time>2011-10-02T10:16:28Z</time>
      </trkpt>
      <trkpt lat="47.35417" lon="-1.18226">
        <ele>63.8</ele>
        <time>2011-10-02T10:16:29Z</time>
      </trkpt>
      <trkpt lat="47.35421" lon="-1.18222">
        <ele>63.2</ele>
        <time>2011-10-02T10:16:30Z</time>
      </trkpt>
      <trkpt lat="47.35431" lon="-1.18221">
        <ele>63.4</ele>
        <time>2011-10-02T10:16:32Z</time>
      </trkpt>
      <trkpt lat="47.35442" lon="-1.18224">
        <ele>60.2</ele>
        <time>2011-10-02T10:16:33Z</time>
      </trkpt>
      <trkpt lat="47.35449" lon="-1.18227">
        <ele>59</ele>
        <time>2011-10-02T10:16:34Z</time>
      </trkpt>
      <trkpt lat="47.35455" lon="-1.18232">
        <ele>58.7</ele>
        <time>2011-10-02T10:16:35Z</time>
      </trkpt>
      <trkpt lat="47.35463" lon="-1.18237">
        <ele>59.1</ele>
        <time>2011-10-02T10:16:37Z</time>
      </trkpt>
      <trkpt lat="47.35468" lon="-1.18238">
        <ele>59.5</ele>
        <time>2011-10-02T10:16:38Z</time>
      </trkpt>
      <trkpt lat="47.35474" lon="-1.18233">
        <ele>58.9</ele>
        <time>2011-10-02T10:16:40Z</time>
      </trkpt>
      <trkpt lat="47.35474" lon="-1.18222">
        <ele>58.3</ele>
        <time>2011-10-02T10:16:42Z</time>
      </trkpt>
      <trkpt lat="47.35476" lon="-1.18216">
        <ele>57.9</ele>
        <time>2011-10-02T10:16:43Z</time>
      </trkpt>
      <trkpt lat="47.35479" lon="-1.18211">
        <ele>58.4</ele>
        <time>2011-10-02T10:16:44Z</time>
      </trkpt>
      <trkpt lat="47.35482" lon="-1.18206">
        <ele>58.6</ele>
        <time>2011-10-02T10:16:45Z</time>
      </trkpt>
      <trkpt lat="47.35484" lon="-1.18199">
        <ele>58.9</ele>
        <time>2011-10-02T10:16:46Z</time>
      </trkpt>
      <trkpt lat="47.355" lon="-1.18201">
        <ele>59.2</ele>
        <time>2011-10-02T10:16:48Z</time>
      </trkpt>
      <trkpt lat="47.35507" lon="-1.182">
        <ele>58.7</ele>
        <time>2011-10-02T10:16:49Z</time>
      </trkpt>
      <trkpt lat="47.35514" lon="-1.18201">
        <ele>58.6</ele>
        <time>2011-10-02T10:16:51Z</time>
      </trkpt>
      <trkpt lat="47.3552" lon="-1.18205">
        <ele>59.5</ele>
        <time>2011-10-02T10:16:53Z</time>
      </trkpt>
      <trkpt lat="47.35524" lon="-1.18209">
        <ele>59.1</ele>
        <time>2011-10-02T10:16:54Z</time>
      </trkpt>
      <trkpt lat="47.3553" lon="-1.18215">
        <ele>59.6</ele>
        <time>2011-10-02T10:16:56Z</time>
      </trkpt>
      <trkpt lat="47.35536" lon="-1.18221">
        <ele>59.8</ele>
        <time>2011-10-02T10:16:58Z</time>
      </trkpt>
      <trkpt lat="47.35543" lon="-1.1823">
        <ele>60.9</ele>
        <time>2011-10-02T10:17:00Z</time>
      </trkpt>
      <trkpt lat="47.35548" lon="-1.18234">
        <ele>60.5</ele>
        <time>2011-10-02T10:17:01Z</time>
      </trkpt>
      <trkpt lat="47.35552" lon="-1.18239">
        <ele>60.1</ele>
        <time>2011-10-02T10:17:02Z</time>
      </trkpt>
      <trkpt lat="47.35557" lon="-1.18243">
        <ele>60.1</ele>
        <time>2011-10-02T10:17:03Z</time>
      </trkpt>
      <trkpt lat="47.35563" lon="-1.18249">
        <ele>60.3</ele>
        <time>2011-10-02T10:17:05Z</time>
      </trkpt>
      <trkpt lat="47.35568" lon="-1.18253">
        <ele>60.1</ele>
        <time>2011-10-02T10:17:06Z</time>
      </trkpt>
      <trkpt lat="47.35575" lon="-1.18262">
        <ele>59.8</ele>
        <time>2011-10-02T10:17:08Z</time>
      </trkpt>
      <trkpt lat="47.3558" lon="-1.18266">
        <ele>59.5</ele>
        <time>2011-10-02T10:17:09Z</time>
      </trkpt>
      <trkpt lat="47.35589" lon="-1.18274">
        <ele>59.9</ele>
        <time>2011-10-02T10:17:11Z</time>
      </trkpt>
      <trkpt lat="47.35593" lon="-1.18279">
        <ele>59.9</ele>
        <time>2011-10-02T10:17:12Z</time>
      </trkpt>
      <trkpt lat="47.35597" lon="-1.18284">
        <ele>59.8</ele>
        <time>2011-10-02T10:17:13Z</time>
      </trkpt>
      <trkpt lat="47.35601" lon="-1.18288">
        <ele>59.8</ele>
        <time>2011-10-02T10:17:14Z</time>
      </trkpt>
      <trkpt lat="47.35606" lon="-1.18291">
        <ele>59.5</ele>
        <time>2011-10-02T10:17:15Z</time>
      </trkpt>
      <trkpt lat="47.35609" lon="-1.18296">
        <ele>58.6</ele>
        <time>2011-10-02T10:17:16Z</time>
      </trkpt>
      <trkpt lat="47.35615" lon="-1.18304">
        <ele>58.8</ele>
        <time>2011-10-02T10:17:18Z</time>
      </trkpt>
      <trkpt lat="47.35621" lon="-1.18313">
        <ele>58.7</ele>
        <time>2011-10-02T10:17:20Z</time>
      </trkpt>
      <trkpt lat="47.35625" lon="-1.18317">
        <ele>58.6</ele>
        <time>2011-10-02T10:17:21Z</time>
      </trkpt>
      <trkpt lat="47.35632" lon="-1.18325">
        <ele>58.8</ele>
        <time>2011-10-02T10:17:23Z</time>
      </trkpt>
      <trkpt lat="47.35637" lon="-1.18331">
        <ele>58.8</ele>
        <time>2011-10-02T10:17:25Z</time>
      </trkpt>
      <trkpt lat="47.35643" lon="-1.18338">
        <ele>58.8</ele>
        <time>2011-10-02T10:17:27Z</time>
      </trkpt>
      <trkpt lat="47.35648" lon="-1.18343">
        <ele>58.2</ele>
        <time>2011-10-02T10:17:28Z</time>
      </trkpt>
      <trkpt lat="47.35656" lon="-1.18351">
        <ele>58</ele>
        <time>2011-10-02T10:17:30Z</time>
      </trkpt>
      <trkpt lat="47.35662" lon="-1.18357">
        <ele>57.9</ele>
        <time>2011-10-02T10:17:32Z</time>
      </trkpt>
      <trkpt lat="47.35666" lon="-1.18361">
        <ele>57.7</ele>
        <time>2011-10-02T10:17:33Z</time>
      </trkpt>
      <trkpt lat="47.35674" lon="-1.18367">
        <ele>57.7</ele>
        <time>2011-10-02T10:17:35Z</time>
      </trkpt>
      <trkpt lat="47.35678" lon="-1.1837">
        <ele>57.3</ele>
        <time>2011-10-02T10:17:36Z</time>
      </trkpt>
      <trkpt lat="47.35682" lon="-1.18374">
        <ele>57.4</ele>
        <time>2011-10-02T10:17:37Z</time>
      </trkpt>
      <trkpt lat="47.35687" lon="-1.18376">
        <ele>58.1</ele>
        <time>2011-10-02T10:17:38Z</time>
      </trkpt>
      <trkpt lat="47.35694" lon="-1.18383">
        <ele>57.9</ele>
        <time>2011-10-02T10:17:40Z</time>
      </trkpt>
      <trkpt lat="47.357" lon="-1.18391">
        <ele>58.7</ele>
        <time>2011-10-02T10:17:42Z</time>
      </trkpt>
      <trkpt lat="47.35708" lon="-1.18396">
        <ele>57.9</ele>
        <time>2011-10-02T10:17:44Z</time>
      </trkpt>
      <trkpt lat="47.35712" lon="-1.18396">
        <ele>58.7</ele>
        <time>2011-10-02T10:17:45Z</time>
      </trkpt>
      <trkpt lat="47.35721" lon="-1.18399">
        <ele>59.3</ele>
        <time>2011-10-02T10:17:47Z</time>
      </trkpt>
      <trkpt lat="47.35728" lon="-1.18401">
        <ele>59.2</ele>
        <time>2011-10-02T10:17:49Z</time>
      </trkpt>
      <trkpt lat="47.35734" lon="-1.18403">
        <ele>59.8</ele>
        <time>2011-10-02T10:17:51Z</time>
      </trkpt>
      <trkpt lat="47.3574" lon="-1.18405">
        <ele>60</ele>
        <time>2011-10-02T10:17:52Z</time>
      </trkpt>
      <trkpt lat="47.35745" lon="-1.18399">
        <ele>59</ele>
        <time>2011-10-02T10:17:54Z</time>
      </trkpt>
      <trkpt lat="47.35749" lon="-1.18388">
        <ele>59.9</ele>
        <time>2011-10-02T10:17:56Z</time>
      </trkpt>
      <trkpt lat="47.35748" lon="-1.18376">
        <ele>60.3</ele>
        <time>2011-10-02T10:17:58Z</time>
      </trkpt>
      <trkpt lat="47.35751" lon="-1.18367">
        <ele>59.8</ele>
        <time>2011-10-02T10:18:00Z</time>
      </trkpt>
      <trkpt lat="47.35748" lon="-1.18355">
        <ele>60.5</ele>
        <time>2011-10-02T10:18:02Z</time>
      </trkpt>
      <trkpt lat="47.35746" lon="-1.18346">
        <ele>60.2</ele>
        <time>2011-10-02T10:18:03Z</time>
      </trkpt>
      <trkpt lat="47.35744" lon="-1.18334">
        <ele>59.5</ele>
        <time>2011-10-02T10:18:05Z</time>
      </trkpt>
      <trkpt lat="47.3574" lon="-1.18329">
        <ele>59.4</ele>
        <time>2011-10-02T10:18:06Z</time>
      </trkpt>
      <trkpt lat="47.35736" lon="-1.18325">
        <ele>59</ele>
        <time>2011-10-02T10:18:07Z</time>
      </trkpt>
      <trkpt lat="47.35737" lon="-1.18312">
        <ele>60.3</ele>
        <time>2011-10-02T10:18:09Z</time>
      </trkpt>
      <trkpt lat="47.35737" lon="-1.18305">
        <ele>60.6</ele>
        <time>2011-10-02T10:18:10Z</time>
      </trkpt>
      <trkpt lat="47.35736" lon="-1.18298">
        <ele>60.7</ele>
        <time>2011-10-02T10:18:11Z</time>
      </trkpt>
      <trkpt lat="47.35737" lon="-1.18286">
        <ele>61.2</ele>
        <time>2011-10-02T10:18:13Z</time>
      </trkpt>
      <trkpt lat="47.3574" lon="-1.18275">
        <ele>62.3</ele>
        <time>2011-10-02T10:18:15Z</time>
      </trkpt>
      <trkpt lat="47.35741" lon="-1.18262">
        <ele>62.3</ele>
        <time>2011-10-02T10:18:17Z</time>
      </trkpt>
      <trkpt lat="47.35742" lon="-1.18254">
        <ele>62.1</ele>
        <time>2011-10-02T10:18:18Z</time>
      </trkpt>
      <trkpt lat="47.35745" lon="-1.18247">
        <ele>62.6</ele>
        <time>2011-10-02T10:18:19Z</time>
      </trkpt>
      <trkpt lat="47.35746" lon="-1.1824">
        <ele>62.4</ele>
        <time>2011-10-02T10:18:20Z</time>
      </trkpt>
      <trkpt lat="47.35749" lon="-1.18234">
        <ele>62.6</ele>
        <time>2011-10-02T10:18:21Z</time>
      </trkpt>
      <trkpt lat="47.3575" lon="-1.18221">
        <ele>62.7</ele>
        <time>2011-10-02T10:18:23Z</time>
      </trkpt>
      <trkpt lat="47.35754" lon="-1.18214">
        <ele>63</ele>
        <time>2011-10-02T10:18:24Z</time>
      </trkpt>
      <trkpt lat="47.35755" lon="-1.18206">
        <ele>63.1</ele>
        <time>2011-10-02T10:18:25Z</time>
      </trkpt>
      <trkpt lat="47.35756" lon="-1.18198">
        <ele>62.8</ele>
        <time>2011-10-02T10:18:26Z</time>
      </trkpt>
      <trkpt lat="47.35758" lon="-1.18191">
        <ele>63.1</ele>
        <time>2011-10-02T10:18:27Z</time>
      </trkpt>
      <trkpt lat="47.35759" lon="-1.18184">
        <ele>62.7</ele>
        <time>2011-10-02T10:18:28Z</time>
      </trkpt>
      <trkpt lat="47.35762" lon="-1.18171">
        <ele>62.1</ele>
        <time>2011-10-02T10:18:30Z</time>
      </trkpt>
      <trkpt lat="47.35766" lon="-1.18164">
        <ele>62.4</ele>
        <time>2011-10-02T10:18:31Z</time>
      </trkpt>
      <trkpt lat="47.35769" lon="-1.18157">
        <ele>62.8</ele>
        <time>2011-10-02T10:18:32Z</time>
      </trkpt>
      <trkpt lat="47.35772" lon="-1.1815">
        <ele>62.8</ele>
        <time>2011-10-02T10:18:33Z</time>
      </trkpt>
      <trkpt lat="47.35774" lon="-1.18142">
        <ele>63.3</ele>
        <time>2011-10-02T10:18:34Z</time>
      </trkpt>
      <trkpt lat="47.35774" lon="-1.18135">
        <ele>63</ele>
        <time>2011-10-02T10:18:35Z</time>
      </trkpt>
      <trkpt lat="47.35775" lon="-1.18125">
        <ele>64.2</ele>
        <time>2011-10-02T10:18:37Z</time>
      </trkpt>
      <trkpt lat="47.35779" lon="-1.18111">
        <ele>64.7</ele>
        <time>2011-10-02T10:18:39Z</time>
      </trkpt>
      <trkpt lat="47.35784" lon="-1.18104">
        <ele>65.2</ele>
        <time>2011-10-02T10:18:40Z</time>
      </trkpt>
      <trkpt lat="47.35788" lon="-1.18098">
        <ele>64.6</ele>
        <time>2011-10-02T10:18:41Z</time>
      </trkpt>
      <trkpt lat="47.35792" lon="-1.18091">
        <ele>64.9</ele>
        <time>2011-10-02T10:18:42Z</time>
      </trkpt>
      <trkpt lat="47.35796" lon="-1.18085">
        <ele>64.3</ele>
        <time>2011-10-02T10:18:43Z</time>
      </trkpt>
      <trkpt lat="47.358" lon="-1.18078">
        <ele>64.4</ele>
        <time>2011-10-02T10:18:44Z</time>
      </trkpt>
      <trkpt lat="47.35803" lon="-1.18072">
        <ele>64.5</ele>
        <time>2011-10-02T10:18:45Z</time>
      </trkpt>
      <trkpt lat="47.35803" lon="-1.18063">
        <ele>64.8</ele>
        <time>2011-10-02T10:18:46Z</time>
      </trkpt>
      <trkpt lat="47.35805" lon="-1.18053">
        <ele>65.2</ele>
        <time>2011-10-02T10:18:48Z</time>
      </trkpt>
      <trkpt lat="47.35808" lon="-1.18047">
        <ele>65.7</ele>
        <time>2011-10-02T10:18:49Z</time>
      </trkpt>
      <trkpt lat="47.35808" lon="-1.18041">
        <ele>65.8</ele>
        <time>2011-10-02T10:18:50Z</time>
      </trkpt>
      <trkpt lat="47.3581" lon="-1.18028">
        <ele>66.3</ele>
        <time>2011-10-02T10:18:52Z</time>
      </trkpt>
      <trkpt lat="47.3581" lon="-1.1802">
        <ele>66</ele>
        <time>2011-10-02T10:18:53Z</time>
      </trkpt>
      <trkpt lat="47.35816" lon="-1.18014">
        <ele>67</ele>
        <time>2011-10-02T10:18:54Z</time>
      </trkpt>
      <trkpt lat="47.35821" lon="-1.18009">
        <ele>68.4</ele>
        <time>2011-10-02T10:18:55Z</time>
      </trkpt>
      <trkpt lat="47.35826" lon="-1.18003">
        <ele>68.9</ele>
        <time>2011-10-02T10:18:56Z</time>
      </trkpt>
      <trkpt lat="47.35831" lon="-1.17996">
        <ele>69.6</ele>
        <time>2011-10-02T10:18:57Z</time>
      </trkpt>
      <trkpt lat="47.35835" lon="-1.17991">
        <ele>69.8</ele>
        <time>2011-10-02T10:18:58Z</time>
      </trkpt>
      <trkpt lat="47.35841" lon="-1.17986">
        <ele>70.2</ele>
        <time>2011-10-02T10:18:59Z</time>
      </trkpt>
      <trkpt lat="47.35841" lon="-1.17978">
        <ele>70.2</ele>
        <time>2011-10-02T10:19:00Z</time>
      </trkpt>
      <trkpt lat="47.35843" lon="-1.17972">
        <ele>70.3</ele>
        <time>2011-10-02T10:19:01Z</time>
      </trkpt>
      <trkpt lat="47.35846" lon="-1.17966">
        <ele>70.2</ele>
        <time>2011-10-02T10:19:02Z</time>
      </trkpt>
      <trkpt lat="47.35846" lon="-1.17955">
        <ele>71.1</ele>
        <time>2011-10-02T10:19:04Z</time>
      </trkpt>
      <trkpt lat="47.35848" lon="-1.17948">
        <ele>71.1</ele>
        <time>2011-10-02T10:19:05Z</time>
      </trkpt>
      <trkpt lat="47.35846" lon="-1.1794">
        <ele>71.4</ele>
        <time>2011-10-02T10:19:06Z</time>
      </trkpt>
      <trkpt lat="47.35848" lon="-1.17932">
        <ele>71.7</ele>
        <time>2011-10-02T10:19:07Z</time>
      </trkpt>
      <trkpt lat="47.35849" lon="-1.17925">
        <ele>71.4</ele>
        <time>2011-10-02T10:19:08Z</time>
      </trkpt>
      <trkpt lat="47.35854" lon="-1.17917">
        <ele>70.3</ele>
        <time>2011-10-02T10:19:09Z</time>
      </trkpt>
      <trkpt lat="47.35858" lon="-1.17909">
        <ele>70.3</ele>
        <time>2011-10-02T10:19:10Z</time>
      </trkpt>
      <trkpt lat="47.35861" lon="-1.17901">
        <ele>70.2</ele>
        <time>2011-10-02T10:19:11Z</time>
      </trkpt>
      <trkpt lat="47.35867" lon="-1.17894">
        <ele>70</ele>
        <time>2011-10-02T10:19:12Z</time>
      </trkpt>
      <trkpt lat="47.35869" lon="-1.17886">
        <ele>69.9</ele>
        <time>2011-10-02T10:19:13Z</time>
      </trkpt>
      <trkpt lat="47.35873" lon="-1.1788">
        <ele>69.8</ele>
        <time>2011-10-02T10:19:14Z</time>
      </trkpt>
      <trkpt lat="47.35873" lon="-1.17872">
        <ele>69.5</ele>
        <time>2011-10-02T10:19:15Z</time>
      </trkpt>
      <trkpt lat="47.35877" lon="-1.17866">
        <ele>69.9</ele>
        <time>2011-10-02T10:19:16Z</time>
      </trkpt>
      <trkpt lat="47.35882" lon="-1.17857">
        <ele>70.2</ele>
        <time>2011-10-02T10:19:17Z</time>
      </trkpt>
      <trkpt lat="47.35884" lon="-1.17848">
        <ele>70.3</ele>
        <time>2011-10-02T10:19:18Z</time>
      </trkpt>
      <trkpt lat="47.35888" lon="-1.17842">
        <ele>70.6</ele>
        <time>2011-10-02T10:19:19Z</time>
      </trkpt>
      <trkpt lat="47.35889" lon="-1.17834">
        <ele>71.2</ele>
        <time>2011-10-02T10:19:20Z</time>
      </trkpt>
      <trkpt lat="47.35889" lon="-1.17827">
        <ele>72.7</ele>
        <time>2011-10-02T10:19:21Z</time>
      </trkpt>
      <trkpt lat="47.3589" lon="-1.17814">
        <ele>72.5</ele>
        <time>2011-10-02T10:19:23Z</time>
      </trkpt>
      <trkpt lat="47.35886" lon="-1.17797">
        <ele>73.9</ele>
        <time>2011-10-02T10:19:25Z</time>
      </trkpt>
      <trkpt lat="47.35892" lon="-1.17792">
        <ele>75.1</ele>
        <time>2011-10-02T10:19:26Z</time>
      </trkpt>
      <trkpt lat="47.35896" lon="-1.17784">
        <ele>75.3</ele>
        <time>2011-10-02T10:19:27Z</time>
      </trkpt>
      <trkpt lat="47.35903" lon="-1.17773">
        <ele>75.9</ele>
        <time>2011-10-02T10:19:29Z</time>
      </trkpt>
      <trkpt lat="47.35906" lon="-1.17761">
        <ele>76.3</ele>
        <time>2011-10-02T10:19:31Z</time>
      </trkpt>
      <trkpt lat="47.35911" lon="-1.17748">
        <ele>76</ele>
        <time>2011-10-02T10:19:33Z</time>
      </trkpt>
      <trkpt lat="47.35915" lon="-1.17742">
        <ele>76.1</ele>
        <time>2011-10-02T10:19:34Z</time>
      </trkpt>
      <trkpt lat="47.35919" lon="-1.17736">
        <ele>75.5</ele>
        <time>2011-10-02T10:19:35Z</time>
      </trkpt>
      <trkpt lat="47.35923" lon="-1.17728">
        <ele>75.6</ele>
        <time>2011-10-02T10:19:36Z</time>
      </trkpt>
      <trkpt lat="47.35926" lon="-1.17721">
        <ele>76.1</ele>
        <time>2011-10-02T10:19:37Z</time>
      </trkpt>
      <trkpt lat="47.35929" lon="-1.17709">
        <ele>75.5</ele>
        <time>2011-10-02T10:19:39Z</time>
      </trkpt>
      <trkpt lat="47.3593" lon="-1.17702">
        <ele>75.3</ele>
        <time>2011-10-02T10:19:40Z</time>
      </trkpt>
      <trkpt lat="47.35935" lon="-1.17697">
        <ele>74.7</ele>
        <time>2011-10-02T10:19:41Z</time>
      </trkpt>
      <trkpt lat="47.35942" lon="-1.1769">
        <ele>73.7</ele>
        <time>2011-10-02T10:19:42Z</time>
      </trkpt>
      <trkpt lat="47.35945" lon="-1.17682">
        <ele>73.7</ele>
        <time>2011-10-02T10:19:43Z</time>
      </trkpt>
      <trkpt lat="47.35948" lon="-1.17674">
        <ele>74.1</ele>
        <time>2011-10-02T10:19:44Z</time>
      </trkpt>
      <trkpt lat="47.35951" lon="-1.17666">
        <ele>74.1</ele>
        <time>2011-10-02T10:19:45Z</time>
      </trkpt>
      <trkpt lat="47.35952" lon="-1.17658">
        <ele>74.2</ele>
        <time>2011-10-02T10:19:46Z</time>
      </trkpt>
      <trkpt lat="47.35954" lon="-1.17652">
        <ele>73.5</ele>
        <time>2011-10-02T10:19:47Z</time>
      </trkpt>
      <trkpt lat="47.35957" lon="-1.17641">
        <ele>72.8</ele>
        <time>2011-10-02T10:19:49Z</time>
      </trkpt>
      <trkpt lat="47.35959" lon="-1.17628">
        <ele>72.4</ele>
        <time>2011-10-02T10:19:51Z</time>
      </trkpt>
      <trkpt lat="47.35958" lon="-1.17622">
        <ele>72.8</ele>
        <time>2011-10-02T10:19:52Z</time>
      </trkpt>
      <trkpt lat="47.35959" lon="-1.17615">
        <ele>73.5</ele>
        <time>2011-10-02T10:19:53Z</time>
      </trkpt>
      <trkpt lat="47.3596" lon="-1.17608">
        <ele>74.1</ele>
        <time>2011-10-02T10:19:54Z</time>
      </trkpt>
      <trkpt lat="47.35959" lon="-1.17591">
        <ele>74</ele>
        <time>2011-10-02T10:19:56Z</time>
      </trkpt>
      <trkpt lat="47.35959" lon="-1.17584">
        <ele>74.8</ele>
        <time>2011-10-02T10:19:57Z</time>
      </trkpt>
      <trkpt lat="47.35958" lon="-1.17576">
        <ele>74.9</ele>
        <time>2011-10-02T10:19:59Z</time>
      </trkpt>
      <trkpt lat="47.35958" lon="-1.17567">
        <ele>75.1</ele>
        <time>2011-10-02T10:20:00Z</time>
      </trkpt>
      <trkpt lat="47.35956" lon="-1.1756">
        <ele>74.7</ele>
        <time>2011-10-02T10:20:01Z</time>
      </trkpt>
      <trkpt lat="47.35956" lon="-1.1755">
        <ele>73.4</ele>
        <time>2011-10-02T10:20:04Z</time>
      </trkpt>
      <trkpt lat="47.35957" lon="-1.17541">
        <ele>72.7</ele>
        <time>2011-10-02T10:20:06Z</time>
      </trkpt>
      <trkpt lat="47.35965" lon="-1.17536">
        <ele>69.3</ele>
        <time>2011-10-02T10:20:09Z</time>
      </trkpt>
      <trkpt lat="47.35972" lon="-1.17534">
        <ele>67.5</ele>
        <time>2011-10-02T10:20:12Z</time>
      </trkpt>
      <trkpt lat="47.35978" lon="-1.17537">
        <ele>66.7</ele>
        <time>2011-10-02T10:20:14Z</time>
      </trkpt>
      <trkpt lat="47.35982" lon="-1.17538">
        <ele>67.1</ele>
        <time>2011-10-02T10:20:15Z</time>
      </trkpt>
      <trkpt lat="47.35988" lon="-1.1754">
        <ele>68</ele>
        <time>2011-10-02T10:20:17Z</time>
      </trkpt>
      <trkpt lat="47.35993" lon="-1.17542">
        <ele>67.4</ele>
        <time>2011-10-02T10:20:19Z</time>
      </trkpt>
      <trkpt lat="47.35999" lon="-1.17544">
        <ele>67.3</ele>
        <time>2011-10-02T10:20:21Z</time>
      </trkpt>
      <trkpt lat="47.36004" lon="-1.17544">
        <ele>68.3</ele>
        <time>2011-10-02T10:20:23Z</time>
      </trkpt>
      <trkpt lat="47.36009" lon="-1.17546">
        <ele>68.3</ele>
        <time>2011-10-02T10:20:25Z</time>
      </trkpt>
      <trkpt lat="47.36014" lon="-1.17549">
        <ele>67.6</ele>
        <time>2011-10-02T10:20:26Z</time>
      </trkpt>
      <trkpt lat="47.36018" lon="-1.17551">
        <ele>68.2</ele>
        <time>2011-10-02T10:20:27Z</time>
      </trkpt>
      <trkpt lat="47.36022" lon="-1.17555">
        <ele>68.5</ele>
        <time>2011-10-02T10:20:28Z</time>
      </trkpt>
      <trkpt lat="47.36028" lon="-1.17558">
        <ele>67.9</ele>
        <time>2011-10-02T10:20:29Z</time>
      </trkpt>
      <trkpt lat="47.36034" lon="-1.17562">
        <ele>68.4</ele>
        <time>2011-10-02T10:20:31Z</time>
      </trkpt>
      <trkpt lat="47.36039" lon="-1.17563">
        <ele>68.8</ele>
        <time>2011-10-02T10:20:32Z</time>
      </trkpt>
      <trkpt lat="47.36048" lon="-1.17568">
        <ele>68.6</ele>
        <time>2011-10-02T10:20:34Z</time>
      </trkpt>
      <trkpt lat="47.36053" lon="-1.1757">
        <ele>69.2</ele>
        <time>2011-10-02T10:20:35Z</time>
      </trkpt>
      <trkpt lat="47.36058" lon="-1.17573">
        <ele>69.6</ele>
        <time>2011-10-02T10:20:36Z</time>
      </trkpt>
      <trkpt lat="47.36062" lon="-1.17577">
        <ele>69</ele>
        <time>2011-10-02T10:20:37Z</time>
      </trkpt>
      <trkpt lat="47.36068" lon="-1.1758">
        <ele>69.7</ele>
        <time>2011-10-02T10:20:38Z</time>
      </trkpt>
      <trkpt lat="47.36077" lon="-1.17584">
        <ele>69</ele>
        <time>2011-10-02T10:20:40Z</time>
      </trkpt>
      <trkpt lat="47.36082" lon="-1.17586">
        <ele>68.8</ele>
        <time>2011-10-02T10:20:41Z</time>
      </trkpt>
      <trkpt lat="47.36086" lon="-1.17588">
        <ele>68.9</ele>
        <time>2011-10-02T10:20:42Z</time>
      </trkpt>
      <trkpt lat="47.36091" lon="-1.17591">
        <ele>69.5</ele>
        <time>2011-10-02T10:20:43Z</time>
      </trkpt>
      <trkpt lat="47.36097" lon="-1.17593">
        <ele>69</ele>
        <time>2011-10-02T10:20:44Z</time>
      </trkpt>
      <trkpt lat="47.36101" lon="-1.17596">
        <ele>69.2</ele>
        <time>2011-10-02T10:20:45Z</time>
      </trkpt>
      <trkpt lat="47.36107" lon="-1.17599">
        <ele>68.6</ele>
        <time>2011-10-02T10:20:46Z</time>
      </trkpt>
      <trkpt lat="47.36113" lon="-1.17602">
        <ele>68.9</ele>
        <time>2011-10-02T10:20:47Z</time>
      </trkpt>
      <trkpt lat="47.36118" lon="-1.17605">
        <ele>68.4</ele>
        <time>2011-10-02T10:20:48Z</time>
      </trkpt>
      <trkpt lat="47.36122" lon="-1.17608">
        <ele>68.9</ele>
        <time>2011-10-02T10:20:49Z</time>
      </trkpt>
      <trkpt lat="47.36127" lon="-1.17611">
        <ele>69.1</ele>
        <time>2011-10-02T10:20:50Z</time>
      </trkpt>
      <trkpt lat="47.36133" lon="-1.17613">
        <ele>69.3</ele>
        <time>2011-10-02T10:20:51Z</time>
      </trkpt>
      <trkpt lat="47.36143" lon="-1.1762">
        <ele>68.5</ele>
        <time>2011-10-02T10:20:53Z</time>
      </trkpt>
      <trkpt lat="47.36151" lon="-1.17623">
        <ele>69.2</ele>
        <time>2011-10-02T10:20:55Z</time>
      </trkpt>
      <trkpt lat="47.36156" lon="-1.17625">
        <ele>69.9</ele>
        <time>2011-10-02T10:20:56Z</time>
      </trkpt>
      <trkpt lat="47.36165" lon="-1.1763">
        <ele>69</ele>
        <time>2011-10-02T10:20:58Z</time>
      </trkpt>
      <trkpt lat="47.36169" lon="-1.17632">
        <ele>69.3</ele>
        <time>2011-10-02T10:20:59Z</time>
      </trkpt>
      <trkpt lat="47.36179" lon="-1.17633">
        <ele>69.3</ele>
        <time>2011-10-02T10:21:01Z</time>
      </trkpt>
      <trkpt lat="47.36185" lon="-1.17636">
        <ele>69.9</ele>
        <time>2011-10-02T10:21:02Z</time>
      </trkpt>
      <trkpt lat="47.3619" lon="-1.1764">
        <ele>70</ele>
        <time>2011-10-02T10:21:03Z</time>
      </trkpt>
      <trkpt lat="47.36195" lon="-1.17642">
        <ele>69.6</ele>
        <time>2011-10-02T10:21:04Z</time>
      </trkpt>
      <trkpt lat="47.36199" lon="-1.17645">
        <ele>69.6</ele>
        <time>2011-10-02T10:21:05Z</time>
      </trkpt>
      <trkpt lat="47.36205" lon="-1.17647">
        <ele>69.9</ele>
        <time>2011-10-02T10:21:06Z</time>
      </trkpt>
      <trkpt lat="47.36211" lon="-1.1765">
        <ele>70.2</ele>
        <time>2011-10-02T10:21:07Z</time>
      </trkpt>
      <trkpt lat="47.36218" lon="-1.17654">
        <ele>70.3</ele>
        <time>2011-10-02T10:21:08Z</time>
      </trkpt>
      <trkpt lat="47.36224" lon="-1.17656">
        <ele>70.5</ele>
        <time>2011-10-02T10:21:09Z</time>
      </trkpt>
      <trkpt lat="47.36229" lon="-1.17659">
        <ele>70.4</ele>
        <time>2011-10-02T10:21:10Z</time>
      </trkpt>
      <trkpt lat="47.36234" lon="-1.17664">
        <ele>70.4</ele>
        <time>2011-10-02T10:21:11Z</time>
      </trkpt>
      <trkpt lat="47.36239" lon="-1.17666">
        <ele>70.2</ele>
        <time>2011-10-02T10:21:12Z</time>
      </trkpt>
      <trkpt lat="47.36244" lon="-1.17668">
        <ele>70.4</ele>
        <time>2011-10-02T10:21:13Z</time>
      </trkpt>
      <trkpt lat="47.3625" lon="-1.1767">
        <ele>70.1</ele>
        <time>2011-10-02T10:21:14Z</time>
      </trkpt>
      <trkpt lat="47.36255" lon="-1.17672">
        <ele>70.6</ele>
        <time>2011-10-02T10:21:15Z</time>
      </trkpt>
      <trkpt lat="47.3626" lon="-1.17675">
        <ele>70.7</ele>
        <time>2011-10-02T10:21:16Z</time>
      </trkpt>
      <trkpt lat="47.36266" lon="-1.17679">
        <ele>71</ele>
        <time>2011-10-02T10:21:17Z</time>
      </trkpt>
      <trkpt lat="47.36273" lon="-1.17682">
        <ele>70.9</ele>
        <time>2011-10-02T10:21:18Z</time>
      </trkpt>
      <trkpt lat="47.36279" lon="-1.17685">
        <ele>71.2</ele>
        <time>2011-10-02T10:21:19Z</time>
      </trkpt>
      <trkpt lat="47.36284" lon="-1.17688">
        <ele>71.9</ele>
        <time>2011-10-02T10:21:20Z</time>
      </trkpt>
      <trkpt lat="47.36292" lon="-1.17689">
        <ele>71.5</ele>
        <time>2011-10-02T10:21:21Z</time>
      </trkpt>
      <trkpt lat="47.36295" lon="-1.17695">
        <ele>70</ele>
        <time>2011-10-02T10:21:22Z</time>
      </trkpt>
      <trkpt lat="47.363" lon="-1.17699">
        <ele>69.9</ele>
        <time>2011-10-02T10:21:23Z</time>
      </trkpt>
      <trkpt lat="47.36307" lon="-1.17702">
        <ele>69.2</ele>
        <time>2011-10-02T10:21:24Z</time>
      </trkpt>
      <trkpt lat="47.36313" lon="-1.17705">
        <ele>69.3</ele>
        <time>2011-10-02T10:21:25Z</time>
      </trkpt>
      <trkpt lat="47.36318" lon="-1.17708">
        <ele>69.5</ele>
        <time>2011-10-02T10:21:26Z</time>
      </trkpt>
      <trkpt lat="47.36323" lon="-1.17711">
        <ele>69.4</ele>
        <time>2011-10-02T10:21:27Z</time>
      </trkpt>
      <trkpt lat="47.36328" lon="-1.17714">
        <ele>69</ele>
        <time>2011-10-02T10:21:28Z</time>
      </trkpt>
      <trkpt lat="47.36333" lon="-1.17718">
        <ele>68.3</ele>
        <time>2011-10-02T10:21:29Z</time>
      </trkpt>
      <trkpt lat="47.36338" lon="-1.17721">
        <ele>68.4</ele>
        <time>2011-10-02T10:21:30Z</time>
      </trkpt>
      <trkpt lat="47.36343" lon="-1.17724">
        <ele>69</ele>
        <time>2011-10-02T10:21:31Z</time>
      </trkpt>
      <trkpt lat="47.36348" lon="-1.17724">
        <ele>68.9</ele>
        <time>2011-10-02T10:21:32Z</time>
      </trkpt>
      <trkpt lat="47.36353" lon="-1.17727">
        <ele>68.9</ele>
        <time>2011-10-02T10:21:33Z</time>
      </trkpt>
      <trkpt lat="47.3636" lon="-1.17733">
        <ele>68.7</ele>
        <time>2011-10-02T10:21:35Z</time>
      </trkpt>
      <trkpt lat="47.36362" lon="-1.17739">
        <ele>68.7</ele>
        <time>2011-10-02T10:21:37Z</time>
      </trkpt>
      <trkpt lat="47.36362" lon="-1.17747">
        <ele>68</ele>
        <time>2011-10-02T10:21:39Z</time>
      </trkpt>
      <trkpt lat="47.3636" lon="-1.17757">
        <ele>68.2</ele>
        <time>2011-10-02T10:21:41Z</time>
      </trkpt>
      <trkpt lat="47.36355" lon="-1.17766">
        <ele>68.2</ele>
        <time>2011-10-02T10:21:43Z</time>
      </trkpt>
      <trkpt lat="47.36352" lon="-1.17772">
        <ele>67.6</ele>
        <time>2011-10-02T10:21:44Z</time>
      </trkpt>
      <trkpt lat="47.3635" lon="-1.17778">
        <ele>67</ele>
        <time>2011-10-02T10:21:45Z</time>
      </trkpt>
      <trkpt lat="47.36349" lon="-1.17785">
        <ele>67.2</ele>
        <time>2011-10-02T10:21:47Z</time>
      </trkpt>
      <trkpt lat="47.36349" lon="-1.17794">
        <ele>66.9</ele>
        <time>2011-10-02T10:21:49Z</time>
      </trkpt>
      <trkpt lat="47.36344" lon="-1.17803">
        <ele>67.8</ele>
        <time>2011-10-02T10:21:51Z</time>
      </trkpt>
      <trkpt lat="47.36338" lon="-1.17812">
        <ele>69</ele>
        <time>2011-10-02T10:21:54Z</time>
      </trkpt>
      <trkpt lat="47.36342" lon="-1.17819">
        <ele>69.4</ele>
        <time>2011-10-02T10:21:56Z</time>
      </trkpt>
      <trkpt lat="47.36344" lon="-1.17829">
        <ele>69.8</ele>
        <time>2011-10-02T10:21:58Z</time>
      </trkpt>
      <trkpt lat="47.36343" lon="-1.17837">
        <ele>68.6</ele>
        <time>2011-10-02T10:21:59Z</time>
      </trkpt>
      <trkpt lat="47.36338" lon="-1.17848">
        <ele>68.4</ele>
        <time>2011-10-02T10:22:01Z</time>
      </trkpt>
      <trkpt lat="47.36333" lon="-1.17856">
        <ele>67.7</ele>
        <time>2011-10-02T10:22:03Z</time>
      </trkpt>
      <trkpt lat="47.3633" lon="-1.17864">
        <ele>67.2</ele>
        <time>2011-10-02T10:22:05Z</time>
      </trkpt>
      <trkpt lat="47.36325" lon="-1.17868">
        <ele>67.5</ele>
        <time>2011-10-02T10:22:07Z</time>
      </trkpt>
      <trkpt lat="47.3632" lon="-1.17874">
        <ele>67</ele>
        <time>2011-10-02T10:22:08Z</time>
      </trkpt>
      <trkpt lat="47.36315" lon="-1.1788">
        <ele>66.5</ele>
        <time>2011-10-02T10:22:09Z</time>
      </trkpt>
      <trkpt lat="47.36308" lon="-1.17887">
        <ele>64.3</ele>
        <time>2011-10-02T10:22:10Z</time>
      </trkpt>
      <trkpt lat="47.36305" lon="-1.17893">
        <ele>64.2</ele>
        <time>2011-10-02T10:22:11Z</time>
      </trkpt>
      <trkpt lat="47.36302" lon="-1.17899">
        <ele>63.7</ele>
        <time>2011-10-02T10:22:12Z</time>
      </trkpt>
      <trkpt lat="47.36299" lon="-1.17905">
        <ele>63.1</ele>
        <time>2011-10-02T10:22:13Z</time>
      </trkpt>
      <trkpt lat="47.36297" lon="-1.17913">
        <ele>63.2</ele>
        <time>2011-10-02T10:22:14Z</time>
      </trkpt>
      <trkpt lat="47.36296" lon="-1.1792">
        <ele>63.2</ele>
        <time>2011-10-02T10:22:15Z</time>
      </trkpt>
      <trkpt lat="47.36294" lon="-1.17927">
        <ele>63.4</ele>
        <time>2011-10-02T10:22:16Z</time>
      </trkpt>
      <trkpt lat="47.36294" lon="-1.17934">
        <ele>63.2</ele>
        <time>2011-10-02T10:22:17Z</time>
      </trkpt>
      <trkpt lat="47.36293" lon="-1.17941">
        <ele>63.6</ele>
        <time>2011-10-02T10:22:18Z</time>
      </trkpt>
      <trkpt lat="47.36293" lon="-1.1795">
        <ele>63.8</ele>
        <time>2011-10-02T10:22:19Z</time>
      </trkpt>
      <trkpt lat="47.36293" lon="-1.17964">
        <ele>65.3</ele>
        <time>2011-10-02T10:22:21Z</time>
      </trkpt>
      <trkpt lat="47.3629" lon="-1.17976">
        <ele>66.8</ele>
        <time>2011-10-02T10:22:23Z</time>
      </trkpt>
      <trkpt lat="47.36288" lon="-1.17983">
        <ele>67.5</ele>
        <time>2011-10-02T10:22:24Z</time>
      </trkpt>
      <trkpt lat="47.36285" lon="-1.17995">
        <ele>67.9</ele>
        <time>2011-10-02T10:22:26Z</time>
      </trkpt>
      <trkpt lat="47.36283" lon="-1.18008">
        <ele>67</ele>
        <time>2011-10-02T10:22:28Z</time>
      </trkpt>
      <trkpt lat="47.36279" lon="-1.1802">
        <ele>65.8</ele>
        <time>2011-10-02T10:22:30Z</time>
      </trkpt>
      <trkpt lat="47.36276" lon="-1.18028">
        <ele>65.6</ele>
        <time>2011-10-02T10:22:31Z</time>
      </trkpt>
      <trkpt lat="47.36276" lon="-1.18042">
        <ele>64.6</ele>
        <time>2011-10-02T10:22:33Z</time>
      </trkpt>
      <trkpt lat="47.36277" lon="-1.18049">
        <ele>64.1</ele>
        <time>2011-10-02T10:22:34Z</time>
      </trkpt>
      <trkpt lat="47.36276" lon="-1.18056">
        <ele>63.8</ele>
        <time>2011-10-02T10:22:35Z</time>
      </trkpt>
      <trkpt lat="47.36276" lon="-1.18064">
        <ele>64</ele>
        <time>2011-10-02T10:22:36Z</time>
      </trkpt>
      <trkpt lat="47.36274" lon="-1.18077">
        <ele>63.4</ele>
        <time>2011-10-02T10:22:38Z</time>
      </trkpt>
      <trkpt lat="47.36276" lon="-1.18085">
        <ele>62.9</ele>
        <time>2011-10-02T10:22:39Z</time>
      </trkpt>
      <trkpt lat="47.36276" lon="-1.18098">
        <ele>63</ele>
        <time>2011-10-02T10:22:41Z</time>
      </trkpt>
      <trkpt lat="47.36277" lon="-1.18105">
        <ele>62.9</ele>
        <time>2011-10-02T10:22:42Z</time>
      </trkpt>
      <trkpt lat="47.36279" lon="-1.18117">
        <ele>62.3</ele>
        <time>2011-10-02T10:22:44Z</time>
      </trkpt>
      <trkpt lat="47.36278" lon="-1.1813">
        <ele>62.8</ele>
        <time>2011-10-02T10:22:46Z</time>
      </trkpt>
      <trkpt lat="47.36277" lon="-1.1814">
        <ele>62.4</ele>
        <time>2011-10-02T10:22:48Z</time>
      </trkpt>
      <trkpt lat="47.36275" lon="-1.18146">
        <ele>62.5</ele>
        <time>2011-10-02T10:22:49Z</time>
      </trkpt>
      <trkpt lat="47.36272" lon="-1.18157">
        <ele>62.9</ele>
        <time>2011-10-02T10:22:51Z</time>
      </trkpt>
      <trkpt lat="47.3627" lon="-1.18163">
        <ele>63.3</ele>
        <time>2011-10-02T10:22:52Z</time>
      </trkpt>
      <trkpt lat="47.36264" lon="-1.1817">
        <ele>62.8</ele>
        <time>2011-10-02T10:22:53Z</time>
      </trkpt>
      <trkpt lat="47.3626" lon="-1.18177">
        <ele>62.7</ele>
        <time>2011-10-02T10:22:54Z</time>
      </trkpt>
      <trkpt lat="47.36256" lon="-1.18184">
        <ele>62.7</ele>
        <time>2011-10-02T10:22:55Z</time>
      </trkpt>
      <trkpt lat="47.36254" lon="-1.18192">
        <ele>62.9</ele>
        <time>2011-10-02T10:22:56Z</time>
      </trkpt>
      <trkpt lat="47.36251" lon="-1.18205">
        <ele>63.4</ele>
        <time>2011-10-02T10:22:58Z</time>
      </trkpt>
      <trkpt lat="47.36248" lon="-1.18214">
        <ele>62.5</ele>
        <time>2011-10-02T10:23:00Z</time>
      </trkpt>
      <trkpt lat="47.3625" lon="-1.18224">
        <ele>62.7</ele>
        <time>2011-10-02T10:23:02Z</time>
      </trkpt>
      <trkpt lat="47.3625" lon="-1.18233">
        <ele>63.2</ele>
        <time>2011-10-02T10:23:04Z</time>
      </trkpt>
      <trkpt lat="47.36256" lon="-1.18239">
        <ele>63.8</ele>
        <time>2011-10-02T10:23:06Z</time>
      </trkpt>
      <trkpt lat="47.36259" lon="-1.18248">
        <ele>63</ele>
        <time>2011-10-02T10:23:08Z</time>
      </trkpt>
      <trkpt lat="47.3626" lon="-1.18256">
        <ele>64</ele>
        <time>2011-10-02T10:23:10Z</time>
      </trkpt>
      <trkpt lat="47.36266" lon="-1.18265">
        <ele>63.5</ele>
        <time>2011-10-02T10:23:12Z</time>
      </trkpt>
      <trkpt lat="47.36269" lon="-1.1827">
        <ele>63.1</ele>
        <time>2011-10-02T10:23:14Z</time>
      </trkpt>
      <trkpt lat="47.36275" lon="-1.18275">
        <ele>62.9</ele>
        <time>2011-10-02T10:23:16Z</time>
      </trkpt>
      <trkpt lat="47.3628" lon="-1.18279">
        <ele>63.2</ele>
        <time>2011-10-02T10:23:18Z</time>
      </trkpt>
      <trkpt lat="47.36288" lon="-1.1828">
        <ele>63.6</ele>
        <time>2011-10-02T10:23:20Z</time>
      </trkpt>
      <trkpt lat="47.36293" lon="-1.1828">
        <ele>63.8</ele>
        <time>2011-10-02T10:23:22Z</time>
      </trkpt>
      <trkpt lat="47.36298" lon="-1.18279">
        <ele>64.8</ele>
        <time>2011-10-02T10:23:25Z</time>
      </trkpt>
      <trkpt lat="47.36304" lon="-1.1828">
        <ele>64.8</ele>
        <time>2011-10-02T10:23:27Z</time>
      </trkpt>
      <trkpt lat="47.36309" lon="-1.18279">
        <ele>65.7</ele>
        <time>2011-10-02T10:23:33Z</time>
      </trkpt>
      <trkpt lat="47.36313" lon="-1.18284">
        <ele>64.9</ele>
        <time>2011-10-02T10:23:36Z</time>
      </trkpt>
      <trkpt lat="47.36316" lon="-1.1829">
        <ele>65.5</ele>
        <time>2011-10-02T10:23:38Z</time>
      </trkpt>
      <trkpt lat="47.36318" lon="-1.18297">
        <ele>64.9</ele>
        <time>2011-10-02T10:23:39Z</time>
      </trkpt>
      <trkpt lat="47.36319" lon="-1.18304">
        <ele>65</ele>
        <time>2011-10-02T10:23:41Z</time>
      </trkpt>
      <trkpt lat="47.36319" lon="-1.18314">
        <ele>65.1</ele>
        <time>2011-10-02T10:23:44Z</time>
      </trkpt>
      <trkpt lat="47.3632" lon="-1.18321">
        <ele>63.7</ele>
        <time>2011-10-02T10:23:45Z</time>
      </trkpt>
      <trkpt lat="47.36321" lon="-1.18328">
        <ele>62.9</ele>
        <time>2011-10-02T10:23:46Z</time>
      </trkpt>
      <trkpt lat="47.36321" lon="-1.18339">
        <ele>62.8</ele>
        <time>2011-10-02T10:23:48Z</time>
      </trkpt>
      <trkpt lat="47.3632" lon="-1.18347">
        <ele>64.2</ele>
        <time>2011-10-02T10:23:50Z</time>
      </trkpt>
      <trkpt lat="47.36318" lon="-1.18356">
        <ele>63.5</ele>
        <time>2011-10-02T10:23:52Z</time>
      </trkpt>
      <trkpt lat="47.36321" lon="-1.18368">
        <ele>62.3</ele>
        <time>2011-10-02T10:23:54Z</time>
      </trkpt>
      <trkpt lat="47.36322" lon="-1.18374">
        <ele>62.4</ele>
        <time>2011-10-02T10:23:55Z</time>
      </trkpt>
      <trkpt lat="47.36323" lon="-1.18387">
        <ele>62</ele>
        <time>2011-10-02T10:23:57Z</time>
      </trkpt>
      <trkpt lat="47.36321" lon="-1.18396">
        <ele>62.6</ele>
        <time>2011-10-02T10:23:59Z</time>
      </trkpt>
      <trkpt lat="47.36323" lon="-1.18406">
        <ele>63.4</ele>
        <time>2011-10-02T10:24:01Z</time>
      </trkpt>
      <trkpt lat="47.36322" lon="-1.18413">
        <ele>64</ele>
        <time>2011-10-02T10:24:02Z</time>
      </trkpt>
      <trkpt lat="47.36321" lon="-1.18425">
        <ele>64.2</ele>
        <time>2011-10-02T10:24:04Z</time>
      </trkpt>
      <trkpt lat="47.36321" lon="-1.18437">
        <ele>65.1</ele>
        <time>2011-10-02T10:24:06Z</time>
      </trkpt>
      <trkpt lat="47.36319" lon="-1.18447">
        <ele>65.9</ele>
        <time>2011-10-02T10:24:08Z</time>
      </trkpt>
      <trkpt lat="47.36317" lon="-1.18454">
        <ele>65.5</ele>
        <time>2011-10-02T10:24:11Z</time>
      </trkpt>
      <trkpt lat="47.36312" lon="-1.1846">
        <ele>64.6</ele>
        <time>2011-10-02T10:24:34Z</time>
      </trkpt>
      <trkpt lat="47.36304" lon="-1.18462">
        <ele>64</ele>
        <time>2011-10-02T10:24:36Z</time>
      </trkpt>
      <trkpt lat="47.36294" lon="-1.18465">
        <ele>63</ele>
        <time>2011-10-02T10:24:38Z</time>
      </trkpt>
      <trkpt lat="47.36286" lon="-1.18468">
        <ele>62.8</ele>
        <time>2011-10-02T10:24:40Z</time>
      </trkpt>
      <trkpt lat="47.3628" lon="-1.18468">
        <ele>62.4</ele>
        <time>2011-10-02T10:24:41Z</time>
      </trkpt>
      <trkpt lat="47.36275" lon="-1.18468">
        <ele>62.3</ele>
        <time>2011-10-02T10:24:42Z</time>
      </trkpt>
      <trkpt lat="47.36271" lon="-1.18473">
        <ele>62.9</ele>
        <time>2011-10-02T10:24:44Z</time>
      </trkpt>
      <trkpt lat="47.36267" lon="-1.18478">
        <ele>64</ele>
        <time>2011-10-02T10:24:46Z</time>
      </trkpt>
      <trkpt lat="47.36264" lon="-1.18486">
        <ele>64.3</ele>
        <time>2011-10-02T10:24:50Z</time>
      </trkpt>
      <trkpt lat="47.36259" lon="-1.18491">
        <ele>64.8</ele>
        <time>2011-10-02T10:24:52Z</time>
      </trkpt>
      <trkpt lat="47.36254" lon="-1.18497">
        <ele>64.4</ele>
        <time>2011-10-02T10:24:54Z</time>
      </trkpt>
      <trkpt lat="47.36249" lon="-1.18504">
        <ele>62.7</ele>
        <time>2011-10-02T10:24:56Z</time>
      </trkpt>
      <trkpt lat="47.36245" lon="-1.18509">
        <ele>61.6</ele>
        <time>2011-10-02T10:24:58Z</time>
      </trkpt>
      <trkpt lat="47.36244" lon="-1.18517">
        <ele>62.7</ele>
        <time>2011-10-02T10:25:02Z</time>
      </trkpt>
      <trkpt lat="47.36241" lon="-1.18522">
        <ele>63</ele>
        <time>2011-10-02T10:25:05Z</time>
      </trkpt>
      <trkpt lat="47.36238" lon="-1.1853">
        <ele>62.9</ele>
        <time>2011-10-02T10:25:09Z</time>
      </trkpt>
      <trkpt lat="47.36236" lon="-1.18536">
        <ele>63.2</ele>
        <time>2011-10-02T10:25:12Z</time>
      </trkpt>
      <trkpt lat="47.36232" lon="-1.18539">
        <ele>64</ele>
        <time>2011-10-02T10:25:16Z</time>
      </trkpt>
      <trkpt lat="47.36226" lon="-1.18538">
        <ele>63.4</ele>
        <time>2011-10-02T10:25:22Z</time>
      </trkpt>
      <trkpt lat="47.36231" lon="-1.1854">
        <ele>64.8</ele>
        <time>2011-10-02T10:25:32Z</time>
      </trkpt>
      <trkpt lat="47.36236" lon="-1.18541">
        <ele>63.1</ele>
        <time>2011-10-02T10:25:48Z</time>
      </trkpt>
    </trkseg>
  </trk>
</gpx>